<?xml version="1.0" encoding="UTF-8" standalone="no" ?>
<gpx xmlns="http://www.topografix.com/GPX/1/1" xmlns:xsi="http://www.w3.org/2001/XMLSchema-instance" xsi:schemaLocation="http://www.topografix.com/GPX/1/1 http://www.topografix.com/GPX/1/1/gpx.xsd" version="1.1" creator="VisuGPX - https://www.visugpx.com">
  <metadata>
    <name>Soleil d'hiver</name>
    <desc><![CDATA[Météo au top pour profiter de sentiers encore bien propres. Lumière exceptionnelle!]]></desc>
  </metadata>
  <trk>
    <name><![CDATA[18 Rue Antoine Coysevox]]></name>
    <desc><![CDATA[]]></desc>
    <trkseg>
      <trkpt lat="47.51787" lon="6.77476">
        <ele>445</ele>
        <time>2016-12-28T12:48:15.764Z</time>
      </trkpt>
      <trkpt lat="47.51789" lon="6.77465">
        <ele>422.9</ele>
        <time>2016-12-28T12:48:16.742Z</time>
      </trkpt>
      <trkpt lat="47.5179" lon="6.77465">
        <ele>421.9</ele>
        <time>2016-12-28T12:48:49.732Z</time>
      </trkpt>
      <trkpt lat="47.51798" lon="6.77473">
        <ele>421.9</ele>
        <time>2016-12-28T12:48:50.732Z</time>
      </trkpt>
      <trkpt lat="47.51798" lon="6.77473">
        <ele>421.9</ele>
        <time>2016-12-28T12:49:02.735Z</time>
      </trkpt>
      <trkpt lat="47.51794" lon="6.77485">
        <ele>421.9</ele>
        <time>2016-12-28T12:49:03.735Z</time>
      </trkpt>
      <trkpt lat="47.51794" lon="6.77485">
        <ele>421.4</ele>
        <time>2016-12-28T12:50:32.000Z</time>
      </trkpt>
      <trkpt lat="47.51815" lon="6.77477">
        <ele>421.4</ele>
        <time>2016-12-28T12:50:33.000Z</time>
      </trkpt>
      <trkpt lat="47.51815" lon="6.77477">
        <ele>425.6</ele>
        <time>2016-12-28T12:52:29.000Z</time>
      </trkpt>
      <trkpt lat="47.51802" lon="6.77485">
        <ele>425.7</ele>
        <time>2016-12-28T12:52:30.000Z</time>
      </trkpt>
      <trkpt lat="47.51802" lon="6.77485">
        <ele>429.4</ele>
        <time>2016-12-28T12:53:15.000Z</time>
      </trkpt>
      <trkpt lat="47.51811" lon="6.77483">
        <ele>429.5</ele>
        <time>2016-12-28T12:53:16.000Z</time>
      </trkpt>
      <trkpt lat="47.51809" lon="6.77486">
        <ele>433.3</ele>
        <time>2016-12-28T12:54:18.000Z</time>
      </trkpt>
      <trkpt lat="47.51807" lon="6.77487">
        <ele>433.5</ele>
        <time>2016-12-28T12:54:19.000Z</time>
      </trkpt>
      <trkpt lat="47.51807" lon="6.77492">
        <ele>433.7</ele>
        <time>2016-12-28T12:54:21.000Z</time>
      </trkpt>
      <trkpt lat="47.51805" lon="6.77493">
        <ele>433.9</ele>
        <time>2016-12-28T12:54:22.000Z</time>
      </trkpt>
      <trkpt lat="47.51801" lon="6.77494">
        <ele>434</ele>
        <time>2016-12-28T12:54:23.000Z</time>
      </trkpt>
      <trkpt lat="47.51798" lon="6.77492">
        <ele>434.2</ele>
        <time>2016-12-28T12:54:24.000Z</time>
      </trkpt>
      <trkpt lat="47.51795" lon="6.77491">
        <ele>434.4</ele>
        <time>2016-12-28T12:54:25.000Z</time>
      </trkpt>
      <trkpt lat="47.51791" lon="6.7749">
        <ele>436.2</ele>
        <time>2016-12-28T12:54:26.000Z</time>
      </trkpt>
      <trkpt lat="47.51788" lon="6.7749">
        <ele>436.3</ele>
        <time>2016-12-28T12:54:27.000Z</time>
      </trkpt>
      <trkpt lat="47.51784" lon="6.7749">
        <ele>436.4</ele>
        <time>2016-12-28T12:54:28.000Z</time>
      </trkpt>
      <trkpt lat="47.51781" lon="6.7749">
        <ele>436.5</ele>
        <time>2016-12-28T12:54:29.000Z</time>
      </trkpt>
      <trkpt lat="47.51777" lon="6.77489">
        <ele>437.6</ele>
        <time>2016-12-28T12:54:30.000Z</time>
      </trkpt>
      <trkpt lat="47.51772" lon="6.77487">
        <ele>438.2</ele>
        <time>2016-12-28T12:54:31.000Z</time>
      </trkpt>
      <trkpt lat="47.51768" lon="6.77486">
        <ele>438.8</ele>
        <time>2016-12-28T12:54:32.000Z</time>
      </trkpt>
      <trkpt lat="47.51764" lon="6.77485">
        <ele>439.7</ele>
        <time>2016-12-28T12:54:33.000Z</time>
      </trkpt>
      <trkpt lat="47.51759" lon="6.77484">
        <ele>440.3</ele>
        <time>2016-12-28T12:54:34.000Z</time>
      </trkpt>
      <trkpt lat="47.51755" lon="6.77483">
        <ele>441.2</ele>
        <time>2016-12-28T12:54:35.000Z</time>
      </trkpt>
      <trkpt lat="47.51751" lon="6.77483">
        <ele>441.4</ele>
        <time>2016-12-28T12:54:36.000Z</time>
      </trkpt>
      <trkpt lat="47.51746" lon="6.77481">
        <ele>441.7</ele>
        <time>2016-12-28T12:54:37.000Z</time>
      </trkpt>
      <trkpt lat="47.51742" lon="6.7748">
        <ele>441.8</ele>
        <time>2016-12-28T12:54:38.000Z</time>
      </trkpt>
      <trkpt lat="47.51737" lon="6.77481">
        <ele>442.1</ele>
        <time>2016-12-28T12:54:39.000Z</time>
      </trkpt>
      <trkpt lat="47.51733" lon="6.77485">
        <ele>442</ele>
        <time>2016-12-28T12:54:40.000Z</time>
      </trkpt>
      <trkpt lat="47.51731" lon="6.77492">
        <ele>441.7</ele>
        <time>2016-12-28T12:54:41.000Z</time>
      </trkpt>
      <trkpt lat="47.5173" lon="6.77497">
        <ele>441.3</ele>
        <time>2016-12-28T12:54:42.000Z</time>
      </trkpt>
      <trkpt lat="47.51727" lon="6.77503">
        <ele>440.6</ele>
        <time>2016-12-28T12:54:43.000Z</time>
      </trkpt>
      <trkpt lat="47.51724" lon="6.77508">
        <ele>440.5</ele>
        <time>2016-12-28T12:54:44.000Z</time>
      </trkpt>
      <trkpt lat="47.51722" lon="6.77514">
        <ele>441.4</ele>
        <time>2016-12-28T12:54:45.000Z</time>
      </trkpt>
      <trkpt lat="47.51719" lon="6.7752">
        <ele>441.2</ele>
        <time>2016-12-28T12:54:46.000Z</time>
      </trkpt>
      <trkpt lat="47.51717" lon="6.77527">
        <ele>441.6</ele>
        <time>2016-12-28T12:54:47.000Z</time>
      </trkpt>
      <trkpt lat="47.51715" lon="6.77534">
        <ele>442</ele>
        <time>2016-12-28T12:54:48.000Z</time>
      </trkpt>
      <trkpt lat="47.51714" lon="6.77541">
        <ele>442.4</ele>
        <time>2016-12-28T12:54:49.000Z</time>
      </trkpt>
      <trkpt lat="47.51712" lon="6.77546">
        <ele>442.8</ele>
        <time>2016-12-28T12:54:50.000Z</time>
      </trkpt>
      <trkpt lat="47.51709" lon="6.77549">
        <ele>442.8</ele>
        <time>2016-12-28T12:54:51.000Z</time>
      </trkpt>
      <trkpt lat="47.51705" lon="6.77552">
        <ele>442.8</ele>
        <time>2016-12-28T12:54:52.000Z</time>
      </trkpt>
      <trkpt lat="47.51699" lon="6.7755">
        <ele>442.9</ele>
        <time>2016-12-28T12:54:53.000Z</time>
      </trkpt>
      <trkpt lat="47.51695" lon="6.77545">
        <ele>441.9</ele>
        <time>2016-12-28T12:54:54.000Z</time>
      </trkpt>
      <trkpt lat="47.5169" lon="6.7754">
        <ele>441.2</ele>
        <time>2016-12-28T12:54:55.000Z</time>
      </trkpt>
      <trkpt lat="47.51685" lon="6.77535">
        <ele>440.6</ele>
        <time>2016-12-28T12:54:56.000Z</time>
      </trkpt>
      <trkpt lat="47.51679" lon="6.77529">
        <ele>439.5</ele>
        <time>2016-12-28T12:54:57.000Z</time>
      </trkpt>
      <trkpt lat="47.51675" lon="6.77524">
        <ele>439.1</ele>
        <time>2016-12-28T12:54:58.000Z</time>
      </trkpt>
      <trkpt lat="47.51669" lon="6.77517">
        <ele>438.5</ele>
        <time>2016-12-28T12:54:59.000Z</time>
      </trkpt>
      <trkpt lat="47.51664" lon="6.77511">
        <ele>438.5</ele>
        <time>2016-12-28T12:55:00.000Z</time>
      </trkpt>
      <trkpt lat="47.51659" lon="6.77504">
        <ele>438.3</ele>
        <time>2016-12-28T12:55:01.000Z</time>
      </trkpt>
      <trkpt lat="47.51654" lon="6.77498">
        <ele>437.8</ele>
        <time>2016-12-28T12:55:02.000Z</time>
      </trkpt>
      <trkpt lat="47.51648" lon="6.77492">
        <ele>437.4</ele>
        <time>2016-12-28T12:55:03.000Z</time>
      </trkpt>
      <trkpt lat="47.51643" lon="6.77485">
        <ele>437.2</ele>
        <time>2016-12-28T12:55:04.000Z</time>
      </trkpt>
      <trkpt lat="47.51637" lon="6.77478">
        <ele>437.1</ele>
        <time>2016-12-28T12:55:05.000Z</time>
      </trkpt>
      <trkpt lat="47.51632" lon="6.77472">
        <ele>437</ele>
        <time>2016-12-28T12:55:06.000Z</time>
      </trkpt>
      <trkpt lat="47.51627" lon="6.77465">
        <ele>436.6</ele>
        <time>2016-12-28T12:55:07.000Z</time>
      </trkpt>
      <trkpt lat="47.51621" lon="6.77458">
        <ele>436.5</ele>
        <time>2016-12-28T12:55:08.000Z</time>
      </trkpt>
      <trkpt lat="47.51614" lon="6.77449">
        <ele>437</ele>
        <time>2016-12-28T12:55:09.000Z</time>
      </trkpt>
      <trkpt lat="47.51601" lon="6.77433">
        <ele>438.3</ele>
        <time>2016-12-28T12:55:11.000Z</time>
      </trkpt>
      <trkpt lat="47.51594" lon="6.77425">
        <ele>438.9</ele>
        <time>2016-12-28T12:55:12.000Z</time>
      </trkpt>
      <trkpt lat="47.51588" lon="6.77417">
        <ele>438.8</ele>
        <time>2016-12-28T12:55:13.000Z</time>
      </trkpt>
      <trkpt lat="47.51582" lon="6.77409">
        <ele>438.7</ele>
        <time>2016-12-28T12:55:14.000Z</time>
      </trkpt>
      <trkpt lat="47.51575" lon="6.77401">
        <ele>439.2</ele>
        <time>2016-12-28T12:55:15.000Z</time>
      </trkpt>
      <trkpt lat="47.51568" lon="6.77392">
        <ele>439.2</ele>
        <time>2016-12-28T12:55:16.000Z</time>
      </trkpt>
      <trkpt lat="47.51561" lon="6.77383">
        <ele>438.9</ele>
        <time>2016-12-28T12:55:17.000Z</time>
      </trkpt>
      <trkpt lat="47.51555" lon="6.77375">
        <ele>438.1</ele>
        <time>2016-12-28T12:55:18.000Z</time>
      </trkpt>
      <trkpt lat="47.51548" lon="6.77367">
        <ele>436.8</ele>
        <time>2016-12-28T12:55:19.000Z</time>
      </trkpt>
      <trkpt lat="47.51541" lon="6.77358">
        <ele>435.8</ele>
        <time>2016-12-28T12:55:20.000Z</time>
      </trkpt>
      <trkpt lat="47.51535" lon="6.77351">
        <ele>434.9</ele>
        <time>2016-12-28T12:55:21.000Z</time>
      </trkpt>
      <trkpt lat="47.51528" lon="6.77342">
        <ele>434.4</ele>
        <time>2016-12-28T12:55:22.000Z</time>
      </trkpt>
      <trkpt lat="47.51521" lon="6.77334">
        <ele>433.7</ele>
        <time>2016-12-28T12:55:23.000Z</time>
      </trkpt>
      <trkpt lat="47.51513" lon="6.77324">
        <ele>433.1</ele>
        <time>2016-12-28T12:55:24.000Z</time>
      </trkpt>
      <trkpt lat="47.51505" lon="6.77315">
        <ele>432</ele>
        <time>2016-12-28T12:55:25.000Z</time>
      </trkpt>
      <trkpt lat="47.51498" lon="6.77306">
        <ele>430.3</ele>
        <time>2016-12-28T12:55:26.000Z</time>
      </trkpt>
      <trkpt lat="47.51493" lon="6.77294">
        <ele>428.6</ele>
        <time>2016-12-28T12:55:27.000Z</time>
      </trkpt>
      <trkpt lat="47.5149" lon="6.77278">
        <ele>427.7</ele>
        <time>2016-12-28T12:55:28.000Z</time>
      </trkpt>
      <trkpt lat="47.51488" lon="6.77263">
        <ele>427</ele>
        <time>2016-12-28T12:55:29.000Z</time>
      </trkpt>
      <trkpt lat="47.51485" lon="6.7725">
        <ele>425.7</ele>
        <time>2016-12-28T12:55:30.000Z</time>
      </trkpt>
      <trkpt lat="47.51483" lon="6.77236">
        <ele>425.2</ele>
        <time>2016-12-28T12:55:31.000Z</time>
      </trkpt>
      <trkpt lat="47.51482" lon="6.77224">
        <ele>424.4</ele>
        <time>2016-12-28T12:55:32.000Z</time>
      </trkpt>
      <trkpt lat="47.51482" lon="6.77212">
        <ele>424.1</ele>
        <time>2016-12-28T12:55:33.000Z</time>
      </trkpt>
      <trkpt lat="47.51478" lon="6.77204">
        <ele>423.9</ele>
        <time>2016-12-28T12:55:34.000Z</time>
      </trkpt>
      <trkpt lat="47.51472" lon="6.77198">
        <ele>423.8</ele>
        <time>2016-12-28T12:55:35.000Z</time>
      </trkpt>
      <trkpt lat="47.51465" lon="6.77198">
        <ele>423.8</ele>
        <time>2016-12-28T12:55:36.000Z</time>
      </trkpt>
      <trkpt lat="47.51456" lon="6.772">
        <ele>424.1</ele>
        <time>2016-12-28T12:55:37.000Z</time>
      </trkpt>
      <trkpt lat="47.51448" lon="6.77204">
        <ele>424</ele>
        <time>2016-12-28T12:55:38.000Z</time>
      </trkpt>
      <trkpt lat="47.5144" lon="6.77209">
        <ele>424.3</ele>
        <time>2016-12-28T12:55:39.000Z</time>
      </trkpt>
      <trkpt lat="47.51432" lon="6.77213">
        <ele>424.1</ele>
        <time>2016-12-28T12:55:40.000Z</time>
      </trkpt>
      <trkpt lat="47.51425" lon="6.77218">
        <ele>424.2</ele>
        <time>2016-12-28T12:55:41.000Z</time>
      </trkpt>
      <trkpt lat="47.51417" lon="6.77221">
        <ele>424.1</ele>
        <time>2016-12-28T12:55:42.000Z</time>
      </trkpt>
      <trkpt lat="47.51409" lon="6.77225">
        <ele>424.2</ele>
        <time>2016-12-28T12:55:43.000Z</time>
      </trkpt>
      <trkpt lat="47.51402" lon="6.77228">
        <ele>424.4</ele>
        <time>2016-12-28T12:55:44.000Z</time>
      </trkpt>
      <trkpt lat="47.51397" lon="6.77231">
        <ele>424.7</ele>
        <time>2016-12-28T12:55:45.000Z</time>
      </trkpt>
      <trkpt lat="47.5139" lon="6.77235">
        <ele>425.1</ele>
        <time>2016-12-28T12:55:46.000Z</time>
      </trkpt>
      <trkpt lat="47.51385" lon="6.77238">
        <ele>425.3</ele>
        <time>2016-12-28T12:55:47.000Z</time>
      </trkpt>
      <trkpt lat="47.5138" lon="6.77242">
        <ele>425.5</ele>
        <time>2016-12-28T12:55:48.000Z</time>
      </trkpt>
      <trkpt lat="47.51375" lon="6.77245">
        <ele>425.9</ele>
        <time>2016-12-28T12:55:49.000Z</time>
      </trkpt>
      <trkpt lat="47.5137" lon="6.77248">
        <ele>426</ele>
        <time>2016-12-28T12:55:50.000Z</time>
      </trkpt>
      <trkpt lat="47.51366" lon="6.77252">
        <ele>426.2</ele>
        <time>2016-12-28T12:55:51.000Z</time>
      </trkpt>
      <trkpt lat="47.51363" lon="6.77255">
        <ele>426.4</ele>
        <time>2016-12-28T12:55:52.000Z</time>
      </trkpt>
      <trkpt lat="47.51358" lon="6.77258">
        <ele>427</ele>
        <time>2016-12-28T12:55:53.000Z</time>
      </trkpt>
      <trkpt lat="47.51355" lon="6.77261">
        <ele>427.1</ele>
        <time>2016-12-28T12:55:54.000Z</time>
      </trkpt>
      <trkpt lat="47.51352" lon="6.77265">
        <ele>426.8</ele>
        <time>2016-12-28T12:55:55.000Z</time>
      </trkpt>
      <trkpt lat="47.51348" lon="6.77268">
        <ele>426.8</ele>
        <time>2016-12-28T12:55:56.000Z</time>
      </trkpt>
      <trkpt lat="47.51345" lon="6.77271">
        <ele>427.6</ele>
        <time>2016-12-28T12:55:57.000Z</time>
      </trkpt>
      <trkpt lat="47.51342" lon="6.77273">
        <ele>427.7</ele>
        <time>2016-12-28T12:55:58.000Z</time>
      </trkpt>
      <trkpt lat="47.51339" lon="6.77275">
        <ele>427.4</ele>
        <time>2016-12-28T12:55:59.000Z</time>
      </trkpt>
      <trkpt lat="47.51336" lon="6.77278">
        <ele>427.3</ele>
        <time>2016-12-28T12:56:00.000Z</time>
      </trkpt>
      <trkpt lat="47.51333" lon="6.77279">
        <ele>427.3</ele>
        <time>2016-12-28T12:56:01.000Z</time>
      </trkpt>
      <trkpt lat="47.5133" lon="6.7728">
        <ele>427.3</ele>
        <time>2016-12-28T12:56:02.000Z</time>
      </trkpt>
      <trkpt lat="47.51327" lon="6.77281">
        <ele>427.2</ele>
        <time>2016-12-28T12:56:03.000Z</time>
      </trkpt>
      <trkpt lat="47.51323" lon="6.77282">
        <ele>427.1</ele>
        <time>2016-12-28T12:56:04.000Z</time>
      </trkpt>
      <trkpt lat="47.5132" lon="6.77282">
        <ele>427.1</ele>
        <time>2016-12-28T12:56:05.000Z</time>
      </trkpt>
      <trkpt lat="47.51316" lon="6.77282">
        <ele>427.1</ele>
        <time>2016-12-28T12:56:06.000Z</time>
      </trkpt>
      <trkpt lat="47.51313" lon="6.77281">
        <ele>427.3</ele>
        <time>2016-12-28T12:56:07.000Z</time>
      </trkpt>
      <trkpt lat="47.51309" lon="6.7728">
        <ele>427.1</ele>
        <time>2016-12-28T12:56:08.000Z</time>
      </trkpt>
      <trkpt lat="47.51305" lon="6.77279">
        <ele>427.2</ele>
        <time>2016-12-28T12:56:09.000Z</time>
      </trkpt>
      <trkpt lat="47.51297" lon="6.77276">
        <ele>427.2</ele>
        <time>2016-12-28T12:56:11.000Z</time>
      </trkpt>
      <trkpt lat="47.51292" lon="6.77275">
        <ele>426.8</ele>
        <time>2016-12-28T12:56:12.000Z</time>
      </trkpt>
      <trkpt lat="47.51288" lon="6.77273">
        <ele>427.2</ele>
        <time>2016-12-28T12:56:13.000Z</time>
      </trkpt>
      <trkpt lat="47.51284" lon="6.77271">
        <ele>427.2</ele>
        <time>2016-12-28T12:56:14.000Z</time>
      </trkpt>
      <trkpt lat="47.5128" lon="6.77269">
        <ele>427.2</ele>
        <time>2016-12-28T12:56:15.000Z</time>
      </trkpt>
      <trkpt lat="47.51276" lon="6.77266">
        <ele>428.1</ele>
        <time>2016-12-28T12:56:16.000Z</time>
      </trkpt>
      <trkpt lat="47.51271" lon="6.77263">
        <ele>429.7</ele>
        <time>2016-12-28T12:56:17.000Z</time>
      </trkpt>
      <trkpt lat="47.51267" lon="6.7726">
        <ele>430.8</ele>
        <time>2016-12-28T12:56:18.000Z</time>
      </trkpt>
      <trkpt lat="47.51263" lon="6.77257">
        <ele>431.4</ele>
        <time>2016-12-28T12:56:19.000Z</time>
      </trkpt>
      <trkpt lat="47.5126" lon="6.77252">
        <ele>432.4</ele>
        <time>2016-12-28T12:56:20.000Z</time>
      </trkpt>
      <trkpt lat="47.51256" lon="6.77247">
        <ele>433.2</ele>
        <time>2016-12-28T12:56:21.000Z</time>
      </trkpt>
      <trkpt lat="47.51253" lon="6.77242">
        <ele>433.8</ele>
        <time>2016-12-28T12:56:22.000Z</time>
      </trkpt>
      <trkpt lat="47.5125" lon="6.77236">
        <ele>434.1</ele>
        <time>2016-12-28T12:56:23.000Z</time>
      </trkpt>
      <trkpt lat="47.51247" lon="6.77232">
        <ele>433.8</ele>
        <time>2016-12-28T12:56:24.000Z</time>
      </trkpt>
      <trkpt lat="47.51244" lon="6.77225">
        <ele>433.2</ele>
        <time>2016-12-28T12:56:25.000Z</time>
      </trkpt>
      <trkpt lat="47.5124" lon="6.77219">
        <ele>432.6</ele>
        <time>2016-12-28T12:56:26.000Z</time>
      </trkpt>
      <trkpt lat="47.51237" lon="6.77213">
        <ele>432.2</ele>
        <time>2016-12-28T12:56:27.000Z</time>
      </trkpt>
      <trkpt lat="47.51234" lon="6.77206">
        <ele>431.8</ele>
        <time>2016-12-28T12:56:28.000Z</time>
      </trkpt>
      <trkpt lat="47.51231" lon="6.77199">
        <ele>431.3</ele>
        <time>2016-12-28T12:56:29.000Z</time>
      </trkpt>
      <trkpt lat="47.51228" lon="6.77192">
        <ele>430.8</ele>
        <time>2016-12-28T12:56:30.000Z</time>
      </trkpt>
      <trkpt lat="47.51224" lon="6.77185">
        <ele>430.2</ele>
        <time>2016-12-28T12:56:31.000Z</time>
      </trkpt>
      <trkpt lat="47.51221" lon="6.77178">
        <ele>429.3</ele>
        <time>2016-12-28T12:56:32.000Z</time>
      </trkpt>
      <trkpt lat="47.51218" lon="6.77171">
        <ele>428.5</ele>
        <time>2016-12-28T12:56:33.000Z</time>
      </trkpt>
      <trkpt lat="47.51215" lon="6.77165">
        <ele>427.7</ele>
        <time>2016-12-28T12:56:34.000Z</time>
      </trkpt>
      <trkpt lat="47.51212" lon="6.77159">
        <ele>427</ele>
        <time>2016-12-28T12:56:35.000Z</time>
      </trkpt>
      <trkpt lat="47.51209" lon="6.77152">
        <ele>426.3</ele>
        <time>2016-12-28T12:56:36.000Z</time>
      </trkpt>
      <trkpt lat="47.51206" lon="6.77146">
        <ele>426</ele>
        <time>2016-12-28T12:56:37.000Z</time>
      </trkpt>
      <trkpt lat="47.51202" lon="6.77139">
        <ele>425.8</ele>
        <time>2016-12-28T12:56:38.000Z</time>
      </trkpt>
      <trkpt lat="47.51198" lon="6.77132">
        <ele>425.4</ele>
        <time>2016-12-28T12:56:39.000Z</time>
      </trkpt>
      <trkpt lat="47.51194" lon="6.77124">
        <ele>425.4</ele>
        <time>2016-12-28T12:56:40.000Z</time>
      </trkpt>
      <trkpt lat="47.5119" lon="6.77117">
        <ele>425.5</ele>
        <time>2016-12-28T12:56:41.000Z</time>
      </trkpt>
      <trkpt lat="47.51186" lon="6.77108">
        <ele>425.7</ele>
        <time>2016-12-28T12:56:42.000Z</time>
      </trkpt>
      <trkpt lat="47.51181" lon="6.77101">
        <ele>425.7</ele>
        <time>2016-12-28T12:56:43.000Z</time>
      </trkpt>
      <trkpt lat="47.51177" lon="6.77093">
        <ele>426</ele>
        <time>2016-12-28T12:56:44.000Z</time>
      </trkpt>
      <trkpt lat="47.51173" lon="6.77085">
        <ele>426.1</ele>
        <time>2016-12-28T12:56:45.000Z</time>
      </trkpt>
      <trkpt lat="47.51168" lon="6.77077">
        <ele>426.3</ele>
        <time>2016-12-28T12:56:46.000Z</time>
      </trkpt>
      <trkpt lat="47.51164" lon="6.77069">
        <ele>426.6</ele>
        <time>2016-12-28T12:56:47.000Z</time>
      </trkpt>
      <trkpt lat="47.51158" lon="6.77061">
        <ele>426.9</ele>
        <time>2016-12-28T12:56:48.000Z</time>
      </trkpt>
      <trkpt lat="47.51153" lon="6.77055">
        <ele>426.8</ele>
        <time>2016-12-28T12:56:49.000Z</time>
      </trkpt>
      <trkpt lat="47.51147" lon="6.77049">
        <ele>427</ele>
        <time>2016-12-28T12:56:50.000Z</time>
      </trkpt>
      <trkpt lat="47.5114" lon="6.77042">
        <ele>427.2</ele>
        <time>2016-12-28T12:56:51.000Z</time>
      </trkpt>
      <trkpt lat="47.51134" lon="6.77036">
        <ele>427.6</ele>
        <time>2016-12-28T12:56:52.000Z</time>
      </trkpt>
      <trkpt lat="47.51128" lon="6.7703">
        <ele>428.2</ele>
        <time>2016-12-28T12:56:53.000Z</time>
      </trkpt>
      <trkpt lat="47.51122" lon="6.77025">
        <ele>428.7</ele>
        <time>2016-12-28T12:56:54.000Z</time>
      </trkpt>
      <trkpt lat="47.51116" lon="6.7702">
        <ele>428.8</ele>
        <time>2016-12-28T12:56:55.000Z</time>
      </trkpt>
      <trkpt lat="47.51109" lon="6.77014">
        <ele>429.2</ele>
        <time>2016-12-28T12:56:56.000Z</time>
      </trkpt>
      <trkpt lat="47.51103" lon="6.77009">
        <ele>428.8</ele>
        <time>2016-12-28T12:56:57.000Z</time>
      </trkpt>
      <trkpt lat="47.51097" lon="6.77004">
        <ele>428.6</ele>
        <time>2016-12-28T12:56:58.000Z</time>
      </trkpt>
      <trkpt lat="47.51091" lon="6.76999">
        <ele>428.2</ele>
        <time>2016-12-28T12:56:59.000Z</time>
      </trkpt>
      <trkpt lat="47.51084" lon="6.76994">
        <ele>428.3</ele>
        <time>2016-12-28T12:57:00.000Z</time>
      </trkpt>
      <trkpt lat="47.51078" lon="6.76989">
        <ele>428.1</ele>
        <time>2016-12-28T12:57:01.000Z</time>
      </trkpt>
      <trkpt lat="47.51072" lon="6.76984">
        <ele>428</ele>
        <time>2016-12-28T12:57:02.000Z</time>
      </trkpt>
      <trkpt lat="47.51065" lon="6.76979">
        <ele>427.8</ele>
        <time>2016-12-28T12:57:03.000Z</time>
      </trkpt>
      <trkpt lat="47.51058" lon="6.76974">
        <ele>427.9</ele>
        <time>2016-12-28T12:57:04.000Z</time>
      </trkpt>
      <trkpt lat="47.51053" lon="6.7697">
        <ele>427.8</ele>
        <time>2016-12-28T12:57:05.000Z</time>
      </trkpt>
      <trkpt lat="47.51047" lon="6.76966">
        <ele>428</ele>
        <time>2016-12-28T12:57:06.000Z</time>
      </trkpt>
      <trkpt lat="47.51041" lon="6.76961">
        <ele>428.3</ele>
        <time>2016-12-28T12:57:07.000Z</time>
      </trkpt>
      <trkpt lat="47.51035" lon="6.76956">
        <ele>428.9</ele>
        <time>2016-12-28T12:57:08.000Z</time>
      </trkpt>
      <trkpt lat="47.51029" lon="6.76951">
        <ele>429.2</ele>
        <time>2016-12-28T12:57:09.000Z</time>
      </trkpt>
      <trkpt lat="47.51024" lon="6.76946">
        <ele>429.8</ele>
        <time>2016-12-28T12:57:10.000Z</time>
      </trkpt>
      <trkpt lat="47.51018" lon="6.76942">
        <ele>430.1</ele>
        <time>2016-12-28T12:57:11.000Z</time>
      </trkpt>
      <trkpt lat="47.51013" lon="6.76938">
        <ele>430.3</ele>
        <time>2016-12-28T12:57:12.000Z</time>
      </trkpt>
      <trkpt lat="47.51008" lon="6.76935">
        <ele>430.5</ele>
        <time>2016-12-28T12:57:13.000Z</time>
      </trkpt>
      <trkpt lat="47.51003" lon="6.76932">
        <ele>430.8</ele>
        <time>2016-12-28T12:57:14.000Z</time>
      </trkpt>
      <trkpt lat="47.50999" lon="6.7693">
        <ele>431</ele>
        <time>2016-12-28T12:57:15.000Z</time>
      </trkpt>
      <trkpt lat="47.50995" lon="6.76926">
        <ele>430.7</ele>
        <time>2016-12-28T12:57:16.000Z</time>
      </trkpt>
      <trkpt lat="47.50992" lon="6.76922">
        <ele>430.4</ele>
        <time>2016-12-28T12:57:17.000Z</time>
      </trkpt>
      <trkpt lat="47.5099" lon="6.7692">
        <ele>430.4</ele>
        <time>2016-12-28T12:57:18.000Z</time>
      </trkpt>
      <trkpt lat="47.50987" lon="6.76916">
        <ele>430.5</ele>
        <time>2016-12-28T12:57:19.000Z</time>
      </trkpt>
      <trkpt lat="47.50984" lon="6.76913">
        <ele>430.4</ele>
        <time>2016-12-28T12:57:20.000Z</time>
      </trkpt>
      <trkpt lat="47.5098" lon="6.76912">
        <ele>430.4</ele>
        <time>2016-12-28T12:57:21.000Z</time>
      </trkpt>
      <trkpt lat="47.50977" lon="6.76913">
        <ele>430.5</ele>
        <time>2016-12-28T12:57:22.000Z</time>
      </trkpt>
      <trkpt lat="47.50974" lon="6.76915">
        <ele>430.9</ele>
        <time>2016-12-28T12:57:23.000Z</time>
      </trkpt>
      <trkpt lat="47.50972" lon="6.76918">
        <ele>430.9</ele>
        <time>2016-12-28T12:57:24.000Z</time>
      </trkpt>
      <trkpt lat="47.50969" lon="6.76921">
        <ele>430.9</ele>
        <time>2016-12-28T12:57:25.000Z</time>
      </trkpt>
      <trkpt lat="47.50967" lon="6.76924">
        <ele>430.9</ele>
        <time>2016-12-28T12:57:26.000Z</time>
      </trkpt>
      <trkpt lat="47.50965" lon="6.76927">
        <ele>430.9</ele>
        <time>2016-12-28T12:57:27.000Z</time>
      </trkpt>
      <trkpt lat="47.50963" lon="6.7693">
        <ele>431</ele>
        <time>2016-12-28T12:57:28.000Z</time>
      </trkpt>
      <trkpt lat="47.50962" lon="6.76932">
        <ele>431.1</ele>
        <time>2016-12-28T12:57:29.000Z</time>
      </trkpt>
      <trkpt lat="47.50961" lon="6.76937">
        <ele>431.4</ele>
        <time>2016-12-28T12:57:31.000Z</time>
      </trkpt>
      <trkpt lat="47.50961" lon="6.7694">
        <ele>431.5</ele>
        <time>2016-12-28T12:57:32.000Z</time>
      </trkpt>
      <trkpt lat="47.50961" lon="6.76946">
        <ele>431.8</ele>
        <time>2016-12-28T12:57:34.000Z</time>
      </trkpt>
      <trkpt lat="47.50961" lon="6.76947">
        <ele>431.9</ele>
        <time>2016-12-28T12:57:35.000Z</time>
      </trkpt>
      <trkpt lat="47.50965" lon="6.76944">
        <ele>430.6</ele>
        <time>2016-12-28T13:02:37.000Z</time>
      </trkpt>
      <trkpt lat="47.50965" lon="6.76944">
        <ele>430.6</ele>
        <time>2016-12-28T13:02:38.000Z</time>
      </trkpt>
      <trkpt lat="47.50969" lon="6.76947">
        <ele>427.2</ele>
        <time>2016-12-28T13:02:47.000Z</time>
      </trkpt>
      <trkpt lat="47.50969" lon="6.76948">
        <ele>426.5</ele>
        <time>2016-12-28T13:02:48.000Z</time>
      </trkpt>
      <trkpt lat="47.50965" lon="6.76951">
        <ele>424.8</ele>
        <time>2016-12-28T13:02:57.000Z</time>
      </trkpt>
      <trkpt lat="47.50965" lon="6.76951">
        <ele>424.8</ele>
        <time>2016-12-28T13:02:58.000Z</time>
      </trkpt>
      <trkpt lat="47.50961" lon="6.76949">
        <ele>427</ele>
        <time>2016-12-28T13:03:31.000Z</time>
      </trkpt>
      <trkpt lat="47.50961" lon="6.76949">
        <ele>427</ele>
        <time>2016-12-28T13:03:32.000Z</time>
      </trkpt>
      <trkpt lat="47.50961" lon="6.76943">
        <ele>426.2</ele>
        <time>2016-12-28T13:03:41.000Z</time>
      </trkpt>
      <trkpt lat="47.50961" lon="6.76942">
        <ele>426.2</ele>
        <time>2016-12-28T13:03:42.000Z</time>
      </trkpt>
      <trkpt lat="47.50964" lon="6.76946">
        <ele>426.2</ele>
        <time>2016-12-28T13:04:13.000Z</time>
      </trkpt>
      <trkpt lat="47.50964" lon="6.76947">
        <ele>426.1</ele>
        <time>2016-12-28T13:04:14.000Z</time>
      </trkpt>
      <trkpt lat="47.5096" lon="6.76949">
        <ele>425.5</ele>
        <time>2016-12-28T13:04:18.000Z</time>
      </trkpt>
      <trkpt lat="47.50959" lon="6.76948">
        <ele>425.3</ele>
        <time>2016-12-28T13:04:19.000Z</time>
      </trkpt>
      <trkpt lat="47.50958" lon="6.76946">
        <ele>425.3</ele>
        <time>2016-12-28T13:04:20.000Z</time>
      </trkpt>
      <trkpt lat="47.50957" lon="6.76942">
        <ele>425.3</ele>
        <time>2016-12-28T13:04:21.000Z</time>
      </trkpt>
      <trkpt lat="47.50956" lon="6.76938">
        <ele>425.3</ele>
        <time>2016-12-28T13:04:22.000Z</time>
      </trkpt>
      <trkpt lat="47.50956" lon="6.76934">
        <ele>425.3</ele>
        <time>2016-12-28T13:04:23.000Z</time>
      </trkpt>
      <trkpt lat="47.50955" lon="6.76928">
        <ele>425.4</ele>
        <time>2016-12-28T13:04:25.000Z</time>
      </trkpt>
      <trkpt lat="47.50955" lon="6.76924">
        <ele>425.4</ele>
        <time>2016-12-28T13:04:26.000Z</time>
      </trkpt>
      <trkpt lat="47.50955" lon="6.76921">
        <ele>425.5</ele>
        <time>2016-12-28T13:04:27.000Z</time>
      </trkpt>
      <trkpt lat="47.50956" lon="6.76916">
        <ele>425.5</ele>
        <time>2016-12-28T13:04:28.000Z</time>
      </trkpt>
      <trkpt lat="47.50957" lon="6.76912">
        <ele>425.5</ele>
        <time>2016-12-28T13:04:29.000Z</time>
      </trkpt>
      <trkpt lat="47.50958" lon="6.76909">
        <ele>425.6</ele>
        <time>2016-12-28T13:04:30.000Z</time>
      </trkpt>
      <trkpt lat="47.5096" lon="6.76905">
        <ele>425.6</ele>
        <time>2016-12-28T13:04:31.000Z</time>
      </trkpt>
      <trkpt lat="47.50962" lon="6.76902">
        <ele>425.6</ele>
        <time>2016-12-28T13:04:32.000Z</time>
      </trkpt>
      <trkpt lat="47.50963" lon="6.76899">
        <ele>425.6</ele>
        <time>2016-12-28T13:04:33.000Z</time>
      </trkpt>
      <trkpt lat="47.50965" lon="6.76895">
        <ele>425.6</ele>
        <time>2016-12-28T13:04:34.000Z</time>
      </trkpt>
      <trkpt lat="47.50968" lon="6.76893">
        <ele>425.6</ele>
        <time>2016-12-28T13:04:35.000Z</time>
      </trkpt>
      <trkpt lat="47.50971" lon="6.76893">
        <ele>425.6</ele>
        <time>2016-12-28T13:04:36.000Z</time>
      </trkpt>
      <trkpt lat="47.50973" lon="6.76893">
        <ele>425.5</ele>
        <time>2016-12-28T13:04:37.000Z</time>
      </trkpt>
      <trkpt lat="47.50976" lon="6.76894">
        <ele>425.5</ele>
        <time>2016-12-28T13:04:38.000Z</time>
      </trkpt>
      <trkpt lat="47.50979" lon="6.76894">
        <ele>425.4</ele>
        <time>2016-12-28T13:04:39.000Z</time>
      </trkpt>
      <trkpt lat="47.50983" lon="6.76892">
        <ele>425.4</ele>
        <time>2016-12-28T13:04:40.000Z</time>
      </trkpt>
      <trkpt lat="47.50985" lon="6.76889">
        <ele>425.4</ele>
        <time>2016-12-28T13:04:41.000Z</time>
      </trkpt>
      <trkpt lat="47.50989" lon="6.76884">
        <ele>425.3</ele>
        <time>2016-12-28T13:04:42.000Z</time>
      </trkpt>
      <trkpt lat="47.50992" lon="6.76879">
        <ele>424.3</ele>
        <time>2016-12-28T13:04:43.000Z</time>
      </trkpt>
      <trkpt lat="47.50995" lon="6.76874">
        <ele>424.2</ele>
        <time>2016-12-28T13:04:44.000Z</time>
      </trkpt>
      <trkpt lat="47.50996" lon="6.76871">
        <ele>424</ele>
        <time>2016-12-28T13:04:45.000Z</time>
      </trkpt>
      <trkpt lat="47.50998" lon="6.76867">
        <ele>422.4</ele>
        <time>2016-12-28T13:04:46.000Z</time>
      </trkpt>
      <trkpt lat="47.51" lon="6.76862">
        <ele>421.4</ele>
        <time>2016-12-28T13:04:47.000Z</time>
      </trkpt>
      <trkpt lat="47.51003" lon="6.76855">
        <ele>420.9</ele>
        <time>2016-12-28T13:04:48.000Z</time>
      </trkpt>
      <trkpt lat="47.51006" lon="6.76847">
        <ele>421</ele>
        <time>2016-12-28T13:04:49.000Z</time>
      </trkpt>
      <trkpt lat="47.51009" lon="6.7684">
        <ele>421.6</ele>
        <time>2016-12-28T13:04:50.000Z</time>
      </trkpt>
      <trkpt lat="47.51011" lon="6.76834">
        <ele>422.2</ele>
        <time>2016-12-28T13:04:51.000Z</time>
      </trkpt>
      <trkpt lat="47.51013" lon="6.7683">
        <ele>422.4</ele>
        <time>2016-12-28T13:04:52.000Z</time>
      </trkpt>
      <trkpt lat="47.51016" lon="6.76825">
        <ele>422.4</ele>
        <time>2016-12-28T13:04:53.000Z</time>
      </trkpt>
      <trkpt lat="47.51019" lon="6.7682">
        <ele>422.2</ele>
        <time>2016-12-28T13:04:54.000Z</time>
      </trkpt>
      <trkpt lat="47.51021" lon="6.76815">
        <ele>421.7</ele>
        <time>2016-12-28T13:04:55.000Z</time>
      </trkpt>
      <trkpt lat="47.51024" lon="6.7681">
        <ele>421.5</ele>
        <time>2016-12-28T13:04:56.000Z</time>
      </trkpt>
      <trkpt lat="47.51027" lon="6.76805">
        <ele>420.4</ele>
        <time>2016-12-28T13:04:57.000Z</time>
      </trkpt>
      <trkpt lat="47.5103" lon="6.76798">
        <ele>420.2</ele>
        <time>2016-12-28T13:04:58.000Z</time>
      </trkpt>
      <trkpt lat="47.51033" lon="6.76791">
        <ele>420.3</ele>
        <time>2016-12-28T13:04:59.000Z</time>
      </trkpt>
      <trkpt lat="47.51036" lon="6.76785">
        <ele>419.9</ele>
        <time>2016-12-28T13:05:00.000Z</time>
      </trkpt>
      <trkpt lat="47.51039" lon="6.7678">
        <ele>419.4</ele>
        <time>2016-12-28T13:05:01.000Z</time>
      </trkpt>
      <trkpt lat="47.51041" lon="6.76775">
        <ele>419</ele>
        <time>2016-12-28T13:05:02.000Z</time>
      </trkpt>
      <trkpt lat="47.51044" lon="6.7677">
        <ele>419</ele>
        <time>2016-12-28T13:05:03.000Z</time>
      </trkpt>
      <trkpt lat="47.51047" lon="6.76766">
        <ele>418.5</ele>
        <time>2016-12-28T13:05:04.000Z</time>
      </trkpt>
      <trkpt lat="47.5105" lon="6.76762">
        <ele>418.5</ele>
        <time>2016-12-28T13:05:05.000Z</time>
      </trkpt>
      <trkpt lat="47.51052" lon="6.76758">
        <ele>418.5</ele>
        <time>2016-12-28T13:05:06.000Z</time>
      </trkpt>
      <trkpt lat="47.51053" lon="6.76755">
        <ele>418.6</ele>
        <time>2016-12-28T13:05:07.000Z</time>
      </trkpt>
      <trkpt lat="47.51052" lon="6.76751">
        <ele>418.6</ele>
        <time>2016-12-28T13:05:08.000Z</time>
      </trkpt>
      <trkpt lat="47.51052" lon="6.76747">
        <ele>418.7</ele>
        <time>2016-12-28T13:05:09.000Z</time>
      </trkpt>
      <trkpt lat="47.51052" lon="6.76744">
        <ele>418.7</ele>
        <time>2016-12-28T13:05:10.000Z</time>
      </trkpt>
      <trkpt lat="47.51052" lon="6.7674">
        <ele>418.7</ele>
        <time>2016-12-28T13:05:11.000Z</time>
      </trkpt>
      <trkpt lat="47.51054" lon="6.76735">
        <ele>418.6</ele>
        <time>2016-12-28T13:05:12.000Z</time>
      </trkpt>
      <trkpt lat="47.51055" lon="6.76732">
        <ele>418.5</ele>
        <time>2016-12-28T13:05:13.000Z</time>
      </trkpt>
      <trkpt lat="47.51057" lon="6.76728">
        <ele>418.5</ele>
        <time>2016-12-28T13:05:14.000Z</time>
      </trkpt>
      <trkpt lat="47.51059" lon="6.76724">
        <ele>418.4</ele>
        <time>2016-12-28T13:05:15.000Z</time>
      </trkpt>
      <trkpt lat="47.51062" lon="6.76718">
        <ele>417.4</ele>
        <time>2016-12-28T13:05:16.000Z</time>
      </trkpt>
      <trkpt lat="47.51065" lon="6.76713">
        <ele>417.4</ele>
        <time>2016-12-28T13:05:17.000Z</time>
      </trkpt>
      <trkpt lat="47.51068" lon="6.76709">
        <ele>417.3</ele>
        <time>2016-12-28T13:05:18.000Z</time>
      </trkpt>
      <trkpt lat="47.5107" lon="6.76705">
        <ele>417.3</ele>
        <time>2016-12-28T13:05:19.000Z</time>
      </trkpt>
      <trkpt lat="47.51072" lon="6.767">
        <ele>417.2</ele>
        <time>2016-12-28T13:05:20.000Z</time>
      </trkpt>
      <trkpt lat="47.51073" lon="6.76696">
        <ele>417.1</ele>
        <time>2016-12-28T13:05:21.000Z</time>
      </trkpt>
      <trkpt lat="47.51075" lon="6.76691">
        <ele>417.1</ele>
        <time>2016-12-28T13:05:22.000Z</time>
      </trkpt>
      <trkpt lat="47.51077" lon="6.76687">
        <ele>416.9</ele>
        <time>2016-12-28T13:05:23.000Z</time>
      </trkpt>
      <trkpt lat="47.51078" lon="6.76683">
        <ele>416.8</ele>
        <time>2016-12-28T13:05:24.000Z</time>
      </trkpt>
      <trkpt lat="47.5108" lon="6.76678">
        <ele>416.7</ele>
        <time>2016-12-28T13:05:25.000Z</time>
      </trkpt>
      <trkpt lat="47.51081" lon="6.76674">
        <ele>416.6</ele>
        <time>2016-12-28T13:05:26.000Z</time>
      </trkpt>
      <trkpt lat="47.51082" lon="6.76668">
        <ele>416.5</ele>
        <time>2016-12-28T13:05:27.000Z</time>
      </trkpt>
      <trkpt lat="47.51083" lon="6.76664">
        <ele>416.4</ele>
        <time>2016-12-28T13:05:28.000Z</time>
      </trkpt>
      <trkpt lat="47.51084" lon="6.7666">
        <ele>416.3</ele>
        <time>2016-12-28T13:05:29.000Z</time>
      </trkpt>
      <trkpt lat="47.51084" lon="6.76656">
        <ele>416.1</ele>
        <time>2016-12-28T13:05:30.000Z</time>
      </trkpt>
      <trkpt lat="47.51085" lon="6.76649">
        <ele>415.9</ele>
        <time>2016-12-28T13:05:32.000Z</time>
      </trkpt>
      <trkpt lat="47.51086" lon="6.76646">
        <ele>415.8</ele>
        <time>2016-12-28T13:05:33.000Z</time>
      </trkpt>
      <trkpt lat="47.51087" lon="6.76643">
        <ele>415.7</ele>
        <time>2016-12-28T13:05:34.000Z</time>
      </trkpt>
      <trkpt lat="47.51088" lon="6.76639">
        <ele>415.6</ele>
        <time>2016-12-28T13:05:35.000Z</time>
      </trkpt>
      <trkpt lat="47.51089" lon="6.76635">
        <ele>415.4</ele>
        <time>2016-12-28T13:05:36.000Z</time>
      </trkpt>
      <trkpt lat="47.5109" lon="6.76632">
        <ele>415.3</ele>
        <time>2016-12-28T13:05:37.000Z</time>
      </trkpt>
      <trkpt lat="47.51092" lon="6.76627">
        <ele>414.9</ele>
        <time>2016-12-28T13:05:40.000Z</time>
      </trkpt>
      <trkpt lat="47.51092" lon="6.76625">
        <ele>414.9</ele>
        <time>2016-12-28T13:05:41.000Z</time>
      </trkpt>
      <trkpt lat="47.51094" lon="6.76621">
        <ele>414.8</ele>
        <time>2016-12-28T13:05:42.000Z</time>
      </trkpt>
      <trkpt lat="47.51095" lon="6.76618">
        <ele>414.8</ele>
        <time>2016-12-28T13:05:43.000Z</time>
      </trkpt>
      <trkpt lat="47.51097" lon="6.76615">
        <ele>414.7</ele>
        <time>2016-12-28T13:05:45.000Z</time>
      </trkpt>
      <trkpt lat="47.511" lon="6.76615">
        <ele>414.6</ele>
        <time>2016-12-28T13:05:46.000Z</time>
      </trkpt>
      <trkpt lat="47.51104" lon="6.76616">
        <ele>414.5</ele>
        <time>2016-12-28T13:05:49.000Z</time>
      </trkpt>
      <trkpt lat="47.51105" lon="6.76616">
        <ele>414.4</ele>
        <time>2016-12-28T13:05:50.000Z</time>
      </trkpt>
      <trkpt lat="47.51109" lon="6.76617">
        <ele>414.2</ele>
        <time>2016-12-28T13:05:53.000Z</time>
      </trkpt>
      <trkpt lat="47.5111" lon="6.76616">
        <ele>414.1</ele>
        <time>2016-12-28T13:05:54.000Z</time>
      </trkpt>
      <trkpt lat="47.51112" lon="6.76613">
        <ele>413.9</ele>
        <time>2016-12-28T13:05:56.000Z</time>
      </trkpt>
      <trkpt lat="47.51114" lon="6.7661">
        <ele>413.8</ele>
        <time>2016-12-28T13:05:57.000Z</time>
      </trkpt>
      <trkpt lat="47.51116" lon="6.76607">
        <ele>413.5</ele>
        <time>2016-12-28T13:05:58.000Z</time>
      </trkpt>
      <trkpt lat="47.51118" lon="6.76605">
        <ele>413.2</ele>
        <time>2016-12-28T13:05:59.000Z</time>
      </trkpt>
      <trkpt lat="47.51121" lon="6.76603">
        <ele>412.4</ele>
        <time>2016-12-28T13:06:01.000Z</time>
      </trkpt>
      <trkpt lat="47.51123" lon="6.76603">
        <ele>412.1</ele>
        <time>2016-12-28T13:06:02.000Z</time>
      </trkpt>
      <trkpt lat="47.51127" lon="6.76603">
        <ele>411.6</ele>
        <time>2016-12-28T13:06:05.000Z</time>
      </trkpt>
      <trkpt lat="47.51129" lon="6.76604">
        <ele>411.5</ele>
        <time>2016-12-28T13:06:06.000Z</time>
      </trkpt>
      <trkpt lat="47.51132" lon="6.76601">
        <ele>411.5</ele>
        <time>2016-12-28T13:06:09.000Z</time>
      </trkpt>
      <trkpt lat="47.51133" lon="6.766">
        <ele>411.3</ele>
        <time>2016-12-28T13:06:10.000Z</time>
      </trkpt>
      <trkpt lat="47.51135" lon="6.76596">
        <ele>410.9</ele>
        <time>2016-12-28T13:06:12.000Z</time>
      </trkpt>
      <trkpt lat="47.51137" lon="6.76595">
        <ele>410.7</ele>
        <time>2016-12-28T13:06:13.000Z</time>
      </trkpt>
      <trkpt lat="47.51141" lon="6.76593">
        <ele>410</ele>
        <time>2016-12-28T13:06:19.000Z</time>
      </trkpt>
      <trkpt lat="47.51142" lon="6.76592">
        <ele>409.8</ele>
        <time>2016-12-28T13:06:20.000Z</time>
      </trkpt>
      <trkpt lat="47.51146" lon="6.76591">
        <ele>409.5</ele>
        <time>2016-12-28T13:06:32.000Z</time>
      </trkpt>
      <trkpt lat="47.51147" lon="6.76592">
        <ele>409.6</ele>
        <time>2016-12-28T13:06:33.000Z</time>
      </trkpt>
      <trkpt lat="47.5115" lon="6.76592">
        <ele>410.2</ele>
        <time>2016-12-28T13:06:39.000Z</time>
      </trkpt>
      <trkpt lat="47.51152" lon="6.76592">
        <ele>410.3</ele>
        <time>2016-12-28T13:06:40.000Z</time>
      </trkpt>
      <trkpt lat="47.51154" lon="6.76594">
        <ele>410.3</ele>
        <time>2016-12-28T13:06:43.000Z</time>
      </trkpt>
      <trkpt lat="47.51156" lon="6.76596">
        <ele>410.3</ele>
        <time>2016-12-28T13:06:44.000Z</time>
      </trkpt>
      <trkpt lat="47.51159" lon="6.76598">
        <ele>410.3</ele>
        <time>2016-12-28T13:06:46.000Z</time>
      </trkpt>
      <trkpt lat="47.5116" lon="6.76599">
        <ele>410.3</ele>
        <time>2016-12-28T13:06:47.000Z</time>
      </trkpt>
      <trkpt lat="47.51164" lon="6.76601">
        <ele>410.7</ele>
        <time>2016-12-28T13:06:53.000Z</time>
      </trkpt>
      <trkpt lat="47.51164" lon="6.76602">
        <ele>410.9</ele>
        <time>2016-12-28T13:06:54.000Z</time>
      </trkpt>
      <trkpt lat="47.51167" lon="6.76603">
        <ele>411.5</ele>
        <time>2016-12-28T13:06:58.000Z</time>
      </trkpt>
      <trkpt lat="47.51169" lon="6.76603">
        <ele>411.6</ele>
        <time>2016-12-28T13:06:59.000Z</time>
      </trkpt>
      <trkpt lat="47.51171" lon="6.766">
        <ele>411.6</ele>
        <time>2016-12-28T13:07:01.000Z</time>
      </trkpt>
      <trkpt lat="47.51175" lon="6.76596">
        <ele>411.4</ele>
        <time>2016-12-28T13:07:02.000Z</time>
      </trkpt>
      <trkpt lat="47.51178" lon="6.76593">
        <ele>411.2</ele>
        <time>2016-12-28T13:07:03.000Z</time>
      </trkpt>
      <trkpt lat="47.51179" lon="6.76591">
        <ele>411</ele>
        <time>2016-12-28T13:07:04.000Z</time>
      </trkpt>
      <trkpt lat="47.5118" lon="6.76589">
        <ele>410.7</ele>
        <time>2016-12-28T13:07:05.000Z</time>
      </trkpt>
      <trkpt lat="47.51182" lon="6.76585">
        <ele>410.5</ele>
        <time>2016-12-28T13:07:06.000Z</time>
      </trkpt>
      <trkpt lat="47.51185" lon="6.76581">
        <ele>410.4</ele>
        <time>2016-12-28T13:07:08.000Z</time>
      </trkpt>
      <trkpt lat="47.51186" lon="6.76579">
        <ele>410.2</ele>
        <time>2016-12-28T13:07:09.000Z</time>
      </trkpt>
      <trkpt lat="47.51188" lon="6.76576">
        <ele>410</ele>
        <time>2016-12-28T13:07:10.000Z</time>
      </trkpt>
      <trkpt lat="47.51191" lon="6.76571">
        <ele>409.8</ele>
        <time>2016-12-28T13:07:11.000Z</time>
      </trkpt>
      <trkpt lat="47.51193" lon="6.76567">
        <ele>409.7</ele>
        <time>2016-12-28T13:07:13.000Z</time>
      </trkpt>
      <trkpt lat="47.51193" lon="6.76566">
        <ele>409.6</ele>
        <time>2016-12-28T13:07:14.000Z</time>
      </trkpt>
      <trkpt lat="47.51192" lon="6.76561">
        <ele>409.6</ele>
        <time>2016-12-28T13:07:16.000Z</time>
      </trkpt>
      <trkpt lat="47.51192" lon="6.76559">
        <ele>409.6</ele>
        <time>2016-12-28T13:07:17.000Z</time>
      </trkpt>
      <trkpt lat="47.51192" lon="6.76553">
        <ele>409.5</ele>
        <time>2016-12-28T13:07:19.000Z</time>
      </trkpt>
      <trkpt lat="47.51192" lon="6.76551">
        <ele>409.5</ele>
        <time>2016-12-28T13:07:20.000Z</time>
      </trkpt>
      <trkpt lat="47.51193" lon="6.76545">
        <ele>412.2</ele>
        <time>2016-12-28T13:07:35.000Z</time>
      </trkpt>
      <trkpt lat="47.51192" lon="6.76544">
        <ele>412.4</ele>
        <time>2016-12-28T13:07:36.000Z</time>
      </trkpt>
      <trkpt lat="47.51189" lon="6.76541">
        <ele>412.8</ele>
        <time>2016-12-28T13:07:39.000Z</time>
      </trkpt>
      <trkpt lat="47.51188" lon="6.7654">
        <ele>412.9</ele>
        <time>2016-12-28T13:07:40.000Z</time>
      </trkpt>
      <trkpt lat="47.51184" lon="6.7654">
        <ele>413.1</ele>
        <time>2016-12-28T13:07:43.000Z</time>
      </trkpt>
      <trkpt lat="47.51183" lon="6.7654">
        <ele>413.1</ele>
        <time>2016-12-28T13:07:44.000Z</time>
      </trkpt>
      <trkpt lat="47.51182" lon="6.76539">
        <ele>413.1</ele>
        <time>2016-12-28T13:07:45.000Z</time>
      </trkpt>
      <trkpt lat="47.51178" lon="6.76537">
        <ele>413.1</ele>
        <time>2016-12-28T13:07:46.000Z</time>
      </trkpt>
      <trkpt lat="47.51174" lon="6.76534">
        <ele>413.2</ele>
        <time>2016-12-28T13:07:48.000Z</time>
      </trkpt>
      <trkpt lat="47.51172" lon="6.76533">
        <ele>413.2</ele>
        <time>2016-12-28T13:07:49.000Z</time>
      </trkpt>
      <trkpt lat="47.5117" lon="6.76532">
        <ele>413.1</ele>
        <time>2016-12-28T13:07:50.000Z</time>
      </trkpt>
      <trkpt lat="47.51166" lon="6.76531">
        <ele>412.9</ele>
        <time>2016-12-28T13:07:51.000Z</time>
      </trkpt>
      <trkpt lat="47.51163" lon="6.76531">
        <ele>412.6</ele>
        <time>2016-12-28T13:07:52.000Z</time>
      </trkpt>
      <trkpt lat="47.51161" lon="6.7653">
        <ele>412.4</ele>
        <time>2016-12-28T13:07:53.000Z</time>
      </trkpt>
      <trkpt lat="47.51157" lon="6.7653">
        <ele>412.2</ele>
        <time>2016-12-28T13:07:55.000Z</time>
      </trkpt>
      <trkpt lat="47.51155" lon="6.76529">
        <ele>412</ele>
        <time>2016-12-28T13:07:56.000Z</time>
      </trkpt>
      <trkpt lat="47.51151" lon="6.76527">
        <ele>411.7</ele>
        <time>2016-12-28T13:07:58.000Z</time>
      </trkpt>
      <trkpt lat="47.5115" lon="6.76527">
        <ele>411.4</ele>
        <time>2016-12-28T13:07:59.000Z</time>
      </trkpt>
      <trkpt lat="47.51147" lon="6.76526">
        <ele>411.2</ele>
        <time>2016-12-28T13:08:00.000Z</time>
      </trkpt>
      <trkpt lat="47.51144" lon="6.76525">
        <ele>410.9</ele>
        <time>2016-12-28T13:08:01.000Z</time>
      </trkpt>
      <trkpt lat="47.51141" lon="6.76524">
        <ele>410.7</ele>
        <time>2016-12-28T13:08:03.000Z</time>
      </trkpt>
      <trkpt lat="47.51136" lon="6.76522">
        <ele>410.9</ele>
        <time>2016-12-28T13:08:04.000Z</time>
      </trkpt>
      <trkpt lat="47.51132" lon="6.76519">
        <ele>411.2</ele>
        <time>2016-12-28T13:08:05.000Z</time>
      </trkpt>
      <trkpt lat="47.51128" lon="6.76517">
        <ele>411.6</ele>
        <time>2016-12-28T13:08:06.000Z</time>
      </trkpt>
      <trkpt lat="47.51125" lon="6.76515">
        <ele>412.1</ele>
        <time>2016-12-28T13:08:07.000Z</time>
      </trkpt>
      <trkpt lat="47.51123" lon="6.76515">
        <ele>413.2</ele>
        <time>2016-12-28T13:08:10.000Z</time>
      </trkpt>
      <trkpt lat="47.51119" lon="6.76515">
        <ele>413.8</ele>
        <time>2016-12-28T13:08:11.000Z</time>
      </trkpt>
      <trkpt lat="47.51115" lon="6.76515">
        <ele>414.3</ele>
        <time>2016-12-28T13:08:12.000Z</time>
      </trkpt>
      <trkpt lat="47.51112" lon="6.76515">
        <ele>414.9</ele>
        <time>2016-12-28T13:08:13.000Z</time>
      </trkpt>
      <trkpt lat="47.5111" lon="6.76514">
        <ele>415.4</ele>
        <time>2016-12-28T13:08:14.000Z</time>
      </trkpt>
      <trkpt lat="47.51107" lon="6.76514">
        <ele>415.9</ele>
        <time>2016-12-28T13:08:15.000Z</time>
      </trkpt>
      <trkpt lat="47.51105" lon="6.76514">
        <ele>416.3</ele>
        <time>2016-12-28T13:08:16.000Z</time>
      </trkpt>
      <trkpt lat="47.51102" lon="6.76514">
        <ele>416.8</ele>
        <time>2016-12-28T13:08:17.000Z</time>
      </trkpt>
      <trkpt lat="47.51099" lon="6.76513">
        <ele>417.2</ele>
        <time>2016-12-28T13:08:18.000Z</time>
      </trkpt>
      <trkpt lat="47.51097" lon="6.76513">
        <ele>417.7</ele>
        <time>2016-12-28T13:08:19.000Z</time>
      </trkpt>
      <trkpt lat="47.51095" lon="6.76512">
        <ele>418.3</ele>
        <time>2016-12-28T13:08:20.000Z</time>
      </trkpt>
      <trkpt lat="47.51092" lon="6.76511">
        <ele>418.8</ele>
        <time>2016-12-28T13:08:21.000Z</time>
      </trkpt>
      <trkpt lat="47.51089" lon="6.76511">
        <ele>419.3</ele>
        <time>2016-12-28T13:08:22.000Z</time>
      </trkpt>
      <trkpt lat="47.51087" lon="6.76511">
        <ele>419.7</ele>
        <time>2016-12-28T13:08:23.000Z</time>
      </trkpt>
      <trkpt lat="47.51083" lon="6.76509">
        <ele>420.6</ele>
        <time>2016-12-28T13:08:25.000Z</time>
      </trkpt>
      <trkpt lat="47.51081" lon="6.76508">
        <ele>420.9</ele>
        <time>2016-12-28T13:08:26.000Z</time>
      </trkpt>
      <trkpt lat="47.51077" lon="6.76506">
        <ele>421.4</ele>
        <time>2016-12-28T13:08:28.000Z</time>
      </trkpt>
      <trkpt lat="47.51077" lon="6.76504">
        <ele>421.9</ele>
        <time>2016-12-28T13:08:29.000Z</time>
      </trkpt>
      <trkpt lat="47.51077" lon="6.765">
        <ele>422.6</ele>
        <time>2016-12-28T13:08:31.000Z</time>
      </trkpt>
      <trkpt lat="47.51077" lon="6.76497">
        <ele>422.8</ele>
        <time>2016-12-28T13:08:32.000Z</time>
      </trkpt>
      <trkpt lat="47.51077" lon="6.76493">
        <ele>423</ele>
        <time>2016-12-28T13:08:33.000Z</time>
      </trkpt>
      <trkpt lat="47.51078" lon="6.7649">
        <ele>423.2</ele>
        <time>2016-12-28T13:08:34.000Z</time>
      </trkpt>
      <trkpt lat="47.51078" lon="6.76483">
        <ele>423.3</ele>
        <time>2016-12-28T13:08:35.000Z</time>
      </trkpt>
      <trkpt lat="47.51078" lon="6.76479">
        <ele>423.3</ele>
        <time>2016-12-28T13:08:36.000Z</time>
      </trkpt>
      <trkpt lat="47.51078" lon="6.76476">
        <ele>423.4</ele>
        <time>2016-12-28T13:08:37.000Z</time>
      </trkpt>
      <trkpt lat="47.51078" lon="6.76473">
        <ele>423.3</ele>
        <time>2016-12-28T13:08:38.000Z</time>
      </trkpt>
      <trkpt lat="47.51078" lon="6.76469">
        <ele>423.2</ele>
        <time>2016-12-28T13:08:39.000Z</time>
      </trkpt>
      <trkpt lat="47.51078" lon="6.76464">
        <ele>423.2</ele>
        <time>2016-12-28T13:08:41.000Z</time>
      </trkpt>
      <trkpt lat="47.51078" lon="6.76461">
        <ele>423.1</ele>
        <time>2016-12-28T13:08:42.000Z</time>
      </trkpt>
      <trkpt lat="47.5108" lon="6.76456">
        <ele>423</ele>
        <time>2016-12-28T13:08:44.000Z</time>
      </trkpt>
      <trkpt lat="47.51081" lon="6.76455">
        <ele>423</ele>
        <time>2016-12-28T13:08:45.000Z</time>
      </trkpt>
      <trkpt lat="47.51083" lon="6.7645">
        <ele>423.2</ele>
        <time>2016-12-28T13:08:48.000Z</time>
      </trkpt>
      <trkpt lat="47.51084" lon="6.76448">
        <ele>423.3</ele>
        <time>2016-12-28T13:08:49.000Z</time>
      </trkpt>
      <trkpt lat="47.51084" lon="6.76443">
        <ele>423.7</ele>
        <time>2016-12-28T13:08:52.000Z</time>
      </trkpt>
      <trkpt lat="47.51084" lon="6.76436">
        <ele>424</ele>
        <time>2016-12-28T13:08:53.000Z</time>
      </trkpt>
      <trkpt lat="47.51084" lon="6.7643">
        <ele>424.6</ele>
        <time>2016-12-28T13:08:55.000Z</time>
      </trkpt>
      <trkpt lat="47.51084" lon="6.76428">
        <ele>425</ele>
        <time>2016-12-28T13:08:56.000Z</time>
      </trkpt>
      <trkpt lat="47.51085" lon="6.76423">
        <ele>425.7</ele>
        <time>2016-12-28T13:08:59.000Z</time>
      </trkpt>
      <trkpt lat="47.51086" lon="6.76422">
        <ele>425.9</ele>
        <time>2016-12-28T13:09:00.000Z</time>
      </trkpt>
      <trkpt lat="47.51087" lon="6.76418">
        <ele>426.1</ele>
        <time>2016-12-28T13:09:01.000Z</time>
      </trkpt>
      <trkpt lat="47.51089" lon="6.76415">
        <ele>426.3</ele>
        <time>2016-12-28T13:09:02.000Z</time>
      </trkpt>
      <trkpt lat="47.5109" lon="6.7641">
        <ele>426.7</ele>
        <time>2016-12-28T13:09:04.000Z</time>
      </trkpt>
      <trkpt lat="47.5109" lon="6.76407">
        <ele>426.9</ele>
        <time>2016-12-28T13:09:05.000Z</time>
      </trkpt>
      <trkpt lat="47.51089" lon="6.76404">
        <ele>427</ele>
        <time>2016-12-28T13:09:06.000Z</time>
      </trkpt>
      <trkpt lat="47.5109" lon="6.76401">
        <ele>427.2</ele>
        <time>2016-12-28T13:09:07.000Z</time>
      </trkpt>
      <trkpt lat="47.5109" lon="6.76396">
        <ele>427.2</ele>
        <time>2016-12-28T13:09:08.000Z</time>
      </trkpt>
      <trkpt lat="47.5109" lon="6.76392">
        <ele>427.3</ele>
        <time>2016-12-28T13:09:09.000Z</time>
      </trkpt>
      <trkpt lat="47.5109" lon="6.76388">
        <ele>427.4</ele>
        <time>2016-12-28T13:09:10.000Z</time>
      </trkpt>
      <trkpt lat="47.5109" lon="6.76384">
        <ele>427.5</ele>
        <time>2016-12-28T13:09:11.000Z</time>
      </trkpt>
      <trkpt lat="47.51091" lon="6.76379">
        <ele>428</ele>
        <time>2016-12-28T13:09:13.000Z</time>
      </trkpt>
      <trkpt lat="47.51089" lon="6.76375">
        <ele>428.2</ele>
        <time>2016-12-28T13:09:14.000Z</time>
      </trkpt>
      <trkpt lat="47.51088" lon="6.76372">
        <ele>428.4</ele>
        <time>2016-12-28T13:09:15.000Z</time>
      </trkpt>
      <trkpt lat="47.51087" lon="6.76369">
        <ele>428.6</ele>
        <time>2016-12-28T13:09:16.000Z</time>
      </trkpt>
      <trkpt lat="47.51087" lon="6.76365">
        <ele>428.8</ele>
        <time>2016-12-28T13:09:17.000Z</time>
      </trkpt>
      <trkpt lat="47.51087" lon="6.76361">
        <ele>429</ele>
        <time>2016-12-28T13:09:18.000Z</time>
      </trkpt>
      <trkpt lat="47.51087" lon="6.76356">
        <ele>429</ele>
        <time>2016-12-28T13:09:19.000Z</time>
      </trkpt>
      <trkpt lat="47.51087" lon="6.7635">
        <ele>429.1</ele>
        <time>2016-12-28T13:09:20.000Z</time>
      </trkpt>
      <trkpt lat="47.51088" lon="6.76343">
        <ele>429.1</ele>
        <time>2016-12-28T13:09:21.000Z</time>
      </trkpt>
      <trkpt lat="47.51087" lon="6.76333">
        <ele>428.6</ele>
        <time>2016-12-28T13:09:22.000Z</time>
      </trkpt>
      <trkpt lat="47.51087" lon="6.76325">
        <ele>428.6</ele>
        <time>2016-12-28T13:09:23.000Z</time>
      </trkpt>
      <trkpt lat="47.51086" lon="6.76315">
        <ele>428.2</ele>
        <time>2016-12-28T13:09:24.000Z</time>
      </trkpt>
      <trkpt lat="47.51084" lon="6.76304">
        <ele>427.8</ele>
        <time>2016-12-28T13:09:25.000Z</time>
      </trkpt>
      <trkpt lat="47.51084" lon="6.76294">
        <ele>427.4</ele>
        <time>2016-12-28T13:09:26.000Z</time>
      </trkpt>
      <trkpt lat="47.51083" lon="6.76287">
        <ele>427</ele>
        <time>2016-12-28T13:09:27.000Z</time>
      </trkpt>
      <trkpt lat="47.51082" lon="6.7628">
        <ele>426.6</ele>
        <time>2016-12-28T13:09:28.000Z</time>
      </trkpt>
      <trkpt lat="47.51081" lon="6.76273">
        <ele>426.3</ele>
        <time>2016-12-28T13:09:29.000Z</time>
      </trkpt>
      <trkpt lat="47.5108" lon="6.76258">
        <ele>426.1</ele>
        <time>2016-12-28T13:09:30.000Z</time>
      </trkpt>
      <trkpt lat="47.51079" lon="6.76253">
        <ele>425.8</ele>
        <time>2016-12-28T13:09:31.000Z</time>
      </trkpt>
      <trkpt lat="47.51079" lon="6.76247">
        <ele>425.7</ele>
        <time>2016-12-28T13:09:32.000Z</time>
      </trkpt>
      <trkpt lat="47.51078" lon="6.76243">
        <ele>425.6</ele>
        <time>2016-12-28T13:09:33.000Z</time>
      </trkpt>
      <trkpt lat="47.51078" lon="6.76238">
        <ele>425.4</ele>
        <time>2016-12-28T13:09:34.000Z</time>
      </trkpt>
      <trkpt lat="47.51078" lon="6.76232">
        <ele>425.3</ele>
        <time>2016-12-28T13:09:35.000Z</time>
      </trkpt>
      <trkpt lat="47.51078" lon="6.76228">
        <ele>425</ele>
        <time>2016-12-28T13:09:36.000Z</time>
      </trkpt>
      <trkpt lat="47.51079" lon="6.76222">
        <ele>424.7</ele>
        <time>2016-12-28T13:09:38.000Z</time>
      </trkpt>
      <trkpt lat="47.51079" lon="6.76214">
        <ele>424.4</ele>
        <time>2016-12-28T13:09:39.000Z</time>
      </trkpt>
      <trkpt lat="47.51079" lon="6.76209">
        <ele>424</ele>
        <time>2016-12-28T13:09:41.000Z</time>
      </trkpt>
      <trkpt lat="47.5108" lon="6.76204">
        <ele>423.7</ele>
        <time>2016-12-28T13:09:42.000Z</time>
      </trkpt>
      <trkpt lat="47.5108" lon="6.76199">
        <ele>423.4</ele>
        <time>2016-12-28T13:09:43.000Z</time>
      </trkpt>
      <trkpt lat="47.5108" lon="6.76195">
        <ele>423</ele>
        <time>2016-12-28T13:09:44.000Z</time>
      </trkpt>
      <trkpt lat="47.51081" lon="6.76185">
        <ele>422.7</ele>
        <time>2016-12-28T13:09:45.000Z</time>
      </trkpt>
      <trkpt lat="47.5108" lon="6.76181">
        <ele>422.5</ele>
        <time>2016-12-28T13:09:46.000Z</time>
      </trkpt>
      <trkpt lat="47.5108" lon="6.76178">
        <ele>422.3</ele>
        <time>2016-12-28T13:09:47.000Z</time>
      </trkpt>
      <trkpt lat="47.5108" lon="6.76172">
        <ele>422.2</ele>
        <time>2016-12-28T13:09:48.000Z</time>
      </trkpt>
      <trkpt lat="47.5108" lon="6.76167">
        <ele>422.2</ele>
        <time>2016-12-28T13:09:49.000Z</time>
      </trkpt>
      <trkpt lat="47.5108" lon="6.76157">
        <ele>422.1</ele>
        <time>2016-12-28T13:09:50.000Z</time>
      </trkpt>
      <trkpt lat="47.5108" lon="6.76155">
        <ele>422</ele>
        <time>2016-12-28T13:09:51.000Z</time>
      </trkpt>
      <trkpt lat="47.51079" lon="6.7615">
        <ele>421.9</ele>
        <time>2016-12-28T13:09:52.000Z</time>
      </trkpt>
      <trkpt lat="47.5108" lon="6.76144">
        <ele>421.5</ele>
        <time>2016-12-28T13:09:54.000Z</time>
      </trkpt>
      <trkpt lat="47.51081" lon="6.7614">
        <ele>421.2</ele>
        <time>2016-12-28T13:09:55.000Z</time>
      </trkpt>
      <trkpt lat="47.51079" lon="6.76132">
        <ele>420.9</ele>
        <time>2016-12-28T13:09:56.000Z</time>
      </trkpt>
      <trkpt lat="47.51077" lon="6.76127">
        <ele>420.6</ele>
        <time>2016-12-28T13:09:57.000Z</time>
      </trkpt>
      <trkpt lat="47.51077" lon="6.76125">
        <ele>420.4</ele>
        <time>2016-12-28T13:09:58.000Z</time>
      </trkpt>
      <trkpt lat="47.51077" lon="6.76122">
        <ele>420.4</ele>
        <time>2016-12-28T13:09:59.000Z</time>
      </trkpt>
      <trkpt lat="47.51077" lon="6.76115">
        <ele>420.3</ele>
        <time>2016-12-28T13:10:00.000Z</time>
      </trkpt>
      <trkpt lat="47.51077" lon="6.7611">
        <ele>420.3</ele>
        <time>2016-12-28T13:10:01.000Z</time>
      </trkpt>
      <trkpt lat="47.51076" lon="6.76107">
        <ele>420.2</ele>
        <time>2016-12-28T13:10:02.000Z</time>
      </trkpt>
      <trkpt lat="47.51076" lon="6.76101">
        <ele>420.3</ele>
        <time>2016-12-28T13:10:04.000Z</time>
      </trkpt>
      <trkpt lat="47.51075" lon="6.761">
        <ele>420.3</ele>
        <time>2016-12-28T13:10:05.000Z</time>
      </trkpt>
      <trkpt lat="47.51074" lon="6.76094">
        <ele>420.2</ele>
        <time>2016-12-28T13:10:07.000Z</time>
      </trkpt>
      <trkpt lat="47.51076" lon="6.7609">
        <ele>420</ele>
        <time>2016-12-28T13:10:08.000Z</time>
      </trkpt>
      <trkpt lat="47.51077" lon="6.76084">
        <ele>419.8</ele>
        <time>2016-12-28T13:10:11.000Z</time>
      </trkpt>
      <trkpt lat="47.51078" lon="6.7608">
        <ele>419.7</ele>
        <time>2016-12-28T13:10:12.000Z</time>
      </trkpt>
      <trkpt lat="47.51079" lon="6.76074">
        <ele>419.4</ele>
        <time>2016-12-28T13:10:14.000Z</time>
      </trkpt>
      <trkpt lat="47.51078" lon="6.76071">
        <ele>419.2</ele>
        <time>2016-12-28T13:10:15.000Z</time>
      </trkpt>
      <trkpt lat="47.51078" lon="6.76066">
        <ele>418.9</ele>
        <time>2016-12-28T13:10:17.000Z</time>
      </trkpt>
      <trkpt lat="47.51078" lon="6.76064">
        <ele>418.7</ele>
        <time>2016-12-28T13:10:18.000Z</time>
      </trkpt>
      <trkpt lat="47.51078" lon="6.76058">
        <ele>418.6</ele>
        <time>2016-12-28T13:10:20.000Z</time>
      </trkpt>
      <trkpt lat="47.51078" lon="6.76052">
        <ele>418.6</ele>
        <time>2016-12-28T13:10:21.000Z</time>
      </trkpt>
      <trkpt lat="47.51078" lon="6.76048">
        <ele>418.8</ele>
        <time>2016-12-28T13:10:22.000Z</time>
      </trkpt>
      <trkpt lat="47.51078" lon="6.76044">
        <ele>418.9</ele>
        <time>2016-12-28T13:10:23.000Z</time>
      </trkpt>
      <trkpt lat="47.51078" lon="6.7604">
        <ele>419.2</ele>
        <time>2016-12-28T13:10:24.000Z</time>
      </trkpt>
      <trkpt lat="47.51079" lon="6.76037">
        <ele>419.4</ele>
        <time>2016-12-28T13:10:25.000Z</time>
      </trkpt>
      <trkpt lat="47.51079" lon="6.76033">
        <ele>419.5</ele>
        <time>2016-12-28T13:10:26.000Z</time>
      </trkpt>
      <trkpt lat="47.51079" lon="6.76028">
        <ele>419.4</ele>
        <time>2016-12-28T13:10:27.000Z</time>
      </trkpt>
      <trkpt lat="47.51081" lon="6.76025">
        <ele>419.4</ele>
        <time>2016-12-28T13:10:50.000Z</time>
      </trkpt>
      <trkpt lat="47.51083" lon="6.76022">
        <ele>419.3</ele>
        <time>2016-12-28T13:10:51.000Z</time>
      </trkpt>
      <trkpt lat="47.51088" lon="6.76018">
        <ele>419.1</ele>
        <time>2016-12-28T13:10:52.000Z</time>
      </trkpt>
      <trkpt lat="47.51091" lon="6.7601">
        <ele>419</ele>
        <time>2016-12-28T13:10:53.000Z</time>
      </trkpt>
      <trkpt lat="47.51095" lon="6.76003">
        <ele>419</ele>
        <time>2016-12-28T13:10:54.000Z</time>
      </trkpt>
      <trkpt lat="47.511" lon="6.75997">
        <ele>418.9</ele>
        <time>2016-12-28T13:10:55.000Z</time>
      </trkpt>
      <trkpt lat="47.51103" lon="6.75992">
        <ele>418.8</ele>
        <time>2016-12-28T13:10:56.000Z</time>
      </trkpt>
      <trkpt lat="47.51105" lon="6.75987">
        <ele>418.7</ele>
        <time>2016-12-28T13:10:57.000Z</time>
      </trkpt>
      <trkpt lat="47.51107" lon="6.75981">
        <ele>418.5</ele>
        <time>2016-12-28T13:10:58.000Z</time>
      </trkpt>
      <trkpt lat="47.5111" lon="6.75977">
        <ele>418.1</ele>
        <time>2016-12-28T13:10:59.000Z</time>
      </trkpt>
      <trkpt lat="47.51114" lon="6.75972">
        <ele>417.8</ele>
        <time>2016-12-28T13:11:00.000Z</time>
      </trkpt>
      <trkpt lat="47.51117" lon="6.75967">
        <ele>417.6</ele>
        <time>2016-12-28T13:11:01.000Z</time>
      </trkpt>
      <trkpt lat="47.51119" lon="6.75962">
        <ele>417.3</ele>
        <time>2016-12-28T13:11:02.000Z</time>
      </trkpt>
      <trkpt lat="47.51123" lon="6.75957">
        <ele>416.8</ele>
        <time>2016-12-28T13:11:03.000Z</time>
      </trkpt>
      <trkpt lat="47.51126" lon="6.75952">
        <ele>416.4</ele>
        <time>2016-12-28T13:11:04.000Z</time>
      </trkpt>
      <trkpt lat="47.51128" lon="6.75947">
        <ele>415.9</ele>
        <time>2016-12-28T13:11:05.000Z</time>
      </trkpt>
      <trkpt lat="47.51131" lon="6.75941">
        <ele>415.5</ele>
        <time>2016-12-28T13:11:06.000Z</time>
      </trkpt>
      <trkpt lat="47.51133" lon="6.75939">
        <ele>415.2</ele>
        <time>2016-12-28T13:11:07.000Z</time>
      </trkpt>
      <trkpt lat="47.51135" lon="6.75938">
        <ele>414.9</ele>
        <time>2016-12-28T13:11:08.000Z</time>
      </trkpt>
      <trkpt lat="47.51137" lon="6.75934">
        <ele>414.6</ele>
        <time>2016-12-28T13:11:10.000Z</time>
      </trkpt>
      <trkpt lat="47.51138" lon="6.75929">
        <ele>414.3</ele>
        <time>2016-12-28T13:11:11.000Z</time>
      </trkpt>
      <trkpt lat="47.5114" lon="6.75923">
        <ele>413.3</ele>
        <time>2016-12-28T13:11:13.000Z</time>
      </trkpt>
      <trkpt lat="47.51144" lon="6.75915">
        <ele>412.6</ele>
        <time>2016-12-28T13:11:14.000Z</time>
      </trkpt>
      <trkpt lat="47.51146" lon="6.75911">
        <ele>412.1</ele>
        <time>2016-12-28T13:11:15.000Z</time>
      </trkpt>
      <trkpt lat="47.51147" lon="6.75907">
        <ele>411.6</ele>
        <time>2016-12-28T13:11:16.000Z</time>
      </trkpt>
      <trkpt lat="47.5115" lon="6.75902">
        <ele>411.1</ele>
        <time>2016-12-28T13:11:17.000Z</time>
      </trkpt>
      <trkpt lat="47.51152" lon="6.75899">
        <ele>410.5</ele>
        <time>2016-12-28T13:11:18.000Z</time>
      </trkpt>
      <trkpt lat="47.51154" lon="6.75896">
        <ele>409.8</ele>
        <time>2016-12-28T13:11:19.000Z</time>
      </trkpt>
      <trkpt lat="47.51156" lon="6.75895">
        <ele>409.3</ele>
        <time>2016-12-28T13:11:20.000Z</time>
      </trkpt>
      <trkpt lat="47.5116" lon="6.75895">
        <ele>408.7</ele>
        <time>2016-12-28T13:11:21.000Z</time>
      </trkpt>
      <trkpt lat="47.51164" lon="6.75895">
        <ele>408.2</ele>
        <time>2016-12-28T13:11:22.000Z</time>
      </trkpt>
      <trkpt lat="47.51167" lon="6.75895">
        <ele>407.7</ele>
        <time>2016-12-28T13:11:23.000Z</time>
      </trkpt>
      <trkpt lat="47.51169" lon="6.75895">
        <ele>407.1</ele>
        <time>2016-12-28T13:11:24.000Z</time>
      </trkpt>
      <trkpt lat="47.5117" lon="6.75894">
        <ele>406.5</ele>
        <time>2016-12-28T13:11:25.000Z</time>
      </trkpt>
      <trkpt lat="47.51173" lon="6.75895">
        <ele>405.8</ele>
        <time>2016-12-28T13:11:26.000Z</time>
      </trkpt>
      <trkpt lat="47.51177" lon="6.75894">
        <ele>404.6</ele>
        <time>2016-12-28T13:11:28.000Z</time>
      </trkpt>
      <trkpt lat="47.51178" lon="6.75893">
        <ele>404.1</ele>
        <time>2016-12-28T13:11:29.000Z</time>
      </trkpt>
      <trkpt lat="47.5118" lon="6.75889">
        <ele>403.7</ele>
        <time>2016-12-28T13:11:30.000Z</time>
      </trkpt>
      <trkpt lat="47.51181" lon="6.75885">
        <ele>403.1</ele>
        <time>2016-12-28T13:11:31.000Z</time>
      </trkpt>
      <trkpt lat="47.5118" lon="6.75878">
        <ele>402.2</ele>
        <time>2016-12-28T13:11:33.000Z</time>
      </trkpt>
      <trkpt lat="47.51179" lon="6.75875">
        <ele>401.8</ele>
        <time>2016-12-28T13:11:34.000Z</time>
      </trkpt>
      <trkpt lat="47.51177" lon="6.75873">
        <ele>401.3</ele>
        <time>2016-12-28T13:11:35.000Z</time>
      </trkpt>
      <trkpt lat="47.51175" lon="6.7587">
        <ele>400.8</ele>
        <time>2016-12-28T13:11:36.000Z</time>
      </trkpt>
      <trkpt lat="47.51172" lon="6.75866">
        <ele>399.8</ele>
        <time>2016-12-28T13:11:38.000Z</time>
      </trkpt>
      <trkpt lat="47.51171" lon="6.75863">
        <ele>399.3</ele>
        <time>2016-12-28T13:11:39.000Z</time>
      </trkpt>
      <trkpt lat="47.5117" lon="6.7586">
        <ele>398.9</ele>
        <time>2016-12-28T13:11:40.000Z</time>
      </trkpt>
      <trkpt lat="47.51169" lon="6.75857">
        <ele>398.5</ele>
        <time>2016-12-28T13:11:41.000Z</time>
      </trkpt>
      <trkpt lat="47.51167" lon="6.75852">
        <ele>398</ele>
        <time>2016-12-28T13:11:42.000Z</time>
      </trkpt>
      <trkpt lat="47.51166" lon="6.75849">
        <ele>397.6</ele>
        <time>2016-12-28T13:11:43.000Z</time>
      </trkpt>
      <trkpt lat="47.51165" lon="6.75842">
        <ele>397</ele>
        <time>2016-12-28T13:11:45.000Z</time>
      </trkpt>
      <trkpt lat="47.51164" lon="6.75839">
        <ele>396.6</ele>
        <time>2016-12-28T13:11:46.000Z</time>
      </trkpt>
      <trkpt lat="47.51163" lon="6.75835">
        <ele>396.2</ele>
        <time>2016-12-28T13:11:47.000Z</time>
      </trkpt>
      <trkpt lat="47.51163" lon="6.7583">
        <ele>395.8</ele>
        <time>2016-12-28T13:11:48.000Z</time>
      </trkpt>
      <trkpt lat="47.51162" lon="6.75824">
        <ele>395</ele>
        <time>2016-12-28T13:11:50.000Z</time>
      </trkpt>
      <trkpt lat="47.51161" lon="6.75821">
        <ele>394.7</ele>
        <time>2016-12-28T13:11:51.000Z</time>
      </trkpt>
      <trkpt lat="47.5116" lon="6.75814">
        <ele>394</ele>
        <time>2016-12-28T13:11:53.000Z</time>
      </trkpt>
      <trkpt lat="47.51159" lon="6.75807">
        <ele>393.6</ele>
        <time>2016-12-28T13:11:54.000Z</time>
      </trkpt>
      <trkpt lat="47.51157" lon="6.75802">
        <ele>392.6</ele>
        <time>2016-12-28T13:11:56.000Z</time>
      </trkpt>
      <trkpt lat="47.51156" lon="6.758">
        <ele>392</ele>
        <time>2016-12-28T13:11:57.000Z</time>
      </trkpt>
      <trkpt lat="47.51154" lon="6.75794">
        <ele>390.8</ele>
        <time>2016-12-28T13:11:59.000Z</time>
      </trkpt>
      <trkpt lat="47.51153" lon="6.75792">
        <ele>390.3</ele>
        <time>2016-12-28T13:12:00.000Z</time>
      </trkpt>
      <trkpt lat="47.51152" lon="6.75786">
        <ele>389.3</ele>
        <time>2016-12-28T13:12:03.000Z</time>
      </trkpt>
      <trkpt lat="47.51152" lon="6.75784">
        <ele>389.1</ele>
        <time>2016-12-28T13:12:04.000Z</time>
      </trkpt>
      <trkpt lat="47.51154" lon="6.75778">
        <ele>388.1</ele>
        <time>2016-12-28T13:12:09.000Z</time>
      </trkpt>
      <trkpt lat="47.51154" lon="6.75777">
        <ele>387.9</ele>
        <time>2016-12-28T13:12:10.000Z</time>
      </trkpt>
      <trkpt lat="47.51157" lon="6.75774">
        <ele>387.6</ele>
        <time>2016-12-28T13:12:12.000Z</time>
      </trkpt>
      <trkpt lat="47.5116" lon="6.75771">
        <ele>387.5</ele>
        <time>2016-12-28T13:12:13.000Z</time>
      </trkpt>
      <trkpt lat="47.51163" lon="6.75771">
        <ele>387.8</ele>
        <time>2016-12-28T13:12:16.000Z</time>
      </trkpt>
      <trkpt lat="47.51165" lon="6.75767">
        <ele>387.9</ele>
        <time>2016-12-28T13:12:17.000Z</time>
      </trkpt>
      <trkpt lat="47.51164" lon="6.75764">
        <ele>388</ele>
        <time>2016-12-28T13:12:19.000Z</time>
      </trkpt>
      <trkpt lat="47.51165" lon="6.7576">
        <ele>388</ele>
        <time>2016-12-28T13:12:20.000Z</time>
      </trkpt>
      <trkpt lat="47.51164" lon="6.75754">
        <ele>388.2</ele>
        <time>2016-12-28T13:12:24.000Z</time>
      </trkpt>
      <trkpt lat="47.51163" lon="6.75751">
        <ele>388.1</ele>
        <time>2016-12-28T13:12:25.000Z</time>
      </trkpt>
      <trkpt lat="47.51163" lon="6.75746">
        <ele>387.9</ele>
        <time>2016-12-28T13:12:27.000Z</time>
      </trkpt>
      <trkpt lat="47.51162" lon="6.75741">
        <ele>387.8</ele>
        <time>2016-12-28T13:12:28.000Z</time>
      </trkpt>
      <trkpt lat="47.51161" lon="6.75736">
        <ele>387.8</ele>
        <time>2016-12-28T13:12:29.000Z</time>
      </trkpt>
      <trkpt lat="47.51159" lon="6.75728">
        <ele>387.8</ele>
        <time>2016-12-28T13:12:30.000Z</time>
      </trkpt>
      <trkpt lat="47.51157" lon="6.75723">
        <ele>387.8</ele>
        <time>2016-12-28T13:12:31.000Z</time>
      </trkpt>
      <trkpt lat="47.51155" lon="6.75716">
        <ele>387.8</ele>
        <time>2016-12-28T13:12:32.000Z</time>
      </trkpt>
      <trkpt lat="47.51154" lon="6.7571">
        <ele>387.9</ele>
        <time>2016-12-28T13:12:33.000Z</time>
      </trkpt>
      <trkpt lat="47.51152" lon="6.75704">
        <ele>387.9</ele>
        <time>2016-12-28T13:12:34.000Z</time>
      </trkpt>
      <trkpt lat="47.5115" lon="6.75698">
        <ele>388</ele>
        <time>2016-12-28T13:12:35.000Z</time>
      </trkpt>
      <trkpt lat="47.51148" lon="6.7569">
        <ele>388</ele>
        <time>2016-12-28T13:12:36.000Z</time>
      </trkpt>
      <trkpt lat="47.51145" lon="6.75683">
        <ele>388.1</ele>
        <time>2016-12-28T13:12:37.000Z</time>
      </trkpt>
      <trkpt lat="47.51143" lon="6.75677">
        <ele>388.1</ele>
        <time>2016-12-28T13:12:38.000Z</time>
      </trkpt>
      <trkpt lat="47.51141" lon="6.75672">
        <ele>388.1</ele>
        <time>2016-12-28T13:12:39.000Z</time>
      </trkpt>
      <trkpt lat="47.51141" lon="6.75668">
        <ele>388</ele>
        <time>2016-12-28T13:12:40.000Z</time>
      </trkpt>
      <trkpt lat="47.5114" lon="6.75664">
        <ele>387.9</ele>
        <time>2016-12-28T13:12:41.000Z</time>
      </trkpt>
      <trkpt lat="47.51138" lon="6.7566">
        <ele>387.8</ele>
        <time>2016-12-28T13:12:42.000Z</time>
      </trkpt>
      <trkpt lat="47.51136" lon="6.75655">
        <ele>387.7</ele>
        <time>2016-12-28T13:12:43.000Z</time>
      </trkpt>
      <trkpt lat="47.51134" lon="6.75651">
        <ele>387.7</ele>
        <time>2016-12-28T13:12:44.000Z</time>
      </trkpt>
      <trkpt lat="47.51133" lon="6.75646">
        <ele>387.5</ele>
        <time>2016-12-28T13:12:45.000Z</time>
      </trkpt>
      <trkpt lat="47.51132" lon="6.75643">
        <ele>387.5</ele>
        <time>2016-12-28T13:12:46.000Z</time>
      </trkpt>
      <trkpt lat="47.5113" lon="6.7564">
        <ele>387.3</ele>
        <time>2016-12-28T13:12:47.000Z</time>
      </trkpt>
      <trkpt lat="47.51129" lon="6.75637">
        <ele>387.1</ele>
        <time>2016-12-28T13:12:48.000Z</time>
      </trkpt>
      <trkpt lat="47.51128" lon="6.75634">
        <ele>386.9</ele>
        <time>2016-12-28T13:12:49.000Z</time>
      </trkpt>
      <trkpt lat="47.51126" lon="6.75628">
        <ele>386.8</ele>
        <time>2016-12-28T13:12:50.000Z</time>
      </trkpt>
      <trkpt lat="47.51124" lon="6.75623">
        <ele>386.7</ele>
        <time>2016-12-28T13:12:51.000Z</time>
      </trkpt>
      <trkpt lat="47.51124" lon="6.7562">
        <ele>386.5</ele>
        <time>2016-12-28T13:12:52.000Z</time>
      </trkpt>
      <trkpt lat="47.51123" lon="6.75617">
        <ele>386.3</ele>
        <time>2016-12-28T13:12:53.000Z</time>
      </trkpt>
      <trkpt lat="47.51121" lon="6.75612">
        <ele>386.1</ele>
        <time>2016-12-28T13:12:54.000Z</time>
      </trkpt>
      <trkpt lat="47.5112" lon="6.75609">
        <ele>385.8</ele>
        <time>2016-12-28T13:12:55.000Z</time>
      </trkpt>
      <trkpt lat="47.51119" lon="6.75606">
        <ele>385.5</ele>
        <time>2016-12-28T13:12:56.000Z</time>
      </trkpt>
      <trkpt lat="47.51119" lon="6.75602">
        <ele>385.2</ele>
        <time>2016-12-28T13:12:57.000Z</time>
      </trkpt>
      <trkpt lat="47.51117" lon="6.75597">
        <ele>384.8</ele>
        <time>2016-12-28T13:12:58.000Z</time>
      </trkpt>
      <trkpt lat="47.51116" lon="6.75594">
        <ele>384.5</ele>
        <time>2016-12-28T13:12:59.000Z</time>
      </trkpt>
      <trkpt lat="47.51115" lon="6.7559">
        <ele>384.3</ele>
        <time>2016-12-28T13:13:00.000Z</time>
      </trkpt>
      <trkpt lat="47.51114" lon="6.75584">
        <ele>383.5</ele>
        <time>2016-12-28T13:13:02.000Z</time>
      </trkpt>
      <trkpt lat="47.51114" lon="6.75582">
        <ele>383.1</ele>
        <time>2016-12-28T13:13:03.000Z</time>
      </trkpt>
      <trkpt lat="47.51113" lon="6.75577">
        <ele>382.7</ele>
        <time>2016-12-28T13:13:04.000Z</time>
      </trkpt>
      <trkpt lat="47.51113" lon="6.75573">
        <ele>382.4</ele>
        <time>2016-12-28T13:13:05.000Z</time>
      </trkpt>
      <trkpt lat="47.51112" lon="6.7557">
        <ele>382</ele>
        <time>2016-12-28T13:13:06.000Z</time>
      </trkpt>
      <trkpt lat="47.51111" lon="6.75567">
        <ele>381.6</ele>
        <time>2016-12-28T13:13:07.000Z</time>
      </trkpt>
      <trkpt lat="47.5111" lon="6.75564">
        <ele>381.1</ele>
        <time>2016-12-28T13:13:08.000Z</time>
      </trkpt>
      <trkpt lat="47.51109" lon="6.75559">
        <ele>380.6</ele>
        <time>2016-12-28T13:13:09.000Z</time>
      </trkpt>
      <trkpt lat="47.51109" lon="6.75556">
        <ele>380.1</ele>
        <time>2016-12-28T13:13:10.000Z</time>
      </trkpt>
      <trkpt lat="47.51107" lon="6.75551">
        <ele>379.6</ele>
        <time>2016-12-28T13:13:11.000Z</time>
      </trkpt>
      <trkpt lat="47.51105" lon="6.75547">
        <ele>379</ele>
        <time>2016-12-28T13:13:12.000Z</time>
      </trkpt>
      <trkpt lat="47.51103" lon="6.75543">
        <ele>378.4</ele>
        <time>2016-12-28T13:13:13.000Z</time>
      </trkpt>
      <trkpt lat="47.51101" lon="6.75539">
        <ele>377.8</ele>
        <time>2016-12-28T13:13:14.000Z</time>
      </trkpt>
      <trkpt lat="47.511" lon="6.75536">
        <ele>377.3</ele>
        <time>2016-12-28T13:13:15.000Z</time>
      </trkpt>
      <trkpt lat="47.51099" lon="6.75532">
        <ele>376.8</ele>
        <time>2016-12-28T13:13:16.000Z</time>
      </trkpt>
      <trkpt lat="47.51098" lon="6.75528">
        <ele>376.3</ele>
        <time>2016-12-28T13:13:17.000Z</time>
      </trkpt>
      <trkpt lat="47.51096" lon="6.75524">
        <ele>375.8</ele>
        <time>2016-12-28T13:13:18.000Z</time>
      </trkpt>
      <trkpt lat="47.51093" lon="6.7552">
        <ele>375.3</ele>
        <time>2016-12-28T13:13:19.000Z</time>
      </trkpt>
      <trkpt lat="47.51092" lon="6.75517">
        <ele>374.8</ele>
        <time>2016-12-28T13:13:20.000Z</time>
      </trkpt>
      <trkpt lat="47.5109" lon="6.75513">
        <ele>374.3</ele>
        <time>2016-12-28T13:13:21.000Z</time>
      </trkpt>
      <trkpt lat="47.51089" lon="6.75509">
        <ele>373.8</ele>
        <time>2016-12-28T13:13:22.000Z</time>
      </trkpt>
      <trkpt lat="47.51087" lon="6.75506">
        <ele>373.8</ele>
        <time>2016-12-28T13:13:23.000Z</time>
      </trkpt>
      <trkpt lat="47.51085" lon="6.75501">
        <ele>373.8</ele>
        <time>2016-12-28T13:13:24.000Z</time>
      </trkpt>
      <trkpt lat="47.51084" lon="6.75496">
        <ele>373.8</ele>
        <time>2016-12-28T13:13:25.000Z</time>
      </trkpt>
      <trkpt lat="47.51081" lon="6.7549">
        <ele>373.7</ele>
        <time>2016-12-28T13:13:26.000Z</time>
      </trkpt>
      <trkpt lat="47.51079" lon="6.75487">
        <ele>373.6</ele>
        <time>2016-12-28T13:13:27.000Z</time>
      </trkpt>
      <trkpt lat="47.51077" lon="6.75481">
        <ele>373.5</ele>
        <time>2016-12-28T13:13:28.000Z</time>
      </trkpt>
      <trkpt lat="47.51075" lon="6.75479">
        <ele>373.4</ele>
        <time>2016-12-28T13:13:29.000Z</time>
      </trkpt>
      <trkpt lat="47.51074" lon="6.75475">
        <ele>373.2</ele>
        <time>2016-12-28T13:13:30.000Z</time>
      </trkpt>
      <trkpt lat="47.51072" lon="6.75471">
        <ele>373.1</ele>
        <time>2016-12-28T13:13:31.000Z</time>
      </trkpt>
      <trkpt lat="47.51069" lon="6.75466">
        <ele>372.9</ele>
        <time>2016-12-28T13:13:32.000Z</time>
      </trkpt>
      <trkpt lat="47.51068" lon="6.75462">
        <ele>372.9</ele>
        <time>2016-12-28T13:13:33.000Z</time>
      </trkpt>
      <trkpt lat="47.51066" lon="6.75456">
        <ele>372.9</ele>
        <time>2016-12-28T13:13:34.000Z</time>
      </trkpt>
      <trkpt lat="47.51065" lon="6.75451">
        <ele>372.9</ele>
        <time>2016-12-28T13:13:35.000Z</time>
      </trkpt>
      <trkpt lat="47.51064" lon="6.75443">
        <ele>372.8</ele>
        <time>2016-12-28T13:13:36.000Z</time>
      </trkpt>
      <trkpt lat="47.51063" lon="6.75439">
        <ele>372.8</ele>
        <time>2016-12-28T13:13:37.000Z</time>
      </trkpt>
      <trkpt lat="47.51062" lon="6.75436">
        <ele>372.8</ele>
        <time>2016-12-28T13:13:38.000Z</time>
      </trkpt>
      <trkpt lat="47.51058" lon="6.75432">
        <ele>372.8</ele>
        <time>2016-12-28T13:13:40.000Z</time>
      </trkpt>
      <trkpt lat="47.51057" lon="6.75429">
        <ele>372.6</ele>
        <time>2016-12-28T13:13:41.000Z</time>
      </trkpt>
      <trkpt lat="47.51055" lon="6.75425">
        <ele>372.5</ele>
        <time>2016-12-28T13:13:42.000Z</time>
      </trkpt>
      <trkpt lat="47.51054" lon="6.75421">
        <ele>372.4</ele>
        <time>2016-12-28T13:13:43.000Z</time>
      </trkpt>
      <trkpt lat="47.51053" lon="6.75417">
        <ele>372.2</ele>
        <time>2016-12-28T13:13:44.000Z</time>
      </trkpt>
      <trkpt lat="47.51051" lon="6.75413">
        <ele>372</ele>
        <time>2016-12-28T13:13:45.000Z</time>
      </trkpt>
      <trkpt lat="47.51049" lon="6.75409">
        <ele>371.7</ele>
        <time>2016-12-28T13:13:47.000Z</time>
      </trkpt>
      <trkpt lat="47.51049" lon="6.75406">
        <ele>371.6</ele>
        <time>2016-12-28T13:13:48.000Z</time>
      </trkpt>
      <trkpt lat="47.51052" lon="6.75402">
        <ele>370.8</ele>
        <time>2016-12-28T13:13:53.000Z</time>
      </trkpt>
      <trkpt lat="47.51052" lon="6.75401">
        <ele>370.7</ele>
        <time>2016-12-28T13:13:54.000Z</time>
      </trkpt>
      <trkpt lat="47.51057" lon="6.754">
        <ele>370.7</ele>
        <time>2016-12-28T13:13:57.000Z</time>
      </trkpt>
      <trkpt lat="47.51059" lon="6.754">
        <ele>370.8</ele>
        <time>2016-12-28T13:13:58.000Z</time>
      </trkpt>
      <trkpt lat="47.51062" lon="6.75397">
        <ele>371.6</ele>
        <time>2016-12-28T13:14:02.000Z</time>
      </trkpt>
      <trkpt lat="47.51065" lon="6.75394">
        <ele>371.7</ele>
        <time>2016-12-28T13:14:03.000Z</time>
      </trkpt>
      <trkpt lat="47.51069" lon="6.75391">
        <ele>371.6</ele>
        <time>2016-12-28T13:14:06.000Z</time>
      </trkpt>
      <trkpt lat="47.5107" lon="6.7539">
        <ele>371.7</ele>
        <time>2016-12-28T13:14:07.000Z</time>
      </trkpt>
      <trkpt lat="47.51074" lon="6.75389">
        <ele>372</ele>
        <time>2016-12-28T13:14:10.000Z</time>
      </trkpt>
      <trkpt lat="47.51076" lon="6.75387">
        <ele>372.1</ele>
        <time>2016-12-28T13:14:11.000Z</time>
      </trkpt>
      <trkpt lat="47.5108" lon="6.75384">
        <ele>372.9</ele>
        <time>2016-12-28T13:14:16.000Z</time>
      </trkpt>
      <trkpt lat="47.5108" lon="6.75383">
        <ele>373.2</ele>
        <time>2016-12-28T13:14:17.000Z</time>
      </trkpt>
      <trkpt lat="47.51077" lon="6.75381">
        <ele>375</ele>
        <time>2016-12-28T13:14:24.000Z</time>
      </trkpt>
      <trkpt lat="47.51076" lon="6.7538">
        <ele>375.5</ele>
        <time>2016-12-28T13:14:25.000Z</time>
      </trkpt>
      <trkpt lat="47.51075" lon="6.75373">
        <ele>378.4</ele>
        <time>2016-12-28T13:14:37.000Z</time>
      </trkpt>
      <trkpt lat="47.51074" lon="6.75373">
        <ele>378.6</ele>
        <time>2016-12-28T13:14:38.000Z</time>
      </trkpt>
      <trkpt lat="47.51077" lon="6.75378">
        <ele>379.4</ele>
        <time>2016-12-28T13:14:44.000Z</time>
      </trkpt>
      <trkpt lat="47.51079" lon="6.75378">
        <ele>379.5</ele>
        <time>2016-12-28T13:14:45.000Z</time>
      </trkpt>
      <trkpt lat="47.51083" lon="6.75381">
        <ele>379.7</ele>
        <time>2016-12-28T13:14:48.000Z</time>
      </trkpt>
      <trkpt lat="47.51084" lon="6.75383">
        <ele>379.8</ele>
        <time>2016-12-28T13:14:49.000Z</time>
      </trkpt>
      <trkpt lat="47.51087" lon="6.75386">
        <ele>379.9</ele>
        <time>2016-12-28T13:14:52.000Z</time>
      </trkpt>
      <trkpt lat="47.51088" lon="6.75387">
        <ele>380</ele>
        <time>2016-12-28T13:14:53.000Z</time>
      </trkpt>
      <trkpt lat="47.51089" lon="6.75388">
        <ele>380.2</ele>
        <time>2016-12-28T13:14:54.000Z</time>
      </trkpt>
      <trkpt lat="47.51092" lon="6.7539">
        <ele>380.2</ele>
        <time>2016-12-28T13:14:55.000Z</time>
      </trkpt>
      <trkpt lat="47.51096" lon="6.75392">
        <ele>380.8</ele>
        <time>2016-12-28T13:14:58.000Z</time>
      </trkpt>
      <trkpt lat="47.51097" lon="6.75393">
        <ele>381</ele>
        <time>2016-12-28T13:14:59.000Z</time>
      </trkpt>
      <trkpt lat="47.51101" lon="6.75396">
        <ele>382.7</ele>
        <time>2016-12-28T13:15:07.000Z</time>
      </trkpt>
      <trkpt lat="47.51102" lon="6.75397">
        <ele>382.8</ele>
        <time>2016-12-28T13:15:08.000Z</time>
      </trkpt>
      <trkpt lat="47.51104" lon="6.754">
        <ele>383.3</ele>
        <time>2016-12-28T13:15:10.000Z</time>
      </trkpt>
      <trkpt lat="47.51106" lon="6.75402">
        <ele>383.5</ele>
        <time>2016-12-28T13:15:11.000Z</time>
      </trkpt>
      <trkpt lat="47.51109" lon="6.75404">
        <ele>384.6</ele>
        <time>2016-12-28T13:15:15.000Z</time>
      </trkpt>
      <trkpt lat="47.5111" lon="6.75404">
        <ele>384.8</ele>
        <time>2016-12-28T13:15:16.000Z</time>
      </trkpt>
      <trkpt lat="47.51113" lon="6.75407">
        <ele>386</ele>
        <time>2016-12-28T13:15:22.000Z</time>
      </trkpt>
      <trkpt lat="47.51115" lon="6.75408">
        <ele>386.3</ele>
        <time>2016-12-28T13:15:23.000Z</time>
      </trkpt>
      <trkpt lat="47.51119" lon="6.75412">
        <ele>388</ele>
        <time>2016-12-28T13:15:30.000Z</time>
      </trkpt>
      <trkpt lat="47.5112" lon="6.75413">
        <ele>388.3</ele>
        <time>2016-12-28T13:15:31.000Z</time>
      </trkpt>
      <trkpt lat="47.51124" lon="6.75414">
        <ele>389.6</ele>
        <time>2016-12-28T13:15:35.000Z</time>
      </trkpt>
      <trkpt lat="47.51126" lon="6.75414">
        <ele>389.9</ele>
        <time>2016-12-28T13:15:36.000Z</time>
      </trkpt>
      <trkpt lat="47.5113" lon="6.75416">
        <ele>390.4</ele>
        <time>2016-12-28T13:15:38.000Z</time>
      </trkpt>
      <trkpt lat="47.51133" lon="6.75417">
        <ele>390.6</ele>
        <time>2016-12-28T13:15:39.000Z</time>
      </trkpt>
      <trkpt lat="47.51136" lon="6.75418">
        <ele>391.1</ele>
        <time>2016-12-28T13:15:41.000Z</time>
      </trkpt>
      <trkpt lat="47.51137" lon="6.75419">
        <ele>391.4</ele>
        <time>2016-12-28T13:15:42.000Z</time>
      </trkpt>
      <trkpt lat="47.5114" lon="6.75421">
        <ele>392.3</ele>
        <time>2016-12-28T13:15:46.000Z</time>
      </trkpt>
      <trkpt lat="47.51142" lon="6.75423">
        <ele>392.5</ele>
        <time>2016-12-28T13:15:47.000Z</time>
      </trkpt>
      <trkpt lat="47.51144" lon="6.75426">
        <ele>393</ele>
        <time>2016-12-28T13:15:49.000Z</time>
      </trkpt>
      <trkpt lat="47.51145" lon="6.75429">
        <ele>393.3</ele>
        <time>2016-12-28T13:15:50.000Z</time>
      </trkpt>
      <trkpt lat="47.51145" lon="6.75432">
        <ele>393.6</ele>
        <time>2016-12-28T13:15:51.000Z</time>
      </trkpt>
      <trkpt lat="47.51146" lon="6.75435">
        <ele>393.7</ele>
        <time>2016-12-28T13:15:52.000Z</time>
      </trkpt>
      <trkpt lat="47.51149" lon="6.7544">
        <ele>394.6</ele>
        <time>2016-12-28T13:15:56.000Z</time>
      </trkpt>
      <trkpt lat="47.5115" lon="6.75442">
        <ele>394.9</ele>
        <time>2016-12-28T13:15:57.000Z</time>
      </trkpt>
      <trkpt lat="47.51152" lon="6.75445">
        <ele>396.2</ele>
        <time>2016-12-28T13:16:01.000Z</time>
      </trkpt>
      <trkpt lat="47.51154" lon="6.75446">
        <ele>396.5</ele>
        <time>2016-12-28T13:16:02.000Z</time>
      </trkpt>
      <trkpt lat="47.51157" lon="6.75448">
        <ele>397.9</ele>
        <time>2016-12-28T13:16:06.000Z</time>
      </trkpt>
      <trkpt lat="47.51158" lon="6.75449">
        <ele>398.2</ele>
        <time>2016-12-28T13:16:07.000Z</time>
      </trkpt>
      <trkpt lat="47.5116" lon="6.75452">
        <ele>399.3</ele>
        <time>2016-12-28T13:16:10.000Z</time>
      </trkpt>
      <trkpt lat="47.51162" lon="6.75455">
        <ele>399.6</ele>
        <time>2016-12-28T13:16:11.000Z</time>
      </trkpt>
      <trkpt lat="47.51164" lon="6.75461">
        <ele>400.5</ele>
        <time>2016-12-28T13:16:14.000Z</time>
      </trkpt>
      <trkpt lat="47.51164" lon="6.75462">
        <ele>400.5</ele>
        <time>2016-12-28T13:16:15.000Z</time>
      </trkpt>
      <trkpt lat="47.51167" lon="6.75466">
        <ele>401.2</ele>
        <time>2016-12-28T13:16:21.000Z</time>
      </trkpt>
      <trkpt lat="47.51167" lon="6.75468">
        <ele>401.3</ele>
        <time>2016-12-28T13:16:22.000Z</time>
      </trkpt>
      <trkpt lat="47.5117" lon="6.75472">
        <ele>401.8</ele>
        <time>2016-12-28T13:16:26.000Z</time>
      </trkpt>
      <trkpt lat="47.51171" lon="6.75474">
        <ele>402</ele>
        <time>2016-12-28T13:16:27.000Z</time>
      </trkpt>
      <trkpt lat="47.51172" lon="6.75479">
        <ele>402.4</ele>
        <time>2016-12-28T13:16:29.000Z</time>
      </trkpt>
      <trkpt lat="47.51173" lon="6.75481">
        <ele>402.7</ele>
        <time>2016-12-28T13:16:30.000Z</time>
      </trkpt>
      <trkpt lat="47.51175" lon="6.75486">
        <ele>403.9</ele>
        <time>2016-12-28T13:16:34.000Z</time>
      </trkpt>
      <trkpt lat="47.51176" lon="6.75487">
        <ele>404.1</ele>
        <time>2016-12-28T13:16:35.000Z</time>
      </trkpt>
      <trkpt lat="47.51178" lon="6.75491">
        <ele>404.8</ele>
        <time>2016-12-28T13:16:38.000Z</time>
      </trkpt>
      <trkpt lat="47.51179" lon="6.75493">
        <ele>405</ele>
        <time>2016-12-28T13:16:39.000Z</time>
      </trkpt>
      <trkpt lat="47.51181" lon="6.75498">
        <ele>406.8</ele>
        <time>2016-12-28T13:16:45.000Z</time>
      </trkpt>
      <trkpt lat="47.51182" lon="6.755">
        <ele>407.1</ele>
        <time>2016-12-28T13:16:46.000Z</time>
      </trkpt>
      <trkpt lat="47.51184" lon="6.75504">
        <ele>407.7</ele>
        <time>2016-12-28T13:16:49.000Z</time>
      </trkpt>
      <trkpt lat="47.51186" lon="6.75507">
        <ele>407.9</ele>
        <time>2016-12-28T13:16:50.000Z</time>
      </trkpt>
      <trkpt lat="47.51189" lon="6.75509">
        <ele>408.2</ele>
        <time>2016-12-28T13:16:52.000Z</time>
      </trkpt>
      <trkpt lat="47.5119" lon="6.7551">
        <ele>408.5</ele>
        <time>2016-12-28T13:16:53.000Z</time>
      </trkpt>
      <trkpt lat="47.51193" lon="6.75514">
        <ele>409.4</ele>
        <time>2016-12-28T13:16:56.000Z</time>
      </trkpt>
      <trkpt lat="47.51194" lon="6.75515">
        <ele>409.8</ele>
        <time>2016-12-28T13:16:57.000Z</time>
      </trkpt>
      <trkpt lat="47.51197" lon="6.75517">
        <ele>410.3</ele>
        <time>2016-12-28T13:16:59.000Z</time>
      </trkpt>
      <trkpt lat="47.51198" lon="6.75519">
        <ele>410.6</ele>
        <time>2016-12-28T13:17:00.000Z</time>
      </trkpt>
      <trkpt lat="47.51202" lon="6.75522">
        <ele>411.6</ele>
        <time>2016-12-28T13:17:04.000Z</time>
      </trkpt>
      <trkpt lat="47.51203" lon="6.75523">
        <ele>411.9</ele>
        <time>2016-12-28T13:17:05.000Z</time>
      </trkpt>
      <trkpt lat="47.51207" lon="6.75526">
        <ele>412.5</ele>
        <time>2016-12-28T13:17:07.000Z</time>
      </trkpt>
      <trkpt lat="47.51208" lon="6.75527">
        <ele>412.7</ele>
        <time>2016-12-28T13:17:08.000Z</time>
      </trkpt>
      <trkpt lat="47.51211" lon="6.7553">
        <ele>413.1</ele>
        <time>2016-12-28T13:17:10.000Z</time>
      </trkpt>
      <trkpt lat="47.51213" lon="6.75531">
        <ele>413.3</ele>
        <time>2016-12-28T13:17:11.000Z</time>
      </trkpt>
      <trkpt lat="47.51216" lon="6.75532">
        <ele>414.1</ele>
        <time>2016-12-28T13:17:14.000Z</time>
      </trkpt>
      <trkpt lat="47.51217" lon="6.75533">
        <ele>414.3</ele>
        <time>2016-12-28T13:17:15.000Z</time>
      </trkpt>
      <trkpt lat="47.51219" lon="6.75538">
        <ele>414.9</ele>
        <time>2016-12-28T13:17:19.000Z</time>
      </trkpt>
      <trkpt lat="47.51219" lon="6.7554">
        <ele>415</ele>
        <time>2016-12-28T13:17:20.000Z</time>
      </trkpt>
      <trkpt lat="47.51221" lon="6.75546">
        <ele>415.1</ele>
        <time>2016-12-28T13:17:23.000Z</time>
      </trkpt>
      <trkpt lat="47.51221" lon="6.75548">
        <ele>415.1</ele>
        <time>2016-12-28T13:17:24.000Z</time>
      </trkpt>
      <trkpt lat="47.51223" lon="6.75552">
        <ele>415.1</ele>
        <time>2016-12-28T13:17:26.000Z</time>
      </trkpt>
      <trkpt lat="47.51222" lon="6.75554">
        <ele>415.2</ele>
        <time>2016-12-28T13:17:27.000Z</time>
      </trkpt>
      <trkpt lat="47.51224" lon="6.75559">
        <ele>415.3</ele>
        <time>2016-12-28T13:17:29.000Z</time>
      </trkpt>
      <trkpt lat="47.51225" lon="6.75561">
        <ele>415.4</ele>
        <time>2016-12-28T13:17:30.000Z</time>
      </trkpt>
      <trkpt lat="47.51226" lon="6.75566">
        <ele>415.5</ele>
        <time>2016-12-28T13:17:33.000Z</time>
      </trkpt>
      <trkpt lat="47.51226" lon="6.75568">
        <ele>415.4</ele>
        <time>2016-12-28T13:17:34.000Z</time>
      </trkpt>
      <trkpt lat="47.51227" lon="6.75572">
        <ele>415.4</ele>
        <time>2016-12-28T13:17:37.000Z</time>
      </trkpt>
      <trkpt lat="47.51227" lon="6.75577">
        <ele>415.3</ele>
        <time>2016-12-28T13:17:38.000Z</time>
      </trkpt>
      <trkpt lat="47.51228" lon="6.7558">
        <ele>415.3</ele>
        <time>2016-12-28T13:17:39.000Z</time>
      </trkpt>
      <trkpt lat="47.51229" lon="6.75584">
        <ele>415.2</ele>
        <time>2016-12-28T13:17:40.000Z</time>
      </trkpt>
      <trkpt lat="47.51231" lon="6.75589">
        <ele>415.1</ele>
        <time>2016-12-28T13:17:41.000Z</time>
      </trkpt>
      <trkpt lat="47.51231" lon="6.75592">
        <ele>415</ele>
        <time>2016-12-28T13:17:42.000Z</time>
      </trkpt>
      <trkpt lat="47.51234" lon="6.75597">
        <ele>414.8</ele>
        <time>2016-12-28T13:17:45.000Z</time>
      </trkpt>
      <trkpt lat="47.51235" lon="6.75598">
        <ele>414.9</ele>
        <time>2016-12-28T13:17:46.000Z</time>
      </trkpt>
      <trkpt lat="47.51236" lon="6.75602">
        <ele>414.9</ele>
        <time>2016-12-28T13:17:47.000Z</time>
      </trkpt>
      <trkpt lat="47.51237" lon="6.75604">
        <ele>415</ele>
        <time>2016-12-28T13:17:48.000Z</time>
      </trkpt>
      <trkpt lat="47.51239" lon="6.75606">
        <ele>415.3</ele>
        <time>2016-12-28T13:17:50.000Z</time>
      </trkpt>
      <trkpt lat="47.51241" lon="6.75608">
        <ele>415.4</ele>
        <time>2016-12-28T13:17:51.000Z</time>
      </trkpt>
      <trkpt lat="47.51244" lon="6.75612">
        <ele>415.7</ele>
        <time>2016-12-28T13:17:53.000Z</time>
      </trkpt>
      <trkpt lat="47.51245" lon="6.75613">
        <ele>415.9</ele>
        <time>2016-12-28T13:17:54.000Z</time>
      </trkpt>
      <trkpt lat="47.51248" lon="6.75617">
        <ele>416.3</ele>
        <time>2016-12-28T13:17:57.000Z</time>
      </trkpt>
      <trkpt lat="47.51249" lon="6.75618">
        <ele>416.5</ele>
        <time>2016-12-28T13:17:58.000Z</time>
      </trkpt>
      <trkpt lat="47.51251" lon="6.75623">
        <ele>417.2</ele>
        <time>2016-12-28T13:18:01.000Z</time>
      </trkpt>
      <trkpt lat="47.51251" lon="6.75625">
        <ele>417.4</ele>
        <time>2016-12-28T13:18:02.000Z</time>
      </trkpt>
      <trkpt lat="47.51253" lon="6.75628">
        <ele>417.7</ele>
        <time>2016-12-28T13:18:04.000Z</time>
      </trkpt>
      <trkpt lat="47.51254" lon="6.75631">
        <ele>417.8</ele>
        <time>2016-12-28T13:18:05.000Z</time>
      </trkpt>
      <trkpt lat="47.51255" lon="6.75637">
        <ele>418</ele>
        <time>2016-12-28T13:18:08.000Z</time>
      </trkpt>
      <trkpt lat="47.51255" lon="6.75639">
        <ele>418</ele>
        <time>2016-12-28T13:18:09.000Z</time>
      </trkpt>
      <trkpt lat="47.51255" lon="6.75642">
        <ele>418</ele>
        <time>2016-12-28T13:18:10.000Z</time>
      </trkpt>
      <trkpt lat="47.51258" lon="6.75648">
        <ele>417.9</ele>
        <time>2016-12-28T13:18:11.000Z</time>
      </trkpt>
      <trkpt lat="47.51259" lon="6.75652">
        <ele>417.8</ele>
        <time>2016-12-28T13:18:12.000Z</time>
      </trkpt>
      <trkpt lat="47.5126" lon="6.75655">
        <ele>417.7</ele>
        <time>2016-12-28T13:18:13.000Z</time>
      </trkpt>
      <trkpt lat="47.51261" lon="6.7566">
        <ele>417.5</ele>
        <time>2016-12-28T13:18:15.000Z</time>
      </trkpt>
      <trkpt lat="47.51263" lon="6.75662">
        <ele>417.5</ele>
        <time>2016-12-28T13:18:16.000Z</time>
      </trkpt>
      <trkpt lat="47.51263" lon="6.75664">
        <ele>417.5</ele>
        <time>2016-12-28T13:18:17.000Z</time>
      </trkpt>
      <trkpt lat="47.51265" lon="6.75668">
        <ele>417.5</ele>
        <time>2016-12-28T13:18:18.000Z</time>
      </trkpt>
      <trkpt lat="47.51266" lon="6.75674">
        <ele>417.4</ele>
        <time>2016-12-28T13:18:20.000Z</time>
      </trkpt>
      <trkpt lat="47.51267" lon="6.75676">
        <ele>417.5</ele>
        <time>2016-12-28T13:18:21.000Z</time>
      </trkpt>
      <trkpt lat="47.51269" lon="6.75681">
        <ele>417.5</ele>
        <time>2016-12-28T13:18:24.000Z</time>
      </trkpt>
      <trkpt lat="47.5127" lon="6.75683">
        <ele>417.5</ele>
        <time>2016-12-28T13:18:25.000Z</time>
      </trkpt>
      <trkpt lat="47.5127" lon="6.75684">
        <ele>417.4</ele>
        <time>2016-12-28T13:18:26.000Z</time>
      </trkpt>
      <trkpt lat="47.51273" lon="6.75688">
        <ele>417.3</ele>
        <time>2016-12-28T13:18:27.000Z</time>
      </trkpt>
      <trkpt lat="47.51275" lon="6.75692">
        <ele>417.1</ele>
        <time>2016-12-28T13:18:29.000Z</time>
      </trkpt>
      <trkpt lat="47.51275" lon="6.75693">
        <ele>416.9</ele>
        <time>2016-12-28T13:18:30.000Z</time>
      </trkpt>
      <trkpt lat="47.51277" lon="6.75699">
        <ele>416.7</ele>
        <time>2016-12-28T13:18:33.000Z</time>
      </trkpt>
      <trkpt lat="47.51277" lon="6.757">
        <ele>416.6</ele>
        <time>2016-12-28T13:18:34.000Z</time>
      </trkpt>
      <trkpt lat="47.51277" lon="6.75703">
        <ele>416.4</ele>
        <time>2016-12-28T13:18:36.000Z</time>
      </trkpt>
      <trkpt lat="47.51278" lon="6.75708">
        <ele>416.3</ele>
        <time>2016-12-28T13:18:37.000Z</time>
      </trkpt>
      <trkpt lat="47.51279" lon="6.75712">
        <ele>416.2</ele>
        <time>2016-12-28T13:18:38.000Z</time>
      </trkpt>
      <trkpt lat="47.51281" lon="6.75716">
        <ele>416.1</ele>
        <time>2016-12-28T13:18:39.000Z</time>
      </trkpt>
      <trkpt lat="47.51284" lon="6.75719">
        <ele>416.1</ele>
        <time>2016-12-28T13:18:40.000Z</time>
      </trkpt>
      <trkpt lat="47.51286" lon="6.75723">
        <ele>416</ele>
        <time>2016-12-28T13:18:41.000Z</time>
      </trkpt>
      <trkpt lat="47.51288" lon="6.75726">
        <ele>415.9</ele>
        <time>2016-12-28T13:18:42.000Z</time>
      </trkpt>
      <trkpt lat="47.51289" lon="6.75729">
        <ele>415.9</ele>
        <time>2016-12-28T13:18:43.000Z</time>
      </trkpt>
      <trkpt lat="47.5129" lon="6.75732">
        <ele>415.8</ele>
        <time>2016-12-28T13:18:44.000Z</time>
      </trkpt>
      <trkpt lat="47.51291" lon="6.75735">
        <ele>415.8</ele>
        <time>2016-12-28T13:18:45.000Z</time>
      </trkpt>
      <trkpt lat="47.51294" lon="6.75739">
        <ele>416</ele>
        <time>2016-12-28T13:18:47.000Z</time>
      </trkpt>
      <trkpt lat="47.51295" lon="6.75742">
        <ele>416.1</ele>
        <time>2016-12-28T13:18:48.000Z</time>
      </trkpt>
      <trkpt lat="47.51297" lon="6.75746">
        <ele>416.2</ele>
        <time>2016-12-28T13:18:50.000Z</time>
      </trkpt>
      <trkpt lat="47.51298" lon="6.75749">
        <ele>416.2</ele>
        <time>2016-12-28T13:18:51.000Z</time>
      </trkpt>
      <trkpt lat="47.513" lon="6.75753">
        <ele>416.1</ele>
        <time>2016-12-28T13:18:52.000Z</time>
      </trkpt>
      <trkpt lat="47.51302" lon="6.75757">
        <ele>416.3</ele>
        <time>2016-12-28T13:18:53.000Z</time>
      </trkpt>
      <trkpt lat="47.51304" lon="6.75762">
        <ele>416.6</ele>
        <time>2016-12-28T13:18:56.000Z</time>
      </trkpt>
      <trkpt lat="47.51305" lon="6.75764">
        <ele>416.9</ele>
        <time>2016-12-28T13:18:57.000Z</time>
      </trkpt>
      <trkpt lat="47.51306" lon="6.75768">
        <ele>417.1</ele>
        <time>2016-12-28T13:18:58.000Z</time>
      </trkpt>
      <trkpt lat="47.51308" lon="6.75774">
        <ele>417.3</ele>
        <time>2016-12-28T13:18:59.000Z</time>
      </trkpt>
      <trkpt lat="47.51308" lon="6.75779">
        <ele>417.7</ele>
        <time>2016-12-28T13:19:01.000Z</time>
      </trkpt>
      <trkpt lat="47.51309" lon="6.7578">
        <ele>418</ele>
        <time>2016-12-28T13:19:02.000Z</time>
      </trkpt>
      <trkpt lat="47.51311" lon="6.75785">
        <ele>418.2</ele>
        <time>2016-12-28T13:19:03.000Z</time>
      </trkpt>
      <trkpt lat="47.51313" lon="6.75792">
        <ele>418.6</ele>
        <time>2016-12-28T13:19:04.000Z</time>
      </trkpt>
      <trkpt lat="47.51314" lon="6.75797">
        <ele>419.7</ele>
        <time>2016-12-28T13:19:07.000Z</time>
      </trkpt>
      <trkpt lat="47.51315" lon="6.75801">
        <ele>420</ele>
        <time>2016-12-28T13:19:08.000Z</time>
      </trkpt>
      <trkpt lat="47.51316" lon="6.75806">
        <ele>420.4</ele>
        <time>2016-12-28T13:19:09.000Z</time>
      </trkpt>
      <trkpt lat="47.51317" lon="6.75812">
        <ele>420.8</ele>
        <time>2016-12-28T13:19:10.000Z</time>
      </trkpt>
      <trkpt lat="47.51319" lon="6.75817">
        <ele>421.6</ele>
        <time>2016-12-28T13:19:12.000Z</time>
      </trkpt>
      <trkpt lat="47.5132" lon="6.75821">
        <ele>422</ele>
        <time>2016-12-28T13:19:13.000Z</time>
      </trkpt>
      <trkpt lat="47.5132" lon="6.75825">
        <ele>422.3</ele>
        <time>2016-12-28T13:19:14.000Z</time>
      </trkpt>
      <trkpt lat="47.5132" lon="6.7583">
        <ele>422.6</ele>
        <time>2016-12-28T13:19:15.000Z</time>
      </trkpt>
      <trkpt lat="47.51321" lon="6.75835">
        <ele>423.2</ele>
        <time>2016-12-28T13:19:17.000Z</time>
      </trkpt>
      <trkpt lat="47.51321" lon="6.75837">
        <ele>423.4</ele>
        <time>2016-12-28T13:19:18.000Z</time>
      </trkpt>
      <trkpt lat="47.51321" lon="6.75849">
        <ele>423.6</ele>
        <time>2016-12-28T13:19:19.000Z</time>
      </trkpt>
      <trkpt lat="47.5132" lon="6.75854">
        <ele>423.9</ele>
        <time>2016-12-28T13:19:21.000Z</time>
      </trkpt>
      <trkpt lat="47.5132" lon="6.75856">
        <ele>424</ele>
        <time>2016-12-28T13:19:22.000Z</time>
      </trkpt>
      <trkpt lat="47.5132" lon="6.7586">
        <ele>424.1</ele>
        <time>2016-12-28T13:19:23.000Z</time>
      </trkpt>
      <trkpt lat="47.5132" lon="6.75863">
        <ele>424.3</ele>
        <time>2016-12-28T13:19:24.000Z</time>
      </trkpt>
      <trkpt lat="47.5132" lon="6.75867">
        <ele>424.5</ele>
        <time>2016-12-28T13:19:25.000Z</time>
      </trkpt>
      <trkpt lat="47.51321" lon="6.75872">
        <ele>424.7</ele>
        <time>2016-12-28T13:19:26.000Z</time>
      </trkpt>
      <trkpt lat="47.51321" lon="6.75875">
        <ele>425</ele>
        <time>2016-12-28T13:19:27.000Z</time>
      </trkpt>
      <trkpt lat="47.51321" lon="6.75879">
        <ele>425.1</ele>
        <time>2016-12-28T13:19:28.000Z</time>
      </trkpt>
      <trkpt lat="47.51322" lon="6.75882">
        <ele>425.2</ele>
        <time>2016-12-28T13:19:29.000Z</time>
      </trkpt>
      <trkpt lat="47.51323" lon="6.75888">
        <ele>425.5</ele>
        <time>2016-12-28T13:19:30.000Z</time>
      </trkpt>
      <trkpt lat="47.51326" lon="6.75892">
        <ele>425.5</ele>
        <time>2016-12-28T13:19:31.000Z</time>
      </trkpt>
      <trkpt lat="47.51328" lon="6.75896">
        <ele>425.5</ele>
        <time>2016-12-28T13:19:32.000Z</time>
      </trkpt>
      <trkpt lat="47.5133" lon="6.75899">
        <ele>425.7</ele>
        <time>2016-12-28T13:19:34.000Z</time>
      </trkpt>
      <trkpt lat="47.51331" lon="6.75901">
        <ele>425.7</ele>
        <time>2016-12-28T13:19:35.000Z</time>
      </trkpt>
      <trkpt lat="47.51332" lon="6.75907">
        <ele>425.8</ele>
        <time>2016-12-28T13:19:37.000Z</time>
      </trkpt>
      <trkpt lat="47.51333" lon="6.7591">
        <ele>425.7</ele>
        <time>2016-12-28T13:19:38.000Z</time>
      </trkpt>
      <trkpt lat="47.51334" lon="6.75914">
        <ele>425.8</ele>
        <time>2016-12-28T13:19:40.000Z</time>
      </trkpt>
      <trkpt lat="47.51335" lon="6.75916">
        <ele>425.9</ele>
        <time>2016-12-28T13:19:41.000Z</time>
      </trkpt>
      <trkpt lat="47.51338" lon="6.7592">
        <ele>426</ele>
        <time>2016-12-28T13:19:43.000Z</time>
      </trkpt>
      <trkpt lat="47.51339" lon="6.75923">
        <ele>426.1</ele>
        <time>2016-12-28T13:19:44.000Z</time>
      </trkpt>
      <trkpt lat="47.51341" lon="6.75926">
        <ele>426.1</ele>
        <time>2016-12-28T13:19:45.000Z</time>
      </trkpt>
      <trkpt lat="47.51343" lon="6.75927">
        <ele>426.1</ele>
        <time>2016-12-28T13:19:46.000Z</time>
      </trkpt>
      <trkpt lat="47.51346" lon="6.75932">
        <ele>425.9</ele>
        <time>2016-12-28T13:19:49.000Z</time>
      </trkpt>
      <trkpt lat="47.51346" lon="6.75934">
        <ele>425.7</ele>
        <time>2016-12-28T13:19:50.000Z</time>
      </trkpt>
      <trkpt lat="47.51347" lon="6.75936">
        <ele>425.6</ele>
        <time>2016-12-28T13:19:51.000Z</time>
      </trkpt>
      <trkpt lat="47.5135" lon="6.75939">
        <ele>425.4</ele>
        <time>2016-12-28T13:19:52.000Z</time>
      </trkpt>
      <trkpt lat="47.51352" lon="6.75943">
        <ele>425.3</ele>
        <time>2016-12-28T13:19:53.000Z</time>
      </trkpt>
      <trkpt lat="47.51355" lon="6.75948">
        <ele>425.1</ele>
        <time>2016-12-28T13:19:54.000Z</time>
      </trkpt>
      <trkpt lat="47.51357" lon="6.75952">
        <ele>425</ele>
        <time>2016-12-28T13:19:55.000Z</time>
      </trkpt>
      <trkpt lat="47.51358" lon="6.75956">
        <ele>424.9</ele>
        <time>2016-12-28T13:19:56.000Z</time>
      </trkpt>
      <trkpt lat="47.5136" lon="6.75959">
        <ele>424.8</ele>
        <time>2016-12-28T13:19:57.000Z</time>
      </trkpt>
      <trkpt lat="47.51361" lon="6.75962">
        <ele>424.5</ele>
        <time>2016-12-28T13:19:58.000Z</time>
      </trkpt>
      <trkpt lat="47.51361" lon="6.75966">
        <ele>424.3</ele>
        <time>2016-12-28T13:19:59.000Z</time>
      </trkpt>
      <trkpt lat="47.5136" lon="6.7597">
        <ele>424.1</ele>
        <time>2016-12-28T13:20:00.000Z</time>
      </trkpt>
      <trkpt lat="47.51359" lon="6.75975">
        <ele>423.9</ele>
        <time>2016-12-28T13:20:01.000Z</time>
      </trkpt>
      <trkpt lat="47.51359" lon="6.75979">
        <ele>423.7</ele>
        <time>2016-12-28T13:20:02.000Z</time>
      </trkpt>
      <trkpt lat="47.51359" lon="6.75983">
        <ele>423.5</ele>
        <time>2016-12-28T13:20:03.000Z</time>
      </trkpt>
      <trkpt lat="47.51359" lon="6.75988">
        <ele>423.3</ele>
        <time>2016-12-28T13:20:04.000Z</time>
      </trkpt>
      <trkpt lat="47.5136" lon="6.75993">
        <ele>423</ele>
        <time>2016-12-28T13:20:05.000Z</time>
      </trkpt>
      <trkpt lat="47.51361" lon="6.75997">
        <ele>422.9</ele>
        <time>2016-12-28T13:20:06.000Z</time>
      </trkpt>
      <trkpt lat="47.51362" lon="6.76002">
        <ele>422.8</ele>
        <time>2016-12-28T13:20:07.000Z</time>
      </trkpt>
      <trkpt lat="47.51363" lon="6.76008">
        <ele>422.7</ele>
        <time>2016-12-28T13:20:08.000Z</time>
      </trkpt>
      <trkpt lat="47.51365" lon="6.76012">
        <ele>422.8</ele>
        <time>2016-12-28T13:20:09.000Z</time>
      </trkpt>
      <trkpt lat="47.51365" lon="6.76022">
        <ele>423</ele>
        <time>2016-12-28T13:20:10.000Z</time>
      </trkpt>
      <trkpt lat="47.51365" lon="6.76029">
        <ele>423</ele>
        <time>2016-12-28T13:20:11.000Z</time>
      </trkpt>
      <trkpt lat="47.51366" lon="6.76035">
        <ele>423.1</ele>
        <time>2016-12-28T13:20:12.000Z</time>
      </trkpt>
      <trkpt lat="47.51366" lon="6.7604">
        <ele>423.3</ele>
        <time>2016-12-28T13:20:13.000Z</time>
      </trkpt>
      <trkpt lat="47.51367" lon="6.76046">
        <ele>423.7</ele>
        <time>2016-12-28T13:20:14.000Z</time>
      </trkpt>
      <trkpt lat="47.51367" lon="6.76052">
        <ele>423.8</ele>
        <time>2016-12-28T13:20:15.000Z</time>
      </trkpt>
      <trkpt lat="47.51368" lon="6.76057">
        <ele>423.9</ele>
        <time>2016-12-28T13:20:16.000Z</time>
      </trkpt>
      <trkpt lat="47.51369" lon="6.76063">
        <ele>424.1</ele>
        <time>2016-12-28T13:20:17.000Z</time>
      </trkpt>
      <trkpt lat="47.51371" lon="6.76071">
        <ele>424.3</ele>
        <time>2016-12-28T13:20:18.000Z</time>
      </trkpt>
      <trkpt lat="47.51371" lon="6.76077">
        <ele>424.5</ele>
        <time>2016-12-28T13:20:19.000Z</time>
      </trkpt>
      <trkpt lat="47.51371" lon="6.76083">
        <ele>424.8</ele>
        <time>2016-12-28T13:20:20.000Z</time>
      </trkpt>
      <trkpt lat="47.51371" lon="6.76087">
        <ele>424.9</ele>
        <time>2016-12-28T13:20:21.000Z</time>
      </trkpt>
      <trkpt lat="47.5137" lon="6.76091">
        <ele>425.1</ele>
        <time>2016-12-28T13:20:22.000Z</time>
      </trkpt>
      <trkpt lat="47.51371" lon="6.76097">
        <ele>425.1</ele>
        <time>2016-12-28T13:20:23.000Z</time>
      </trkpt>
      <trkpt lat="47.51372" lon="6.76102">
        <ele>425.2</ele>
        <time>2016-12-28T13:20:24.000Z</time>
      </trkpt>
      <trkpt lat="47.51372" lon="6.76108">
        <ele>425.4</ele>
        <time>2016-12-28T13:20:25.000Z</time>
      </trkpt>
      <trkpt lat="47.51372" lon="6.76111">
        <ele>425.5</ele>
        <time>2016-12-28T13:20:26.000Z</time>
      </trkpt>
      <trkpt lat="47.51372" lon="6.76116">
        <ele>425.8</ele>
        <time>2016-12-28T13:20:28.000Z</time>
      </trkpt>
      <trkpt lat="47.51373" lon="6.76119">
        <ele>426</ele>
        <time>2016-12-28T13:20:29.000Z</time>
      </trkpt>
      <trkpt lat="47.51374" lon="6.76124">
        <ele>426.2</ele>
        <time>2016-12-28T13:20:30.000Z</time>
      </trkpt>
      <trkpt lat="47.51375" lon="6.76129">
        <ele>426.3</ele>
        <time>2016-12-28T13:20:31.000Z</time>
      </trkpt>
      <trkpt lat="47.51375" lon="6.76135">
        <ele>426.7</ele>
        <time>2016-12-28T13:20:33.000Z</time>
      </trkpt>
      <trkpt lat="47.51375" lon="6.7614">
        <ele>426.9</ele>
        <time>2016-12-28T13:20:34.000Z</time>
      </trkpt>
      <trkpt lat="47.51375" lon="6.76148">
        <ele>427.9</ele>
        <time>2016-12-28T13:20:35.000Z</time>
      </trkpt>
      <trkpt lat="47.51376" lon="6.76155">
        <ele>428.1</ele>
        <time>2016-12-28T13:20:36.000Z</time>
      </trkpt>
      <trkpt lat="47.51376" lon="6.76162">
        <ele>428.2</ele>
        <time>2016-12-28T13:20:37.000Z</time>
      </trkpt>
      <trkpt lat="47.51377" lon="6.76168">
        <ele>428.4</ele>
        <time>2016-12-28T13:20:39.000Z</time>
      </trkpt>
      <trkpt lat="47.51378" lon="6.76169">
        <ele>428.6</ele>
        <time>2016-12-28T13:20:40.000Z</time>
      </trkpt>
      <trkpt lat="47.51382" lon="6.76172">
        <ele>429.1</ele>
        <time>2016-12-28T13:20:42.000Z</time>
      </trkpt>
      <trkpt lat="47.51383" lon="6.76176">
        <ele>429.2</ele>
        <time>2016-12-28T13:20:43.000Z</time>
      </trkpt>
      <trkpt lat="47.51385" lon="6.76181">
        <ele>429.3</ele>
        <time>2016-12-28T13:20:44.000Z</time>
      </trkpt>
      <trkpt lat="47.51386" lon="6.76184">
        <ele>429.5</ele>
        <time>2016-12-28T13:20:45.000Z</time>
      </trkpt>
      <trkpt lat="47.51387" lon="6.76189">
        <ele>429.6</ele>
        <time>2016-12-28T13:20:46.000Z</time>
      </trkpt>
      <trkpt lat="47.51387" lon="6.76195">
        <ele>429.7</ele>
        <time>2016-12-28T13:20:47.000Z</time>
      </trkpt>
      <trkpt lat="47.51388" lon="6.762">
        <ele>429.7</ele>
        <time>2016-12-28T13:20:48.000Z</time>
      </trkpt>
      <trkpt lat="47.51389" lon="6.76206">
        <ele>429.9</ele>
        <time>2016-12-28T13:20:49.000Z</time>
      </trkpt>
      <trkpt lat="47.51389" lon="6.76213">
        <ele>429.8</ele>
        <time>2016-12-28T13:20:50.000Z</time>
      </trkpt>
      <trkpt lat="47.5139" lon="6.76218">
        <ele>429.8</ele>
        <time>2016-12-28T13:20:51.000Z</time>
      </trkpt>
      <trkpt lat="47.5139" lon="6.76223">
        <ele>429.7</ele>
        <time>2016-12-28T13:20:52.000Z</time>
      </trkpt>
      <trkpt lat="47.51389" lon="6.76229">
        <ele>429.7</ele>
        <time>2016-12-28T13:20:53.000Z</time>
      </trkpt>
      <trkpt lat="47.51388" lon="6.76235">
        <ele>429.6</ele>
        <time>2016-12-28T13:20:54.000Z</time>
      </trkpt>
      <trkpt lat="47.51388" lon="6.76239">
        <ele>429.5</ele>
        <time>2016-12-28T13:20:55.000Z</time>
      </trkpt>
      <trkpt lat="47.51387" lon="6.76243">
        <ele>429.4</ele>
        <time>2016-12-28T13:20:56.000Z</time>
      </trkpt>
      <trkpt lat="47.51386" lon="6.76248">
        <ele>429.4</ele>
        <time>2016-12-28T13:20:57.000Z</time>
      </trkpt>
      <trkpt lat="47.51386" lon="6.76254">
        <ele>429.4</ele>
        <time>2016-12-28T13:20:59.000Z</time>
      </trkpt>
      <trkpt lat="47.51384" lon="6.7626">
        <ele>429.4</ele>
        <time>2016-12-28T13:21:00.000Z</time>
      </trkpt>
      <trkpt lat="47.51384" lon="6.76265">
        <ele>429.4</ele>
        <time>2016-12-28T13:21:01.000Z</time>
      </trkpt>
      <trkpt lat="47.51384" lon="6.76272">
        <ele>429.3</ele>
        <time>2016-12-28T13:21:02.000Z</time>
      </trkpt>
      <trkpt lat="47.51384" lon="6.7628">
        <ele>429.3</ele>
        <time>2016-12-28T13:21:03.000Z</time>
      </trkpt>
      <trkpt lat="47.51382" lon="6.7629">
        <ele>429.3</ele>
        <time>2016-12-28T13:21:04.000Z</time>
      </trkpt>
      <trkpt lat="47.5138" lon="6.76299">
        <ele>429.2</ele>
        <time>2016-12-28T13:21:05.000Z</time>
      </trkpt>
      <trkpt lat="47.51379" lon="6.76306">
        <ele>429.2</ele>
        <time>2016-12-28T13:21:06.000Z</time>
      </trkpt>
      <trkpt lat="47.51377" lon="6.76311">
        <ele>429.1</ele>
        <time>2016-12-28T13:21:07.000Z</time>
      </trkpt>
      <trkpt lat="47.51377" lon="6.76315">
        <ele>428.9</ele>
        <time>2016-12-28T13:21:08.000Z</time>
      </trkpt>
      <trkpt lat="47.51378" lon="6.76318">
        <ele>428.7</ele>
        <time>2016-12-28T13:21:09.000Z</time>
      </trkpt>
      <trkpt lat="47.51377" lon="6.76323">
        <ele>428.5</ele>
        <time>2016-12-28T13:21:10.000Z</time>
      </trkpt>
      <trkpt lat="47.51376" lon="6.7633">
        <ele>428.3</ele>
        <time>2016-12-28T13:21:11.000Z</time>
      </trkpt>
      <trkpt lat="47.51375" lon="6.76336">
        <ele>428.2</ele>
        <time>2016-12-28T13:21:12.000Z</time>
      </trkpt>
      <trkpt lat="47.51373" lon="6.76344">
        <ele>428.1</ele>
        <time>2016-12-28T13:21:13.000Z</time>
      </trkpt>
      <trkpt lat="47.51369" lon="6.76352">
        <ele>426.8</ele>
        <time>2016-12-28T13:21:14.000Z</time>
      </trkpt>
      <trkpt lat="47.51367" lon="6.76358">
        <ele>426.8</ele>
        <time>2016-12-28T13:21:15.000Z</time>
      </trkpt>
      <trkpt lat="47.51364" lon="6.76364">
        <ele>426.8</ele>
        <time>2016-12-28T13:21:16.000Z</time>
      </trkpt>
      <trkpt lat="47.51362" lon="6.76368">
        <ele>426.7</ele>
        <time>2016-12-28T13:21:17.000Z</time>
      </trkpt>
      <trkpt lat="47.51359" lon="6.7637">
        <ele>426.6</ele>
        <time>2016-12-28T13:21:18.000Z</time>
      </trkpt>
      <trkpt lat="47.51356" lon="6.76375">
        <ele>426.3</ele>
        <time>2016-12-28T13:21:20.000Z</time>
      </trkpt>
      <trkpt lat="47.51357" lon="6.76378">
        <ele>426.1</ele>
        <time>2016-12-28T13:21:21.000Z</time>
      </trkpt>
      <trkpt lat="47.51356" lon="6.76382">
        <ele>425.9</ele>
        <time>2016-12-28T13:21:22.000Z</time>
      </trkpt>
      <trkpt lat="47.51355" lon="6.76387">
        <ele>425.7</ele>
        <time>2016-12-28T13:21:23.000Z</time>
      </trkpt>
      <trkpt lat="47.51355" lon="6.76392">
        <ele>425.2</ele>
        <time>2016-12-28T13:21:25.000Z</time>
      </trkpt>
      <trkpt lat="47.51353" lon="6.76394">
        <ele>424.9</ele>
        <time>2016-12-28T13:21:26.000Z</time>
      </trkpt>
      <trkpt lat="47.5135" lon="6.76398">
        <ele>423.6</ele>
        <time>2016-12-28T13:21:31.000Z</time>
      </trkpt>
      <trkpt lat="47.51348" lon="6.76399">
        <ele>423.3</ele>
        <time>2016-12-28T13:21:32.000Z</time>
      </trkpt>
      <trkpt lat="47.51347" lon="6.76405">
        <ele>421.7</ele>
        <time>2016-12-28T13:21:36.000Z</time>
      </trkpt>
      <trkpt lat="47.51348" lon="6.76406">
        <ele>421.3</ele>
        <time>2016-12-28T13:21:37.000Z</time>
      </trkpt>
      <trkpt lat="47.5135" lon="6.76409">
        <ele>420.5</ele>
        <time>2016-12-28T13:21:39.000Z</time>
      </trkpt>
      <trkpt lat="47.51351" lon="6.76412">
        <ele>420.1</ele>
        <time>2016-12-28T13:21:40.000Z</time>
      </trkpt>
      <trkpt lat="47.51352" lon="6.76414">
        <ele>419.7</ele>
        <time>2016-12-28T13:21:41.000Z</time>
      </trkpt>
      <trkpt lat="47.51353" lon="6.76418">
        <ele>419.3</ele>
        <time>2016-12-28T13:21:42.000Z</time>
      </trkpt>
      <trkpt lat="47.51354" lon="6.76422">
        <ele>419</ele>
        <time>2016-12-28T13:21:43.000Z</time>
      </trkpt>
      <trkpt lat="47.51355" lon="6.76426">
        <ele>418.6</ele>
        <time>2016-12-28T13:21:44.000Z</time>
      </trkpt>
      <trkpt lat="47.51356" lon="6.76429">
        <ele>418.3</ele>
        <time>2016-12-28T13:21:45.000Z</time>
      </trkpt>
      <trkpt lat="47.51357" lon="6.76432">
        <ele>418</ele>
        <time>2016-12-28T13:21:46.000Z</time>
      </trkpt>
      <trkpt lat="47.5136" lon="6.76434">
        <ele>417</ele>
        <time>2016-12-28T13:21:50.000Z</time>
      </trkpt>
      <trkpt lat="47.51361" lon="6.76436">
        <ele>416.8</ele>
        <time>2016-12-28T13:21:51.000Z</time>
      </trkpt>
      <trkpt lat="47.51362" lon="6.76438">
        <ele>416.4</ele>
        <time>2016-12-28T13:21:52.000Z</time>
      </trkpt>
      <trkpt lat="47.51365" lon="6.76439">
        <ele>416.1</ele>
        <time>2016-12-28T13:21:53.000Z</time>
      </trkpt>
      <trkpt lat="47.51367" lon="6.76441">
        <ele>415.9</ele>
        <time>2016-12-28T13:21:54.000Z</time>
      </trkpt>
      <trkpt lat="47.51369" lon="6.76442">
        <ele>415.7</ele>
        <time>2016-12-28T13:21:55.000Z</time>
      </trkpt>
      <trkpt lat="47.51373" lon="6.76442">
        <ele>415.3</ele>
        <time>2016-12-28T13:21:57.000Z</time>
      </trkpt>
      <trkpt lat="47.51374" lon="6.76442">
        <ele>415.1</ele>
        <time>2016-12-28T13:21:58.000Z</time>
      </trkpt>
      <trkpt lat="47.51376" lon="6.76441">
        <ele>414.8</ele>
        <time>2016-12-28T13:21:59.000Z</time>
      </trkpt>
      <trkpt lat="47.5138" lon="6.76438">
        <ele>414.5</ele>
        <time>2016-12-28T13:22:00.000Z</time>
      </trkpt>
      <trkpt lat="47.51385" lon="6.76436">
        <ele>414.2</ele>
        <time>2016-12-28T13:22:01.000Z</time>
      </trkpt>
      <trkpt lat="47.51387" lon="6.76434">
        <ele>413.8</ele>
        <time>2016-12-28T13:22:03.000Z</time>
      </trkpt>
      <trkpt lat="47.5139" lon="6.76431">
        <ele>413.6</ele>
        <time>2016-12-28T13:22:04.000Z</time>
      </trkpt>
      <trkpt lat="47.51394" lon="6.76427">
        <ele>413.3</ele>
        <time>2016-12-28T13:22:05.000Z</time>
      </trkpt>
      <trkpt lat="47.51396" lon="6.76424">
        <ele>412.8</ele>
        <time>2016-12-28T13:22:07.000Z</time>
      </trkpt>
      <trkpt lat="47.51397" lon="6.76422">
        <ele>412.5</ele>
        <time>2016-12-28T13:22:08.000Z</time>
      </trkpt>
      <trkpt lat="47.51399" lon="6.76421">
        <ele>412.2</ele>
        <time>2016-12-28T13:22:09.000Z</time>
      </trkpt>
      <trkpt lat="47.51402" lon="6.76419">
        <ele>412</ele>
        <time>2016-12-28T13:22:10.000Z</time>
      </trkpt>
      <trkpt lat="47.51405" lon="6.76417">
        <ele>411.6</ele>
        <time>2016-12-28T13:22:12.000Z</time>
      </trkpt>
      <trkpt lat="47.51407" lon="6.76416">
        <ele>411.3</ele>
        <time>2016-12-28T13:22:13.000Z</time>
      </trkpt>
      <trkpt lat="47.5141" lon="6.76415">
        <ele>409.4</ele>
        <time>2016-12-28T13:22:19.000Z</time>
      </trkpt>
      <trkpt lat="47.51411" lon="6.76415">
        <ele>409.1</ele>
        <time>2016-12-28T13:22:20.000Z</time>
      </trkpt>
      <trkpt lat="47.51415" lon="6.76416">
        <ele>408.2</ele>
        <time>2016-12-28T13:22:24.000Z</time>
      </trkpt>
      <trkpt lat="47.51417" lon="6.76414">
        <ele>408</ele>
        <time>2016-12-28T13:22:25.000Z</time>
      </trkpt>
      <trkpt lat="47.5142" lon="6.76412">
        <ele>407.7</ele>
        <time>2016-12-28T13:22:26.000Z</time>
      </trkpt>
      <trkpt lat="47.51421" lon="6.76411">
        <ele>407.4</ele>
        <time>2016-12-28T13:22:27.000Z</time>
      </trkpt>
      <trkpt lat="47.51425" lon="6.7641">
        <ele>406.4</ele>
        <time>2016-12-28T13:22:33.000Z</time>
      </trkpt>
      <trkpt lat="47.51428" lon="6.7641">
        <ele>406.5</ele>
        <time>2016-12-28T13:22:34.000Z</time>
      </trkpt>
      <trkpt lat="47.51431" lon="6.76409">
        <ele>406.6</ele>
        <time>2016-12-28T13:22:35.000Z</time>
      </trkpt>
      <trkpt lat="47.51434" lon="6.76408">
        <ele>406.7</ele>
        <time>2016-12-28T13:22:36.000Z</time>
      </trkpt>
      <trkpt lat="47.51437" lon="6.76407">
        <ele>406.6</ele>
        <time>2016-12-28T13:22:37.000Z</time>
      </trkpt>
      <trkpt lat="47.5144" lon="6.76406">
        <ele>406.7</ele>
        <time>2016-12-28T13:22:38.000Z</time>
      </trkpt>
      <trkpt lat="47.51443" lon="6.76407">
        <ele>406.8</ele>
        <time>2016-12-28T13:22:39.000Z</time>
      </trkpt>
      <trkpt lat="47.51446" lon="6.76406">
        <ele>406.8</ele>
        <time>2016-12-28T13:22:40.000Z</time>
      </trkpt>
      <trkpt lat="47.51448" lon="6.76406">
        <ele>406.8</ele>
        <time>2016-12-28T13:22:41.000Z</time>
      </trkpt>
      <trkpt lat="47.5145" lon="6.76406">
        <ele>406.8</ele>
        <time>2016-12-28T13:22:42.000Z</time>
      </trkpt>
      <trkpt lat="47.51454" lon="6.76405">
        <ele>406.7</ele>
        <time>2016-12-28T13:22:44.000Z</time>
      </trkpt>
      <trkpt lat="47.51455" lon="6.76404">
        <ele>406.6</ele>
        <time>2016-12-28T13:22:45.000Z</time>
      </trkpt>
      <trkpt lat="47.51458" lon="6.76401">
        <ele>406.3</ele>
        <time>2016-12-28T13:22:47.000Z</time>
      </trkpt>
      <trkpt lat="47.5146" lon="6.764">
        <ele>406.3</ele>
        <time>2016-12-28T13:22:48.000Z</time>
      </trkpt>
      <trkpt lat="47.51463" lon="6.76398">
        <ele>406.2</ele>
        <time>2016-12-28T13:22:49.000Z</time>
      </trkpt>
      <trkpt lat="47.51465" lon="6.76396">
        <ele>406.2</ele>
        <time>2016-12-28T13:22:50.000Z</time>
      </trkpt>
      <trkpt lat="47.51468" lon="6.76395">
        <ele>406.2</ele>
        <time>2016-12-28T13:22:52.000Z</time>
      </trkpt>
      <trkpt lat="47.5147" lon="6.76394">
        <ele>406.2</ele>
        <time>2016-12-28T13:22:53.000Z</time>
      </trkpt>
      <trkpt lat="47.51473" lon="6.76391">
        <ele>406.1</ele>
        <time>2016-12-28T13:22:56.000Z</time>
      </trkpt>
      <trkpt lat="47.51475" lon="6.76389">
        <ele>406</ele>
        <time>2016-12-28T13:22:57.000Z</time>
      </trkpt>
      <trkpt lat="47.51479" lon="6.76389">
        <ele>405.7</ele>
        <time>2016-12-28T13:23:00.000Z</time>
      </trkpt>
      <trkpt lat="47.5148" lon="6.7639">
        <ele>405.5</ele>
        <time>2016-12-28T13:23:01.000Z</time>
      </trkpt>
      <trkpt lat="47.51484" lon="6.7639">
        <ele>404.4</ele>
        <time>2016-12-28T13:23:06.000Z</time>
      </trkpt>
      <trkpt lat="47.51485" lon="6.7639">
        <ele>404</ele>
        <time>2016-12-28T13:23:07.000Z</time>
      </trkpt>
      <trkpt lat="47.51489" lon="6.76392">
        <ele>402.7</ele>
        <time>2016-12-28T13:23:11.000Z</time>
      </trkpt>
      <trkpt lat="47.5149" lon="6.76393">
        <ele>402.3</ele>
        <time>2016-12-28T13:23:12.000Z</time>
      </trkpt>
      <trkpt lat="47.51494" lon="6.76395">
        <ele>401.6</ele>
        <time>2016-12-28T13:23:15.000Z</time>
      </trkpt>
      <trkpt lat="47.51497" lon="6.76396">
        <ele>401.4</ele>
        <time>2016-12-28T13:23:16.000Z</time>
      </trkpt>
      <trkpt lat="47.515" lon="6.76395">
        <ele>401.3</ele>
        <time>2016-12-28T13:23:17.000Z</time>
      </trkpt>
      <trkpt lat="47.51503" lon="6.76394">
        <ele>401.2</ele>
        <time>2016-12-28T13:23:18.000Z</time>
      </trkpt>
      <trkpt lat="47.51505" lon="6.76393">
        <ele>401.2</ele>
        <time>2016-12-28T13:23:19.000Z</time>
      </trkpt>
      <trkpt lat="47.51509" lon="6.76392">
        <ele>401.1</ele>
        <time>2016-12-28T13:23:20.000Z</time>
      </trkpt>
      <trkpt lat="47.51512" lon="6.76392">
        <ele>401.1</ele>
        <time>2016-12-28T13:23:21.000Z</time>
      </trkpt>
      <trkpt lat="47.51516" lon="6.76392">
        <ele>401.2</ele>
        <time>2016-12-28T13:23:22.000Z</time>
      </trkpt>
      <trkpt lat="47.5152" lon="6.76391">
        <ele>401.5</ele>
        <time>2016-12-28T13:23:23.000Z</time>
      </trkpt>
      <trkpt lat="47.51526" lon="6.76386">
        <ele>401.7</ele>
        <time>2016-12-28T13:23:24.000Z</time>
      </trkpt>
      <trkpt lat="47.51529" lon="6.76385">
        <ele>402</ele>
        <time>2016-12-28T13:23:25.000Z</time>
      </trkpt>
      <trkpt lat="47.51531" lon="6.76384">
        <ele>402.2</ele>
        <time>2016-12-28T13:23:26.000Z</time>
      </trkpt>
      <trkpt lat="47.51533" lon="6.76382">
        <ele>402.4</ele>
        <time>2016-12-28T13:23:27.000Z</time>
      </trkpt>
      <trkpt lat="47.51535" lon="6.76379">
        <ele>402.6</ele>
        <time>2016-12-28T13:23:28.000Z</time>
      </trkpt>
      <trkpt lat="47.51537" lon="6.76374">
        <ele>403</ele>
        <time>2016-12-28T13:23:30.000Z</time>
      </trkpt>
      <trkpt lat="47.51539" lon="6.76372">
        <ele>403.2</ele>
        <time>2016-12-28T13:23:31.000Z</time>
      </trkpt>
      <trkpt lat="47.51542" lon="6.76369">
        <ele>403.8</ele>
        <time>2016-12-28T13:23:34.000Z</time>
      </trkpt>
      <trkpt lat="47.51544" lon="6.76366">
        <ele>403.9</ele>
        <time>2016-12-28T13:23:35.000Z</time>
      </trkpt>
      <trkpt lat="47.51546" lon="6.76362">
        <ele>404.1</ele>
        <time>2016-12-28T13:23:37.000Z</time>
      </trkpt>
      <trkpt lat="47.51547" lon="6.76361">
        <ele>404.2</ele>
        <time>2016-12-28T13:23:38.000Z</time>
      </trkpt>
      <trkpt lat="47.5155" lon="6.76358">
        <ele>404.8</ele>
        <time>2016-12-28T13:23:43.000Z</time>
      </trkpt>
      <trkpt lat="47.51552" lon="6.76357">
        <ele>405</ele>
        <time>2016-12-28T13:23:44.000Z</time>
      </trkpt>
      <trkpt lat="47.51555" lon="6.76356">
        <ele>405.6</ele>
        <time>2016-12-28T13:23:46.000Z</time>
      </trkpt>
      <trkpt lat="47.51556" lon="6.76355">
        <ele>405.8</ele>
        <time>2016-12-28T13:23:47.000Z</time>
      </trkpt>
      <trkpt lat="47.5156" lon="6.76356">
        <ele>406</ele>
        <time>2016-12-28T13:23:49.000Z</time>
      </trkpt>
      <trkpt lat="47.51561" lon="6.76355">
        <ele>406.1</ele>
        <time>2016-12-28T13:23:50.000Z</time>
      </trkpt>
      <trkpt lat="47.51565" lon="6.76355">
        <ele>406</ele>
        <time>2016-12-28T13:23:52.000Z</time>
      </trkpt>
      <trkpt lat="47.51566" lon="6.76355">
        <ele>406.1</ele>
        <time>2016-12-28T13:23:53.000Z</time>
      </trkpt>
      <trkpt lat="47.5157" lon="6.76354">
        <ele>406</ele>
        <time>2016-12-28T13:23:56.000Z</time>
      </trkpt>
      <trkpt lat="47.51571" lon="6.76354">
        <ele>406</ele>
        <time>2016-12-28T13:23:57.000Z</time>
      </trkpt>
      <trkpt lat="47.51575" lon="6.76354">
        <ele>405.8</ele>
        <time>2016-12-28T13:24:00.000Z</time>
      </trkpt>
      <trkpt lat="47.51577" lon="6.76354">
        <ele>405.6</ele>
        <time>2016-12-28T13:24:01.000Z</time>
      </trkpt>
      <trkpt lat="47.51581" lon="6.76353">
        <ele>405</ele>
        <time>2016-12-28T13:24:04.000Z</time>
      </trkpt>
      <trkpt lat="47.51582" lon="6.76353">
        <ele>404.7</ele>
        <time>2016-12-28T13:24:05.000Z</time>
      </trkpt>
      <trkpt lat="47.51586" lon="6.76349">
        <ele>403.4</ele>
        <time>2016-12-28T13:24:09.000Z</time>
      </trkpt>
      <trkpt lat="47.51587" lon="6.76349">
        <ele>403.2</ele>
        <time>2016-12-28T13:24:10.000Z</time>
      </trkpt>
      <trkpt lat="47.51589" lon="6.76347">
        <ele>401.9</ele>
        <time>2016-12-28T13:24:14.000Z</time>
      </trkpt>
      <trkpt lat="47.51591" lon="6.76346">
        <ele>401.8</ele>
        <time>2016-12-28T13:24:15.000Z</time>
      </trkpt>
      <trkpt lat="47.51595" lon="6.76346">
        <ele>403</ele>
        <time>2016-12-28T13:24:21.000Z</time>
      </trkpt>
      <trkpt lat="47.51598" lon="6.76347">
        <ele>403.3</ele>
        <time>2016-12-28T13:24:22.000Z</time>
      </trkpt>
      <trkpt lat="47.51601" lon="6.76347">
        <ele>403.5</ele>
        <time>2016-12-28T13:24:23.000Z</time>
      </trkpt>
      <trkpt lat="47.51604" lon="6.76348">
        <ele>403.8</ele>
        <time>2016-12-28T13:24:24.000Z</time>
      </trkpt>
      <trkpt lat="47.51607" lon="6.76349">
        <ele>404</ele>
        <time>2016-12-28T13:24:25.000Z</time>
      </trkpt>
      <trkpt lat="47.5161" lon="6.76349">
        <ele>404.2</ele>
        <time>2016-12-28T13:24:26.000Z</time>
      </trkpt>
      <trkpt lat="47.51615" lon="6.7635">
        <ele>405.6</ele>
        <time>2016-12-28T13:24:31.000Z</time>
      </trkpt>
      <trkpt lat="47.51617" lon="6.7635">
        <ele>405.8</ele>
        <time>2016-12-28T13:24:32.000Z</time>
      </trkpt>
      <trkpt lat="47.51621" lon="6.76348">
        <ele>406.5</ele>
        <time>2016-12-28T13:24:34.000Z</time>
      </trkpt>
      <trkpt lat="47.51623" lon="6.76347">
        <ele>406.8</ele>
        <time>2016-12-28T13:24:35.000Z</time>
      </trkpt>
      <trkpt lat="47.51626" lon="6.76345">
        <ele>407.5</ele>
        <time>2016-12-28T13:24:37.000Z</time>
      </trkpt>
      <trkpt lat="47.51631" lon="6.76344">
        <ele>407.8</ele>
        <time>2016-12-28T13:24:38.000Z</time>
      </trkpt>
      <trkpt lat="47.51635" lon="6.76344">
        <ele>408.5</ele>
        <time>2016-12-28T13:24:40.000Z</time>
      </trkpt>
      <trkpt lat="47.51636" lon="6.76344">
        <ele>408.8</ele>
        <time>2016-12-28T13:24:41.000Z</time>
      </trkpt>
      <trkpt lat="47.51639" lon="6.76345">
        <ele>409.9</ele>
        <time>2016-12-28T13:24:44.000Z</time>
      </trkpt>
      <trkpt lat="47.51641" lon="6.76345">
        <ele>410.3</ele>
        <time>2016-12-28T13:24:45.000Z</time>
      </trkpt>
      <trkpt lat="47.51644" lon="6.76344">
        <ele>410.6</ele>
        <time>2016-12-28T13:24:46.000Z</time>
      </trkpt>
      <trkpt lat="47.51646" lon="6.76345">
        <ele>410.9</ele>
        <time>2016-12-28T13:24:47.000Z</time>
      </trkpt>
      <trkpt lat="47.5165" lon="6.76342">
        <ele>412.3</ele>
        <time>2016-12-28T13:24:52.000Z</time>
      </trkpt>
      <trkpt lat="47.51651" lon="6.76342">
        <ele>412.5</ele>
        <time>2016-12-28T13:24:53.000Z</time>
      </trkpt>
      <trkpt lat="47.51655" lon="6.76339">
        <ele>412.9</ele>
        <time>2016-12-28T13:24:55.000Z</time>
      </trkpt>
      <trkpt lat="47.51656" lon="6.76339">
        <ele>413.1</ele>
        <time>2016-12-28T13:24:56.000Z</time>
      </trkpt>
      <trkpt lat="47.51658" lon="6.76339">
        <ele>413.4</ele>
        <time>2016-12-28T13:24:57.000Z</time>
      </trkpt>
      <trkpt lat="47.51661" lon="6.76338">
        <ele>413.6</ele>
        <time>2016-12-28T13:24:58.000Z</time>
      </trkpt>
      <trkpt lat="47.51664" lon="6.76337">
        <ele>413.8</ele>
        <time>2016-12-28T13:24:59.000Z</time>
      </trkpt>
      <trkpt lat="47.51666" lon="6.76336">
        <ele>414</ele>
        <time>2016-12-28T13:25:00.000Z</time>
      </trkpt>
      <trkpt lat="47.5167" lon="6.76333">
        <ele>414.7</ele>
        <time>2016-12-28T13:25:02.000Z</time>
      </trkpt>
      <trkpt lat="47.5167" lon="6.76332">
        <ele>415</ele>
        <time>2016-12-28T13:25:03.000Z</time>
      </trkpt>
      <trkpt lat="47.51674" lon="6.76331">
        <ele>416.2</ele>
        <time>2016-12-28T13:25:07.000Z</time>
      </trkpt>
      <trkpt lat="47.51676" lon="6.7633">
        <ele>416.4</ele>
        <time>2016-12-28T13:25:08.000Z</time>
      </trkpt>
      <trkpt lat="47.5168" lon="6.76327">
        <ele>416.9</ele>
        <time>2016-12-28T13:25:11.000Z</time>
      </trkpt>
      <trkpt lat="47.51682" lon="6.76327">
        <ele>417.1</ele>
        <time>2016-12-28T13:25:12.000Z</time>
      </trkpt>
      <trkpt lat="47.51686" lon="6.76327">
        <ele>417.6</ele>
        <time>2016-12-28T13:25:15.000Z</time>
      </trkpt>
      <trkpt lat="47.51688" lon="6.76327">
        <ele>417.8</ele>
        <time>2016-12-28T13:25:16.000Z</time>
      </trkpt>
      <trkpt lat="47.51691" lon="6.76326">
        <ele>418.1</ele>
        <time>2016-12-28T13:25:18.000Z</time>
      </trkpt>
      <trkpt lat="47.51693" lon="6.76325">
        <ele>418.2</ele>
        <time>2016-12-28T13:25:19.000Z</time>
      </trkpt>
      <trkpt lat="47.51696" lon="6.76325">
        <ele>418.4</ele>
        <time>2016-12-28T13:25:21.000Z</time>
      </trkpt>
      <trkpt lat="47.51698" lon="6.76323">
        <ele>418.6</ele>
        <time>2016-12-28T13:25:22.000Z</time>
      </trkpt>
      <trkpt lat="47.51702" lon="6.7632">
        <ele>419.5</ele>
        <time>2016-12-28T13:25:26.000Z</time>
      </trkpt>
      <trkpt lat="47.51704" lon="6.76319">
        <ele>419.8</ele>
        <time>2016-12-28T13:25:27.000Z</time>
      </trkpt>
      <trkpt lat="47.51706" lon="6.76319">
        <ele>420</ele>
        <time>2016-12-28T13:25:28.000Z</time>
      </trkpt>
      <trkpt lat="47.51709" lon="6.76319">
        <ele>420.2</ele>
        <time>2016-12-28T13:25:29.000Z</time>
      </trkpt>
      <trkpt lat="47.51713" lon="6.76319">
        <ele>420.7</ele>
        <time>2016-12-28T13:25:31.000Z</time>
      </trkpt>
      <trkpt lat="47.51715" lon="6.76318">
        <ele>420.9</ele>
        <time>2016-12-28T13:25:32.000Z</time>
      </trkpt>
      <trkpt lat="47.51719" lon="6.76316">
        <ele>421.9</ele>
        <time>2016-12-28T13:25:36.000Z</time>
      </trkpt>
      <trkpt lat="47.5172" lon="6.76315">
        <ele>422.2</ele>
        <time>2016-12-28T13:25:37.000Z</time>
      </trkpt>
      <trkpt lat="47.51723" lon="6.76312">
        <ele>423.1</ele>
        <time>2016-12-28T13:25:40.000Z</time>
      </trkpt>
      <trkpt lat="47.51724" lon="6.76311">
        <ele>423.3</ele>
        <time>2016-12-28T13:25:41.000Z</time>
      </trkpt>
      <trkpt lat="47.51726" lon="6.7631">
        <ele>423.5</ele>
        <time>2016-12-28T13:25:42.000Z</time>
      </trkpt>
      <trkpt lat="47.51729" lon="6.76309">
        <ele>423.7</ele>
        <time>2016-12-28T13:25:43.000Z</time>
      </trkpt>
      <trkpt lat="47.51729" lon="6.76306">
        <ele>424.5</ele>
        <time>2016-12-28T13:25:48.000Z</time>
      </trkpt>
      <trkpt lat="47.51726" lon="6.76302">
        <ele>424.5</ele>
        <time>2016-12-28T13:25:49.000Z</time>
      </trkpt>
      <trkpt lat="47.51723" lon="6.76297">
        <ele>424.7</ele>
        <time>2016-12-28T13:25:52.000Z</time>
      </trkpt>
      <trkpt lat="47.51723" lon="6.76293">
        <ele>424.8</ele>
        <time>2016-12-28T13:25:53.000Z</time>
      </trkpt>
      <trkpt lat="47.51726" lon="6.76289">
        <ele>425</ele>
        <time>2016-12-28T13:25:56.000Z</time>
      </trkpt>
      <trkpt lat="47.51727" lon="6.76288">
        <ele>425.1</ele>
        <time>2016-12-28T13:25:57.000Z</time>
      </trkpt>
      <trkpt lat="47.51731" lon="6.76285">
        <ele>425.5</ele>
        <time>2016-12-28T13:26:00.000Z</time>
      </trkpt>
      <trkpt lat="47.51733" lon="6.76284">
        <ele>425.6</ele>
        <time>2016-12-28T13:26:01.000Z</time>
      </trkpt>
      <trkpt lat="47.51738" lon="6.76284">
        <ele>425.7</ele>
        <time>2016-12-28T13:26:03.000Z</time>
      </trkpt>
      <trkpt lat="47.5174" lon="6.76284">
        <ele>425.9</ele>
        <time>2016-12-28T13:26:04.000Z</time>
      </trkpt>
      <trkpt lat="47.51743" lon="6.76284">
        <ele>426.1</ele>
        <time>2016-12-28T13:26:05.000Z</time>
      </trkpt>
      <trkpt lat="47.51745" lon="6.76284">
        <ele>426.3</ele>
        <time>2016-12-28T13:26:06.000Z</time>
      </trkpt>
      <trkpt lat="47.51749" lon="6.76284">
        <ele>426.5</ele>
        <time>2016-12-28T13:26:08.000Z</time>
      </trkpt>
      <trkpt lat="47.51751" lon="6.76284">
        <ele>426.8</ele>
        <time>2016-12-28T13:26:09.000Z</time>
      </trkpt>
      <trkpt lat="47.51755" lon="6.76285">
        <ele>427.6</ele>
        <time>2016-12-28T13:26:15.000Z</time>
      </trkpt>
      <trkpt lat="47.51757" lon="6.76286">
        <ele>427.7</ele>
        <time>2016-12-28T13:26:16.000Z</time>
      </trkpt>
      <trkpt lat="47.5176" lon="6.76289">
        <ele>428</ele>
        <time>2016-12-28T13:26:19.000Z</time>
      </trkpt>
      <trkpt lat="47.51762" lon="6.7629">
        <ele>428</ele>
        <time>2016-12-28T13:26:20.000Z</time>
      </trkpt>
      <trkpt lat="47.51766" lon="6.76292">
        <ele>428</ele>
        <time>2016-12-28T13:26:22.000Z</time>
      </trkpt>
      <trkpt lat="47.51768" lon="6.76292">
        <ele>428</ele>
        <time>2016-12-28T13:26:23.000Z</time>
      </trkpt>
      <trkpt lat="47.51771" lon="6.76295">
        <ele>428</ele>
        <time>2016-12-28T13:26:26.000Z</time>
      </trkpt>
      <trkpt lat="47.51772" lon="6.76295">
        <ele>428</ele>
        <time>2016-12-28T13:26:27.000Z</time>
      </trkpt>
      <trkpt lat="47.51776" lon="6.76294">
        <ele>428.2</ele>
        <time>2016-12-28T13:26:29.000Z</time>
      </trkpt>
      <trkpt lat="47.51777" lon="6.76293">
        <ele>428.2</ele>
        <time>2016-12-28T13:26:30.000Z</time>
      </trkpt>
      <trkpt lat="47.51781" lon="6.76291">
        <ele>428</ele>
        <time>2016-12-28T13:26:33.000Z</time>
      </trkpt>
      <trkpt lat="47.51782" lon="6.76291">
        <ele>427.9</ele>
        <time>2016-12-28T13:26:34.000Z</time>
      </trkpt>
      <trkpt lat="47.51785" lon="6.76295">
        <ele>428.4</ele>
        <time>2016-12-28T13:26:38.000Z</time>
      </trkpt>
      <trkpt lat="47.51786" lon="6.76297">
        <ele>428.5</ele>
        <time>2016-12-28T13:26:39.000Z</time>
      </trkpt>
      <trkpt lat="47.51785" lon="6.76302">
        <ele>429</ele>
        <time>2016-12-28T13:26:43.000Z</time>
      </trkpt>
      <trkpt lat="47.51784" lon="6.76306">
        <ele>429.1</ele>
        <time>2016-12-28T13:26:44.000Z</time>
      </trkpt>
      <trkpt lat="47.51783" lon="6.7631">
        <ele>429.2</ele>
        <time>2016-12-28T13:26:45.000Z</time>
      </trkpt>
      <trkpt lat="47.51782" lon="6.76314">
        <ele>429.4</ele>
        <time>2016-12-28T13:26:46.000Z</time>
      </trkpt>
      <trkpt lat="47.51781" lon="6.76317">
        <ele>429.5</ele>
        <time>2016-12-28T13:26:47.000Z</time>
      </trkpt>
      <trkpt lat="47.5178" lon="6.7632">
        <ele>429.7</ele>
        <time>2016-12-28T13:26:48.000Z</time>
      </trkpt>
      <trkpt lat="47.51779" lon="6.76325">
        <ele>430.1</ele>
        <time>2016-12-28T13:26:50.000Z</time>
      </trkpt>
      <trkpt lat="47.51778" lon="6.76328">
        <ele>430.3</ele>
        <time>2016-12-28T13:26:51.000Z</time>
      </trkpt>
      <trkpt lat="47.51779" lon="6.76333">
        <ele>430.6</ele>
        <time>2016-12-28T13:26:53.000Z</time>
      </trkpt>
      <trkpt lat="47.51781" lon="6.76336">
        <ele>430.7</ele>
        <time>2016-12-28T13:26:54.000Z</time>
      </trkpt>
      <trkpt lat="47.51783" lon="6.7634">
        <ele>430.8</ele>
        <time>2016-12-28T13:26:55.000Z</time>
      </trkpt>
      <trkpt lat="47.51785" lon="6.76343">
        <ele>430.7</ele>
        <time>2016-12-28T13:26:56.000Z</time>
      </trkpt>
      <trkpt lat="47.51787" lon="6.76344">
        <ele>430.7</ele>
        <time>2016-12-28T13:26:57.000Z</time>
      </trkpt>
      <trkpt lat="47.51789" lon="6.76346">
        <ele>430.6</ele>
        <time>2016-12-28T13:26:58.000Z</time>
      </trkpt>
      <trkpt lat="47.51792" lon="6.76348">
        <ele>430.5</ele>
        <time>2016-12-28T13:26:59.000Z</time>
      </trkpt>
      <trkpt lat="47.51794" lon="6.76349">
        <ele>430.5</ele>
        <time>2016-12-28T13:27:00.000Z</time>
      </trkpt>
      <trkpt lat="47.51797" lon="6.76351">
        <ele>430.3</ele>
        <time>2016-12-28T13:27:01.000Z</time>
      </trkpt>
      <trkpt lat="47.51799" lon="6.76353">
        <ele>430.2</ele>
        <time>2016-12-28T13:27:02.000Z</time>
      </trkpt>
      <trkpt lat="47.51801" lon="6.76356">
        <ele>430.1</ele>
        <time>2016-12-28T13:27:03.000Z</time>
      </trkpt>
      <trkpt lat="47.51802" lon="6.76357">
        <ele>429.9</ele>
        <time>2016-12-28T13:27:04.000Z</time>
      </trkpt>
      <trkpt lat="47.51806" lon="6.76358">
        <ele>429.6</ele>
        <time>2016-12-28T13:27:06.000Z</time>
      </trkpt>
      <trkpt lat="47.51807" lon="6.76359">
        <ele>429.5</ele>
        <time>2016-12-28T13:27:07.000Z</time>
      </trkpt>
      <trkpt lat="47.51811" lon="6.76359">
        <ele>428.7</ele>
        <time>2016-12-28T13:27:08.999Z</time>
      </trkpt>
      <trkpt lat="47.51813" lon="6.76361">
        <ele>428.4</ele>
        <time>2016-12-28T13:27:09.999Z</time>
      </trkpt>
      <trkpt lat="47.51817" lon="6.76364">
        <ele>427.8</ele>
        <time>2016-12-28T13:27:11.999Z</time>
      </trkpt>
      <trkpt lat="47.5182" lon="6.76366">
        <ele>427.4</ele>
        <time>2016-12-28T13:27:12.999Z</time>
      </trkpt>
      <trkpt lat="47.51823" lon="6.76368">
        <ele>427.2</ele>
        <time>2016-12-28T13:27:13.999Z</time>
      </trkpt>
      <trkpt lat="47.51826" lon="6.76369">
        <ele>426.9</ele>
        <time>2016-12-28T13:27:14.999Z</time>
      </trkpt>
      <trkpt lat="47.51828" lon="6.76369">
        <ele>426.6</ele>
        <time>2016-12-28T13:27:15.999Z</time>
      </trkpt>
      <trkpt lat="47.5183" lon="6.76369">
        <ele>426.2</ele>
        <time>2016-12-28T13:27:16.999Z</time>
      </trkpt>
      <trkpt lat="47.51833" lon="6.76369">
        <ele>425.9</ele>
        <time>2016-12-28T13:27:17.999Z</time>
      </trkpt>
      <trkpt lat="47.51835" lon="6.76368">
        <ele>425.7</ele>
        <time>2016-12-28T13:27:18.999Z</time>
      </trkpt>
      <trkpt lat="47.51838" lon="6.76367">
        <ele>425.4</ele>
        <time>2016-12-28T13:27:19.999Z</time>
      </trkpt>
      <trkpt lat="47.51841" lon="6.76365">
        <ele>425.2</ele>
        <time>2016-12-28T13:27:20.999Z</time>
      </trkpt>
      <trkpt lat="47.51843" lon="6.76364">
        <ele>425.1</ele>
        <time>2016-12-28T13:27:21.999Z</time>
      </trkpt>
      <trkpt lat="47.51846" lon="6.76363">
        <ele>425</ele>
        <time>2016-12-28T13:27:22.999Z</time>
      </trkpt>
      <trkpt lat="47.51849" lon="6.76363">
        <ele>424.9</ele>
        <time>2016-12-28T13:27:23.999Z</time>
      </trkpt>
      <trkpt lat="47.51852" lon="6.76363">
        <ele>424.7</ele>
        <time>2016-12-28T13:27:24.999Z</time>
      </trkpt>
      <trkpt lat="47.51855" lon="6.76363">
        <ele>424.5</ele>
        <time>2016-12-28T13:27:25.999Z</time>
      </trkpt>
      <trkpt lat="47.51858" lon="6.76363">
        <ele>424.3</ele>
        <time>2016-12-28T13:27:26.999Z</time>
      </trkpt>
      <trkpt lat="47.51861" lon="6.76363">
        <ele>424.1</ele>
        <time>2016-12-28T13:27:27.999Z</time>
      </trkpt>
      <trkpt lat="47.51864" lon="6.76363">
        <ele>423.8</ele>
        <time>2016-12-28T13:27:28.999Z</time>
      </trkpt>
      <trkpt lat="47.51867" lon="6.76362">
        <ele>423.7</ele>
        <time>2016-12-28T13:27:29.999Z</time>
      </trkpt>
      <trkpt lat="47.51869" lon="6.76364">
        <ele>423.6</ele>
        <time>2016-12-28T13:27:30.999Z</time>
      </trkpt>
      <trkpt lat="47.51871" lon="6.76365">
        <ele>423.4</ele>
        <time>2016-12-28T13:27:31.999Z</time>
      </trkpt>
      <trkpt lat="47.51874" lon="6.76365">
        <ele>423.3</ele>
        <time>2016-12-28T13:27:32.999Z</time>
      </trkpt>
      <trkpt lat="47.51878" lon="6.76365">
        <ele>423.2</ele>
        <time>2016-12-28T13:27:33.999Z</time>
      </trkpt>
      <trkpt lat="47.51881" lon="6.76365">
        <ele>423.1</ele>
        <time>2016-12-28T13:27:34.999Z</time>
      </trkpt>
      <trkpt lat="47.51883" lon="6.76365">
        <ele>422.9</ele>
        <time>2016-12-28T13:27:35.999Z</time>
      </trkpt>
      <trkpt lat="47.51886" lon="6.76365">
        <ele>422.8</ele>
        <time>2016-12-28T13:27:36.999Z</time>
      </trkpt>
      <trkpt lat="47.51889" lon="6.76363">
        <ele>422.6</ele>
        <time>2016-12-28T13:27:38.999Z</time>
      </trkpt>
      <trkpt lat="47.51891" lon="6.76362">
        <ele>422.4</ele>
        <time>2016-12-28T13:27:39.999Z</time>
      </trkpt>
      <trkpt lat="47.51895" lon="6.76362">
        <ele>422.3</ele>
        <time>2016-12-28T13:27:41.999Z</time>
      </trkpt>
      <trkpt lat="47.51896" lon="6.76361">
        <ele>422.2</ele>
        <time>2016-12-28T13:27:42.999Z</time>
      </trkpt>
      <trkpt lat="47.519" lon="6.76359">
        <ele>421.9</ele>
        <time>2016-12-28T13:27:45.999Z</time>
      </trkpt>
      <trkpt lat="47.51902" lon="6.76358">
        <ele>421.8</ele>
        <time>2016-12-28T13:27:46.999Z</time>
      </trkpt>
      <trkpt lat="47.51906" lon="6.76357">
        <ele>421.4</ele>
        <time>2016-12-28T13:27:49.999Z</time>
      </trkpt>
      <trkpt lat="47.51908" lon="6.76356">
        <ele>421.2</ele>
        <time>2016-12-28T13:27:50.999Z</time>
      </trkpt>
      <trkpt lat="47.51912" lon="6.76356">
        <ele>420.6</ele>
        <time>2016-12-28T13:27:52.999Z</time>
      </trkpt>
      <trkpt lat="47.51914" lon="6.76356">
        <ele>420.3</ele>
        <time>2016-12-28T13:27:53.999Z</time>
      </trkpt>
      <trkpt lat="47.51917" lon="6.76356">
        <ele>419.2</ele>
        <time>2016-12-28T13:27:56.999Z</time>
      </trkpt>
      <trkpt lat="47.51919" lon="6.76356">
        <ele>418.8</ele>
        <time>2016-12-28T13:27:57.999Z</time>
      </trkpt>
      <trkpt lat="47.51921" lon="6.76357">
        <ele>418.4</ele>
        <time>2016-12-28T13:27:58.999Z</time>
      </trkpt>
      <trkpt lat="47.51924" lon="6.76358">
        <ele>418</ele>
        <time>2016-12-28T13:27:59.999Z</time>
      </trkpt>
      <trkpt lat="47.51928" lon="6.7636">
        <ele>417</ele>
        <time>2016-12-28T13:28:01.999Z</time>
      </trkpt>
      <trkpt lat="47.51931" lon="6.76361">
        <ele>416.5</ele>
        <time>2016-12-28T13:28:02.999Z</time>
      </trkpt>
      <trkpt lat="47.51934" lon="6.76362">
        <ele>416</ele>
        <time>2016-12-28T13:28:03.999Z</time>
      </trkpt>
      <trkpt lat="47.51937" lon="6.76362">
        <ele>415.6</ele>
        <time>2016-12-28T13:28:04.999Z</time>
      </trkpt>
      <trkpt lat="47.51939" lon="6.76362">
        <ele>415</ele>
        <time>2016-12-28T13:28:05.999Z</time>
      </trkpt>
      <trkpt lat="47.51941" lon="6.76363">
        <ele>414.6</ele>
        <time>2016-12-28T13:28:06.999Z</time>
      </trkpt>
      <trkpt lat="47.51944" lon="6.76363">
        <ele>414</ele>
        <time>2016-12-28T13:28:07.999Z</time>
      </trkpt>
      <trkpt lat="47.51946" lon="6.76364">
        <ele>413.6</ele>
        <time>2016-12-28T13:28:08.999Z</time>
      </trkpt>
      <trkpt lat="47.51948" lon="6.76363">
        <ele>413.1</ele>
        <time>2016-12-28T13:28:09.999Z</time>
      </trkpt>
      <trkpt lat="47.51951" lon="6.76362">
        <ele>412.6</ele>
        <time>2016-12-28T13:28:10.999Z</time>
      </trkpt>
      <trkpt lat="47.51954" lon="6.7636">
        <ele>412.2</ele>
        <time>2016-12-28T13:28:11.999Z</time>
      </trkpt>
      <trkpt lat="47.51955" lon="6.76359">
        <ele>411.8</ele>
        <time>2016-12-28T13:28:12.999Z</time>
      </trkpt>
      <trkpt lat="47.51959" lon="6.76356">
        <ele>410.6</ele>
        <time>2016-12-28T13:28:15.999Z</time>
      </trkpt>
      <trkpt lat="47.5196" lon="6.76356">
        <ele>410.3</ele>
        <time>2016-12-28T13:28:16.999Z</time>
      </trkpt>
      <trkpt lat="47.51964" lon="6.76353">
        <ele>409.2</ele>
        <time>2016-12-28T13:28:19.999Z</time>
      </trkpt>
      <trkpt lat="47.51965" lon="6.76353">
        <ele>408.9</ele>
        <time>2016-12-28T13:28:20.999Z</time>
      </trkpt>
      <trkpt lat="47.51968" lon="6.76351">
        <ele>408.2</ele>
        <time>2016-12-28T13:28:23.999Z</time>
      </trkpt>
      <trkpt lat="47.51968" lon="6.76349">
        <ele>407.9</ele>
        <time>2016-12-28T13:28:24.999Z</time>
      </trkpt>
      <trkpt lat="47.51969" lon="6.76345">
        <ele>407.7</ele>
        <time>2016-12-28T13:28:25.999Z</time>
      </trkpt>
      <trkpt lat="47.51972" lon="6.76341">
        <ele>407.5</ele>
        <time>2016-12-28T13:28:26.999Z</time>
      </trkpt>
      <trkpt lat="47.51974" lon="6.76337">
        <ele>407.3</ele>
        <time>2016-12-28T13:28:27.999Z</time>
      </trkpt>
      <trkpt lat="47.51977" lon="6.76334">
        <ele>407.1</ele>
        <time>2016-12-28T13:28:28.999Z</time>
      </trkpt>
      <trkpt lat="47.5198" lon="6.76331">
        <ele>406.8</ele>
        <time>2016-12-28T13:28:29.999Z</time>
      </trkpt>
      <trkpt lat="47.51984" lon="6.76326">
        <ele>406.5</ele>
        <time>2016-12-28T13:28:30.999Z</time>
      </trkpt>
      <trkpt lat="47.51987" lon="6.76321">
        <ele>406.2</ele>
        <time>2016-12-28T13:28:31.999Z</time>
      </trkpt>
      <trkpt lat="47.51992" lon="6.76314">
        <ele>405.9</ele>
        <time>2016-12-28T13:28:32.999Z</time>
      </trkpt>
      <trkpt lat="47.51995" lon="6.76309">
        <ele>405.7</ele>
        <time>2016-12-28T13:28:33.999Z</time>
      </trkpt>
      <trkpt lat="47.51999" lon="6.76303">
        <ele>405.4</ele>
        <time>2016-12-28T13:28:34.999Z</time>
      </trkpt>
      <trkpt lat="47.52003" lon="6.76296">
        <ele>405.1</ele>
        <time>2016-12-28T13:28:35.999Z</time>
      </trkpt>
      <trkpt lat="47.52005" lon="6.7629">
        <ele>402.8</ele>
        <time>2016-12-28T13:28:36.999Z</time>
      </trkpt>
      <trkpt lat="47.52008" lon="6.76284">
        <ele>402.5</ele>
        <time>2016-12-28T13:28:37.999Z</time>
      </trkpt>
      <trkpt lat="47.5201" lon="6.76278">
        <ele>402.2</ele>
        <time>2016-12-28T13:28:38.999Z</time>
      </trkpt>
      <trkpt lat="47.52012" lon="6.76273">
        <ele>401.8</ele>
        <time>2016-12-28T13:28:39.999Z</time>
      </trkpt>
      <trkpt lat="47.52014" lon="6.76266">
        <ele>401.5</ele>
        <time>2016-12-28T13:28:40.999Z</time>
      </trkpt>
      <trkpt lat="47.52016" lon="6.76262">
        <ele>401.2</ele>
        <time>2016-12-28T13:28:41.999Z</time>
      </trkpt>
      <trkpt lat="47.52017" lon="6.76258">
        <ele>400.7</ele>
        <time>2016-12-28T13:28:42.999Z</time>
      </trkpt>
      <trkpt lat="47.52019" lon="6.76256">
        <ele>400.2</ele>
        <time>2016-12-28T13:28:43.999Z</time>
      </trkpt>
      <trkpt lat="47.52021" lon="6.76252">
        <ele>399.7</ele>
        <time>2016-12-28T13:28:44.999Z</time>
      </trkpt>
      <trkpt lat="47.52023" lon="6.76252">
        <ele>399.3</ele>
        <time>2016-12-28T13:28:45.999Z</time>
      </trkpt>
      <trkpt lat="47.52027" lon="6.76249">
        <ele>398.9</ele>
        <time>2016-12-28T13:28:46.999Z</time>
      </trkpt>
      <trkpt lat="47.52031" lon="6.76245">
        <ele>398.4</ele>
        <time>2016-12-28T13:28:47.999Z</time>
      </trkpt>
      <trkpt lat="47.52034" lon="6.76239">
        <ele>397.9</ele>
        <time>2016-12-28T13:28:48.999Z</time>
      </trkpt>
      <trkpt lat="47.52037" lon="6.76233">
        <ele>397.3</ele>
        <time>2016-12-28T13:28:49.999Z</time>
      </trkpt>
      <trkpt lat="47.5204" lon="6.76227">
        <ele>396.8</ele>
        <time>2016-12-28T13:28:50.999Z</time>
      </trkpt>
      <trkpt lat="47.52042" lon="6.76223">
        <ele>396.2</ele>
        <time>2016-12-28T13:28:51.999Z</time>
      </trkpt>
      <trkpt lat="47.52044" lon="6.76218">
        <ele>395.8</ele>
        <time>2016-12-28T13:28:52.999Z</time>
      </trkpt>
      <trkpt lat="47.52046" lon="6.76213">
        <ele>395.6</ele>
        <time>2016-12-28T13:28:53.999Z</time>
      </trkpt>
      <trkpt lat="47.52049" lon="6.76204">
        <ele>395.5</ele>
        <time>2016-12-28T13:28:54.999Z</time>
      </trkpt>
      <trkpt lat="47.52051" lon="6.762">
        <ele>395.7</ele>
        <time>2016-12-28T13:28:55.999Z</time>
      </trkpt>
      <trkpt lat="47.52053" lon="6.76195">
        <ele>395.8</ele>
        <time>2016-12-28T13:28:56.999Z</time>
      </trkpt>
      <trkpt lat="47.52056" lon="6.76191">
        <ele>396.1</ele>
        <time>2016-12-28T13:28:57.999Z</time>
      </trkpt>
      <trkpt lat="47.52058" lon="6.76187">
        <ele>396.4</ele>
        <time>2016-12-28T13:28:58.999Z</time>
      </trkpt>
      <trkpt lat="47.52062" lon="6.7618">
        <ele>396.6</ele>
        <time>2016-12-28T13:28:59.999Z</time>
      </trkpt>
      <trkpt lat="47.52065" lon="6.76177">
        <ele>396.9</ele>
        <time>2016-12-28T13:29:00.999Z</time>
      </trkpt>
      <trkpt lat="47.52068" lon="6.76176">
        <ele>397.2</ele>
        <time>2016-12-28T13:29:01.999Z</time>
      </trkpt>
      <trkpt lat="47.52071" lon="6.76173">
        <ele>397.4</ele>
        <time>2016-12-28T13:29:02.999Z</time>
      </trkpt>
      <trkpt lat="47.52073" lon="6.76169">
        <ele>397.7</ele>
        <time>2016-12-28T13:29:03.999Z</time>
      </trkpt>
      <trkpt lat="47.52074" lon="6.76166">
        <ele>398</ele>
        <time>2016-12-28T13:29:04.999Z</time>
      </trkpt>
      <trkpt lat="47.52076" lon="6.76163">
        <ele>398.4</ele>
        <time>2016-12-28T13:29:05.999Z</time>
      </trkpt>
      <trkpt lat="47.52078" lon="6.76159">
        <ele>398.6</ele>
        <time>2016-12-28T13:29:06.999Z</time>
      </trkpt>
      <trkpt lat="47.52081" lon="6.76155">
        <ele>398.9</ele>
        <time>2016-12-28T13:29:07.999Z</time>
      </trkpt>
      <trkpt lat="47.52083" lon="6.76151">
        <ele>399.2</ele>
        <time>2016-12-28T13:29:08.999Z</time>
      </trkpt>
      <trkpt lat="47.52087" lon="6.76142">
        <ele>399.5</ele>
        <time>2016-12-28T13:29:09.999Z</time>
      </trkpt>
      <trkpt lat="47.52089" lon="6.7614">
        <ele>399.8</ele>
        <time>2016-12-28T13:29:10.999Z</time>
      </trkpt>
      <trkpt lat="47.52091" lon="6.76138">
        <ele>400.2</ele>
        <time>2016-12-28T13:29:11.999Z</time>
      </trkpt>
      <trkpt lat="47.52092" lon="6.76136">
        <ele>400.7</ele>
        <time>2016-12-28T13:29:12.999Z</time>
      </trkpt>
      <trkpt lat="47.52095" lon="6.76133">
        <ele>401.1</ele>
        <time>2016-12-28T13:29:13.999Z</time>
      </trkpt>
      <trkpt lat="47.52097" lon="6.7613">
        <ele>401.6</ele>
        <time>2016-12-28T13:29:14.999Z</time>
      </trkpt>
      <trkpt lat="47.52099" lon="6.76127">
        <ele>401.9</ele>
        <time>2016-12-28T13:29:15.999Z</time>
      </trkpt>
      <trkpt lat="47.52101" lon="6.76124">
        <ele>402.3</ele>
        <time>2016-12-28T13:29:16.999Z</time>
      </trkpt>
      <trkpt lat="47.52103" lon="6.76121">
        <ele>402.7</ele>
        <time>2016-12-28T13:29:17.999Z</time>
      </trkpt>
      <trkpt lat="47.52105" lon="6.76118">
        <ele>403.1</ele>
        <time>2016-12-28T13:29:18.999Z</time>
      </trkpt>
      <trkpt lat="47.52107" lon="6.76115">
        <ele>403.5</ele>
        <time>2016-12-28T13:29:19.999Z</time>
      </trkpt>
      <trkpt lat="47.52109" lon="6.76112">
        <ele>403.9</ele>
        <time>2016-12-28T13:29:20.999Z</time>
      </trkpt>
      <trkpt lat="47.52112" lon="6.76108">
        <ele>404.3</ele>
        <time>2016-12-28T13:29:21.999Z</time>
      </trkpt>
      <trkpt lat="47.52115" lon="6.76104">
        <ele>404.6</ele>
        <time>2016-12-28T13:29:22.999Z</time>
      </trkpt>
      <trkpt lat="47.52117" lon="6.761">
        <ele>405</ele>
        <time>2016-12-28T13:29:23.999Z</time>
      </trkpt>
      <trkpt lat="47.5212" lon="6.76096">
        <ele>405.4</ele>
        <time>2016-12-28T13:29:24.999Z</time>
      </trkpt>
      <trkpt lat="47.52122" lon="6.76092">
        <ele>405.7</ele>
        <time>2016-12-28T13:29:25.999Z</time>
      </trkpt>
      <trkpt lat="47.52124" lon="6.76089">
        <ele>406.1</ele>
        <time>2016-12-28T13:29:26.999Z</time>
      </trkpt>
      <trkpt lat="47.52128" lon="6.76086">
        <ele>406.5</ele>
        <time>2016-12-28T13:29:27.999Z</time>
      </trkpt>
      <trkpt lat="47.52132" lon="6.76082">
        <ele>406.8</ele>
        <time>2016-12-28T13:29:28.999Z</time>
      </trkpt>
      <trkpt lat="47.52136" lon="6.76078">
        <ele>407.1</ele>
        <time>2016-12-28T13:29:29.999Z</time>
      </trkpt>
      <trkpt lat="47.52141" lon="6.76074">
        <ele>410.9</ele>
        <time>2016-12-28T13:29:30.999Z</time>
      </trkpt>
      <trkpt lat="47.52144" lon="6.76071">
        <ele>413.9</ele>
        <time>2016-12-28T13:29:31.999Z</time>
      </trkpt>
      <trkpt lat="47.52148" lon="6.76068">
        <ele>416.1</ele>
        <time>2016-12-28T13:29:32.999Z</time>
      </trkpt>
      <trkpt lat="47.52152" lon="6.76065">
        <ele>418.1</ele>
        <time>2016-12-28T13:29:33.999Z</time>
      </trkpt>
      <trkpt lat="47.52156" lon="6.76061">
        <ele>419.7</ele>
        <time>2016-12-28T13:29:34.999Z</time>
      </trkpt>
      <trkpt lat="47.5216" lon="6.76059">
        <ele>421.2</ele>
        <time>2016-12-28T13:29:35.999Z</time>
      </trkpt>
      <trkpt lat="47.52163" lon="6.76056">
        <ele>421.4</ele>
        <time>2016-12-28T13:29:36.999Z</time>
      </trkpt>
      <trkpt lat="47.52166" lon="6.76052">
        <ele>421.4</ele>
        <time>2016-12-28T13:29:37.999Z</time>
      </trkpt>
      <trkpt lat="47.52169" lon="6.76049">
        <ele>421.5</ele>
        <time>2016-12-28T13:29:38.999Z</time>
      </trkpt>
      <trkpt lat="47.52174" lon="6.76046">
        <ele>421.6</ele>
        <time>2016-12-28T13:29:39.999Z</time>
      </trkpt>
      <trkpt lat="47.52178" lon="6.76043">
        <ele>421.7</ele>
        <time>2016-12-28T13:29:40.999Z</time>
      </trkpt>
      <trkpt lat="47.52182" lon="6.7604">
        <ele>422.3</ele>
        <time>2016-12-28T13:29:41.999Z</time>
      </trkpt>
      <trkpt lat="47.52185" lon="6.76038">
        <ele>423.2</ele>
        <time>2016-12-28T13:29:42.999Z</time>
      </trkpt>
      <trkpt lat="47.52189" lon="6.76035">
        <ele>423.2</ele>
        <time>2016-12-28T13:29:43.999Z</time>
      </trkpt>
      <trkpt lat="47.52193" lon="6.7603">
        <ele>423.2</ele>
        <time>2016-12-28T13:29:44.999Z</time>
      </trkpt>
      <trkpt lat="47.52195" lon="6.76024">
        <ele>423.2</ele>
        <time>2016-12-28T13:29:45.999Z</time>
      </trkpt>
      <trkpt lat="47.52197" lon="6.7602">
        <ele>423.2</ele>
        <time>2016-12-28T13:29:46.999Z</time>
      </trkpt>
      <trkpt lat="47.52199" lon="6.76016">
        <ele>423</ele>
        <time>2016-12-28T13:29:47.999Z</time>
      </trkpt>
      <trkpt lat="47.52201" lon="6.76012">
        <ele>422.9</ele>
        <time>2016-12-28T13:29:48.999Z</time>
      </trkpt>
      <trkpt lat="47.52205" lon="6.76008">
        <ele>422.6</ele>
        <time>2016-12-28T13:29:49.999Z</time>
      </trkpt>
      <trkpt lat="47.52209" lon="6.76002">
        <ele>422.3</ele>
        <time>2016-12-28T13:29:50.999Z</time>
      </trkpt>
      <trkpt lat="47.52213" lon="6.75997">
        <ele>422.1</ele>
        <time>2016-12-28T13:29:51.999Z</time>
      </trkpt>
      <trkpt lat="47.52215" lon="6.75993">
        <ele>421.7</ele>
        <time>2016-12-28T13:29:52.999Z</time>
      </trkpt>
      <trkpt lat="47.52218" lon="6.75989">
        <ele>418.4</ele>
        <time>2016-12-28T13:29:53.999Z</time>
      </trkpt>
      <trkpt lat="47.52223" lon="6.75984">
        <ele>418</ele>
        <time>2016-12-28T13:29:54.999Z</time>
      </trkpt>
      <trkpt lat="47.52227" lon="6.7598">
        <ele>417.6</ele>
        <time>2016-12-28T13:29:55.999Z</time>
      </trkpt>
      <trkpt lat="47.5223" lon="6.75976">
        <ele>417.2</ele>
        <time>2016-12-28T13:29:56.999Z</time>
      </trkpt>
      <trkpt lat="47.52233" lon="6.75974">
        <ele>416.8</ele>
        <time>2016-12-28T13:29:57.999Z</time>
      </trkpt>
      <trkpt lat="47.52235" lon="6.75972">
        <ele>416.3</ele>
        <time>2016-12-28T13:29:58.999Z</time>
      </trkpt>
      <trkpt lat="47.52238" lon="6.75969">
        <ele>415.9</ele>
        <time>2016-12-28T13:29:59.999Z</time>
      </trkpt>
      <trkpt lat="47.52241" lon="6.75967">
        <ele>415.4</ele>
        <time>2016-12-28T13:30:00.999Z</time>
      </trkpt>
      <trkpt lat="47.52243" lon="6.75966">
        <ele>415</ele>
        <time>2016-12-28T13:30:01.999Z</time>
      </trkpt>
      <trkpt lat="47.52242" lon="6.75964">
        <ele>414.3</ele>
        <time>2016-12-28T13:30:03.999Z</time>
      </trkpt>
      <trkpt lat="47.52237" lon="6.75963">
        <ele>413.8</ele>
        <time>2016-12-28T13:30:04.999Z</time>
      </trkpt>
      <trkpt lat="47.52232" lon="6.75962">
        <ele>413.3</ele>
        <time>2016-12-28T13:30:05.999Z</time>
      </trkpt>
      <trkpt lat="47.52228" lon="6.7596">
        <ele>412.8</ele>
        <time>2016-12-28T13:30:06.999Z</time>
      </trkpt>
      <trkpt lat="47.52226" lon="6.75958">
        <ele>412.3</ele>
        <time>2016-12-28T13:30:07.999Z</time>
      </trkpt>
      <trkpt lat="47.52224" lon="6.75953">
        <ele>411.3</ele>
        <time>2016-12-28T13:30:10.999Z</time>
      </trkpt>
      <trkpt lat="47.52223" lon="6.75946">
        <ele>411</ele>
        <time>2016-12-28T13:30:11.999Z</time>
      </trkpt>
      <trkpt lat="47.52223" lon="6.75942">
        <ele>410.8</ele>
        <time>2016-12-28T13:30:12.999Z</time>
      </trkpt>
      <trkpt lat="47.52222" lon="6.75938">
        <ele>410.7</ele>
        <time>2016-12-28T13:30:13.999Z</time>
      </trkpt>
      <trkpt lat="47.52222" lon="6.75929">
        <ele>410.5</ele>
        <time>2016-12-28T13:30:14.999Z</time>
      </trkpt>
      <trkpt lat="47.52222" lon="6.7592">
        <ele>410.3</ele>
        <time>2016-12-28T13:30:15.999Z</time>
      </trkpt>
      <trkpt lat="47.52223" lon="6.75913">
        <ele>410.1</ele>
        <time>2016-12-28T13:30:16.999Z</time>
      </trkpt>
      <trkpt lat="47.52224" lon="6.75907">
        <ele>409.9</ele>
        <time>2016-12-28T13:30:17.999Z</time>
      </trkpt>
      <trkpt lat="47.52225" lon="6.75901">
        <ele>409.6</ele>
        <time>2016-12-28T13:30:18.999Z</time>
      </trkpt>
      <trkpt lat="47.52227" lon="6.75896">
        <ele>408</ele>
        <time>2016-12-28T13:30:19.999Z</time>
      </trkpt>
      <trkpt lat="47.52229" lon="6.7589">
        <ele>407.6</ele>
        <time>2016-12-28T13:30:20.999Z</time>
      </trkpt>
      <trkpt lat="47.52231" lon="6.75884">
        <ele>407.9</ele>
        <time>2016-12-28T13:30:21.999Z</time>
      </trkpt>
      <trkpt lat="47.52233" lon="6.75877">
        <ele>408.6</ele>
        <time>2016-12-28T13:30:22.999Z</time>
      </trkpt>
      <trkpt lat="47.52235" lon="6.75869">
        <ele>409.8</ele>
        <time>2016-12-28T13:30:23.999Z</time>
      </trkpt>
      <trkpt lat="47.52237" lon="6.75861">
        <ele>411.6</ele>
        <time>2016-12-28T13:30:24.999Z</time>
      </trkpt>
      <trkpt lat="47.52239" lon="6.75853">
        <ele>413</ele>
        <time>2016-12-28T13:30:25.999Z</time>
      </trkpt>
      <trkpt lat="47.52241" lon="6.75845">
        <ele>414.5</ele>
        <time>2016-12-28T13:30:26.999Z</time>
      </trkpt>
      <trkpt lat="47.52243" lon="6.75837">
        <ele>415.8</ele>
        <time>2016-12-28T13:30:27.999Z</time>
      </trkpt>
      <trkpt lat="47.52245" lon="6.7583">
        <ele>417.1</ele>
        <time>2016-12-28T13:30:28.999Z</time>
      </trkpt>
      <trkpt lat="47.52247" lon="6.75821">
        <ele>417.5</ele>
        <time>2016-12-28T13:30:29.999Z</time>
      </trkpt>
      <trkpt lat="47.5225" lon="6.75813">
        <ele>418.1</ele>
        <time>2016-12-28T13:30:30.999Z</time>
      </trkpt>
      <trkpt lat="47.52253" lon="6.75806">
        <ele>418.1</ele>
        <time>2016-12-28T13:30:31.999Z</time>
      </trkpt>
      <trkpt lat="47.52257" lon="6.75798">
        <ele>417.3</ele>
        <time>2016-12-28T13:30:32.999Z</time>
      </trkpt>
      <trkpt lat="47.52261" lon="6.7579">
        <ele>416.3</ele>
        <time>2016-12-28T13:30:33.999Z</time>
      </trkpt>
      <trkpt lat="47.52265" lon="6.75783">
        <ele>415.4</ele>
        <time>2016-12-28T13:30:34.999Z</time>
      </trkpt>
      <trkpt lat="47.52269" lon="6.75777">
        <ele>414.2</ele>
        <time>2016-12-28T13:30:35.999Z</time>
      </trkpt>
      <trkpt lat="47.52273" lon="6.75769">
        <ele>412.9</ele>
        <time>2016-12-28T13:30:36.999Z</time>
      </trkpt>
      <trkpt lat="47.52276" lon="6.75762">
        <ele>412.1</ele>
        <time>2016-12-28T13:30:37.999Z</time>
      </trkpt>
      <trkpt lat="47.5228" lon="6.75755">
        <ele>411.4</ele>
        <time>2016-12-28T13:30:38.999Z</time>
      </trkpt>
      <trkpt lat="47.52283" lon="6.75747">
        <ele>410.3</ele>
        <time>2016-12-28T13:30:39.999Z</time>
      </trkpt>
      <trkpt lat="47.52288" lon="6.75738">
        <ele>409.3</ele>
        <time>2016-12-28T13:30:40.999Z</time>
      </trkpt>
      <trkpt lat="47.52292" lon="6.75728">
        <ele>408.4</ele>
        <time>2016-12-28T13:30:41.999Z</time>
      </trkpt>
      <trkpt lat="47.52296" lon="6.75718">
        <ele>407.7</ele>
        <time>2016-12-28T13:30:42.999Z</time>
      </trkpt>
      <trkpt lat="47.52299" lon="6.75709">
        <ele>406.9</ele>
        <time>2016-12-28T13:30:43.999Z</time>
      </trkpt>
      <trkpt lat="47.52302" lon="6.75699">
        <ele>406</ele>
        <time>2016-12-28T13:30:44.999Z</time>
      </trkpt>
      <trkpt lat="47.52304" lon="6.75689">
        <ele>404.3</ele>
        <time>2016-12-28T13:30:45.999Z</time>
      </trkpt>
      <trkpt lat="47.52307" lon="6.75677">
        <ele>402.7</ele>
        <time>2016-12-28T13:30:46.999Z</time>
      </trkpt>
      <trkpt lat="47.5231" lon="6.75665">
        <ele>401.4</ele>
        <time>2016-12-28T13:30:47.999Z</time>
      </trkpt>
      <trkpt lat="47.52313" lon="6.75653">
        <ele>399.7</ele>
        <time>2016-12-28T13:30:48.999Z</time>
      </trkpt>
      <trkpt lat="47.52316" lon="6.75639">
        <ele>397.7</ele>
        <time>2016-12-28T13:30:49.999Z</time>
      </trkpt>
      <trkpt lat="47.5232" lon="6.75627">
        <ele>395.9</ele>
        <time>2016-12-28T13:30:50.999Z</time>
      </trkpt>
      <trkpt lat="47.52323" lon="6.75615">
        <ele>394.3</ele>
        <time>2016-12-28T13:30:51.999Z</time>
      </trkpt>
      <trkpt lat="47.52327" lon="6.75604">
        <ele>392.9</ele>
        <time>2016-12-28T13:30:52.999Z</time>
      </trkpt>
      <trkpt lat="47.52332" lon="6.75593">
        <ele>392.1</ele>
        <time>2016-12-28T13:30:53.999Z</time>
      </trkpt>
      <trkpt lat="47.52336" lon="6.75584">
        <ele>391.8</ele>
        <time>2016-12-28T13:30:54.999Z</time>
      </trkpt>
      <trkpt lat="47.52342" lon="6.75573">
        <ele>391.4</ele>
        <time>2016-12-28T13:30:55.999Z</time>
      </trkpt>
      <trkpt lat="47.52347" lon="6.75564">
        <ele>390.8</ele>
        <time>2016-12-28T13:30:56.999Z</time>
      </trkpt>
      <trkpt lat="47.52354" lon="6.75557">
        <ele>390.5</ele>
        <time>2016-12-28T13:30:57.999Z</time>
      </trkpt>
      <trkpt lat="47.52362" lon="6.75551">
        <ele>390.2</ele>
        <time>2016-12-28T13:30:58.999Z</time>
      </trkpt>
      <trkpt lat="47.52371" lon="6.75547">
        <ele>390.2</ele>
        <time>2016-12-28T13:30:59.999Z</time>
      </trkpt>
      <trkpt lat="47.5238" lon="6.75544">
        <ele>390</ele>
        <time>2016-12-28T13:31:00.999Z</time>
      </trkpt>
      <trkpt lat="47.52388" lon="6.75542">
        <ele>390.1</ele>
        <time>2016-12-28T13:31:01.999Z</time>
      </trkpt>
      <trkpt lat="47.52395" lon="6.75541">
        <ele>389.6</ele>
        <time>2016-12-28T13:31:02.999Z</time>
      </trkpt>
      <trkpt lat="47.52401" lon="6.75541">
        <ele>388.3</ele>
        <time>2016-12-28T13:31:03.999Z</time>
      </trkpt>
      <trkpt lat="47.52404" lon="6.75544">
        <ele>387.3</ele>
        <time>2016-12-28T13:31:04.999Z</time>
      </trkpt>
      <trkpt lat="47.5241" lon="6.75547">
        <ele>386.4</ele>
        <time>2016-12-28T13:31:05.999Z</time>
      </trkpt>
      <trkpt lat="47.52417" lon="6.75551">
        <ele>385.5</ele>
        <time>2016-12-28T13:31:06.999Z</time>
      </trkpt>
      <trkpt lat="47.52424" lon="6.75556">
        <ele>384</ele>
        <time>2016-12-28T13:31:07.999Z</time>
      </trkpt>
      <trkpt lat="47.52431" lon="6.75561">
        <ele>382.4</ele>
        <time>2016-12-28T13:31:08.999Z</time>
      </trkpt>
      <trkpt lat="47.52437" lon="6.75567">
        <ele>380.9</ele>
        <time>2016-12-28T13:31:09.999Z</time>
      </trkpt>
      <trkpt lat="47.52443" lon="6.75571">
        <ele>380</ele>
        <time>2016-12-28T13:31:10.999Z</time>
      </trkpt>
      <trkpt lat="47.52448" lon="6.75574">
        <ele>380</ele>
        <time>2016-12-28T13:31:11.999Z</time>
      </trkpt>
      <trkpt lat="47.52454" lon="6.75577">
        <ele>381.1</ele>
        <time>2016-12-28T13:31:12.999Z</time>
      </trkpt>
      <trkpt lat="47.5246" lon="6.7558">
        <ele>382.5</ele>
        <time>2016-12-28T13:31:13.999Z</time>
      </trkpt>
      <trkpt lat="47.52465" lon="6.75583">
        <ele>383.3</ele>
        <time>2016-12-28T13:31:14.999Z</time>
      </trkpt>
      <trkpt lat="47.52471" lon="6.75586">
        <ele>384.7</ele>
        <time>2016-12-28T13:31:15.999Z</time>
      </trkpt>
      <trkpt lat="47.52476" lon="6.75588">
        <ele>386.2</ele>
        <time>2016-12-28T13:31:16.999Z</time>
      </trkpt>
      <trkpt lat="47.52481" lon="6.75591">
        <ele>386.4</ele>
        <time>2016-12-28T13:31:17.999Z</time>
      </trkpt>
      <trkpt lat="47.52485" lon="6.75594">
        <ele>386.5</ele>
        <time>2016-12-28T13:31:18.999Z</time>
      </trkpt>
      <trkpt lat="47.52489" lon="6.75596">
        <ele>386.6</ele>
        <time>2016-12-28T13:31:19.999Z</time>
      </trkpt>
      <trkpt lat="47.52492" lon="6.75599">
        <ele>386.7</ele>
        <time>2016-12-28T13:31:20.999Z</time>
      </trkpt>
      <trkpt lat="47.52495" lon="6.75602">
        <ele>386.8</ele>
        <time>2016-12-28T13:31:21.999Z</time>
      </trkpt>
      <trkpt lat="47.52498" lon="6.75604">
        <ele>386.9</ele>
        <time>2016-12-28T13:31:22.999Z</time>
      </trkpt>
      <trkpt lat="47.52501" lon="6.75607">
        <ele>387.1</ele>
        <time>2016-12-28T13:31:23.999Z</time>
      </trkpt>
      <trkpt lat="47.52504" lon="6.7561">
        <ele>387.2</ele>
        <time>2016-12-28T13:31:24.999Z</time>
      </trkpt>
      <trkpt lat="47.52507" lon="6.75613">
        <ele>387.3</ele>
        <time>2016-12-28T13:31:25.999Z</time>
      </trkpt>
      <trkpt lat="47.5251" lon="6.75616">
        <ele>387.4</ele>
        <time>2016-12-28T13:31:26.999Z</time>
      </trkpt>
      <trkpt lat="47.52512" lon="6.75617">
        <ele>387.6</ele>
        <time>2016-12-28T13:31:27.999Z</time>
      </trkpt>
      <trkpt lat="47.52514" lon="6.7562">
        <ele>387.7</ele>
        <time>2016-12-28T13:31:28.999Z</time>
      </trkpt>
      <trkpt lat="47.52517" lon="6.75624">
        <ele>387.8</ele>
        <time>2016-12-28T13:31:29.999Z</time>
      </trkpt>
      <trkpt lat="47.52519" lon="6.75627">
        <ele>387.8</ele>
        <time>2016-12-28T13:31:30.999Z</time>
      </trkpt>
      <trkpt lat="47.5252" lon="6.75631">
        <ele>387.9</ele>
        <time>2016-12-28T13:31:31.999Z</time>
      </trkpt>
      <trkpt lat="47.52521" lon="6.75633">
        <ele>388</ele>
        <time>2016-12-28T13:31:32.999Z</time>
      </trkpt>
      <trkpt lat="47.52522" lon="6.75635">
        <ele>387.3</ele>
        <time>2016-12-28T13:31:40.999Z</time>
      </trkpt>
      <trkpt lat="47.5253" lon="6.75624">
        <ele>387</ele>
        <time>2016-12-28T13:31:41.999Z</time>
      </trkpt>
      <trkpt lat="47.5253" lon="6.75624">
        <ele>382.9</ele>
        <time>2016-12-28T13:31:51.999Z</time>
      </trkpt>
      <trkpt lat="47.52541" lon="6.75609">
        <ele>382.4</ele>
        <time>2016-12-28T13:31:52.999Z</time>
      </trkpt>
      <trkpt lat="47.52541" lon="6.75609">
        <ele>378.1</ele>
        <time>2016-12-28T13:32:00.999Z</time>
      </trkpt>
      <trkpt lat="47.52553" lon="6.75594">
        <ele>377.5</ele>
        <time>2016-12-28T13:32:01.999Z</time>
      </trkpt>
      <trkpt lat="47.52553" lon="6.75594">
        <ele>372.2</ele>
        <time>2016-12-28T13:32:13.999Z</time>
      </trkpt>
      <trkpt lat="47.52567" lon="6.75581">
        <ele>371.8</ele>
        <time>2016-12-28T13:32:14.999Z</time>
      </trkpt>
      <trkpt lat="47.52567" lon="6.75581">
        <ele>369.1</ele>
        <time>2016-12-28T13:32:23.999Z</time>
      </trkpt>
      <trkpt lat="47.5257" lon="6.75561">
        <ele>368.6</ele>
        <time>2016-12-28T13:32:24.999Z</time>
      </trkpt>
      <trkpt lat="47.5257" lon="6.75561">
        <ele>368.3</ele>
        <time>2016-12-28T13:32:34.999Z</time>
      </trkpt>
      <trkpt lat="47.52579" lon="6.75541">
        <ele>368.5</ele>
        <time>2016-12-28T13:32:35.999Z</time>
      </trkpt>
      <trkpt lat="47.52579" lon="6.75541">
        <ele>370.2</ele>
        <time>2016-12-28T13:32:42.999Z</time>
      </trkpt>
      <trkpt lat="47.52586" lon="6.75524">
        <ele>370.4</ele>
        <time>2016-12-28T13:32:43.999Z</time>
      </trkpt>
      <trkpt lat="47.52586" lon="6.75524">
        <ele>370.9</ele>
        <time>2016-12-28T13:32:45.999Z</time>
      </trkpt>
      <trkpt lat="47.52591" lon="6.75508">
        <ele>371.2</ele>
        <time>2016-12-28T13:32:46.999Z</time>
      </trkpt>
      <trkpt lat="47.52591" lon="6.75508">
        <ele>374.9</ele>
        <time>2016-12-28T13:32:55.999Z</time>
      </trkpt>
      <trkpt lat="47.52601" lon="6.7549">
        <ele>375.4</ele>
        <time>2016-12-28T13:32:56.999Z</time>
      </trkpt>
      <trkpt lat="47.52601" lon="6.7549">
        <ele>386</ele>
        <time>2016-12-28T13:33:23.999Z</time>
      </trkpt>
      <trkpt lat="47.5261" lon="6.75479">
        <ele>386.1</ele>
        <time>2016-12-28T13:33:24.999Z</time>
      </trkpt>
      <trkpt lat="47.5261" lon="6.75479">
        <ele>391.7</ele>
        <time>2016-12-28T13:33:35.999Z</time>
      </trkpt>
      <trkpt lat="47.52619" lon="6.75475">
        <ele>392.3</ele>
        <time>2016-12-28T13:33:36.999Z</time>
      </trkpt>
      <trkpt lat="47.52619" lon="6.75475">
        <ele>396.2</ele>
        <time>2016-12-28T13:33:47.999Z</time>
      </trkpt>
      <trkpt lat="47.52631" lon="6.7547">
        <ele>396.7</ele>
        <time>2016-12-28T13:33:48.999Z</time>
      </trkpt>
      <trkpt lat="47.52631" lon="6.7547">
        <ele>400.4</ele>
        <time>2016-12-28T13:34:08.999Z</time>
      </trkpt>
      <trkpt lat="47.52638" lon="6.7545">
        <ele>400.4</ele>
        <time>2016-12-28T13:34:09.999Z</time>
      </trkpt>
      <trkpt lat="47.52638" lon="6.7545">
        <ele>401.9</ele>
        <time>2016-12-28T13:34:22.999Z</time>
      </trkpt>
      <trkpt lat="47.52643" lon="6.75436">
        <ele>402.2</ele>
        <time>2016-12-28T13:34:23.999Z</time>
      </trkpt>
      <trkpt lat="47.52643" lon="6.75436">
        <ele>404.4</ele>
        <time>2016-12-28T13:34:33.999Z</time>
      </trkpt>
      <trkpt lat="47.52654" lon="6.75403">
        <ele>404.6</ele>
        <time>2016-12-28T13:34:34.999Z</time>
      </trkpt>
      <trkpt lat="47.52654" lon="6.75403">
        <ele>405.1</ele>
        <time>2016-12-28T13:34:37.999Z</time>
      </trkpt>
      <trkpt lat="47.5266" lon="6.75386">
        <ele>405.3</ele>
        <time>2016-12-28T13:34:38.999Z</time>
      </trkpt>
      <trkpt lat="47.5266" lon="6.75386">
        <ele>405.6</ele>
        <time>2016-12-28T13:34:44.999Z</time>
      </trkpt>
      <trkpt lat="47.52664" lon="6.75367">
        <ele>405.5</ele>
        <time>2016-12-28T13:34:45.999Z</time>
      </trkpt>
      <trkpt lat="47.52664" lon="6.75367">
        <ele>405.6</ele>
        <time>2016-12-28T13:34:52.999Z</time>
      </trkpt>
      <trkpt lat="47.52669" lon="6.75353">
        <ele>405.6</ele>
        <time>2016-12-28T13:34:53.999Z</time>
      </trkpt>
      <trkpt lat="47.52669" lon="6.75353">
        <ele>406.3</ele>
        <time>2016-12-28T13:35:23.999Z</time>
      </trkpt>
      <trkpt lat="47.52674" lon="6.75338">
        <ele>406.4</ele>
        <time>2016-12-28T13:35:24.999Z</time>
      </trkpt>
      <trkpt lat="47.52674" lon="6.75338">
        <ele>407.9</ele>
        <time>2016-12-28T13:35:29.999Z</time>
      </trkpt>
      <trkpt lat="47.52675" lon="6.75308">
        <ele>408.1</ele>
        <time>2016-12-28T13:35:30.999Z</time>
      </trkpt>
      <trkpt lat="47.52675" lon="6.75308">
        <ele>408.4</ele>
        <time>2016-12-28T13:35:31.999Z</time>
      </trkpt>
      <trkpt lat="47.52674" lon="6.75293">
        <ele>408.8</ele>
        <time>2016-12-28T13:35:32.999Z</time>
      </trkpt>
      <trkpt lat="47.52674" lon="6.75293">
        <ele>409.6</ele>
        <time>2016-12-28T13:35:35.999Z</time>
      </trkpt>
      <trkpt lat="47.52672" lon="6.7528">
        <ele>410.1</ele>
        <time>2016-12-28T13:35:36.999Z</time>
      </trkpt>
      <trkpt lat="47.52672" lon="6.7528">
        <ele>417.4</ele>
        <time>2016-12-28T13:35:56.999Z</time>
      </trkpt>
      <trkpt lat="47.52671" lon="6.7526">
        <ele>418.1</ele>
        <time>2016-12-28T13:35:57.999Z</time>
      </trkpt>
      <trkpt lat="47.52671" lon="6.7526">
        <ele>420.1</ele>
        <time>2016-12-28T13:36:02.999Z</time>
      </trkpt>
      <trkpt lat="47.52678" lon="6.75241">
        <ele>420.3</ele>
        <time>2016-12-28T13:36:03.999Z</time>
      </trkpt>
      <trkpt lat="47.52681" lon="6.75237">
        <ele>420.5</ele>
        <time>2016-12-28T13:36:05.999Z</time>
      </trkpt>
      <trkpt lat="47.52682" lon="6.75236">
        <ele>420.5</ele>
        <time>2016-12-28T13:36:06.999Z</time>
      </trkpt>
      <trkpt lat="47.52685" lon="6.75234">
        <ele>420.4</ele>
        <time>2016-12-28T13:36:09.999Z</time>
      </trkpt>
      <trkpt lat="47.52686" lon="6.75233">
        <ele>420.3</ele>
        <time>2016-12-28T13:36:10.999Z</time>
      </trkpt>
      <trkpt lat="47.5269" lon="6.7523">
        <ele>420</ele>
        <time>2016-12-28T13:36:13.999Z</time>
      </trkpt>
      <trkpt lat="47.52691" lon="6.75229">
        <ele>420</ele>
        <time>2016-12-28T13:36:14.999Z</time>
      </trkpt>
      <trkpt lat="47.52695" lon="6.75226">
        <ele>420.1</ele>
        <time>2016-12-28T13:36:21.999Z</time>
      </trkpt>
      <trkpt lat="47.52695" lon="6.75223">
        <ele>420</ele>
        <time>2016-12-28T13:36:22.999Z</time>
      </trkpt>
      <trkpt lat="47.52695" lon="6.75219">
        <ele>420</ele>
        <time>2016-12-28T13:36:24.999Z</time>
      </trkpt>
      <trkpt lat="47.52696" lon="6.75215">
        <ele>420</ele>
        <time>2016-12-28T13:36:25.999Z</time>
      </trkpt>
      <trkpt lat="47.52699" lon="6.7521">
        <ele>419.6</ele>
        <time>2016-12-28T13:36:29.999Z</time>
      </trkpt>
      <trkpt lat="47.52699" lon="6.75208">
        <ele>419.5</ele>
        <time>2016-12-28T13:36:30.999Z</time>
      </trkpt>
      <trkpt lat="47.52703" lon="6.75206">
        <ele>419</ele>
        <time>2016-12-28T13:36:38.999Z</time>
      </trkpt>
      <trkpt lat="47.52703" lon="6.75206">
        <ele>419</ele>
        <time>2016-12-28T13:36:39.999Z</time>
      </trkpt>
      <trkpt lat="47.52704" lon="6.752">
        <ele>418.5</ele>
        <time>2016-12-28T13:36:43.999Z</time>
      </trkpt>
      <trkpt lat="47.52705" lon="6.75197">
        <ele>418.4</ele>
        <time>2016-12-28T13:36:44.999Z</time>
      </trkpt>
      <trkpt lat="47.52707" lon="6.75192">
        <ele>418.2</ele>
        <time>2016-12-28T13:36:47.999Z</time>
      </trkpt>
      <trkpt lat="47.52708" lon="6.75191">
        <ele>418</ele>
        <time>2016-12-28T13:36:48.999Z</time>
      </trkpt>
      <trkpt lat="47.5271" lon="6.75187">
        <ele>417.4</ele>
        <time>2016-12-28T13:36:51.999Z</time>
      </trkpt>
      <trkpt lat="47.5271" lon="6.75186">
        <ele>417.3</ele>
        <time>2016-12-28T13:36:52.999Z</time>
      </trkpt>
      <trkpt lat="47.52713" lon="6.75187">
        <ele>447.3</ele>
        <time>2016-12-28T13:42:59.999Z</time>
      </trkpt>
      <trkpt lat="47.52715" lon="6.75188">
        <ele>447.2</ele>
        <time>2016-12-28T13:43:00.999Z</time>
      </trkpt>
      <trkpt lat="47.52718" lon="6.75187">
        <ele>447.2</ele>
        <time>2016-12-28T13:43:03.999Z</time>
      </trkpt>
      <trkpt lat="47.5272" lon="6.75188">
        <ele>447.1</ele>
        <time>2016-12-28T13:43:04.999Z</time>
      </trkpt>
      <trkpt lat="47.52722" lon="6.75188">
        <ele>447</ele>
        <time>2016-12-28T13:43:05.999Z</time>
      </trkpt>
      <trkpt lat="47.52724" lon="6.75191">
        <ele>446.8</ele>
        <time>2016-12-28T13:43:06.999Z</time>
      </trkpt>
      <trkpt lat="47.52728" lon="6.75192">
        <ele>445.3</ele>
        <time>2016-12-28T13:43:12.999Z</time>
      </trkpt>
      <trkpt lat="47.5273" lon="6.75194">
        <ele>445.1</ele>
        <time>2016-12-28T13:43:13.999Z</time>
      </trkpt>
      <trkpt lat="47.52732" lon="6.75195">
        <ele>444.9</ele>
        <time>2016-12-28T13:43:14.999Z</time>
      </trkpt>
      <trkpt lat="47.52735" lon="6.75197">
        <ele>444.6</ele>
        <time>2016-12-28T13:43:15.999Z</time>
      </trkpt>
      <trkpt lat="47.52738" lon="6.75198">
        <ele>444.3</ele>
        <time>2016-12-28T13:43:16.999Z</time>
      </trkpt>
      <trkpt lat="47.52741" lon="6.752">
        <ele>444</ele>
        <time>2016-12-28T13:43:17.999Z</time>
      </trkpt>
      <trkpt lat="47.52744" lon="6.75202">
        <ele>443.7</ele>
        <time>2016-12-28T13:43:18.999Z</time>
      </trkpt>
      <trkpt lat="47.52746" lon="6.75204">
        <ele>443.4</ele>
        <time>2016-12-28T13:43:19.999Z</time>
      </trkpt>
      <trkpt lat="47.52749" lon="6.75205">
        <ele>443</ele>
        <time>2016-12-28T13:43:20.999Z</time>
      </trkpt>
      <trkpt lat="47.52753" lon="6.75208">
        <ele>442.7</ele>
        <time>2016-12-28T13:43:21.999Z</time>
      </trkpt>
      <trkpt lat="47.52758" lon="6.75212">
        <ele>442.3</ele>
        <time>2016-12-28T13:43:22.999Z</time>
      </trkpt>
      <trkpt lat="47.52762" lon="6.75215">
        <ele>442</ele>
        <time>2016-12-28T13:43:23.999Z</time>
      </trkpt>
      <trkpt lat="47.5277" lon="6.7522">
        <ele>441.6</ele>
        <time>2016-12-28T13:43:24.999Z</time>
      </trkpt>
      <trkpt lat="47.52772" lon="6.75225">
        <ele>436.7</ele>
        <time>2016-12-28T13:43:32.999Z</time>
      </trkpt>
      <trkpt lat="47.52773" lon="6.75226">
        <ele>435.8</ele>
        <time>2016-12-28T13:43:33.999Z</time>
      </trkpt>
      <trkpt lat="47.52778" lon="6.75226">
        <ele>434.8</ele>
        <time>2016-12-28T13:43:34.999Z</time>
      </trkpt>
      <trkpt lat="47.52782" lon="6.75227">
        <ele>433.8</ele>
        <time>2016-12-28T13:43:35.999Z</time>
      </trkpt>
      <trkpt lat="47.52787" lon="6.75228">
        <ele>432.6</ele>
        <time>2016-12-28T13:43:36.999Z</time>
      </trkpt>
      <trkpt lat="47.52791" lon="6.75229">
        <ele>431.6</ele>
        <time>2016-12-28T13:43:37.999Z</time>
      </trkpt>
      <trkpt lat="47.52796" lon="6.75231">
        <ele>430.4</ele>
        <time>2016-12-28T13:43:38.999Z</time>
      </trkpt>
      <trkpt lat="47.52802" lon="6.75233">
        <ele>429.1</ele>
        <time>2016-12-28T13:43:39.999Z</time>
      </trkpt>
      <trkpt lat="47.52806" lon="6.75235">
        <ele>427.9</ele>
        <time>2016-12-28T13:43:40.999Z</time>
      </trkpt>
      <trkpt lat="47.52812" lon="6.75238">
        <ele>426.6</ele>
        <time>2016-12-28T13:43:41.999Z</time>
      </trkpt>
      <trkpt lat="47.52817" lon="6.75242">
        <ele>425.4</ele>
        <time>2016-12-28T13:43:42.999Z</time>
      </trkpt>
      <trkpt lat="47.52822" lon="6.75244">
        <ele>424.1</ele>
        <time>2016-12-28T13:43:43.999Z</time>
      </trkpt>
      <trkpt lat="47.52826" lon="6.75244">
        <ele>422.8</ele>
        <time>2016-12-28T13:43:44.999Z</time>
      </trkpt>
      <trkpt lat="47.5283" lon="6.75244">
        <ele>421.5</ele>
        <time>2016-12-28T13:43:45.999Z</time>
      </trkpt>
      <trkpt lat="47.52833" lon="6.75243">
        <ele>420</ele>
        <time>2016-12-28T13:43:46.999Z</time>
      </trkpt>
      <trkpt lat="47.52836" lon="6.75242">
        <ele>418.7</ele>
        <time>2016-12-28T13:43:47.999Z</time>
      </trkpt>
      <trkpt lat="47.52839" lon="6.7524">
        <ele>411.3</ele>
        <time>2016-12-28T13:43:54.999Z</time>
      </trkpt>
      <trkpt lat="47.52841" lon="6.75241">
        <ele>410.2</ele>
        <time>2016-12-28T13:43:55.999Z</time>
      </trkpt>
      <trkpt lat="47.52843" lon="6.75245">
        <ele>408.3</ele>
        <time>2016-12-28T13:43:57.999Z</time>
      </trkpt>
      <trkpt lat="47.52845" lon="6.75248">
        <ele>407.3</ele>
        <time>2016-12-28T13:43:58.999Z</time>
      </trkpt>
      <trkpt lat="47.52847" lon="6.75252">
        <ele>406.4</ele>
        <time>2016-12-28T13:43:59.999Z</time>
      </trkpt>
      <trkpt lat="47.52848" lon="6.75253">
        <ele>405.5</ele>
        <time>2016-12-28T13:44:00.999Z</time>
      </trkpt>
      <trkpt lat="47.52851" lon="6.75253">
        <ele>402.4</ele>
        <time>2016-12-28T13:44:05.999Z</time>
      </trkpt>
      <trkpt lat="47.52855" lon="6.75255">
        <ele>401.8</ele>
        <time>2016-12-28T13:44:06.999Z</time>
      </trkpt>
      <trkpt lat="47.52857" lon="6.7526">
        <ele>401.2</ele>
        <time>2016-12-28T13:44:17.999Z</time>
      </trkpt>
      <trkpt lat="47.5286" lon="6.75268">
        <ele>401.2</ele>
        <time>2016-12-28T13:44:18.999Z</time>
      </trkpt>
      <trkpt lat="47.52866" lon="6.75273">
        <ele>401.2</ele>
        <time>2016-12-28T13:44:19.999Z</time>
      </trkpt>
      <trkpt lat="47.52869" lon="6.75274">
        <ele>401.1</ele>
        <time>2016-12-28T13:44:20.999Z</time>
      </trkpt>
      <trkpt lat="47.52875" lon="6.75277">
        <ele>400.9</ele>
        <time>2016-12-28T13:44:21.999Z</time>
      </trkpt>
      <trkpt lat="47.52885" lon="6.75279">
        <ele>400.8</ele>
        <time>2016-12-28T13:44:22.999Z</time>
      </trkpt>
      <trkpt lat="47.52903" lon="6.75282">
        <ele>400.6</ele>
        <time>2016-12-28T13:44:23.999Z</time>
      </trkpt>
      <trkpt lat="47.52917" lon="6.75286">
        <ele>399.6</ele>
        <time>2016-12-28T13:44:24.999Z</time>
      </trkpt>
      <trkpt lat="47.52929" lon="6.75292">
        <ele>397.2</ele>
        <time>2016-12-28T13:44:25.999Z</time>
      </trkpt>
      <trkpt lat="47.52938" lon="6.75294">
        <ele>395.8</ele>
        <time>2016-12-28T13:44:26.999Z</time>
      </trkpt>
      <trkpt lat="47.52947" lon="6.75297">
        <ele>395.6</ele>
        <time>2016-12-28T13:44:27.999Z</time>
      </trkpt>
      <trkpt lat="47.52958" lon="6.75299">
        <ele>395.4</ele>
        <time>2016-12-28T13:44:28.999Z</time>
      </trkpt>
      <trkpt lat="47.52969" lon="6.75305">
        <ele>395</ele>
        <time>2016-12-28T13:44:29.999Z</time>
      </trkpt>
      <trkpt lat="47.52985" lon="6.75311">
        <ele>394.7</ele>
        <time>2016-12-28T13:44:30.999Z</time>
      </trkpt>
      <trkpt lat="47.52988" lon="6.75311">
        <ele>394.6</ele>
        <time>2016-12-28T13:44:33.999Z</time>
      </trkpt>
      <trkpt lat="47.52993" lon="6.75314">
        <ele>394.6</ele>
        <time>2016-12-28T13:44:34.999Z</time>
      </trkpt>
      <trkpt lat="47.52998" lon="6.75316">
        <ele>394.5</ele>
        <time>2016-12-28T13:44:35.999Z</time>
      </trkpt>
      <trkpt lat="47.53003" lon="6.75317">
        <ele>394.4</ele>
        <time>2016-12-28T13:44:36.999Z</time>
      </trkpt>
      <trkpt lat="47.53017" lon="6.75318">
        <ele>394.3</ele>
        <time>2016-12-28T13:44:37.999Z</time>
      </trkpt>
      <trkpt lat="47.53024" lon="6.7532">
        <ele>394.3</ele>
        <time>2016-12-28T13:44:38.999Z</time>
      </trkpt>
      <trkpt lat="47.53032" lon="6.75323">
        <ele>394.3</ele>
        <time>2016-12-28T13:44:39.999Z</time>
      </trkpt>
      <trkpt lat="47.53039" lon="6.75325">
        <ele>394.5</ele>
        <time>2016-12-28T13:44:40.999Z</time>
      </trkpt>
      <trkpt lat="47.53045" lon="6.75329">
        <ele>394.7</ele>
        <time>2016-12-28T13:44:41.999Z</time>
      </trkpt>
      <trkpt lat="47.5305" lon="6.75332">
        <ele>394.8</ele>
        <time>2016-12-28T13:44:42.999Z</time>
      </trkpt>
      <trkpt lat="47.53051" lon="6.75332">
        <ele>395.7</ele>
        <time>2016-12-28T13:44:45.999Z</time>
      </trkpt>
      <trkpt lat="47.53055" lon="6.75334">
        <ele>396.3</ele>
        <time>2016-12-28T13:44:46.999Z</time>
      </trkpt>
      <trkpt lat="47.53059" lon="6.75336">
        <ele>397.3</ele>
        <time>2016-12-28T13:44:48.999Z</time>
      </trkpt>
      <trkpt lat="47.5306" lon="6.75337">
        <ele>397.8</ele>
        <time>2016-12-28T13:44:49.999Z</time>
      </trkpt>
      <trkpt lat="47.53062" lon="6.75338">
        <ele>399.3</ele>
        <time>2016-12-28T13:44:52.999Z</time>
      </trkpt>
      <trkpt lat="47.53064" lon="6.7534">
        <ele>400</ele>
        <time>2016-12-28T13:44:53.999Z</time>
      </trkpt>
      <trkpt lat="47.53066" lon="6.75341">
        <ele>402.1</ele>
        <time>2016-12-28T13:44:56.999Z</time>
      </trkpt>
      <trkpt lat="47.5307" lon="6.75344">
        <ele>402.7</ele>
        <time>2016-12-28T13:44:57.999Z</time>
      </trkpt>
      <trkpt lat="47.53073" lon="6.75346">
        <ele>403.8</ele>
        <time>2016-12-28T13:44:59.999Z</time>
      </trkpt>
      <trkpt lat="47.53074" lon="6.75346">
        <ele>404.4</ele>
        <time>2016-12-28T13:45:00.999Z</time>
      </trkpt>
      <trkpt lat="47.53076" lon="6.75346">
        <ele>404.8</ele>
        <time>2016-12-28T13:45:01.999Z</time>
      </trkpt>
      <trkpt lat="47.53078" lon="6.75347">
        <ele>405.2</ele>
        <time>2016-12-28T13:45:02.999Z</time>
      </trkpt>
      <trkpt lat="47.53082" lon="6.75348">
        <ele>406</ele>
        <time>2016-12-28T13:45:06.999Z</time>
      </trkpt>
      <trkpt lat="47.53085" lon="6.75349">
        <ele>406.2</ele>
        <time>2016-12-28T13:45:07.999Z</time>
      </trkpt>
      <trkpt lat="47.53089" lon="6.7535">
        <ele>406.4</ele>
        <time>2016-12-28T13:45:09.999Z</time>
      </trkpt>
      <trkpt lat="47.53091" lon="6.75351">
        <ele>406.5</ele>
        <time>2016-12-28T13:45:10.999Z</time>
      </trkpt>
      <trkpt lat="47.53093" lon="6.75352">
        <ele>406.6</ele>
        <time>2016-12-28T13:45:11.999Z</time>
      </trkpt>
      <trkpt lat="47.53095" lon="6.75354">
        <ele>406.6</ele>
        <time>2016-12-28T13:45:12.999Z</time>
      </trkpt>
      <trkpt lat="47.53098" lon="6.75355">
        <ele>406.5</ele>
        <time>2016-12-28T13:45:13.999Z</time>
      </trkpt>
      <trkpt lat="47.53099" lon="6.75355">
        <ele>406.6</ele>
        <time>2016-12-28T13:45:14.999Z</time>
      </trkpt>
      <trkpt lat="47.53102" lon="6.75356">
        <ele>406.7</ele>
        <time>2016-12-28T13:45:17.999Z</time>
      </trkpt>
      <trkpt lat="47.53104" lon="6.75357">
        <ele>406.8</ele>
        <time>2016-12-28T13:45:18.999Z</time>
      </trkpt>
      <trkpt lat="47.53108" lon="6.75358">
        <ele>407.4</ele>
        <time>2016-12-28T13:45:22.999Z</time>
      </trkpt>
      <trkpt lat="47.5311" lon="6.75359">
        <ele>407.4</ele>
        <time>2016-12-28T13:45:23.999Z</time>
      </trkpt>
      <trkpt lat="47.53113" lon="6.75361">
        <ele>408.2</ele>
        <time>2016-12-28T13:45:30.999Z</time>
      </trkpt>
      <trkpt lat="47.53115" lon="6.75363">
        <ele>408.3</ele>
        <time>2016-12-28T13:45:31.999Z</time>
      </trkpt>
      <trkpt lat="47.53119" lon="6.75364">
        <ele>408.9</ele>
        <time>2016-12-28T13:45:35.999Z</time>
      </trkpt>
      <trkpt lat="47.53121" lon="6.75365">
        <ele>409.1</ele>
        <time>2016-12-28T13:45:36.999Z</time>
      </trkpt>
      <trkpt lat="47.53125" lon="6.75367">
        <ele>409.6</ele>
        <time>2016-12-28T13:45:38.999Z</time>
      </trkpt>
      <trkpt lat="47.53128" lon="6.75368">
        <ele>409.8</ele>
        <time>2016-12-28T13:45:39.999Z</time>
      </trkpt>
      <trkpt lat="47.53131" lon="6.75369">
        <ele>410.9</ele>
        <time>2016-12-28T13:45:42.999Z</time>
      </trkpt>
      <trkpt lat="47.53133" lon="6.7537">
        <ele>411.2</ele>
        <time>2016-12-28T13:45:43.999Z</time>
      </trkpt>
      <trkpt lat="47.53137" lon="6.75369">
        <ele>412.8</ele>
        <time>2016-12-28T13:45:49.999Z</time>
      </trkpt>
      <trkpt lat="47.53138" lon="6.75369">
        <ele>413.1</ele>
        <time>2016-12-28T13:45:50.999Z</time>
      </trkpt>
      <trkpt lat="47.53142" lon="6.75371">
        <ele>413.5</ele>
        <time>2016-12-28T13:45:52.999Z</time>
      </trkpt>
      <trkpt lat="47.53145" lon="6.75372">
        <ele>413.9</ele>
        <time>2016-12-28T13:45:53.999Z</time>
      </trkpt>
      <trkpt lat="47.53149" lon="6.75374">
        <ele>414.5</ele>
        <time>2016-12-28T13:45:56.999Z</time>
      </trkpt>
      <trkpt lat="47.5315" lon="6.75375">
        <ele>414.7</ele>
        <time>2016-12-28T13:45:57.999Z</time>
      </trkpt>
      <trkpt lat="47.53153" lon="6.75377">
        <ele>415.1</ele>
        <time>2016-12-28T13:45:58.999Z</time>
      </trkpt>
      <trkpt lat="47.53156" lon="6.75378">
        <ele>415.5</ele>
        <time>2016-12-28T13:45:59.999Z</time>
      </trkpt>
      <trkpt lat="47.5316" lon="6.75379">
        <ele>416.2</ele>
        <time>2016-12-28T13:46:03.999Z</time>
      </trkpt>
      <trkpt lat="47.53162" lon="6.7538">
        <ele>416.6</ele>
        <time>2016-12-28T13:46:04.999Z</time>
      </trkpt>
      <trkpt lat="47.53165" lon="6.75382">
        <ele>419.1</ele>
        <time>2016-12-28T13:46:10.999Z</time>
      </trkpt>
      <trkpt lat="47.53168" lon="6.75384">
        <ele>419.5</ele>
        <time>2016-12-28T13:46:11.999Z</time>
      </trkpt>
      <trkpt lat="47.53173" lon="6.75383">
        <ele>421.2</ele>
        <time>2016-12-28T13:46:17.999Z</time>
      </trkpt>
      <trkpt lat="47.53174" lon="6.75383">
        <ele>421.4</ele>
        <time>2016-12-28T13:46:18.999Z</time>
      </trkpt>
      <trkpt lat="47.53176" lon="6.75382">
        <ele>421.7</ele>
        <time>2016-12-28T13:46:20.999Z</time>
      </trkpt>
      <trkpt lat="47.53179" lon="6.75382">
        <ele>421.8</ele>
        <time>2016-12-28T13:46:21.999Z</time>
      </trkpt>
      <trkpt lat="47.53182" lon="6.75383">
        <ele>422</ele>
        <time>2016-12-28T13:46:22.999Z</time>
      </trkpt>
      <trkpt lat="47.53185" lon="6.75386">
        <ele>422.2</ele>
        <time>2016-12-28T13:46:23.999Z</time>
      </trkpt>
      <trkpt lat="47.53188" lon="6.75388">
        <ele>422.3</ele>
        <time>2016-12-28T13:46:24.999Z</time>
      </trkpt>
      <trkpt lat="47.53189" lon="6.7539">
        <ele>422.4</ele>
        <time>2016-12-28T13:46:25.999Z</time>
      </trkpt>
      <trkpt lat="47.53193" lon="6.75391">
        <ele>422.6</ele>
        <time>2016-12-28T13:46:27.999Z</time>
      </trkpt>
      <trkpt lat="47.53194" lon="6.75392">
        <ele>422.7</ele>
        <time>2016-12-28T13:46:28.999Z</time>
      </trkpt>
      <trkpt lat="47.53198" lon="6.75393">
        <ele>423.4</ele>
        <time>2016-12-28T13:46:32.999Z</time>
      </trkpt>
      <trkpt lat="47.532" lon="6.75394">
        <ele>423.6</ele>
        <time>2016-12-28T13:46:33.999Z</time>
      </trkpt>
      <trkpt lat="47.53203" lon="6.75396">
        <ele>424.4</ele>
        <time>2016-12-28T13:46:37.999Z</time>
      </trkpt>
      <trkpt lat="47.53204" lon="6.75398">
        <ele>424.7</ele>
        <time>2016-12-28T13:46:38.999Z</time>
      </trkpt>
      <trkpt lat="47.53206" lon="6.754">
        <ele>425</ele>
        <time>2016-12-28T13:46:39.999Z</time>
      </trkpt>
      <trkpt lat="47.5321" lon="6.754">
        <ele>425.2</ele>
        <time>2016-12-28T13:46:40.999Z</time>
      </trkpt>
      <trkpt lat="47.53214" lon="6.75401">
        <ele>425.7</ele>
        <time>2016-12-28T13:46:43.999Z</time>
      </trkpt>
      <trkpt lat="47.53215" lon="6.75401">
        <ele>425.8</ele>
        <time>2016-12-28T13:46:44.999Z</time>
      </trkpt>
      <trkpt lat="47.53219" lon="6.75402">
        <ele>426.4</ele>
        <time>2016-12-28T13:46:46.999Z</time>
      </trkpt>
      <trkpt lat="47.53222" lon="6.75403">
        <ele>426.5</ele>
        <time>2016-12-28T13:46:47.999Z</time>
      </trkpt>
      <trkpt lat="47.53225" lon="6.75405">
        <ele>426.7</ele>
        <time>2016-12-28T13:46:51.999Z</time>
      </trkpt>
      <trkpt lat="47.53227" lon="6.75405">
        <ele>426.6</ele>
        <time>2016-12-28T13:46:52.999Z</time>
      </trkpt>
      <trkpt lat="47.5323" lon="6.75403">
        <ele>426.2</ele>
        <time>2016-12-28T13:46:54.999Z</time>
      </trkpt>
      <trkpt lat="47.53231" lon="6.75401">
        <ele>425.9</ele>
        <time>2016-12-28T13:46:55.999Z</time>
      </trkpt>
      <trkpt lat="47.53233" lon="6.75397">
        <ele>424.9</ele>
        <time>2016-12-28T13:46:57.999Z</time>
      </trkpt>
      <trkpt lat="47.53235" lon="6.75396">
        <ele>424.5</ele>
        <time>2016-12-28T13:46:58.999Z</time>
      </trkpt>
      <trkpt lat="47.53237" lon="6.75393">
        <ele>423.4</ele>
        <time>2016-12-28T13:47:01.999Z</time>
      </trkpt>
      <trkpt lat="47.53239" lon="6.75393">
        <ele>423.1</ele>
        <time>2016-12-28T13:47:02.999Z</time>
      </trkpt>
      <trkpt lat="47.53242" lon="6.75389">
        <ele>422.1</ele>
        <time>2016-12-28T13:47:06.999Z</time>
      </trkpt>
      <trkpt lat="47.53245" lon="6.75386">
        <ele>421.8</ele>
        <time>2016-12-28T13:47:07.999Z</time>
      </trkpt>
      <trkpt lat="47.53247" lon="6.75382">
        <ele>421.5</ele>
        <time>2016-12-28T13:47:14.999Z</time>
      </trkpt>
      <trkpt lat="47.53248" lon="6.75379">
        <ele>421.4</ele>
        <time>2016-12-28T13:47:15.999Z</time>
      </trkpt>
      <trkpt lat="47.5325" lon="6.75376">
        <ele>421.2</ele>
        <time>2016-12-28T13:47:16.999Z</time>
      </trkpt>
      <trkpt lat="47.53251" lon="6.75372">
        <ele>420.9</ele>
        <time>2016-12-28T13:47:17.999Z</time>
      </trkpt>
      <trkpt lat="47.53253" lon="6.75369">
        <ele>420.3</ele>
        <time>2016-12-28T13:47:20.999Z</time>
      </trkpt>
      <trkpt lat="47.53255" lon="6.75368">
        <ele>420.2</ele>
        <time>2016-12-28T13:47:21.999Z</time>
      </trkpt>
      <trkpt lat="47.53258" lon="6.75365">
        <ele>420.1</ele>
        <time>2016-12-28T13:47:23.999Z</time>
      </trkpt>
      <trkpt lat="47.53259" lon="6.75364">
        <ele>420.1</ele>
        <time>2016-12-28T13:47:24.999Z</time>
      </trkpt>
      <trkpt lat="47.53262" lon="6.7536">
        <ele>423.1</ele>
        <time>2016-12-28T13:47:36.999Z</time>
      </trkpt>
      <trkpt lat="47.53264" lon="6.75358">
        <ele>423.8</ele>
        <time>2016-12-28T13:47:37.999Z</time>
      </trkpt>
      <trkpt lat="47.53267" lon="6.75355">
        <ele>425.1</ele>
        <time>2016-12-28T13:47:39.999Z</time>
      </trkpt>
      <trkpt lat="47.53269" lon="6.75355">
        <ele>425.8</ele>
        <time>2016-12-28T13:47:40.999Z</time>
      </trkpt>
      <trkpt lat="47.53272" lon="6.75353">
        <ele>428.1</ele>
        <time>2016-12-28T13:47:44.999Z</time>
      </trkpt>
      <trkpt lat="47.53274" lon="6.75352">
        <ele>428.6</ele>
        <time>2016-12-28T13:47:45.999Z</time>
      </trkpt>
      <trkpt lat="47.53276" lon="6.7535">
        <ele>429.1</ele>
        <time>2016-12-28T13:47:46.999Z</time>
      </trkpt>
      <trkpt lat="47.53278" lon="6.75348">
        <ele>429.6</ele>
        <time>2016-12-28T13:47:47.999Z</time>
      </trkpt>
      <trkpt lat="47.53281" lon="6.75347">
        <ele>430.1</ele>
        <time>2016-12-28T13:47:48.999Z</time>
      </trkpt>
      <trkpt lat="47.53283" lon="6.75345">
        <ele>430.6</ele>
        <time>2016-12-28T13:47:49.999Z</time>
      </trkpt>
      <trkpt lat="47.53285" lon="6.75344">
        <ele>431</ele>
        <time>2016-12-28T13:47:50.999Z</time>
      </trkpt>
      <trkpt lat="47.53287" lon="6.75343">
        <ele>431.4</ele>
        <time>2016-12-28T13:47:51.999Z</time>
      </trkpt>
      <trkpt lat="47.53294" lon="6.75339">
        <ele>431.8</ele>
        <time>2016-12-28T13:47:52.999Z</time>
      </trkpt>
      <trkpt lat="47.53297" lon="6.75337">
        <ele>432.1</ele>
        <time>2016-12-28T13:47:53.999Z</time>
      </trkpt>
      <trkpt lat="47.53298" lon="6.75335">
        <ele>432.5</ele>
        <time>2016-12-28T13:47:54.999Z</time>
      </trkpt>
      <trkpt lat="47.53302" lon="6.75332">
        <ele>433.1</ele>
        <time>2016-12-28T13:47:56.999Z</time>
      </trkpt>
      <trkpt lat="47.53303" lon="6.7533">
        <ele>433.3</ele>
        <time>2016-12-28T13:47:57.999Z</time>
      </trkpt>
      <trkpt lat="47.53306" lon="6.75327">
        <ele>434</ele>
        <time>2016-12-28T13:48:01.999Z</time>
      </trkpt>
      <trkpt lat="47.53307" lon="6.75327">
        <ele>434.2</ele>
        <time>2016-12-28T13:48:02.999Z</time>
      </trkpt>
      <trkpt lat="47.53311" lon="6.75324">
        <ele>434.4</ele>
        <time>2016-12-28T13:48:06.999Z</time>
      </trkpt>
      <trkpt lat="47.53312" lon="6.75323">
        <ele>434.4</ele>
        <time>2016-12-28T13:48:07.999Z</time>
      </trkpt>
      <trkpt lat="47.53315" lon="6.7532">
        <ele>434.8</ele>
        <time>2016-12-28T13:48:11.999Z</time>
      </trkpt>
      <trkpt lat="47.53316" lon="6.75319">
        <ele>434.9</ele>
        <time>2016-12-28T13:48:12.999Z</time>
      </trkpt>
      <trkpt lat="47.53318" lon="6.75314">
        <ele>435</ele>
        <time>2016-12-28T13:48:16.999Z</time>
      </trkpt>
      <trkpt lat="47.53319" lon="6.75312">
        <ele>435</ele>
        <time>2016-12-28T13:48:17.999Z</time>
      </trkpt>
      <trkpt lat="47.53323" lon="6.75309">
        <ele>434.4</ele>
        <time>2016-12-28T13:48:25.999Z</time>
      </trkpt>
      <trkpt lat="47.53324" lon="6.7531">
        <ele>434.4</ele>
        <time>2016-12-28T13:48:26.999Z</time>
      </trkpt>
      <trkpt lat="47.53327" lon="6.75308">
        <ele>433.2</ele>
        <time>2016-12-28T13:48:41.999Z</time>
      </trkpt>
      <trkpt lat="47.53329" lon="6.75309">
        <ele>433.3</ele>
        <time>2016-12-28T13:48:42.999Z</time>
      </trkpt>
      <trkpt lat="47.53332" lon="6.75307">
        <ele>434</ele>
        <time>2016-12-28T13:48:50.999Z</time>
      </trkpt>
      <trkpt lat="47.53334" lon="6.75307">
        <ele>434.3</ele>
        <time>2016-12-28T13:48:51.999Z</time>
      </trkpt>
      <trkpt lat="47.53336" lon="6.75306">
        <ele>434.5</ele>
        <time>2016-12-28T13:48:52.999Z</time>
      </trkpt>
      <trkpt lat="47.53339" lon="6.75306">
        <ele>434.7</ele>
        <time>2016-12-28T13:48:53.999Z</time>
      </trkpt>
      <trkpt lat="47.53342" lon="6.75304">
        <ele>434.7</ele>
        <time>2016-12-28T13:48:54.999Z</time>
      </trkpt>
      <trkpt lat="47.53347" lon="6.75303">
        <ele>434.8</ele>
        <time>2016-12-28T13:48:55.999Z</time>
      </trkpt>
      <trkpt lat="47.5335" lon="6.75301">
        <ele>435.4</ele>
        <time>2016-12-28T13:48:58.999Z</time>
      </trkpt>
      <trkpt lat="47.53352" lon="6.753">
        <ele>435.7</ele>
        <time>2016-12-28T13:48:59.999Z</time>
      </trkpt>
      <trkpt lat="47.53355" lon="6.75299">
        <ele>436.1</ele>
        <time>2016-12-28T13:49:00.999Z</time>
      </trkpt>
      <trkpt lat="47.53359" lon="6.75297">
        <ele>436.5</ele>
        <time>2016-12-28T13:49:01.999Z</time>
      </trkpt>
      <trkpt lat="47.53361" lon="6.75296">
        <ele>437</ele>
        <time>2016-12-28T13:49:02.999Z</time>
      </trkpt>
      <trkpt lat="47.53364" lon="6.75295">
        <ele>437.5</ele>
        <time>2016-12-28T13:49:03.999Z</time>
      </trkpt>
      <trkpt lat="47.53368" lon="6.75293">
        <ele>439.5</ele>
        <time>2016-12-28T13:49:09.999Z</time>
      </trkpt>
      <trkpt lat="47.5337" lon="6.75293">
        <ele>439.6</ele>
        <time>2016-12-28T13:49:10.999Z</time>
      </trkpt>
      <trkpt lat="47.53374" lon="6.7529">
        <ele>439.8</ele>
        <time>2016-12-28T13:49:12.999Z</time>
      </trkpt>
      <trkpt lat="47.53376" lon="6.75289">
        <ele>439.8</ele>
        <time>2016-12-28T13:49:13.999Z</time>
      </trkpt>
      <trkpt lat="47.53378" lon="6.75288">
        <ele>439.9</ele>
        <time>2016-12-28T13:49:14.999Z</time>
      </trkpt>
      <trkpt lat="47.53381" lon="6.75287">
        <ele>440</ele>
        <time>2016-12-28T13:49:15.999Z</time>
      </trkpt>
      <trkpt lat="47.53384" lon="6.75286">
        <ele>440.4</ele>
        <time>2016-12-28T13:49:18.999Z</time>
      </trkpt>
      <trkpt lat="47.53386" lon="6.75285">
        <ele>440.5</ele>
        <time>2016-12-28T13:49:19.999Z</time>
      </trkpt>
      <trkpt lat="47.53389" lon="6.75283">
        <ele>440.5</ele>
        <time>2016-12-28T13:49:20.999Z</time>
      </trkpt>
      <trkpt lat="47.53391" lon="6.75282">
        <ele>440.6</ele>
        <time>2016-12-28T13:49:21.999Z</time>
      </trkpt>
      <trkpt lat="47.53393" lon="6.75281">
        <ele>440.6</ele>
        <time>2016-12-28T13:49:23.999Z</time>
      </trkpt>
      <trkpt lat="47.53396" lon="6.75279">
        <ele>440.6</ele>
        <time>2016-12-28T13:49:24.999Z</time>
      </trkpt>
      <trkpt lat="47.53398" lon="6.75278">
        <ele>440.6</ele>
        <time>2016-12-28T13:49:25.999Z</time>
      </trkpt>
      <trkpt lat="47.534" lon="6.75276">
        <ele>440.5</ele>
        <time>2016-12-28T13:49:26.999Z</time>
      </trkpt>
      <trkpt lat="47.53404" lon="6.75275">
        <ele>440.6</ele>
        <time>2016-12-28T13:49:28.999Z</time>
      </trkpt>
      <trkpt lat="47.53406" lon="6.75274">
        <ele>440.7</ele>
        <time>2016-12-28T13:49:29.999Z</time>
      </trkpt>
      <trkpt lat="47.5341" lon="6.75271">
        <ele>440.5</ele>
        <time>2016-12-28T13:49:34.999Z</time>
      </trkpt>
      <trkpt lat="47.53412" lon="6.7527">
        <ele>440.5</ele>
        <time>2016-12-28T13:49:35.999Z</time>
      </trkpt>
      <trkpt lat="47.53414" lon="6.7527">
        <ele>440.4</ele>
        <time>2016-12-28T13:49:36.999Z</time>
      </trkpt>
      <trkpt lat="47.53417" lon="6.7527">
        <ele>440.4</ele>
        <time>2016-12-28T13:49:37.999Z</time>
      </trkpt>
      <trkpt lat="47.53421" lon="6.75268">
        <ele>440.5</ele>
        <time>2016-12-28T13:49:39.999Z</time>
      </trkpt>
      <trkpt lat="47.53423" lon="6.75266">
        <ele>440.8</ele>
        <time>2016-12-28T13:49:40.999Z</time>
      </trkpt>
      <trkpt lat="47.53427" lon="6.75264">
        <ele>442.6</ele>
        <time>2016-12-28T13:49:46.999Z</time>
      </trkpt>
      <trkpt lat="47.53428" lon="6.75263">
        <ele>442.8</ele>
        <time>2016-12-28T13:49:47.999Z</time>
      </trkpt>
      <trkpt lat="47.53432" lon="6.75263">
        <ele>443.1</ele>
        <time>2016-12-28T13:49:48.999Z</time>
      </trkpt>
      <trkpt lat="47.53435" lon="6.75263">
        <ele>443.3</ele>
        <time>2016-12-28T13:49:49.999Z</time>
      </trkpt>
      <trkpt lat="47.53439" lon="6.75263">
        <ele>443.6</ele>
        <time>2016-12-28T13:49:50.999Z</time>
      </trkpt>
      <trkpt lat="47.53442" lon="6.75263">
        <ele>443.8</ele>
        <time>2016-12-28T13:49:51.999Z</time>
      </trkpt>
      <trkpt lat="47.53445" lon="6.75262">
        <ele>444.3</ele>
        <time>2016-12-28T13:49:54.999Z</time>
      </trkpt>
      <trkpt lat="47.53447" lon="6.75263">
        <ele>444.4</ele>
        <time>2016-12-28T13:49:55.999Z</time>
      </trkpt>
      <trkpt lat="47.53449" lon="6.75264">
        <ele>445.2</ele>
        <time>2016-12-28T13:50:02.999Z</time>
      </trkpt>
      <trkpt lat="47.53461" lon="6.75265">
        <ele>445.3</ele>
        <time>2016-12-28T13:50:03.999Z</time>
      </trkpt>
      <trkpt lat="47.53465" lon="6.75267">
        <ele>445.4</ele>
        <time>2016-12-28T13:50:04.999Z</time>
      </trkpt>
      <trkpt lat="47.53468" lon="6.75269">
        <ele>445.5</ele>
        <time>2016-12-28T13:50:05.999Z</time>
      </trkpt>
      <trkpt lat="47.53471" lon="6.75269">
        <ele>445.7</ele>
        <time>2016-12-28T13:50:06.999Z</time>
      </trkpt>
      <trkpt lat="47.53476" lon="6.75268">
        <ele>445.8</ele>
        <time>2016-12-28T13:50:07.999Z</time>
      </trkpt>
      <trkpt lat="47.53479" lon="6.75269">
        <ele>445.8</ele>
        <time>2016-12-28T13:50:08.999Z</time>
      </trkpt>
      <trkpt lat="47.53482" lon="6.75269">
        <ele>445.8</ele>
        <time>2016-12-28T13:50:09.999Z</time>
      </trkpt>
      <trkpt lat="47.53486" lon="6.75269">
        <ele>446</ele>
        <time>2016-12-28T13:50:11.999Z</time>
      </trkpt>
      <trkpt lat="47.53487" lon="6.75269">
        <ele>446</ele>
        <time>2016-12-28T13:50:12.999Z</time>
      </trkpt>
      <trkpt lat="47.53491" lon="6.75268">
        <ele>445.9</ele>
        <time>2016-12-28T13:50:16.999Z</time>
      </trkpt>
      <trkpt lat="47.53492" lon="6.75268">
        <ele>445.9</ele>
        <time>2016-12-28T13:50:17.999Z</time>
      </trkpt>
      <trkpt lat="47.53496" lon="6.75266">
        <ele>445.7</ele>
        <time>2016-12-28T13:50:22.999Z</time>
      </trkpt>
      <trkpt lat="47.53497" lon="6.75267">
        <ele>445.5</ele>
        <time>2016-12-28T13:50:23.999Z</time>
      </trkpt>
      <trkpt lat="47.535" lon="6.75267">
        <ele>445</ele>
        <time>2016-12-28T13:50:25.999Z</time>
      </trkpt>
      <trkpt lat="47.53502" lon="6.75267">
        <ele>444.8</ele>
        <time>2016-12-28T13:50:26.999Z</time>
      </trkpt>
      <trkpt lat="47.53505" lon="6.75267">
        <ele>444.4</ele>
        <time>2016-12-28T13:50:29.999Z</time>
      </trkpt>
      <trkpt lat="47.53506" lon="6.75267">
        <ele>444.5</ele>
        <time>2016-12-28T13:50:30.999Z</time>
      </trkpt>
      <trkpt lat="47.53511" lon="6.75268">
        <ele>444.5</ele>
        <time>2016-12-28T13:50:31.999Z</time>
      </trkpt>
      <trkpt lat="47.53512" lon="6.75269">
        <ele>444.6</ele>
        <time>2016-12-28T13:50:32.999Z</time>
      </trkpt>
      <trkpt lat="47.53516" lon="6.75268">
        <ele>444.8</ele>
        <time>2016-12-28T13:50:34.999Z</time>
      </trkpt>
      <trkpt lat="47.53519" lon="6.75267">
        <ele>444.9</ele>
        <time>2016-12-28T13:50:35.999Z</time>
      </trkpt>
      <trkpt lat="47.53523" lon="6.75267">
        <ele>445.1</ele>
        <time>2016-12-28T13:50:36.999Z</time>
      </trkpt>
      <trkpt lat="47.53527" lon="6.75267">
        <ele>445.3</ele>
        <time>2016-12-28T13:50:37.999Z</time>
      </trkpt>
      <trkpt lat="47.53531" lon="6.75267">
        <ele>445.7</ele>
        <time>2016-12-28T13:50:39.999Z</time>
      </trkpt>
      <trkpt lat="47.53532" lon="6.75267">
        <ele>445.9</ele>
        <time>2016-12-28T13:50:40.999Z</time>
      </trkpt>
      <trkpt lat="47.53535" lon="6.75267">
        <ele>446.1</ele>
        <time>2016-12-28T13:50:42.999Z</time>
      </trkpt>
      <trkpt lat="47.53537" lon="6.75267">
        <ele>446.4</ele>
        <time>2016-12-28T13:50:43.999Z</time>
      </trkpt>
      <trkpt lat="47.53541" lon="6.75266">
        <ele>446.9</ele>
        <time>2016-12-28T13:50:48.999Z</time>
      </trkpt>
      <trkpt lat="47.53543" lon="6.75266">
        <ele>447</ele>
        <time>2016-12-28T13:50:49.999Z</time>
      </trkpt>
      <trkpt lat="47.53546" lon="6.75265">
        <ele>446.9</ele>
        <time>2016-12-28T13:50:52.999Z</time>
      </trkpt>
      <trkpt lat="47.53547" lon="6.75265">
        <ele>446.8</ele>
        <time>2016-12-28T13:50:53.999Z</time>
      </trkpt>
      <trkpt lat="47.53551" lon="6.75263">
        <ele>446.3</ele>
        <time>2016-12-28T13:50:57.999Z</time>
      </trkpt>
      <trkpt lat="47.53552" lon="6.75263">
        <ele>446.3</ele>
        <time>2016-12-28T13:50:58.999Z</time>
      </trkpt>
      <trkpt lat="47.53554" lon="6.75262">
        <ele>446.3</ele>
        <time>2016-12-28T13:50:59.999Z</time>
      </trkpt>
      <trkpt lat="47.53557" lon="6.75261">
        <ele>446.4</ele>
        <time>2016-12-28T13:51:00.999Z</time>
      </trkpt>
      <trkpt lat="47.5356" lon="6.75259">
        <ele>446.4</ele>
        <time>2016-12-28T13:51:01.999Z</time>
      </trkpt>
      <trkpt lat="47.53563" lon="6.75258">
        <ele>446.5</ele>
        <time>2016-12-28T13:51:02.999Z</time>
      </trkpt>
      <trkpt lat="47.53566" lon="6.75257">
        <ele>446.6</ele>
        <time>2016-12-28T13:51:03.999Z</time>
      </trkpt>
      <trkpt lat="47.53568" lon="6.75256">
        <ele>446.6</ele>
        <time>2016-12-28T13:51:04.999Z</time>
      </trkpt>
      <trkpt lat="47.53573" lon="6.75254">
        <ele>446.6</ele>
        <time>2016-12-28T13:51:07.999Z</time>
      </trkpt>
      <trkpt lat="47.53575" lon="6.75254">
        <ele>446.6</ele>
        <time>2016-12-28T13:51:08.999Z</time>
      </trkpt>
      <trkpt lat="47.53577" lon="6.75252">
        <ele>446.7</ele>
        <time>2016-12-28T13:51:09.999Z</time>
      </trkpt>
      <trkpt lat="47.5358" lon="6.75251">
        <ele>446.8</ele>
        <time>2016-12-28T13:51:10.999Z</time>
      </trkpt>
      <trkpt lat="47.53583" lon="6.75251">
        <ele>446.9</ele>
        <time>2016-12-28T13:51:11.999Z</time>
      </trkpt>
      <trkpt lat="47.53586" lon="6.7525">
        <ele>447.2</ele>
        <time>2016-12-28T13:51:12.999Z</time>
      </trkpt>
      <trkpt lat="47.5359" lon="6.75248">
        <ele>447.5</ele>
        <time>2016-12-28T13:51:13.999Z</time>
      </trkpt>
      <trkpt lat="47.53594" lon="6.75247">
        <ele>447.7</ele>
        <time>2016-12-28T13:51:14.999Z</time>
      </trkpt>
      <trkpt lat="47.53596" lon="6.75246">
        <ele>447.9</ele>
        <time>2016-12-28T13:51:15.999Z</time>
      </trkpt>
      <trkpt lat="47.53599" lon="6.75245">
        <ele>448</ele>
        <time>2016-12-28T13:51:16.999Z</time>
      </trkpt>
      <trkpt lat="47.53603" lon="6.75245">
        <ele>449.2</ele>
        <time>2016-12-28T13:51:24.999Z</time>
      </trkpt>
      <trkpt lat="47.53605" lon="6.75246">
        <ele>449.4</ele>
        <time>2016-12-28T13:51:25.999Z</time>
      </trkpt>
      <trkpt lat="47.53608" lon="6.75247">
        <ele>449.9</ele>
        <time>2016-12-28T13:51:27.999Z</time>
      </trkpt>
      <trkpt lat="47.5361" lon="6.75248">
        <ele>450</ele>
        <time>2016-12-28T13:51:28.999Z</time>
      </trkpt>
      <trkpt lat="47.53614" lon="6.75249">
        <ele>451</ele>
        <time>2016-12-28T13:51:31.999Z</time>
      </trkpt>
      <trkpt lat="47.53616" lon="6.7525">
        <ele>451.3</ele>
        <time>2016-12-28T13:51:32.999Z</time>
      </trkpt>
      <trkpt lat="47.5362" lon="6.7525">
        <ele>452.7</ele>
        <time>2016-12-28T13:51:39.999Z</time>
      </trkpt>
      <trkpt lat="47.53621" lon="6.75248">
        <ele>452.9</ele>
        <time>2016-12-28T13:51:40.999Z</time>
      </trkpt>
      <trkpt lat="47.53624" lon="6.75246">
        <ele>453</ele>
        <time>2016-12-28T13:51:42.999Z</time>
      </trkpt>
      <trkpt lat="47.53626" lon="6.75244">
        <ele>453.1</ele>
        <time>2016-12-28T13:51:43.999Z</time>
      </trkpt>
      <trkpt lat="47.5363" lon="6.75242">
        <ele>453.4</ele>
        <time>2016-12-28T13:51:45.999Z</time>
      </trkpt>
      <trkpt lat="47.53632" lon="6.75241">
        <ele>453.6</ele>
        <time>2016-12-28T13:51:46.999Z</time>
      </trkpt>
      <trkpt lat="47.53636" lon="6.75239">
        <ele>454</ele>
        <time>2016-12-28T13:51:48.999Z</time>
      </trkpt>
      <trkpt lat="47.53638" lon="6.75238">
        <ele>454.3</ele>
        <time>2016-12-28T13:51:49.999Z</time>
      </trkpt>
      <trkpt lat="47.53642" lon="6.75235">
        <ele>454.8</ele>
        <time>2016-12-28T13:51:51.999Z</time>
      </trkpt>
      <trkpt lat="47.53644" lon="6.75234">
        <ele>455</ele>
        <time>2016-12-28T13:51:52.999Z</time>
      </trkpt>
      <trkpt lat="47.53646" lon="6.75232">
        <ele>455.5</ele>
        <time>2016-12-28T13:51:55.999Z</time>
      </trkpt>
      <trkpt lat="47.53648" lon="6.7523">
        <ele>455.7</ele>
        <time>2016-12-28T13:51:56.999Z</time>
      </trkpt>
      <trkpt lat="47.53651" lon="6.75227">
        <ele>455.9</ele>
        <time>2016-12-28T13:52:04.999Z</time>
      </trkpt>
      <trkpt lat="47.53652" lon="6.75226">
        <ele>456</ele>
        <time>2016-12-28T13:52:05.999Z</time>
      </trkpt>
      <trkpt lat="47.53655" lon="6.75224">
        <ele>456.1</ele>
        <time>2016-12-28T13:52:06.999Z</time>
      </trkpt>
      <trkpt lat="47.53657" lon="6.75223">
        <ele>456.2</ele>
        <time>2016-12-28T13:52:07.999Z</time>
      </trkpt>
      <trkpt lat="47.53659" lon="6.75221">
        <ele>456.4</ele>
        <time>2016-12-28T13:52:08.999Z</time>
      </trkpt>
      <trkpt lat="47.53661" lon="6.7522">
        <ele>456.6</ele>
        <time>2016-12-28T13:52:09.999Z</time>
      </trkpt>
      <trkpt lat="47.53664" lon="6.75217">
        <ele>457</ele>
        <time>2016-12-28T13:52:11.999Z</time>
      </trkpt>
      <trkpt lat="47.53666" lon="6.75216">
        <ele>457</ele>
        <time>2016-12-28T13:52:12.999Z</time>
      </trkpt>
      <trkpt lat="47.53668" lon="6.75212">
        <ele>457.2</ele>
        <time>2016-12-28T13:52:14.999Z</time>
      </trkpt>
      <trkpt lat="47.53669" lon="6.75211">
        <ele>457.4</ele>
        <time>2016-12-28T13:52:15.999Z</time>
      </trkpt>
      <trkpt lat="47.53672" lon="6.75205">
        <ele>457.5</ele>
        <time>2016-12-28T13:52:19.999Z</time>
      </trkpt>
      <trkpt lat="47.53672" lon="6.75203">
        <ele>457.5</ele>
        <time>2016-12-28T13:52:20.999Z</time>
      </trkpt>
      <trkpt lat="47.53674" lon="6.75199">
        <ele>457.3</ele>
        <time>2016-12-28T13:52:23.999Z</time>
      </trkpt>
      <trkpt lat="47.53675" lon="6.75197">
        <ele>457.3</ele>
        <time>2016-12-28T13:52:24.999Z</time>
      </trkpt>
      <trkpt lat="47.53677" lon="6.75196">
        <ele>457.2</ele>
        <time>2016-12-28T13:52:26.999Z</time>
      </trkpt>
      <trkpt lat="47.53679" lon="6.75193">
        <ele>457</ele>
        <time>2016-12-28T13:52:27.999Z</time>
      </trkpt>
      <trkpt lat="47.53681" lon="6.75189">
        <ele>456.8</ele>
        <time>2016-12-28T13:52:29.999Z</time>
      </trkpt>
      <trkpt lat="47.53683" lon="6.75186">
        <ele>456.7</ele>
        <time>2016-12-28T13:52:30.999Z</time>
      </trkpt>
      <trkpt lat="47.53685" lon="6.75181">
        <ele>456.7</ele>
        <time>2016-12-28T13:52:33.999Z</time>
      </trkpt>
      <trkpt lat="47.53685" lon="6.75179">
        <ele>456.8</ele>
        <time>2016-12-28T13:52:34.999Z</time>
      </trkpt>
      <trkpt lat="47.53687" lon="6.75174">
        <ele>456.9</ele>
        <time>2016-12-28T13:52:36.999Z</time>
      </trkpt>
      <trkpt lat="47.53688" lon="6.75172">
        <ele>456.9</ele>
        <time>2016-12-28T13:52:37.999Z</time>
      </trkpt>
      <trkpt lat="47.53691" lon="6.75168">
        <ele>456.9</ele>
        <time>2016-12-28T13:52:39.999Z</time>
      </trkpt>
      <trkpt lat="47.53691" lon="6.75166">
        <ele>456.8</ele>
        <time>2016-12-28T13:52:40.999Z</time>
      </trkpt>
      <trkpt lat="47.53692" lon="6.75162">
        <ele>456.7</ele>
        <time>2016-12-28T13:52:42.999Z</time>
      </trkpt>
      <trkpt lat="47.53693" lon="6.7516">
        <ele>456.7</ele>
        <time>2016-12-28T13:52:43.999Z</time>
      </trkpt>
      <trkpt lat="47.53695" lon="6.75154">
        <ele>456.7</ele>
        <time>2016-12-28T13:52:48.999Z</time>
      </trkpt>
      <trkpt lat="47.53696" lon="6.75153">
        <ele>456.7</ele>
        <time>2016-12-28T13:52:49.999Z</time>
      </trkpt>
      <trkpt lat="47.53696" lon="6.75151">
        <ele>456.8</ele>
        <time>2016-12-28T13:52:50.999Z</time>
      </trkpt>
      <trkpt lat="47.53697" lon="6.75146">
        <ele>456.9</ele>
        <time>2016-12-28T13:52:51.999Z</time>
      </trkpt>
      <trkpt lat="47.53698" lon="6.75141">
        <ele>457.1</ele>
        <time>2016-12-28T13:52:53.999Z</time>
      </trkpt>
      <trkpt lat="47.53699" lon="6.75138">
        <ele>457.2</ele>
        <time>2016-12-28T13:52:54.999Z</time>
      </trkpt>
      <trkpt lat="47.53701" lon="6.75134">
        <ele>457.5</ele>
        <time>2016-12-28T13:52:56.999Z</time>
      </trkpt>
      <trkpt lat="47.53702" lon="6.75132">
        <ele>457.5</ele>
        <time>2016-12-28T13:52:57.999Z</time>
      </trkpt>
      <trkpt lat="47.53704" lon="6.75129">
        <ele>457.6</ele>
        <time>2016-12-28T13:52:59.999Z</time>
      </trkpt>
      <trkpt lat="47.53705" lon="6.75127">
        <ele>457.6</ele>
        <time>2016-12-28T13:53:00.999Z</time>
      </trkpt>
      <trkpt lat="47.53706" lon="6.75122">
        <ele>457.9</ele>
        <time>2016-12-28T13:53:03.999Z</time>
      </trkpt>
      <trkpt lat="47.53706" lon="6.7512">
        <ele>458</ele>
        <time>2016-12-28T13:53:04.999Z</time>
      </trkpt>
      <trkpt lat="47.53707" lon="6.75118">
        <ele>458.1</ele>
        <time>2016-12-28T13:53:05.999Z</time>
      </trkpt>
      <trkpt lat="47.53709" lon="6.75113">
        <ele>458.1</ele>
        <time>2016-12-28T13:53:06.999Z</time>
      </trkpt>
      <trkpt lat="47.5371" lon="6.75111">
        <ele>458.1</ele>
        <time>2016-12-28T13:53:07.999Z</time>
      </trkpt>
      <trkpt lat="47.53712" lon="6.75108">
        <ele>458.1</ele>
        <time>2016-12-28T13:53:08.999Z</time>
      </trkpt>
      <trkpt lat="47.53713" lon="6.75104">
        <ele>458.2</ele>
        <time>2016-12-28T13:53:09.999Z</time>
      </trkpt>
      <trkpt lat="47.53714" lon="6.75102">
        <ele>458.3</ele>
        <time>2016-12-28T13:53:10.999Z</time>
      </trkpt>
      <trkpt lat="47.53714" lon="6.75097">
        <ele>458.6</ele>
        <time>2016-12-28T13:53:12.999Z</time>
      </trkpt>
      <trkpt lat="47.53715" lon="6.75095">
        <ele>458.7</ele>
        <time>2016-12-28T13:53:13.999Z</time>
      </trkpt>
      <trkpt lat="47.53717" lon="6.7509">
        <ele>459.1</ele>
        <time>2016-12-28T13:53:17.999Z</time>
      </trkpt>
      <trkpt lat="47.53718" lon="6.75089">
        <ele>459.2</ele>
        <time>2016-12-28T13:53:18.999Z</time>
      </trkpt>
      <trkpt lat="47.5372" lon="6.75086">
        <ele>459.8</ele>
        <time>2016-12-28T13:53:20.999Z</time>
      </trkpt>
      <trkpt lat="47.53721" lon="6.75084">
        <ele>460.1</ele>
        <time>2016-12-28T13:53:21.999Z</time>
      </trkpt>
      <trkpt lat="47.53723" lon="6.75081">
        <ele>460.4</ele>
        <time>2016-12-28T13:53:22.999Z</time>
      </trkpt>
      <trkpt lat="47.53724" lon="6.75079">
        <ele>460.8</ele>
        <time>2016-12-28T13:53:23.999Z</time>
      </trkpt>
      <trkpt lat="47.53727" lon="6.75073">
        <ele>461.5</ele>
        <time>2016-12-28T13:53:25.999Z</time>
      </trkpt>
      <trkpt lat="47.53728" lon="6.7507">
        <ele>461.9</ele>
        <time>2016-12-28T13:53:26.999Z</time>
      </trkpt>
      <trkpt lat="47.5373" lon="6.75067">
        <ele>462.2</ele>
        <time>2016-12-28T13:53:27.999Z</time>
      </trkpt>
      <trkpt lat="47.53732" lon="6.7506">
        <ele>462.4</ele>
        <time>2016-12-28T13:53:28.999Z</time>
      </trkpt>
      <trkpt lat="47.53734" lon="6.75054">
        <ele>462.7</ele>
        <time>2016-12-28T13:53:30.999Z</time>
      </trkpt>
      <trkpt lat="47.53736" lon="6.75048">
        <ele>462.7</ele>
        <time>2016-12-28T13:53:31.999Z</time>
      </trkpt>
      <trkpt lat="47.53738" lon="6.75045">
        <ele>462.7</ele>
        <time>2016-12-28T13:53:32.999Z</time>
      </trkpt>
      <trkpt lat="47.53741" lon="6.75038">
        <ele>461.2</ele>
        <time>2016-12-28T13:53:33.999Z</time>
      </trkpt>
      <trkpt lat="47.53744" lon="6.75031">
        <ele>461</ele>
        <time>2016-12-28T13:53:34.999Z</time>
      </trkpt>
      <trkpt lat="47.53746" lon="6.75026">
        <ele>460.8</ele>
        <time>2016-12-28T13:53:35.999Z</time>
      </trkpt>
      <trkpt lat="47.53746" lon="6.75021">
        <ele>460.6</ele>
        <time>2016-12-28T13:53:36.999Z</time>
      </trkpt>
      <trkpt lat="47.53747" lon="6.75017">
        <ele>460.3</ele>
        <time>2016-12-28T13:53:37.999Z</time>
      </trkpt>
      <trkpt lat="47.53747" lon="6.75013">
        <ele>460</ele>
        <time>2016-12-28T13:53:38.999Z</time>
      </trkpt>
      <trkpt lat="47.53748" lon="6.75009">
        <ele>459.7</ele>
        <time>2016-12-28T13:53:39.999Z</time>
      </trkpt>
      <trkpt lat="47.53749" lon="6.75004">
        <ele>459.3</ele>
        <time>2016-12-28T13:53:40.999Z</time>
      </trkpt>
      <trkpt lat="47.53749" lon="6.74998">
        <ele>458.8</ele>
        <time>2016-12-28T13:53:42.999Z</time>
      </trkpt>
      <trkpt lat="47.53748" lon="6.74996">
        <ele>458.5</ele>
        <time>2016-12-28T13:53:43.999Z</time>
      </trkpt>
      <trkpt lat="47.53748" lon="6.74992">
        <ele>457.9</ele>
        <time>2016-12-28T13:53:45.999Z</time>
      </trkpt>
      <trkpt lat="47.53749" lon="6.74989">
        <ele>457.6</ele>
        <time>2016-12-28T13:53:46.999Z</time>
      </trkpt>
      <trkpt lat="47.5375" lon="6.74986">
        <ele>457.2</ele>
        <time>2016-12-28T13:53:47.999Z</time>
      </trkpt>
      <trkpt lat="47.53752" lon="6.7498">
        <ele>456.8</ele>
        <time>2016-12-28T13:53:48.999Z</time>
      </trkpt>
      <trkpt lat="47.53755" lon="6.74978">
        <ele>456.3</ele>
        <time>2016-12-28T13:53:49.999Z</time>
      </trkpt>
      <trkpt lat="47.53757" lon="6.74977">
        <ele>455.8</ele>
        <time>2016-12-28T13:53:50.999Z</time>
      </trkpt>
      <trkpt lat="47.53761" lon="6.74974">
        <ele>455.3</ele>
        <time>2016-12-28T13:53:51.999Z</time>
      </trkpt>
      <trkpt lat="47.53764" lon="6.74972">
        <ele>454.3</ele>
        <time>2016-12-28T13:53:53.999Z</time>
      </trkpt>
      <trkpt lat="47.53765" lon="6.74971">
        <ele>453.8</ele>
        <time>2016-12-28T13:53:54.999Z</time>
      </trkpt>
      <trkpt lat="47.53768" lon="6.74967">
        <ele>452.7</ele>
        <time>2016-12-28T13:53:56.999Z</time>
      </trkpt>
      <trkpt lat="47.53771" lon="6.74962">
        <ele>452.1</ele>
        <time>2016-12-28T13:53:57.999Z</time>
      </trkpt>
      <trkpt lat="47.53773" lon="6.74959">
        <ele>451.5</ele>
        <time>2016-12-28T13:53:58.999Z</time>
      </trkpt>
      <trkpt lat="47.53775" lon="6.74956">
        <ele>450.9</ele>
        <time>2016-12-28T13:53:59.999Z</time>
      </trkpt>
      <trkpt lat="47.53777" lon="6.74951">
        <ele>449.4</ele>
        <time>2016-12-28T13:54:01.999Z</time>
      </trkpt>
      <trkpt lat="47.53778" lon="6.74946">
        <ele>448.6</ele>
        <time>2016-12-28T13:54:02.999Z</time>
      </trkpt>
      <trkpt lat="47.5378" lon="6.74942">
        <ele>446.9</ele>
        <time>2016-12-28T13:54:04.999Z</time>
      </trkpt>
      <trkpt lat="47.53781" lon="6.7494">
        <ele>446.1</ele>
        <time>2016-12-28T13:54:05.999Z</time>
      </trkpt>
      <trkpt lat="47.53782" lon="6.74933">
        <ele>444.7</ele>
        <time>2016-12-28T13:54:07.999Z</time>
      </trkpt>
      <trkpt lat="47.53782" lon="6.7493">
        <ele>444.3</ele>
        <time>2016-12-28T13:54:08.999Z</time>
      </trkpt>
      <trkpt lat="47.53782" lon="6.74924">
        <ele>442.7</ele>
        <time>2016-12-28T13:54:12.999Z</time>
      </trkpt>
      <trkpt lat="47.53783" lon="6.74921">
        <ele>442.5</ele>
        <time>2016-12-28T13:54:13.999Z</time>
      </trkpt>
      <trkpt lat="47.53785" lon="6.74916">
        <ele>442.5</ele>
        <time>2016-12-28T13:54:16.999Z</time>
      </trkpt>
      <trkpt lat="47.53786" lon="6.7491">
        <ele>442.6</ele>
        <time>2016-12-28T13:54:17.999Z</time>
      </trkpt>
      <trkpt lat="47.53787" lon="6.74904">
        <ele>442.7</ele>
        <time>2016-12-28T13:54:18.999Z</time>
      </trkpt>
      <trkpt lat="47.53789" lon="6.74895">
        <ele>443</ele>
        <time>2016-12-28T13:54:19.999Z</time>
      </trkpt>
      <trkpt lat="47.53789" lon="6.74895">
        <ele>443.8</ele>
        <time>2016-12-28T13:54:22.999Z</time>
      </trkpt>
      <trkpt lat="47.53791" lon="6.74889">
        <ele>444.1</ele>
        <time>2016-12-28T13:54:23.999Z</time>
      </trkpt>
      <trkpt lat="47.53793" lon="6.74885">
        <ele>444.3</ele>
        <time>2016-12-28T13:54:24.999Z</time>
      </trkpt>
      <trkpt lat="47.53794" lon="6.74879">
        <ele>444.6</ele>
        <time>2016-12-28T13:54:25.999Z</time>
      </trkpt>
      <trkpt lat="47.53796" lon="6.74877">
        <ele>445.3</ele>
        <time>2016-12-28T13:54:27.999Z</time>
      </trkpt>
      <trkpt lat="47.53798" lon="6.74875">
        <ele>445.7</ele>
        <time>2016-12-28T13:54:28.999Z</time>
      </trkpt>
      <trkpt lat="47.53799" lon="6.74874">
        <ele>446.8</ele>
        <time>2016-12-28T13:54:31.999Z</time>
      </trkpt>
      <trkpt lat="47.53802" lon="6.74871">
        <ele>447.1</ele>
        <time>2016-12-28T13:54:32.999Z</time>
      </trkpt>
      <trkpt lat="47.53806" lon="6.74868">
        <ele>448.8</ele>
        <time>2016-12-28T13:54:39.999Z</time>
      </trkpt>
      <trkpt lat="47.53807" lon="6.74868">
        <ele>448.9</ele>
        <time>2016-12-28T13:54:40.999Z</time>
      </trkpt>
      <trkpt lat="47.53808" lon="6.74867">
        <ele>449.5</ele>
        <time>2016-12-28T13:54:44.999Z</time>
      </trkpt>
      <trkpt lat="47.53811" lon="6.74863">
        <ele>449.7</ele>
        <time>2016-12-28T13:54:45.999Z</time>
      </trkpt>
      <trkpt lat="47.53813" lon="6.74861">
        <ele>449.9</ele>
        <time>2016-12-28T13:54:46.999Z</time>
      </trkpt>
      <trkpt lat="47.53816" lon="6.74859">
        <ele>450.1</ele>
        <time>2016-12-28T13:54:47.999Z</time>
      </trkpt>
      <trkpt lat="47.5382" lon="6.74859">
        <ele>451.1</ele>
        <time>2016-12-28T13:54:51.999Z</time>
      </trkpt>
      <trkpt lat="47.53822" lon="6.7486">
        <ele>451.6</ele>
        <time>2016-12-28T13:54:52.999Z</time>
      </trkpt>
      <trkpt lat="47.53826" lon="6.74861">
        <ele>453.2</ele>
        <time>2016-12-28T13:54:56.999Z</time>
      </trkpt>
      <trkpt lat="47.53829" lon="6.74861">
        <ele>453.8</ele>
        <time>2016-12-28T13:54:57.999Z</time>
      </trkpt>
      <trkpt lat="47.53833" lon="6.7486">
        <ele>454.9</ele>
        <time>2016-12-28T13:55:00.999Z</time>
      </trkpt>
      <trkpt lat="47.53834" lon="6.74859">
        <ele>455.3</ele>
        <time>2016-12-28T13:55:01.999Z</time>
      </trkpt>
      <trkpt lat="47.53837" lon="6.74857">
        <ele>455.7</ele>
        <time>2016-12-28T13:55:02.999Z</time>
      </trkpt>
      <trkpt lat="47.5384" lon="6.74856">
        <ele>456.1</ele>
        <time>2016-12-28T13:55:03.999Z</time>
      </trkpt>
      <trkpt lat="47.53843" lon="6.74855">
        <ele>456.6</ele>
        <time>2016-12-28T13:55:04.999Z</time>
      </trkpt>
      <trkpt lat="47.53846" lon="6.74853">
        <ele>457.1</ele>
        <time>2016-12-28T13:55:05.999Z</time>
      </trkpt>
      <trkpt lat="47.5385" lon="6.7485">
        <ele>457.5</ele>
        <time>2016-12-28T13:55:06.999Z</time>
      </trkpt>
      <trkpt lat="47.53853" lon="6.74848">
        <ele>457.8</ele>
        <time>2016-12-28T13:55:07.999Z</time>
      </trkpt>
      <trkpt lat="47.53857" lon="6.74845">
        <ele>458.2</ele>
        <time>2016-12-28T13:55:08.999Z</time>
      </trkpt>
      <trkpt lat="47.53861" lon="6.74841">
        <ele>459.2</ele>
        <time>2016-12-28T13:55:11.999Z</time>
      </trkpt>
      <trkpt lat="47.53863" lon="6.74837">
        <ele>459.4</ele>
        <time>2016-12-28T13:55:12.999Z</time>
      </trkpt>
      <trkpt lat="47.53865" lon="6.74834">
        <ele>460</ele>
        <time>2016-12-28T13:55:16.999Z</time>
      </trkpt>
      <trkpt lat="47.53867" lon="6.74831">
        <ele>460.3</ele>
        <time>2016-12-28T13:55:17.999Z</time>
      </trkpt>
      <trkpt lat="47.5387" lon="6.7483">
        <ele>460.4</ele>
        <time>2016-12-28T13:55:18.999Z</time>
      </trkpt>
      <trkpt lat="47.53873" lon="6.74826">
        <ele>460.7</ele>
        <time>2016-12-28T13:55:19.999Z</time>
      </trkpt>
      <trkpt lat="47.53888" lon="6.74812">
        <ele>461</ele>
        <time>2016-12-28T13:55:20.999Z</time>
      </trkpt>
      <trkpt lat="47.53896" lon="6.74806">
        <ele>461.2</ele>
        <time>2016-12-28T13:55:21.999Z</time>
      </trkpt>
      <trkpt lat="47.539" lon="6.74804">
        <ele>461.4</ele>
        <time>2016-12-28T13:55:22.999Z</time>
      </trkpt>
      <trkpt lat="47.53904" lon="6.74798">
        <ele>461.6</ele>
        <time>2016-12-28T13:55:23.999Z</time>
      </trkpt>
      <trkpt lat="47.53907" lon="6.74796">
        <ele>461.8</ele>
        <time>2016-12-28T13:55:24.999Z</time>
      </trkpt>
      <trkpt lat="47.53909" lon="6.74795">
        <ele>462</ele>
        <time>2016-12-28T13:55:25.999Z</time>
      </trkpt>
      <trkpt lat="47.53913" lon="6.74794">
        <ele>462.4</ele>
        <time>2016-12-28T13:55:28.999Z</time>
      </trkpt>
      <trkpt lat="47.53914" lon="6.74792">
        <ele>462.6</ele>
        <time>2016-12-28T13:55:29.999Z</time>
      </trkpt>
      <trkpt lat="47.53916" lon="6.74789">
        <ele>463.4</ele>
        <time>2016-12-28T13:55:32.999Z</time>
      </trkpt>
      <trkpt lat="47.53917" lon="6.74788">
        <ele>463.7</ele>
        <time>2016-12-28T13:55:33.999Z</time>
      </trkpt>
      <trkpt lat="47.5392" lon="6.74784">
        <ele>464.8</ele>
        <time>2016-12-28T13:55:37.999Z</time>
      </trkpt>
      <trkpt lat="47.53922" lon="6.74782">
        <ele>465.1</ele>
        <time>2016-12-28T13:55:38.999Z</time>
      </trkpt>
      <trkpt lat="47.53925" lon="6.74777">
        <ele>465.5</ele>
        <time>2016-12-28T13:55:40.999Z</time>
      </trkpt>
      <trkpt lat="47.53925" lon="6.74775">
        <ele>465.8</ele>
        <time>2016-12-28T13:55:41.999Z</time>
      </trkpt>
      <trkpt lat="47.53927" lon="6.7477">
        <ele>466.1</ele>
        <time>2016-12-28T13:55:43.999Z</time>
      </trkpt>
      <trkpt lat="47.53928" lon="6.74768">
        <ele>466.3</ele>
        <time>2016-12-28T13:55:44.999Z</time>
      </trkpt>
      <trkpt lat="47.53931" lon="6.74765">
        <ele>467</ele>
        <time>2016-12-28T13:55:49.999Z</time>
      </trkpt>
      <trkpt lat="47.53933" lon="6.74763">
        <ele>467.3</ele>
        <time>2016-12-28T13:55:50.999Z</time>
      </trkpt>
      <trkpt lat="47.53935" lon="6.74762">
        <ele>467.5</ele>
        <time>2016-12-28T13:55:51.999Z</time>
      </trkpt>
      <trkpt lat="47.5394" lon="6.7476">
        <ele>467.8</ele>
        <time>2016-12-28T13:55:52.999Z</time>
      </trkpt>
      <trkpt lat="47.53941" lon="6.74759">
        <ele>468.7</ele>
        <time>2016-12-28T13:55:57.999Z</time>
      </trkpt>
      <trkpt lat="47.53944" lon="6.74757">
        <ele>469</ele>
        <time>2016-12-28T13:55:58.999Z</time>
      </trkpt>
      <trkpt lat="47.53948" lon="6.74757">
        <ele>469.6</ele>
        <time>2016-12-28T13:56:00.999Z</time>
      </trkpt>
      <trkpt lat="47.53949" lon="6.74756">
        <ele>469.8</ele>
        <time>2016-12-28T13:56:01.999Z</time>
      </trkpt>
      <trkpt lat="47.53951" lon="6.74754">
        <ele>470</ele>
        <time>2016-12-28T13:56:02.999Z</time>
      </trkpt>
      <trkpt lat="47.53955" lon="6.74753">
        <ele>470.1</ele>
        <time>2016-12-28T13:56:03.999Z</time>
      </trkpt>
      <trkpt lat="47.53958" lon="6.74752">
        <ele>470.4</ele>
        <time>2016-12-28T13:56:04.999Z</time>
      </trkpt>
      <trkpt lat="47.53961" lon="6.74749">
        <ele>470.5</ele>
        <time>2016-12-28T13:56:05.999Z</time>
      </trkpt>
      <trkpt lat="47.53965" lon="6.74746">
        <ele>470.7</ele>
        <time>2016-12-28T13:56:06.999Z</time>
      </trkpt>
      <trkpt lat="47.53967" lon="6.74745">
        <ele>470.8</ele>
        <time>2016-12-28T13:56:07.999Z</time>
      </trkpt>
      <trkpt lat="47.53971" lon="6.74744">
        <ele>471</ele>
        <time>2016-12-28T13:56:08.999Z</time>
      </trkpt>
      <trkpt lat="47.53975" lon="6.74744">
        <ele>471.2</ele>
        <time>2016-12-28T13:56:09.999Z</time>
      </trkpt>
      <trkpt lat="47.53977" lon="6.74744">
        <ele>471.3</ele>
        <time>2016-12-28T13:56:10.999Z</time>
      </trkpt>
      <trkpt lat="47.5398" lon="6.74742">
        <ele>471.5</ele>
        <time>2016-12-28T13:56:11.999Z</time>
      </trkpt>
      <trkpt lat="47.53982" lon="6.74739">
        <ele>471.8</ele>
        <time>2016-12-28T13:56:15.999Z</time>
      </trkpt>
      <trkpt lat="47.53983" lon="6.74738">
        <ele>471.8</ele>
        <time>2016-12-28T13:56:16.999Z</time>
      </trkpt>
      <trkpt lat="47.53986" lon="6.74735">
        <ele>471.7</ele>
        <time>2016-12-28T13:56:19.999Z</time>
      </trkpt>
      <trkpt lat="47.5399" lon="6.74734">
        <ele>471.6</ele>
        <time>2016-12-28T13:56:20.999Z</time>
      </trkpt>
      <trkpt lat="47.53994" lon="6.74732">
        <ele>471.7</ele>
        <time>2016-12-28T13:56:23.999Z</time>
      </trkpt>
      <trkpt lat="47.53998" lon="6.74731">
        <ele>471.8</ele>
        <time>2016-12-28T13:56:24.999Z</time>
      </trkpt>
      <trkpt lat="47.54004" lon="6.7473">
        <ele>472</ele>
        <time>2016-12-28T13:56:25.999Z</time>
      </trkpt>
      <trkpt lat="47.54007" lon="6.74728">
        <ele>472.7</ele>
        <time>2016-12-28T13:56:32.999Z</time>
      </trkpt>
      <trkpt lat="47.54009" lon="6.74727">
        <ele>472.8</ele>
        <time>2016-12-28T13:56:33.999Z</time>
      </trkpt>
      <trkpt lat="47.54013" lon="6.74726">
        <ele>473</ele>
        <time>2016-12-28T13:56:34.999Z</time>
      </trkpt>
      <trkpt lat="47.5402" lon="6.74724">
        <ele>473.3</ele>
        <time>2016-12-28T13:56:35.999Z</time>
      </trkpt>
      <trkpt lat="47.54024" lon="6.74723">
        <ele>473.8</ele>
        <time>2016-12-28T13:56:37.999Z</time>
      </trkpt>
      <trkpt lat="47.54026" lon="6.74721">
        <ele>474</ele>
        <time>2016-12-28T13:56:38.999Z</time>
      </trkpt>
      <trkpt lat="47.54029" lon="6.74719">
        <ele>474.3</ele>
        <time>2016-12-28T13:56:39.999Z</time>
      </trkpt>
      <trkpt lat="47.54032" lon="6.74716">
        <ele>474.5</ele>
        <time>2016-12-28T13:56:40.999Z</time>
      </trkpt>
      <trkpt lat="47.54036" lon="6.74713">
        <ele>474.7</ele>
        <time>2016-12-28T13:56:41.999Z</time>
      </trkpt>
      <trkpt lat="47.54037" lon="6.74711">
        <ele>474.8</ele>
        <time>2016-12-28T13:56:43.999Z</time>
      </trkpt>
      <trkpt lat="47.5404" lon="6.74707">
        <ele>474.9</ele>
        <time>2016-12-28T13:56:44.999Z</time>
      </trkpt>
      <trkpt lat="47.54042" lon="6.74705">
        <ele>475.1</ele>
        <time>2016-12-28T13:56:45.999Z</time>
      </trkpt>
      <trkpt lat="47.54047" lon="6.74702">
        <ele>475.1</ele>
        <time>2016-12-28T13:56:46.999Z</time>
      </trkpt>
      <trkpt lat="47.54052" lon="6.74701">
        <ele>475.2</ele>
        <time>2016-12-28T13:56:47.999Z</time>
      </trkpt>
      <trkpt lat="47.54057" lon="6.74699">
        <ele>475.4</ele>
        <time>2016-12-28T13:56:48.999Z</time>
      </trkpt>
      <trkpt lat="47.54061" lon="6.74697">
        <ele>475.6</ele>
        <time>2016-12-28T13:56:49.999Z</time>
      </trkpt>
      <trkpt lat="47.54073" lon="6.74687">
        <ele>475.7</ele>
        <time>2016-12-28T13:56:50.999Z</time>
      </trkpt>
      <trkpt lat="47.54082" lon="6.74685">
        <ele>475.8</ele>
        <time>2016-12-28T13:56:51.999Z</time>
      </trkpt>
      <trkpt lat="47.54086" lon="6.74682">
        <ele>475.9</ele>
        <time>2016-12-28T13:56:52.999Z</time>
      </trkpt>
      <trkpt lat="47.54088" lon="6.7468">
        <ele>475.9</ele>
        <time>2016-12-28T13:56:53.999Z</time>
      </trkpt>
      <trkpt lat="47.5409" lon="6.74679">
        <ele>476</ele>
        <time>2016-12-28T13:56:54.999Z</time>
      </trkpt>
      <trkpt lat="47.54093" lon="6.74678">
        <ele>476.1</ele>
        <time>2016-12-28T13:56:55.999Z</time>
      </trkpt>
      <trkpt lat="47.54096" lon="6.74679">
        <ele>476.3</ele>
        <time>2016-12-28T13:56:59.999Z</time>
      </trkpt>
      <trkpt lat="47.54098" lon="6.74679">
        <ele>476.3</ele>
        <time>2016-12-28T13:57:00.999Z</time>
      </trkpt>
      <trkpt lat="47.54101" lon="6.74676">
        <ele>476.9</ele>
        <time>2016-12-28T13:57:04.999Z</time>
      </trkpt>
      <trkpt lat="47.54103" lon="6.74675">
        <ele>477.1</ele>
        <time>2016-12-28T13:57:05.999Z</time>
      </trkpt>
      <trkpt lat="47.54104" lon="6.7467">
        <ele>477.4</ele>
        <time>2016-12-28T13:57:06.999Z</time>
      </trkpt>
      <trkpt lat="47.54106" lon="6.74668">
        <ele>477.6</ele>
        <time>2016-12-28T13:57:07.999Z</time>
      </trkpt>
      <trkpt lat="47.54109" lon="6.74666">
        <ele>478</ele>
        <time>2016-12-28T13:57:09.999Z</time>
      </trkpt>
      <trkpt lat="47.54112" lon="6.74665">
        <ele>478.2</ele>
        <time>2016-12-28T13:57:10.999Z</time>
      </trkpt>
      <trkpt lat="47.54114" lon="6.74664">
        <ele>478.3</ele>
        <time>2016-12-28T13:57:11.999Z</time>
      </trkpt>
      <trkpt lat="47.54118" lon="6.74663">
        <ele>478.5</ele>
        <time>2016-12-28T13:57:12.999Z</time>
      </trkpt>
      <trkpt lat="47.54123" lon="6.74662">
        <ele>478.7</ele>
        <time>2016-12-28T13:57:13.999Z</time>
      </trkpt>
      <trkpt lat="47.54126" lon="6.74659">
        <ele>478.7</ele>
        <time>2016-12-28T13:57:14.999Z</time>
      </trkpt>
      <trkpt lat="47.54129" lon="6.74655">
        <ele>478.7</ele>
        <time>2016-12-28T13:57:17.999Z</time>
      </trkpt>
      <trkpt lat="47.54132" lon="6.74653">
        <ele>478.7</ele>
        <time>2016-12-28T13:57:18.999Z</time>
      </trkpt>
      <trkpt lat="47.54134" lon="6.74651">
        <ele>478.7</ele>
        <time>2016-12-28T13:57:19.999Z</time>
      </trkpt>
      <trkpt lat="47.54136" lon="6.7465">
        <ele>478.7</ele>
        <time>2016-12-28T13:57:20.999Z</time>
      </trkpt>
      <trkpt lat="47.54138" lon="6.74649">
        <ele>478.8</ele>
        <time>2016-12-28T13:57:22.999Z</time>
      </trkpt>
      <trkpt lat="47.5414" lon="6.74644">
        <ele>478.9</ele>
        <time>2016-12-28T13:57:23.999Z</time>
      </trkpt>
      <trkpt lat="47.54143" lon="6.74639">
        <ele>478.8</ele>
        <time>2016-12-28T13:57:25.999Z</time>
      </trkpt>
      <trkpt lat="47.54146" lon="6.74639">
        <ele>478.7</ele>
        <time>2016-12-28T13:57:26.999Z</time>
      </trkpt>
      <trkpt lat="47.5415" lon="6.74638">
        <ele>478.6</ele>
        <time>2016-12-28T13:57:27.999Z</time>
      </trkpt>
      <trkpt lat="47.54153" lon="6.74636">
        <ele>478.5</ele>
        <time>2016-12-28T13:57:28.999Z</time>
      </trkpt>
      <trkpt lat="47.54155" lon="6.74633">
        <ele>478.5</ele>
        <time>2016-12-28T13:57:29.999Z</time>
      </trkpt>
      <trkpt lat="47.54157" lon="6.74632">
        <ele>478.5</ele>
        <time>2016-12-28T13:57:30.999Z</time>
      </trkpt>
      <trkpt lat="47.54161" lon="6.74629">
        <ele>478.6</ele>
        <time>2016-12-28T13:57:31.999Z</time>
      </trkpt>
      <trkpt lat="47.54164" lon="6.74627">
        <ele>478.6</ele>
        <time>2016-12-28T13:57:32.999Z</time>
      </trkpt>
      <trkpt lat="47.54167" lon="6.74622">
        <ele>478.7</ele>
        <time>2016-12-28T13:57:33.999Z</time>
      </trkpt>
      <trkpt lat="47.54172" lon="6.74616">
        <ele>478.8</ele>
        <time>2016-12-28T13:57:34.999Z</time>
      </trkpt>
      <trkpt lat="47.54176" lon="6.74613">
        <ele>478.8</ele>
        <time>2016-12-28T13:57:35.999Z</time>
      </trkpt>
      <trkpt lat="47.54183" lon="6.74603">
        <ele>478.9</ele>
        <time>2016-12-28T13:57:36.999Z</time>
      </trkpt>
      <trkpt lat="47.54188" lon="6.74596">
        <ele>478.8</ele>
        <time>2016-12-28T13:57:37.999Z</time>
      </trkpt>
      <trkpt lat="47.54194" lon="6.74588">
        <ele>478.8</ele>
        <time>2016-12-28T13:57:38.999Z</time>
      </trkpt>
      <trkpt lat="47.54199" lon="6.74582">
        <ele>478.8</ele>
        <time>2016-12-28T13:57:39.999Z</time>
      </trkpt>
      <trkpt lat="47.54201" lon="6.74578">
        <ele>478.7</ele>
        <time>2016-12-28T13:57:40.999Z</time>
      </trkpt>
      <trkpt lat="47.54204" lon="6.74576">
        <ele>478.5</ele>
        <time>2016-12-28T13:57:41.999Z</time>
      </trkpt>
      <trkpt lat="47.54205" lon="6.74574">
        <ele>478.4</ele>
        <time>2016-12-28T13:57:42.999Z</time>
      </trkpt>
      <trkpt lat="47.5421" lon="6.7457">
        <ele>478.3</ele>
        <time>2016-12-28T13:57:43.999Z</time>
      </trkpt>
      <trkpt lat="47.54213" lon="6.74568">
        <ele>478.3</ele>
        <time>2016-12-28T13:57:44.999Z</time>
      </trkpt>
      <trkpt lat="47.54216" lon="6.74567">
        <ele>478.3</ele>
        <time>2016-12-28T13:57:45.999Z</time>
      </trkpt>
      <trkpt lat="47.5422" lon="6.74564">
        <ele>478.1</ele>
        <time>2016-12-28T13:57:48.999Z</time>
      </trkpt>
      <trkpt lat="47.54223" lon="6.74563">
        <ele>478</ele>
        <time>2016-12-28T13:57:49.999Z</time>
      </trkpt>
      <trkpt lat="47.54226" lon="6.74562">
        <ele>477.8</ele>
        <time>2016-12-28T13:57:51.999Z</time>
      </trkpt>
      <trkpt lat="47.54229" lon="6.7456">
        <ele>477.8</ele>
        <time>2016-12-28T13:57:52.999Z</time>
      </trkpt>
      <trkpt lat="47.54231" lon="6.74557">
        <ele>477.8</ele>
        <time>2016-12-28T13:57:53.999Z</time>
      </trkpt>
      <trkpt lat="47.54236" lon="6.74556">
        <ele>477.7</ele>
        <time>2016-12-28T13:57:54.999Z</time>
      </trkpt>
      <trkpt lat="47.54239" lon="6.74555">
        <ele>477.8</ele>
        <time>2016-12-28T13:57:55.999Z</time>
      </trkpt>
      <trkpt lat="47.5424" lon="6.74554">
        <ele>477.8</ele>
        <time>2016-12-28T13:57:56.999Z</time>
      </trkpt>
      <trkpt lat="47.54244" lon="6.74552">
        <ele>477.9</ele>
        <time>2016-12-28T13:57:58.999Z</time>
      </trkpt>
      <trkpt lat="47.54245" lon="6.7455">
        <ele>477.9</ele>
        <time>2016-12-28T13:57:59.999Z</time>
      </trkpt>
      <trkpt lat="47.54247" lon="6.74545">
        <ele>478</ele>
        <time>2016-12-28T13:58:01.999Z</time>
      </trkpt>
      <trkpt lat="47.54248" lon="6.74542">
        <ele>477.9</ele>
        <time>2016-12-28T13:58:02.999Z</time>
      </trkpt>
      <trkpt lat="47.54251" lon="6.7454">
        <ele>478</ele>
        <time>2016-12-28T13:58:05.999Z</time>
      </trkpt>
      <trkpt lat="47.54253" lon="6.74536">
        <ele>478.1</ele>
        <time>2016-12-28T13:58:06.999Z</time>
      </trkpt>
      <trkpt lat="47.54255" lon="6.74531">
        <ele>478.4</ele>
        <time>2016-12-28T13:58:07.999Z</time>
      </trkpt>
      <trkpt lat="47.54258" lon="6.74527">
        <ele>479</ele>
        <time>2016-12-28T13:58:12.999Z</time>
      </trkpt>
      <trkpt lat="47.5427" lon="6.74517">
        <ele>479.1</ele>
        <time>2016-12-28T13:58:13.999Z</time>
      </trkpt>
      <trkpt lat="47.54276" lon="6.74511">
        <ele>479.1</ele>
        <time>2016-12-28T13:58:14.999Z</time>
      </trkpt>
      <trkpt lat="47.54278" lon="6.7451">
        <ele>479</ele>
        <time>2016-12-28T13:58:15.999Z</time>
      </trkpt>
      <trkpt lat="47.54281" lon="6.74507">
        <ele>478.8</ele>
        <time>2016-12-28T13:58:16.999Z</time>
      </trkpt>
      <trkpt lat="47.54287" lon="6.745">
        <ele>478.6</ele>
        <time>2016-12-28T13:58:17.999Z</time>
      </trkpt>
      <trkpt lat="47.54289" lon="6.74495">
        <ele>478.4</ele>
        <time>2016-12-28T13:58:18.999Z</time>
      </trkpt>
      <trkpt lat="47.54293" lon="6.74488">
        <ele>478.2</ele>
        <time>2016-12-28T13:58:19.999Z</time>
      </trkpt>
      <trkpt lat="47.54296" lon="6.74482">
        <ele>477.9</ele>
        <time>2016-12-28T13:58:20.999Z</time>
      </trkpt>
      <trkpt lat="47.54299" lon="6.74476">
        <ele>477.6</ele>
        <time>2016-12-28T13:58:21.999Z</time>
      </trkpt>
      <trkpt lat="47.543" lon="6.74473">
        <ele>477.2</ele>
        <time>2016-12-28T13:58:22.999Z</time>
      </trkpt>
      <trkpt lat="47.54302" lon="6.74472">
        <ele>476.7</ele>
        <time>2016-12-28T13:58:24.999Z</time>
      </trkpt>
      <trkpt lat="47.54305" lon="6.74469">
        <ele>476.5</ele>
        <time>2016-12-28T13:58:25.999Z</time>
      </trkpt>
      <trkpt lat="47.54309" lon="6.74466">
        <ele>475.7</ele>
        <time>2016-12-28T13:58:27.999Z</time>
      </trkpt>
      <trkpt lat="47.54309" lon="6.74464">
        <ele>475.4</ele>
        <time>2016-12-28T13:58:28.999Z</time>
      </trkpt>
      <trkpt lat="47.54306" lon="6.7446">
        <ele>475.1</ele>
        <time>2016-12-28T13:58:29.999Z</time>
      </trkpt>
      <trkpt lat="47.54307" lon="6.74457">
        <ele>474.7</ele>
        <time>2016-12-28T13:58:30.999Z</time>
      </trkpt>
      <trkpt lat="47.54307" lon="6.74451">
        <ele>474.2</ele>
        <time>2016-12-28T13:58:32.999Z</time>
      </trkpt>
      <trkpt lat="47.54307" lon="6.74448">
        <ele>473.7</ele>
        <time>2016-12-28T13:58:33.999Z</time>
      </trkpt>
      <trkpt lat="47.54306" lon="6.74444">
        <ele>473.1</ele>
        <time>2016-12-28T13:58:34.999Z</time>
      </trkpt>
      <trkpt lat="47.54306" lon="6.74441">
        <ele>472.7</ele>
        <time>2016-12-28T13:58:35.999Z</time>
      </trkpt>
      <trkpt lat="47.54306" lon="6.74435">
        <ele>472.4</ele>
        <time>2016-12-28T13:58:36.999Z</time>
      </trkpt>
      <trkpt lat="47.54305" lon="6.74427">
        <ele>472.3</ele>
        <time>2016-12-28T13:58:37.999Z</time>
      </trkpt>
      <trkpt lat="47.54305" lon="6.74417">
        <ele>472.4</ele>
        <time>2016-12-28T13:58:38.999Z</time>
      </trkpt>
      <trkpt lat="47.54304" lon="6.74408">
        <ele>472.4</ele>
        <time>2016-12-28T13:58:39.999Z</time>
      </trkpt>
      <trkpt lat="47.54304" lon="6.74399">
        <ele>472.4</ele>
        <time>2016-12-28T13:58:40.999Z</time>
      </trkpt>
      <trkpt lat="47.54304" lon="6.74393">
        <ele>472.5</ele>
        <time>2016-12-28T13:58:41.999Z</time>
      </trkpt>
      <trkpt lat="47.54304" lon="6.74387">
        <ele>472.6</ele>
        <time>2016-12-28T13:58:42.999Z</time>
      </trkpt>
      <trkpt lat="47.54304" lon="6.7438">
        <ele>472.6</ele>
        <time>2016-12-28T13:58:43.999Z</time>
      </trkpt>
      <trkpt lat="47.54304" lon="6.74365">
        <ele>472.6</ele>
        <time>2016-12-28T13:58:44.999Z</time>
      </trkpt>
      <trkpt lat="47.54303" lon="6.74358">
        <ele>472.7</ele>
        <time>2016-12-28T13:58:45.999Z</time>
      </trkpt>
      <trkpt lat="47.54303" lon="6.74351">
        <ele>472.8</ele>
        <time>2016-12-28T13:58:46.999Z</time>
      </trkpt>
      <trkpt lat="47.54303" lon="6.74345">
        <ele>472.8</ele>
        <time>2016-12-28T13:58:47.999Z</time>
      </trkpt>
      <trkpt lat="47.54304" lon="6.74339">
        <ele>472.7</ele>
        <time>2016-12-28T13:58:48.999Z</time>
      </trkpt>
      <trkpt lat="47.54303" lon="6.7433">
        <ele>472.6</ele>
        <time>2016-12-28T13:58:49.999Z</time>
      </trkpt>
      <trkpt lat="47.54303" lon="6.74324">
        <ele>472.5</ele>
        <time>2016-12-28T13:58:50.999Z</time>
      </trkpt>
      <trkpt lat="47.54305" lon="6.74313">
        <ele>472.4</ele>
        <time>2016-12-28T13:58:51.999Z</time>
      </trkpt>
      <trkpt lat="47.54306" lon="6.74303">
        <ele>472.3</ele>
        <time>2016-12-28T13:58:52.999Z</time>
      </trkpt>
      <trkpt lat="47.54308" lon="6.74291">
        <ele>472</ele>
        <time>2016-12-28T13:58:53.999Z</time>
      </trkpt>
      <trkpt lat="47.54307" lon="6.74288">
        <ele>471.7</ele>
        <time>2016-12-28T13:58:54.999Z</time>
      </trkpt>
      <trkpt lat="47.54307" lon="6.74283">
        <ele>471.4</ele>
        <time>2016-12-28T13:58:55.999Z</time>
      </trkpt>
      <trkpt lat="47.54307" lon="6.74279">
        <ele>470.9</ele>
        <time>2016-12-28T13:58:57.999Z</time>
      </trkpt>
      <trkpt lat="47.54304" lon="6.74271">
        <ele>470.7</ele>
        <time>2016-12-28T13:58:58.999Z</time>
      </trkpt>
      <trkpt lat="47.54304" lon="6.74259">
        <ele>466.8</ele>
        <time>2016-12-28T13:58:59.999Z</time>
      </trkpt>
      <trkpt lat="47.54304" lon="6.74248">
        <ele>466.4</ele>
        <time>2016-12-28T13:59:00.999Z</time>
      </trkpt>
      <trkpt lat="47.54304" lon="6.74238">
        <ele>466.1</ele>
        <time>2016-12-28T13:59:01.999Z</time>
      </trkpt>
      <trkpt lat="47.54304" lon="6.74226">
        <ele>463.6</ele>
        <time>2016-12-28T13:59:02.999Z</time>
      </trkpt>
      <trkpt lat="47.54305" lon="6.74215">
        <ele>462.7</ele>
        <time>2016-12-28T13:59:03.999Z</time>
      </trkpt>
      <trkpt lat="47.54306" lon="6.74209">
        <ele>462.7</ele>
        <time>2016-12-28T13:59:04.999Z</time>
      </trkpt>
      <trkpt lat="47.54307" lon="6.74203">
        <ele>462.6</ele>
        <time>2016-12-28T13:59:05.999Z</time>
      </trkpt>
      <trkpt lat="47.5431" lon="6.74199">
        <ele>462.5</ele>
        <time>2016-12-28T13:59:06.999Z</time>
      </trkpt>
      <trkpt lat="47.54316" lon="6.74187">
        <ele>462.4</ele>
        <time>2016-12-28T13:59:07.999Z</time>
      </trkpt>
      <trkpt lat="47.54319" lon="6.74179">
        <ele>462.3</ele>
        <time>2016-12-28T13:59:08.999Z</time>
      </trkpt>
      <trkpt lat="47.54324" lon="6.74167">
        <ele>462.2</ele>
        <time>2016-12-28T13:59:09.999Z</time>
      </trkpt>
      <trkpt lat="47.54327" lon="6.7416">
        <ele>462.2</ele>
        <time>2016-12-28T13:59:10.999Z</time>
      </trkpt>
      <trkpt lat="47.5433" lon="6.74154">
        <ele>462.1</ele>
        <time>2016-12-28T13:59:11.999Z</time>
      </trkpt>
      <trkpt lat="47.54333" lon="6.74147">
        <ele>461.4</ele>
        <time>2016-12-28T13:59:12.999Z</time>
      </trkpt>
      <trkpt lat="47.54337" lon="6.74139">
        <ele>460.9</ele>
        <time>2016-12-28T13:59:13.999Z</time>
      </trkpt>
      <trkpt lat="47.5434" lon="6.74129">
        <ele>460.9</ele>
        <time>2016-12-28T13:59:14.999Z</time>
      </trkpt>
      <trkpt lat="47.54343" lon="6.74119">
        <ele>460.8</ele>
        <time>2016-12-28T13:59:15.999Z</time>
      </trkpt>
      <trkpt lat="47.54346" lon="6.74111">
        <ele>460.8</ele>
        <time>2016-12-28T13:59:16.999Z</time>
      </trkpt>
      <trkpt lat="47.54349" lon="6.74103">
        <ele>460.8</ele>
        <time>2016-12-28T13:59:17.999Z</time>
      </trkpt>
      <trkpt lat="47.54352" lon="6.74096">
        <ele>460.8</ele>
        <time>2016-12-28T13:59:18.999Z</time>
      </trkpt>
      <trkpt lat="47.54356" lon="6.7409">
        <ele>460.8</ele>
        <time>2016-12-28T13:59:19.999Z</time>
      </trkpt>
      <trkpt lat="47.5436" lon="6.74084">
        <ele>460.2</ele>
        <time>2016-12-28T13:59:20.999Z</time>
      </trkpt>
      <trkpt lat="47.54365" lon="6.74078">
        <ele>459.8</ele>
        <time>2016-12-28T13:59:21.999Z</time>
      </trkpt>
      <trkpt lat="47.54368" lon="6.74071">
        <ele>459</ele>
        <time>2016-12-28T13:59:22.999Z</time>
      </trkpt>
      <trkpt lat="47.54372" lon="6.74062">
        <ele>458.3</ele>
        <time>2016-12-28T13:59:23.999Z</time>
      </trkpt>
      <trkpt lat="47.54375" lon="6.74054">
        <ele>457.2</ele>
        <time>2016-12-28T13:59:24.999Z</time>
      </trkpt>
      <trkpt lat="47.54378" lon="6.74046">
        <ele>455.8</ele>
        <time>2016-12-28T13:59:25.999Z</time>
      </trkpt>
      <trkpt lat="47.54382" lon="6.74038">
        <ele>455</ele>
        <time>2016-12-28T13:59:26.999Z</time>
      </trkpt>
      <trkpt lat="47.54388" lon="6.74023">
        <ele>454.3</ele>
        <time>2016-12-28T13:59:27.999Z</time>
      </trkpt>
      <trkpt lat="47.54388" lon="6.74011">
        <ele>453.7</ele>
        <time>2016-12-28T13:59:28.999Z</time>
      </trkpt>
      <trkpt lat="47.54389" lon="6.74001">
        <ele>452.7</ele>
        <time>2016-12-28T13:59:29.999Z</time>
      </trkpt>
      <trkpt lat="47.54389" lon="6.73994">
        <ele>452.6</ele>
        <time>2016-12-28T13:59:30.999Z</time>
      </trkpt>
      <trkpt lat="47.54389" lon="6.73987">
        <ele>452.4</ele>
        <time>2016-12-28T13:59:31.999Z</time>
      </trkpt>
      <trkpt lat="47.54389" lon="6.73978">
        <ele>450.3</ele>
        <time>2016-12-28T13:59:32.999Z</time>
      </trkpt>
      <trkpt lat="47.54391" lon="6.73962">
        <ele>448.1</ele>
        <time>2016-12-28T13:59:33.999Z</time>
      </trkpt>
      <trkpt lat="47.54392" lon="6.73954">
        <ele>446.6</ele>
        <time>2016-12-28T13:59:34.999Z</time>
      </trkpt>
      <trkpt lat="47.54391" lon="6.73945">
        <ele>445.9</ele>
        <time>2016-12-28T13:59:35.999Z</time>
      </trkpt>
      <trkpt lat="47.5439" lon="6.73933">
        <ele>444.8</ele>
        <time>2016-12-28T13:59:36.999Z</time>
      </trkpt>
      <trkpt lat="47.54389" lon="6.73925">
        <ele>444.7</ele>
        <time>2016-12-28T13:59:37.999Z</time>
      </trkpt>
      <trkpt lat="47.54388" lon="6.73918">
        <ele>442.6</ele>
        <time>2016-12-28T13:59:38.999Z</time>
      </trkpt>
      <trkpt lat="47.54388" lon="6.73911">
        <ele>442.5</ele>
        <time>2016-12-28T13:59:39.999Z</time>
      </trkpt>
      <trkpt lat="47.54388" lon="6.73904">
        <ele>442.5</ele>
        <time>2016-12-28T13:59:40.999Z</time>
      </trkpt>
      <trkpt lat="47.54387" lon="6.73894">
        <ele>440.9</ele>
        <time>2016-12-28T13:59:41.999Z</time>
      </trkpt>
      <trkpt lat="47.54388" lon="6.73878">
        <ele>439.4</ele>
        <time>2016-12-28T13:59:42.999Z</time>
      </trkpt>
      <trkpt lat="47.54389" lon="6.73868">
        <ele>439.1</ele>
        <time>2016-12-28T13:59:43.999Z</time>
      </trkpt>
      <trkpt lat="47.5439" lon="6.73854">
        <ele>435.9</ele>
        <time>2016-12-28T13:59:44.999Z</time>
      </trkpt>
      <trkpt lat="47.5439" lon="6.73835">
        <ele>432.5</ele>
        <time>2016-12-28T13:59:45.999Z</time>
      </trkpt>
      <trkpt lat="47.54389" lon="6.73825">
        <ele>432.2</ele>
        <time>2016-12-28T13:59:46.999Z</time>
      </trkpt>
      <trkpt lat="47.54389" lon="6.73817">
        <ele>432.1</ele>
        <time>2016-12-28T13:59:47.999Z</time>
      </trkpt>
      <trkpt lat="47.54388" lon="6.73809">
        <ele>431.9</ele>
        <time>2016-12-28T13:59:48.999Z</time>
      </trkpt>
      <trkpt lat="47.54388" lon="6.73802">
        <ele>431.6</ele>
        <time>2016-12-28T13:59:49.999Z</time>
      </trkpt>
      <trkpt lat="47.54387" lon="6.73791">
        <ele>431.4</ele>
        <time>2016-12-28T13:59:50.999Z</time>
      </trkpt>
      <trkpt lat="47.54386" lon="6.7378">
        <ele>431.3</ele>
        <time>2016-12-28T13:59:51.999Z</time>
      </trkpt>
      <trkpt lat="47.54385" lon="6.73769">
        <ele>431.2</ele>
        <time>2016-12-28T13:59:52.999Z</time>
      </trkpt>
      <trkpt lat="47.54385" lon="6.73756">
        <ele>431.4</ele>
        <time>2016-12-28T13:59:53.999Z</time>
      </trkpt>
      <trkpt lat="47.54384" lon="6.73733">
        <ele>431.7</ele>
        <time>2016-12-28T13:59:54.999Z</time>
      </trkpt>
      <trkpt lat="47.54384" lon="6.73722">
        <ele>432</ele>
        <time>2016-12-28T13:59:55.999Z</time>
      </trkpt>
      <trkpt lat="47.54385" lon="6.73712">
        <ele>435.4</ele>
        <time>2016-12-28T13:59:56.999Z</time>
      </trkpt>
      <trkpt lat="47.54388" lon="6.73704">
        <ele>437.2</ele>
        <time>2016-12-28T13:59:57.999Z</time>
      </trkpt>
      <trkpt lat="47.54393" lon="6.73692">
        <ele>438.6</ele>
        <time>2016-12-28T13:59:58.999Z</time>
      </trkpt>
      <trkpt lat="47.54392" lon="6.73685">
        <ele>438.7</ele>
        <time>2016-12-28T13:59:59.999Z</time>
      </trkpt>
      <trkpt lat="47.54391" lon="6.73679">
        <ele>438.5</ele>
        <time>2016-12-28T14:00:05.999Z</time>
      </trkpt>
      <trkpt lat="47.54392" lon="6.73678">
        <ele>438.3</ele>
        <time>2016-12-28T14:00:06.999Z</time>
      </trkpt>
      <trkpt lat="47.54391" lon="6.73669">
        <ele>438.3</ele>
        <time>2016-12-28T14:00:07.999Z</time>
      </trkpt>
      <trkpt lat="47.5439" lon="6.73661">
        <ele>438.3</ele>
        <time>2016-12-28T14:00:08.999Z</time>
      </trkpt>
      <trkpt lat="47.54391" lon="6.73649">
        <ele>438.4</ele>
        <time>2016-12-28T14:00:09.999Z</time>
      </trkpt>
      <trkpt lat="47.54392" lon="6.73639">
        <ele>438.6</ele>
        <time>2016-12-28T14:00:10.999Z</time>
      </trkpt>
      <trkpt lat="47.54393" lon="6.73633">
        <ele>438.6</ele>
        <time>2016-12-28T14:00:12.999Z</time>
      </trkpt>
      <trkpt lat="47.54393" lon="6.73625">
        <ele>438.5</ele>
        <time>2016-12-28T14:00:13.999Z</time>
      </trkpt>
      <trkpt lat="47.54394" lon="6.73617">
        <ele>438.3</ele>
        <time>2016-12-28T14:00:14.999Z</time>
      </trkpt>
      <trkpt lat="47.54396" lon="6.7361">
        <ele>438.2</ele>
        <time>2016-12-28T14:00:15.999Z</time>
      </trkpt>
      <trkpt lat="47.54398" lon="6.73607">
        <ele>438</ele>
        <time>2016-12-28T14:00:16.999Z</time>
      </trkpt>
      <trkpt lat="47.54401" lon="6.73602">
        <ele>437.9</ele>
        <time>2016-12-28T14:00:17.999Z</time>
      </trkpt>
      <trkpt lat="47.54403" lon="6.73595">
        <ele>437.7</ele>
        <time>2016-12-28T14:00:18.999Z</time>
      </trkpt>
      <trkpt lat="47.54404" lon="6.7359">
        <ele>437.4</ele>
        <time>2016-12-28T14:00:20.999Z</time>
      </trkpt>
      <trkpt lat="47.54405" lon="6.73589">
        <ele>437.1</ele>
        <time>2016-12-28T14:00:21.999Z</time>
      </trkpt>
      <trkpt lat="47.54407" lon="6.73586">
        <ele>436.9</ele>
        <time>2016-12-28T14:00:22.999Z</time>
      </trkpt>
      <trkpt lat="47.54409" lon="6.7358">
        <ele>436.5</ele>
        <time>2016-12-28T14:00:23.999Z</time>
      </trkpt>
      <trkpt lat="47.54411" lon="6.73573">
        <ele>436.2</ele>
        <time>2016-12-28T14:00:24.999Z</time>
      </trkpt>
      <trkpt lat="47.54414" lon="6.73569">
        <ele>433.6</ele>
        <time>2016-12-28T14:00:33.999Z</time>
      </trkpt>
      <trkpt lat="47.54414" lon="6.73566">
        <ele>433.4</ele>
        <time>2016-12-28T14:00:34.999Z</time>
      </trkpt>
      <trkpt lat="47.54413" lon="6.73561">
        <ele>432.7</ele>
        <time>2016-12-28T14:00:42.999Z</time>
      </trkpt>
      <trkpt lat="47.54414" lon="6.73559">
        <ele>432.6</ele>
        <time>2016-12-28T14:00:43.999Z</time>
      </trkpt>
      <trkpt lat="47.54414" lon="6.73556">
        <ele>432.3</ele>
        <time>2016-12-28T14:00:45.999Z</time>
      </trkpt>
      <trkpt lat="47.54414" lon="6.7355">
        <ele>432</ele>
        <time>2016-12-28T14:00:46.999Z</time>
      </trkpt>
      <trkpt lat="47.54415" lon="6.73544">
        <ele>431.9</ele>
        <time>2016-12-28T14:00:48.999Z</time>
      </trkpt>
      <trkpt lat="47.54414" lon="6.73536">
        <ele>432</ele>
        <time>2016-12-28T14:00:49.999Z</time>
      </trkpt>
      <trkpt lat="47.54414" lon="6.73529">
        <ele>432.2</ele>
        <time>2016-12-28T14:00:50.999Z</time>
      </trkpt>
      <trkpt lat="47.54414" lon="6.73523">
        <ele>432.3</ele>
        <time>2016-12-28T14:00:51.999Z</time>
      </trkpt>
      <trkpt lat="47.54414" lon="6.73514">
        <ele>432.4</ele>
        <time>2016-12-28T14:00:52.999Z</time>
      </trkpt>
      <trkpt lat="47.54414" lon="6.73505">
        <ele>432.5</ele>
        <time>2016-12-28T14:00:53.999Z</time>
      </trkpt>
      <trkpt lat="47.54415" lon="6.73497">
        <ele>432.5</ele>
        <time>2016-12-28T14:00:54.999Z</time>
      </trkpt>
      <trkpt lat="47.54416" lon="6.7349">
        <ele>432.4</ele>
        <time>2016-12-28T14:00:55.999Z</time>
      </trkpt>
      <trkpt lat="47.54416" lon="6.73485">
        <ele>432.4</ele>
        <time>2016-12-28T14:00:56.999Z</time>
      </trkpt>
      <trkpt lat="47.54416" lon="6.73481">
        <ele>432.4</ele>
        <time>2016-12-28T14:00:57.999Z</time>
      </trkpt>
      <trkpt lat="47.54417" lon="6.73477">
        <ele>432.2</ele>
        <time>2016-12-28T14:01:00.999Z</time>
      </trkpt>
      <trkpt lat="47.54418" lon="6.73473">
        <ele>432</ele>
        <time>2016-12-28T14:01:01.999Z</time>
      </trkpt>
      <trkpt lat="47.54419" lon="6.73469">
        <ele>431.8</ele>
        <time>2016-12-28T14:01:02.999Z</time>
      </trkpt>
      <trkpt lat="47.54419" lon="6.73466">
        <ele>431.7</ele>
        <time>2016-12-28T14:01:03.999Z</time>
      </trkpt>
      <trkpt lat="47.54421" lon="6.7346">
        <ele>431.1</ele>
        <time>2016-12-28T14:01:07.999Z</time>
      </trkpt>
      <trkpt lat="47.54421" lon="6.73455">
        <ele>430.8</ele>
        <time>2016-12-28T14:01:08.999Z</time>
      </trkpt>
      <trkpt lat="47.54421" lon="6.73452">
        <ele>430.4</ele>
        <time>2016-12-28T14:01:10.999Z</time>
      </trkpt>
      <trkpt lat="47.54423" lon="6.7345">
        <ele>430.2</ele>
        <time>2016-12-28T14:01:11.999Z</time>
      </trkpt>
      <trkpt lat="47.54426" lon="6.73446">
        <ele>430.1</ele>
        <time>2016-12-28T14:01:12.999Z</time>
      </trkpt>
      <trkpt lat="47.54427" lon="6.73442">
        <ele>430.1</ele>
        <time>2016-12-28T14:01:13.999Z</time>
      </trkpt>
      <trkpt lat="47.54428" lon="6.7344">
        <ele>429.9</ele>
        <time>2016-12-28T14:01:15.999Z</time>
      </trkpt>
      <trkpt lat="47.54429" lon="6.73436">
        <ele>429.9</ele>
        <time>2016-12-28T14:01:16.999Z</time>
      </trkpt>
      <trkpt lat="47.54429" lon="6.7343">
        <ele>429.9</ele>
        <time>2016-12-28T14:01:17.999Z</time>
      </trkpt>
      <trkpt lat="47.54429" lon="6.73426">
        <ele>429.9</ele>
        <time>2016-12-28T14:01:18.999Z</time>
      </trkpt>
      <trkpt lat="47.54431" lon="6.73421">
        <ele>429.9</ele>
        <time>2016-12-28T14:01:19.999Z</time>
      </trkpt>
      <trkpt lat="47.54436" lon="6.73408">
        <ele>429.9</ele>
        <time>2016-12-28T14:01:20.999Z</time>
      </trkpt>
      <trkpt lat="47.54435" lon="6.73402">
        <ele>430</ele>
        <time>2016-12-28T14:01:21.999Z</time>
      </trkpt>
      <trkpt lat="47.54435" lon="6.73397">
        <ele>430.1</ele>
        <time>2016-12-28T14:01:25.999Z</time>
      </trkpt>
      <trkpt lat="47.54436" lon="6.73393">
        <ele>430.1</ele>
        <time>2016-12-28T14:01:26.999Z</time>
      </trkpt>
      <trkpt lat="47.54436" lon="6.73388">
        <ele>430.1</ele>
        <time>2016-12-28T14:01:27.999Z</time>
      </trkpt>
      <trkpt lat="47.54437" lon="6.73384">
        <ele>430.2</ele>
        <time>2016-12-28T14:01:28.999Z</time>
      </trkpt>
      <trkpt lat="47.54436" lon="6.7338">
        <ele>430.4</ele>
        <time>2016-12-28T14:01:29.999Z</time>
      </trkpt>
      <trkpt lat="47.54436" lon="6.73377">
        <ele>430.4</ele>
        <time>2016-12-28T14:01:30.999Z</time>
      </trkpt>
      <trkpt lat="47.54435" lon="6.73375">
        <ele>429.5</ele>
        <time>2016-12-28T14:01:37.999Z</time>
      </trkpt>
      <trkpt lat="47.54436" lon="6.73369">
        <ele>429.5</ele>
        <time>2016-12-28T14:01:38.999Z</time>
      </trkpt>
      <trkpt lat="47.54438" lon="6.73364">
        <ele>429.6</ele>
        <time>2016-12-28T14:01:39.999Z</time>
      </trkpt>
      <trkpt lat="47.5444" lon="6.73351">
        <ele>429.6</ele>
        <time>2016-12-28T14:01:40.999Z</time>
      </trkpt>
      <trkpt lat="47.54441" lon="6.73343">
        <ele>429.5</ele>
        <time>2016-12-28T14:01:41.999Z</time>
      </trkpt>
      <trkpt lat="47.54442" lon="6.73336">
        <ele>429.3</ele>
        <time>2016-12-28T14:01:42.999Z</time>
      </trkpt>
      <trkpt lat="47.54442" lon="6.73329">
        <ele>429</ele>
        <time>2016-12-28T14:01:43.999Z</time>
      </trkpt>
      <trkpt lat="47.5444" lon="6.73317">
        <ele>428.7</ele>
        <time>2016-12-28T14:01:44.999Z</time>
      </trkpt>
      <trkpt lat="47.54441" lon="6.7331">
        <ele>428</ele>
        <time>2016-12-28T14:01:46.999Z</time>
      </trkpt>
      <trkpt lat="47.54442" lon="6.73305">
        <ele>427.7</ele>
        <time>2016-12-28T14:01:47.999Z</time>
      </trkpt>
      <trkpt lat="47.54442" lon="6.73302">
        <ele>427.5</ele>
        <time>2016-12-28T14:01:48.999Z</time>
      </trkpt>
      <trkpt lat="47.54443" lon="6.73299">
        <ele>427.3</ele>
        <time>2016-12-28T14:01:49.999Z</time>
      </trkpt>
      <trkpt lat="47.54443" lon="6.73295">
        <ele>426.9</ele>
        <time>2016-12-28T14:01:50.999Z</time>
      </trkpt>
      <trkpt lat="47.54443" lon="6.73291">
        <ele>426.8</ele>
        <time>2016-12-28T14:01:51.999Z</time>
      </trkpt>
      <trkpt lat="47.54443" lon="6.73285">
        <ele>426.8</ele>
        <time>2016-12-28T14:01:52.999Z</time>
      </trkpt>
      <trkpt lat="47.54444" lon="6.73279">
        <ele>426.6</ele>
        <time>2016-12-28T14:01:53.999Z</time>
      </trkpt>
      <trkpt lat="47.54444" lon="6.73272">
        <ele>426.5</ele>
        <time>2016-12-28T14:01:54.999Z</time>
      </trkpt>
      <trkpt lat="47.54445" lon="6.73267">
        <ele>426.6</ele>
        <time>2016-12-28T14:01:56.999Z</time>
      </trkpt>
      <trkpt lat="47.54447" lon="6.73264">
        <ele>426.6</ele>
        <time>2016-12-28T14:01:57.999Z</time>
      </trkpt>
      <trkpt lat="47.54449" lon="6.73259">
        <ele>426.8</ele>
        <time>2016-12-28T14:02:03.999Z</time>
      </trkpt>
      <trkpt lat="47.54449" lon="6.73257">
        <ele>426.9</ele>
        <time>2016-12-28T14:02:04.999Z</time>
      </trkpt>
      <trkpt lat="47.54449" lon="6.73254">
        <ele>426.9</ele>
        <time>2016-12-28T14:02:08.999Z</time>
      </trkpt>
      <trkpt lat="47.54449" lon="6.7325">
        <ele>426.8</ele>
        <time>2016-12-28T14:02:09.999Z</time>
      </trkpt>
      <trkpt lat="47.5445" lon="6.73245">
        <ele>426.8</ele>
        <time>2016-12-28T14:02:10.999Z</time>
      </trkpt>
      <trkpt lat="47.54451" lon="6.7324">
        <ele>426.8</ele>
        <time>2016-12-28T14:02:11.999Z</time>
      </trkpt>
      <trkpt lat="47.54453" lon="6.73235">
        <ele>427.4</ele>
        <time>2016-12-28T14:02:16.999Z</time>
      </trkpt>
      <trkpt lat="47.54454" lon="6.73232">
        <ele>427.7</ele>
        <time>2016-12-28T14:02:17.999Z</time>
      </trkpt>
      <trkpt lat="47.54455" lon="6.73227">
        <ele>428.6</ele>
        <time>2016-12-28T14:02:20.999Z</time>
      </trkpt>
      <trkpt lat="47.54456" lon="6.73225">
        <ele>428.9</ele>
        <time>2016-12-28T14:02:21.999Z</time>
      </trkpt>
      <trkpt lat="47.54455" lon="6.73219">
        <ele>429.7</ele>
        <time>2016-12-28T14:02:25.999Z</time>
      </trkpt>
      <trkpt lat="47.54455" lon="6.73216">
        <ele>429.8</ele>
        <time>2016-12-28T14:02:26.999Z</time>
      </trkpt>
      <trkpt lat="47.54454" lon="6.73211">
        <ele>429.8</ele>
        <time>2016-12-28T14:02:29.999Z</time>
      </trkpt>
      <trkpt lat="47.54454" lon="6.73207">
        <ele>429.9</ele>
        <time>2016-12-28T14:02:30.999Z</time>
      </trkpt>
      <trkpt lat="47.54455" lon="6.73202">
        <ele>430</ele>
        <time>2016-12-28T14:02:34.999Z</time>
      </trkpt>
      <trkpt lat="47.54455" lon="6.73199">
        <ele>430.1</ele>
        <time>2016-12-28T14:02:35.999Z</time>
      </trkpt>
      <trkpt lat="47.54455" lon="6.73195">
        <ele>430.2</ele>
        <time>2016-12-28T14:02:36.999Z</time>
      </trkpt>
      <trkpt lat="47.54454" lon="6.7319">
        <ele>430.3</ele>
        <time>2016-12-28T14:02:37.999Z</time>
      </trkpt>
      <trkpt lat="47.54454" lon="6.73184">
        <ele>430.4</ele>
        <time>2016-12-28T14:02:38.999Z</time>
      </trkpt>
      <trkpt lat="47.54453" lon="6.73179">
        <ele>430.6</ele>
        <time>2016-12-28T14:02:39.999Z</time>
      </trkpt>
      <trkpt lat="47.54453" lon="6.73173">
        <ele>430.8</ele>
        <time>2016-12-28T14:02:40.999Z</time>
      </trkpt>
      <trkpt lat="47.54453" lon="6.73167">
        <ele>431.1</ele>
        <time>2016-12-28T14:02:41.999Z</time>
      </trkpt>
      <trkpt lat="47.54452" lon="6.73162">
        <ele>431.4</ele>
        <time>2016-12-28T14:02:42.999Z</time>
      </trkpt>
      <trkpt lat="47.54451" lon="6.73158">
        <ele>431.7</ele>
        <time>2016-12-28T14:02:43.999Z</time>
      </trkpt>
      <trkpt lat="47.54451" lon="6.73153">
        <ele>432</ele>
        <time>2016-12-28T14:02:44.999Z</time>
      </trkpt>
      <trkpt lat="47.54451" lon="6.73149">
        <ele>432.2</ele>
        <time>2016-12-28T14:02:45.999Z</time>
      </trkpt>
      <trkpt lat="47.54451" lon="6.73145">
        <ele>432.4</ele>
        <time>2016-12-28T14:02:46.999Z</time>
      </trkpt>
      <trkpt lat="47.54451" lon="6.73141">
        <ele>432.8</ele>
        <time>2016-12-28T14:02:47.999Z</time>
      </trkpt>
      <trkpt lat="47.54451" lon="6.73136">
        <ele>433.1</ele>
        <time>2016-12-28T14:02:49.999Z</time>
      </trkpt>
      <trkpt lat="47.54451" lon="6.73134">
        <ele>433.2</ele>
        <time>2016-12-28T14:02:50.999Z</time>
      </trkpt>
      <trkpt lat="47.54451" lon="6.73129">
        <ele>433.3</ele>
        <time>2016-12-28T14:02:54.999Z</time>
      </trkpt>
      <trkpt lat="47.54452" lon="6.73126">
        <ele>433.4</ele>
        <time>2016-12-28T14:02:55.999Z</time>
      </trkpt>
      <trkpt lat="47.54453" lon="6.73122">
        <ele>433.7</ele>
        <time>2016-12-28T14:02:57.999Z</time>
      </trkpt>
      <trkpt lat="47.54453" lon="6.73119">
        <ele>433.8</ele>
        <time>2016-12-28T14:02:58.999Z</time>
      </trkpt>
      <trkpt lat="47.54453" lon="6.73112">
        <ele>433.9</ele>
        <time>2016-12-28T14:02:59.999Z</time>
      </trkpt>
      <trkpt lat="47.54454" lon="6.73107">
        <ele>434.1</ele>
        <time>2016-12-28T14:03:01.999Z</time>
      </trkpt>
      <trkpt lat="47.54455" lon="6.73104">
        <ele>434.2</ele>
        <time>2016-12-28T14:03:02.999Z</time>
      </trkpt>
      <trkpt lat="47.54458" lon="6.73107">
        <ele>445.1</ele>
        <time>2016-12-28T14:04:21.999Z</time>
      </trkpt>
      <trkpt lat="47.5446" lon="6.73107">
        <ele>445.3</ele>
        <time>2016-12-28T14:04:22.999Z</time>
      </trkpt>
      <trkpt lat="47.54464" lon="6.73106">
        <ele>445.7</ele>
        <time>2016-12-28T14:04:26.999Z</time>
      </trkpt>
      <trkpt lat="47.54466" lon="6.73107">
        <ele>445.9</ele>
        <time>2016-12-28T14:04:27.999Z</time>
      </trkpt>
      <trkpt lat="47.5447" lon="6.73105">
        <ele>446.6</ele>
        <time>2016-12-28T14:04:34.999Z</time>
      </trkpt>
      <trkpt lat="47.5447" lon="6.73105">
        <ele>446.7</ele>
        <time>2016-12-28T14:04:35.999Z</time>
      </trkpt>
      <trkpt lat="47.54473" lon="6.73102">
        <ele>447.1</ele>
        <time>2016-12-28T14:04:41.999Z</time>
      </trkpt>
      <trkpt lat="47.54475" lon="6.73102">
        <ele>447.2</ele>
        <time>2016-12-28T14:04:42.999Z</time>
      </trkpt>
      <trkpt lat="47.54477" lon="6.73101">
        <ele>447.2</ele>
        <time>2016-12-28T14:04:47.999Z</time>
      </trkpt>
      <trkpt lat="47.54483" lon="6.73102">
        <ele>447.2</ele>
        <time>2016-12-28T14:04:48.999Z</time>
      </trkpt>
      <trkpt lat="47.54487" lon="6.73103">
        <ele>447.3</ele>
        <time>2016-12-28T14:04:49.999Z</time>
      </trkpt>
      <trkpt lat="47.54494" lon="6.73102">
        <ele>447.3</ele>
        <time>2016-12-28T14:04:50.999Z</time>
      </trkpt>
      <trkpt lat="47.54498" lon="6.73102">
        <ele>447.4</ele>
        <time>2016-12-28T14:04:51.999Z</time>
      </trkpt>
      <trkpt lat="47.54502" lon="6.73101">
        <ele>447.3</ele>
        <time>2016-12-28T14:04:52.999Z</time>
      </trkpt>
      <trkpt lat="47.54506" lon="6.73099">
        <ele>447.3</ele>
        <time>2016-12-28T14:04:53.999Z</time>
      </trkpt>
      <trkpt lat="47.54509" lon="6.73098">
        <ele>447.5</ele>
        <time>2016-12-28T14:04:56.999Z</time>
      </trkpt>
      <trkpt lat="47.54512" lon="6.73098">
        <ele>447.7</ele>
        <time>2016-12-28T14:04:57.999Z</time>
      </trkpt>
      <trkpt lat="47.54516" lon="6.73096">
        <ele>448.9</ele>
        <time>2016-12-28T14:05:01.999Z</time>
      </trkpt>
      <trkpt lat="47.54519" lon="6.73095">
        <ele>449.2</ele>
        <time>2016-12-28T14:05:02.999Z</time>
      </trkpt>
      <trkpt lat="47.54522" lon="6.73095">
        <ele>449.6</ele>
        <time>2016-12-28T14:05:03.999Z</time>
      </trkpt>
      <trkpt lat="47.54526" lon="6.73094">
        <ele>449.8</ele>
        <time>2016-12-28T14:05:04.999Z</time>
      </trkpt>
      <trkpt lat="47.5453" lon="6.73093">
        <ele>450</ele>
        <time>2016-12-28T14:05:05.999Z</time>
      </trkpt>
      <trkpt lat="47.54533" lon="6.73091">
        <ele>450.3</ele>
        <time>2016-12-28T14:05:07.999Z</time>
      </trkpt>
      <trkpt lat="47.54535" lon="6.73091">
        <ele>450.4</ele>
        <time>2016-12-28T14:05:08.999Z</time>
      </trkpt>
      <trkpt lat="47.54538" lon="6.73088">
        <ele>450.7</ele>
        <time>2016-12-28T14:05:09.999Z</time>
      </trkpt>
      <trkpt lat="47.54541" lon="6.73086">
        <ele>450.9</ele>
        <time>2016-12-28T14:05:10.999Z</time>
      </trkpt>
      <trkpt lat="47.54551" lon="6.73076">
        <ele>451.1</ele>
        <time>2016-12-28T14:05:11.999Z</time>
      </trkpt>
      <trkpt lat="47.54556" lon="6.73072">
        <ele>451.4</ele>
        <time>2016-12-28T14:05:12.999Z</time>
      </trkpt>
      <trkpt lat="47.54558" lon="6.73072">
        <ele>451.7</ele>
        <time>2016-12-28T14:05:13.999Z</time>
      </trkpt>
      <trkpt lat="47.54562" lon="6.73069">
        <ele>451.9</ele>
        <time>2016-12-28T14:05:14.999Z</time>
      </trkpt>
      <trkpt lat="47.54567" lon="6.73067">
        <ele>452.1</ele>
        <time>2016-12-28T14:05:15.999Z</time>
      </trkpt>
      <trkpt lat="47.54571" lon="6.73066">
        <ele>452.3</ele>
        <time>2016-12-28T14:05:16.999Z</time>
      </trkpt>
      <trkpt lat="47.54574" lon="6.73066">
        <ele>452.5</ele>
        <time>2016-12-28T14:05:17.999Z</time>
      </trkpt>
      <trkpt lat="47.54576" lon="6.73065">
        <ele>452.7</ele>
        <time>2016-12-28T14:05:18.999Z</time>
      </trkpt>
      <trkpt lat="47.54579" lon="6.73066">
        <ele>452.8</ele>
        <time>2016-12-28T14:05:19.999Z</time>
      </trkpt>
      <trkpt lat="47.54582" lon="6.73066">
        <ele>453</ele>
        <time>2016-12-28T14:05:20.999Z</time>
      </trkpt>
      <trkpt lat="47.54584" lon="6.73066">
        <ele>453.1</ele>
        <time>2016-12-28T14:05:21.999Z</time>
      </trkpt>
      <trkpt lat="47.54587" lon="6.73067">
        <ele>453.3</ele>
        <time>2016-12-28T14:05:22.999Z</time>
      </trkpt>
      <trkpt lat="47.54589" lon="6.73067">
        <ele>453.4</ele>
        <time>2016-12-28T14:05:23.999Z</time>
      </trkpt>
      <trkpt lat="47.54593" lon="6.73067">
        <ele>453.6</ele>
        <time>2016-12-28T14:05:26.999Z</time>
      </trkpt>
      <trkpt lat="47.54594" lon="6.73067">
        <ele>453.7</ele>
        <time>2016-12-28T14:05:27.999Z</time>
      </trkpt>
      <trkpt lat="47.54595" lon="6.73062">
        <ele>453.6</ele>
        <time>2016-12-28T14:05:29.999Z</time>
      </trkpt>
      <trkpt lat="47.54599" lon="6.7306">
        <ele>453.6</ele>
        <time>2016-12-28T14:05:30.999Z</time>
      </trkpt>
      <trkpt lat="47.54601" lon="6.7306">
        <ele>453.6</ele>
        <time>2016-12-28T14:05:31.999Z</time>
      </trkpt>
      <trkpt lat="47.54604" lon="6.73058">
        <ele>453.4</ele>
        <time>2016-12-28T14:05:32.999Z</time>
      </trkpt>
      <trkpt lat="47.54607" lon="6.73058">
        <ele>453.3</ele>
        <time>2016-12-28T14:05:33.999Z</time>
      </trkpt>
      <trkpt lat="47.54609" lon="6.73058">
        <ele>453.2</ele>
        <time>2016-12-28T14:05:34.999Z</time>
      </trkpt>
      <trkpt lat="47.54611" lon="6.73057">
        <ele>453.1</ele>
        <time>2016-12-28T14:05:35.999Z</time>
      </trkpt>
      <trkpt lat="47.54613" lon="6.73057">
        <ele>453</ele>
        <time>2016-12-28T14:05:36.999Z</time>
      </trkpt>
      <trkpt lat="47.54616" lon="6.73053">
        <ele>452.3</ele>
        <time>2016-12-28T14:05:41.999Z</time>
      </trkpt>
      <trkpt lat="47.54617" lon="6.73054">
        <ele>452.2</ele>
        <time>2016-12-28T14:05:42.999Z</time>
      </trkpt>
      <trkpt lat="47.54621" lon="6.73055">
        <ele>451.7</ele>
        <time>2016-12-28T14:05:44.999Z</time>
      </trkpt>
      <trkpt lat="47.54622" lon="6.73057">
        <ele>451.5</ele>
        <time>2016-12-28T14:05:45.999Z</time>
      </trkpt>
      <trkpt lat="47.54624" lon="6.73059">
        <ele>450.8</ele>
        <time>2016-12-28T14:05:48.999Z</time>
      </trkpt>
      <trkpt lat="47.54626" lon="6.7306">
        <ele>450.6</ele>
        <time>2016-12-28T14:05:49.999Z</time>
      </trkpt>
      <trkpt lat="47.5463" lon="6.73062">
        <ele>450.2</ele>
        <time>2016-12-28T14:05:51.999Z</time>
      </trkpt>
      <trkpt lat="47.54632" lon="6.73063">
        <ele>450</ele>
        <time>2016-12-28T14:05:52.999Z</time>
      </trkpt>
      <trkpt lat="47.54634" lon="6.73065">
        <ele>449.8</ele>
        <time>2016-12-28T14:05:53.999Z</time>
      </trkpt>
      <trkpt lat="47.54636" lon="6.73066">
        <ele>449.6</ele>
        <time>2016-12-28T14:05:54.999Z</time>
      </trkpt>
      <trkpt lat="47.54639" lon="6.73068">
        <ele>449.4</ele>
        <time>2016-12-28T14:05:56.999Z</time>
      </trkpt>
      <trkpt lat="47.54642" lon="6.73069">
        <ele>449.4</ele>
        <time>2016-12-28T14:05:57.999Z</time>
      </trkpt>
      <trkpt lat="47.54645" lon="6.7307">
        <ele>449.3</ele>
        <time>2016-12-28T14:05:58.999Z</time>
      </trkpt>
      <trkpt lat="47.54648" lon="6.73071">
        <ele>449.1</ele>
        <time>2016-12-28T14:05:59.999Z</time>
      </trkpt>
      <trkpt lat="47.54652" lon="6.73073">
        <ele>448.9</ele>
        <time>2016-12-28T14:06:00.999Z</time>
      </trkpt>
      <trkpt lat="47.54658" lon="6.73077">
        <ele>448.7</ele>
        <time>2016-12-28T14:06:01.999Z</time>
      </trkpt>
      <trkpt lat="47.54664" lon="6.73079">
        <ele>448.5</ele>
        <time>2016-12-28T14:06:02.999Z</time>
      </trkpt>
      <trkpt lat="47.54668" lon="6.73082">
        <ele>448.4</ele>
        <time>2016-12-28T14:06:03.999Z</time>
      </trkpt>
      <trkpt lat="47.54674" lon="6.73085">
        <ele>448.3</ele>
        <time>2016-12-28T14:06:04.999Z</time>
      </trkpt>
      <trkpt lat="47.54679" lon="6.73089">
        <ele>448.2</ele>
        <time>2016-12-28T14:06:05.999Z</time>
      </trkpt>
      <trkpt lat="47.54685" lon="6.73091">
        <ele>448.2</ele>
        <time>2016-12-28T14:06:06.999Z</time>
      </trkpt>
      <trkpt lat="47.5469" lon="6.73093">
        <ele>448.2</ele>
        <time>2016-12-28T14:06:07.999Z</time>
      </trkpt>
      <trkpt lat="47.54695" lon="6.73094">
        <ele>448.3</ele>
        <time>2016-12-28T14:06:08.999Z</time>
      </trkpt>
      <trkpt lat="47.547" lon="6.73095">
        <ele>448.3</ele>
        <time>2016-12-28T14:06:09.999Z</time>
      </trkpt>
      <trkpt lat="47.54704" lon="6.73096">
        <ele>448.4</ele>
        <time>2016-12-28T14:06:10.999Z</time>
      </trkpt>
      <trkpt lat="47.54709" lon="6.73098">
        <ele>448.4</ele>
        <time>2016-12-28T14:06:11.999Z</time>
      </trkpt>
      <trkpt lat="47.54713" lon="6.731">
        <ele>448.5</ele>
        <time>2016-12-28T14:06:12.999Z</time>
      </trkpt>
      <trkpt lat="47.54718" lon="6.73102">
        <ele>448.5</ele>
        <time>2016-12-28T14:06:13.999Z</time>
      </trkpt>
      <trkpt lat="47.54723" lon="6.73103">
        <ele>448.4</ele>
        <time>2016-12-28T14:06:14.999Z</time>
      </trkpt>
      <trkpt lat="47.54728" lon="6.73104">
        <ele>448.6</ele>
        <time>2016-12-28T14:06:15.999Z</time>
      </trkpt>
      <trkpt lat="47.54732" lon="6.73105">
        <ele>448.2</ele>
        <time>2016-12-28T14:06:16.999Z</time>
      </trkpt>
      <trkpt lat="47.54738" lon="6.73108">
        <ele>448.6</ele>
        <time>2016-12-28T14:06:17.999Z</time>
      </trkpt>
      <trkpt lat="47.54744" lon="6.7311">
        <ele>448.6</ele>
        <time>2016-12-28T14:06:18.999Z</time>
      </trkpt>
      <trkpt lat="47.54749" lon="6.73113">
        <ele>448.6</ele>
        <time>2016-12-28T14:06:19.999Z</time>
      </trkpt>
      <trkpt lat="47.54754" lon="6.73116">
        <ele>448.7</ele>
        <time>2016-12-28T14:06:20.999Z</time>
      </trkpt>
      <trkpt lat="47.54758" lon="6.73119">
        <ele>449</ele>
        <time>2016-12-28T14:06:21.999Z</time>
      </trkpt>
      <trkpt lat="47.54762" lon="6.73123">
        <ele>449</ele>
        <time>2016-12-28T14:06:22.999Z</time>
      </trkpt>
      <trkpt lat="47.54766" lon="6.73126">
        <ele>449.4</ele>
        <time>2016-12-28T14:06:23.999Z</time>
      </trkpt>
      <trkpt lat="47.5477" lon="6.73129">
        <ele>449.4</ele>
        <time>2016-12-28T14:06:24.999Z</time>
      </trkpt>
      <trkpt lat="47.54775" lon="6.73131">
        <ele>449.1</ele>
        <time>2016-12-28T14:06:25.999Z</time>
      </trkpt>
      <trkpt lat="47.54779" lon="6.73133">
        <ele>449.4</ele>
        <time>2016-12-28T14:06:26.999Z</time>
      </trkpt>
      <trkpt lat="47.54782" lon="6.73134">
        <ele>449.4</ele>
        <time>2016-12-28T14:06:27.999Z</time>
      </trkpt>
      <trkpt lat="47.54786" lon="6.73136">
        <ele>449.5</ele>
        <time>2016-12-28T14:06:28.999Z</time>
      </trkpt>
      <trkpt lat="47.5479" lon="6.73138">
        <ele>449.4</ele>
        <time>2016-12-28T14:06:29.999Z</time>
      </trkpt>
      <trkpt lat="47.54794" lon="6.7314">
        <ele>450.2</ele>
        <time>2016-12-28T14:06:30.999Z</time>
      </trkpt>
      <trkpt lat="47.54799" lon="6.73141">
        <ele>450.9</ele>
        <time>2016-12-28T14:06:31.999Z</time>
      </trkpt>
      <trkpt lat="47.54804" lon="6.73142">
        <ele>451.1</ele>
        <time>2016-12-28T14:06:32.999Z</time>
      </trkpt>
      <trkpt lat="47.5481" lon="6.73143">
        <ele>451.3</ele>
        <time>2016-12-28T14:06:33.999Z</time>
      </trkpt>
      <trkpt lat="47.54814" lon="6.73145">
        <ele>451.1</ele>
        <time>2016-12-28T14:06:34.999Z</time>
      </trkpt>
      <trkpt lat="47.54819" lon="6.73146">
        <ele>450.7</ele>
        <time>2016-12-28T14:06:35.999Z</time>
      </trkpt>
      <trkpt lat="47.54824" lon="6.73147">
        <ele>450.1</ele>
        <time>2016-12-28T14:06:36.999Z</time>
      </trkpt>
      <trkpt lat="47.54829" lon="6.73147">
        <ele>449.8</ele>
        <time>2016-12-28T14:06:37.999Z</time>
      </trkpt>
      <trkpt lat="47.54833" lon="6.73148">
        <ele>449.1</ele>
        <time>2016-12-28T14:06:38.999Z</time>
      </trkpt>
      <trkpt lat="47.54838" lon="6.73149">
        <ele>448.2</ele>
        <time>2016-12-28T14:06:39.999Z</time>
      </trkpt>
      <trkpt lat="47.54843" lon="6.73149">
        <ele>447.2</ele>
        <time>2016-12-28T14:06:40.999Z</time>
      </trkpt>
      <trkpt lat="47.54849" lon="6.73149">
        <ele>445.9</ele>
        <time>2016-12-28T14:06:41.999Z</time>
      </trkpt>
      <trkpt lat="47.54854" lon="6.7315">
        <ele>444.9</ele>
        <time>2016-12-28T14:06:42.999Z</time>
      </trkpt>
      <trkpt lat="47.5486" lon="6.73151">
        <ele>444.4</ele>
        <time>2016-12-28T14:06:43.999Z</time>
      </trkpt>
      <trkpt lat="47.54865" lon="6.73152">
        <ele>443.9</ele>
        <time>2016-12-28T14:06:44.999Z</time>
      </trkpt>
      <trkpt lat="47.54871" lon="6.73152">
        <ele>443.5</ele>
        <time>2016-12-28T14:06:45.999Z</time>
      </trkpt>
      <trkpt lat="47.54877" lon="6.73153">
        <ele>442.6</ele>
        <time>2016-12-28T14:06:46.999Z</time>
      </trkpt>
      <trkpt lat="47.54883" lon="6.73154">
        <ele>441.8</ele>
        <time>2016-12-28T14:06:47.999Z</time>
      </trkpt>
      <trkpt lat="47.54888" lon="6.73154">
        <ele>441.4</ele>
        <time>2016-12-28T14:06:48.999Z</time>
      </trkpt>
      <trkpt lat="47.54894" lon="6.73156">
        <ele>440.9</ele>
        <time>2016-12-28T14:06:49.999Z</time>
      </trkpt>
      <trkpt lat="47.549" lon="6.73157">
        <ele>440.1</ele>
        <time>2016-12-28T14:06:50.999Z</time>
      </trkpt>
      <trkpt lat="47.54907" lon="6.73161">
        <ele>440.3</ele>
        <time>2016-12-28T14:06:51.999Z</time>
      </trkpt>
      <trkpt lat="47.54914" lon="6.73166">
        <ele>439.9</ele>
        <time>2016-12-28T14:06:52.999Z</time>
      </trkpt>
      <trkpt lat="47.54921" lon="6.73172">
        <ele>439.9</ele>
        <time>2016-12-28T14:06:53.999Z</time>
      </trkpt>
      <trkpt lat="47.54927" lon="6.73177">
        <ele>439.8</ele>
        <time>2016-12-28T14:06:54.999Z</time>
      </trkpt>
      <trkpt lat="47.54934" lon="6.73183">
        <ele>439.7</ele>
        <time>2016-12-28T14:06:55.999Z</time>
      </trkpt>
      <trkpt lat="47.5494" lon="6.73188">
        <ele>439.1</ele>
        <time>2016-12-28T14:06:56.999Z</time>
      </trkpt>
      <trkpt lat="47.54945" lon="6.73193">
        <ele>438.1</ele>
        <time>2016-12-28T14:06:57.999Z</time>
      </trkpt>
      <trkpt lat="47.54951" lon="6.73199">
        <ele>436.9</ele>
        <time>2016-12-28T14:06:58.999Z</time>
      </trkpt>
      <trkpt lat="47.54955" lon="6.73206">
        <ele>435.2</ele>
        <time>2016-12-28T14:06:59.999Z</time>
      </trkpt>
      <trkpt lat="47.54959" lon="6.73214">
        <ele>434.3</ele>
        <time>2016-12-28T14:07:00.999Z</time>
      </trkpt>
      <trkpt lat="47.54962" lon="6.73222">
        <ele>433.2</ele>
        <time>2016-12-28T14:07:01.999Z</time>
      </trkpt>
      <trkpt lat="47.54965" lon="6.73231">
        <ele>432.2</ele>
        <time>2016-12-28T14:07:02.999Z</time>
      </trkpt>
      <trkpt lat="47.54967" lon="6.73239">
        <ele>431.2</ele>
        <time>2016-12-28T14:07:03.999Z</time>
      </trkpt>
      <trkpt lat="47.54969" lon="6.73247">
        <ele>430.2</ele>
        <time>2016-12-28T14:07:04.999Z</time>
      </trkpt>
      <trkpt lat="47.54973" lon="6.73252">
        <ele>430.2</ele>
        <time>2016-12-28T14:07:05.999Z</time>
      </trkpt>
      <trkpt lat="47.54976" lon="6.7325">
        <ele>428.8</ele>
        <time>2016-12-28T14:07:06.999Z</time>
      </trkpt>
      <trkpt lat="47.54979" lon="6.7325">
        <ele>428.2</ele>
        <time>2016-12-28T14:07:07.999Z</time>
      </trkpt>
      <trkpt lat="47.54981" lon="6.73253">
        <ele>428.2</ele>
        <time>2016-12-28T14:07:08.999Z</time>
      </trkpt>
      <trkpt lat="47.54986" lon="6.73254">
        <ele>428.1</ele>
        <time>2016-12-28T14:07:09.999Z</time>
      </trkpt>
      <trkpt lat="47.54992" lon="6.7325">
        <ele>428</ele>
        <time>2016-12-28T14:07:10.999Z</time>
      </trkpt>
      <trkpt lat="47.54997" lon="6.73245">
        <ele>428.4</ele>
        <time>2016-12-28T14:07:11.999Z</time>
      </trkpt>
      <trkpt lat="47.55002" lon="6.73239">
        <ele>428.2</ele>
        <time>2016-12-28T14:07:12.999Z</time>
      </trkpt>
      <trkpt lat="47.55007" lon="6.73235">
        <ele>428.1</ele>
        <time>2016-12-28T14:07:13.999Z</time>
      </trkpt>
      <trkpt lat="47.55013" lon="6.73231">
        <ele>428</ele>
        <time>2016-12-28T14:07:14.999Z</time>
      </trkpt>
      <trkpt lat="47.55018" lon="6.73228">
        <ele>427.5</ele>
        <time>2016-12-28T14:07:15.999Z</time>
      </trkpt>
      <trkpt lat="47.55022" lon="6.73225">
        <ele>426.8</ele>
        <time>2016-12-28T14:07:16.999Z</time>
      </trkpt>
      <trkpt lat="47.55026" lon="6.73222">
        <ele>426.7</ele>
        <time>2016-12-28T14:07:17.999Z</time>
      </trkpt>
      <trkpt lat="47.5503" lon="6.73221">
        <ele>426.7</ele>
        <time>2016-12-28T14:07:18.999Z</time>
      </trkpt>
      <trkpt lat="47.55034" lon="6.73222">
        <ele>426.3</ele>
        <time>2016-12-28T14:07:19.999Z</time>
      </trkpt>
      <trkpt lat="47.55038" lon="6.73219">
        <ele>425.9</ele>
        <time>2016-12-28T14:07:20.999Z</time>
      </trkpt>
      <trkpt lat="47.5504" lon="6.73214">
        <ele>426.2</ele>
        <time>2016-12-28T14:07:21.999Z</time>
      </trkpt>
      <trkpt lat="47.55041" lon="6.73206">
        <ele>426.6</ele>
        <time>2016-12-28T14:07:22.999Z</time>
      </trkpt>
      <trkpt lat="47.55042" lon="6.73199">
        <ele>426.1</ele>
        <time>2016-12-28T14:07:23.999Z</time>
      </trkpt>
      <trkpt lat="47.55042" lon="6.73192">
        <ele>426.1</ele>
        <time>2016-12-28T14:07:24.999Z</time>
      </trkpt>
      <trkpt lat="47.55041" lon="6.73186">
        <ele>426</ele>
        <time>2016-12-28T14:07:25.999Z</time>
      </trkpt>
      <trkpt lat="47.55042" lon="6.73179">
        <ele>426.3</ele>
        <time>2016-12-28T14:07:26.999Z</time>
      </trkpt>
      <trkpt lat="47.55042" lon="6.73172">
        <ele>426.5</ele>
        <time>2016-12-28T14:07:27.999Z</time>
      </trkpt>
      <trkpt lat="47.55041" lon="6.73165">
        <ele>427.2</ele>
        <time>2016-12-28T14:07:28.999Z</time>
      </trkpt>
      <trkpt lat="47.55041" lon="6.73158">
        <ele>428</ele>
        <time>2016-12-28T14:07:29.999Z</time>
      </trkpt>
      <trkpt lat="47.55041" lon="6.7315">
        <ele>428.7</ele>
        <time>2016-12-28T14:07:30.999Z</time>
      </trkpt>
      <trkpt lat="47.55041" lon="6.73143">
        <ele>429.1</ele>
        <time>2016-12-28T14:07:31.999Z</time>
      </trkpt>
      <trkpt lat="47.55042" lon="6.73135">
        <ele>428.6</ele>
        <time>2016-12-28T14:07:32.999Z</time>
      </trkpt>
      <trkpt lat="47.55043" lon="6.73128">
        <ele>428.5</ele>
        <time>2016-12-28T14:07:33.999Z</time>
      </trkpt>
      <trkpt lat="47.55044" lon="6.73121">
        <ele>428.8</ele>
        <time>2016-12-28T14:07:34.999Z</time>
      </trkpt>
      <trkpt lat="47.55046" lon="6.73115">
        <ele>429.5</ele>
        <time>2016-12-28T14:07:35.999Z</time>
      </trkpt>
      <trkpt lat="47.55046" lon="6.73108">
        <ele>430</ele>
        <time>2016-12-28T14:07:36.999Z</time>
      </trkpt>
      <trkpt lat="47.55046" lon="6.73102">
        <ele>429.9</ele>
        <time>2016-12-28T14:07:37.999Z</time>
      </trkpt>
      <trkpt lat="47.55045" lon="6.73096">
        <ele>429.2</ele>
        <time>2016-12-28T14:07:38.999Z</time>
      </trkpt>
      <trkpt lat="47.55043" lon="6.7309">
        <ele>427.8</ele>
        <time>2016-12-28T14:07:39.999Z</time>
      </trkpt>
      <trkpt lat="47.55041" lon="6.73083">
        <ele>427.5</ele>
        <time>2016-12-28T14:07:40.999Z</time>
      </trkpt>
      <trkpt lat="47.55039" lon="6.73077">
        <ele>427.5</ele>
        <time>2016-12-28T14:07:41.999Z</time>
      </trkpt>
      <trkpt lat="47.55037" lon="6.7307">
        <ele>427.6</ele>
        <time>2016-12-28T14:07:42.999Z</time>
      </trkpt>
      <trkpt lat="47.55036" lon="6.73065">
        <ele>427.6</ele>
        <time>2016-12-28T14:07:43.999Z</time>
      </trkpt>
      <trkpt lat="47.55035" lon="6.73059">
        <ele>426.5</ele>
        <time>2016-12-28T14:07:44.999Z</time>
      </trkpt>
      <trkpt lat="47.55033" lon="6.73053">
        <ele>426.2</ele>
        <time>2016-12-28T14:07:45.999Z</time>
      </trkpt>
      <trkpt lat="47.55032" lon="6.73048">
        <ele>425.7</ele>
        <time>2016-12-28T14:07:46.999Z</time>
      </trkpt>
      <trkpt lat="47.55032" lon="6.73043">
        <ele>424.9</ele>
        <time>2016-12-28T14:07:47.999Z</time>
      </trkpt>
      <trkpt lat="47.55031" lon="6.73037">
        <ele>424.4</ele>
        <time>2016-12-28T14:07:48.999Z</time>
      </trkpt>
      <trkpt lat="47.55029" lon="6.73031">
        <ele>424.1</ele>
        <time>2016-12-28T14:07:49.999Z</time>
      </trkpt>
      <trkpt lat="47.55028" lon="6.73026">
        <ele>423</ele>
        <time>2016-12-28T14:07:50.999Z</time>
      </trkpt>
      <trkpt lat="47.55027" lon="6.73021">
        <ele>422.9</ele>
        <time>2016-12-28T14:07:51.999Z</time>
      </trkpt>
      <trkpt lat="47.55025" lon="6.73016">
        <ele>422.8</ele>
        <time>2016-12-28T14:07:52.999Z</time>
      </trkpt>
      <trkpt lat="47.55022" lon="6.73009">
        <ele>421.5</ele>
        <time>2016-12-28T14:07:53.999Z</time>
      </trkpt>
      <trkpt lat="47.5502" lon="6.73003">
        <ele>421.5</ele>
        <time>2016-12-28T14:07:54.999Z</time>
      </trkpt>
      <trkpt lat="47.55017" lon="6.72998">
        <ele>420.6</ele>
        <time>2016-12-28T14:07:55.999Z</time>
      </trkpt>
      <trkpt lat="47.55015" lon="6.72992">
        <ele>420</ele>
        <time>2016-12-28T14:07:56.999Z</time>
      </trkpt>
      <trkpt lat="47.55013" lon="6.72986">
        <ele>420.4</ele>
        <time>2016-12-28T14:07:57.999Z</time>
      </trkpt>
      <trkpt lat="47.55011" lon="6.7298">
        <ele>421.3</ele>
        <time>2016-12-28T14:07:58.999Z</time>
      </trkpt>
      <trkpt lat="47.55009" lon="6.72974">
        <ele>421.9</ele>
        <time>2016-12-28T14:07:59.999Z</time>
      </trkpt>
      <trkpt lat="47.55008" lon="6.72969">
        <ele>422.1</ele>
        <time>2016-12-28T14:08:00.999Z</time>
      </trkpt>
      <trkpt lat="47.55007" lon="6.72963">
        <ele>422.2</ele>
        <time>2016-12-28T14:08:01.999Z</time>
      </trkpt>
      <trkpt lat="47.55005" lon="6.72957">
        <ele>421.9</ele>
        <time>2016-12-28T14:08:02.999Z</time>
      </trkpt>
      <trkpt lat="47.55004" lon="6.7295">
        <ele>421.4</ele>
        <time>2016-12-28T14:08:03.999Z</time>
      </trkpt>
      <trkpt lat="47.55002" lon="6.72943">
        <ele>420.9</ele>
        <time>2016-12-28T14:08:04.999Z</time>
      </trkpt>
      <trkpt lat="47.55001" lon="6.72937">
        <ele>420.7</ele>
        <time>2016-12-28T14:08:05.999Z</time>
      </trkpt>
      <trkpt lat="47.55" lon="6.7293">
        <ele>420.9</ele>
        <time>2016-12-28T14:08:06.999Z</time>
      </trkpt>
      <trkpt lat="47.55001" lon="6.72922">
        <ele>421.1</ele>
        <time>2016-12-28T14:08:07.999Z</time>
      </trkpt>
      <trkpt lat="47.55002" lon="6.72916">
        <ele>420.7</ele>
        <time>2016-12-28T14:08:08.999Z</time>
      </trkpt>
      <trkpt lat="47.55004" lon="6.72909">
        <ele>420.5</ele>
        <time>2016-12-28T14:08:09.999Z</time>
      </trkpt>
      <trkpt lat="47.55005" lon="6.72903">
        <ele>420.7</ele>
        <time>2016-12-28T14:08:10.999Z</time>
      </trkpt>
      <trkpt lat="47.55007" lon="6.72896">
        <ele>421</ele>
        <time>2016-12-28T14:08:11.999Z</time>
      </trkpt>
      <trkpt lat="47.55009" lon="6.72888">
        <ele>421.2</ele>
        <time>2016-12-28T14:08:12.999Z</time>
      </trkpt>
      <trkpt lat="47.5501" lon="6.72879">
        <ele>421.2</ele>
        <time>2016-12-28T14:08:13.999Z</time>
      </trkpt>
      <trkpt lat="47.55011" lon="6.72871">
        <ele>420.7</ele>
        <time>2016-12-28T14:08:14.999Z</time>
      </trkpt>
      <trkpt lat="47.5501" lon="6.72863">
        <ele>420.9</ele>
        <time>2016-12-28T14:08:15.999Z</time>
      </trkpt>
      <trkpt lat="47.55009" lon="6.72853">
        <ele>420.8</ele>
        <time>2016-12-28T14:08:16.999Z</time>
      </trkpt>
      <trkpt lat="47.55008" lon="6.72843">
        <ele>420.4</ele>
        <time>2016-12-28T14:08:17.999Z</time>
      </trkpt>
      <trkpt lat="47.55007" lon="6.72834">
        <ele>419.8</ele>
        <time>2016-12-28T14:08:18.999Z</time>
      </trkpt>
      <trkpt lat="47.55005" lon="6.72825">
        <ele>419.3</ele>
        <time>2016-12-28T14:08:19.999Z</time>
      </trkpt>
      <trkpt lat="47.55003" lon="6.72816">
        <ele>418.5</ele>
        <time>2016-12-28T14:08:20.999Z</time>
      </trkpt>
      <trkpt lat="47.55" lon="6.72807">
        <ele>418.2</ele>
        <time>2016-12-28T14:08:21.999Z</time>
      </trkpt>
      <trkpt lat="47.54998" lon="6.728">
        <ele>417.8</ele>
        <time>2016-12-28T14:08:22.999Z</time>
      </trkpt>
      <trkpt lat="47.54995" lon="6.72791">
        <ele>417.3</ele>
        <time>2016-12-28T14:08:23.999Z</time>
      </trkpt>
      <trkpt lat="47.54993" lon="6.72782">
        <ele>416.2</ele>
        <time>2016-12-28T14:08:24.999Z</time>
      </trkpt>
      <trkpt lat="47.54991" lon="6.72773">
        <ele>414.7</ele>
        <time>2016-12-28T14:08:25.999Z</time>
      </trkpt>
      <trkpt lat="47.5499" lon="6.72764">
        <ele>413.7</ele>
        <time>2016-12-28T14:08:26.999Z</time>
      </trkpt>
      <trkpt lat="47.54989" lon="6.72755">
        <ele>412.9</ele>
        <time>2016-12-28T14:08:27.999Z</time>
      </trkpt>
      <trkpt lat="47.54989" lon="6.72747">
        <ele>412.2</ele>
        <time>2016-12-28T14:08:28.999Z</time>
      </trkpt>
      <trkpt lat="47.54988" lon="6.72739">
        <ele>411.9</ele>
        <time>2016-12-28T14:08:29.999Z</time>
      </trkpt>
      <trkpt lat="47.54988" lon="6.7273">
        <ele>411.1</ele>
        <time>2016-12-28T14:08:30.999Z</time>
      </trkpt>
      <trkpt lat="47.54986" lon="6.72723">
        <ele>410.9</ele>
        <time>2016-12-28T14:08:31.999Z</time>
      </trkpt>
      <trkpt lat="47.54983" lon="6.72717">
        <ele>410.6</ele>
        <time>2016-12-28T14:08:32.999Z</time>
      </trkpt>
      <trkpt lat="47.54981" lon="6.72712">
        <ele>411.1</ele>
        <time>2016-12-28T14:08:33.999Z</time>
      </trkpt>
      <trkpt lat="47.54979" lon="6.72707">
        <ele>411</ele>
        <time>2016-12-28T14:08:34.999Z</time>
      </trkpt>
      <trkpt lat="47.54977" lon="6.72702">
        <ele>411</ele>
        <time>2016-12-28T14:08:35.999Z</time>
      </trkpt>
      <trkpt lat="47.54973" lon="6.72696">
        <ele>411.5</ele>
        <time>2016-12-28T14:08:36.999Z</time>
      </trkpt>
      <trkpt lat="47.5497" lon="6.7269">
        <ele>411.7</ele>
        <time>2016-12-28T14:08:37.999Z</time>
      </trkpt>
      <trkpt lat="47.54968" lon="6.72685">
        <ele>411.7</ele>
        <time>2016-12-28T14:08:38.999Z</time>
      </trkpt>
      <trkpt lat="47.54965" lon="6.72681">
        <ele>411.8</ele>
        <time>2016-12-28T14:08:39.999Z</time>
      </trkpt>
      <trkpt lat="47.54963" lon="6.72677">
        <ele>411.8</ele>
        <time>2016-12-28T14:08:40.999Z</time>
      </trkpt>
      <trkpt lat="47.54961" lon="6.72673">
        <ele>411.8</ele>
        <time>2016-12-28T14:08:41.999Z</time>
      </trkpt>
      <trkpt lat="47.54959" lon="6.72669">
        <ele>411.7</ele>
        <time>2016-12-28T14:08:42.999Z</time>
      </trkpt>
      <trkpt lat="47.54957" lon="6.72666">
        <ele>411.6</ele>
        <time>2016-12-28T14:08:43.999Z</time>
      </trkpt>
      <trkpt lat="47.54955" lon="6.72661">
        <ele>411.6</ele>
        <time>2016-12-28T14:08:44.999Z</time>
      </trkpt>
      <trkpt lat="47.54953" lon="6.72656">
        <ele>411.6</ele>
        <time>2016-12-28T14:08:45.999Z</time>
      </trkpt>
      <trkpt lat="47.54951" lon="6.72653">
        <ele>411.5</ele>
        <time>2016-12-28T14:08:46.999Z</time>
      </trkpt>
      <trkpt lat="47.54949" lon="6.72648">
        <ele>411.5</ele>
        <time>2016-12-28T14:08:47.999Z</time>
      </trkpt>
      <trkpt lat="47.54947" lon="6.72645">
        <ele>411.5</ele>
        <time>2016-12-28T14:08:48.999Z</time>
      </trkpt>
      <trkpt lat="47.54945" lon="6.7264">
        <ele>411.4</ele>
        <time>2016-12-28T14:08:49.999Z</time>
      </trkpt>
      <trkpt lat="47.54942" lon="6.72636">
        <ele>411.4</ele>
        <time>2016-12-28T14:08:50.999Z</time>
      </trkpt>
      <trkpt lat="47.5494" lon="6.72633">
        <ele>411.4</ele>
        <time>2016-12-28T14:08:51.999Z</time>
      </trkpt>
      <trkpt lat="47.54937" lon="6.72629">
        <ele>411.3</ele>
        <time>2016-12-28T14:08:52.999Z</time>
      </trkpt>
      <trkpt lat="47.54934" lon="6.72625">
        <ele>411.4</ele>
        <time>2016-12-28T14:08:53.999Z</time>
      </trkpt>
      <trkpt lat="47.54933" lon="6.72622">
        <ele>411.4</ele>
        <time>2016-12-28T14:08:54.999Z</time>
      </trkpt>
      <trkpt lat="47.54931" lon="6.72619">
        <ele>411.5</ele>
        <time>2016-12-28T14:08:55.999Z</time>
      </trkpt>
      <trkpt lat="47.54929" lon="6.72615">
        <ele>411.5</ele>
        <time>2016-12-28T14:08:56.999Z</time>
      </trkpt>
      <trkpt lat="47.54927" lon="6.72611">
        <ele>411.6</ele>
        <time>2016-12-28T14:08:57.999Z</time>
      </trkpt>
      <trkpt lat="47.54926" lon="6.72608">
        <ele>411.6</ele>
        <time>2016-12-28T14:08:58.999Z</time>
      </trkpt>
      <trkpt lat="47.54924" lon="6.72604">
        <ele>411.6</ele>
        <time>2016-12-28T14:08:59.999Z</time>
      </trkpt>
      <trkpt lat="47.54922" lon="6.72601">
        <ele>411.7</ele>
        <time>2016-12-28T14:09:00.999Z</time>
      </trkpt>
      <trkpt lat="47.5492" lon="6.72597">
        <ele>411.8</ele>
        <time>2016-12-28T14:09:01.999Z</time>
      </trkpt>
      <trkpt lat="47.54918" lon="6.72593">
        <ele>411.8</ele>
        <time>2016-12-28T14:09:02.999Z</time>
      </trkpt>
      <trkpt lat="47.54917" lon="6.72589">
        <ele>411.8</ele>
        <time>2016-12-28T14:09:03.999Z</time>
      </trkpt>
      <trkpt lat="47.54916" lon="6.72585">
        <ele>411.8</ele>
        <time>2016-12-28T14:09:04.999Z</time>
      </trkpt>
      <trkpt lat="47.54915" lon="6.7258">
        <ele>411.7</ele>
        <time>2016-12-28T14:09:05.999Z</time>
      </trkpt>
      <trkpt lat="47.54915" lon="6.72575">
        <ele>411.7</ele>
        <time>2016-12-28T14:09:06.999Z</time>
      </trkpt>
      <trkpt lat="47.54915" lon="6.72571">
        <ele>411.8</ele>
        <time>2016-12-28T14:09:07.999Z</time>
      </trkpt>
      <trkpt lat="47.54917" lon="6.72568">
        <ele>411.9</ele>
        <time>2016-12-28T14:09:09.000Z</time>
      </trkpt>
      <trkpt lat="47.54918" lon="6.72566">
        <ele>412</ele>
        <time>2016-12-28T14:09:09.999Z</time>
      </trkpt>
      <trkpt lat="47.54922" lon="6.72562">
        <ele>412.2</ele>
        <time>2016-12-28T14:09:12.000Z</time>
      </trkpt>
      <trkpt lat="47.54924" lon="6.7256">
        <ele>412.3</ele>
        <time>2016-12-28T14:09:13.000Z</time>
      </trkpt>
      <trkpt lat="47.54925" lon="6.72557">
        <ele>412.4</ele>
        <time>2016-12-28T14:09:14.000Z</time>
      </trkpt>
      <trkpt lat="47.54927" lon="6.72555">
        <ele>412.5</ele>
        <time>2016-12-28T14:09:15.000Z</time>
      </trkpt>
      <trkpt lat="47.5493" lon="6.72551">
        <ele>412.9</ele>
        <time>2016-12-28T14:09:17.000Z</time>
      </trkpt>
      <trkpt lat="47.54932" lon="6.72549">
        <ele>413.1</ele>
        <time>2016-12-28T14:09:18.000Z</time>
      </trkpt>
      <trkpt lat="47.54934" lon="6.72546">
        <ele>413.2</ele>
        <time>2016-12-28T14:09:19.000Z</time>
      </trkpt>
      <trkpt lat="47.54936" lon="6.72544">
        <ele>413.3</ele>
        <time>2016-12-28T14:09:20.000Z</time>
      </trkpt>
      <trkpt lat="47.54938" lon="6.72541">
        <ele>413.4</ele>
        <time>2016-12-28T14:09:21.000Z</time>
      </trkpt>
      <trkpt lat="47.5494" lon="6.72538">
        <ele>413.6</ele>
        <time>2016-12-28T14:09:22.000Z</time>
      </trkpt>
      <trkpt lat="47.54943" lon="6.72534">
        <ele>413.8</ele>
        <time>2016-12-28T14:09:24.000Z</time>
      </trkpt>
      <trkpt lat="47.54945" lon="6.72532">
        <ele>413.9</ele>
        <time>2016-12-28T14:09:25.000Z</time>
      </trkpt>
      <trkpt lat="47.54947" lon="6.72529">
        <ele>414</ele>
        <time>2016-12-28T14:09:26.000Z</time>
      </trkpt>
      <trkpt lat="47.54949" lon="6.72526">
        <ele>414.1</ele>
        <time>2016-12-28T14:09:27.000Z</time>
      </trkpt>
      <trkpt lat="47.5495" lon="6.72523">
        <ele>414.2</ele>
        <time>2016-12-28T14:09:28.000Z</time>
      </trkpt>
      <trkpt lat="47.54952" lon="6.7252">
        <ele>414.4</ele>
        <time>2016-12-28T14:09:29.000Z</time>
      </trkpt>
      <trkpt lat="47.54955" lon="6.72516">
        <ele>414.6</ele>
        <time>2016-12-28T14:09:31.000Z</time>
      </trkpt>
      <trkpt lat="47.54957" lon="6.72513">
        <ele>414.8</ele>
        <time>2016-12-28T14:09:32.000Z</time>
      </trkpt>
      <trkpt lat="47.54959" lon="6.7251">
        <ele>414.9</ele>
        <time>2016-12-28T14:09:33.000Z</time>
      </trkpt>
      <trkpt lat="47.5496" lon="6.72507">
        <ele>415.1</ele>
        <time>2016-12-28T14:09:34.000Z</time>
      </trkpt>
      <trkpt lat="47.54962" lon="6.72503">
        <ele>415.2</ele>
        <time>2016-12-28T14:09:35.000Z</time>
      </trkpt>
      <trkpt lat="47.54964" lon="6.72501">
        <ele>415.3</ele>
        <time>2016-12-28T14:09:36.000Z</time>
      </trkpt>
      <trkpt lat="47.54965" lon="6.72498">
        <ele>415.5</ele>
        <time>2016-12-28T14:09:37.000Z</time>
      </trkpt>
      <trkpt lat="47.54967" lon="6.72496">
        <ele>415.7</ele>
        <time>2016-12-28T14:09:38.000Z</time>
      </trkpt>
      <trkpt lat="47.54969" lon="6.72493">
        <ele>415.9</ele>
        <time>2016-12-28T14:09:39.000Z</time>
      </trkpt>
      <trkpt lat="47.54971" lon="6.7249">
        <ele>416</ele>
        <time>2016-12-28T14:09:40.000Z</time>
      </trkpt>
      <trkpt lat="47.54972" lon="6.72488">
        <ele>416.1</ele>
        <time>2016-12-28T14:09:41.000Z</time>
      </trkpt>
      <trkpt lat="47.54974" lon="6.72485">
        <ele>416.2</ele>
        <time>2016-12-28T14:09:42.000Z</time>
      </trkpt>
      <trkpt lat="47.54975" lon="6.72481">
        <ele>416.4</ele>
        <time>2016-12-28T14:09:43.000Z</time>
      </trkpt>
      <trkpt lat="47.54977" lon="6.72479">
        <ele>416.5</ele>
        <time>2016-12-28T14:09:44.000Z</time>
      </trkpt>
      <trkpt lat="47.5498" lon="6.72474">
        <ele>416.8</ele>
        <time>2016-12-28T14:09:46.000Z</time>
      </trkpt>
      <trkpt lat="47.54981" lon="6.72472">
        <ele>416.9</ele>
        <time>2016-12-28T14:09:47.000Z</time>
      </trkpt>
      <trkpt lat="47.54983" lon="6.72469">
        <ele>417</ele>
        <time>2016-12-28T14:09:48.000Z</time>
      </trkpt>
      <trkpt lat="47.54985" lon="6.72467">
        <ele>417.2</ele>
        <time>2016-12-28T14:09:49.000Z</time>
      </trkpt>
      <trkpt lat="47.54986" lon="6.72464">
        <ele>417.4</ele>
        <time>2016-12-28T14:09:50.000Z</time>
      </trkpt>
      <trkpt lat="47.54988" lon="6.72462">
        <ele>417.6</ele>
        <time>2016-12-28T14:09:51.000Z</time>
      </trkpt>
      <trkpt lat="47.5499" lon="6.7246">
        <ele>417.7</ele>
        <time>2016-12-28T14:09:52.000Z</time>
      </trkpt>
      <trkpt lat="47.54992" lon="6.72457">
        <ele>417.9</ele>
        <time>2016-12-28T14:09:53.000Z</time>
      </trkpt>
      <trkpt lat="47.54993" lon="6.72455">
        <ele>418.1</ele>
        <time>2016-12-28T14:09:54.000Z</time>
      </trkpt>
      <trkpt lat="47.54995" lon="6.72452">
        <ele>418.2</ele>
        <time>2016-12-28T14:09:55.000Z</time>
      </trkpt>
      <trkpt lat="47.54998" lon="6.72448">
        <ele>418.5</ele>
        <time>2016-12-28T14:09:57.000Z</time>
      </trkpt>
      <trkpt lat="47.55" lon="6.72445">
        <ele>418.7</ele>
        <time>2016-12-28T14:09:58.000Z</time>
      </trkpt>
      <trkpt lat="47.55002" lon="6.72443">
        <ele>418.8</ele>
        <time>2016-12-28T14:09:59.000Z</time>
      </trkpt>
      <trkpt lat="47.55004" lon="6.72439">
        <ele>419</ele>
        <time>2016-12-28T14:10:00.000Z</time>
      </trkpt>
      <trkpt lat="47.55006" lon="6.72437">
        <ele>419.2</ele>
        <time>2016-12-28T14:10:01.000Z</time>
      </trkpt>
      <trkpt lat="47.55008" lon="6.72433">
        <ele>419.3</ele>
        <time>2016-12-28T14:10:02.000Z</time>
      </trkpt>
      <trkpt lat="47.55011" lon="6.72429">
        <ele>419.6</ele>
        <time>2016-12-28T14:10:04.000Z</time>
      </trkpt>
      <trkpt lat="47.55013" lon="6.72427">
        <ele>419.8</ele>
        <time>2016-12-28T14:10:05.000Z</time>
      </trkpt>
      <trkpt lat="47.55014" lon="6.72424">
        <ele>419.9</ele>
        <time>2016-12-28T14:10:06.000Z</time>
      </trkpt>
      <trkpt lat="47.55016" lon="6.72421">
        <ele>420</ele>
        <time>2016-12-28T14:10:07.000Z</time>
      </trkpt>
      <trkpt lat="47.55017" lon="6.72419">
        <ele>420.1</ele>
        <time>2016-12-28T14:10:08.000Z</time>
      </trkpt>
      <trkpt lat="47.55019" lon="6.72417">
        <ele>420.2</ele>
        <time>2016-12-28T14:10:09.000Z</time>
      </trkpt>
      <trkpt lat="47.55021" lon="6.72415">
        <ele>420.4</ele>
        <time>2016-12-28T14:10:10.000Z</time>
      </trkpt>
      <trkpt lat="47.55023" lon="6.72412">
        <ele>420.5</ele>
        <time>2016-12-28T14:10:11.000Z</time>
      </trkpt>
      <trkpt lat="47.55025" lon="6.72409">
        <ele>420.7</ele>
        <time>2016-12-28T14:10:12.000Z</time>
      </trkpt>
      <trkpt lat="47.55028" lon="6.72405">
        <ele>420.8</ele>
        <time>2016-12-28T14:10:13.000Z</time>
      </trkpt>
      <trkpt lat="47.5503" lon="6.72402">
        <ele>421</ele>
        <time>2016-12-28T14:10:14.000Z</time>
      </trkpt>
      <trkpt lat="47.55032" lon="6.724">
        <ele>421.1</ele>
        <time>2016-12-28T14:10:15.000Z</time>
      </trkpt>
      <trkpt lat="47.55035" lon="6.72395">
        <ele>421.3</ele>
        <time>2016-12-28T14:10:17.000Z</time>
      </trkpt>
      <trkpt lat="47.55037" lon="6.72393">
        <ele>421.5</ele>
        <time>2016-12-28T14:10:18.000Z</time>
      </trkpt>
      <trkpt lat="47.5504" lon="6.72389">
        <ele>421.7</ele>
        <time>2016-12-28T14:10:20.000Z</time>
      </trkpt>
      <trkpt lat="47.55041" lon="6.72386">
        <ele>421.8</ele>
        <time>2016-12-28T14:10:21.000Z</time>
      </trkpt>
      <trkpt lat="47.55043" lon="6.72383">
        <ele>421.9</ele>
        <time>2016-12-28T14:10:22.000Z</time>
      </trkpt>
      <trkpt lat="47.55045" lon="6.7238">
        <ele>422</ele>
        <time>2016-12-28T14:10:23.000Z</time>
      </trkpt>
      <trkpt lat="47.55047" lon="6.72377">
        <ele>422.2</ele>
        <time>2016-12-28T14:10:24.000Z</time>
      </trkpt>
      <trkpt lat="47.5505" lon="6.72374">
        <ele>422.3</ele>
        <time>2016-12-28T14:10:25.000Z</time>
      </trkpt>
      <trkpt lat="47.55052" lon="6.72371">
        <ele>422.5</ele>
        <time>2016-12-28T14:10:26.000Z</time>
      </trkpt>
      <trkpt lat="47.55054" lon="6.72368">
        <ele>422.7</ele>
        <time>2016-12-28T14:10:27.000Z</time>
      </trkpt>
      <trkpt lat="47.55056" lon="6.72365">
        <ele>422.8</ele>
        <time>2016-12-28T14:10:28.000Z</time>
      </trkpt>
      <trkpt lat="47.55057" lon="6.72362">
        <ele>423</ele>
        <time>2016-12-28T14:10:29.000Z</time>
      </trkpt>
      <trkpt lat="47.55059" lon="6.72359">
        <ele>423.1</ele>
        <time>2016-12-28T14:10:30.000Z</time>
      </trkpt>
      <trkpt lat="47.55061" lon="6.72356">
        <ele>423.2</ele>
        <time>2016-12-28T14:10:31.000Z</time>
      </trkpt>
      <trkpt lat="47.55063" lon="6.72353">
        <ele>423.3</ele>
        <time>2016-12-28T14:10:32.000Z</time>
      </trkpt>
      <trkpt lat="47.55065" lon="6.7235">
        <ele>423.3</ele>
        <time>2016-12-28T14:10:33.000Z</time>
      </trkpt>
      <trkpt lat="47.55068" lon="6.72348">
        <ele>423.4</ele>
        <time>2016-12-28T14:10:34.000Z</time>
      </trkpt>
      <trkpt lat="47.5507" lon="6.72346">
        <ele>423.4</ele>
        <time>2016-12-28T14:10:35.000Z</time>
      </trkpt>
      <trkpt lat="47.55073" lon="6.72344">
        <ele>423.5</ele>
        <time>2016-12-28T14:10:36.000Z</time>
      </trkpt>
      <trkpt lat="47.55076" lon="6.72342">
        <ele>423.5</ele>
        <time>2016-12-28T14:10:37.000Z</time>
      </trkpt>
      <trkpt lat="47.55079" lon="6.7234">
        <ele>423.5</ele>
        <time>2016-12-28T14:10:38.000Z</time>
      </trkpt>
      <trkpt lat="47.55083" lon="6.72337">
        <ele>423.5</ele>
        <time>2016-12-28T14:10:39.000Z</time>
      </trkpt>
      <trkpt lat="47.55086" lon="6.72335">
        <ele>423.5</ele>
        <time>2016-12-28T14:10:40.000Z</time>
      </trkpt>
      <trkpt lat="47.55089" lon="6.72333">
        <ele>423.5</ele>
        <time>2016-12-28T14:10:41.000Z</time>
      </trkpt>
      <trkpt lat="47.55091" lon="6.72331">
        <ele>423.5</ele>
        <time>2016-12-28T14:10:42.000Z</time>
      </trkpt>
      <trkpt lat="47.55094" lon="6.72329">
        <ele>423.5</ele>
        <time>2016-12-28T14:10:43.000Z</time>
      </trkpt>
      <trkpt lat="47.55098" lon="6.72325">
        <ele>423.2</ele>
        <time>2016-12-28T14:10:44.000Z</time>
      </trkpt>
      <trkpt lat="47.55102" lon="6.72322">
        <ele>422.7</ele>
        <time>2016-12-28T14:10:45.000Z</time>
      </trkpt>
      <trkpt lat="47.55106" lon="6.72319">
        <ele>422.2</ele>
        <time>2016-12-28T14:10:46.000Z</time>
      </trkpt>
      <trkpt lat="47.5511" lon="6.72316">
        <ele>421.5</ele>
        <time>2016-12-28T14:10:47.000Z</time>
      </trkpt>
      <trkpt lat="47.55114" lon="6.72313">
        <ele>420.6</ele>
        <time>2016-12-28T14:10:48.000Z</time>
      </trkpt>
      <trkpt lat="47.55118" lon="6.72309">
        <ele>419.8</ele>
        <time>2016-12-28T14:10:49.000Z</time>
      </trkpt>
      <trkpt lat="47.55122" lon="6.72304">
        <ele>419.1</ele>
        <time>2016-12-28T14:10:50.000Z</time>
      </trkpt>
      <trkpt lat="47.55125" lon="6.723">
        <ele>418.4</ele>
        <time>2016-12-28T14:10:51.000Z</time>
      </trkpt>
      <trkpt lat="47.5513" lon="6.72297">
        <ele>417.5</ele>
        <time>2016-12-28T14:10:52.000Z</time>
      </trkpt>
      <trkpt lat="47.55135" lon="6.72293">
        <ele>416.9</ele>
        <time>2016-12-28T14:10:53.000Z</time>
      </trkpt>
      <trkpt lat="47.55139" lon="6.72288">
        <ele>416.1</ele>
        <time>2016-12-28T14:10:54.000Z</time>
      </trkpt>
      <trkpt lat="47.55144" lon="6.72285">
        <ele>415</ele>
        <time>2016-12-28T14:10:55.000Z</time>
      </trkpt>
      <trkpt lat="47.55148" lon="6.72282">
        <ele>414.8</ele>
        <time>2016-12-28T14:10:56.000Z</time>
      </trkpt>
      <trkpt lat="47.55152" lon="6.72279">
        <ele>414.5</ele>
        <time>2016-12-28T14:10:57.000Z</time>
      </trkpt>
      <trkpt lat="47.55155" lon="6.72276">
        <ele>414.6</ele>
        <time>2016-12-28T14:10:58.000Z</time>
      </trkpt>
      <trkpt lat="47.55158" lon="6.72272">
        <ele>414.6</ele>
        <time>2016-12-28T14:10:59.000Z</time>
      </trkpt>
      <trkpt lat="47.5516" lon="6.72269">
        <ele>414.6</ele>
        <time>2016-12-28T14:11:00.000Z</time>
      </trkpt>
      <trkpt lat="47.5516" lon="6.72264">
        <ele>414.6</ele>
        <time>2016-12-28T14:11:01.000Z</time>
      </trkpt>
      <trkpt lat="47.55161" lon="6.72261">
        <ele>414.7</ele>
        <time>2016-12-28T14:11:02.000Z</time>
      </trkpt>
      <trkpt lat="47.55161" lon="6.72258">
        <ele>414.8</ele>
        <time>2016-12-28T14:11:03.000Z</time>
      </trkpt>
      <trkpt lat="47.55161" lon="6.72254">
        <ele>414.8</ele>
        <time>2016-12-28T14:11:04.000Z</time>
      </trkpt>
      <trkpt lat="47.55159" lon="6.72249">
        <ele>414.8</ele>
        <time>2016-12-28T14:11:05.000Z</time>
      </trkpt>
      <trkpt lat="47.55158" lon="6.72245">
        <ele>414.8</ele>
        <time>2016-12-28T14:11:06.000Z</time>
      </trkpt>
      <trkpt lat="47.55156" lon="6.7224">
        <ele>414.7</ele>
        <time>2016-12-28T14:11:07.000Z</time>
      </trkpt>
      <trkpt lat="47.55154" lon="6.72236">
        <ele>414.7</ele>
        <time>2016-12-28T14:11:08.000Z</time>
      </trkpt>
      <trkpt lat="47.55151" lon="6.72231">
        <ele>413</ele>
        <time>2016-12-28T14:11:09.000Z</time>
      </trkpt>
      <trkpt lat="47.55149" lon="6.72227">
        <ele>412.9</ele>
        <time>2016-12-28T14:11:10.000Z</time>
      </trkpt>
      <trkpt lat="47.55147" lon="6.72223">
        <ele>412.8</ele>
        <time>2016-12-28T14:11:11.000Z</time>
      </trkpt>
      <trkpt lat="47.55145" lon="6.72219">
        <ele>411.9</ele>
        <time>2016-12-28T14:11:12.000Z</time>
      </trkpt>
      <trkpt lat="47.55142" lon="6.72214">
        <ele>411</ele>
        <time>2016-12-28T14:11:13.000Z</time>
      </trkpt>
      <trkpt lat="47.55139" lon="6.72208">
        <ele>409.9</ele>
        <time>2016-12-28T14:11:14.000Z</time>
      </trkpt>
      <trkpt lat="47.55136" lon="6.72201">
        <ele>409.1</ele>
        <time>2016-12-28T14:11:15.000Z</time>
      </trkpt>
      <trkpt lat="47.55133" lon="6.72195">
        <ele>408.4</ele>
        <time>2016-12-28T14:11:16.000Z</time>
      </trkpt>
      <trkpt lat="47.55129" lon="6.72187">
        <ele>408.1</ele>
        <time>2016-12-28T14:11:17.000Z</time>
      </trkpt>
      <trkpt lat="47.55126" lon="6.7218">
        <ele>407.6</ele>
        <time>2016-12-28T14:11:18.000Z</time>
      </trkpt>
      <trkpt lat="47.55122" lon="6.72173">
        <ele>407.7</ele>
        <time>2016-12-28T14:11:19.000Z</time>
      </trkpt>
      <trkpt lat="47.55118" lon="6.72165">
        <ele>408.1</ele>
        <time>2016-12-28T14:11:20.000Z</time>
      </trkpt>
      <trkpt lat="47.55115" lon="6.72158">
        <ele>409.1</ele>
        <time>2016-12-28T14:11:21.000Z</time>
      </trkpt>
      <trkpt lat="47.55112" lon="6.7215">
        <ele>408.7</ele>
        <time>2016-12-28T14:11:22.000Z</time>
      </trkpt>
      <trkpt lat="47.55109" lon="6.72142">
        <ele>408.3</ele>
        <time>2016-12-28T14:11:23.000Z</time>
      </trkpt>
      <trkpt lat="47.55106" lon="6.72134">
        <ele>408</ele>
        <time>2016-12-28T14:11:24.000Z</time>
      </trkpt>
      <trkpt lat="47.55105" lon="6.72127">
        <ele>408.2</ele>
        <time>2016-12-28T14:11:25.000Z</time>
      </trkpt>
      <trkpt lat="47.55103" lon="6.72118">
        <ele>408.1</ele>
        <time>2016-12-28T14:11:26.000Z</time>
      </trkpt>
      <trkpt lat="47.55101" lon="6.72109">
        <ele>408.1</ele>
        <time>2016-12-28T14:11:27.000Z</time>
      </trkpt>
      <trkpt lat="47.551" lon="6.72101">
        <ele>408.5</ele>
        <time>2016-12-28T14:11:28.000Z</time>
      </trkpt>
      <trkpt lat="47.55099" lon="6.72091">
        <ele>408.8</ele>
        <time>2016-12-28T14:11:29.000Z</time>
      </trkpt>
      <trkpt lat="47.55098" lon="6.72083">
        <ele>409.1</ele>
        <time>2016-12-28T14:11:30.000Z</time>
      </trkpt>
      <trkpt lat="47.55097" lon="6.72075">
        <ele>409.4</ele>
        <time>2016-12-28T14:11:31.000Z</time>
      </trkpt>
      <trkpt lat="47.55097" lon="6.7207">
        <ele>409.6</ele>
        <time>2016-12-28T14:11:32.000Z</time>
      </trkpt>
      <trkpt lat="47.55096" lon="6.72064">
        <ele>409</ele>
        <time>2016-12-28T14:11:33.000Z</time>
      </trkpt>
      <trkpt lat="47.55095" lon="6.72058">
        <ele>409</ele>
        <time>2016-12-28T14:11:34.000Z</time>
      </trkpt>
      <trkpt lat="47.55095" lon="6.72053">
        <ele>409</ele>
        <time>2016-12-28T14:11:35.000Z</time>
      </trkpt>
      <trkpt lat="47.55093" lon="6.72049">
        <ele>408.9</ele>
        <time>2016-12-28T14:11:36.000Z</time>
      </trkpt>
      <trkpt lat="47.55092" lon="6.72046">
        <ele>408.9</ele>
        <time>2016-12-28T14:11:37.000Z</time>
      </trkpt>
      <trkpt lat="47.55091" lon="6.7204">
        <ele>408.8</ele>
        <time>2016-12-28T14:11:38.000Z</time>
      </trkpt>
      <trkpt lat="47.5509" lon="6.72036">
        <ele>408.7</ele>
        <time>2016-12-28T14:11:39.000Z</time>
      </trkpt>
      <trkpt lat="47.55089" lon="6.72033">
        <ele>408.6</ele>
        <time>2016-12-28T14:11:40.000Z</time>
      </trkpt>
      <trkpt lat="47.55088" lon="6.72029">
        <ele>408.6</ele>
        <time>2016-12-28T14:11:41.000Z</time>
      </trkpt>
      <trkpt lat="47.55086" lon="6.72025">
        <ele>408.6</ele>
        <time>2016-12-28T14:11:42.000Z</time>
      </trkpt>
      <trkpt lat="47.55085" lon="6.7202">
        <ele>408.7</ele>
        <time>2016-12-28T14:11:43.000Z</time>
      </trkpt>
      <trkpt lat="47.55083" lon="6.72015">
        <ele>408.9</ele>
        <time>2016-12-28T14:11:44.000Z</time>
      </trkpt>
      <trkpt lat="47.55082" lon="6.7201">
        <ele>409.1</ele>
        <time>2016-12-28T14:11:45.000Z</time>
      </trkpt>
      <trkpt lat="47.55081" lon="6.72005">
        <ele>409.3</ele>
        <time>2016-12-28T14:11:46.000Z</time>
      </trkpt>
      <trkpt lat="47.55079" lon="6.72">
        <ele>409.4</ele>
        <time>2016-12-28T14:11:47.000Z</time>
      </trkpt>
      <trkpt lat="47.55078" lon="6.71995">
        <ele>409.6</ele>
        <time>2016-12-28T14:11:48.000Z</time>
      </trkpt>
      <trkpt lat="47.55077" lon="6.7199">
        <ele>409.8</ele>
        <time>2016-12-28T14:11:49.000Z</time>
      </trkpt>
      <trkpt lat="47.55076" lon="6.71986">
        <ele>409.9</ele>
        <time>2016-12-28T14:11:50.000Z</time>
      </trkpt>
      <trkpt lat="47.55075" lon="6.71981">
        <ele>410.1</ele>
        <time>2016-12-28T14:11:51.000Z</time>
      </trkpt>
      <trkpt lat="47.55075" lon="6.71976">
        <ele>410.2</ele>
        <time>2016-12-28T14:11:52.000Z</time>
      </trkpt>
      <trkpt lat="47.55074" lon="6.71972">
        <ele>410.4</ele>
        <time>2016-12-28T14:11:53.000Z</time>
      </trkpt>
      <trkpt lat="47.55074" lon="6.71967">
        <ele>410.5</ele>
        <time>2016-12-28T14:11:54.000Z</time>
      </trkpt>
      <trkpt lat="47.55073" lon="6.71962">
        <ele>410.7</ele>
        <time>2016-12-28T14:11:55.000Z</time>
      </trkpt>
      <trkpt lat="47.55073" lon="6.71958">
        <ele>410.8</ele>
        <time>2016-12-28T14:11:56.000Z</time>
      </trkpt>
      <trkpt lat="47.55073" lon="6.71954">
        <ele>410.9</ele>
        <time>2016-12-28T14:11:57.000Z</time>
      </trkpt>
      <trkpt lat="47.55072" lon="6.7195">
        <ele>411.1</ele>
        <time>2016-12-28T14:11:58.000Z</time>
      </trkpt>
      <trkpt lat="47.55071" lon="6.71947">
        <ele>411.2</ele>
        <time>2016-12-28T14:11:59.000Z</time>
      </trkpt>
      <trkpt lat="47.55071" lon="6.71943">
        <ele>411.2</ele>
        <time>2016-12-28T14:12:00.000Z</time>
      </trkpt>
      <trkpt lat="47.55071" lon="6.71939">
        <ele>411.3</ele>
        <time>2016-12-28T14:12:01.000Z</time>
      </trkpt>
      <trkpt lat="47.5507" lon="6.71935">
        <ele>411.3</ele>
        <time>2016-12-28T14:12:02.000Z</time>
      </trkpt>
      <trkpt lat="47.5507" lon="6.71931">
        <ele>411.4</ele>
        <time>2016-12-28T14:12:03.000Z</time>
      </trkpt>
      <trkpt lat="47.55069" lon="6.71926">
        <ele>411.5</ele>
        <time>2016-12-28T14:12:04.000Z</time>
      </trkpt>
      <trkpt lat="47.55069" lon="6.71922">
        <ele>411.6</ele>
        <time>2016-12-28T14:12:05.000Z</time>
      </trkpt>
      <trkpt lat="47.55068" lon="6.71919">
        <ele>411.7</ele>
        <time>2016-12-28T14:12:06.000Z</time>
      </trkpt>
      <trkpt lat="47.55067" lon="6.71915">
        <ele>411.7</ele>
        <time>2016-12-28T14:12:07.000Z</time>
      </trkpt>
      <trkpt lat="47.55067" lon="6.7191">
        <ele>411.8</ele>
        <time>2016-12-28T14:12:08.000Z</time>
      </trkpt>
      <trkpt lat="47.55066" lon="6.71905">
        <ele>411.8</ele>
        <time>2016-12-28T14:12:09.000Z</time>
      </trkpt>
      <trkpt lat="47.55066" lon="6.71901">
        <ele>411.9</ele>
        <time>2016-12-28T14:12:10.000Z</time>
      </trkpt>
      <trkpt lat="47.55065" lon="6.71897">
        <ele>411.9</ele>
        <time>2016-12-28T14:12:11.000Z</time>
      </trkpt>
      <trkpt lat="47.55064" lon="6.71892">
        <ele>412</ele>
        <time>2016-12-28T14:12:12.000Z</time>
      </trkpt>
      <trkpt lat="47.55064" lon="6.71889">
        <ele>412.1</ele>
        <time>2016-12-28T14:12:13.000Z</time>
      </trkpt>
      <trkpt lat="47.55062" lon="6.71885">
        <ele>412.1</ele>
        <time>2016-12-28T14:12:14.000Z</time>
      </trkpt>
      <trkpt lat="47.55061" lon="6.7188">
        <ele>412.1</ele>
        <time>2016-12-28T14:12:15.000Z</time>
      </trkpt>
      <trkpt lat="47.5506" lon="6.71876">
        <ele>412.2</ele>
        <time>2016-12-28T14:12:16.000Z</time>
      </trkpt>
      <trkpt lat="47.5506" lon="6.71872">
        <ele>412.3</ele>
        <time>2016-12-28T14:12:17.000Z</time>
      </trkpt>
      <trkpt lat="47.55059" lon="6.71867">
        <ele>412.4</ele>
        <time>2016-12-28T14:12:18.000Z</time>
      </trkpt>
      <trkpt lat="47.55057" lon="6.71862">
        <ele>412.5</ele>
        <time>2016-12-28T14:12:19.000Z</time>
      </trkpt>
      <trkpt lat="47.55056" lon="6.71858">
        <ele>412.6</ele>
        <time>2016-12-28T14:12:20.000Z</time>
      </trkpt>
      <trkpt lat="47.55055" lon="6.71854">
        <ele>412.7</ele>
        <time>2016-12-28T14:12:21.000Z</time>
      </trkpt>
      <trkpt lat="47.55053" lon="6.71849">
        <ele>412.8</ele>
        <time>2016-12-28T14:12:22.000Z</time>
      </trkpt>
      <trkpt lat="47.55052" lon="6.71845">
        <ele>412.8</ele>
        <time>2016-12-28T14:12:23.000Z</time>
      </trkpt>
      <trkpt lat="47.55051" lon="6.7184">
        <ele>413</ele>
        <time>2016-12-28T14:12:24.000Z</time>
      </trkpt>
      <trkpt lat="47.5505" lon="6.71835">
        <ele>413.1</ele>
        <time>2016-12-28T14:12:25.000Z</time>
      </trkpt>
      <trkpt lat="47.55048" lon="6.71831">
        <ele>413.2</ele>
        <time>2016-12-28T14:12:26.000Z</time>
      </trkpt>
      <trkpt lat="47.55047" lon="6.71826">
        <ele>413.3</ele>
        <time>2016-12-28T14:12:27.000Z</time>
      </trkpt>
      <trkpt lat="47.55046" lon="6.71821">
        <ele>413.6</ele>
        <time>2016-12-28T14:12:29.000Z</time>
      </trkpt>
      <trkpt lat="47.55045" lon="6.7182">
        <ele>413.7</ele>
        <time>2016-12-28T14:12:30.000Z</time>
      </trkpt>
      <trkpt lat="47.55044" lon="6.71816">
        <ele>413.9</ele>
        <time>2016-12-28T14:12:32.000Z</time>
      </trkpt>
      <trkpt lat="47.55044" lon="6.71812">
        <ele>413.9</ele>
        <time>2016-12-28T14:12:33.000Z</time>
      </trkpt>
      <trkpt lat="47.55043" lon="6.71808">
        <ele>414.1</ele>
        <time>2016-12-28T14:12:34.000Z</time>
      </trkpt>
      <trkpt lat="47.55043" lon="6.71805">
        <ele>414.2</ele>
        <time>2016-12-28T14:12:35.000Z</time>
      </trkpt>
      <trkpt lat="47.55042" lon="6.718">
        <ele>414.4</ele>
        <time>2016-12-28T14:12:36.000Z</time>
      </trkpt>
      <trkpt lat="47.55042" lon="6.71796">
        <ele>414.5</ele>
        <time>2016-12-28T14:12:37.000Z</time>
      </trkpt>
      <trkpt lat="47.55041" lon="6.71791">
        <ele>414.6</ele>
        <time>2016-12-28T14:12:38.000Z</time>
      </trkpt>
      <trkpt lat="47.55041" lon="6.71787">
        <ele>414.8</ele>
        <time>2016-12-28T14:12:39.000Z</time>
      </trkpt>
      <trkpt lat="47.5504" lon="6.71782">
        <ele>414.9</ele>
        <time>2016-12-28T14:12:40.000Z</time>
      </trkpt>
      <trkpt lat="47.5504" lon="6.71777">
        <ele>416.1</ele>
        <time>2016-12-28T14:12:41.000Z</time>
      </trkpt>
      <trkpt lat="47.5504" lon="6.7177">
        <ele>417.3</ele>
        <time>2016-12-28T14:12:42.000Z</time>
      </trkpt>
      <trkpt lat="47.5504" lon="6.71765">
        <ele>418.3</ele>
        <time>2016-12-28T14:12:43.000Z</time>
      </trkpt>
      <trkpt lat="47.5504" lon="6.71758">
        <ele>419.1</ele>
        <time>2016-12-28T14:12:44.000Z</time>
      </trkpt>
      <trkpt lat="47.5504" lon="6.71752">
        <ele>419.8</ele>
        <time>2016-12-28T14:12:45.000Z</time>
      </trkpt>
      <trkpt lat="47.5504" lon="6.71746">
        <ele>420.2</ele>
        <time>2016-12-28T14:12:46.000Z</time>
      </trkpt>
      <trkpt lat="47.5504" lon="6.7174">
        <ele>420.6</ele>
        <time>2016-12-28T14:12:47.000Z</time>
      </trkpt>
      <trkpt lat="47.5504" lon="6.71735">
        <ele>421.5</ele>
        <time>2016-12-28T14:12:48.000Z</time>
      </trkpt>
      <trkpt lat="47.5504" lon="6.71728">
        <ele>421.8</ele>
        <time>2016-12-28T14:12:49.000Z</time>
      </trkpt>
      <trkpt lat="47.55041" lon="6.71722">
        <ele>422.4</ele>
        <time>2016-12-28T14:12:50.000Z</time>
      </trkpt>
      <trkpt lat="47.55041" lon="6.71716">
        <ele>423</ele>
        <time>2016-12-28T14:12:51.000Z</time>
      </trkpt>
      <trkpt lat="47.55041" lon="6.71708">
        <ele>423.5</ele>
        <time>2016-12-28T14:12:52.000Z</time>
      </trkpt>
      <trkpt lat="47.55041" lon="6.71701">
        <ele>424</ele>
        <time>2016-12-28T14:12:53.000Z</time>
      </trkpt>
      <trkpt lat="47.55041" lon="6.71694">
        <ele>424.5</ele>
        <time>2016-12-28T14:12:54.000Z</time>
      </trkpt>
      <trkpt lat="47.55041" lon="6.71688">
        <ele>424.8</ele>
        <time>2016-12-28T14:12:55.000Z</time>
      </trkpt>
      <trkpt lat="47.55041" lon="6.71682">
        <ele>424.9</ele>
        <time>2016-12-28T14:12:56.000Z</time>
      </trkpt>
      <trkpt lat="47.55042" lon="6.71677">
        <ele>424.9</ele>
        <time>2016-12-28T14:12:57.000Z</time>
      </trkpt>
      <trkpt lat="47.55042" lon="6.71671">
        <ele>425</ele>
        <time>2016-12-28T14:12:58.000Z</time>
      </trkpt>
      <trkpt lat="47.55043" lon="6.71665">
        <ele>425.2</ele>
        <time>2016-12-28T14:12:59.000Z</time>
      </trkpt>
      <trkpt lat="47.55043" lon="6.71659">
        <ele>425.2</ele>
        <time>2016-12-28T14:13:00.000Z</time>
      </trkpt>
      <trkpt lat="47.55044" lon="6.71652">
        <ele>425.5</ele>
        <time>2016-12-28T14:13:01.000Z</time>
      </trkpt>
      <trkpt lat="47.55044" lon="6.71647">
        <ele>425.5</ele>
        <time>2016-12-28T14:13:02.000Z</time>
      </trkpt>
      <trkpt lat="47.55044" lon="6.71641">
        <ele>426.1</ele>
        <time>2016-12-28T14:13:03.000Z</time>
      </trkpt>
      <trkpt lat="47.55044" lon="6.71635">
        <ele>426.4</ele>
        <time>2016-12-28T14:13:04.000Z</time>
      </trkpt>
      <trkpt lat="47.55045" lon="6.7163">
        <ele>426.4</ele>
        <time>2016-12-28T14:13:05.000Z</time>
      </trkpt>
      <trkpt lat="47.55045" lon="6.71625">
        <ele>426.5</ele>
        <time>2016-12-28T14:13:06.000Z</time>
      </trkpt>
      <trkpt lat="47.55046" lon="6.7162">
        <ele>426.5</ele>
        <time>2016-12-28T14:13:07.000Z</time>
      </trkpt>
      <trkpt lat="47.55046" lon="6.71616">
        <ele>426.6</ele>
        <time>2016-12-28T14:13:08.000Z</time>
      </trkpt>
      <trkpt lat="47.55046" lon="6.71611">
        <ele>426.6</ele>
        <time>2016-12-28T14:13:09.000Z</time>
      </trkpt>
      <trkpt lat="47.55047" lon="6.71607">
        <ele>426.7</ele>
        <time>2016-12-28T14:13:10.000Z</time>
      </trkpt>
      <trkpt lat="47.55047" lon="6.71603">
        <ele>426.7</ele>
        <time>2016-12-28T14:13:11.000Z</time>
      </trkpt>
      <trkpt lat="47.55047" lon="6.71598">
        <ele>426.7</ele>
        <time>2016-12-28T14:13:12.000Z</time>
      </trkpt>
      <trkpt lat="47.55048" lon="6.71593">
        <ele>426.8</ele>
        <time>2016-12-28T14:13:13.000Z</time>
      </trkpt>
      <trkpt lat="47.55048" lon="6.71587">
        <ele>426.7</ele>
        <time>2016-12-28T14:13:14.000Z</time>
      </trkpt>
      <trkpt lat="47.55048" lon="6.71584">
        <ele>426.7</ele>
        <time>2016-12-28T14:13:15.000Z</time>
      </trkpt>
      <trkpt lat="47.55049" lon="6.7158">
        <ele>426.7</ele>
        <time>2016-12-28T14:13:16.000Z</time>
      </trkpt>
      <trkpt lat="47.55049" lon="6.71577">
        <ele>426.8</ele>
        <time>2016-12-28T14:13:17.000Z</time>
      </trkpt>
      <trkpt lat="47.5505" lon="6.71573">
        <ele>426.8</ele>
        <time>2016-12-28T14:13:18.000Z</time>
      </trkpt>
      <trkpt lat="47.5505" lon="6.71569">
        <ele>426.9</ele>
        <time>2016-12-28T14:13:19.000Z</time>
      </trkpt>
      <trkpt lat="47.5505" lon="6.71566">
        <ele>426.9</ele>
        <time>2016-12-28T14:13:20.000Z</time>
      </trkpt>
      <trkpt lat="47.55051" lon="6.71562">
        <ele>426.9</ele>
        <time>2016-12-28T14:13:21.000Z</time>
      </trkpt>
      <trkpt lat="47.55051" lon="6.71558">
        <ele>426.9</ele>
        <time>2016-12-28T14:13:22.000Z</time>
      </trkpt>
      <trkpt lat="47.55051" lon="6.71554">
        <ele>426.9</ele>
        <time>2016-12-28T14:13:23.000Z</time>
      </trkpt>
      <trkpt lat="47.55051" lon="6.71551">
        <ele>426.9</ele>
        <time>2016-12-28T14:13:24.000Z</time>
      </trkpt>
      <trkpt lat="47.55052" lon="6.71547">
        <ele>426.9</ele>
        <time>2016-12-28T14:13:25.000Z</time>
      </trkpt>
      <trkpt lat="47.55052" lon="6.71544">
        <ele>427</ele>
        <time>2016-12-28T14:13:26.000Z</time>
      </trkpt>
      <trkpt lat="47.55053" lon="6.71539">
        <ele>427</ele>
        <time>2016-12-28T14:13:27.000Z</time>
      </trkpt>
      <trkpt lat="47.55054" lon="6.71534">
        <ele>427</ele>
        <time>2016-12-28T14:13:29.000Z</time>
      </trkpt>
      <trkpt lat="47.55055" lon="6.71531">
        <ele>427</ele>
        <time>2016-12-28T14:13:30.000Z</time>
      </trkpt>
      <trkpt lat="47.55056" lon="6.71524">
        <ele>426.9</ele>
        <time>2016-12-28T14:13:32.000Z</time>
      </trkpt>
      <trkpt lat="47.55057" lon="6.71521">
        <ele>426.9</ele>
        <time>2016-12-28T14:13:33.000Z</time>
      </trkpt>
      <trkpt lat="47.55058" lon="6.71517">
        <ele>426.9</ele>
        <time>2016-12-28T14:13:34.000Z</time>
      </trkpt>
      <trkpt lat="47.55058" lon="6.71514">
        <ele>427</ele>
        <time>2016-12-28T14:13:35.000Z</time>
      </trkpt>
      <trkpt lat="47.5506" lon="6.71509">
        <ele>427.1</ele>
        <time>2016-12-28T14:13:37.000Z</time>
      </trkpt>
      <trkpt lat="47.55061" lon="6.71507">
        <ele>427.2</ele>
        <time>2016-12-28T14:13:38.000Z</time>
      </trkpt>
      <trkpt lat="47.55063" lon="6.71502">
        <ele>427.4</ele>
        <time>2016-12-28T14:13:40.000Z</time>
      </trkpt>
      <trkpt lat="47.55063" lon="6.71499">
        <ele>427.5</ele>
        <time>2016-12-28T14:13:41.000Z</time>
      </trkpt>
      <trkpt lat="47.55064" lon="6.71494">
        <ele>427.6</ele>
        <time>2016-12-28T14:13:43.000Z</time>
      </trkpt>
      <trkpt lat="47.55065" lon="6.71491">
        <ele>427.7</ele>
        <time>2016-12-28T14:13:44.000Z</time>
      </trkpt>
      <trkpt lat="47.55066" lon="6.71484">
        <ele>427.9</ele>
        <time>2016-12-28T14:13:46.000Z</time>
      </trkpt>
      <trkpt lat="47.55067" lon="6.71481">
        <ele>428</ele>
        <time>2016-12-28T14:13:47.000Z</time>
      </trkpt>
      <trkpt lat="47.55067" lon="6.71475">
        <ele>428.1</ele>
        <time>2016-12-28T14:13:49.000Z</time>
      </trkpt>
      <trkpt lat="47.55068" lon="6.71473">
        <ele>428.2</ele>
        <time>2016-12-28T14:13:50.000Z</time>
      </trkpt>
      <trkpt lat="47.55069" lon="6.71468">
        <ele>428.4</ele>
        <time>2016-12-28T14:13:52.000Z</time>
      </trkpt>
      <trkpt lat="47.55069" lon="6.71466">
        <ele>428.6</ele>
        <time>2016-12-28T14:13:53.000Z</time>
      </trkpt>
      <trkpt lat="47.55071" lon="6.71461">
        <ele>428.7</ele>
        <time>2016-12-28T14:13:55.000Z</time>
      </trkpt>
      <trkpt lat="47.55072" lon="6.7146">
        <ele>428.8</ele>
        <time>2016-12-28T14:13:56.000Z</time>
      </trkpt>
      <trkpt lat="47.55074" lon="6.71455">
        <ele>428.9</ele>
        <time>2016-12-28T14:13:58.000Z</time>
      </trkpt>
      <trkpt lat="47.55075" lon="6.71453">
        <ele>428.9</ele>
        <time>2016-12-28T14:13:59.000Z</time>
      </trkpt>
      <trkpt lat="47.55076" lon="6.71448">
        <ele>429.1</ele>
        <time>2016-12-28T14:14:01.000Z</time>
      </trkpt>
      <trkpt lat="47.55077" lon="6.71446">
        <ele>429.1</ele>
        <time>2016-12-28T14:14:02.000Z</time>
      </trkpt>
      <trkpt lat="47.55078" lon="6.71443">
        <ele>429.2</ele>
        <time>2016-12-28T14:14:03.000Z</time>
      </trkpt>
      <trkpt lat="47.5508" lon="6.71439">
        <ele>429.3</ele>
        <time>2016-12-28T14:14:04.000Z</time>
      </trkpt>
      <trkpt lat="47.55082" lon="6.71435">
        <ele>429.5</ele>
        <time>2016-12-28T14:14:06.000Z</time>
      </trkpt>
      <trkpt lat="47.55083" lon="6.71432">
        <ele>429.6</ele>
        <time>2016-12-28T14:14:07.000Z</time>
      </trkpt>
      <trkpt lat="47.55084" lon="6.71427">
        <ele>429.8</ele>
        <time>2016-12-28T14:14:09.000Z</time>
      </trkpt>
      <trkpt lat="47.55085" lon="6.71424">
        <ele>429.9</ele>
        <time>2016-12-28T14:14:10.000Z</time>
      </trkpt>
      <trkpt lat="47.55087" lon="6.7142">
        <ele>430.1</ele>
        <time>2016-12-28T14:14:12.000Z</time>
      </trkpt>
      <trkpt lat="47.55088" lon="6.71418">
        <ele>430.2</ele>
        <time>2016-12-28T14:14:13.000Z</time>
      </trkpt>
      <trkpt lat="47.5509" lon="6.71414">
        <ele>430.5</ele>
        <time>2016-12-28T14:14:16.000Z</time>
      </trkpt>
      <trkpt lat="47.55091" lon="6.71411">
        <ele>430.6</ele>
        <time>2016-12-28T14:14:17.000Z</time>
      </trkpt>
      <trkpt lat="47.55093" lon="6.71407">
        <ele>430.9</ele>
        <time>2016-12-28T14:14:19.000Z</time>
      </trkpt>
      <trkpt lat="47.55094" lon="6.71404">
        <ele>431.1</ele>
        <time>2016-12-28T14:14:20.000Z</time>
      </trkpt>
      <trkpt lat="47.55095" lon="6.71398">
        <ele>431.4</ele>
        <time>2016-12-28T14:14:22.000Z</time>
      </trkpt>
      <trkpt lat="47.55096" lon="6.71396">
        <ele>431.5</ele>
        <time>2016-12-28T14:14:23.000Z</time>
      </trkpt>
      <trkpt lat="47.55098" lon="6.71392">
        <ele>431.7</ele>
        <time>2016-12-28T14:14:25.000Z</time>
      </trkpt>
      <trkpt lat="47.55099" lon="6.71389">
        <ele>431.8</ele>
        <time>2016-12-28T14:14:26.000Z</time>
      </trkpt>
      <trkpt lat="47.55102" lon="6.71384">
        <ele>432.1</ele>
        <time>2016-12-28T14:14:28.000Z</time>
      </trkpt>
      <trkpt lat="47.55103" lon="6.71381">
        <ele>432.2</ele>
        <time>2016-12-28T14:14:29.000Z</time>
      </trkpt>
      <trkpt lat="47.55104" lon="6.71378">
        <ele>432.3</ele>
        <time>2016-12-28T14:14:30.000Z</time>
      </trkpt>
      <trkpt lat="47.55106" lon="6.71375">
        <ele>432.4</ele>
        <time>2016-12-28T14:14:31.000Z</time>
      </trkpt>
      <trkpt lat="47.55108" lon="6.71371">
        <ele>432.8</ele>
        <time>2016-12-28T14:14:34.000Z</time>
      </trkpt>
      <trkpt lat="47.55109" lon="6.71369">
        <ele>432.9</ele>
        <time>2016-12-28T14:14:35.000Z</time>
      </trkpt>
      <trkpt lat="47.55111" lon="6.71366">
        <ele>433.2</ele>
        <time>2016-12-28T14:14:37.000Z</time>
      </trkpt>
      <trkpt lat="47.55113" lon="6.71364">
        <ele>433.3</ele>
        <time>2016-12-28T14:14:38.000Z</time>
      </trkpt>
      <trkpt lat="47.55115" lon="6.7136">
        <ele>433.7</ele>
        <time>2016-12-28T14:14:40.000Z</time>
      </trkpt>
      <trkpt lat="47.55117" lon="6.71359">
        <ele>433.8</ele>
        <time>2016-12-28T14:14:41.000Z</time>
      </trkpt>
      <trkpt lat="47.55118" lon="6.71355">
        <ele>434.2</ele>
        <time>2016-12-28T14:14:43.000Z</time>
      </trkpt>
      <trkpt lat="47.5512" lon="6.71352">
        <ele>434.3</ele>
        <time>2016-12-28T14:14:44.000Z</time>
      </trkpt>
      <trkpt lat="47.55122" lon="6.71347">
        <ele>434.6</ele>
        <time>2016-12-28T14:14:46.000Z</time>
      </trkpt>
      <trkpt lat="47.55123" lon="6.71344">
        <ele>434.7</ele>
        <time>2016-12-28T14:14:47.000Z</time>
      </trkpt>
      <trkpt lat="47.55125" lon="6.7134">
        <ele>434.9</ele>
        <time>2016-12-28T14:14:49.000Z</time>
      </trkpt>
      <trkpt lat="47.55126" lon="6.71338">
        <ele>435</ele>
        <time>2016-12-28T14:14:50.000Z</time>
      </trkpt>
      <trkpt lat="47.55128" lon="6.71336">
        <ele>435.1</ele>
        <time>2016-12-28T14:14:51.000Z</time>
      </trkpt>
      <trkpt lat="47.55129" lon="6.71332">
        <ele>435.2</ele>
        <time>2016-12-28T14:14:52.000Z</time>
      </trkpt>
      <trkpt lat="47.5513" lon="6.71326">
        <ele>435.3</ele>
        <time>2016-12-28T14:14:54.000Z</time>
      </trkpt>
      <trkpt lat="47.5513" lon="6.71324">
        <ele>435.4</ele>
        <time>2016-12-28T14:14:55.000Z</time>
      </trkpt>
      <trkpt lat="47.5513" lon="6.71319">
        <ele>435.5</ele>
        <time>2016-12-28T14:14:57.000Z</time>
      </trkpt>
      <trkpt lat="47.5513" lon="6.71317">
        <ele>435.6</ele>
        <time>2016-12-28T14:14:58.000Z</time>
      </trkpt>
      <trkpt lat="47.5513" lon="6.71313">
        <ele>435.7</ele>
        <time>2016-12-28T14:14:59.000Z</time>
      </trkpt>
      <trkpt lat="47.5513" lon="6.7131">
        <ele>435.8</ele>
        <time>2016-12-28T14:15:00.000Z</time>
      </trkpt>
      <trkpt lat="47.55129" lon="6.71305">
        <ele>436.1</ele>
        <time>2016-12-28T14:15:02.000Z</time>
      </trkpt>
      <trkpt lat="47.55129" lon="6.71302">
        <ele>436.2</ele>
        <time>2016-12-28T14:15:03.000Z</time>
      </trkpt>
      <trkpt lat="47.55129" lon="6.71296">
        <ele>436.4</ele>
        <time>2016-12-28T14:15:05.000Z</time>
      </trkpt>
      <trkpt lat="47.55128" lon="6.71293">
        <ele>436.4</ele>
        <time>2016-12-28T14:15:06.000Z</time>
      </trkpt>
      <trkpt lat="47.55127" lon="6.71288">
        <ele>436.5</ele>
        <time>2016-12-28T14:15:08.000Z</time>
      </trkpt>
      <trkpt lat="47.55126" lon="6.71285">
        <ele>436.6</ele>
        <time>2016-12-28T14:15:09.000Z</time>
      </trkpt>
      <trkpt lat="47.55124" lon="6.71282">
        <ele>436.7</ele>
        <time>2016-12-28T14:15:10.000Z</time>
      </trkpt>
      <trkpt lat="47.55123" lon="6.71279">
        <ele>436.8</ele>
        <time>2016-12-28T14:15:11.000Z</time>
      </trkpt>
      <trkpt lat="47.5512" lon="6.71277">
        <ele>436.8</ele>
        <time>2016-12-28T14:15:12.000Z</time>
      </trkpt>
      <trkpt lat="47.55118" lon="6.71275">
        <ele>436.9</ele>
        <time>2016-12-28T14:15:13.000Z</time>
      </trkpt>
      <trkpt lat="47.55116" lon="6.71273">
        <ele>436.9</ele>
        <time>2016-12-28T14:15:14.000Z</time>
      </trkpt>
      <trkpt lat="47.55114" lon="6.71271">
        <ele>437</ele>
        <time>2016-12-28T14:15:15.000Z</time>
      </trkpt>
      <trkpt lat="47.55112" lon="6.71269">
        <ele>437.1</ele>
        <time>2016-12-28T14:15:16.000Z</time>
      </trkpt>
      <trkpt lat="47.55109" lon="6.71266">
        <ele>437.3</ele>
        <time>2016-12-28T14:15:17.000Z</time>
      </trkpt>
      <trkpt lat="47.55107" lon="6.71264">
        <ele>437.4</ele>
        <time>2016-12-28T14:15:18.000Z</time>
      </trkpt>
      <trkpt lat="47.55104" lon="6.71262">
        <ele>437.5</ele>
        <time>2016-12-28T14:15:19.000Z</time>
      </trkpt>
      <trkpt lat="47.55101" lon="6.71259">
        <ele>437.6</ele>
        <time>2016-12-28T14:15:20.000Z</time>
      </trkpt>
      <trkpt lat="47.55098" lon="6.71256">
        <ele>437.7</ele>
        <time>2016-12-28T14:15:21.000Z</time>
      </trkpt>
      <trkpt lat="47.55095" lon="6.71253">
        <ele>437.9</ele>
        <time>2016-12-28T14:15:22.000Z</time>
      </trkpt>
      <trkpt lat="47.55092" lon="6.7125">
        <ele>438</ele>
        <time>2016-12-28T14:15:23.000Z</time>
      </trkpt>
      <trkpt lat="47.5509" lon="6.71247">
        <ele>438.1</ele>
        <time>2016-12-28T14:15:24.000Z</time>
      </trkpt>
      <trkpt lat="47.55086" lon="6.71244">
        <ele>438.2</ele>
        <time>2016-12-28T14:15:25.000Z</time>
      </trkpt>
      <trkpt lat="47.55084" lon="6.71241">
        <ele>438.3</ele>
        <time>2016-12-28T14:15:26.000Z</time>
      </trkpt>
      <trkpt lat="47.55081" lon="6.71238">
        <ele>438.4</ele>
        <time>2016-12-28T14:15:27.000Z</time>
      </trkpt>
      <trkpt lat="47.55078" lon="6.71235">
        <ele>439.4</ele>
        <time>2016-12-28T14:15:28.000Z</time>
      </trkpt>
      <trkpt lat="47.55074" lon="6.71231">
        <ele>440.4</ele>
        <time>2016-12-28T14:15:29.000Z</time>
      </trkpt>
      <trkpt lat="47.55071" lon="6.71227">
        <ele>441.2</ele>
        <time>2016-12-28T14:15:30.000Z</time>
      </trkpt>
      <trkpt lat="47.55067" lon="6.71224">
        <ele>442</ele>
        <time>2016-12-28T14:15:31.000Z</time>
      </trkpt>
      <trkpt lat="47.55063" lon="6.7122">
        <ele>442.8</ele>
        <time>2016-12-28T14:15:32.000Z</time>
      </trkpt>
      <trkpt lat="47.5506" lon="6.71217">
        <ele>443.4</ele>
        <time>2016-12-28T14:15:33.000Z</time>
      </trkpt>
      <trkpt lat="47.55057" lon="6.71214">
        <ele>443.8</ele>
        <time>2016-12-28T14:15:34.000Z</time>
      </trkpt>
      <trkpt lat="47.55054" lon="6.71211">
        <ele>444.2</ele>
        <time>2016-12-28T14:15:35.000Z</time>
      </trkpt>
      <trkpt lat="47.55051" lon="6.71208">
        <ele>444.6</ele>
        <time>2016-12-28T14:15:36.000Z</time>
      </trkpt>
      <trkpt lat="47.55047" lon="6.71205">
        <ele>444.4</ele>
        <time>2016-12-28T14:15:37.000Z</time>
      </trkpt>
      <trkpt lat="47.55044" lon="6.71203">
        <ele>444.2</ele>
        <time>2016-12-28T14:15:38.000Z</time>
      </trkpt>
      <trkpt lat="47.55041" lon="6.71199">
        <ele>443.9</ele>
        <time>2016-12-28T14:15:39.000Z</time>
      </trkpt>
      <trkpt lat="47.55038" lon="6.71196">
        <ele>443.4</ele>
        <time>2016-12-28T14:15:40.000Z</time>
      </trkpt>
      <trkpt lat="47.55035" lon="6.71193">
        <ele>442.8</ele>
        <time>2016-12-28T14:15:41.000Z</time>
      </trkpt>
      <trkpt lat="47.55031" lon="6.71189">
        <ele>442.3</ele>
        <time>2016-12-28T14:15:42.000Z</time>
      </trkpt>
      <trkpt lat="47.55027" lon="6.71185">
        <ele>441.9</ele>
        <time>2016-12-28T14:15:43.000Z</time>
      </trkpt>
      <trkpt lat="47.55024" lon="6.7118">
        <ele>441.6</ele>
        <time>2016-12-28T14:15:44.000Z</time>
      </trkpt>
      <trkpt lat="47.5502" lon="6.71176">
        <ele>441.4</ele>
        <time>2016-12-28T14:15:45.000Z</time>
      </trkpt>
      <trkpt lat="47.55017" lon="6.71171">
        <ele>441.2</ele>
        <time>2016-12-28T14:15:46.000Z</time>
      </trkpt>
      <trkpt lat="47.55014" lon="6.71167">
        <ele>441</ele>
        <time>2016-12-28T14:15:47.000Z</time>
      </trkpt>
      <trkpt lat="47.5501" lon="6.71162">
        <ele>440.9</ele>
        <time>2016-12-28T14:15:48.000Z</time>
      </trkpt>
      <trkpt lat="47.55007" lon="6.71157">
        <ele>441</ele>
        <time>2016-12-28T14:15:49.000Z</time>
      </trkpt>
      <trkpt lat="47.55003" lon="6.71152">
        <ele>441</ele>
        <time>2016-12-28T14:15:50.000Z</time>
      </trkpt>
      <trkpt lat="47.55" lon="6.71147">
        <ele>441.3</ele>
        <time>2016-12-28T14:15:51.000Z</time>
      </trkpt>
      <trkpt lat="47.54996" lon="6.71142">
        <ele>441.1</ele>
        <time>2016-12-28T14:15:52.000Z</time>
      </trkpt>
      <trkpt lat="47.54993" lon="6.71137">
        <ele>440.8</ele>
        <time>2016-12-28T14:15:53.000Z</time>
      </trkpt>
      <trkpt lat="47.5499" lon="6.71133">
        <ele>440.8</ele>
        <time>2016-12-28T14:15:54.000Z</time>
      </trkpt>
      <trkpt lat="47.54987" lon="6.71129">
        <ele>440.8</ele>
        <time>2016-12-28T14:15:55.000Z</time>
      </trkpt>
      <trkpt lat="47.54984" lon="6.71124">
        <ele>440.6</ele>
        <time>2016-12-28T14:15:56.000Z</time>
      </trkpt>
      <trkpt lat="47.54982" lon="6.7112">
        <ele>440.5</ele>
        <time>2016-12-28T14:15:57.000Z</time>
      </trkpt>
      <trkpt lat="47.54979" lon="6.71115">
        <ele>440.2</ele>
        <time>2016-12-28T14:15:58.000Z</time>
      </trkpt>
      <trkpt lat="47.54976" lon="6.71112">
        <ele>439.5</ele>
        <time>2016-12-28T14:15:59.000Z</time>
      </trkpt>
      <trkpt lat="47.54973" lon="6.71108">
        <ele>438.7</ele>
        <time>2016-12-28T14:16:00.000Z</time>
      </trkpt>
      <trkpt lat="47.5497" lon="6.71104">
        <ele>438.3</ele>
        <time>2016-12-28T14:16:01.000Z</time>
      </trkpt>
      <trkpt lat="47.54967" lon="6.711">
        <ele>437.8</ele>
        <time>2016-12-28T14:16:02.000Z</time>
      </trkpt>
      <trkpt lat="47.54964" lon="6.71095">
        <ele>437.4</ele>
        <time>2016-12-28T14:16:03.000Z</time>
      </trkpt>
      <trkpt lat="47.54961" lon="6.7109">
        <ele>437.1</ele>
        <time>2016-12-28T14:16:04.000Z</time>
      </trkpt>
      <trkpt lat="47.54959" lon="6.71087">
        <ele>437.1</ele>
        <time>2016-12-28T14:16:05.000Z</time>
      </trkpt>
      <trkpt lat="47.54957" lon="6.71083">
        <ele>436.6</ele>
        <time>2016-12-28T14:16:06.000Z</time>
      </trkpt>
      <trkpt lat="47.54953" lon="6.71079">
        <ele>435.7</ele>
        <time>2016-12-28T14:16:07.000Z</time>
      </trkpt>
      <trkpt lat="47.5495" lon="6.71074">
        <ele>434.8</ele>
        <time>2016-12-28T14:16:08.000Z</time>
      </trkpt>
      <trkpt lat="47.54946" lon="6.71069">
        <ele>433.8</ele>
        <time>2016-12-28T14:16:09.000Z</time>
      </trkpt>
      <trkpt lat="47.54942" lon="6.71065">
        <ele>433.7</ele>
        <time>2016-12-28T14:16:10.000Z</time>
      </trkpt>
      <trkpt lat="47.54938" lon="6.71061">
        <ele>433.6</ele>
        <time>2016-12-28T14:16:11.000Z</time>
      </trkpt>
      <trkpt lat="47.54935" lon="6.71058">
        <ele>433.5</ele>
        <time>2016-12-28T14:16:12.000Z</time>
      </trkpt>
      <trkpt lat="47.54932" lon="6.71052">
        <ele>432.4</ele>
        <time>2016-12-28T14:16:13.000Z</time>
      </trkpt>
      <trkpt lat="47.5493" lon="6.71047">
        <ele>430.6</ele>
        <time>2016-12-28T14:16:14.000Z</time>
      </trkpt>
      <trkpt lat="47.54927" lon="6.7104">
        <ele>429.7</ele>
        <time>2016-12-28T14:16:15.000Z</time>
      </trkpt>
      <trkpt lat="47.54924" lon="6.71034">
        <ele>429.2</ele>
        <time>2016-12-28T14:16:16.000Z</time>
      </trkpt>
      <trkpt lat="47.54923" lon="6.71028">
        <ele>428.3</ele>
        <time>2016-12-28T14:16:17.000Z</time>
      </trkpt>
      <trkpt lat="47.54923" lon="6.7102">
        <ele>427.7</ele>
        <time>2016-12-28T14:16:18.000Z</time>
      </trkpt>
      <trkpt lat="47.54924" lon="6.71012">
        <ele>427.1</ele>
        <time>2016-12-28T14:16:19.000Z</time>
      </trkpt>
      <trkpt lat="47.54924" lon="6.71005">
        <ele>427.4</ele>
        <time>2016-12-28T14:16:20.000Z</time>
      </trkpt>
      <trkpt lat="47.54925" lon="6.70999">
        <ele>427.5</ele>
        <time>2016-12-28T14:16:21.000Z</time>
      </trkpt>
      <trkpt lat="47.54926" lon="6.70992">
        <ele>428.4</ele>
        <time>2016-12-28T14:16:22.000Z</time>
      </trkpt>
      <trkpt lat="47.54926" lon="6.70985">
        <ele>429</ele>
        <time>2016-12-28T14:16:23.000Z</time>
      </trkpt>
      <trkpt lat="47.54926" lon="6.70976">
        <ele>428</ele>
        <time>2016-12-28T14:16:24.000Z</time>
      </trkpt>
      <trkpt lat="47.54924" lon="6.70968">
        <ele>427.3</ele>
        <time>2016-12-28T14:16:25.000Z</time>
      </trkpt>
      <trkpt lat="47.54921" lon="6.7096">
        <ele>426.2</ele>
        <time>2016-12-28T14:16:26.000Z</time>
      </trkpt>
      <trkpt lat="47.54917" lon="6.70952">
        <ele>424.7</ele>
        <time>2016-12-28T14:16:27.000Z</time>
      </trkpt>
      <trkpt lat="47.54913" lon="6.70942">
        <ele>423.1</ele>
        <time>2016-12-28T14:16:28.000Z</time>
      </trkpt>
      <trkpt lat="47.54908" lon="6.70933">
        <ele>421.1</ele>
        <time>2016-12-28T14:16:29.000Z</time>
      </trkpt>
      <trkpt lat="47.54903" lon="6.70923">
        <ele>419.8</ele>
        <time>2016-12-28T14:16:30.000Z</time>
      </trkpt>
      <trkpt lat="47.54898" lon="6.70917">
        <ele>418</ele>
        <time>2016-12-28T14:16:31.000Z</time>
      </trkpt>
      <trkpt lat="47.54894" lon="6.70912">
        <ele>417.5</ele>
        <time>2016-12-28T14:16:32.000Z</time>
      </trkpt>
      <trkpt lat="47.5489" lon="6.70907">
        <ele>417.2</ele>
        <time>2016-12-28T14:16:33.000Z</time>
      </trkpt>
      <trkpt lat="47.54889" lon="6.70901">
        <ele>416.7</ele>
        <time>2016-12-28T14:16:34.000Z</time>
      </trkpt>
      <trkpt lat="47.54887" lon="6.70896">
        <ele>416.6</ele>
        <time>2016-12-28T14:16:35.000Z</time>
      </trkpt>
      <trkpt lat="47.54886" lon="6.70891">
        <ele>416.6</ele>
        <time>2016-12-28T14:16:36.000Z</time>
      </trkpt>
      <trkpt lat="47.54883" lon="6.70886">
        <ele>416.2</ele>
        <time>2016-12-28T14:16:37.000Z</time>
      </trkpt>
      <trkpt lat="47.54879" lon="6.70881">
        <ele>416.2</ele>
        <time>2016-12-28T14:16:38.000Z</time>
      </trkpt>
      <trkpt lat="47.54875" lon="6.70874">
        <ele>416.4</ele>
        <time>2016-12-28T14:16:39.000Z</time>
      </trkpt>
      <trkpt lat="47.5487" lon="6.70867">
        <ele>416.6</ele>
        <time>2016-12-28T14:16:40.000Z</time>
      </trkpt>
      <trkpt lat="47.54865" lon="6.70859">
        <ele>416.8</ele>
        <time>2016-12-28T14:16:41.000Z</time>
      </trkpt>
      <trkpt lat="47.54859" lon="6.70853">
        <ele>417.1</ele>
        <time>2016-12-28T14:16:42.000Z</time>
      </trkpt>
      <trkpt lat="47.54856" lon="6.70851">
        <ele>417.5</ele>
        <time>2016-12-28T14:16:43.000Z</time>
      </trkpt>
      <trkpt lat="47.54851" lon="6.70852">
        <ele>417.7</ele>
        <time>2016-12-28T14:16:44.000Z</time>
      </trkpt>
      <trkpt lat="47.54845" lon="6.70852">
        <ele>418</ele>
        <time>2016-12-28T14:16:45.000Z</time>
      </trkpt>
      <trkpt lat="47.54838" lon="6.7085">
        <ele>418.4</ele>
        <time>2016-12-28T14:16:46.000Z</time>
      </trkpt>
      <trkpt lat="47.54831" lon="6.70849">
        <ele>418.8</ele>
        <time>2016-12-28T14:16:47.000Z</time>
      </trkpt>
      <trkpt lat="47.54821" lon="6.70846">
        <ele>419.2</ele>
        <time>2016-12-28T14:16:48.000Z</time>
      </trkpt>
      <trkpt lat="47.54821" lon="6.70846">
        <ele>420.5</ele>
        <time>2016-12-28T14:16:52.000Z</time>
      </trkpt>
      <trkpt lat="47.5481" lon="6.70836">
        <ele>421</ele>
        <time>2016-12-28T14:16:53.000Z</time>
      </trkpt>
      <trkpt lat="47.5481" lon="6.70836">
        <ele>421.3</ele>
        <time>2016-12-28T14:16:54.000Z</time>
      </trkpt>
      <trkpt lat="47.54798" lon="6.70822">
        <ele>421.8</ele>
        <time>2016-12-28T14:16:55.000Z</time>
      </trkpt>
      <trkpt lat="47.54798" lon="6.70822">
        <ele>422.2</ele>
        <time>2016-12-28T14:16:56.000Z</time>
      </trkpt>
      <trkpt lat="47.54784" lon="6.7081">
        <ele>422.6</ele>
        <time>2016-12-28T14:16:57.000Z</time>
      </trkpt>
      <trkpt lat="47.54775" lon="6.70805">
        <ele>422.8</ele>
        <time>2016-12-28T14:16:58.000Z</time>
      </trkpt>
      <trkpt lat="47.5477" lon="6.70804">
        <ele>423</ele>
        <time>2016-12-28T14:16:59.000Z</time>
      </trkpt>
      <trkpt lat="47.54763" lon="6.70802">
        <ele>423.3</ele>
        <time>2016-12-28T14:17:00.000Z</time>
      </trkpt>
      <trkpt lat="47.54756" lon="6.708">
        <ele>423.6</ele>
        <time>2016-12-28T14:17:01.000Z</time>
      </trkpt>
      <trkpt lat="47.54751" lon="6.70798">
        <ele>423.9</ele>
        <time>2016-12-28T14:17:02.000Z</time>
      </trkpt>
      <trkpt lat="47.54746" lon="6.70794">
        <ele>424.2</ele>
        <time>2016-12-28T14:17:03.000Z</time>
      </trkpt>
      <trkpt lat="47.54736" lon="6.70788">
        <ele>424.6</ele>
        <time>2016-12-28T14:17:04.000Z</time>
      </trkpt>
      <trkpt lat="47.54732" lon="6.70783">
        <ele>425.2</ele>
        <time>2016-12-28T14:17:05.000Z</time>
      </trkpt>
      <trkpt lat="47.54729" lon="6.70779">
        <ele>425.7</ele>
        <time>2016-12-28T14:17:06.000Z</time>
      </trkpt>
      <trkpt lat="47.54725" lon="6.70775">
        <ele>426.2</ele>
        <time>2016-12-28T14:17:07.000Z</time>
      </trkpt>
      <trkpt lat="47.54721" lon="6.70771">
        <ele>426.6</ele>
        <time>2016-12-28T14:17:08.000Z</time>
      </trkpt>
      <trkpt lat="47.54718" lon="6.70768">
        <ele>426.9</ele>
        <time>2016-12-28T14:17:09.000Z</time>
      </trkpt>
      <trkpt lat="47.54713" lon="6.70763">
        <ele>427.3</ele>
        <time>2016-12-28T14:17:10.000Z</time>
      </trkpt>
      <trkpt lat="47.54708" lon="6.70756">
        <ele>427.7</ele>
        <time>2016-12-28T14:17:11.000Z</time>
      </trkpt>
      <trkpt lat="47.54705" lon="6.70747">
        <ele>429.6</ele>
        <time>2016-12-28T14:17:12.000Z</time>
      </trkpt>
      <trkpt lat="47.547" lon="6.70732">
        <ele>431.1</ele>
        <time>2016-12-28T14:17:13.000Z</time>
      </trkpt>
      <trkpt lat="47.54699" lon="6.70722">
        <ele>431.8</ele>
        <time>2016-12-28T14:17:14.000Z</time>
      </trkpt>
      <trkpt lat="47.54697" lon="6.70713">
        <ele>432.5</ele>
        <time>2016-12-28T14:17:15.000Z</time>
      </trkpt>
      <trkpt lat="47.54696" lon="6.70704">
        <ele>433.1</ele>
        <time>2016-12-28T14:17:16.000Z</time>
      </trkpt>
      <trkpt lat="47.54695" lon="6.70691">
        <ele>435</ele>
        <time>2016-12-28T14:17:17.000Z</time>
      </trkpt>
      <trkpt lat="47.54695" lon="6.7068">
        <ele>436.1</ele>
        <time>2016-12-28T14:17:18.000Z</time>
      </trkpt>
      <trkpt lat="47.54696" lon="6.7067">
        <ele>438</ele>
        <time>2016-12-28T14:17:19.000Z</time>
      </trkpt>
      <trkpt lat="47.54698" lon="6.7066">
        <ele>439</ele>
        <time>2016-12-28T14:17:20.000Z</time>
      </trkpt>
      <trkpt lat="47.54699" lon="6.70651">
        <ele>439.7</ele>
        <time>2016-12-28T14:17:21.000Z</time>
      </trkpt>
      <trkpt lat="47.54702" lon="6.70644">
        <ele>439.3</ele>
        <time>2016-12-28T14:17:22.000Z</time>
      </trkpt>
      <trkpt lat="47.54705" lon="6.70637">
        <ele>438.8</ele>
        <time>2016-12-28T14:17:23.000Z</time>
      </trkpt>
      <trkpt lat="47.54708" lon="6.70629">
        <ele>437.8</ele>
        <time>2016-12-28T14:17:24.000Z</time>
      </trkpt>
      <trkpt lat="47.54713" lon="6.7062">
        <ele>436.4</ele>
        <time>2016-12-28T14:17:25.000Z</time>
      </trkpt>
      <trkpt lat="47.54716" lon="6.70611">
        <ele>436.1</ele>
        <time>2016-12-28T14:17:26.000Z</time>
      </trkpt>
      <trkpt lat="47.5472" lon="6.706">
        <ele>436.6</ele>
        <time>2016-12-28T14:17:27.000Z</time>
      </trkpt>
      <trkpt lat="47.54723" lon="6.70592">
        <ele>435.9</ele>
        <time>2016-12-28T14:17:28.000Z</time>
      </trkpt>
      <trkpt lat="47.54727" lon="6.70582">
        <ele>435.6</ele>
        <time>2016-12-28T14:17:29.000Z</time>
      </trkpt>
      <trkpt lat="47.5473" lon="6.70575">
        <ele>434.1</ele>
        <time>2016-12-28T14:17:30.000Z</time>
      </trkpt>
      <trkpt lat="47.54734" lon="6.70569">
        <ele>432.8</ele>
        <time>2016-12-28T14:17:31.000Z</time>
      </trkpt>
      <trkpt lat="47.54737" lon="6.70562">
        <ele>430.6</ele>
        <time>2016-12-28T14:17:32.000Z</time>
      </trkpt>
      <trkpt lat="47.5474" lon="6.70555">
        <ele>428.4</ele>
        <time>2016-12-28T14:17:33.000Z</time>
      </trkpt>
      <trkpt lat="47.54745" lon="6.70544">
        <ele>427.4</ele>
        <time>2016-12-28T14:17:34.000Z</time>
      </trkpt>
      <trkpt lat="47.54747" lon="6.70536">
        <ele>427.4</ele>
        <time>2016-12-28T14:17:35.000Z</time>
      </trkpt>
      <trkpt lat="47.54745" lon="6.7053">
        <ele>427.1</ele>
        <time>2016-12-28T14:17:37.000Z</time>
      </trkpt>
      <trkpt lat="47.54744" lon="6.70527">
        <ele>426.9</ele>
        <time>2016-12-28T14:17:38.000Z</time>
      </trkpt>
      <trkpt lat="47.54744" lon="6.70521">
        <ele>424.7</ele>
        <time>2016-12-28T14:17:39.000Z</time>
      </trkpt>
      <trkpt lat="47.54744" lon="6.70516">
        <ele>424.5</ele>
        <time>2016-12-28T14:17:40.000Z</time>
      </trkpt>
      <trkpt lat="47.54743" lon="6.70511">
        <ele>424.4</ele>
        <time>2016-12-28T14:17:41.000Z</time>
      </trkpt>
      <trkpt lat="47.54741" lon="6.70502">
        <ele>424.3</ele>
        <time>2016-12-28T14:17:42.000Z</time>
      </trkpt>
      <trkpt lat="47.54739" lon="6.70495">
        <ele>424.2</ele>
        <time>2016-12-28T14:17:43.000Z</time>
      </trkpt>
      <trkpt lat="47.54737" lon="6.7049">
        <ele>421.7</ele>
        <time>2016-12-28T14:17:44.000Z</time>
      </trkpt>
      <trkpt lat="47.54734" lon="6.70485">
        <ele>420.3</ele>
        <time>2016-12-28T14:17:45.000Z</time>
      </trkpt>
      <trkpt lat="47.54732" lon="6.7048">
        <ele>420.2</ele>
        <time>2016-12-28T14:17:46.000Z</time>
      </trkpt>
      <trkpt lat="47.5473" lon="6.70476">
        <ele>419.9</ele>
        <time>2016-12-28T14:17:47.000Z</time>
      </trkpt>
      <trkpt lat="47.54727" lon="6.70471">
        <ele>419.6</ele>
        <time>2016-12-28T14:17:48.000Z</time>
      </trkpt>
      <trkpt lat="47.54722" lon="6.70472">
        <ele>419.5</ele>
        <time>2016-12-28T14:17:49.000Z</time>
      </trkpt>
      <trkpt lat="47.54718" lon="6.70473">
        <ele>419.4</ele>
        <time>2016-12-28T14:17:50.000Z</time>
      </trkpt>
      <trkpt lat="47.54714" lon="6.70478">
        <ele>419.4</ele>
        <time>2016-12-28T14:17:51.000Z</time>
      </trkpt>
      <trkpt lat="47.5471" lon="6.70483">
        <ele>419.3</ele>
        <time>2016-12-28T14:17:52.000Z</time>
      </trkpt>
      <trkpt lat="47.54707" lon="6.70487">
        <ele>419.2</ele>
        <time>2016-12-28T14:17:53.000Z</time>
      </trkpt>
      <trkpt lat="47.54703" lon="6.7049">
        <ele>419.1</ele>
        <time>2016-12-28T14:17:54.000Z</time>
      </trkpt>
      <trkpt lat="47.547" lon="6.70494">
        <ele>419</ele>
        <time>2016-12-28T14:17:55.000Z</time>
      </trkpt>
      <trkpt lat="47.54697" lon="6.70497">
        <ele>418.9</ele>
        <time>2016-12-28T14:17:56.000Z</time>
      </trkpt>
      <trkpt lat="47.54694" lon="6.70501">
        <ele>418.8</ele>
        <time>2016-12-28T14:17:57.000Z</time>
      </trkpt>
      <trkpt lat="47.54692" lon="6.70504">
        <ele>418.8</ele>
        <time>2016-12-28T14:17:58.000Z</time>
      </trkpt>
      <trkpt lat="47.54689" lon="6.70507">
        <ele>418.7</ele>
        <time>2016-12-28T14:17:59.000Z</time>
      </trkpt>
      <trkpt lat="47.54684" lon="6.70515">
        <ele>418.7</ele>
        <time>2016-12-28T14:18:00.000Z</time>
      </trkpt>
      <trkpt lat="47.54681" lon="6.70519">
        <ele>418.6</ele>
        <time>2016-12-28T14:18:01.000Z</time>
      </trkpt>
      <trkpt lat="47.54677" lon="6.70521">
        <ele>418.5</ele>
        <time>2016-12-28T14:18:02.000Z</time>
      </trkpt>
      <trkpt lat="47.54677" lon="6.70521">
        <ele>418.2</ele>
        <time>2016-12-28T14:18:06.000Z</time>
      </trkpt>
      <trkpt lat="47.54656" lon="6.70527">
        <ele>418.2</ele>
        <time>2016-12-28T14:18:07.000Z</time>
      </trkpt>
      <trkpt lat="47.54656" lon="6.70527">
        <ele>418.1</ele>
        <time>2016-12-28T14:18:10.000Z</time>
      </trkpt>
      <trkpt lat="47.54637" lon="6.70533">
        <ele>418.1</ele>
        <time>2016-12-28T14:18:11.000Z</time>
      </trkpt>
      <trkpt lat="47.54637" lon="6.70533">
        <ele>417.9</ele>
        <time>2016-12-28T14:18:14.000Z</time>
      </trkpt>
      <trkpt lat="47.54621" lon="6.70534">
        <ele>417.8</ele>
        <time>2016-12-28T14:18:15.000Z</time>
      </trkpt>
      <trkpt lat="47.54621" lon="6.70534">
        <ele>417.7</ele>
        <time>2016-12-28T14:18:16.000Z</time>
      </trkpt>
      <trkpt lat="47.54609" lon="6.70539">
        <ele>417.7</ele>
        <time>2016-12-28T14:18:17.000Z</time>
      </trkpt>
      <trkpt lat="47.54609" lon="6.70539">
        <ele>417.4</ele>
        <time>2016-12-28T14:18:21.000Z</time>
      </trkpt>
      <trkpt lat="47.54586" lon="6.70551">
        <ele>417.4</ele>
        <time>2016-12-28T14:18:22.000Z</time>
      </trkpt>
      <trkpt lat="47.54586" lon="6.70551">
        <ele>417.3</ele>
        <time>2016-12-28T14:18:27.000Z</time>
      </trkpt>
      <trkpt lat="47.54564" lon="6.70557">
        <ele>417.4</ele>
        <time>2016-12-28T14:18:28.000Z</time>
      </trkpt>
      <trkpt lat="47.54559" lon="6.70558">
        <ele>417.5</ele>
        <time>2016-12-28T14:18:29.000Z</time>
      </trkpt>
      <trkpt lat="47.54559" lon="6.70558">
        <ele>417.7</ele>
        <time>2016-12-28T14:18:35.000Z</time>
      </trkpt>
      <trkpt lat="47.54542" lon="6.70558">
        <ele>417.8</ele>
        <time>2016-12-28T14:18:36.000Z</time>
      </trkpt>
      <trkpt lat="47.5453" lon="6.70561">
        <ele>417.9</ele>
        <time>2016-12-28T14:18:37.000Z</time>
      </trkpt>
      <trkpt lat="47.5453" lon="6.70561">
        <ele>417.9</ele>
        <time>2016-12-28T14:18:39.000Z</time>
      </trkpt>
      <trkpt lat="47.54512" lon="6.70564">
        <ele>417.9</ele>
        <time>2016-12-28T14:18:40.000Z</time>
      </trkpt>
      <trkpt lat="47.54512" lon="6.70564">
        <ele>418.9</ele>
        <time>2016-12-28T14:18:45.000Z</time>
      </trkpt>
      <trkpt lat="47.54501" lon="6.70566">
        <ele>419.1</ele>
        <time>2016-12-28T14:18:46.000Z</time>
      </trkpt>
      <trkpt lat="47.54501" lon="6.70566">
        <ele>419.5</ele>
        <time>2016-12-28T14:18:56.000Z</time>
      </trkpt>
      <trkpt lat="47.54483" lon="6.70582">
        <ele>419.5</ele>
        <time>2016-12-28T14:18:57.000Z</time>
      </trkpt>
      <trkpt lat="47.54478" lon="6.70586">
        <ele>419.7</ele>
        <time>2016-12-28T14:18:58.000Z</time>
      </trkpt>
      <trkpt lat="47.54474" lon="6.70589">
        <ele>419.8</ele>
        <time>2016-12-28T14:18:59.000Z</time>
      </trkpt>
      <trkpt lat="47.5447" lon="6.70591">
        <ele>419.7</ele>
        <time>2016-12-28T14:19:04.000Z</time>
      </trkpt>
      <trkpt lat="47.54446" lon="6.70612">
        <ele>419.6</ele>
        <time>2016-12-28T14:19:05.000Z</time>
      </trkpt>
      <trkpt lat="47.54446" lon="6.70612">
        <ele>419</ele>
        <time>2016-12-28T14:19:12.000Z</time>
      </trkpt>
      <trkpt lat="47.54427" lon="6.70633">
        <ele>418.8</ele>
        <time>2016-12-28T14:19:13.000Z</time>
      </trkpt>
      <trkpt lat="47.54427" lon="6.70633">
        <ele>418.7</ele>
        <time>2016-12-28T14:19:15.000Z</time>
      </trkpt>
      <trkpt lat="47.54422" lon="6.70644">
        <ele>418.7</ele>
        <time>2016-12-28T14:19:16.000Z</time>
      </trkpt>
      <trkpt lat="47.54422" lon="6.70644">
        <ele>418.8</ele>
        <time>2016-12-28T14:19:19.000Z</time>
      </trkpt>
      <trkpt lat="47.54403" lon="6.70663">
        <ele>418.8</ele>
        <time>2016-12-28T14:19:20.000Z</time>
      </trkpt>
      <trkpt lat="47.54403" lon="6.70663">
        <ele>418.7</ele>
        <time>2016-12-28T14:19:24.000Z</time>
      </trkpt>
      <trkpt lat="47.54396" lon="6.70668">
        <ele>418.8</ele>
        <time>2016-12-28T14:19:25.000Z</time>
      </trkpt>
      <trkpt lat="47.54394" lon="6.7067">
        <ele>418.7</ele>
        <time>2016-12-28T14:19:29.000Z</time>
      </trkpt>
      <trkpt lat="47.54382" lon="6.70685">
        <ele>418.7</ele>
        <time>2016-12-28T14:19:30.000Z</time>
      </trkpt>
      <trkpt lat="47.54382" lon="6.70685">
        <ele>418.8</ele>
        <time>2016-12-28T14:19:38.000Z</time>
      </trkpt>
      <trkpt lat="47.54384" lon="6.70711">
        <ele>419</ele>
        <time>2016-12-28T14:19:39.000Z</time>
      </trkpt>
      <trkpt lat="47.54384" lon="6.70711">
        <ele>419.4</ele>
        <time>2016-12-28T14:19:41.000Z</time>
      </trkpt>
      <trkpt lat="47.54378" lon="6.70734">
        <ele>419.6</ele>
        <time>2016-12-28T14:19:42.000Z</time>
      </trkpt>
      <trkpt lat="47.54378" lon="6.70734">
        <ele>419.8</ele>
        <time>2016-12-28T14:19:44.000Z</time>
      </trkpt>
      <trkpt lat="47.54368" lon="6.70748">
        <ele>419.9</ele>
        <time>2016-12-28T14:19:45.000Z</time>
      </trkpt>
      <trkpt lat="47.54368" lon="6.70748">
        <ele>420.1</ele>
        <time>2016-12-28T14:19:48.000Z</time>
      </trkpt>
      <trkpt lat="47.54356" lon="6.70754">
        <ele>420.1</ele>
        <time>2016-12-28T14:19:49.000Z</time>
      </trkpt>
      <trkpt lat="47.54356" lon="6.70754">
        <ele>420.2</ele>
        <time>2016-12-28T14:19:50.000Z</time>
      </trkpt>
      <trkpt lat="47.5435" lon="6.70757">
        <ele>420.2</ele>
        <time>2016-12-28T14:19:51.000Z</time>
      </trkpt>
      <trkpt lat="47.54346" lon="6.70757">
        <ele>420.2</ele>
        <time>2016-12-28T14:19:52.000Z</time>
      </trkpt>
      <trkpt lat="47.54344" lon="6.70756">
        <ele>420.3</ele>
        <time>2016-12-28T14:19:53.000Z</time>
      </trkpt>
      <trkpt lat="47.54341" lon="6.70754">
        <ele>420.3</ele>
        <time>2016-12-28T14:19:54.000Z</time>
      </trkpt>
      <trkpt lat="47.54338" lon="6.70752">
        <ele>420.3</ele>
        <time>2016-12-28T14:19:55.000Z</time>
      </trkpt>
      <trkpt lat="47.54337" lon="6.70748">
        <ele>420.3</ele>
        <time>2016-12-28T14:19:56.000Z</time>
      </trkpt>
      <trkpt lat="47.54335" lon="6.70745">
        <ele>420.3</ele>
        <time>2016-12-28T14:19:57.000Z</time>
      </trkpt>
      <trkpt lat="47.54334" lon="6.7074">
        <ele>420.4</ele>
        <time>2016-12-28T14:19:58.000Z</time>
      </trkpt>
      <trkpt lat="47.54334" lon="6.70737">
        <ele>420.6</ele>
        <time>2016-12-28T14:19:59.000Z</time>
      </trkpt>
      <trkpt lat="47.54334" lon="6.70733">
        <ele>420.7</ele>
        <time>2016-12-28T14:20:00.000Z</time>
      </trkpt>
      <trkpt lat="47.54334" lon="6.70729">
        <ele>420.8</ele>
        <time>2016-12-28T14:20:01.000Z</time>
      </trkpt>
      <trkpt lat="47.54334" lon="6.70724">
        <ele>420.9</ele>
        <time>2016-12-28T14:20:02.000Z</time>
      </trkpt>
      <trkpt lat="47.54333" lon="6.70716">
        <ele>421</ele>
        <time>2016-12-28T14:20:03.000Z</time>
      </trkpt>
      <trkpt lat="47.54332" lon="6.7071">
        <ele>421.1</ele>
        <time>2016-12-28T14:20:04.000Z</time>
      </trkpt>
      <trkpt lat="47.54331" lon="6.70705">
        <ele>421.3</ele>
        <time>2016-12-28T14:20:05.000Z</time>
      </trkpt>
      <trkpt lat="47.54331" lon="6.70701">
        <ele>421.4</ele>
        <time>2016-12-28T14:20:06.000Z</time>
      </trkpt>
      <trkpt lat="47.54331" lon="6.70696">
        <ele>421.5</ele>
        <time>2016-12-28T14:20:07.000Z</time>
      </trkpt>
      <trkpt lat="47.54331" lon="6.70692">
        <ele>421.5</ele>
        <time>2016-12-28T14:20:08.000Z</time>
      </trkpt>
      <trkpt lat="47.54331" lon="6.70688">
        <ele>421.5</ele>
        <time>2016-12-28T14:20:09.000Z</time>
      </trkpt>
      <trkpt lat="47.5433" lon="6.70684">
        <ele>421.5</ele>
        <time>2016-12-28T14:20:10.000Z</time>
      </trkpt>
      <trkpt lat="47.54329" lon="6.7068">
        <ele>421.6</ele>
        <time>2016-12-28T14:20:11.000Z</time>
      </trkpt>
      <trkpt lat="47.54328" lon="6.70676">
        <ele>421.8</ele>
        <time>2016-12-28T14:20:12.000Z</time>
      </trkpt>
      <trkpt lat="47.54325" lon="6.70673">
        <ele>422</ele>
        <time>2016-12-28T14:20:13.000Z</time>
      </trkpt>
      <trkpt lat="47.54323" lon="6.70671">
        <ele>422.1</ele>
        <time>2016-12-28T14:20:14.000Z</time>
      </trkpt>
      <trkpt lat="47.5432" lon="6.7067">
        <ele>422.1</ele>
        <time>2016-12-28T14:20:15.000Z</time>
      </trkpt>
      <trkpt lat="47.54316" lon="6.70672">
        <ele>422.2</ele>
        <time>2016-12-28T14:20:17.000Z</time>
      </trkpt>
      <trkpt lat="47.54314" lon="6.70674">
        <ele>422.1</ele>
        <time>2016-12-28T14:20:18.000Z</time>
      </trkpt>
      <trkpt lat="47.54312" lon="6.70677">
        <ele>422.1</ele>
        <time>2016-12-28T14:20:19.000Z</time>
      </trkpt>
      <trkpt lat="47.5431" lon="6.70681">
        <ele>422.1</ele>
        <time>2016-12-28T14:20:20.000Z</time>
      </trkpt>
      <trkpt lat="47.54308" lon="6.70684">
        <ele>422.2</ele>
        <time>2016-12-28T14:20:25.000Z</time>
      </trkpt>
      <trkpt lat="47.54297" lon="6.70692">
        <ele>422.2</ele>
        <time>2016-12-28T14:20:26.000Z</time>
      </trkpt>
      <trkpt lat="47.54297" lon="6.70692">
        <ele>422.1</ele>
        <time>2016-12-28T14:20:34.000Z</time>
      </trkpt>
      <trkpt lat="47.54286" lon="6.707">
        <ele>422.2</ele>
        <time>2016-12-28T14:20:35.000Z</time>
      </trkpt>
      <trkpt lat="47.54283" lon="6.70704">
        <ele>422.4</ele>
        <time>2016-12-28T14:20:37.000Z</time>
      </trkpt>
      <trkpt lat="47.54281" lon="6.70707">
        <ele>422.5</ele>
        <time>2016-12-28T14:20:38.000Z</time>
      </trkpt>
      <trkpt lat="47.54279" lon="6.70709">
        <ele>422.5</ele>
        <time>2016-12-28T14:20:39.000Z</time>
      </trkpt>
      <trkpt lat="47.54276" lon="6.70712">
        <ele>422.5</ele>
        <time>2016-12-28T14:20:40.000Z</time>
      </trkpt>
      <trkpt lat="47.54274" lon="6.70715">
        <ele>422.6</ele>
        <time>2016-12-28T14:20:41.000Z</time>
      </trkpt>
      <trkpt lat="47.54272" lon="6.70718">
        <ele>422.7</ele>
        <time>2016-12-28T14:20:42.000Z</time>
      </trkpt>
      <trkpt lat="47.54269" lon="6.70721">
        <ele>422.8</ele>
        <time>2016-12-28T14:20:43.000Z</time>
      </trkpt>
      <trkpt lat="47.54267" lon="6.70724">
        <ele>422.9</ele>
        <time>2016-12-28T14:20:44.000Z</time>
      </trkpt>
      <trkpt lat="47.54264" lon="6.70726">
        <ele>423</ele>
        <time>2016-12-28T14:20:45.000Z</time>
      </trkpt>
      <trkpt lat="47.54262" lon="6.70728">
        <ele>423</ele>
        <time>2016-12-28T14:20:46.000Z</time>
      </trkpt>
      <trkpt lat="47.54258" lon="6.70728">
        <ele>423.1</ele>
        <time>2016-12-28T14:20:48.000Z</time>
      </trkpt>
      <trkpt lat="47.54256" lon="6.70729">
        <ele>423</ele>
        <time>2016-12-28T14:20:49.000Z</time>
      </trkpt>
      <trkpt lat="47.54253" lon="6.70732">
        <ele>423.1</ele>
        <time>2016-12-28T14:20:51.000Z</time>
      </trkpt>
      <trkpt lat="47.54251" lon="6.70734">
        <ele>423.2</ele>
        <time>2016-12-28T14:20:52.000Z</time>
      </trkpt>
      <trkpt lat="47.5425" lon="6.70735">
        <ele>423.3</ele>
        <time>2016-12-28T14:20:53.000Z</time>
      </trkpt>
      <trkpt lat="47.54246" lon="6.70737">
        <ele>423.5</ele>
        <time>2016-12-28T14:20:54.000Z</time>
      </trkpt>
      <trkpt lat="47.54243" lon="6.70738">
        <ele>423.6</ele>
        <time>2016-12-28T14:20:55.000Z</time>
      </trkpt>
      <trkpt lat="47.5424" lon="6.70738">
        <ele>423.7</ele>
        <time>2016-12-28T14:20:56.000Z</time>
      </trkpt>
      <trkpt lat="47.54236" lon="6.70739">
        <ele>423.9</ele>
        <time>2016-12-28T14:20:57.000Z</time>
      </trkpt>
      <trkpt lat="47.54233" lon="6.7074">
        <ele>423.9</ele>
        <time>2016-12-28T14:20:58.000Z</time>
      </trkpt>
      <trkpt lat="47.5423" lon="6.70741">
        <ele>424.1</ele>
        <time>2016-12-28T14:20:59.000Z</time>
      </trkpt>
      <trkpt lat="47.54227" lon="6.70742">
        <ele>424.2</ele>
        <time>2016-12-28T14:21:00.000Z</time>
      </trkpt>
      <trkpt lat="47.54224" lon="6.70742">
        <ele>424.3</ele>
        <time>2016-12-28T14:21:01.000Z</time>
      </trkpt>
      <trkpt lat="47.54222" lon="6.70744">
        <ele>424.4</ele>
        <time>2016-12-28T14:21:02.000Z</time>
      </trkpt>
      <trkpt lat="47.54218" lon="6.70746">
        <ele>424.5</ele>
        <time>2016-12-28T14:21:03.000Z</time>
      </trkpt>
      <trkpt lat="47.54215" lon="6.70747">
        <ele>424.5</ele>
        <time>2016-12-28T14:21:04.000Z</time>
      </trkpt>
      <trkpt lat="47.54212" lon="6.7075">
        <ele>424.6</ele>
        <time>2016-12-28T14:21:05.000Z</time>
      </trkpt>
      <trkpt lat="47.5421" lon="6.70752">
        <ele>424.6</ele>
        <time>2016-12-28T14:21:06.000Z</time>
      </trkpt>
      <trkpt lat="47.54206" lon="6.70755">
        <ele>424.7</ele>
        <time>2016-12-28T14:21:07.000Z</time>
      </trkpt>
      <trkpt lat="47.54204" lon="6.70756">
        <ele>424.9</ele>
        <time>2016-12-28T14:21:08.000Z</time>
      </trkpt>
      <trkpt lat="47.542" lon="6.70758">
        <ele>425.3</ele>
        <time>2016-12-28T14:21:10.000Z</time>
      </trkpt>
      <trkpt lat="47.54197" lon="6.70761">
        <ele>425.6</ele>
        <time>2016-12-28T14:21:11.000Z</time>
      </trkpt>
      <trkpt lat="47.54197" lon="6.70761">
        <ele>427.7</ele>
        <time>2016-12-28T14:21:18.000Z</time>
      </trkpt>
      <trkpt lat="47.54187" lon="6.70766">
        <ele>428.1</ele>
        <time>2016-12-28T14:21:19.000Z</time>
      </trkpt>
      <trkpt lat="47.54184" lon="6.70769">
        <ele>428.7</ele>
        <time>2016-12-28T14:21:21.000Z</time>
      </trkpt>
      <trkpt lat="47.54182" lon="6.7077">
        <ele>429</ele>
        <time>2016-12-28T14:21:22.000Z</time>
      </trkpt>
      <trkpt lat="47.54178" lon="6.70772">
        <ele>429.7</ele>
        <time>2016-12-28T14:21:24.000Z</time>
      </trkpt>
      <trkpt lat="47.54177" lon="6.70772">
        <ele>429.9</ele>
        <time>2016-12-28T14:21:25.000Z</time>
      </trkpt>
      <trkpt lat="47.54173" lon="6.70773">
        <ele>430.3</ele>
        <time>2016-12-28T14:21:27.000Z</time>
      </trkpt>
      <trkpt lat="47.54171" lon="6.70773">
        <ele>430.5</ele>
        <time>2016-12-28T14:21:28.000Z</time>
      </trkpt>
      <trkpt lat="47.54169" lon="6.70773">
        <ele>430.6</ele>
        <time>2016-12-28T14:21:29.000Z</time>
      </trkpt>
      <trkpt lat="47.54166" lon="6.70773">
        <ele>430.8</ele>
        <time>2016-12-28T14:21:30.000Z</time>
      </trkpt>
      <trkpt lat="47.54165" lon="6.70774">
        <ele>432.4</ele>
        <time>2016-12-28T14:21:47.000Z</time>
      </trkpt>
      <trkpt lat="47.54153" lon="6.70781">
        <ele>432.5</ele>
        <time>2016-12-28T14:21:48.000Z</time>
      </trkpt>
      <trkpt lat="47.54153" lon="6.70781">
        <ele>432.9</ele>
        <time>2016-12-28T14:21:53.000Z</time>
      </trkpt>
      <trkpt lat="47.54142" lon="6.70791">
        <ele>433.1</ele>
        <time>2016-12-28T14:21:54.000Z</time>
      </trkpt>
      <trkpt lat="47.54142" lon="6.70791">
        <ele>433.8</ele>
        <time>2016-12-28T14:22:05.000Z</time>
      </trkpt>
      <trkpt lat="47.54128" lon="6.70803">
        <ele>433.9</ele>
        <time>2016-12-28T14:22:06.000Z</time>
      </trkpt>
      <trkpt lat="47.54128" lon="6.70803">
        <ele>434.2</ele>
        <time>2016-12-28T14:22:12.000Z</time>
      </trkpt>
      <trkpt lat="47.54116" lon="6.70808">
        <ele>434.3</ele>
        <time>2016-12-28T14:22:13.000Z</time>
      </trkpt>
      <trkpt lat="47.54116" lon="6.70808">
        <ele>434.6</ele>
        <time>2016-12-28T14:22:16.000Z</time>
      </trkpt>
      <trkpt lat="47.54109" lon="6.70807">
        <ele>434.7</ele>
        <time>2016-12-28T14:22:17.000Z</time>
      </trkpt>
      <trkpt lat="47.54109" lon="6.70807">
        <ele>434.7</ele>
        <time>2016-12-28T14:22:19.000Z</time>
      </trkpt>
      <trkpt lat="47.54098" lon="6.70806">
        <ele>434.7</ele>
        <time>2016-12-28T14:22:20.000Z</time>
      </trkpt>
      <trkpt lat="47.54098" lon="6.70806">
        <ele>435.2</ele>
        <time>2016-12-28T14:22:27.000Z</time>
      </trkpt>
      <trkpt lat="47.54085" lon="6.70803">
        <ele>435.4</ele>
        <time>2016-12-28T14:22:28.000Z</time>
      </trkpt>
      <trkpt lat="47.54083" lon="6.70803">
        <ele>435.5</ele>
        <time>2016-12-28T14:22:30.000Z</time>
      </trkpt>
      <trkpt lat="47.5408" lon="6.70804">
        <ele>435.6</ele>
        <time>2016-12-28T14:22:31.000Z</time>
      </trkpt>
      <trkpt lat="47.54077" lon="6.70805">
        <ele>436.1</ele>
        <time>2016-12-28T14:22:37.000Z</time>
      </trkpt>
      <trkpt lat="47.54073" lon="6.70807">
        <ele>436.2</ele>
        <time>2016-12-28T14:22:38.000Z</time>
      </trkpt>
      <trkpt lat="47.5407" lon="6.70808">
        <ele>436.2</ele>
        <time>2016-12-28T14:22:42.000Z</time>
      </trkpt>
      <trkpt lat="47.54069" lon="6.70809">
        <ele>436.2</ele>
        <time>2016-12-28T14:22:43.000Z</time>
      </trkpt>
      <trkpt lat="47.54066" lon="6.70811">
        <ele>436.5</ele>
        <time>2016-12-28T14:22:46.000Z</time>
      </trkpt>
      <trkpt lat="47.54063" lon="6.70813">
        <ele>436.6</ele>
        <time>2016-12-28T14:22:47.000Z</time>
      </trkpt>
      <trkpt lat="47.5406" lon="6.70815">
        <ele>436.8</ele>
        <time>2016-12-28T14:22:49.000Z</time>
      </trkpt>
      <trkpt lat="47.54058" lon="6.70816">
        <ele>437</ele>
        <time>2016-12-28T14:22:50.000Z</time>
      </trkpt>
      <trkpt lat="47.54056" lon="6.70816">
        <ele>437.2</ele>
        <time>2016-12-28T14:22:51.000Z</time>
      </trkpt>
      <trkpt lat="47.54053" lon="6.70816">
        <ele>437.3</ele>
        <time>2016-12-28T14:22:52.000Z</time>
      </trkpt>
      <trkpt lat="47.54052" lon="6.70817">
        <ele>437.5</ele>
        <time>2016-12-28T14:22:54.000Z</time>
      </trkpt>
      <trkpt lat="47.54049" lon="6.70818">
        <ele>437.6</ele>
        <time>2016-12-28T14:22:55.000Z</time>
      </trkpt>
      <trkpt lat="47.54046" lon="6.70819">
        <ele>437.7</ele>
        <time>2016-12-28T14:22:56.000Z</time>
      </trkpt>
      <trkpt lat="47.54044" lon="6.7082">
        <ele>437.9</ele>
        <time>2016-12-28T14:22:57.000Z</time>
      </trkpt>
      <trkpt lat="47.54041" lon="6.70822">
        <ele>438.1</ele>
        <time>2016-12-28T14:22:58.000Z</time>
      </trkpt>
      <trkpt lat="47.54038" lon="6.70824">
        <ele>438.2</ele>
        <time>2016-12-28T14:22:59.000Z</time>
      </trkpt>
      <trkpt lat="47.54036" lon="6.70826">
        <ele>438.5</ele>
        <time>2016-12-28T14:23:00.000Z</time>
      </trkpt>
      <trkpt lat="47.54034" lon="6.70829">
        <ele>438.7</ele>
        <time>2016-12-28T14:23:01.000Z</time>
      </trkpt>
      <trkpt lat="47.54031" lon="6.70833">
        <ele>438.9</ele>
        <time>2016-12-28T14:23:03.000Z</time>
      </trkpt>
      <trkpt lat="47.5403" lon="6.70834">
        <ele>439.1</ele>
        <time>2016-12-28T14:23:04.000Z</time>
      </trkpt>
      <trkpt lat="47.54027" lon="6.70838">
        <ele>439.4</ele>
        <time>2016-12-28T14:23:09.000Z</time>
      </trkpt>
      <trkpt lat="47.54026" lon="6.7084">
        <ele>439.5</ele>
        <time>2016-12-28T14:23:10.000Z</time>
      </trkpt>
      <trkpt lat="47.54025" lon="6.70845">
        <ele>439.5</ele>
        <time>2016-12-28T14:23:17.000Z</time>
      </trkpt>
      <trkpt lat="47.54023" lon="6.70846">
        <ele>439.4</ele>
        <time>2016-12-28T14:23:18.000Z</time>
      </trkpt>
      <trkpt lat="47.5402" lon="6.70848">
        <ele>439.6</ele>
        <time>2016-12-28T14:23:22.000Z</time>
      </trkpt>
      <trkpt lat="47.54018" lon="6.7085">
        <ele>439.7</ele>
        <time>2016-12-28T14:23:23.000Z</time>
      </trkpt>
      <trkpt lat="47.54014" lon="6.70853">
        <ele>440</ele>
        <time>2016-12-28T14:23:25.000Z</time>
      </trkpt>
      <trkpt lat="47.54013" lon="6.70853">
        <ele>440.1</ele>
        <time>2016-12-28T14:23:26.000Z</time>
      </trkpt>
      <trkpt lat="47.54011" lon="6.70856">
        <ele>440.7</ele>
        <time>2016-12-28T14:23:28.000Z</time>
      </trkpt>
      <trkpt lat="47.5401" lon="6.70857">
        <ele>440.9</ele>
        <time>2016-12-28T14:23:29.000Z</time>
      </trkpt>
      <trkpt lat="47.54006" lon="6.70859">
        <ele>441.5</ele>
        <time>2016-12-28T14:23:31.000Z</time>
      </trkpt>
      <trkpt lat="47.54003" lon="6.7086">
        <ele>441.7</ele>
        <time>2016-12-28T14:23:32.000Z</time>
      </trkpt>
      <trkpt lat="47.54001" lon="6.70861">
        <ele>441.8</ele>
        <time>2016-12-28T14:23:33.000Z</time>
      </trkpt>
      <trkpt lat="47.53999" lon="6.70863">
        <ele>442</ele>
        <time>2016-12-28T14:23:34.000Z</time>
      </trkpt>
      <trkpt lat="47.53996" lon="6.70864">
        <ele>442.1</ele>
        <time>2016-12-28T14:23:35.000Z</time>
      </trkpt>
      <trkpt lat="47.5399" lon="6.70872">
        <ele>442.3</ele>
        <time>2016-12-28T14:23:36.000Z</time>
      </trkpt>
      <trkpt lat="47.53987" lon="6.70875">
        <ele>442.4</ele>
        <time>2016-12-28T14:23:37.000Z</time>
      </trkpt>
      <trkpt lat="47.53986" lon="6.70877">
        <ele>442.5</ele>
        <time>2016-12-28T14:23:38.000Z</time>
      </trkpt>
      <trkpt lat="47.53983" lon="6.70881">
        <ele>442.7</ele>
        <time>2016-12-28T14:23:40.000Z</time>
      </trkpt>
      <trkpt lat="47.53982" lon="6.70882">
        <ele>442.8</ele>
        <time>2016-12-28T14:23:41.000Z</time>
      </trkpt>
      <trkpt lat="47.5398" lon="6.70884">
        <ele>443</ele>
        <time>2016-12-28T14:23:43.000Z</time>
      </trkpt>
      <trkpt lat="47.53977" lon="6.70885">
        <ele>443.1</ele>
        <time>2016-12-28T14:23:44.000Z</time>
      </trkpt>
      <trkpt lat="47.53974" lon="6.70887">
        <ele>443.3</ele>
        <time>2016-12-28T14:23:46.000Z</time>
      </trkpt>
      <trkpt lat="47.53972" lon="6.70888">
        <ele>443.3</ele>
        <time>2016-12-28T14:23:47.000Z</time>
      </trkpt>
      <trkpt lat="47.53969" lon="6.7089">
        <ele>443.4</ele>
        <time>2016-12-28T14:23:49.000Z</time>
      </trkpt>
      <trkpt lat="47.53967" lon="6.7089">
        <ele>443.5</ele>
        <time>2016-12-28T14:23:50.000Z</time>
      </trkpt>
      <trkpt lat="47.53963" lon="6.70894">
        <ele>444.2</ele>
        <time>2016-12-28T14:23:55.000Z</time>
      </trkpt>
      <trkpt lat="47.53963" lon="6.70894">
        <ele>444.2</ele>
        <time>2016-12-28T14:23:56.000Z</time>
      </trkpt>
      <trkpt lat="47.53961" lon="6.70899">
        <ele>444.8</ele>
        <time>2016-12-28T14:24:00.000Z</time>
      </trkpt>
      <trkpt lat="47.5396" lon="6.709">
        <ele>445</ele>
        <time>2016-12-28T14:24:01.000Z</time>
      </trkpt>
      <trkpt lat="47.53958" lon="6.70901">
        <ele>445.2</ele>
        <time>2016-12-28T14:24:02.000Z</time>
      </trkpt>
      <trkpt lat="47.53955" lon="6.70902">
        <ele>445.4</ele>
        <time>2016-12-28T14:24:03.000Z</time>
      </trkpt>
      <trkpt lat="47.53951" lon="6.70905">
        <ele>445.9</ele>
        <time>2016-12-28T14:24:05.000Z</time>
      </trkpt>
      <trkpt lat="47.5395" lon="6.70905">
        <ele>446</ele>
        <time>2016-12-28T14:24:06.000Z</time>
      </trkpt>
      <trkpt lat="47.53945" lon="6.70905">
        <ele>446.3</ele>
        <time>2016-12-28T14:24:10.000Z</time>
      </trkpt>
      <trkpt lat="47.53943" lon="6.70905">
        <ele>446.3</ele>
        <time>2016-12-28T14:24:11.000Z</time>
      </trkpt>
      <trkpt lat="47.53939" lon="6.70904">
        <ele>446.5</ele>
        <time>2016-12-28T14:24:15.000Z</time>
      </trkpt>
      <trkpt lat="47.53936" lon="6.70903">
        <ele>446.5</ele>
        <time>2016-12-28T14:24:16.000Z</time>
      </trkpt>
      <trkpt lat="47.53933" lon="6.70901">
        <ele>446.6</ele>
        <time>2016-12-28T14:24:17.000Z</time>
      </trkpt>
      <trkpt lat="47.53932" lon="6.70901">
        <ele>446.6</ele>
        <time>2016-12-28T14:24:18.000Z</time>
      </trkpt>
      <trkpt lat="47.53927" lon="6.70899">
        <ele>446.6</ele>
        <time>2016-12-28T14:24:20.000Z</time>
      </trkpt>
      <trkpt lat="47.53926" lon="6.70899">
        <ele>446.6</ele>
        <time>2016-12-28T14:24:21.000Z</time>
      </trkpt>
      <trkpt lat="47.53922" lon="6.70899">
        <ele>446.5</ele>
        <time>2016-12-28T14:24:24.000Z</time>
      </trkpt>
      <trkpt lat="47.5392" lon="6.709">
        <ele>446.5</ele>
        <time>2016-12-28T14:24:25.000Z</time>
      </trkpt>
      <trkpt lat="47.53917" lon="6.709">
        <ele>446.1</ele>
        <time>2016-12-28T14:24:28.000Z</time>
      </trkpt>
      <trkpt lat="47.53915" lon="6.709">
        <ele>446</ele>
        <time>2016-12-28T14:24:29.000Z</time>
      </trkpt>
      <trkpt lat="47.53913" lon="6.709">
        <ele>446</ele>
        <time>2016-12-28T14:24:32.000Z</time>
      </trkpt>
      <trkpt lat="47.5391" lon="6.709">
        <ele>446.1</ele>
        <time>2016-12-28T14:24:33.000Z</time>
      </trkpt>
      <trkpt lat="47.53907" lon="6.709">
        <ele>446.2</ele>
        <time>2016-12-28T14:24:35.000Z</time>
      </trkpt>
      <trkpt lat="47.53905" lon="6.709">
        <ele>446.4</ele>
        <time>2016-12-28T14:24:36.000Z</time>
      </trkpt>
      <trkpt lat="47.53901" lon="6.70899">
        <ele>446.7</ele>
        <time>2016-12-28T14:24:42.000Z</time>
      </trkpt>
      <trkpt lat="47.53901" lon="6.70899">
        <ele>446.8</ele>
        <time>2016-12-28T14:24:43.000Z</time>
      </trkpt>
      <trkpt lat="47.53897" lon="6.70903">
        <ele>446.4</ele>
        <time>2016-12-28T14:24:48.000Z</time>
      </trkpt>
      <trkpt lat="47.53896" lon="6.70903">
        <ele>446.5</ele>
        <time>2016-12-28T14:24:49.000Z</time>
      </trkpt>
      <trkpt lat="47.53892" lon="6.70903">
        <ele>447</ele>
        <time>2016-12-28T14:24:57.000Z</time>
      </trkpt>
      <trkpt lat="47.5389" lon="6.70903">
        <ele>447.1</ele>
        <time>2016-12-28T14:24:58.000Z</time>
      </trkpt>
      <trkpt lat="47.53887" lon="6.70903">
        <ele>447.2</ele>
        <time>2016-12-28T14:24:59.000Z</time>
      </trkpt>
      <trkpt lat="47.53884" lon="6.70902">
        <ele>447.3</ele>
        <time>2016-12-28T14:25:00.000Z</time>
      </trkpt>
      <trkpt lat="47.53881" lon="6.70901">
        <ele>448.1</ele>
        <time>2016-12-28T14:25:04.000Z</time>
      </trkpt>
      <trkpt lat="47.53878" lon="6.70898">
        <ele>448.2</ele>
        <time>2016-12-28T14:25:05.000Z</time>
      </trkpt>
      <trkpt lat="47.53875" lon="6.70896">
        <ele>448.4</ele>
        <time>2016-12-28T14:25:06.000Z</time>
      </trkpt>
      <trkpt lat="47.53871" lon="6.70896">
        <ele>448.6</ele>
        <time>2016-12-28T14:25:07.000Z</time>
      </trkpt>
      <trkpt lat="47.53866" lon="6.70896">
        <ele>448.9</ele>
        <time>2016-12-28T14:25:09.000Z</time>
      </trkpt>
      <trkpt lat="47.53863" lon="6.70896">
        <ele>449.1</ele>
        <time>2016-12-28T14:25:10.000Z</time>
      </trkpt>
      <trkpt lat="47.5386" lon="6.70897">
        <ele>449.4</ele>
        <time>2016-12-28T14:25:11.000Z</time>
      </trkpt>
      <trkpt lat="47.53857" lon="6.70896">
        <ele>449.6</ele>
        <time>2016-12-28T14:25:12.000Z</time>
      </trkpt>
      <trkpt lat="47.53853" lon="6.70897">
        <ele>449.6</ele>
        <time>2016-12-28T14:25:14.000Z</time>
      </trkpt>
      <trkpt lat="47.5385" lon="6.70896">
        <ele>449.5</ele>
        <time>2016-12-28T14:25:15.000Z</time>
      </trkpt>
      <trkpt lat="47.53846" lon="6.70894">
        <ele>449.4</ele>
        <time>2016-12-28T14:25:16.000Z</time>
      </trkpt>
      <trkpt lat="47.53838" lon="6.70889">
        <ele>449.2</ele>
        <time>2016-12-28T14:25:17.000Z</time>
      </trkpt>
      <trkpt lat="47.53836" lon="6.70885">
        <ele>449</ele>
        <time>2016-12-28T14:25:18.000Z</time>
      </trkpt>
      <trkpt lat="47.53833" lon="6.70882">
        <ele>449</ele>
        <time>2016-12-28T14:25:19.000Z</time>
      </trkpt>
      <trkpt lat="47.5383" lon="6.7088">
        <ele>449.1</ele>
        <time>2016-12-28T14:25:20.000Z</time>
      </trkpt>
      <trkpt lat="47.53827" lon="6.70877">
        <ele>449.1</ele>
        <time>2016-12-28T14:25:21.000Z</time>
      </trkpt>
      <trkpt lat="47.5382" lon="6.70872">
        <ele>449.3</ele>
        <time>2016-12-28T14:25:22.000Z</time>
      </trkpt>
      <trkpt lat="47.53816" lon="6.70869">
        <ele>449.5</ele>
        <time>2016-12-28T14:25:23.000Z</time>
      </trkpt>
      <trkpt lat="47.53805" lon="6.70864">
        <ele>449.7</ele>
        <time>2016-12-28T14:25:24.000Z</time>
      </trkpt>
      <trkpt lat="47.53801" lon="6.70861">
        <ele>450</ele>
        <time>2016-12-28T14:25:25.000Z</time>
      </trkpt>
      <trkpt lat="47.53799" lon="6.70859">
        <ele>450</ele>
        <time>2016-12-28T14:25:26.000Z</time>
      </trkpt>
      <trkpt lat="47.53797" lon="6.70857">
        <ele>450</ele>
        <time>2016-12-28T14:25:27.000Z</time>
      </trkpt>
      <trkpt lat="47.53794" lon="6.70855">
        <ele>450</ele>
        <time>2016-12-28T14:25:28.000Z</time>
      </trkpt>
      <trkpt lat="47.53791" lon="6.70855">
        <ele>450.1</ele>
        <time>2016-12-28T14:25:29.000Z</time>
      </trkpt>
      <trkpt lat="47.53788" lon="6.70853">
        <ele>450.1</ele>
        <time>2016-12-28T14:25:30.000Z</time>
      </trkpt>
      <trkpt lat="47.53782" lon="6.70852">
        <ele>450.9</ele>
        <time>2016-12-28T14:25:31.000Z</time>
      </trkpt>
      <trkpt lat="47.53778" lon="6.7085">
        <ele>450.9</ele>
        <time>2016-12-28T14:25:32.000Z</time>
      </trkpt>
      <trkpt lat="47.53773" lon="6.7085">
        <ele>450.8</ele>
        <time>2016-12-28T14:25:33.000Z</time>
      </trkpt>
      <trkpt lat="47.53768" lon="6.70848">
        <ele>450.7</ele>
        <time>2016-12-28T14:25:34.000Z</time>
      </trkpt>
      <trkpt lat="47.53764" lon="6.70846">
        <ele>450.5</ele>
        <time>2016-12-28T14:25:35.000Z</time>
      </trkpt>
      <trkpt lat="47.53759" lon="6.70844">
        <ele>450.1</ele>
        <time>2016-12-28T14:25:36.000Z</time>
      </trkpt>
      <trkpt lat="47.53755" lon="6.70841">
        <ele>449.5</ele>
        <time>2016-12-28T14:25:37.000Z</time>
      </trkpt>
      <trkpt lat="47.53752" lon="6.70839">
        <ele>449.1</ele>
        <time>2016-12-28T14:25:38.000Z</time>
      </trkpt>
      <trkpt lat="47.53749" lon="6.70838">
        <ele>448.6</ele>
        <time>2016-12-28T14:25:39.000Z</time>
      </trkpt>
      <trkpt lat="47.53743" lon="6.70834">
        <ele>448.1</ele>
        <time>2016-12-28T14:25:40.000Z</time>
      </trkpt>
      <trkpt lat="47.53738" lon="6.70833">
        <ele>447.7</ele>
        <time>2016-12-28T14:25:41.000Z</time>
      </trkpt>
      <trkpt lat="47.53734" lon="6.70828">
        <ele>447.3</ele>
        <time>2016-12-28T14:25:42.000Z</time>
      </trkpt>
      <trkpt lat="47.53731" lon="6.70826">
        <ele>446.9</ele>
        <time>2016-12-28T14:25:43.000Z</time>
      </trkpt>
      <trkpt lat="47.53727" lon="6.70822">
        <ele>446.5</ele>
        <time>2016-12-28T14:25:44.000Z</time>
      </trkpt>
      <trkpt lat="47.53723" lon="6.70819">
        <ele>446.2</ele>
        <time>2016-12-28T14:25:45.000Z</time>
      </trkpt>
      <trkpt lat="47.53718" lon="6.70814">
        <ele>445.9</ele>
        <time>2016-12-28T14:25:46.000Z</time>
      </trkpt>
      <trkpt lat="47.53712" lon="6.7081">
        <ele>442.8</ele>
        <time>2016-12-28T14:25:47.000Z</time>
      </trkpt>
      <trkpt lat="47.53707" lon="6.70805">
        <ele>442.7</ele>
        <time>2016-12-28T14:25:48.000Z</time>
      </trkpt>
      <trkpt lat="47.53703" lon="6.70803">
        <ele>442.3</ele>
        <time>2016-12-28T14:25:49.000Z</time>
      </trkpt>
      <trkpt lat="47.53698" lon="6.70799">
        <ele>442.1</ele>
        <time>2016-12-28T14:25:50.000Z</time>
      </trkpt>
      <trkpt lat="47.53692" lon="6.70796">
        <ele>439.1</ele>
        <time>2016-12-28T14:25:51.000Z</time>
      </trkpt>
      <trkpt lat="47.53687" lon="6.70792">
        <ele>436.9</ele>
        <time>2016-12-28T14:25:52.000Z</time>
      </trkpt>
      <trkpt lat="47.53681" lon="6.70787">
        <ele>436.1</ele>
        <time>2016-12-28T14:25:53.000Z</time>
      </trkpt>
      <trkpt lat="47.53677" lon="6.70783">
        <ele>436</ele>
        <time>2016-12-28T14:25:54.000Z</time>
      </trkpt>
      <trkpt lat="47.53671" lon="6.70779">
        <ele>435.7</ele>
        <time>2016-12-28T14:25:55.000Z</time>
      </trkpt>
      <trkpt lat="47.53665" lon="6.70774">
        <ele>435.4</ele>
        <time>2016-12-28T14:25:56.000Z</time>
      </trkpt>
      <trkpt lat="47.53658" lon="6.70766">
        <ele>435</ele>
        <time>2016-12-28T14:25:57.000Z</time>
      </trkpt>
      <trkpt lat="47.53652" lon="6.70758">
        <ele>431.1</ele>
        <time>2016-12-28T14:25:58.000Z</time>
      </trkpt>
      <trkpt lat="47.53643" lon="6.7075">
        <ele>428.1</ele>
        <time>2016-12-28T14:25:59.000Z</time>
      </trkpt>
      <trkpt lat="47.53638" lon="6.70742">
        <ele>426.2</ele>
        <time>2016-12-28T14:26:00.000Z</time>
      </trkpt>
      <trkpt lat="47.53633" lon="6.70737">
        <ele>424.7</ele>
        <time>2016-12-28T14:26:01.000Z</time>
      </trkpt>
      <trkpt lat="47.53627" lon="6.70729">
        <ele>423.4</ele>
        <time>2016-12-28T14:26:02.000Z</time>
      </trkpt>
      <trkpt lat="47.53623" lon="6.70726">
        <ele>423.3</ele>
        <time>2016-12-28T14:26:03.000Z</time>
      </trkpt>
      <trkpt lat="47.53622" lon="6.70725">
        <ele>423.1</ele>
        <time>2016-12-28T14:26:04.000Z</time>
      </trkpt>
      <trkpt lat="47.53618" lon="6.70721">
        <ele>423.4</ele>
        <time>2016-12-28T14:26:10.000Z</time>
      </trkpt>
      <trkpt lat="47.53617" lon="6.70719">
        <ele>423.7</ele>
        <time>2016-12-28T14:26:11.000Z</time>
      </trkpt>
      <trkpt lat="47.53616" lon="6.70716">
        <ele>424.1</ele>
        <time>2016-12-28T14:26:12.000Z</time>
      </trkpt>
      <trkpt lat="47.53614" lon="6.70713">
        <ele>424.5</ele>
        <time>2016-12-28T14:26:13.000Z</time>
      </trkpt>
      <trkpt lat="47.5361" lon="6.7071">
        <ele>425.3</ele>
        <time>2016-12-28T14:26:15.000Z</time>
      </trkpt>
      <trkpt lat="47.53608" lon="6.70709">
        <ele>425.7</ele>
        <time>2016-12-28T14:26:16.000Z</time>
      </trkpt>
      <trkpt lat="47.53605" lon="6.70706">
        <ele>426</ele>
        <time>2016-12-28T14:26:17.000Z</time>
      </trkpt>
      <trkpt lat="47.53604" lon="6.70704">
        <ele>426.2</ele>
        <time>2016-12-28T14:26:18.000Z</time>
      </trkpt>
      <trkpt lat="47.536" lon="6.70703">
        <ele>426.4</ele>
        <time>2016-12-28T14:26:19.000Z</time>
      </trkpt>
      <trkpt lat="47.53598" lon="6.70702">
        <ele>426.8</ele>
        <time>2016-12-28T14:26:20.000Z</time>
      </trkpt>
      <trkpt lat="47.53595" lon="6.70698">
        <ele>428.1</ele>
        <time>2016-12-28T14:26:25.000Z</time>
      </trkpt>
      <trkpt lat="47.53593" lon="6.70696">
        <ele>428.5</ele>
        <time>2016-12-28T14:26:26.000Z</time>
      </trkpt>
      <trkpt lat="47.5359" lon="6.70693">
        <ele>429.1</ele>
        <time>2016-12-28T14:26:27.000Z</time>
      </trkpt>
      <trkpt lat="47.53587" lon="6.7069">
        <ele>429.6</ele>
        <time>2016-12-28T14:26:28.000Z</time>
      </trkpt>
      <trkpt lat="47.53585" lon="6.70688">
        <ele>430.2</ele>
        <time>2016-12-28T14:26:29.000Z</time>
      </trkpt>
      <trkpt lat="47.53583" lon="6.70685">
        <ele>430.8</ele>
        <time>2016-12-28T14:26:30.000Z</time>
      </trkpt>
      <trkpt lat="47.53573" lon="6.70677">
        <ele>431.3</ele>
        <time>2016-12-28T14:26:31.000Z</time>
      </trkpt>
      <trkpt lat="47.53566" lon="6.70671">
        <ele>431.6</ele>
        <time>2016-12-28T14:26:32.000Z</time>
      </trkpt>
      <trkpt lat="47.53562" lon="6.7067">
        <ele>431.9</ele>
        <time>2016-12-28T14:26:33.000Z</time>
      </trkpt>
      <trkpt lat="47.53559" lon="6.70668">
        <ele>432.2</ele>
        <time>2016-12-28T14:26:34.000Z</time>
      </trkpt>
      <trkpt lat="47.53556" lon="6.70667">
        <ele>432.5</ele>
        <time>2016-12-28T14:26:35.000Z</time>
      </trkpt>
      <trkpt lat="47.53554" lon="6.70666">
        <ele>432.7</ele>
        <time>2016-12-28T14:26:36.000Z</time>
      </trkpt>
      <trkpt lat="47.53551" lon="6.70663">
        <ele>433.4</ele>
        <time>2016-12-28T14:26:39.000Z</time>
      </trkpt>
      <trkpt lat="47.5355" lon="6.70661">
        <ele>433.5</ele>
        <time>2016-12-28T14:26:40.000Z</time>
      </trkpt>
      <trkpt lat="47.53548" lon="6.70656">
        <ele>433.8</ele>
        <time>2016-12-28T14:26:43.000Z</time>
      </trkpt>
      <trkpt lat="47.53547" lon="6.70655">
        <ele>433.9</ele>
        <time>2016-12-28T14:26:44.000Z</time>
      </trkpt>
      <trkpt lat="47.53544" lon="6.70651">
        <ele>434</ele>
        <time>2016-12-28T14:26:46.000Z</time>
      </trkpt>
      <trkpt lat="47.53542" lon="6.70648">
        <ele>433.8</ele>
        <time>2016-12-28T14:26:47.000Z</time>
      </trkpt>
      <trkpt lat="47.5354" lon="6.70645">
        <ele>433.5</ele>
        <time>2016-12-28T14:26:49.000Z</time>
      </trkpt>
      <trkpt lat="47.53538" lon="6.70642">
        <ele>433.4</ele>
        <time>2016-12-28T14:26:50.000Z</time>
      </trkpt>
      <trkpt lat="47.53536" lon="6.70636">
        <ele>433.3</ele>
        <time>2016-12-28T14:26:52.000Z</time>
      </trkpt>
      <trkpt lat="47.53535" lon="6.70634">
        <ele>433.4</ele>
        <time>2016-12-28T14:26:53.000Z</time>
      </trkpt>
      <trkpt lat="47.53533" lon="6.70633">
        <ele>433.6</ele>
        <time>2016-12-28T14:26:56.000Z</time>
      </trkpt>
      <trkpt lat="47.5353" lon="6.70632">
        <ele>433.6</ele>
        <time>2016-12-28T14:26:57.000Z</time>
      </trkpt>
      <trkpt lat="47.53527" lon="6.7063">
        <ele>433.8</ele>
        <time>2016-12-28T14:26:58.000Z</time>
      </trkpt>
      <trkpt lat="47.53526" lon="6.70629">
        <ele>433.9</ele>
        <time>2016-12-28T14:26:59.000Z</time>
      </trkpt>
      <trkpt lat="47.53522" lon="6.70628">
        <ele>435</ele>
        <time>2016-12-28T14:27:03.000Z</time>
      </trkpt>
      <trkpt lat="47.53519" lon="6.70627">
        <ele>435.3</ele>
        <time>2016-12-28T14:27:04.000Z</time>
      </trkpt>
      <trkpt lat="47.53517" lon="6.70625">
        <ele>435.6</ele>
        <time>2016-12-28T14:27:05.000Z</time>
      </trkpt>
      <trkpt lat="47.53513" lon="6.70622">
        <ele>436</ele>
        <time>2016-12-28T14:27:06.000Z</time>
      </trkpt>
      <trkpt lat="47.5351" lon="6.7062">
        <ele>436.6</ele>
        <time>2016-12-28T14:27:09.000Z</time>
      </trkpt>
      <trkpt lat="47.53509" lon="6.7062">
        <ele>436.7</ele>
        <time>2016-12-28T14:27:10.000Z</time>
      </trkpt>
      <trkpt lat="47.53509" lon="6.7062">
        <ele>436.9</ele>
        <time>2016-12-28T14:27:11.000Z</time>
      </trkpt>
      <trkpt lat="47.535" lon="6.70616">
        <ele>436.9</ele>
        <time>2016-12-28T14:27:12.000Z</time>
      </trkpt>
      <trkpt lat="47.53497" lon="6.70613">
        <ele>437.1</ele>
        <time>2016-12-28T14:27:13.000Z</time>
      </trkpt>
      <trkpt lat="47.53494" lon="6.70612">
        <ele>437.2</ele>
        <time>2016-12-28T14:27:14.000Z</time>
      </trkpt>
      <trkpt lat="47.53492" lon="6.7061">
        <ele>437.4</ele>
        <time>2016-12-28T14:27:15.000Z</time>
      </trkpt>
      <trkpt lat="47.53487" lon="6.70608">
        <ele>437.7</ele>
        <time>2016-12-28T14:27:16.000Z</time>
      </trkpt>
      <trkpt lat="47.53482" lon="6.70606">
        <ele>437.9</ele>
        <time>2016-12-28T14:27:17.000Z</time>
      </trkpt>
      <trkpt lat="47.53478" lon="6.70604">
        <ele>438.2</ele>
        <time>2016-12-28T14:27:18.000Z</time>
      </trkpt>
      <trkpt lat="47.53473" lon="6.70603">
        <ele>438.4</ele>
        <time>2016-12-28T14:27:19.000Z</time>
      </trkpt>
      <trkpt lat="47.5347" lon="6.70603">
        <ele>438.7</ele>
        <time>2016-12-28T14:27:20.000Z</time>
      </trkpt>
      <trkpt lat="47.53466" lon="6.70602">
        <ele>438.9</ele>
        <time>2016-12-28T14:27:21.000Z</time>
      </trkpt>
      <trkpt lat="47.53465" lon="6.70603">
        <ele>439</ele>
        <time>2016-12-28T14:27:22.000Z</time>
      </trkpt>
      <trkpt lat="47.53463" lon="6.70603">
        <ele>439.1</ele>
        <time>2016-12-28T14:27:23.000Z</time>
      </trkpt>
      <trkpt lat="47.5346" lon="6.70602">
        <ele>439.2</ele>
        <time>2016-12-28T14:27:24.000Z</time>
      </trkpt>
      <trkpt lat="47.53456" lon="6.706">
        <ele>439.4</ele>
        <time>2016-12-28T14:27:26.000Z</time>
      </trkpt>
      <trkpt lat="47.53455" lon="6.706">
        <ele>439.5</ele>
        <time>2016-12-28T14:27:27.000Z</time>
      </trkpt>
      <trkpt lat="47.53453" lon="6.70598">
        <ele>439.6</ele>
        <time>2016-12-28T14:27:28.000Z</time>
      </trkpt>
      <trkpt lat="47.5345" lon="6.70595">
        <ele>439.6</ele>
        <time>2016-12-28T14:27:29.000Z</time>
      </trkpt>
      <trkpt lat="47.53447" lon="6.70591">
        <ele>439.5</ele>
        <time>2016-12-28T14:27:31.000Z</time>
      </trkpt>
      <trkpt lat="47.53446" lon="6.70589">
        <ele>439.4</ele>
        <time>2016-12-28T14:27:32.000Z</time>
      </trkpt>
      <trkpt lat="47.53444" lon="6.70585">
        <ele>439.4</ele>
        <time>2016-12-28T14:27:33.000Z</time>
      </trkpt>
      <trkpt lat="47.53442" lon="6.70581">
        <ele>439.5</ele>
        <time>2016-12-28T14:27:34.000Z</time>
      </trkpt>
      <trkpt lat="47.5344" lon="6.70576">
        <ele>439.7</ele>
        <time>2016-12-28T14:27:35.000Z</time>
      </trkpt>
      <trkpt lat="47.53438" lon="6.70573">
        <ele>439.9</ele>
        <time>2016-12-28T14:27:36.000Z</time>
      </trkpt>
      <trkpt lat="47.53435" lon="6.70569">
        <ele>440.1</ele>
        <time>2016-12-28T14:27:37.000Z</time>
      </trkpt>
      <trkpt lat="47.53432" lon="6.70566">
        <ele>440.1</ele>
        <time>2016-12-28T14:27:38.000Z</time>
      </trkpt>
      <trkpt lat="47.53429" lon="6.70561">
        <ele>440.1</ele>
        <time>2016-12-28T14:27:39.000Z</time>
      </trkpt>
      <trkpt lat="47.53426" lon="6.70557">
        <ele>440.1</ele>
        <time>2016-12-28T14:27:40.000Z</time>
      </trkpt>
      <trkpt lat="47.53426" lon="6.70555">
        <ele>440.1</ele>
        <time>2016-12-28T14:27:41.000Z</time>
      </trkpt>
      <trkpt lat="47.53422" lon="6.70556">
        <ele>441.2</ele>
        <time>2016-12-28T14:27:52.000Z</time>
      </trkpt>
      <trkpt lat="47.53421" lon="6.70556">
        <ele>441.3</ele>
        <time>2016-12-28T14:27:53.000Z</time>
      </trkpt>
      <trkpt lat="47.53416" lon="6.70554">
        <ele>441.6</ele>
        <time>2016-12-28T14:27:54.000Z</time>
      </trkpt>
      <trkpt lat="47.53412" lon="6.70551">
        <ele>442</ele>
        <time>2016-12-28T14:27:55.000Z</time>
      </trkpt>
      <trkpt lat="47.5341" lon="6.70547">
        <ele>446</ele>
        <time>2016-12-28T14:28:45.000Z</time>
      </trkpt>
      <trkpt lat="47.53408" lon="6.70546">
        <ele>446</ele>
        <time>2016-12-28T14:28:46.000Z</time>
      </trkpt>
      <trkpt lat="47.53405" lon="6.70543">
        <ele>445.6</ele>
        <time>2016-12-28T14:28:50.000Z</time>
      </trkpt>
      <trkpt lat="47.53402" lon="6.70542">
        <ele>445.6</ele>
        <time>2016-12-28T14:28:51.000Z</time>
      </trkpt>
      <trkpt lat="47.53399" lon="6.70539">
        <ele>446</ele>
        <time>2016-12-28T14:28:54.000Z</time>
      </trkpt>
      <trkpt lat="47.53397" lon="6.70538">
        <ele>446.1</ele>
        <time>2016-12-28T14:28:55.000Z</time>
      </trkpt>
      <trkpt lat="47.53395" lon="6.70536">
        <ele>446.3</ele>
        <time>2016-12-28T14:28:56.000Z</time>
      </trkpt>
      <trkpt lat="47.53389" lon="6.70531">
        <ele>446.4</ele>
        <time>2016-12-28T14:28:57.000Z</time>
      </trkpt>
      <trkpt lat="47.53386" lon="6.70529">
        <ele>446.5</ele>
        <time>2016-12-28T14:28:58.000Z</time>
      </trkpt>
      <trkpt lat="47.53381" lon="6.70526">
        <ele>446.5</ele>
        <time>2016-12-28T14:28:59.000Z</time>
      </trkpt>
      <trkpt lat="47.53378" lon="6.70524">
        <ele>446.3</ele>
        <time>2016-12-28T14:29:00.000Z</time>
      </trkpt>
      <trkpt lat="47.53376" lon="6.70521">
        <ele>446</ele>
        <time>2016-12-28T14:29:01.000Z</time>
      </trkpt>
      <trkpt lat="47.53374" lon="6.70519">
        <ele>446</ele>
        <time>2016-12-28T14:29:02.000Z</time>
      </trkpt>
      <trkpt lat="47.53371" lon="6.70516">
        <ele>446</ele>
        <time>2016-12-28T14:29:03.000Z</time>
      </trkpt>
      <trkpt lat="47.53367" lon="6.70513">
        <ele>446</ele>
        <time>2016-12-28T14:29:04.000Z</time>
      </trkpt>
      <trkpt lat="47.53365" lon="6.70511">
        <ele>446</ele>
        <time>2016-12-28T14:29:05.000Z</time>
      </trkpt>
      <trkpt lat="47.53363" lon="6.70509">
        <ele>445.9</ele>
        <time>2016-12-28T14:29:06.000Z</time>
      </trkpt>
      <trkpt lat="47.53361" lon="6.70507">
        <ele>446</ele>
        <time>2016-12-28T14:29:07.000Z</time>
      </trkpt>
      <trkpt lat="47.53358" lon="6.70506">
        <ele>446.1</ele>
        <time>2016-12-28T14:29:08.000Z</time>
      </trkpt>
      <trkpt lat="47.53355" lon="6.70503">
        <ele>446.1</ele>
        <time>2016-12-28T14:29:10.000Z</time>
      </trkpt>
      <trkpt lat="47.53352" lon="6.70501">
        <ele>446</ele>
        <time>2016-12-28T14:29:11.000Z</time>
      </trkpt>
      <trkpt lat="47.5335" lon="6.705">
        <ele>446.1</ele>
        <time>2016-12-28T14:29:12.000Z</time>
      </trkpt>
      <trkpt lat="47.53347" lon="6.70497">
        <ele>446</ele>
        <time>2016-12-28T14:29:13.000Z</time>
      </trkpt>
      <trkpt lat="47.53345" lon="6.70494">
        <ele>446</ele>
        <time>2016-12-28T14:29:14.000Z</time>
      </trkpt>
      <trkpt lat="47.53343" lon="6.70492">
        <ele>445.8</ele>
        <time>2016-12-28T14:29:15.000Z</time>
      </trkpt>
      <trkpt lat="47.5334" lon="6.70489">
        <ele>445.7</ele>
        <time>2016-12-28T14:29:16.000Z</time>
      </trkpt>
      <trkpt lat="47.53337" lon="6.70484">
        <ele>445.6</ele>
        <time>2016-12-28T14:29:17.000Z</time>
      </trkpt>
      <trkpt lat="47.53336" lon="6.70481">
        <ele>445.5</ele>
        <time>2016-12-28T14:29:18.000Z</time>
      </trkpt>
      <trkpt lat="47.53334" lon="6.70479">
        <ele>445.4</ele>
        <time>2016-12-28T14:29:19.000Z</time>
      </trkpt>
      <trkpt lat="47.53331" lon="6.70475">
        <ele>445.6</ele>
        <time>2016-12-28T14:29:23.000Z</time>
      </trkpt>
      <trkpt lat="47.5333" lon="6.70474">
        <ele>445.8</ele>
        <time>2016-12-28T14:29:24.000Z</time>
      </trkpt>
      <trkpt lat="47.53328" lon="6.7047">
        <ele>446.2</ele>
        <time>2016-12-28T14:29:25.000Z</time>
      </trkpt>
      <trkpt lat="47.53321" lon="6.70461">
        <ele>446.4</ele>
        <time>2016-12-28T14:29:26.000Z</time>
      </trkpt>
      <trkpt lat="47.53315" lon="6.70457">
        <ele>446.6</ele>
        <time>2016-12-28T14:29:27.000Z</time>
      </trkpt>
      <trkpt lat="47.53313" lon="6.70455">
        <ele>446.8</ele>
        <time>2016-12-28T14:29:28.000Z</time>
      </trkpt>
      <trkpt lat="47.53311" lon="6.70452">
        <ele>446.8</ele>
        <time>2016-12-28T14:29:29.000Z</time>
      </trkpt>
      <trkpt lat="47.53308" lon="6.70449">
        <ele>447</ele>
        <time>2016-12-28T14:29:30.000Z</time>
      </trkpt>
      <trkpt lat="47.53299" lon="6.70442">
        <ele>447.3</ele>
        <time>2016-12-28T14:29:31.000Z</time>
      </trkpt>
      <trkpt lat="47.53296" lon="6.70439">
        <ele>447.9</ele>
        <time>2016-12-28T14:29:34.000Z</time>
      </trkpt>
      <trkpt lat="47.53293" lon="6.70433">
        <ele>448.2</ele>
        <time>2016-12-28T14:29:35.000Z</time>
      </trkpt>
      <trkpt lat="47.53287" lon="6.70426">
        <ele>448.2</ele>
        <time>2016-12-28T14:29:36.000Z</time>
      </trkpt>
      <trkpt lat="47.53282" lon="6.70422">
        <ele>448.3</ele>
        <time>2016-12-28T14:29:37.000Z</time>
      </trkpt>
      <trkpt lat="47.53275" lon="6.70417">
        <ele>448.2</ele>
        <time>2016-12-28T14:29:38.000Z</time>
      </trkpt>
      <trkpt lat="47.5327" lon="6.70412">
        <ele>448.2</ele>
        <time>2016-12-28T14:29:39.000Z</time>
      </trkpt>
      <trkpt lat="47.53261" lon="6.70401">
        <ele>448.1</ele>
        <time>2016-12-28T14:29:40.000Z</time>
      </trkpt>
      <trkpt lat="47.53256" lon="6.70391">
        <ele>446.8</ele>
        <time>2016-12-28T14:29:41.000Z</time>
      </trkpt>
      <trkpt lat="47.53255" lon="6.70384">
        <ele>446.4</ele>
        <time>2016-12-28T14:29:43.000Z</time>
      </trkpt>
      <trkpt lat="47.53252" lon="6.70379">
        <ele>446.1</ele>
        <time>2016-12-28T14:29:44.000Z</time>
      </trkpt>
      <trkpt lat="47.53249" lon="6.7038">
        <ele>445.7</ele>
        <time>2016-12-28T14:29:45.000Z</time>
      </trkpt>
      <trkpt lat="47.53244" lon="6.70382">
        <ele>439.9</ele>
        <time>2016-12-28T14:29:46.000Z</time>
      </trkpt>
      <trkpt lat="47.53238" lon="6.70385">
        <ele>436.6</ele>
        <time>2016-12-28T14:29:47.000Z</time>
      </trkpt>
      <trkpt lat="47.53233" lon="6.70388">
        <ele>433</ele>
        <time>2016-12-28T14:29:48.000Z</time>
      </trkpt>
      <trkpt lat="47.53226" lon="6.70392">
        <ele>429.9</ele>
        <time>2016-12-28T14:29:49.000Z</time>
      </trkpt>
      <trkpt lat="47.5322" lon="6.70398">
        <ele>427.8</ele>
        <time>2016-12-28T14:29:50.000Z</time>
      </trkpt>
      <trkpt lat="47.53215" lon="6.70405">
        <ele>426.3</ele>
        <time>2016-12-28T14:29:51.000Z</time>
      </trkpt>
      <trkpt lat="47.53209" lon="6.70413">
        <ele>425.4</ele>
        <time>2016-12-28T14:29:52.000Z</time>
      </trkpt>
      <trkpt lat="47.53202" lon="6.70419">
        <ele>425.2</ele>
        <time>2016-12-28T14:29:53.000Z</time>
      </trkpt>
      <trkpt lat="47.53195" lon="6.70425">
        <ele>425.5</ele>
        <time>2016-12-28T14:29:54.000Z</time>
      </trkpt>
      <trkpt lat="47.53186" lon="6.70429">
        <ele>426.8</ele>
        <time>2016-12-28T14:29:55.000Z</time>
      </trkpt>
      <trkpt lat="47.53181" lon="6.70431">
        <ele>427.1</ele>
        <time>2016-12-28T14:29:56.000Z</time>
      </trkpt>
      <trkpt lat="47.53177" lon="6.70431">
        <ele>427.2</ele>
        <time>2016-12-28T14:29:57.000Z</time>
      </trkpt>
      <trkpt lat="47.53171" lon="6.70435">
        <ele>427.1</ele>
        <time>2016-12-28T14:29:58.000Z</time>
      </trkpt>
      <trkpt lat="47.53164" lon="6.70438">
        <ele>427.2</ele>
        <time>2016-12-28T14:29:59.000Z</time>
      </trkpt>
      <trkpt lat="47.5316" lon="6.7044">
        <ele>427.1</ele>
        <time>2016-12-28T14:30:00.000Z</time>
      </trkpt>
      <trkpt lat="47.53156" lon="6.70441">
        <ele>427</ele>
        <time>2016-12-28T14:30:01.000Z</time>
      </trkpt>
      <trkpt lat="47.53151" lon="6.70442">
        <ele>427</ele>
        <time>2016-12-28T14:30:02.000Z</time>
      </trkpt>
      <trkpt lat="47.53146" lon="6.70444">
        <ele>427.1</ele>
        <time>2016-12-28T14:30:03.000Z</time>
      </trkpt>
      <trkpt lat="47.53141" lon="6.70448">
        <ele>427</ele>
        <time>2016-12-28T14:30:04.000Z</time>
      </trkpt>
      <trkpt lat="47.53138" lon="6.70451">
        <ele>426.9</ele>
        <time>2016-12-28T14:30:05.000Z</time>
      </trkpt>
      <trkpt lat="47.53133" lon="6.70455">
        <ele>426.9</ele>
        <time>2016-12-28T14:30:06.000Z</time>
      </trkpt>
      <trkpt lat="47.53128" lon="6.70458">
        <ele>426.4</ele>
        <time>2016-12-28T14:30:07.000Z</time>
      </trkpt>
      <trkpt lat="47.53123" lon="6.70462">
        <ele>427</ele>
        <time>2016-12-28T14:30:08.000Z</time>
      </trkpt>
      <trkpt lat="47.53118" lon="6.70466">
        <ele>426.5</ele>
        <time>2016-12-28T14:30:09.000Z</time>
      </trkpt>
      <trkpt lat="47.53113" lon="6.7047">
        <ele>425</ele>
        <time>2016-12-28T14:30:10.000Z</time>
      </trkpt>
      <trkpt lat="47.53106" lon="6.70475">
        <ele>423.2</ele>
        <time>2016-12-28T14:30:11.000Z</time>
      </trkpt>
      <trkpt lat="47.53098" lon="6.70481">
        <ele>420.3</ele>
        <time>2016-12-28T14:30:12.000Z</time>
      </trkpt>
      <trkpt lat="47.53091" lon="6.70485">
        <ele>418.3</ele>
        <time>2016-12-28T14:30:13.000Z</time>
      </trkpt>
      <trkpt lat="47.53085" lon="6.7049">
        <ele>417.6</ele>
        <time>2016-12-28T14:30:14.000Z</time>
      </trkpt>
      <trkpt lat="47.5308" lon="6.70491">
        <ele>416.9</ele>
        <time>2016-12-28T14:30:15.000Z</time>
      </trkpt>
      <trkpt lat="47.53073" lon="6.70493">
        <ele>416.5</ele>
        <time>2016-12-28T14:30:16.000Z</time>
      </trkpt>
      <trkpt lat="47.53067" lon="6.70493">
        <ele>416.3</ele>
        <time>2016-12-28T14:30:17.000Z</time>
      </trkpt>
      <trkpt lat="47.53061" lon="6.7049">
        <ele>414.6</ele>
        <time>2016-12-28T14:30:18.000Z</time>
      </trkpt>
      <trkpt lat="47.53056" lon="6.70488">
        <ele>413.2</ele>
        <time>2016-12-28T14:30:19.000Z</time>
      </trkpt>
      <trkpt lat="47.5305" lon="6.70487">
        <ele>413.2</ele>
        <time>2016-12-28T14:30:20.000Z</time>
      </trkpt>
      <trkpt lat="47.53041" lon="6.70484">
        <ele>413.7</ele>
        <time>2016-12-28T14:30:21.000Z</time>
      </trkpt>
      <trkpt lat="47.53033" lon="6.70481">
        <ele>414.3</ele>
        <time>2016-12-28T14:30:22.000Z</time>
      </trkpt>
      <trkpt lat="47.53026" lon="6.70477">
        <ele>415.2</ele>
        <time>2016-12-28T14:30:23.000Z</time>
      </trkpt>
      <trkpt lat="47.53017" lon="6.70474">
        <ele>416.2</ele>
        <time>2016-12-28T14:30:24.000Z</time>
      </trkpt>
      <trkpt lat="47.53009" lon="6.70471">
        <ele>416.6</ele>
        <time>2016-12-28T14:30:25.000Z</time>
      </trkpt>
      <trkpt lat="47.53001" lon="6.70467">
        <ele>415.6</ele>
        <time>2016-12-28T14:30:26.000Z</time>
      </trkpt>
      <trkpt lat="47.5299" lon="6.70463">
        <ele>415.3</ele>
        <time>2016-12-28T14:30:27.000Z</time>
      </trkpt>
      <trkpt lat="47.52981" lon="6.7046">
        <ele>414.9</ele>
        <time>2016-12-28T14:30:28.000Z</time>
      </trkpt>
      <trkpt lat="47.52974" lon="6.70457">
        <ele>414</ele>
        <time>2016-12-28T14:30:29.000Z</time>
      </trkpt>
      <trkpt lat="47.52968" lon="6.70455">
        <ele>412.3</ele>
        <time>2016-12-28T14:30:30.000Z</time>
      </trkpt>
      <trkpt lat="47.52961" lon="6.70456">
        <ele>410.7</ele>
        <time>2016-12-28T14:30:31.000Z</time>
      </trkpt>
      <trkpt lat="47.52953" lon="6.70456">
        <ele>409.7</ele>
        <time>2016-12-28T14:30:32.000Z</time>
      </trkpt>
      <trkpt lat="47.52946" lon="6.70454">
        <ele>407.3</ele>
        <time>2016-12-28T14:30:33.000Z</time>
      </trkpt>
      <trkpt lat="47.52939" lon="6.70453">
        <ele>405</ele>
        <time>2016-12-28T14:30:34.000Z</time>
      </trkpt>
      <trkpt lat="47.52931" lon="6.70452">
        <ele>403.8</ele>
        <time>2016-12-28T14:30:35.000Z</time>
      </trkpt>
      <trkpt lat="47.52924" lon="6.7045">
        <ele>401.6</ele>
        <time>2016-12-28T14:30:36.000Z</time>
      </trkpt>
      <trkpt lat="47.52917" lon="6.70449">
        <ele>400.1</ele>
        <time>2016-12-28T14:30:37.000Z</time>
      </trkpt>
      <trkpt lat="47.52912" lon="6.70447">
        <ele>400</ele>
        <time>2016-12-28T14:30:38.000Z</time>
      </trkpt>
      <trkpt lat="47.52905" lon="6.70446">
        <ele>400</ele>
        <time>2016-12-28T14:30:39.000Z</time>
      </trkpt>
      <trkpt lat="47.52895" lon="6.70445">
        <ele>399.9</ele>
        <time>2016-12-28T14:30:40.000Z</time>
      </trkpt>
      <trkpt lat="47.52887" lon="6.70445">
        <ele>399.8</ele>
        <time>2016-12-28T14:30:41.000Z</time>
      </trkpt>
      <trkpt lat="47.5288" lon="6.70444">
        <ele>399.6</ele>
        <time>2016-12-28T14:30:42.000Z</time>
      </trkpt>
      <trkpt lat="47.52874" lon="6.70442">
        <ele>399.4</ele>
        <time>2016-12-28T14:30:43.000Z</time>
      </trkpt>
      <trkpt lat="47.52871" lon="6.70441">
        <ele>399.3</ele>
        <time>2016-12-28T14:30:44.000Z</time>
      </trkpt>
      <trkpt lat="47.52867" lon="6.70441">
        <ele>399.1</ele>
        <time>2016-12-28T14:30:45.000Z</time>
      </trkpt>
      <trkpt lat="47.52867" lon="6.70441">
        <ele>398.6</ele>
        <time>2016-12-28T14:30:48.000Z</time>
      </trkpt>
      <trkpt lat="47.52843" lon="6.70438">
        <ele>398.5</ele>
        <time>2016-12-28T14:30:49.000Z</time>
      </trkpt>
      <trkpt lat="47.52843" lon="6.70438">
        <ele>398.4</ele>
        <time>2016-12-28T14:30:50.000Z</time>
      </trkpt>
      <trkpt lat="47.52827" lon="6.70437">
        <ele>398.2</ele>
        <time>2016-12-28T14:30:51.000Z</time>
      </trkpt>
      <trkpt lat="47.52827" lon="6.70437">
        <ele>396.9</ele>
        <time>2016-12-28T14:30:57.000Z</time>
      </trkpt>
      <trkpt lat="47.52829" lon="6.70459">
        <ele>396.9</ele>
        <time>2016-12-28T14:30:58.000Z</time>
      </trkpt>
      <trkpt lat="47.52829" lon="6.70459">
        <ele>397.2</ele>
        <time>2016-12-28T14:31:01.000Z</time>
      </trkpt>
      <trkpt lat="47.52832" lon="6.70471">
        <ele>397.2</ele>
        <time>2016-12-28T14:31:02.000Z</time>
      </trkpt>
      <trkpt lat="47.52834" lon="6.70477">
        <ele>397.4</ele>
        <time>2016-12-28T14:31:04.000Z</time>
      </trkpt>
      <trkpt lat="47.52834" lon="6.70479">
        <ele>397.5</ele>
        <time>2016-12-28T14:31:05.000Z</time>
      </trkpt>
      <trkpt lat="47.52836" lon="6.70485">
        <ele>397.6</ele>
        <time>2016-12-28T14:31:07.000Z</time>
      </trkpt>
      <trkpt lat="47.52837" lon="6.70487">
        <ele>397.7</ele>
        <time>2016-12-28T14:31:08.000Z</time>
      </trkpt>
      <trkpt lat="47.52838" lon="6.70489">
        <ele>397.7</ele>
        <time>2016-12-28T14:31:13.000Z</time>
      </trkpt>
      <trkpt lat="47.52842" lon="6.70504">
        <ele>397.7</ele>
        <time>2016-12-28T14:31:14.000Z</time>
      </trkpt>
      <trkpt lat="47.52843" lon="6.7051">
        <ele>397.9</ele>
        <time>2016-12-28T14:31:16.000Z</time>
      </trkpt>
      <trkpt lat="47.52844" lon="6.70512">
        <ele>398</ele>
        <time>2016-12-28T14:31:17.000Z</time>
      </trkpt>
      <trkpt lat="47.52843" lon="6.7052">
        <ele>398</ele>
        <time>2016-12-28T14:31:18.000Z</time>
      </trkpt>
      <trkpt lat="47.52843" lon="6.70527">
        <ele>398.2</ele>
        <time>2016-12-28T14:31:19.000Z</time>
      </trkpt>
      <trkpt lat="47.52844" lon="6.70531">
        <ele>398.4</ele>
        <time>2016-12-28T14:31:20.000Z</time>
      </trkpt>
      <trkpt lat="47.52846" lon="6.70537">
        <ele>398.3</ele>
        <time>2016-12-28T14:31:21.000Z</time>
      </trkpt>
      <trkpt lat="47.52847" lon="6.70543">
        <ele>398.3</ele>
        <time>2016-12-28T14:31:22.000Z</time>
      </trkpt>
      <trkpt lat="47.52847" lon="6.70549">
        <ele>398.3</ele>
        <time>2016-12-28T14:31:23.000Z</time>
      </trkpt>
      <trkpt lat="47.52849" lon="6.70555">
        <ele>398.2</ele>
        <time>2016-12-28T14:31:25.000Z</time>
      </trkpt>
      <trkpt lat="47.52849" lon="6.70558">
        <ele>398.1</ele>
        <time>2016-12-28T14:31:26.000Z</time>
      </trkpt>
      <trkpt lat="47.5285" lon="6.70562">
        <ele>397.8</ele>
        <time>2016-12-28T14:31:27.000Z</time>
      </trkpt>
      <trkpt lat="47.5285" lon="6.70567">
        <ele>397.6</ele>
        <time>2016-12-28T14:31:28.000Z</time>
      </trkpt>
      <trkpt lat="47.5285" lon="6.7057">
        <ele>397.2</ele>
        <time>2016-12-28T14:31:29.000Z</time>
      </trkpt>
      <trkpt lat="47.52851" lon="6.70574">
        <ele>396.8</ele>
        <time>2016-12-28T14:31:30.000Z</time>
      </trkpt>
      <trkpt lat="47.52851" lon="6.70578">
        <ele>396.4</ele>
        <time>2016-12-28T14:31:31.000Z</time>
      </trkpt>
      <trkpt lat="47.52851" lon="6.70582">
        <ele>396</ele>
        <time>2016-12-28T14:31:32.000Z</time>
      </trkpt>
      <trkpt lat="47.52847" lon="6.70585">
        <ele>395.8</ele>
        <time>2016-12-28T14:31:33.000Z</time>
      </trkpt>
      <trkpt lat="47.52842" lon="6.70588">
        <ele>395.7</ele>
        <time>2016-12-28T14:31:34.000Z</time>
      </trkpt>
      <trkpt lat="47.52838" lon="6.70588">
        <ele>395.5</ele>
        <time>2016-12-28T14:31:35.000Z</time>
      </trkpt>
      <trkpt lat="47.52828" lon="6.70589">
        <ele>395.4</ele>
        <time>2016-12-28T14:31:36.000Z</time>
      </trkpt>
      <trkpt lat="47.5282" lon="6.7059">
        <ele>395.5</ele>
        <time>2016-12-28T14:31:37.000Z</time>
      </trkpt>
      <trkpt lat="47.52815" lon="6.70589">
        <ele>395.6</ele>
        <time>2016-12-28T14:31:38.000Z</time>
      </trkpt>
      <trkpt lat="47.52811" lon="6.70585">
        <ele>395.6</ele>
        <time>2016-12-28T14:31:39.000Z</time>
      </trkpt>
      <trkpt lat="47.52804" lon="6.70578">
        <ele>396.6</ele>
        <time>2016-12-28T14:31:40.000Z</time>
      </trkpt>
      <trkpt lat="47.52802" lon="6.70569">
        <ele>395.6</ele>
        <time>2016-12-28T14:31:41.000Z</time>
      </trkpt>
      <trkpt lat="47.528" lon="6.70564">
        <ele>395.6</ele>
        <time>2016-12-28T14:31:42.000Z</time>
      </trkpt>
      <trkpt lat="47.52797" lon="6.70561">
        <ele>395.5</ele>
        <time>2016-12-28T14:31:43.000Z</time>
      </trkpt>
      <trkpt lat="47.52793" lon="6.70559">
        <ele>395.5</ele>
        <time>2016-12-28T14:31:44.000Z</time>
      </trkpt>
      <trkpt lat="47.52792" lon="6.70557">
        <ele>395.5</ele>
        <time>2016-12-28T14:31:45.000Z</time>
      </trkpt>
      <trkpt lat="47.5279" lon="6.70557">
        <ele>395.4</ele>
        <time>2016-12-28T14:31:46.000Z</time>
      </trkpt>
      <trkpt lat="47.52787" lon="6.70557">
        <ele>395.3</ele>
        <time>2016-12-28T14:31:47.000Z</time>
      </trkpt>
      <trkpt lat="47.52784" lon="6.70557">
        <ele>395.2</ele>
        <time>2016-12-28T14:31:48.000Z</time>
      </trkpt>
      <trkpt lat="47.52782" lon="6.70557">
        <ele>395</ele>
        <time>2016-12-28T14:31:49.000Z</time>
      </trkpt>
      <trkpt lat="47.52781" lon="6.70561">
        <ele>394.6</ele>
        <time>2016-12-28T14:31:51.000Z</time>
      </trkpt>
      <trkpt lat="47.52783" lon="6.70565">
        <ele>394.3</ele>
        <time>2016-12-28T14:31:52.000Z</time>
      </trkpt>
      <trkpt lat="47.52784" lon="6.70568">
        <ele>394</ele>
        <time>2016-12-28T14:31:53.000Z</time>
      </trkpt>
      <trkpt lat="47.52788" lon="6.70577">
        <ele>393.7</ele>
        <time>2016-12-28T14:31:54.000Z</time>
      </trkpt>
      <trkpt lat="47.52789" lon="6.70582">
        <ele>393.4</ele>
        <time>2016-12-28T14:31:55.000Z</time>
      </trkpt>
      <trkpt lat="47.52789" lon="6.70584">
        <ele>393.2</ele>
        <time>2016-12-28T14:31:56.000Z</time>
      </trkpt>
      <trkpt lat="47.52787" lon="6.7059">
        <ele>392.9</ele>
        <time>2016-12-28T14:31:58.000Z</time>
      </trkpt>
      <trkpt lat="47.52786" lon="6.70592">
        <ele>392.6</ele>
        <time>2016-12-28T14:31:59.000Z</time>
      </trkpt>
      <trkpt lat="47.52785" lon="6.70593">
        <ele>391.8</ele>
        <time>2016-12-28T14:32:03.000Z</time>
      </trkpt>
      <trkpt lat="47.52778" lon="6.70594">
        <ele>391.8</ele>
        <time>2016-12-28T14:32:04.000Z</time>
      </trkpt>
      <trkpt lat="47.52774" lon="6.70593">
        <ele>391.7</ele>
        <time>2016-12-28T14:32:05.000Z</time>
      </trkpt>
      <trkpt lat="47.52772" lon="6.70592">
        <ele>391.7</ele>
        <time>2016-12-28T14:32:06.000Z</time>
      </trkpt>
      <trkpt lat="47.52769" lon="6.70588">
        <ele>393.6</ele>
        <time>2016-12-28T14:32:25.000Z</time>
      </trkpt>
      <trkpt lat="47.52758" lon="6.7059">
        <ele>393.9</ele>
        <time>2016-12-28T14:32:26.000Z</time>
      </trkpt>
      <trkpt lat="47.52756" lon="6.7059">
        <ele>394.1</ele>
        <time>2016-12-28T14:32:27.000Z</time>
      </trkpt>
      <trkpt lat="47.52753" lon="6.70589">
        <ele>394.3</ele>
        <time>2016-12-28T14:32:28.000Z</time>
      </trkpt>
      <trkpt lat="47.52751" lon="6.7059">
        <ele>394.3</ele>
        <time>2016-12-28T14:32:29.000Z</time>
      </trkpt>
      <trkpt lat="47.52748" lon="6.7059">
        <ele>394.3</ele>
        <time>2016-12-28T14:32:30.000Z</time>
      </trkpt>
      <trkpt lat="47.52747" lon="6.70595">
        <ele>394.4</ele>
        <time>2016-12-28T14:32:32.000Z</time>
      </trkpt>
      <trkpt lat="47.52747" lon="6.70599">
        <ele>394.4</ele>
        <time>2016-12-28T14:32:33.000Z</time>
      </trkpt>
      <trkpt lat="47.52747" lon="6.70605">
        <ele>394.3</ele>
        <time>2016-12-28T14:32:34.000Z</time>
      </trkpt>
      <trkpt lat="47.52746" lon="6.7061">
        <ele>394.4</ele>
        <time>2016-12-28T14:32:35.000Z</time>
      </trkpt>
      <trkpt lat="47.52746" lon="6.7061">
        <ele>394.5</ele>
        <time>2016-12-28T14:32:36.000Z</time>
      </trkpt>
      <trkpt lat="47.52743" lon="6.70637">
        <ele>394.6</ele>
        <time>2016-12-28T14:32:37.000Z</time>
      </trkpt>
      <trkpt lat="47.52743" lon="6.70637">
        <ele>395</ele>
        <time>2016-12-28T14:32:41.000Z</time>
      </trkpt>
      <trkpt lat="47.52746" lon="6.70663">
        <ele>395.2</ele>
        <time>2016-12-28T14:32:42.000Z</time>
      </trkpt>
      <trkpt lat="47.52746" lon="6.70663">
        <ele>395.8</ele>
        <time>2016-12-28T14:32:46.000Z</time>
      </trkpt>
      <trkpt lat="47.52753" lon="6.70687">
        <ele>395.7</ele>
        <time>2016-12-28T14:32:47.000Z</time>
      </trkpt>
      <trkpt lat="47.52753" lon="6.70687">
        <ele>395.6</ele>
        <time>2016-12-28T14:32:49.000Z</time>
      </trkpt>
      <trkpt lat="47.52751" lon="6.70702">
        <ele>395.6</ele>
        <time>2016-12-28T14:32:50.000Z</time>
      </trkpt>
      <trkpt lat="47.52751" lon="6.70702">
        <ele>395.6</ele>
        <time>2016-12-28T14:32:52.000Z</time>
      </trkpt>
      <trkpt lat="47.52749" lon="6.70717">
        <ele>395.6</ele>
        <time>2016-12-28T14:32:53.000Z</time>
      </trkpt>
      <trkpt lat="47.52749" lon="6.70717">
        <ele>395.6</ele>
        <time>2016-12-28T14:32:54.000Z</time>
      </trkpt>
      <trkpt lat="47.5275" lon="6.70727">
        <ele>395.6</ele>
        <time>2016-12-28T14:32:55.000Z</time>
      </trkpt>
      <trkpt lat="47.52749" lon="6.70733">
        <ele>395.5</ele>
        <time>2016-12-28T14:33:02.000Z</time>
      </trkpt>
      <trkpt lat="47.52743" lon="6.70759">
        <ele>395.7</ele>
        <time>2016-12-28T14:33:03.000Z</time>
      </trkpt>
      <trkpt lat="47.52743" lon="6.70759">
        <ele>396</ele>
        <time>2016-12-28T14:33:08.000Z</time>
      </trkpt>
      <trkpt lat="47.52739" lon="6.70781">
        <ele>396.1</ele>
        <time>2016-12-28T14:33:09.000Z</time>
      </trkpt>
      <trkpt lat="47.52739" lon="6.70786">
        <ele>396</ele>
        <time>2016-12-28T14:33:10.000Z</time>
      </trkpt>
      <trkpt lat="47.52739" lon="6.70789">
        <ele>395.9</ele>
        <time>2016-12-28T14:33:11.000Z</time>
      </trkpt>
      <trkpt lat="47.52739" lon="6.70798">
        <ele>395.9</ele>
        <time>2016-12-28T14:33:12.000Z</time>
      </trkpt>
      <trkpt lat="47.5274" lon="6.70804">
        <ele>396</ele>
        <time>2016-12-28T14:33:13.000Z</time>
      </trkpt>
      <trkpt lat="47.52739" lon="6.70808">
        <ele>396</ele>
        <time>2016-12-28T14:33:14.000Z</time>
      </trkpt>
      <trkpt lat="47.52738" lon="6.70814">
        <ele>396.1</ele>
        <time>2016-12-28T14:33:15.000Z</time>
      </trkpt>
      <trkpt lat="47.52737" lon="6.70818">
        <ele>396.2</ele>
        <time>2016-12-28T14:33:16.000Z</time>
      </trkpt>
      <trkpt lat="47.52736" lon="6.70822">
        <ele>396.2</ele>
        <time>2016-12-28T14:33:17.000Z</time>
      </trkpt>
      <trkpt lat="47.52736" lon="6.70826">
        <ele>396.3</ele>
        <time>2016-12-28T14:33:22.000Z</time>
      </trkpt>
      <trkpt lat="47.52729" lon="6.7085">
        <ele>396.3</ele>
        <time>2016-12-28T14:33:23.000Z</time>
      </trkpt>
      <trkpt lat="47.52729" lon="6.7085">
        <ele>396.3</ele>
        <time>2016-12-28T14:33:26.000Z</time>
      </trkpt>
      <trkpt lat="47.5273" lon="6.7087">
        <ele>396.2</ele>
        <time>2016-12-28T14:33:27.000Z</time>
      </trkpt>
      <trkpt lat="47.52729" lon="6.70873">
        <ele>396</ele>
        <time>2016-12-28T14:33:28.000Z</time>
      </trkpt>
      <trkpt lat="47.52728" lon="6.7088">
        <ele>395.8</ele>
        <time>2016-12-28T14:33:29.000Z</time>
      </trkpt>
      <trkpt lat="47.52728" lon="6.70885">
        <ele>395.7</ele>
        <time>2016-12-28T14:33:30.000Z</time>
      </trkpt>
      <trkpt lat="47.52728" lon="6.70889">
        <ele>395.6</ele>
        <time>2016-12-28T14:33:31.000Z</time>
      </trkpt>
      <trkpt lat="47.52729" lon="6.70893">
        <ele>395.5</ele>
        <time>2016-12-28T14:33:32.000Z</time>
      </trkpt>
      <trkpt lat="47.52728" lon="6.70897">
        <ele>395.4</ele>
        <time>2016-12-28T14:33:33.000Z</time>
      </trkpt>
      <trkpt lat="47.52727" lon="6.709">
        <ele>395.3</ele>
        <time>2016-12-28T14:33:34.000Z</time>
      </trkpt>
      <trkpt lat="47.52726" lon="6.70903">
        <ele>395.1</ele>
        <time>2016-12-28T14:33:35.000Z</time>
      </trkpt>
      <trkpt lat="47.52725" lon="6.70908">
        <ele>395</ele>
        <time>2016-12-28T14:33:36.000Z</time>
      </trkpt>
      <trkpt lat="47.52724" lon="6.70913">
        <ele>394.9</ele>
        <time>2016-12-28T14:33:37.000Z</time>
      </trkpt>
      <trkpt lat="47.52723" lon="6.70921">
        <ele>394.8</ele>
        <time>2016-12-28T14:33:38.000Z</time>
      </trkpt>
      <trkpt lat="47.52722" lon="6.70927">
        <ele>394.6</ele>
        <time>2016-12-28T14:33:39.000Z</time>
      </trkpt>
      <trkpt lat="47.52723" lon="6.70935">
        <ele>394.5</ele>
        <time>2016-12-28T14:33:40.000Z</time>
      </trkpt>
      <trkpt lat="47.52723" lon="6.7094">
        <ele>394.2</ele>
        <time>2016-12-28T14:33:41.000Z</time>
      </trkpt>
      <trkpt lat="47.52723" lon="6.70944">
        <ele>393.9</ele>
        <time>2016-12-28T14:33:42.000Z</time>
      </trkpt>
      <trkpt lat="47.52723" lon="6.70944">
        <ele>393.2</ele>
        <time>2016-12-28T14:33:48.000Z</time>
      </trkpt>
      <trkpt lat="47.52726" lon="6.70971">
        <ele>393.1</ele>
        <time>2016-12-28T14:33:49.000Z</time>
      </trkpt>
      <trkpt lat="47.52726" lon="6.70982">
        <ele>393</ele>
        <time>2016-12-28T14:33:50.000Z</time>
      </trkpt>
      <trkpt lat="47.52726" lon="6.70988">
        <ele>393.1</ele>
        <time>2016-12-28T14:33:51.000Z</time>
      </trkpt>
      <trkpt lat="47.52726" lon="6.70994">
        <ele>393.2</ele>
        <time>2016-12-28T14:33:52.000Z</time>
      </trkpt>
      <trkpt lat="47.52727" lon="6.70999">
        <ele>393.4</ele>
        <time>2016-12-28T14:33:53.000Z</time>
      </trkpt>
      <trkpt lat="47.52729" lon="6.71006">
        <ele>393.6</ele>
        <time>2016-12-28T14:33:54.000Z</time>
      </trkpt>
      <trkpt lat="47.5273" lon="6.71012">
        <ele>393.8</ele>
        <time>2016-12-28T14:33:55.000Z</time>
      </trkpt>
      <trkpt lat="47.52733" lon="6.71016">
        <ele>394.1</ele>
        <time>2016-12-28T14:33:56.000Z</time>
      </trkpt>
      <trkpt lat="47.52735" lon="6.71019">
        <ele>394.2</ele>
        <time>2016-12-28T14:33:57.000Z</time>
      </trkpt>
      <trkpt lat="47.52738" lon="6.71022">
        <ele>394.3</ele>
        <time>2016-12-28T14:33:58.000Z</time>
      </trkpt>
      <trkpt lat="47.5274" lon="6.71025">
        <ele>394.3</ele>
        <time>2016-12-28T14:33:59.000Z</time>
      </trkpt>
      <trkpt lat="47.52742" lon="6.7103">
        <ele>394.2</ele>
        <time>2016-12-28T14:34:00.000Z</time>
      </trkpt>
      <trkpt lat="47.52744" lon="6.71034">
        <ele>394.2</ele>
        <time>2016-12-28T14:34:01.000Z</time>
      </trkpt>
      <trkpt lat="47.52746" lon="6.71039">
        <ele>394.1</ele>
        <time>2016-12-28T14:34:02.000Z</time>
      </trkpt>
      <trkpt lat="47.52747" lon="6.71044">
        <ele>394.1</ele>
        <time>2016-12-28T14:34:03.000Z</time>
      </trkpt>
      <trkpt lat="47.52747" lon="6.71047">
        <ele>394.1</ele>
        <time>2016-12-28T14:34:04.000Z</time>
      </trkpt>
      <trkpt lat="47.52747" lon="6.71051">
        <ele>394</ele>
        <time>2016-12-28T14:34:05.000Z</time>
      </trkpt>
      <trkpt lat="47.52747" lon="6.71053">
        <ele>393.7</ele>
        <time>2016-12-28T14:34:06.000Z</time>
      </trkpt>
      <trkpt lat="47.52746" lon="6.71057">
        <ele>393.5</ele>
        <time>2016-12-28T14:34:07.000Z</time>
      </trkpt>
      <trkpt lat="47.52746" lon="6.71061">
        <ele>393.3</ele>
        <time>2016-12-28T14:34:08.000Z</time>
      </trkpt>
      <trkpt lat="47.52745" lon="6.71065">
        <ele>393.1</ele>
        <time>2016-12-28T14:34:09.000Z</time>
      </trkpt>
      <trkpt lat="47.52744" lon="6.71069">
        <ele>392.9</ele>
        <time>2016-12-28T14:34:10.000Z</time>
      </trkpt>
      <trkpt lat="47.52744" lon="6.71074">
        <ele>392.7</ele>
        <time>2016-12-28T14:34:11.000Z</time>
      </trkpt>
      <trkpt lat="47.52743" lon="6.71078">
        <ele>392.6</ele>
        <time>2016-12-28T14:34:12.000Z</time>
      </trkpt>
      <trkpt lat="47.52743" lon="6.71081">
        <ele>392.4</ele>
        <time>2016-12-28T14:34:13.000Z</time>
      </trkpt>
      <trkpt lat="47.52743" lon="6.71084">
        <ele>392.2</ele>
        <time>2016-12-28T14:34:14.000Z</time>
      </trkpt>
      <trkpt lat="47.52743" lon="6.71088">
        <ele>392.1</ele>
        <time>2016-12-28T14:34:15.000Z</time>
      </trkpt>
      <trkpt lat="47.52744" lon="6.71095">
        <ele>392</ele>
        <time>2016-12-28T14:34:16.000Z</time>
      </trkpt>
      <trkpt lat="47.52744" lon="6.711">
        <ele>392</ele>
        <time>2016-12-28T14:34:17.000Z</time>
      </trkpt>
      <trkpt lat="47.52744" lon="6.71103">
        <ele>391.9</ele>
        <time>2016-12-28T14:34:18.000Z</time>
      </trkpt>
      <trkpt lat="47.52745" lon="6.71108">
        <ele>391.7</ele>
        <time>2016-12-28T14:34:20.000Z</time>
      </trkpt>
      <trkpt lat="47.52745" lon="6.71111">
        <ele>391.6</ele>
        <time>2016-12-28T14:34:21.000Z</time>
      </trkpt>
      <trkpt lat="47.52746" lon="6.71117">
        <ele>391.6</ele>
        <time>2016-12-28T14:34:23.000Z</time>
      </trkpt>
      <trkpt lat="47.52746" lon="6.7112">
        <ele>391.7</ele>
        <time>2016-12-28T14:34:24.000Z</time>
      </trkpt>
      <trkpt lat="47.52746" lon="6.71125">
        <ele>394.7</ele>
        <time>2016-12-28T14:34:39.000Z</time>
      </trkpt>
      <trkpt lat="47.52739" lon="6.71159">
        <ele>395</ele>
        <time>2016-12-28T14:34:40.000Z</time>
      </trkpt>
      <trkpt lat="47.52739" lon="6.71159">
        <ele>397.9</ele>
        <time>2016-12-28T14:34:48.000Z</time>
      </trkpt>
      <trkpt lat="47.52734" lon="6.71179">
        <ele>398.1</ele>
        <time>2016-12-28T14:34:49.000Z</time>
      </trkpt>
      <trkpt lat="47.52734" lon="6.71179">
        <ele>399.3</ele>
        <time>2016-12-28T14:34:54.000Z</time>
      </trkpt>
      <trkpt lat="47.52723" lon="6.71186">
        <ele>399.5</ele>
        <time>2016-12-28T14:34:55.000Z</time>
      </trkpt>
      <trkpt lat="47.52719" lon="6.71188">
        <ele>400</ele>
        <time>2016-12-28T14:34:57.000Z</time>
      </trkpt>
      <trkpt lat="47.52718" lon="6.71189">
        <ele>400.2</ele>
        <time>2016-12-28T14:34:58.000Z</time>
      </trkpt>
      <trkpt lat="47.52714" lon="6.71191">
        <ele>400.4</ele>
        <time>2016-12-28T14:35:00.000Z</time>
      </trkpt>
      <trkpt lat="47.52713" lon="6.71192">
        <ele>400.6</ele>
        <time>2016-12-28T14:35:01.000Z</time>
      </trkpt>
      <trkpt lat="47.5271" lon="6.71194">
        <ele>400.7</ele>
        <time>2016-12-28T14:35:03.000Z</time>
      </trkpt>
      <trkpt lat="47.52709" lon="6.71197">
        <ele>400.7</ele>
        <time>2016-12-28T14:35:04.000Z</time>
      </trkpt>
      <trkpt lat="47.52706" lon="6.71201">
        <ele>400.3</ele>
        <time>2016-12-28T14:35:06.000Z</time>
      </trkpt>
      <trkpt lat="47.52705" lon="6.71202">
        <ele>400.1</ele>
        <time>2016-12-28T14:35:07.000Z</time>
      </trkpt>
      <trkpt lat="47.52703" lon="6.71207">
        <ele>399.9</ele>
        <time>2016-12-28T14:35:09.000Z</time>
      </trkpt>
      <trkpt lat="47.52702" lon="6.7121">
        <ele>399.8</ele>
        <time>2016-12-28T14:35:10.000Z</time>
      </trkpt>
      <trkpt lat="47.527" lon="6.71217">
        <ele>399.1</ele>
        <time>2016-12-28T14:35:11.000Z</time>
      </trkpt>
      <trkpt lat="47.527" lon="6.71226">
        <ele>399.1</ele>
        <time>2016-12-28T14:35:12.000Z</time>
      </trkpt>
      <trkpt lat="47.52702" lon="6.71234">
        <ele>398.6</ele>
        <time>2016-12-28T14:35:13.000Z</time>
      </trkpt>
      <trkpt lat="47.52704" lon="6.71246">
        <ele>398.7</ele>
        <time>2016-12-28T14:35:14.000Z</time>
      </trkpt>
      <trkpt lat="47.52706" lon="6.71255">
        <ele>398.7</ele>
        <time>2016-12-28T14:35:15.000Z</time>
      </trkpt>
      <trkpt lat="47.52707" lon="6.71262">
        <ele>398.7</ele>
        <time>2016-12-28T14:35:16.000Z</time>
      </trkpt>
      <trkpt lat="47.52708" lon="6.71268">
        <ele>398.8</ele>
        <time>2016-12-28T14:35:17.000Z</time>
      </trkpt>
      <trkpt lat="47.52708" lon="6.71273">
        <ele>398.9</ele>
        <time>2016-12-28T14:35:18.000Z</time>
      </trkpt>
      <trkpt lat="47.52708" lon="6.71278">
        <ele>399</ele>
        <time>2016-12-28T14:35:19.000Z</time>
      </trkpt>
      <trkpt lat="47.52708" lon="6.71282">
        <ele>399.2</ele>
        <time>2016-12-28T14:35:20.000Z</time>
      </trkpt>
      <trkpt lat="47.52707" lon="6.71288">
        <ele>399.5</ele>
        <time>2016-12-28T14:35:22.000Z</time>
      </trkpt>
      <trkpt lat="47.52706" lon="6.71288">
        <ele>399.6</ele>
        <time>2016-12-28T14:35:23.000Z</time>
      </trkpt>
      <trkpt lat="47.52704" lon="6.71289">
        <ele>399.7</ele>
        <time>2016-12-28T14:35:24.000Z</time>
      </trkpt>
      <trkpt lat="47.527" lon="6.71289">
        <ele>399.7</ele>
        <time>2016-12-28T14:35:25.000Z</time>
      </trkpt>
      <trkpt lat="47.52698" lon="6.71289">
        <ele>399.6</ele>
        <time>2016-12-28T14:35:26.000Z</time>
      </trkpt>
      <trkpt lat="47.52695" lon="6.71287">
        <ele>399.6</ele>
        <time>2016-12-28T14:35:27.000Z</time>
      </trkpt>
      <trkpt lat="47.52695" lon="6.71287">
        <ele>399.4</ele>
        <time>2016-12-28T14:35:32.000Z</time>
      </trkpt>
      <trkpt lat="47.52678" lon="6.71281">
        <ele>399.4</ele>
        <time>2016-12-28T14:35:33.000Z</time>
      </trkpt>
      <trkpt lat="47.52678" lon="6.71281">
        <ele>399.6</ele>
        <time>2016-12-28T14:35:36.000Z</time>
      </trkpt>
      <trkpt lat="47.52668" lon="6.7128">
        <ele>399.6</ele>
        <time>2016-12-28T14:35:37.000Z</time>
      </trkpt>
      <trkpt lat="47.52665" lon="6.71279">
        <ele>399.5</ele>
        <time>2016-12-28T14:35:38.000Z</time>
      </trkpt>
      <trkpt lat="47.52663" lon="6.71279">
        <ele>399.5</ele>
        <time>2016-12-28T14:35:39.000Z</time>
      </trkpt>
      <trkpt lat="47.5266" lon="6.71279">
        <ele>399.4</ele>
        <time>2016-12-28T14:35:40.000Z</time>
      </trkpt>
      <trkpt lat="47.52657" lon="6.71279">
        <ele>399.4</ele>
        <time>2016-12-28T14:35:41.000Z</time>
      </trkpt>
      <trkpt lat="47.52653" lon="6.71278">
        <ele>399.4</ele>
        <time>2016-12-28T14:35:43.000Z</time>
      </trkpt>
      <trkpt lat="47.52651" lon="6.71278">
        <ele>399.3</ele>
        <time>2016-12-28T14:35:44.000Z</time>
      </trkpt>
      <trkpt lat="47.52648" lon="6.71277">
        <ele>399.4</ele>
        <time>2016-12-28T14:35:45.000Z</time>
      </trkpt>
      <trkpt lat="47.52646" lon="6.71276">
        <ele>399.3</ele>
        <time>2016-12-28T14:35:46.000Z</time>
      </trkpt>
      <trkpt lat="47.52643" lon="6.71275">
        <ele>399.1</ele>
        <time>2016-12-28T14:35:48.000Z</time>
      </trkpt>
      <trkpt lat="47.52641" lon="6.71274">
        <ele>399</ele>
        <time>2016-12-28T14:35:49.000Z</time>
      </trkpt>
      <trkpt lat="47.52638" lon="6.71272">
        <ele>398.8</ele>
        <time>2016-12-28T14:35:50.000Z</time>
      </trkpt>
      <trkpt lat="47.52636" lon="6.7127">
        <ele>398.7</ele>
        <time>2016-12-28T14:35:51.000Z</time>
      </trkpt>
      <trkpt lat="47.52633" lon="6.71269">
        <ele>398.7</ele>
        <time>2016-12-28T14:35:52.000Z</time>
      </trkpt>
      <trkpt lat="47.5263" lon="6.71268">
        <ele>398.6</ele>
        <time>2016-12-28T14:35:53.000Z</time>
      </trkpt>
      <trkpt lat="47.52627" lon="6.71267">
        <ele>398.5</ele>
        <time>2016-12-28T14:35:54.000Z</time>
      </trkpt>
      <trkpt lat="47.52624" lon="6.71266">
        <ele>398.3</ele>
        <time>2016-12-28T14:35:55.000Z</time>
      </trkpt>
      <trkpt lat="47.52622" lon="6.71267">
        <ele>398.2</ele>
        <time>2016-12-28T14:35:56.000Z</time>
      </trkpt>
      <trkpt lat="47.52619" lon="6.71267">
        <ele>398.2</ele>
        <time>2016-12-28T14:35:57.000Z</time>
      </trkpt>
      <trkpt lat="47.52616" lon="6.71266">
        <ele>398</ele>
        <time>2016-12-28T14:35:58.000Z</time>
      </trkpt>
      <trkpt lat="47.52613" lon="6.71265">
        <ele>397.9</ele>
        <time>2016-12-28T14:35:59.000Z</time>
      </trkpt>
      <trkpt lat="47.52611" lon="6.71264">
        <ele>397.7</ele>
        <time>2016-12-28T14:36:00.000Z</time>
      </trkpt>
      <trkpt lat="47.52608" lon="6.71264">
        <ele>397.5</ele>
        <time>2016-12-28T14:36:01.000Z</time>
      </trkpt>
      <trkpt lat="47.52605" lon="6.71265">
        <ele>397.2</ele>
        <time>2016-12-28T14:36:03.000Z</time>
      </trkpt>
      <trkpt lat="47.52603" lon="6.71265">
        <ele>397.1</ele>
        <time>2016-12-28T14:36:04.000Z</time>
      </trkpt>
      <trkpt lat="47.52599" lon="6.71265">
        <ele>397</ele>
        <time>2016-12-28T14:36:06.000Z</time>
      </trkpt>
      <trkpt lat="47.52597" lon="6.71264">
        <ele>396.8</ele>
        <time>2016-12-28T14:36:07.000Z</time>
      </trkpt>
      <trkpt lat="47.52594" lon="6.71264">
        <ele>396.8</ele>
        <time>2016-12-28T14:36:09.000Z</time>
      </trkpt>
      <trkpt lat="47.52592" lon="6.71264">
        <ele>396.8</ele>
        <time>2016-12-28T14:36:10.000Z</time>
      </trkpt>
      <trkpt lat="47.52589" lon="6.71264">
        <ele>396.8</ele>
        <time>2016-12-28T14:36:11.000Z</time>
      </trkpt>
      <trkpt lat="47.52587" lon="6.71263">
        <ele>396.7</ele>
        <time>2016-12-28T14:36:12.000Z</time>
      </trkpt>
      <trkpt lat="47.52585" lon="6.71262">
        <ele>396.6</ele>
        <time>2016-12-28T14:36:13.000Z</time>
      </trkpt>
      <trkpt lat="47.52582" lon="6.71262">
        <ele>396.4</ele>
        <time>2016-12-28T14:36:14.000Z</time>
      </trkpt>
      <trkpt lat="47.5258" lon="6.7126">
        <ele>396.2</ele>
        <time>2016-12-28T14:36:15.000Z</time>
      </trkpt>
      <trkpt lat="47.52577" lon="6.71259">
        <ele>396.1</ele>
        <time>2016-12-28T14:36:16.000Z</time>
      </trkpt>
      <trkpt lat="47.52574" lon="6.71259">
        <ele>396</ele>
        <time>2016-12-28T14:36:17.000Z</time>
      </trkpt>
      <trkpt lat="47.52572" lon="6.71258">
        <ele>395.9</ele>
        <time>2016-12-28T14:36:18.000Z</time>
      </trkpt>
      <trkpt lat="47.52569" lon="6.71257">
        <ele>395.8</ele>
        <time>2016-12-28T14:36:19.000Z</time>
      </trkpt>
      <trkpt lat="47.52566" lon="6.71256">
        <ele>395.8</ele>
        <time>2016-12-28T14:36:20.000Z</time>
      </trkpt>
      <trkpt lat="47.52564" lon="6.71255">
        <ele>395.7</ele>
        <time>2016-12-28T14:36:21.000Z</time>
      </trkpt>
      <trkpt lat="47.52561" lon="6.71254">
        <ele>395.6</ele>
        <time>2016-12-28T14:36:22.000Z</time>
      </trkpt>
      <trkpt lat="47.52559" lon="6.71253">
        <ele>395.6</ele>
        <time>2016-12-28T14:36:23.000Z</time>
      </trkpt>
      <trkpt lat="47.52557" lon="6.71252">
        <ele>395.5</ele>
        <time>2016-12-28T14:36:24.000Z</time>
      </trkpt>
      <trkpt lat="47.52554" lon="6.71251">
        <ele>395.6</ele>
        <time>2016-12-28T14:36:25.000Z</time>
      </trkpt>
      <trkpt lat="47.52552" lon="6.71249">
        <ele>395.6</ele>
        <time>2016-12-28T14:36:26.000Z</time>
      </trkpt>
      <trkpt lat="47.52549" lon="6.71247">
        <ele>395.5</ele>
        <time>2016-12-28T14:36:27.000Z</time>
      </trkpt>
      <trkpt lat="47.52546" lon="6.71245">
        <ele>395.5</ele>
        <time>2016-12-28T14:36:28.000Z</time>
      </trkpt>
      <trkpt lat="47.52543" lon="6.71243">
        <ele>395.5</ele>
        <time>2016-12-28T14:36:29.000Z</time>
      </trkpt>
      <trkpt lat="47.5254" lon="6.7124">
        <ele>395.5</ele>
        <time>2016-12-28T14:36:30.000Z</time>
      </trkpt>
      <trkpt lat="47.52537" lon="6.71238">
        <ele>395.5</ele>
        <time>2016-12-28T14:36:31.000Z</time>
      </trkpt>
      <trkpt lat="47.52534" lon="6.71236">
        <ele>395.5</ele>
        <time>2016-12-28T14:36:32.000Z</time>
      </trkpt>
      <trkpt lat="47.52531" lon="6.71234">
        <ele>395.5</ele>
        <time>2016-12-28T14:36:33.000Z</time>
      </trkpt>
      <trkpt lat="47.52527" lon="6.71231">
        <ele>395.5</ele>
        <time>2016-12-28T14:36:34.000Z</time>
      </trkpt>
      <trkpt lat="47.52523" lon="6.71229">
        <ele>395.5</ele>
        <time>2016-12-28T14:36:35.000Z</time>
      </trkpt>
      <trkpt lat="47.5252" lon="6.71226">
        <ele>395.6</ele>
        <time>2016-12-28T14:36:36.000Z</time>
      </trkpt>
      <trkpt lat="47.52517" lon="6.71223">
        <ele>395.7</ele>
        <time>2016-12-28T14:36:37.000Z</time>
      </trkpt>
      <trkpt lat="47.52514" lon="6.71221">
        <ele>395.9</ele>
        <time>2016-12-28T14:36:38.000Z</time>
      </trkpt>
      <trkpt lat="47.52511" lon="6.71218">
        <ele>396.1</ele>
        <time>2016-12-28T14:36:39.000Z</time>
      </trkpt>
      <trkpt lat="47.52509" lon="6.71215">
        <ele>396.2</ele>
        <time>2016-12-28T14:36:40.000Z</time>
      </trkpt>
      <trkpt lat="47.52506" lon="6.71211">
        <ele>396.3</ele>
        <time>2016-12-28T14:36:41.000Z</time>
      </trkpt>
      <trkpt lat="47.52504" lon="6.71207">
        <ele>396.5</ele>
        <time>2016-12-28T14:36:42.000Z</time>
      </trkpt>
      <trkpt lat="47.52502" lon="6.71203">
        <ele>396.7</ele>
        <time>2016-12-28T14:36:43.000Z</time>
      </trkpt>
      <trkpt lat="47.52499" lon="6.71198">
        <ele>397.1</ele>
        <time>2016-12-28T14:36:44.000Z</time>
      </trkpt>
      <trkpt lat="47.52496" lon="6.71193">
        <ele>399.1</ele>
        <time>2016-12-28T14:36:45.000Z</time>
      </trkpt>
      <trkpt lat="47.52494" lon="6.7119">
        <ele>399.3</ele>
        <time>2016-12-28T14:36:46.000Z</time>
      </trkpt>
      <trkpt lat="47.52491" lon="6.71187">
        <ele>399.5</ele>
        <time>2016-12-28T14:36:47.000Z</time>
      </trkpt>
      <trkpt lat="47.52489" lon="6.71184">
        <ele>399.8</ele>
        <time>2016-12-28T14:36:48.000Z</time>
      </trkpt>
      <trkpt lat="47.52486" lon="6.71181">
        <ele>400</ele>
        <time>2016-12-28T14:36:49.000Z</time>
      </trkpt>
      <trkpt lat="47.52482" lon="6.71178">
        <ele>400.4</ele>
        <time>2016-12-28T14:36:50.000Z</time>
      </trkpt>
      <trkpt lat="47.52477" lon="6.71175">
        <ele>400.7</ele>
        <time>2016-12-28T14:36:51.000Z</time>
      </trkpt>
      <trkpt lat="47.52474" lon="6.71173">
        <ele>401.1</ele>
        <time>2016-12-28T14:36:52.000Z</time>
      </trkpt>
      <trkpt lat="47.52471" lon="6.71173">
        <ele>401.4</ele>
        <time>2016-12-28T14:36:53.000Z</time>
      </trkpt>
      <trkpt lat="47.52467" lon="6.71173">
        <ele>402</ele>
        <time>2016-12-28T14:36:55.000Z</time>
      </trkpt>
      <trkpt lat="47.52464" lon="6.71174">
        <ele>402.2</ele>
        <time>2016-12-28T14:36:56.000Z</time>
      </trkpt>
      <trkpt lat="47.52461" lon="6.71175">
        <ele>402.5</ele>
        <time>2016-12-28T14:36:57.000Z</time>
      </trkpt>
      <trkpt lat="47.52459" lon="6.71176">
        <ele>402.7</ele>
        <time>2016-12-28T14:36:58.000Z</time>
      </trkpt>
      <trkpt lat="47.52457" lon="6.71177">
        <ele>402.9</ele>
        <time>2016-12-28T14:36:59.000Z</time>
      </trkpt>
      <trkpt lat="47.52451" lon="6.71181">
        <ele>403.1</ele>
        <time>2016-12-28T14:37:00.000Z</time>
      </trkpt>
      <trkpt lat="47.52448" lon="6.71181">
        <ele>403.3</ele>
        <time>2016-12-28T14:37:01.000Z</time>
      </trkpt>
      <trkpt lat="47.52444" lon="6.7118">
        <ele>403.4</ele>
        <time>2016-12-28T14:37:02.000Z</time>
      </trkpt>
      <trkpt lat="47.52442" lon="6.71181">
        <ele>403.6</ele>
        <time>2016-12-28T14:37:03.000Z</time>
      </trkpt>
      <trkpt lat="47.52439" lon="6.71181">
        <ele>403.8</ele>
        <time>2016-12-28T14:37:04.000Z</time>
      </trkpt>
      <trkpt lat="47.52436" lon="6.71182">
        <ele>404</ele>
        <time>2016-12-28T14:37:05.000Z</time>
      </trkpt>
      <trkpt lat="47.52433" lon="6.71182">
        <ele>404.2</ele>
        <time>2016-12-28T14:37:06.000Z</time>
      </trkpt>
      <trkpt lat="47.5243" lon="6.71181">
        <ele>404.4</ele>
        <time>2016-12-28T14:37:08.000Z</time>
      </trkpt>
      <trkpt lat="47.52429" lon="6.71179">
        <ele>404.4</ele>
        <time>2016-12-28T14:37:09.000Z</time>
      </trkpt>
      <trkpt lat="47.52425" lon="6.71178">
        <ele>404.3</ele>
        <time>2016-12-28T14:37:11.000Z</time>
      </trkpt>
      <trkpt lat="47.52423" lon="6.71179">
        <ele>404.2</ele>
        <time>2016-12-28T14:37:12.000Z</time>
      </trkpt>
      <trkpt lat="47.52419" lon="6.7118">
        <ele>403.9</ele>
        <time>2016-12-28T14:37:14.000Z</time>
      </trkpt>
      <trkpt lat="47.52417" lon="6.71181">
        <ele>403.8</ele>
        <time>2016-12-28T14:37:15.000Z</time>
      </trkpt>
      <trkpt lat="47.52414" lon="6.71183">
        <ele>403.7</ele>
        <time>2016-12-28T14:37:16.000Z</time>
      </trkpt>
      <trkpt lat="47.52411" lon="6.71183">
        <ele>403.7</ele>
        <time>2016-12-28T14:37:17.000Z</time>
      </trkpt>
      <trkpt lat="47.52408" lon="6.71184">
        <ele>403.6</ele>
        <time>2016-12-28T14:37:18.000Z</time>
      </trkpt>
      <trkpt lat="47.52405" lon="6.71183">
        <ele>403.6</ele>
        <time>2016-12-28T14:37:19.000Z</time>
      </trkpt>
      <trkpt lat="47.52402" lon="6.71183">
        <ele>403.7</ele>
        <time>2016-12-28T14:37:20.000Z</time>
      </trkpt>
      <trkpt lat="47.52398" lon="6.71184">
        <ele>403.7</ele>
        <time>2016-12-28T14:37:21.000Z</time>
      </trkpt>
      <trkpt lat="47.52395" lon="6.71184">
        <ele>403.8</ele>
        <time>2016-12-28T14:37:22.000Z</time>
      </trkpt>
      <trkpt lat="47.52391" lon="6.71185">
        <ele>403.9</ele>
        <time>2016-12-28T14:37:23.000Z</time>
      </trkpt>
      <trkpt lat="47.52388" lon="6.71185">
        <ele>404.1</ele>
        <time>2016-12-28T14:37:24.000Z</time>
      </trkpt>
      <trkpt lat="47.52385" lon="6.71185">
        <ele>404.1</ele>
        <time>2016-12-28T14:37:25.000Z</time>
      </trkpt>
      <trkpt lat="47.52382" lon="6.71185">
        <ele>404.2</ele>
        <time>2016-12-28T14:37:26.000Z</time>
      </trkpt>
      <trkpt lat="47.52379" lon="6.71184">
        <ele>404.4</ele>
        <time>2016-12-28T14:37:27.000Z</time>
      </trkpt>
      <trkpt lat="47.52376" lon="6.71183">
        <ele>404.5</ele>
        <time>2016-12-28T14:37:28.000Z</time>
      </trkpt>
      <trkpt lat="47.52374" lon="6.71182">
        <ele>404.7</ele>
        <time>2016-12-28T14:37:29.000Z</time>
      </trkpt>
      <trkpt lat="47.52371" lon="6.71182">
        <ele>404.8</ele>
        <time>2016-12-28T14:37:30.000Z</time>
      </trkpt>
      <trkpt lat="47.52368" lon="6.71181">
        <ele>405</ele>
        <time>2016-12-28T14:37:31.000Z</time>
      </trkpt>
      <trkpt lat="47.52364" lon="6.71182">
        <ele>405.2</ele>
        <time>2016-12-28T14:37:33.000Z</time>
      </trkpt>
      <trkpt lat="47.52362" lon="6.71185">
        <ele>405.3</ele>
        <time>2016-12-28T14:37:34.000Z</time>
      </trkpt>
      <trkpt lat="47.5236" lon="6.71189">
        <ele>405.3</ele>
        <time>2016-12-28T14:37:35.000Z</time>
      </trkpt>
      <trkpt lat="47.52359" lon="6.71193">
        <ele>405.3</ele>
        <time>2016-12-28T14:37:36.000Z</time>
      </trkpt>
      <trkpt lat="47.52359" lon="6.71198">
        <ele>405.4</ele>
        <time>2016-12-28T14:37:37.000Z</time>
      </trkpt>
      <trkpt lat="47.52359" lon="6.71204">
        <ele>405.4</ele>
        <time>2016-12-28T14:37:38.000Z</time>
      </trkpt>
      <trkpt lat="47.5236" lon="6.71208">
        <ele>405.5</ele>
        <time>2016-12-28T14:37:39.000Z</time>
      </trkpt>
      <trkpt lat="47.5236" lon="6.71211">
        <ele>405.6</ele>
        <time>2016-12-28T14:37:40.000Z</time>
      </trkpt>
      <trkpt lat="47.5236" lon="6.71216">
        <ele>405.7</ele>
        <time>2016-12-28T14:37:41.000Z</time>
      </trkpt>
      <trkpt lat="47.5236" lon="6.7122">
        <ele>405.7</ele>
        <time>2016-12-28T14:37:42.000Z</time>
      </trkpt>
      <trkpt lat="47.5236" lon="6.71226">
        <ele>405.7</ele>
        <time>2016-12-28T14:37:43.000Z</time>
      </trkpt>
      <trkpt lat="47.52361" lon="6.7123">
        <ele>405.7</ele>
        <time>2016-12-28T14:37:44.000Z</time>
      </trkpt>
      <trkpt lat="47.52361" lon="6.71236">
        <ele>405.7</ele>
        <time>2016-12-28T14:37:45.000Z</time>
      </trkpt>
      <trkpt lat="47.52361" lon="6.71241">
        <ele>405.7</ele>
        <time>2016-12-28T14:37:46.000Z</time>
      </trkpt>
      <trkpt lat="47.52361" lon="6.71245">
        <ele>405.6</ele>
        <time>2016-12-28T14:37:47.000Z</time>
      </trkpt>
      <trkpt lat="47.52361" lon="6.7125">
        <ele>405.6</ele>
        <time>2016-12-28T14:37:48.000Z</time>
      </trkpt>
      <trkpt lat="47.52361" lon="6.71255">
        <ele>405.7</ele>
        <time>2016-12-28T14:37:49.000Z</time>
      </trkpt>
      <trkpt lat="47.52361" lon="6.71259">
        <ele>405.8</ele>
        <time>2016-12-28T14:37:50.000Z</time>
      </trkpt>
      <trkpt lat="47.52362" lon="6.71263">
        <ele>405.9</ele>
        <time>2016-12-28T14:37:51.000Z</time>
      </trkpt>
      <trkpt lat="47.52362" lon="6.71266">
        <ele>406</ele>
        <time>2016-12-28T14:37:52.000Z</time>
      </trkpt>
      <trkpt lat="47.52363" lon="6.7127">
        <ele>406.1</ele>
        <time>2016-12-28T14:37:53.000Z</time>
      </trkpt>
      <trkpt lat="47.52363" lon="6.71274">
        <ele>406.2</ele>
        <time>2016-12-28T14:37:54.000Z</time>
      </trkpt>
      <trkpt lat="47.52363" lon="6.71279">
        <ele>406.3</ele>
        <time>2016-12-28T14:37:55.000Z</time>
      </trkpt>
      <trkpt lat="47.52363" lon="6.71283">
        <ele>406.3</ele>
        <time>2016-12-28T14:37:56.000Z</time>
      </trkpt>
      <trkpt lat="47.52364" lon="6.71287">
        <ele>406.4</ele>
        <time>2016-12-28T14:37:57.000Z</time>
      </trkpt>
      <trkpt lat="47.52364" lon="6.71292">
        <ele>406.3</ele>
        <time>2016-12-28T14:37:58.000Z</time>
      </trkpt>
      <trkpt lat="47.52364" lon="6.71297">
        <ele>406.3</ele>
        <time>2016-12-28T14:37:59.000Z</time>
      </trkpt>
      <trkpt lat="47.52364" lon="6.71302">
        <ele>406.4</ele>
        <time>2016-12-28T14:38:00.000Z</time>
      </trkpt>
      <trkpt lat="47.52364" lon="6.71307">
        <ele>406.3</ele>
        <time>2016-12-28T14:38:01.000Z</time>
      </trkpt>
      <trkpt lat="47.52365" lon="6.7131">
        <ele>406.3</ele>
        <time>2016-12-28T14:38:02.000Z</time>
      </trkpt>
      <trkpt lat="47.52365" lon="6.71313">
        <ele>406.2</ele>
        <time>2016-12-28T14:38:03.000Z</time>
      </trkpt>
      <trkpt lat="47.52365" lon="6.71317">
        <ele>406.3</ele>
        <time>2016-12-28T14:38:04.000Z</time>
      </trkpt>
      <trkpt lat="47.52365" lon="6.7132">
        <ele>406.3</ele>
        <time>2016-12-28T14:38:05.000Z</time>
      </trkpt>
      <trkpt lat="47.52366" lon="6.71324">
        <ele>406.3</ele>
        <time>2016-12-28T14:38:06.000Z</time>
      </trkpt>
      <trkpt lat="47.52366" lon="6.7133">
        <ele>406.4</ele>
        <time>2016-12-28T14:38:08.000Z</time>
      </trkpt>
      <trkpt lat="47.52367" lon="6.71333">
        <ele>406.4</ele>
        <time>2016-12-28T14:38:09.000Z</time>
      </trkpt>
      <trkpt lat="47.52367" lon="6.71336">
        <ele>406.4</ele>
        <time>2016-12-28T14:38:10.000Z</time>
      </trkpt>
      <trkpt lat="47.52368" lon="6.71341">
        <ele>406.4</ele>
        <time>2016-12-28T14:38:11.000Z</time>
      </trkpt>
      <trkpt lat="47.52368" lon="6.71344">
        <ele>406.4</ele>
        <time>2016-12-28T14:38:12.000Z</time>
      </trkpt>
      <trkpt lat="47.52368" lon="6.71348">
        <ele>406.5</ele>
        <time>2016-12-28T14:38:13.000Z</time>
      </trkpt>
      <trkpt lat="47.52369" lon="6.71354">
        <ele>406.5</ele>
        <time>2016-12-28T14:38:15.000Z</time>
      </trkpt>
      <trkpt lat="47.52369" lon="6.71358">
        <ele>406.5</ele>
        <time>2016-12-28T14:38:16.000Z</time>
      </trkpt>
      <trkpt lat="47.5237" lon="6.71365">
        <ele>406.6</ele>
        <time>2016-12-28T14:38:18.000Z</time>
      </trkpt>
      <trkpt lat="47.52371" lon="6.71368">
        <ele>406.8</ele>
        <time>2016-12-28T14:38:19.000Z</time>
      </trkpt>
      <trkpt lat="47.52371" lon="6.71372">
        <ele>407</ele>
        <time>2016-12-28T14:38:20.000Z</time>
      </trkpt>
      <trkpt lat="47.52371" lon="6.71375">
        <ele>407.2</ele>
        <time>2016-12-28T14:38:21.000Z</time>
      </trkpt>
      <trkpt lat="47.52371" lon="6.71378">
        <ele>407.3</ele>
        <time>2016-12-28T14:38:22.000Z</time>
      </trkpt>
      <trkpt lat="47.52371" lon="6.71382">
        <ele>407.5</ele>
        <time>2016-12-28T14:38:23.000Z</time>
      </trkpt>
      <trkpt lat="47.52372" lon="6.71385">
        <ele>407.6</ele>
        <time>2016-12-28T14:38:24.000Z</time>
      </trkpt>
      <trkpt lat="47.52372" lon="6.71389">
        <ele>407.7</ele>
        <time>2016-12-28T14:38:25.000Z</time>
      </trkpt>
      <trkpt lat="47.52372" lon="6.71392">
        <ele>407.8</ele>
        <time>2016-12-28T14:38:26.000Z</time>
      </trkpt>
      <trkpt lat="47.52372" lon="6.71396">
        <ele>408</ele>
        <time>2016-12-28T14:38:27.000Z</time>
      </trkpt>
      <trkpt lat="47.52372" lon="6.714">
        <ele>408.2</ele>
        <time>2016-12-28T14:38:28.000Z</time>
      </trkpt>
      <trkpt lat="47.52373" lon="6.71404">
        <ele>408.4</ele>
        <time>2016-12-28T14:38:29.000Z</time>
      </trkpt>
      <trkpt lat="47.52373" lon="6.7141">
        <ele>408.7</ele>
        <time>2016-12-28T14:38:31.000Z</time>
      </trkpt>
      <trkpt lat="47.52373" lon="6.71414">
        <ele>408.9</ele>
        <time>2016-12-28T14:38:32.000Z</time>
      </trkpt>
      <trkpt lat="47.52373" lon="6.7142">
        <ele>409.2</ele>
        <time>2016-12-28T14:38:34.000Z</time>
      </trkpt>
      <trkpt lat="47.52373" lon="6.71424">
        <ele>409.4</ele>
        <time>2016-12-28T14:38:35.000Z</time>
      </trkpt>
      <trkpt lat="47.52373" lon="6.71428">
        <ele>409.5</ele>
        <time>2016-12-28T14:38:36.000Z</time>
      </trkpt>
      <trkpt lat="47.52373" lon="6.71432">
        <ele>409.7</ele>
        <time>2016-12-28T14:38:37.000Z</time>
      </trkpt>
      <trkpt lat="47.52373" lon="6.71435">
        <ele>409.8</ele>
        <time>2016-12-28T14:38:38.000Z</time>
      </trkpt>
      <trkpt lat="47.52373" lon="6.71439">
        <ele>410</ele>
        <time>2016-12-28T14:38:39.000Z</time>
      </trkpt>
      <trkpt lat="47.52373" lon="6.71443">
        <ele>410.1</ele>
        <time>2016-12-28T14:38:40.000Z</time>
      </trkpt>
      <trkpt lat="47.52373" lon="6.71446">
        <ele>410.3</ele>
        <time>2016-12-28T14:38:41.000Z</time>
      </trkpt>
      <trkpt lat="47.52373" lon="6.71449">
        <ele>410.4</ele>
        <time>2016-12-28T14:38:42.000Z</time>
      </trkpt>
      <trkpt lat="47.52373" lon="6.71453">
        <ele>410.4</ele>
        <time>2016-12-28T14:38:43.000Z</time>
      </trkpt>
      <trkpt lat="47.52372" lon="6.71458">
        <ele>410.8</ele>
        <time>2016-12-28T14:38:45.000Z</time>
      </trkpt>
      <trkpt lat="47.52372" lon="6.71462">
        <ele>410.9</ele>
        <time>2016-12-28T14:38:46.000Z</time>
      </trkpt>
      <trkpt lat="47.52372" lon="6.71465">
        <ele>411.2</ele>
        <time>2016-12-28T14:38:47.000Z</time>
      </trkpt>
      <trkpt lat="47.52371" lon="6.71468">
        <ele>411.4</ele>
        <time>2016-12-28T14:38:48.000Z</time>
      </trkpt>
      <trkpt lat="47.52371" lon="6.71471">
        <ele>411.5</ele>
        <time>2016-12-28T14:38:49.000Z</time>
      </trkpt>
      <trkpt lat="47.52371" lon="6.71475">
        <ele>411.6</ele>
        <time>2016-12-28T14:38:50.000Z</time>
      </trkpt>
      <trkpt lat="47.5237" lon="6.71479">
        <ele>411.7</ele>
        <time>2016-12-28T14:38:51.000Z</time>
      </trkpt>
      <trkpt lat="47.52369" lon="6.71484">
        <ele>411.9</ele>
        <time>2016-12-28T14:38:52.000Z</time>
      </trkpt>
      <trkpt lat="47.52368" lon="6.71488">
        <ele>412.1</ele>
        <time>2016-12-28T14:38:53.000Z</time>
      </trkpt>
      <trkpt lat="47.52367" lon="6.71491">
        <ele>412.3</ele>
        <time>2016-12-28T14:38:54.000Z</time>
      </trkpt>
      <trkpt lat="47.52365" lon="6.71494">
        <ele>412.4</ele>
        <time>2016-12-28T14:38:55.000Z</time>
      </trkpt>
      <trkpt lat="47.52364" lon="6.71498">
        <ele>412.5</ele>
        <time>2016-12-28T14:38:56.000Z</time>
      </trkpt>
      <trkpt lat="47.52362" lon="6.71501">
        <ele>412.7</ele>
        <time>2016-12-28T14:38:57.000Z</time>
      </trkpt>
      <trkpt lat="47.52361" lon="6.71504">
        <ele>412.8</ele>
        <time>2016-12-28T14:38:58.000Z</time>
      </trkpt>
      <trkpt lat="47.52359" lon="6.71509">
        <ele>413.1</ele>
        <time>2016-12-28T14:39:00.000Z</time>
      </trkpt>
      <trkpt lat="47.52357" lon="6.71512">
        <ele>413.3</ele>
        <time>2016-12-28T14:39:01.000Z</time>
      </trkpt>
      <trkpt lat="47.52356" lon="6.71516">
        <ele>413.5</ele>
        <time>2016-12-28T14:39:02.000Z</time>
      </trkpt>
      <trkpt lat="47.52356" lon="6.71519">
        <ele>413.7</ele>
        <time>2016-12-28T14:39:03.000Z</time>
      </trkpt>
      <trkpt lat="47.52354" lon="6.71522">
        <ele>413.9</ele>
        <time>2016-12-28T14:39:04.000Z</time>
      </trkpt>
      <trkpt lat="47.52353" lon="6.71525">
        <ele>414</ele>
        <time>2016-12-28T14:39:05.000Z</time>
      </trkpt>
      <trkpt lat="47.52352" lon="6.71529">
        <ele>414.3</ele>
        <time>2016-12-28T14:39:06.000Z</time>
      </trkpt>
      <trkpt lat="47.52351" lon="6.71533">
        <ele>414.5</ele>
        <time>2016-12-28T14:39:07.000Z</time>
      </trkpt>
      <trkpt lat="47.5235" lon="6.71536">
        <ele>414.7</ele>
        <time>2016-12-28T14:39:08.000Z</time>
      </trkpt>
      <trkpt lat="47.52349" lon="6.7154">
        <ele>414.9</ele>
        <time>2016-12-28T14:39:09.000Z</time>
      </trkpt>
      <trkpt lat="47.52348" lon="6.71543">
        <ele>415</ele>
        <time>2016-12-28T14:39:10.000Z</time>
      </trkpt>
      <trkpt lat="47.52346" lon="6.71546">
        <ele>415.2</ele>
        <time>2016-12-28T14:39:11.000Z</time>
      </trkpt>
      <trkpt lat="47.52345" lon="6.71549">
        <ele>415.3</ele>
        <time>2016-12-28T14:39:12.000Z</time>
      </trkpt>
      <trkpt lat="47.52344" lon="6.71552">
        <ele>415.4</ele>
        <time>2016-12-28T14:39:13.000Z</time>
      </trkpt>
      <trkpt lat="47.52342" lon="6.71554">
        <ele>415.5</ele>
        <time>2016-12-28T14:39:14.000Z</time>
      </trkpt>
      <trkpt lat="47.52341" lon="6.71558">
        <ele>415.6</ele>
        <time>2016-12-28T14:39:15.000Z</time>
      </trkpt>
      <trkpt lat="47.52339" lon="6.71561">
        <ele>415.8</ele>
        <time>2016-12-28T14:39:16.000Z</time>
      </trkpt>
      <trkpt lat="47.52337" lon="6.71565">
        <ele>415.9</ele>
        <time>2016-12-28T14:39:17.000Z</time>
      </trkpt>
      <trkpt lat="47.52335" lon="6.7157">
        <ele>416.2</ele>
        <time>2016-12-28T14:39:19.000Z</time>
      </trkpt>
      <trkpt lat="47.52334" lon="6.71573">
        <ele>416.3</ele>
        <time>2016-12-28T14:39:20.000Z</time>
      </trkpt>
      <trkpt lat="47.52332" lon="6.71576">
        <ele>416.5</ele>
        <time>2016-12-28T14:39:21.000Z</time>
      </trkpt>
      <trkpt lat="47.52331" lon="6.71579">
        <ele>416.7</ele>
        <time>2016-12-28T14:39:22.000Z</time>
      </trkpt>
      <trkpt lat="47.52328" lon="6.71583">
        <ele>416.9</ele>
        <time>2016-12-28T14:39:24.000Z</time>
      </trkpt>
      <trkpt lat="47.52326" lon="6.71586">
        <ele>417.1</ele>
        <time>2016-12-28T14:39:25.000Z</time>
      </trkpt>
      <trkpt lat="47.52323" lon="6.7159">
        <ele>417.3</ele>
        <time>2016-12-28T14:39:27.000Z</time>
      </trkpt>
      <trkpt lat="47.52321" lon="6.71594">
        <ele>417.5</ele>
        <time>2016-12-28T14:39:28.000Z</time>
      </trkpt>
      <trkpt lat="47.52319" lon="6.71596">
        <ele>417.6</ele>
        <time>2016-12-28T14:39:29.000Z</time>
      </trkpt>
      <trkpt lat="47.52317" lon="6.71599">
        <ele>417.9</ele>
        <time>2016-12-28T14:39:30.000Z</time>
      </trkpt>
      <trkpt lat="47.52314" lon="6.71602">
        <ele>418.4</ele>
        <time>2016-12-28T14:39:32.000Z</time>
      </trkpt>
      <trkpt lat="47.52312" lon="6.71604">
        <ele>418.6</ele>
        <time>2016-12-28T14:39:33.000Z</time>
      </trkpt>
      <trkpt lat="47.52311" lon="6.71606">
        <ele>418.8</ele>
        <time>2016-12-28T14:39:34.000Z</time>
      </trkpt>
      <trkpt lat="47.52309" lon="6.7161">
        <ele>419</ele>
        <time>2016-12-28T14:39:35.000Z</time>
      </trkpt>
      <trkpt lat="47.52307" lon="6.71612">
        <ele>419.2</ele>
        <time>2016-12-28T14:39:36.000Z</time>
      </trkpt>
      <trkpt lat="47.52306" lon="6.71616">
        <ele>419.2</ele>
        <time>2016-12-28T14:39:37.000Z</time>
      </trkpt>
      <trkpt lat="47.52304" lon="6.71619">
        <ele>419.3</ele>
        <time>2016-12-28T14:39:38.000Z</time>
      </trkpt>
      <trkpt lat="47.52303" lon="6.71621">
        <ele>419.4</ele>
        <time>2016-12-28T14:39:39.000Z</time>
      </trkpt>
      <trkpt lat="47.52301" lon="6.71625">
        <ele>419.6</ele>
        <time>2016-12-28T14:39:40.000Z</time>
      </trkpt>
      <trkpt lat="47.52299" lon="6.71628">
        <ele>419.7</ele>
        <time>2016-12-28T14:39:41.000Z</time>
      </trkpt>
      <trkpt lat="47.52298" lon="6.71631">
        <ele>419.9</ele>
        <time>2016-12-28T14:39:42.000Z</time>
      </trkpt>
      <trkpt lat="47.52296" lon="6.71634">
        <ele>420</ele>
        <time>2016-12-28T14:39:43.000Z</time>
      </trkpt>
      <trkpt lat="47.52295" lon="6.71636">
        <ele>420.1</ele>
        <time>2016-12-28T14:39:44.000Z</time>
      </trkpt>
      <trkpt lat="47.52294" lon="6.71639">
        <ele>420.2</ele>
        <time>2016-12-28T14:39:45.000Z</time>
      </trkpt>
      <trkpt lat="47.52293" lon="6.71642">
        <ele>420.3</ele>
        <time>2016-12-28T14:39:46.000Z</time>
      </trkpt>
      <trkpt lat="47.52291" lon="6.71645">
        <ele>420.4</ele>
        <time>2016-12-28T14:39:47.000Z</time>
      </trkpt>
      <trkpt lat="47.5229" lon="6.71648">
        <ele>420.4</ele>
        <time>2016-12-28T14:39:48.000Z</time>
      </trkpt>
      <trkpt lat="47.52289" lon="6.71651">
        <ele>420.5</ele>
        <time>2016-12-28T14:39:49.000Z</time>
      </trkpt>
      <trkpt lat="47.52288" lon="6.71654">
        <ele>420.5</ele>
        <time>2016-12-28T14:39:50.000Z</time>
      </trkpt>
      <trkpt lat="47.52286" lon="6.71657">
        <ele>420.6</ele>
        <time>2016-12-28T14:39:51.000Z</time>
      </trkpt>
      <trkpt lat="47.52285" lon="6.7166">
        <ele>420.7</ele>
        <time>2016-12-28T14:39:52.000Z</time>
      </trkpt>
      <trkpt lat="47.52285" lon="6.71664">
        <ele>420.8</ele>
        <time>2016-12-28T14:39:53.000Z</time>
      </trkpt>
      <trkpt lat="47.52283" lon="6.71668">
        <ele>420.8</ele>
        <time>2016-12-28T14:39:54.000Z</time>
      </trkpt>
      <trkpt lat="47.52282" lon="6.71671">
        <ele>420.9</ele>
        <time>2016-12-28T14:39:55.000Z</time>
      </trkpt>
      <trkpt lat="47.52281" lon="6.71675">
        <ele>420.9</ele>
        <time>2016-12-28T14:39:56.000Z</time>
      </trkpt>
      <trkpt lat="47.5228" lon="6.71678">
        <ele>421</ele>
        <time>2016-12-28T14:39:57.000Z</time>
      </trkpt>
      <trkpt lat="47.52279" lon="6.71682">
        <ele>421.1</ele>
        <time>2016-12-28T14:39:58.000Z</time>
      </trkpt>
      <trkpt lat="47.52278" lon="6.71685">
        <ele>421.3</ele>
        <time>2016-12-28T14:39:59.000Z</time>
      </trkpt>
      <trkpt lat="47.52277" lon="6.71689">
        <ele>421.4</ele>
        <time>2016-12-28T14:40:00.000Z</time>
      </trkpt>
      <trkpt lat="47.52276" lon="6.71692">
        <ele>421.5</ele>
        <time>2016-12-28T14:40:01.000Z</time>
      </trkpt>
      <trkpt lat="47.52276" lon="6.71695">
        <ele>421.7</ele>
        <time>2016-12-28T14:40:02.000Z</time>
      </trkpt>
      <trkpt lat="47.52275" lon="6.71698">
        <ele>421.8</ele>
        <time>2016-12-28T14:40:03.000Z</time>
      </trkpt>
      <trkpt lat="47.52274" lon="6.71702">
        <ele>421.9</ele>
        <time>2016-12-28T14:40:04.000Z</time>
      </trkpt>
      <trkpt lat="47.52273" lon="6.71705">
        <ele>421.9</ele>
        <time>2016-12-28T14:40:05.000Z</time>
      </trkpt>
      <trkpt lat="47.52272" lon="6.71711">
        <ele>422.2</ele>
        <time>2016-12-28T14:40:07.000Z</time>
      </trkpt>
      <trkpt lat="47.52271" lon="6.71714">
        <ele>422.3</ele>
        <time>2016-12-28T14:40:08.000Z</time>
      </trkpt>
      <trkpt lat="47.5227" lon="6.71717">
        <ele>422.5</ele>
        <time>2016-12-28T14:40:09.000Z</time>
      </trkpt>
      <trkpt lat="47.52269" lon="6.71721">
        <ele>422.6</ele>
        <time>2016-12-28T14:40:10.000Z</time>
      </trkpt>
      <trkpt lat="47.52268" lon="6.71725">
        <ele>422.7</ele>
        <time>2016-12-28T14:40:11.000Z</time>
      </trkpt>
      <trkpt lat="47.52268" lon="6.71728">
        <ele>422.8</ele>
        <time>2016-12-28T14:40:12.000Z</time>
      </trkpt>
      <trkpt lat="47.52266" lon="6.71734">
        <ele>423.1</ele>
        <time>2016-12-28T14:40:14.000Z</time>
      </trkpt>
      <trkpt lat="47.52266" lon="6.71738">
        <ele>423.2</ele>
        <time>2016-12-28T14:40:15.000Z</time>
      </trkpt>
      <trkpt lat="47.52265" lon="6.71741">
        <ele>423.3</ele>
        <time>2016-12-28T14:40:16.000Z</time>
      </trkpt>
      <trkpt lat="47.52264" lon="6.71745">
        <ele>423.3</ele>
        <time>2016-12-28T14:40:17.000Z</time>
      </trkpt>
      <trkpt lat="47.52263" lon="6.71751">
        <ele>423.4</ele>
        <time>2016-12-28T14:40:19.000Z</time>
      </trkpt>
      <trkpt lat="47.52263" lon="6.71753">
        <ele>423.6</ele>
        <time>2016-12-28T14:40:20.000Z</time>
      </trkpt>
      <trkpt lat="47.52262" lon="6.71759">
        <ele>424</ele>
        <time>2016-12-28T14:40:22.000Z</time>
      </trkpt>
      <trkpt lat="47.52261" lon="6.71762">
        <ele>424.2</ele>
        <time>2016-12-28T14:40:23.000Z</time>
      </trkpt>
      <trkpt lat="47.52259" lon="6.71767">
        <ele>425</ele>
        <time>2016-12-28T14:40:26.000Z</time>
      </trkpt>
      <trkpt lat="47.52259" lon="6.71768">
        <ele>425.3</ele>
        <time>2016-12-28T14:40:27.000Z</time>
      </trkpt>
      <trkpt lat="47.52258" lon="6.71773">
        <ele>425.7</ele>
        <time>2016-12-28T14:40:31.000Z</time>
      </trkpt>
      <trkpt lat="47.52255" lon="6.71776">
        <ele>425.8</ele>
        <time>2016-12-28T14:40:32.000Z</time>
      </trkpt>
      <trkpt lat="47.52252" lon="6.71775">
        <ele>426</ele>
        <time>2016-12-28T14:40:34.000Z</time>
      </trkpt>
      <trkpt lat="47.52251" lon="6.71773">
        <ele>426.1</ele>
        <time>2016-12-28T14:40:35.000Z</time>
      </trkpt>
      <trkpt lat="47.52248" lon="6.71769">
        <ele>426.4</ele>
        <time>2016-12-28T14:40:37.000Z</time>
      </trkpt>
      <trkpt lat="47.52246" lon="6.71766">
        <ele>426.6</ele>
        <time>2016-12-28T14:40:38.000Z</time>
      </trkpt>
      <trkpt lat="47.52244" lon="6.71763">
        <ele>426.8</ele>
        <time>2016-12-28T14:40:39.000Z</time>
      </trkpt>
      <trkpt lat="47.52242" lon="6.71759">
        <ele>427.1</ele>
        <time>2016-12-28T14:40:40.000Z</time>
      </trkpt>
      <trkpt lat="47.5224" lon="6.71755">
        <ele>427.3</ele>
        <time>2016-12-28T14:40:41.000Z</time>
      </trkpt>
      <trkpt lat="47.52238" lon="6.71752">
        <ele>427.5</ele>
        <time>2016-12-28T14:40:42.000Z</time>
      </trkpt>
      <trkpt lat="47.52236" lon="6.71748">
        <ele>427.8</ele>
        <time>2016-12-28T14:40:43.000Z</time>
      </trkpt>
      <trkpt lat="47.52234" lon="6.71745">
        <ele>428</ele>
        <time>2016-12-28T14:40:44.000Z</time>
      </trkpt>
      <trkpt lat="47.52232" lon="6.71742">
        <ele>428.3</ele>
        <time>2016-12-28T14:40:45.000Z</time>
      </trkpt>
      <trkpt lat="47.5223" lon="6.7174">
        <ele>428.5</ele>
        <time>2016-12-28T14:40:46.000Z</time>
      </trkpt>
      <trkpt lat="47.52228" lon="6.71736">
        <ele>428.7</ele>
        <time>2016-12-28T14:40:47.000Z</time>
      </trkpt>
      <trkpt lat="47.52226" lon="6.71733">
        <ele>428.8</ele>
        <time>2016-12-28T14:40:48.000Z</time>
      </trkpt>
      <trkpt lat="47.52223" lon="6.71729">
        <ele>429</ele>
        <time>2016-12-28T14:40:50.000Z</time>
      </trkpt>
      <trkpt lat="47.52222" lon="6.71727">
        <ele>429.1</ele>
        <time>2016-12-28T14:40:51.000Z</time>
      </trkpt>
      <trkpt lat="47.5222" lon="6.71724">
        <ele>429.3</ele>
        <time>2016-12-28T14:40:52.000Z</time>
      </trkpt>
      <trkpt lat="47.52218" lon="6.71721">
        <ele>429.4</ele>
        <time>2016-12-28T14:40:53.000Z</time>
      </trkpt>
      <trkpt lat="47.52216" lon="6.71717">
        <ele>429.6</ele>
        <time>2016-12-28T14:40:54.000Z</time>
      </trkpt>
      <trkpt lat="47.52214" lon="6.71713">
        <ele>429.8</ele>
        <time>2016-12-28T14:40:55.000Z</time>
      </trkpt>
      <trkpt lat="47.52212" lon="6.7171">
        <ele>430</ele>
        <time>2016-12-28T14:40:56.000Z</time>
      </trkpt>
      <trkpt lat="47.52211" lon="6.71707">
        <ele>430.1</ele>
        <time>2016-12-28T14:40:57.000Z</time>
      </trkpt>
      <trkpt lat="47.52209" lon="6.71704">
        <ele>430.3</ele>
        <time>2016-12-28T14:40:58.000Z</time>
      </trkpt>
      <trkpt lat="47.52207" lon="6.717">
        <ele>430.4</ele>
        <time>2016-12-28T14:40:59.000Z</time>
      </trkpt>
      <trkpt lat="47.52205" lon="6.71698">
        <ele>430.5</ele>
        <time>2016-12-28T14:41:00.000Z</time>
      </trkpt>
      <trkpt lat="47.52203" lon="6.71695">
        <ele>430.7</ele>
        <time>2016-12-28T14:41:01.000Z</time>
      </trkpt>
      <trkpt lat="47.522" lon="6.71692">
        <ele>430.8</ele>
        <time>2016-12-28T14:41:02.000Z</time>
      </trkpt>
      <trkpt lat="47.52198" lon="6.71689">
        <ele>431</ele>
        <time>2016-12-28T14:41:03.000Z</time>
      </trkpt>
      <trkpt lat="47.52197" lon="6.71686">
        <ele>431.3</ele>
        <time>2016-12-28T14:41:04.000Z</time>
      </trkpt>
      <trkpt lat="47.52195" lon="6.71682">
        <ele>431.5</ele>
        <time>2016-12-28T14:41:05.000Z</time>
      </trkpt>
      <trkpt lat="47.52193" lon="6.71679">
        <ele>431.8</ele>
        <time>2016-12-28T14:41:06.000Z</time>
      </trkpt>
      <trkpt lat="47.52191" lon="6.71677">
        <ele>432</ele>
        <time>2016-12-28T14:41:07.000Z</time>
      </trkpt>
      <trkpt lat="47.52189" lon="6.71674">
        <ele>432.2</ele>
        <time>2016-12-28T14:41:08.000Z</time>
      </trkpt>
      <trkpt lat="47.52188" lon="6.71672">
        <ele>432.3</ele>
        <time>2016-12-28T14:41:09.000Z</time>
      </trkpt>
      <trkpt lat="47.52186" lon="6.71669">
        <ele>432.5</ele>
        <time>2016-12-28T14:41:10.000Z</time>
      </trkpt>
      <trkpt lat="47.52184" lon="6.71666">
        <ele>432.7</ele>
        <time>2016-12-28T14:41:11.000Z</time>
      </trkpt>
      <trkpt lat="47.52183" lon="6.71663">
        <ele>432.8</ele>
        <time>2016-12-28T14:41:12.000Z</time>
      </trkpt>
      <trkpt lat="47.52181" lon="6.7166">
        <ele>432.9</ele>
        <time>2016-12-28T14:41:13.000Z</time>
      </trkpt>
      <trkpt lat="47.52179" lon="6.71657">
        <ele>433</ele>
        <time>2016-12-28T14:41:15.000Z</time>
      </trkpt>
      <trkpt lat="47.52178" lon="6.71655">
        <ele>433.1</ele>
        <time>2016-12-28T14:41:16.000Z</time>
      </trkpt>
      <trkpt lat="47.52176" lon="6.71651">
        <ele>433.2</ele>
        <time>2016-12-28T14:41:18.000Z</time>
      </trkpt>
      <trkpt lat="47.52175" lon="6.71649">
        <ele>433.3</ele>
        <time>2016-12-28T14:41:19.000Z</time>
      </trkpt>
      <trkpt lat="47.52172" lon="6.71645">
        <ele>433.5</ele>
        <time>2016-12-28T14:41:21.000Z</time>
      </trkpt>
      <trkpt lat="47.52171" lon="6.71642">
        <ele>433.7</ele>
        <time>2016-12-28T14:41:22.000Z</time>
      </trkpt>
      <trkpt lat="47.52169" lon="6.71639">
        <ele>433.9</ele>
        <time>2016-12-28T14:41:23.000Z</time>
      </trkpt>
      <trkpt lat="47.52167" lon="6.71637">
        <ele>434.1</ele>
        <time>2016-12-28T14:41:24.000Z</time>
      </trkpt>
      <trkpt lat="47.52165" lon="6.71634">
        <ele>434.2</ele>
        <time>2016-12-28T14:41:25.000Z</time>
      </trkpt>
      <trkpt lat="47.52163" lon="6.71631">
        <ele>434.4</ele>
        <time>2016-12-28T14:41:26.000Z</time>
      </trkpt>
      <trkpt lat="47.52161" lon="6.71626">
        <ele>434.6</ele>
        <time>2016-12-28T14:41:28.000Z</time>
      </trkpt>
      <trkpt lat="47.5216" lon="6.71623">
        <ele>434.7</ele>
        <time>2016-12-28T14:41:29.000Z</time>
      </trkpt>
      <trkpt lat="47.52159" lon="6.71621">
        <ele>434.8</ele>
        <time>2016-12-28T14:41:30.000Z</time>
      </trkpt>
      <trkpt lat="47.52158" lon="6.71616">
        <ele>434.9</ele>
        <time>2016-12-28T14:41:31.000Z</time>
      </trkpt>
      <trkpt lat="47.52158" lon="6.7161">
        <ele>435.3</ele>
        <time>2016-12-28T14:41:33.000Z</time>
      </trkpt>
      <trkpt lat="47.52159" lon="6.71606">
        <ele>435.4</ele>
        <time>2016-12-28T14:41:34.000Z</time>
      </trkpt>
      <trkpt lat="47.52159" lon="6.71601">
        <ele>435.5</ele>
        <time>2016-12-28T14:41:36.000Z</time>
      </trkpt>
      <trkpt lat="47.52158" lon="6.71599">
        <ele>435.5</ele>
        <time>2016-12-28T14:41:37.000Z</time>
      </trkpt>
      <trkpt lat="47.52156" lon="6.71595">
        <ele>435.6</ele>
        <time>2016-12-28T14:41:40.000Z</time>
      </trkpt>
      <trkpt lat="47.52154" lon="6.71596">
        <ele>435.6</ele>
        <time>2016-12-28T14:41:41.000Z</time>
      </trkpt>
      <trkpt lat="47.52152" lon="6.71596">
        <ele>435.7</ele>
        <time>2016-12-28T14:41:42.000Z</time>
      </trkpt>
      <trkpt lat="47.5215" lon="6.71597">
        <ele>435.7</ele>
        <time>2016-12-28T14:41:43.000Z</time>
      </trkpt>
      <trkpt lat="47.52146" lon="6.71599">
        <ele>435.8</ele>
        <time>2016-12-28T14:41:46.000Z</time>
      </trkpt>
      <trkpt lat="47.52144" lon="6.71599">
        <ele>435.8</ele>
        <time>2016-12-28T14:41:47.000Z</time>
      </trkpt>
      <trkpt lat="47.52141" lon="6.71601">
        <ele>436.3</ele>
        <time>2016-12-28T14:41:50.000Z</time>
      </trkpt>
      <trkpt lat="47.52139" lon="6.71602">
        <ele>436.5</ele>
        <time>2016-12-28T14:41:51.000Z</time>
      </trkpt>
      <trkpt lat="47.52136" lon="6.71603">
        <ele>436.8</ele>
        <time>2016-12-28T14:41:53.000Z</time>
      </trkpt>
      <trkpt lat="47.52134" lon="6.71604">
        <ele>436.8</ele>
        <time>2016-12-28T14:41:54.000Z</time>
      </trkpt>
      <trkpt lat="47.52131" lon="6.71605">
        <ele>436.9</ele>
        <time>2016-12-28T14:41:56.000Z</time>
      </trkpt>
      <trkpt lat="47.52129" lon="6.71606">
        <ele>436.9</ele>
        <time>2016-12-28T14:41:57.000Z</time>
      </trkpt>
      <trkpt lat="47.52125" lon="6.71609">
        <ele>437.3</ele>
        <time>2016-12-28T14:42:00.000Z</time>
      </trkpt>
      <trkpt lat="47.52123" lon="6.7161">
        <ele>437.3</ele>
        <time>2016-12-28T14:42:01.000Z</time>
      </trkpt>
      <trkpt lat="47.52121" lon="6.71613">
        <ele>437</ele>
        <time>2016-12-28T14:42:04.000Z</time>
      </trkpt>
      <trkpt lat="47.52119" lon="6.71614">
        <ele>436.8</ele>
        <time>2016-12-28T14:42:05.000Z</time>
      </trkpt>
      <trkpt lat="47.52116" lon="6.71617">
        <ele>436.6</ele>
        <time>2016-12-28T14:42:07.000Z</time>
      </trkpt>
      <trkpt lat="47.52113" lon="6.71619">
        <ele>436.5</ele>
        <time>2016-12-28T14:42:08.000Z</time>
      </trkpt>
      <trkpt lat="47.5211" lon="6.71623">
        <ele>436.5</ele>
        <time>2016-12-28T14:42:10.000Z</time>
      </trkpt>
      <trkpt lat="47.52108" lon="6.71625">
        <ele>436.5</ele>
        <time>2016-12-28T14:42:11.000Z</time>
      </trkpt>
      <trkpt lat="47.52105" lon="6.71628">
        <ele>436.7</ele>
        <time>2016-12-28T14:42:13.000Z</time>
      </trkpt>
      <trkpt lat="47.52104" lon="6.7163">
        <ele>436.8</ele>
        <time>2016-12-28T14:42:14.000Z</time>
      </trkpt>
      <trkpt lat="47.52102" lon="6.71632">
        <ele>436.7</ele>
        <time>2016-12-28T14:42:15.000Z</time>
      </trkpt>
      <trkpt lat="47.521" lon="6.71635">
        <ele>436.7</ele>
        <time>2016-12-28T14:42:16.000Z</time>
      </trkpt>
      <trkpt lat="47.52098" lon="6.71637">
        <ele>436.8</ele>
        <time>2016-12-28T14:42:17.000Z</time>
      </trkpt>
      <trkpt lat="47.52096" lon="6.71639">
        <ele>436.8</ele>
        <time>2016-12-28T14:42:18.000Z</time>
      </trkpt>
      <trkpt lat="47.52093" lon="6.71643">
        <ele>437</ele>
        <time>2016-12-28T14:42:20.000Z</time>
      </trkpt>
      <trkpt lat="47.52091" lon="6.71645">
        <ele>437.1</ele>
        <time>2016-12-28T14:42:21.000Z</time>
      </trkpt>
      <trkpt lat="47.52088" lon="6.71647">
        <ele>437.3</ele>
        <time>2016-12-28T14:42:23.000Z</time>
      </trkpt>
      <trkpt lat="47.52086" lon="6.71649">
        <ele>437.3</ele>
        <time>2016-12-28T14:42:24.000Z</time>
      </trkpt>
      <trkpt lat="47.52083" lon="6.71652">
        <ele>437.4</ele>
        <time>2016-12-28T14:42:25.000Z</time>
      </trkpt>
      <trkpt lat="47.52082" lon="6.71654">
        <ele>437.5</ele>
        <time>2016-12-28T14:42:26.000Z</time>
      </trkpt>
      <trkpt lat="47.52079" lon="6.71657">
        <ele>437.7</ele>
        <time>2016-12-28T14:42:28.000Z</time>
      </trkpt>
      <trkpt lat="47.52077" lon="6.71659">
        <ele>437.7</ele>
        <time>2016-12-28T14:42:29.000Z</time>
      </trkpt>
      <trkpt lat="47.52075" lon="6.71663">
        <ele>437.9</ele>
        <time>2016-12-28T14:42:31.000Z</time>
      </trkpt>
      <trkpt lat="47.52073" lon="6.71665">
        <ele>437.9</ele>
        <time>2016-12-28T14:42:32.000Z</time>
      </trkpt>
      <trkpt lat="47.52071" lon="6.71668">
        <ele>437.9</ele>
        <time>2016-12-28T14:42:33.000Z</time>
      </trkpt>
      <trkpt lat="47.5207" lon="6.71671">
        <ele>437.8</ele>
        <time>2016-12-28T14:42:34.000Z</time>
      </trkpt>
      <trkpt lat="47.52067" lon="6.71676">
        <ele>437.6</ele>
        <time>2016-12-28T14:42:36.000Z</time>
      </trkpt>
      <trkpt lat="47.52066" lon="6.71678">
        <ele>437.6</ele>
        <time>2016-12-28T14:42:37.000Z</time>
      </trkpt>
      <trkpt lat="47.52065" lon="6.71681">
        <ele>437.7</ele>
        <time>2016-12-28T14:42:38.000Z</time>
      </trkpt>
      <trkpt lat="47.52064" lon="6.71684">
        <ele>437.8</ele>
        <time>2016-12-28T14:42:39.000Z</time>
      </trkpt>
      <trkpt lat="47.52062" lon="6.71687">
        <ele>437.9</ele>
        <time>2016-12-28T14:42:40.000Z</time>
      </trkpt>
      <trkpt lat="47.52061" lon="6.71691">
        <ele>438</ele>
        <time>2016-12-28T14:42:41.000Z</time>
      </trkpt>
      <trkpt lat="47.5206" lon="6.71694">
        <ele>438</ele>
        <time>2016-12-28T14:42:42.000Z</time>
      </trkpt>
      <trkpt lat="47.52059" lon="6.71697">
        <ele>438</ele>
        <time>2016-12-28T14:42:43.000Z</time>
      </trkpt>
      <trkpt lat="47.52057" lon="6.71701">
        <ele>438</ele>
        <time>2016-12-28T14:42:44.000Z</time>
      </trkpt>
      <trkpt lat="47.52056" lon="6.71705">
        <ele>438.1</ele>
        <time>2016-12-28T14:42:45.000Z</time>
      </trkpt>
      <trkpt lat="47.52054" lon="6.71709">
        <ele>438.1</ele>
        <time>2016-12-28T14:42:46.000Z</time>
      </trkpt>
      <trkpt lat="47.52053" lon="6.71712">
        <ele>438.1</ele>
        <time>2016-12-28T14:42:47.000Z</time>
      </trkpt>
      <trkpt lat="47.52052" lon="6.71715">
        <ele>438.1</ele>
        <time>2016-12-28T14:42:48.000Z</time>
      </trkpt>
      <trkpt lat="47.52051" lon="6.71719">
        <ele>438.2</ele>
        <time>2016-12-28T14:42:49.000Z</time>
      </trkpt>
      <trkpt lat="47.5205" lon="6.71723">
        <ele>438.3</ele>
        <time>2016-12-28T14:42:50.000Z</time>
      </trkpt>
      <trkpt lat="47.52049" lon="6.71726">
        <ele>438.4</ele>
        <time>2016-12-28T14:42:51.000Z</time>
      </trkpt>
      <trkpt lat="47.52049" lon="6.71729">
        <ele>438.5</ele>
        <time>2016-12-28T14:42:52.000Z</time>
      </trkpt>
      <trkpt lat="47.52048" lon="6.71733">
        <ele>438.6</ele>
        <time>2016-12-28T14:42:53.000Z</time>
      </trkpt>
      <trkpt lat="47.52047" lon="6.71737">
        <ele>438.6</ele>
        <time>2016-12-28T14:42:54.000Z</time>
      </trkpt>
      <trkpt lat="47.52045" lon="6.71742">
        <ele>438.6</ele>
        <time>2016-12-28T14:42:55.000Z</time>
      </trkpt>
      <trkpt lat="47.52043" lon="6.71746">
        <ele>438.7</ele>
        <time>2016-12-28T14:42:56.000Z</time>
      </trkpt>
      <trkpt lat="47.52041" lon="6.7175">
        <ele>438.7</ele>
        <time>2016-12-28T14:42:57.000Z</time>
      </trkpt>
      <trkpt lat="47.52041" lon="6.71754">
        <ele>438.7</ele>
        <time>2016-12-28T14:42:58.000Z</time>
      </trkpt>
      <trkpt lat="47.5204" lon="6.71761">
        <ele>438.6</ele>
        <time>2016-12-28T14:42:59.000Z</time>
      </trkpt>
      <trkpt lat="47.52039" lon="6.71768">
        <ele>438.1</ele>
        <time>2016-12-28T14:43:00.000Z</time>
      </trkpt>
      <trkpt lat="47.52038" lon="6.71776">
        <ele>437.3</ele>
        <time>2016-12-28T14:43:01.000Z</time>
      </trkpt>
      <trkpt lat="47.52038" lon="6.71784">
        <ele>436.5</ele>
        <time>2016-12-28T14:43:02.000Z</time>
      </trkpt>
      <trkpt lat="47.52037" lon="6.71792">
        <ele>435.6</ele>
        <time>2016-12-28T14:43:03.000Z</time>
      </trkpt>
      <trkpt lat="47.52036" lon="6.71799">
        <ele>433.8</ele>
        <time>2016-12-28T14:43:04.000Z</time>
      </trkpt>
      <trkpt lat="47.52036" lon="6.71805">
        <ele>433.7</ele>
        <time>2016-12-28T14:43:05.000Z</time>
      </trkpt>
      <trkpt lat="47.52036" lon="6.7181">
        <ele>433.5</ele>
        <time>2016-12-28T14:43:06.000Z</time>
      </trkpt>
      <trkpt lat="47.52037" lon="6.71818">
        <ele>432.1</ele>
        <time>2016-12-28T14:43:07.000Z</time>
      </trkpt>
      <trkpt lat="47.52037" lon="6.71827">
        <ele>432.3</ele>
        <time>2016-12-28T14:43:08.000Z</time>
      </trkpt>
      <trkpt lat="47.52037" lon="6.71836">
        <ele>431.5</ele>
        <time>2016-12-28T14:43:09.000Z</time>
      </trkpt>
      <trkpt lat="47.52036" lon="6.71846">
        <ele>429.9</ele>
        <time>2016-12-28T14:43:10.000Z</time>
      </trkpt>
      <trkpt lat="47.52035" lon="6.71855">
        <ele>428.6</ele>
        <time>2016-12-28T14:43:11.000Z</time>
      </trkpt>
      <trkpt lat="47.52035" lon="6.71864">
        <ele>427.6</ele>
        <time>2016-12-28T14:43:12.000Z</time>
      </trkpt>
      <trkpt lat="47.52035" lon="6.71871">
        <ele>427.5</ele>
        <time>2016-12-28T14:43:13.000Z</time>
      </trkpt>
      <trkpt lat="47.52035" lon="6.71879">
        <ele>427.3</ele>
        <time>2016-12-28T14:43:14.000Z</time>
      </trkpt>
      <trkpt lat="47.52036" lon="6.71888">
        <ele>424.6</ele>
        <time>2016-12-28T14:43:15.000Z</time>
      </trkpt>
      <trkpt lat="47.52037" lon="6.71897">
        <ele>422.9</ele>
        <time>2016-12-28T14:43:16.000Z</time>
      </trkpt>
      <trkpt lat="47.52037" lon="6.71907">
        <ele>420.9</ele>
        <time>2016-12-28T14:43:17.000Z</time>
      </trkpt>
      <trkpt lat="47.52037" lon="6.71917">
        <ele>419.2</ele>
        <time>2016-12-28T14:43:18.000Z</time>
      </trkpt>
      <trkpt lat="47.52038" lon="6.71928">
        <ele>417.3</ele>
        <time>2016-12-28T14:43:19.000Z</time>
      </trkpt>
      <trkpt lat="47.52039" lon="6.71937">
        <ele>416.6</ele>
        <time>2016-12-28T14:43:20.000Z</time>
      </trkpt>
      <trkpt lat="47.5204" lon="6.71946">
        <ele>416.7</ele>
        <time>2016-12-28T14:43:21.000Z</time>
      </trkpt>
      <trkpt lat="47.52041" lon="6.71955">
        <ele>417.2</ele>
        <time>2016-12-28T14:43:22.000Z</time>
      </trkpt>
      <trkpt lat="47.52041" lon="6.71965">
        <ele>417.2</ele>
        <time>2016-12-28T14:43:23.000Z</time>
      </trkpt>
      <trkpt lat="47.52042" lon="6.71974">
        <ele>417.5</ele>
        <time>2016-12-28T14:43:24.000Z</time>
      </trkpt>
      <trkpt lat="47.52042" lon="6.71985">
        <ele>418.1</ele>
        <time>2016-12-28T14:43:25.000Z</time>
      </trkpt>
      <trkpt lat="47.52042" lon="6.71996">
        <ele>419</ele>
        <time>2016-12-28T14:43:26.000Z</time>
      </trkpt>
      <trkpt lat="47.52041" lon="6.72009">
        <ele>419.7</ele>
        <time>2016-12-28T14:43:27.000Z</time>
      </trkpt>
      <trkpt lat="47.5204" lon="6.7202">
        <ele>420</ele>
        <time>2016-12-28T14:43:28.000Z</time>
      </trkpt>
      <trkpt lat="47.5204" lon="6.72032">
        <ele>421.3</ele>
        <time>2016-12-28T14:43:29.000Z</time>
      </trkpt>
      <trkpt lat="47.5204" lon="6.72045">
        <ele>423.3</ele>
        <time>2016-12-28T14:43:30.000Z</time>
      </trkpt>
      <trkpt lat="47.52039" lon="6.72056">
        <ele>425.1</ele>
        <time>2016-12-28T14:43:31.000Z</time>
      </trkpt>
      <trkpt lat="47.52038" lon="6.72067">
        <ele>426.8</ele>
        <time>2016-12-28T14:43:32.000Z</time>
      </trkpt>
      <trkpt lat="47.52037" lon="6.72081">
        <ele>428.6</ele>
        <time>2016-12-28T14:43:33.000Z</time>
      </trkpt>
      <trkpt lat="47.52037" lon="6.72092">
        <ele>431</ele>
        <time>2016-12-28T14:43:34.000Z</time>
      </trkpt>
      <trkpt lat="47.52034" lon="6.72108">
        <ele>432.3</ele>
        <time>2016-12-28T14:43:35.000Z</time>
      </trkpt>
      <trkpt lat="47.52031" lon="6.72122">
        <ele>433.7</ele>
        <time>2016-12-28T14:43:36.000Z</time>
      </trkpt>
      <trkpt lat="47.52026" lon="6.72137">
        <ele>435.3</ele>
        <time>2016-12-28T14:43:37.000Z</time>
      </trkpt>
      <trkpt lat="47.52021" lon="6.7215">
        <ele>436.2</ele>
        <time>2016-12-28T14:43:38.000Z</time>
      </trkpt>
      <trkpt lat="47.52016" lon="6.72162">
        <ele>437.5</ele>
        <time>2016-12-28T14:43:39.000Z</time>
      </trkpt>
      <trkpt lat="47.52013" lon="6.72173">
        <ele>438.6</ele>
        <time>2016-12-28T14:43:40.000Z</time>
      </trkpt>
      <trkpt lat="47.5201" lon="6.72185">
        <ele>438.6</ele>
        <time>2016-12-28T14:43:41.000Z</time>
      </trkpt>
      <trkpt lat="47.52006" lon="6.72195">
        <ele>438</ele>
        <time>2016-12-28T14:43:42.000Z</time>
      </trkpt>
      <trkpt lat="47.52003" lon="6.72205">
        <ele>437.1</ele>
        <time>2016-12-28T14:43:43.000Z</time>
      </trkpt>
      <trkpt lat="47.51999" lon="6.72214">
        <ele>435.2</ele>
        <time>2016-12-28T14:43:44.000Z</time>
      </trkpt>
      <trkpt lat="47.51994" lon="6.72222">
        <ele>433.8</ele>
        <time>2016-12-28T14:43:45.000Z</time>
      </trkpt>
      <trkpt lat="47.51989" lon="6.72229">
        <ele>432</ele>
        <time>2016-12-28T14:43:46.000Z</time>
      </trkpt>
      <trkpt lat="47.51985" lon="6.72232">
        <ele>429.1</ele>
        <time>2016-12-28T14:43:47.000Z</time>
      </trkpt>
      <trkpt lat="47.51981" lon="6.72235">
        <ele>427</ele>
        <time>2016-12-28T14:43:48.000Z</time>
      </trkpt>
      <trkpt lat="47.51976" lon="6.72239">
        <ele>426.6</ele>
        <time>2016-12-28T14:43:49.000Z</time>
      </trkpt>
      <trkpt lat="47.51973" lon="6.72242">
        <ele>425.7</ele>
        <time>2016-12-28T14:43:50.000Z</time>
      </trkpt>
      <trkpt lat="47.5197" lon="6.72244">
        <ele>425.7</ele>
        <time>2016-12-28T14:43:51.000Z</time>
      </trkpt>
      <trkpt lat="47.51967" lon="6.72243">
        <ele>425.6</ele>
        <time>2016-12-28T14:43:52.000Z</time>
      </trkpt>
      <trkpt lat="47.51963" lon="6.72241">
        <ele>425.4</ele>
        <time>2016-12-28T14:43:53.000Z</time>
      </trkpt>
      <trkpt lat="47.51954" lon="6.7224">
        <ele>424.6</ele>
        <time>2016-12-28T14:43:54.000Z</time>
      </trkpt>
      <trkpt lat="47.51946" lon="6.72239">
        <ele>423.8</ele>
        <time>2016-12-28T14:43:55.000Z</time>
      </trkpt>
      <trkpt lat="47.51938" lon="6.72238">
        <ele>423.8</ele>
        <time>2016-12-28T14:43:56.000Z</time>
      </trkpt>
      <trkpt lat="47.51931" lon="6.72237">
        <ele>423.7</ele>
        <time>2016-12-28T14:43:57.000Z</time>
      </trkpt>
      <trkpt lat="47.51924" lon="6.72234">
        <ele>423.8</ele>
        <time>2016-12-28T14:43:58.000Z</time>
      </trkpt>
      <trkpt lat="47.51918" lon="6.72233">
        <ele>424</ele>
        <time>2016-12-28T14:43:59.000Z</time>
      </trkpt>
      <trkpt lat="47.51913" lon="6.72232">
        <ele>424.3</ele>
        <time>2016-12-28T14:44:00.000Z</time>
      </trkpt>
      <trkpt lat="47.51904" lon="6.72231">
        <ele>424.7</ele>
        <time>2016-12-28T14:44:01.000Z</time>
      </trkpt>
      <trkpt lat="47.51897" lon="6.7223">
        <ele>425.1</ele>
        <time>2016-12-28T14:44:02.000Z</time>
      </trkpt>
      <trkpt lat="47.51891" lon="6.72229">
        <ele>425.4</ele>
        <time>2016-12-28T14:44:03.000Z</time>
      </trkpt>
      <trkpt lat="47.51886" lon="6.72229">
        <ele>425.8</ele>
        <time>2016-12-28T14:44:04.000Z</time>
      </trkpt>
      <trkpt lat="47.51883" lon="6.7223">
        <ele>426.5</ele>
        <time>2016-12-28T14:44:07.000Z</time>
      </trkpt>
      <trkpt lat="47.51882" lon="6.7223">
        <ele>426.6</ele>
        <time>2016-12-28T14:44:08.000Z</time>
      </trkpt>
      <trkpt lat="47.51881" lon="6.72229">
        <ele>426</ele>
        <time>2016-12-28T14:44:14.000Z</time>
      </trkpt>
      <trkpt lat="47.51855" lon="6.72228">
        <ele>425.8</ele>
        <time>2016-12-28T14:44:15.000Z</time>
      </trkpt>
      <trkpt lat="47.51855" lon="6.72228">
        <ele>424.8</ele>
        <time>2016-12-28T14:44:21.000Z</time>
      </trkpt>
      <trkpt lat="47.51842" lon="6.72228">
        <ele>424.6</ele>
        <time>2016-12-28T14:44:22.000Z</time>
      </trkpt>
      <trkpt lat="47.51842" lon="6.72228">
        <ele>425</ele>
        <time>2016-12-28T14:44:26.000Z</time>
      </trkpt>
      <trkpt lat="47.51831" lon="6.72224">
        <ele>425.1</ele>
        <time>2016-12-28T14:44:27.000Z</time>
      </trkpt>
      <trkpt lat="47.51831" lon="6.72224">
        <ele>427.5</ele>
        <time>2016-12-28T14:44:36.000Z</time>
      </trkpt>
      <trkpt lat="47.51818" lon="6.72216">
        <ele>428</ele>
        <time>2016-12-28T14:44:37.000Z</time>
      </trkpt>
      <trkpt lat="47.51818" lon="6.72216">
        <ele>422.5</ele>
        <time>2016-12-28T14:46:11.000Z</time>
      </trkpt>
      <trkpt lat="47.51823" lon="6.7219">
        <ele>422.6</ele>
        <time>2016-12-28T14:46:12.000Z</time>
      </trkpt>
      <trkpt lat="47.51823" lon="6.7219">
        <ele>422</ele>
        <time>2016-12-28T14:46:19.000Z</time>
      </trkpt>
      <trkpt lat="47.5183" lon="6.72175">
        <ele>421.8</ele>
        <time>2016-12-28T14:46:20.000Z</time>
      </trkpt>
      <trkpt lat="47.5183" lon="6.72175">
        <ele>422.6</ele>
        <time>2016-12-28T14:46:38.000Z</time>
      </trkpt>
      <trkpt lat="47.51839" lon="6.72167">
        <ele>422.7</ele>
        <time>2016-12-28T14:46:39.000Z</time>
      </trkpt>
      <trkpt lat="47.51839" lon="6.72167">
        <ele>422.7</ele>
        <time>2016-12-28T14:47:06.000Z</time>
      </trkpt>
      <trkpt lat="47.51854" lon="6.72165">
        <ele>422.5</ele>
        <time>2016-12-28T14:47:07.000Z</time>
      </trkpt>
      <trkpt lat="47.51854" lon="6.72165">
        <ele>422.4</ele>
        <time>2016-12-28T14:47:08.000Z</time>
      </trkpt>
      <trkpt lat="47.51859" lon="6.72162">
        <ele>422.2</ele>
        <time>2016-12-28T14:47:09.000Z</time>
      </trkpt>
      <trkpt lat="47.51862" lon="6.72161">
        <ele>422</ele>
        <time>2016-12-28T14:47:10.000Z</time>
      </trkpt>
      <trkpt lat="47.51864" lon="6.7216">
        <ele>421.8</ele>
        <time>2016-12-28T14:47:11.000Z</time>
      </trkpt>
      <trkpt lat="47.51868" lon="6.72158">
        <ele>421.5</ele>
        <time>2016-12-28T14:47:13.000Z</time>
      </trkpt>
      <trkpt lat="47.5187" lon="6.72159">
        <ele>421.2</ele>
        <time>2016-12-28T14:47:14.000Z</time>
      </trkpt>
      <trkpt lat="47.51874" lon="6.72159">
        <ele>421.1</ele>
        <time>2016-12-28T14:47:16.000Z</time>
      </trkpt>
      <trkpt lat="47.51876" lon="6.7216">
        <ele>421</ele>
        <time>2016-12-28T14:47:17.000Z</time>
      </trkpt>
      <trkpt lat="47.51878" lon="6.72161">
        <ele>420.9</ele>
        <time>2016-12-28T14:47:18.000Z</time>
      </trkpt>
      <trkpt lat="47.51881" lon="6.72162">
        <ele>420.8</ele>
        <time>2016-12-28T14:47:19.000Z</time>
      </trkpt>
      <trkpt lat="47.51885" lon="6.72164">
        <ele>420.8</ele>
        <time>2016-12-28T14:47:20.000Z</time>
      </trkpt>
      <trkpt lat="47.51888" lon="6.72165">
        <ele>420.7</ele>
        <time>2016-12-28T14:47:21.000Z</time>
      </trkpt>
      <trkpt lat="47.51891" lon="6.72166">
        <ele>420.6</ele>
        <time>2016-12-28T14:47:22.000Z</time>
      </trkpt>
      <trkpt lat="47.51894" lon="6.72167">
        <ele>420.6</ele>
        <time>2016-12-28T14:47:23.000Z</time>
      </trkpt>
      <trkpt lat="47.51898" lon="6.72166">
        <ele>420.5</ele>
        <time>2016-12-28T14:47:24.000Z</time>
      </trkpt>
      <trkpt lat="47.519" lon="6.72163">
        <ele>420.4</ele>
        <time>2016-12-28T14:47:25.000Z</time>
      </trkpt>
      <trkpt lat="47.51902" lon="6.72161">
        <ele>420.2</ele>
        <time>2016-12-28T14:47:26.000Z</time>
      </trkpt>
      <trkpt lat="47.51905" lon="6.7216">
        <ele>420</ele>
        <time>2016-12-28T14:47:27.000Z</time>
      </trkpt>
      <trkpt lat="47.51907" lon="6.72159">
        <ele>419.8</ele>
        <time>2016-12-28T14:47:28.000Z</time>
      </trkpt>
      <trkpt lat="47.5191" lon="6.72156">
        <ele>419.8</ele>
        <time>2016-12-28T14:47:32.000Z</time>
      </trkpt>
      <trkpt lat="47.5191" lon="6.72153">
        <ele>420</ele>
        <time>2016-12-28T14:47:33.000Z</time>
      </trkpt>
      <trkpt lat="47.5191" lon="6.7215">
        <ele>420.9</ele>
        <time>2016-12-28T14:47:37.000Z</time>
      </trkpt>
      <trkpt lat="47.51911" lon="6.72139">
        <ele>421.2</ele>
        <time>2016-12-28T14:47:38.000Z</time>
      </trkpt>
      <trkpt lat="47.51913" lon="6.72134">
        <ele>421.5</ele>
        <time>2016-12-28T14:47:39.000Z</time>
      </trkpt>
      <trkpt lat="47.51913" lon="6.72128">
        <ele>422</ele>
        <time>2016-12-28T14:47:40.000Z</time>
      </trkpt>
      <trkpt lat="47.51913" lon="6.72128">
        <ele>424.4</ele>
        <time>2016-12-28T14:47:46.000Z</time>
      </trkpt>
      <trkpt lat="47.51909" lon="6.72109">
        <ele>424.7</ele>
        <time>2016-12-28T14:47:47.000Z</time>
      </trkpt>
      <trkpt lat="47.51909" lon="6.72109">
        <ele>426</ele>
        <time>2016-12-28T14:47:51.000Z</time>
      </trkpt>
      <trkpt lat="47.51905" lon="6.7209">
        <ele>426.2</ele>
        <time>2016-12-28T14:47:52.000Z</time>
      </trkpt>
      <trkpt lat="47.51905" lon="6.7209">
        <ele>426.8</ele>
        <time>2016-12-28T14:47:54.000Z</time>
      </trkpt>
      <trkpt lat="47.51903" lon="6.72073">
        <ele>427</ele>
        <time>2016-12-28T14:47:55.000Z</time>
      </trkpt>
      <trkpt lat="47.51903" lon="6.72073">
        <ele>428.4</ele>
        <time>2016-12-28T14:48:02.000Z</time>
      </trkpt>
      <trkpt lat="47.51905" lon="6.72049">
        <ele>428.7</ele>
        <time>2016-12-28T14:48:03.000Z</time>
      </trkpt>
      <trkpt lat="47.51905" lon="6.72049">
        <ele>429</ele>
        <time>2016-12-28T14:48:04.000Z</time>
      </trkpt>
      <trkpt lat="47.51905" lon="6.72036">
        <ele>429.3</ele>
        <time>2016-12-28T14:48:05.000Z</time>
      </trkpt>
      <trkpt lat="47.51906" lon="6.72031">
        <ele>429.5</ele>
        <time>2016-12-28T14:48:06.000Z</time>
      </trkpt>
      <trkpt lat="47.51909" lon="6.72023">
        <ele>429.7</ele>
        <time>2016-12-28T14:48:07.000Z</time>
      </trkpt>
      <trkpt lat="47.5191" lon="6.72019">
        <ele>430</ele>
        <time>2016-12-28T14:48:08.000Z</time>
      </trkpt>
      <trkpt lat="47.51911" lon="6.72015">
        <ele>430.2</ele>
        <time>2016-12-28T14:48:09.000Z</time>
      </trkpt>
      <trkpt lat="47.51911" lon="6.72009">
        <ele>430.7</ele>
        <time>2016-12-28T14:48:11.000Z</time>
      </trkpt>
      <trkpt lat="47.51911" lon="6.72005">
        <ele>430.9</ele>
        <time>2016-12-28T14:48:12.000Z</time>
      </trkpt>
      <trkpt lat="47.51911" lon="6.72001">
        <ele>431.3</ele>
        <time>2016-12-28T14:48:13.000Z</time>
      </trkpt>
      <trkpt lat="47.51911" lon="6.71998">
        <ele>431.7</ele>
        <time>2016-12-28T14:48:14.000Z</time>
      </trkpt>
      <trkpt lat="47.5191" lon="6.71994">
        <ele>432</ele>
        <time>2016-12-28T14:48:15.000Z</time>
      </trkpt>
      <trkpt lat="47.51909" lon="6.7199">
        <ele>432.3</ele>
        <time>2016-12-28T14:48:16.000Z</time>
      </trkpt>
      <trkpt lat="47.51908" lon="6.71986">
        <ele>432.6</ele>
        <time>2016-12-28T14:48:17.000Z</time>
      </trkpt>
      <trkpt lat="47.51907" lon="6.71979">
        <ele>432.8</ele>
        <time>2016-12-28T14:48:18.000Z</time>
      </trkpt>
      <trkpt lat="47.51907" lon="6.71974">
        <ele>433</ele>
        <time>2016-12-28T14:48:19.000Z</time>
      </trkpt>
      <trkpt lat="47.51906" lon="6.7197">
        <ele>433.2</ele>
        <time>2016-12-28T14:48:20.000Z</time>
      </trkpt>
      <trkpt lat="47.51905" lon="6.71968">
        <ele>436.4</ele>
        <time>2016-12-28T14:48:32.000Z</time>
      </trkpt>
      <trkpt lat="47.51899" lon="6.71931">
        <ele>436.7</ele>
        <time>2016-12-28T14:48:33.000Z</time>
      </trkpt>
      <trkpt lat="47.51899" lon="6.71931">
        <ele>437.2</ele>
        <time>2016-12-28T14:48:35.000Z</time>
      </trkpt>
      <trkpt lat="47.51896" lon="6.7192">
        <ele>437.6</ele>
        <time>2016-12-28T14:48:36.000Z</time>
      </trkpt>
      <trkpt lat="47.51894" lon="6.71914">
        <ele>438.8</ele>
        <time>2016-12-28T14:48:41.000Z</time>
      </trkpt>
      <trkpt lat="47.5189" lon="6.71897">
        <ele>438.9</ele>
        <time>2016-12-28T14:48:42.000Z</time>
      </trkpt>
      <trkpt lat="47.51889" lon="6.71893">
        <ele>439</ele>
        <time>2016-12-28T14:48:43.000Z</time>
      </trkpt>
      <trkpt lat="47.51888" lon="6.71889">
        <ele>439</ele>
        <time>2016-12-28T14:48:44.000Z</time>
      </trkpt>
      <trkpt lat="47.51887" lon="6.71885">
        <ele>439</ele>
        <time>2016-12-28T14:48:45.000Z</time>
      </trkpt>
      <trkpt lat="47.51886" lon="6.71882">
        <ele>439.1</ele>
        <time>2016-12-28T14:48:46.000Z</time>
      </trkpt>
      <trkpt lat="47.51885" lon="6.71876">
        <ele>439.3</ele>
        <time>2016-12-28T14:48:48.000Z</time>
      </trkpt>
      <trkpt lat="47.51884" lon="6.71873">
        <ele>439.4</ele>
        <time>2016-12-28T14:48:49.000Z</time>
      </trkpt>
      <trkpt lat="47.51882" lon="6.71866">
        <ele>439.5</ele>
        <time>2016-12-28T14:48:50.000Z</time>
      </trkpt>
      <trkpt lat="47.51882" lon="6.7186">
        <ele>439.7</ele>
        <time>2016-12-28T14:48:52.000Z</time>
      </trkpt>
      <trkpt lat="47.51881" lon="6.71857">
        <ele>439.7</ele>
        <time>2016-12-28T14:48:53.000Z</time>
      </trkpt>
      <trkpt lat="47.51877" lon="6.71856">
        <ele>439.9</ele>
        <time>2016-12-28T14:49:03.000Z</time>
      </trkpt>
      <trkpt lat="47.51875" lon="6.71856">
        <ele>439.6</ele>
        <time>2016-12-28T14:49:04.000Z</time>
      </trkpt>
      <trkpt lat="47.51874" lon="6.71856">
        <ele>439.3</ele>
        <time>2016-12-28T14:49:05.000Z</time>
      </trkpt>
      <trkpt lat="47.51871" lon="6.71856">
        <ele>439.1</ele>
        <time>2016-12-28T14:49:06.000Z</time>
      </trkpt>
      <trkpt lat="47.51869" lon="6.71852">
        <ele>441.2</ele>
        <time>2016-12-28T14:49:20.000Z</time>
      </trkpt>
      <trkpt lat="47.51869" lon="6.7185">
        <ele>441.3</ele>
        <time>2016-12-28T14:49:21.000Z</time>
      </trkpt>
      <trkpt lat="47.51867" lon="6.71844">
        <ele>440.8</ele>
        <time>2016-12-28T14:49:34.000Z</time>
      </trkpt>
      <trkpt lat="47.51865" lon="6.71842">
        <ele>440.7</ele>
        <time>2016-12-28T14:49:35.000Z</time>
      </trkpt>
      <trkpt lat="47.51864" lon="6.71836">
        <ele>440.6</ele>
        <time>2016-12-28T14:49:38.000Z</time>
      </trkpt>
      <trkpt lat="47.51864" lon="6.71834">
        <ele>440.6</ele>
        <time>2016-12-28T14:49:39.000Z</time>
      </trkpt>
      <trkpt lat="47.51865" lon="6.71829">
        <ele>440.6</ele>
        <time>2016-12-28T14:49:41.000Z</time>
      </trkpt>
      <trkpt lat="47.51864" lon="6.71826">
        <ele>440.5</ele>
        <time>2016-12-28T14:49:42.000Z</time>
      </trkpt>
      <trkpt lat="47.51862" lon="6.71823">
        <ele>440.3</ele>
        <time>2016-12-28T14:49:44.000Z</time>
      </trkpt>
      <trkpt lat="47.51861" lon="6.71821">
        <ele>440.2</ele>
        <time>2016-12-28T14:49:45.000Z</time>
      </trkpt>
      <trkpt lat="47.51859" lon="6.71818">
        <ele>440.1</ele>
        <time>2016-12-28T14:49:46.000Z</time>
      </trkpt>
      <trkpt lat="47.51856" lon="6.71812">
        <ele>439.9</ele>
        <time>2016-12-28T14:49:47.000Z</time>
      </trkpt>
      <trkpt lat="47.51854" lon="6.71808">
        <ele>439.6</ele>
        <time>2016-12-28T14:49:49.000Z</time>
      </trkpt>
      <trkpt lat="47.51853" lon="6.71805">
        <ele>439.6</ele>
        <time>2016-12-28T14:49:50.000Z</time>
      </trkpt>
      <trkpt lat="47.5185" lon="6.71803">
        <ele>439.6</ele>
        <time>2016-12-28T14:49:51.000Z</time>
      </trkpt>
      <trkpt lat="47.51847" lon="6.71799">
        <ele>439.5</ele>
        <time>2016-12-28T14:49:52.000Z</time>
      </trkpt>
      <trkpt lat="47.51847" lon="6.71794">
        <ele>439.5</ele>
        <time>2016-12-28T14:49:53.000Z</time>
      </trkpt>
      <trkpt lat="47.51846" lon="6.71792">
        <ele>439.5</ele>
        <time>2016-12-28T14:49:54.000Z</time>
      </trkpt>
      <trkpt lat="47.51845" lon="6.7179">
        <ele>439.5</ele>
        <time>2016-12-28T14:49:55.000Z</time>
      </trkpt>
      <trkpt lat="47.51843" lon="6.71787">
        <ele>439.4</ele>
        <time>2016-12-28T14:49:56.000Z</time>
      </trkpt>
      <trkpt lat="47.5184" lon="6.71784">
        <ele>439.2</ele>
        <time>2016-12-28T14:49:57.000Z</time>
      </trkpt>
      <trkpt lat="47.51837" lon="6.71781">
        <ele>439</ele>
        <time>2016-12-28T14:49:58.000Z</time>
      </trkpt>
      <trkpt lat="47.51834" lon="6.71777">
        <ele>438.7</ele>
        <time>2016-12-28T14:49:59.000Z</time>
      </trkpt>
      <trkpt lat="47.51832" lon="6.71774">
        <ele>438.4</ele>
        <time>2016-12-28T14:50:00.000Z</time>
      </trkpt>
      <trkpt lat="47.51828" lon="6.7177">
        <ele>437.6</ele>
        <time>2016-12-28T14:50:02.000Z</time>
      </trkpt>
      <trkpt lat="47.51828" lon="6.71769">
        <ele>437.3</ele>
        <time>2016-12-28T14:50:03.000Z</time>
      </trkpt>
      <trkpt lat="47.51825" lon="6.71767">
        <ele>437.1</ele>
        <time>2016-12-28T14:50:04.000Z</time>
      </trkpt>
      <trkpt lat="47.51821" lon="6.71765">
        <ele>436.8</ele>
        <time>2016-12-28T14:50:05.000Z</time>
      </trkpt>
      <trkpt lat="47.51819" lon="6.71761">
        <ele>436.1</ele>
        <time>2016-12-28T14:50:07.000Z</time>
      </trkpt>
      <trkpt lat="47.51818" lon="6.71758">
        <ele>435.6</ele>
        <time>2016-12-28T14:50:08.000Z</time>
      </trkpt>
      <trkpt lat="47.51819" lon="6.71751">
        <ele>434.5</ele>
        <time>2016-12-28T14:50:11.000Z</time>
      </trkpt>
      <trkpt lat="47.51818" lon="6.7175">
        <ele>434</ele>
        <time>2016-12-28T14:50:12.000Z</time>
      </trkpt>
      <trkpt lat="47.51817" lon="6.71744">
        <ele>433.2</ele>
        <time>2016-12-28T14:50:14.000Z</time>
      </trkpt>
      <trkpt lat="47.51816" lon="6.71739">
        <ele>432.9</ele>
        <time>2016-12-28T14:50:15.000Z</time>
      </trkpt>
      <trkpt lat="47.51814" lon="6.71734">
        <ele>432.5</ele>
        <time>2016-12-28T14:50:17.000Z</time>
      </trkpt>
      <trkpt lat="47.51813" lon="6.7173">
        <ele>432.3</ele>
        <time>2016-12-28T14:50:18.000Z</time>
      </trkpt>
      <trkpt lat="47.51813" lon="6.71728">
        <ele>431.8</ele>
        <time>2016-12-28T14:50:20.000Z</time>
      </trkpt>
      <trkpt lat="47.5181" lon="6.71726">
        <ele>431.7</ele>
        <time>2016-12-28T14:50:21.000Z</time>
      </trkpt>
      <trkpt lat="47.51803" lon="6.71721">
        <ele>431.6</ele>
        <time>2016-12-28T14:50:22.000Z</time>
      </trkpt>
      <trkpt lat="47.518" lon="6.71718">
        <ele>431.5</ele>
        <time>2016-12-28T14:50:23.000Z</time>
      </trkpt>
      <trkpt lat="47.51799" lon="6.71712">
        <ele>431.4</ele>
        <time>2016-12-28T14:50:24.000Z</time>
      </trkpt>
      <trkpt lat="47.51798" lon="6.71708">
        <ele>431.3</ele>
        <time>2016-12-28T14:50:25.000Z</time>
      </trkpt>
      <trkpt lat="47.51795" lon="6.71706">
        <ele>431.2</ele>
        <time>2016-12-28T14:50:26.000Z</time>
      </trkpt>
      <trkpt lat="47.51793" lon="6.71701">
        <ele>432.6</ele>
        <time>2016-12-28T14:50:35.000Z</time>
      </trkpt>
      <trkpt lat="47.51791" lon="6.71698">
        <ele>432.9</ele>
        <time>2016-12-28T14:50:36.000Z</time>
      </trkpt>
      <trkpt lat="47.51792" lon="6.71692">
        <ele>433.8</ele>
        <time>2016-12-28T14:50:40.000Z</time>
      </trkpt>
      <trkpt lat="47.51792" lon="6.7169">
        <ele>434.1</ele>
        <time>2016-12-28T14:50:41.000Z</time>
      </trkpt>
      <trkpt lat="47.51792" lon="6.71687">
        <ele>434.5</ele>
        <time>2016-12-28T14:50:42.000Z</time>
      </trkpt>
      <trkpt lat="47.5179" lon="6.71683">
        <ele>435.1</ele>
        <time>2016-12-28T14:50:43.000Z</time>
      </trkpt>
      <trkpt lat="47.51787" lon="6.71678">
        <ele>437.9</ele>
        <time>2016-12-28T14:50:50.000Z</time>
      </trkpt>
      <trkpt lat="47.51786" lon="6.71676">
        <ele>438.2</ele>
        <time>2016-12-28T14:50:51.000Z</time>
      </trkpt>
      <trkpt lat="47.51786" lon="6.71673">
        <ele>438.4</ele>
        <time>2016-12-28T14:50:52.000Z</time>
      </trkpt>
      <trkpt lat="47.51782" lon="6.71667">
        <ele>438.6</ele>
        <time>2016-12-28T14:50:53.000Z</time>
      </trkpt>
      <trkpt lat="47.51779" lon="6.71664">
        <ele>439</ele>
        <time>2016-12-28T14:50:55.000Z</time>
      </trkpt>
      <trkpt lat="47.51777" lon="6.71662">
        <ele>439.3</ele>
        <time>2016-12-28T14:50:56.000Z</time>
      </trkpt>
      <trkpt lat="47.5177" lon="6.71657">
        <ele>439.6</ele>
        <time>2016-12-28T14:50:57.000Z</time>
      </trkpt>
      <trkpt lat="47.51767" lon="6.71653">
        <ele>441.5</ele>
        <time>2016-12-28T14:51:03.000Z</time>
      </trkpt>
      <trkpt lat="47.51764" lon="6.71652">
        <ele>441.9</ele>
        <time>2016-12-28T14:51:04.000Z</time>
      </trkpt>
      <trkpt lat="47.51759" lon="6.71651">
        <ele>443.1</ele>
        <time>2016-12-28T14:51:08.000Z</time>
      </trkpt>
      <trkpt lat="47.51758" lon="6.7165">
        <ele>443.3</ele>
        <time>2016-12-28T14:51:09.000Z</time>
      </trkpt>
      <trkpt lat="47.51756" lon="6.71649">
        <ele>444.1</ele>
        <time>2016-12-28T14:51:12.000Z</time>
      </trkpt>
      <trkpt lat="47.51752" lon="6.71651">
        <ele>444.3</ele>
        <time>2016-12-28T14:51:13.000Z</time>
      </trkpt>
      <trkpt lat="47.5175" lon="6.71654">
        <ele>445.6</ele>
        <time>2016-12-28T14:51:17.000Z</time>
      </trkpt>
      <trkpt lat="47.51748" lon="6.71656">
        <ele>445.8</ele>
        <time>2016-12-28T14:51:18.000Z</time>
      </trkpt>
      <trkpt lat="47.51745" lon="6.71657">
        <ele>446</ele>
        <time>2016-12-28T14:51:19.000Z</time>
      </trkpt>
      <trkpt lat="47.51743" lon="6.71656">
        <ele>446.2</ele>
        <time>2016-12-28T14:51:20.000Z</time>
      </trkpt>
      <trkpt lat="47.51739" lon="6.71657">
        <ele>446.6</ele>
        <time>2016-12-28T14:51:25.000Z</time>
      </trkpt>
      <trkpt lat="47.51737" lon="6.71658">
        <ele>446.7</ele>
        <time>2016-12-28T14:51:26.000Z</time>
      </trkpt>
      <trkpt lat="47.51733" lon="6.7166">
        <ele>447.4</ele>
        <time>2016-12-28T14:51:30.000Z</time>
      </trkpt>
      <trkpt lat="47.51733" lon="6.7166">
        <ele>447.5</ele>
        <time>2016-12-28T14:51:31.000Z</time>
      </trkpt>
      <trkpt lat="47.51732" lon="6.71662">
        <ele>448.2</ele>
        <time>2016-12-28T14:51:40.000Z</time>
      </trkpt>
      <trkpt lat="47.51728" lon="6.71663">
        <ele>448.1</ele>
        <time>2016-12-28T14:51:41.000Z</time>
      </trkpt>
      <trkpt lat="47.51724" lon="6.71666">
        <ele>446.8</ele>
        <time>2016-12-28T14:51:49.000Z</time>
      </trkpt>
      <trkpt lat="47.51721" lon="6.71667">
        <ele>446.6</ele>
        <time>2016-12-28T14:51:50.000Z</time>
      </trkpt>
      <trkpt lat="47.5172" lon="6.71669">
        <ele>446.6</ele>
        <time>2016-12-28T14:51:51.000Z</time>
      </trkpt>
      <trkpt lat="47.51717" lon="6.71671">
        <ele>446.6</ele>
        <time>2016-12-28T14:51:52.000Z</time>
      </trkpt>
      <trkpt lat="47.51712" lon="6.71674">
        <ele>446.5</ele>
        <time>2016-12-28T14:51:53.000Z</time>
      </trkpt>
      <trkpt lat="47.51709" lon="6.71675">
        <ele>446.2</ele>
        <time>2016-12-28T14:51:55.000Z</time>
      </trkpt>
      <trkpt lat="47.51707" lon="6.71676">
        <ele>446.2</ele>
        <time>2016-12-28T14:51:56.000Z</time>
      </trkpt>
      <trkpt lat="47.51703" lon="6.71676">
        <ele>444.6</ele>
        <time>2016-12-28T14:52:03.000Z</time>
      </trkpt>
      <trkpt lat="47.51701" lon="6.71675">
        <ele>444.2</ele>
        <time>2016-12-28T14:52:04.000Z</time>
      </trkpt>
      <trkpt lat="47.51698" lon="6.71675">
        <ele>444</ele>
        <time>2016-12-28T14:52:05.000Z</time>
      </trkpt>
      <trkpt lat="47.51695" lon="6.71675">
        <ele>443.6</ele>
        <time>2016-12-28T14:52:06.000Z</time>
      </trkpt>
      <trkpt lat="47.51691" lon="6.71675">
        <ele>443.3</ele>
        <time>2016-12-28T14:52:08.000Z</time>
      </trkpt>
      <trkpt lat="47.5169" lon="6.71675">
        <ele>443.3</ele>
        <time>2016-12-28T14:52:09.000Z</time>
      </trkpt>
      <trkpt lat="47.51688" lon="6.71675">
        <ele>443.2</ele>
        <time>2016-12-28T14:52:10.000Z</time>
      </trkpt>
      <trkpt lat="47.51685" lon="6.71674">
        <ele>443.1</ele>
        <time>2016-12-28T14:52:11.000Z</time>
      </trkpt>
      <trkpt lat="47.51682" lon="6.71675">
        <ele>441.8</ele>
        <time>2016-12-28T14:52:18.000Z</time>
      </trkpt>
      <trkpt lat="47.51677" lon="6.71674">
        <ele>441.3</ele>
        <time>2016-12-28T14:52:19.000Z</time>
      </trkpt>
      <trkpt lat="47.51673" lon="6.71674">
        <ele>440.6</ele>
        <time>2016-12-28T14:52:33.000Z</time>
      </trkpt>
      <trkpt lat="47.5167" lon="6.71674">
        <ele>441</ele>
        <time>2016-12-28T14:52:34.000Z</time>
      </trkpt>
      <trkpt lat="47.51666" lon="6.71675">
        <ele>441.4</ele>
        <time>2016-12-28T14:52:47.000Z</time>
      </trkpt>
      <trkpt lat="47.51664" lon="6.71675">
        <ele>441.8</ele>
        <time>2016-12-28T14:52:48.000Z</time>
      </trkpt>
      <trkpt lat="47.51662" lon="6.71675">
        <ele>442</ele>
        <time>2016-12-28T14:52:49.000Z</time>
      </trkpt>
      <trkpt lat="47.51658" lon="6.71676">
        <ele>442.2</ele>
        <time>2016-12-28T14:52:50.000Z</time>
      </trkpt>
      <trkpt lat="47.51656" lon="6.71676">
        <ele>442.4</ele>
        <time>2016-12-28T14:52:51.000Z</time>
      </trkpt>
      <trkpt lat="47.51653" lon="6.71677">
        <ele>442.7</ele>
        <time>2016-12-28T14:52:52.000Z</time>
      </trkpt>
      <trkpt lat="47.51649" lon="6.71679">
        <ele>443.8</ele>
        <time>2016-12-28T14:52:57.000Z</time>
      </trkpt>
      <trkpt lat="47.51647" lon="6.7168">
        <ele>444.1</ele>
        <time>2016-12-28T14:52:58.000Z</time>
      </trkpt>
      <trkpt lat="47.51644" lon="6.7168">
        <ele>445</ele>
        <time>2016-12-28T14:53:01.000Z</time>
      </trkpt>
      <trkpt lat="47.51642" lon="6.71681">
        <ele>445.4</ele>
        <time>2016-12-28T14:53:02.000Z</time>
      </trkpt>
      <trkpt lat="47.51638" lon="6.71682">
        <ele>445.7</ele>
        <time>2016-12-28T14:53:03.000Z</time>
      </trkpt>
      <trkpt lat="47.51635" lon="6.71683">
        <ele>446.1</ele>
        <time>2016-12-28T14:53:04.000Z</time>
      </trkpt>
      <trkpt lat="47.51632" lon="6.71685">
        <ele>446.1</ele>
        <time>2016-12-28T14:53:13.999Z</time>
      </trkpt>
      <trkpt lat="47.51631" lon="6.71686">
        <ele>446</ele>
        <time>2016-12-28T14:53:14.999Z</time>
      </trkpt>
      <trkpt lat="47.51628" lon="6.71688">
        <ele>445.7</ele>
        <time>2016-12-28T14:53:17.999Z</time>
      </trkpt>
      <trkpt lat="47.51626" lon="6.71689">
        <ele>445.8</ele>
        <time>2016-12-28T14:53:18.999Z</time>
      </trkpt>
      <trkpt lat="47.51623" lon="6.71692">
        <ele>447.4</ele>
        <time>2016-12-28T14:53:28.999Z</time>
      </trkpt>
      <trkpt lat="47.51622" lon="6.71692">
        <ele>447.7</ele>
        <time>2016-12-28T14:53:29.999Z</time>
      </trkpt>
      <trkpt lat="47.51619" lon="6.71696">
        <ele>450.6</ele>
        <time>2016-12-28T14:53:49.999Z</time>
      </trkpt>
      <trkpt lat="47.51618" lon="6.71696">
        <ele>450.8</ele>
        <time>2016-12-28T14:53:50.999Z</time>
      </trkpt>
      <trkpt lat="47.51615" lon="6.71694">
        <ele>452.2</ele>
        <time>2016-12-28T14:53:57.999Z</time>
      </trkpt>
      <trkpt lat="47.51613" lon="6.71693">
        <ele>452.3</ele>
        <time>2016-12-28T14:53:58.999Z</time>
      </trkpt>
      <trkpt lat="47.5161" lon="6.71693">
        <ele>453.1</ele>
        <time>2016-12-28T14:54:04.999Z</time>
      </trkpt>
      <trkpt lat="47.51609" lon="6.71693">
        <ele>453.3</ele>
        <time>2016-12-28T14:54:05.999Z</time>
      </trkpt>
      <trkpt lat="47.51605" lon="6.71692">
        <ele>453.4</ele>
        <time>2016-12-28T14:54:07.999Z</time>
      </trkpt>
      <trkpt lat="47.51604" lon="6.71692">
        <ele>453.3</ele>
        <time>2016-12-28T14:54:08.999Z</time>
      </trkpt>
      <trkpt lat="47.516" lon="6.71689">
        <ele>453.3</ele>
        <time>2016-12-28T14:54:14.999Z</time>
      </trkpt>
      <trkpt lat="47.51599" lon="6.7169">
        <ele>452.9</ele>
        <time>2016-12-28T14:54:16.999Z</time>
      </trkpt>
      <trkpt lat="47.51595" lon="6.71691">
        <ele>452.3</ele>
        <time>2016-12-28T14:54:19.999Z</time>
      </trkpt>
      <trkpt lat="47.51594" lon="6.71691">
        <ele>452</ele>
        <time>2016-12-28T14:54:20.999Z</time>
      </trkpt>
      <trkpt lat="47.5159" lon="6.71691">
        <ele>451.7</ele>
        <time>2016-12-28T14:54:42.999Z</time>
      </trkpt>
      <trkpt lat="47.51589" lon="6.71689">
        <ele>451.7</ele>
        <time>2016-12-28T14:54:43.999Z</time>
      </trkpt>
      <trkpt lat="47.51587" lon="6.71684">
        <ele>450.5</ele>
        <time>2016-12-28T14:54:52.999Z</time>
      </trkpt>
      <trkpt lat="47.51586" lon="6.71682">
        <ele>450</ele>
        <time>2016-12-28T14:54:53.999Z</time>
      </trkpt>
      <trkpt lat="47.51584" lon="6.71677">
        <ele>448.5</ele>
        <time>2016-12-28T14:54:56.999Z</time>
      </trkpt>
      <trkpt lat="47.51582" lon="6.71674">
        <ele>447.8</ele>
        <time>2016-12-28T14:54:57.999Z</time>
      </trkpt>
      <trkpt lat="47.51579" lon="6.71672">
        <ele>446</ele>
        <time>2016-12-28T14:55:00.999Z</time>
      </trkpt>
      <trkpt lat="47.51579" lon="6.71669">
        <ele>445.4</ele>
        <time>2016-12-28T14:55:01.999Z</time>
      </trkpt>
      <trkpt lat="47.51579" lon="6.71665">
        <ele>445</ele>
        <time>2016-12-28T14:55:02.999Z</time>
      </trkpt>
      <trkpt lat="47.51578" lon="6.71661">
        <ele>444.4</ele>
        <time>2016-12-28T14:55:03.999Z</time>
      </trkpt>
      <trkpt lat="47.51576" lon="6.71657">
        <ele>443.2</ele>
        <time>2016-12-28T14:55:05.999Z</time>
      </trkpt>
      <trkpt lat="47.51575" lon="6.71653">
        <ele>442.7</ele>
        <time>2016-12-28T14:55:06.999Z</time>
      </trkpt>
      <trkpt lat="47.51573" lon="6.71648">
        <ele>442</ele>
        <time>2016-12-28T14:55:08.999Z</time>
      </trkpt>
      <trkpt lat="47.51571" lon="6.71646">
        <ele>441.7</ele>
        <time>2016-12-28T14:55:09.999Z</time>
      </trkpt>
      <trkpt lat="47.5157" lon="6.71643">
        <ele>441.4</ele>
        <time>2016-12-28T14:55:10.999Z</time>
      </trkpt>
      <trkpt lat="47.51568" lon="6.71641">
        <ele>441.1</ele>
        <time>2016-12-28T14:55:11.999Z</time>
      </trkpt>
      <trkpt lat="47.51566" lon="6.71638">
        <ele>440.6</ele>
        <time>2016-12-28T14:55:12.999Z</time>
      </trkpt>
      <trkpt lat="47.51564" lon="6.71637">
        <ele>440.3</ele>
        <time>2016-12-28T14:55:13.999Z</time>
      </trkpt>
      <trkpt lat="47.5156" lon="6.71634">
        <ele>440</ele>
        <time>2016-12-28T14:55:14.999Z</time>
      </trkpt>
      <trkpt lat="47.51558" lon="6.71631">
        <ele>439.1</ele>
        <time>2016-12-28T14:55:16.999Z</time>
      </trkpt>
      <trkpt lat="47.51555" lon="6.71628">
        <ele>437.7</ele>
        <time>2016-12-28T14:55:18.999Z</time>
      </trkpt>
      <trkpt lat="47.51554" lon="6.71625">
        <ele>437.1</ele>
        <time>2016-12-28T14:55:19.999Z</time>
      </trkpt>
      <trkpt lat="47.51553" lon="6.71622">
        <ele>436</ele>
        <time>2016-12-28T14:55:21.999Z</time>
      </trkpt>
      <trkpt lat="47.51551" lon="6.71619">
        <ele>435.5</ele>
        <time>2016-12-28T14:55:22.999Z</time>
      </trkpt>
      <trkpt lat="47.5155" lon="6.71616">
        <ele>435.1</ele>
        <time>2016-12-28T14:55:23.999Z</time>
      </trkpt>
      <trkpt lat="47.51549" lon="6.71613">
        <ele>434.6</ele>
        <time>2016-12-28T14:55:24.999Z</time>
      </trkpt>
      <trkpt lat="47.51546" lon="6.7161">
        <ele>434.1</ele>
        <time>2016-12-28T14:55:25.999Z</time>
      </trkpt>
      <trkpt lat="47.51544" lon="6.71607">
        <ele>433.5</ele>
        <time>2016-12-28T14:55:26.999Z</time>
      </trkpt>
      <trkpt lat="47.51542" lon="6.71605">
        <ele>432.8</ele>
        <time>2016-12-28T14:55:27.999Z</time>
      </trkpt>
      <trkpt lat="47.5154" lon="6.71602">
        <ele>432</ele>
        <time>2016-12-28T14:55:28.999Z</time>
      </trkpt>
      <trkpt lat="47.51538" lon="6.71598">
        <ele>431.2</ele>
        <time>2016-12-28T14:55:29.999Z</time>
      </trkpt>
      <trkpt lat="47.51536" lon="6.71595">
        <ele>430.1</ele>
        <time>2016-12-28T14:55:30.999Z</time>
      </trkpt>
      <trkpt lat="47.51534" lon="6.71591">
        <ele>428.7</ele>
        <time>2016-12-28T14:55:32.999Z</time>
      </trkpt>
      <trkpt lat="47.51533" lon="6.71588">
        <ele>428</ele>
        <time>2016-12-28T14:55:33.999Z</time>
      </trkpt>
      <trkpt lat="47.51532" lon="6.71583">
        <ele>426.7</ele>
        <time>2016-12-28T14:55:35.999Z</time>
      </trkpt>
      <trkpt lat="47.51532" lon="6.71582">
        <ele>426</ele>
        <time>2016-12-28T14:55:36.999Z</time>
      </trkpt>
      <trkpt lat="47.5153" lon="6.71576">
        <ele>423.6</ele>
        <time>2016-12-28T14:55:39.999Z</time>
      </trkpt>
      <trkpt lat="47.51527" lon="6.71574">
        <ele>422.8</ele>
        <time>2016-12-28T14:55:40.999Z</time>
      </trkpt>
      <trkpt lat="47.51524" lon="6.7157">
        <ele>421.3</ele>
        <time>2016-12-28T14:55:42.999Z</time>
      </trkpt>
      <trkpt lat="47.51524" lon="6.71566">
        <ele>420.7</ele>
        <time>2016-12-28T14:55:43.999Z</time>
      </trkpt>
      <trkpt lat="47.51523" lon="6.71562">
        <ele>420</ele>
        <time>2016-12-28T14:55:44.999Z</time>
      </trkpt>
      <trkpt lat="47.51523" lon="6.71559">
        <ele>419.5</ele>
        <time>2016-12-28T14:55:45.999Z</time>
      </trkpt>
      <trkpt lat="47.51522" lon="6.71555">
        <ele>418.9</ele>
        <time>2016-12-28T14:55:46.999Z</time>
      </trkpt>
      <trkpt lat="47.5152" lon="6.71552">
        <ele>418.1</ele>
        <time>2016-12-28T14:55:47.999Z</time>
      </trkpt>
      <trkpt lat="47.51518" lon="6.71546">
        <ele>416.7</ele>
        <time>2016-12-28T14:55:49.999Z</time>
      </trkpt>
      <trkpt lat="47.51517" lon="6.71543">
        <ele>416</ele>
        <time>2016-12-28T14:55:50.999Z</time>
      </trkpt>
      <trkpt lat="47.51516" lon="6.7154">
        <ele>415.1</ele>
        <time>2016-12-28T14:55:51.999Z</time>
      </trkpt>
      <trkpt lat="47.51515" lon="6.71536">
        <ele>414.3</ele>
        <time>2016-12-28T14:55:52.999Z</time>
      </trkpt>
      <trkpt lat="47.51515" lon="6.71532">
        <ele>413.5</ele>
        <time>2016-12-28T14:55:53.999Z</time>
      </trkpt>
      <trkpt lat="47.51512" lon="6.71529">
        <ele>412.8</ele>
        <time>2016-12-28T14:55:54.999Z</time>
      </trkpt>
      <trkpt lat="47.51508" lon="6.71525">
        <ele>412.2</ele>
        <time>2016-12-28T14:55:55.999Z</time>
      </trkpt>
      <trkpt lat="47.51506" lon="6.71522">
        <ele>410.7</ele>
        <time>2016-12-28T14:55:58.999Z</time>
      </trkpt>
      <trkpt lat="47.51504" lon="6.7152">
        <ele>410.1</ele>
        <time>2016-12-28T14:55:59.999Z</time>
      </trkpt>
      <trkpt lat="47.51501" lon="6.71515">
        <ele>408.6</ele>
        <time>2016-12-28T14:56:02.999Z</time>
      </trkpt>
      <trkpt lat="47.515" lon="6.71513">
        <ele>408.3</ele>
        <time>2016-12-28T14:56:03.999Z</time>
      </trkpt>
      <trkpt lat="47.51498" lon="6.7151">
        <ele>408.1</ele>
        <time>2016-12-28T14:56:04.999Z</time>
      </trkpt>
      <trkpt lat="47.51497" lon="6.71508">
        <ele>408</ele>
        <time>2016-12-28T14:56:05.999Z</time>
      </trkpt>
      <trkpt lat="47.51495" lon="6.71503">
        <ele>408</ele>
        <time>2016-12-28T14:56:09.999Z</time>
      </trkpt>
      <trkpt lat="47.51494" lon="6.71501">
        <ele>407.8</ele>
        <time>2016-12-28T14:56:10.999Z</time>
      </trkpt>
      <trkpt lat="47.51495" lon="6.71499">
        <ele>410.6</ele>
        <time>2016-12-28T14:56:19.999Z</time>
      </trkpt>
      <trkpt lat="47.51497" lon="6.71495">
        <ele>411.2</ele>
        <time>2016-12-28T14:56:20.999Z</time>
      </trkpt>
      <trkpt lat="47.51501" lon="6.71494">
        <ele>418.8</ele>
        <time>2016-12-28T14:56:38.999Z</time>
      </trkpt>
      <trkpt lat="47.51502" lon="6.71492">
        <ele>419.3</ele>
        <time>2016-12-28T14:56:39.999Z</time>
      </trkpt>
      <trkpt lat="47.51506" lon="6.71488">
        <ele>427.1</ele>
        <time>2016-12-28T14:57:03.999Z</time>
      </trkpt>
      <trkpt lat="47.51506" lon="6.71487">
        <ele>427.7</ele>
        <time>2016-12-28T14:57:04.999Z</time>
      </trkpt>
      <trkpt lat="47.5151" lon="6.71484">
        <ele>431.4</ele>
        <time>2016-12-28T14:57:12.999Z</time>
      </trkpt>
      <trkpt lat="47.51511" lon="6.71483">
        <ele>432</ele>
        <time>2016-12-28T14:57:13.999Z</time>
      </trkpt>
      <trkpt lat="47.51514" lon="6.71481">
        <ele>432.6</ele>
        <time>2016-12-28T14:57:14.999Z</time>
      </trkpt>
      <trkpt lat="47.51515" lon="6.71481">
        <ele>434.1</ele>
        <time>2016-12-28T14:57:16.999Z</time>
      </trkpt>
      <trkpt lat="47.51511" lon="6.7148">
        <ele>440.9</ele>
        <time>2016-12-28T14:57:46.999Z</time>
      </trkpt>
      <trkpt lat="47.51509" lon="6.71481">
        <ele>440.7</ele>
        <time>2016-12-28T14:57:47.999Z</time>
      </trkpt>
      <trkpt lat="47.51505" lon="6.71483">
        <ele>440.9</ele>
        <time>2016-12-28T14:57:56.999Z</time>
      </trkpt>
      <trkpt lat="47.51504" lon="6.71482">
        <ele>440.9</ele>
        <time>2016-12-28T14:57:57.999Z</time>
      </trkpt>
      <trkpt lat="47.51501" lon="6.71485">
        <ele>442.8</ele>
        <time>2016-12-28T14:58:19.999Z</time>
      </trkpt>
      <trkpt lat="47.51499" lon="6.71486">
        <ele>442.7</ele>
        <time>2016-12-28T14:58:20.999Z</time>
      </trkpt>
      <trkpt lat="47.51496" lon="6.71484">
        <ele>442.4</ele>
        <time>2016-12-28T14:58:23.999Z</time>
      </trkpt>
      <trkpt lat="47.51495" lon="6.71481">
        <ele>442.3</ele>
        <time>2016-12-28T14:58:24.999Z</time>
      </trkpt>
      <trkpt lat="47.51495" lon="6.71477">
        <ele>441.9</ele>
        <time>2016-12-28T14:58:25.999Z</time>
      </trkpt>
      <trkpt lat="47.51496" lon="6.71473">
        <ele>441.5</ele>
        <time>2016-12-28T14:58:26.999Z</time>
      </trkpt>
      <trkpt lat="47.51496" lon="6.7147">
        <ele>441.2</ele>
        <time>2016-12-28T14:58:27.999Z</time>
      </trkpt>
      <trkpt lat="47.51498" lon="6.71467">
        <ele>440.9</ele>
        <time>2016-12-28T14:58:28.999Z</time>
      </trkpt>
      <trkpt lat="47.51499" lon="6.71464">
        <ele>440.7</ele>
        <time>2016-12-28T14:58:29.999Z</time>
      </trkpt>
      <trkpt lat="47.51501" lon="6.7146">
        <ele>440.6</ele>
        <time>2016-12-28T14:58:30.999Z</time>
      </trkpt>
      <trkpt lat="47.51503" lon="6.71455">
        <ele>440.4</ele>
        <time>2016-12-28T14:58:31.999Z</time>
      </trkpt>
      <trkpt lat="47.51505" lon="6.71452">
        <ele>440.2</ele>
        <time>2016-12-28T14:58:32.999Z</time>
      </trkpt>
      <trkpt lat="47.51506" lon="6.71448">
        <ele>439.9</ele>
        <time>2016-12-28T14:58:33.999Z</time>
      </trkpt>
      <trkpt lat="47.51509" lon="6.71445">
        <ele>439.5</ele>
        <time>2016-12-28T14:58:34.999Z</time>
      </trkpt>
      <trkpt lat="47.51512" lon="6.71442">
        <ele>439.2</ele>
        <time>2016-12-28T14:58:35.999Z</time>
      </trkpt>
      <trkpt lat="47.51513" lon="6.7144">
        <ele>438.9</ele>
        <time>2016-12-28T14:58:36.999Z</time>
      </trkpt>
      <trkpt lat="47.51515" lon="6.71434">
        <ele>438.4</ele>
        <time>2016-12-28T14:58:38.999Z</time>
      </trkpt>
      <trkpt lat="47.51517" lon="6.71432">
        <ele>438.1</ele>
        <time>2016-12-28T14:58:39.999Z</time>
      </trkpt>
      <trkpt lat="47.51519" lon="6.71431">
        <ele>437.9</ele>
        <time>2016-12-28T14:58:40.999Z</time>
      </trkpt>
      <trkpt lat="47.51521" lon="6.7143">
        <ele>437.7</ele>
        <time>2016-12-28T14:58:41.999Z</time>
      </trkpt>
      <trkpt lat="47.51525" lon="6.71429">
        <ele>437.1</ele>
        <time>2016-12-28T14:58:43.999Z</time>
      </trkpt>
      <trkpt lat="47.51527" lon="6.7143">
        <ele>437</ele>
        <time>2016-12-28T14:58:44.999Z</time>
      </trkpt>
      <trkpt lat="47.51529" lon="6.71431">
        <ele>436.8</ele>
        <time>2016-12-28T14:58:46.999Z</time>
      </trkpt>
      <trkpt lat="47.51531" lon="6.71433">
        <ele>436.8</ele>
        <time>2016-12-28T14:58:47.999Z</time>
      </trkpt>
      <trkpt lat="47.51534" lon="6.71435">
        <ele>436.4</ele>
        <time>2016-12-28T14:58:49.999Z</time>
      </trkpt>
      <trkpt lat="47.51537" lon="6.71436">
        <ele>436.3</ele>
        <time>2016-12-28T14:58:50.999Z</time>
      </trkpt>
      <trkpt lat="47.51541" lon="6.7144">
        <ele>436.1</ele>
        <time>2016-12-28T14:58:52.999Z</time>
      </trkpt>
      <trkpt lat="47.51544" lon="6.71443">
        <ele>435.8</ele>
        <time>2016-12-28T14:58:53.999Z</time>
      </trkpt>
      <trkpt lat="47.51547" lon="6.71446">
        <ele>435.6</ele>
        <time>2016-12-28T14:58:54.999Z</time>
      </trkpt>
      <trkpt lat="47.5155" lon="6.71449">
        <ele>435.3</ele>
        <time>2016-12-28T14:58:55.999Z</time>
      </trkpt>
      <trkpt lat="47.51554" lon="6.71452">
        <ele>435.1</ele>
        <time>2016-12-28T14:58:56.999Z</time>
      </trkpt>
      <trkpt lat="47.51557" lon="6.71453">
        <ele>435</ele>
        <time>2016-12-28T14:58:57.999Z</time>
      </trkpt>
      <trkpt lat="47.51563" lon="6.71456">
        <ele>435</ele>
        <time>2016-12-28T14:58:58.999Z</time>
      </trkpt>
      <trkpt lat="47.51566" lon="6.71456">
        <ele>435</ele>
        <time>2016-12-28T14:58:59.999Z</time>
      </trkpt>
      <trkpt lat="47.51569" lon="6.71459">
        <ele>435.2</ele>
        <time>2016-12-28T14:59:00.999Z</time>
      </trkpt>
      <trkpt lat="47.51573" lon="6.71461">
        <ele>435.5</ele>
        <time>2016-12-28T14:59:02.999Z</time>
      </trkpt>
      <trkpt lat="47.51574" lon="6.71462">
        <ele>435.6</ele>
        <time>2016-12-28T14:59:03.999Z</time>
      </trkpt>
      <trkpt lat="47.51577" lon="6.71464">
        <ele>435.8</ele>
        <time>2016-12-28T14:59:05.999Z</time>
      </trkpt>
      <trkpt lat="47.51578" lon="6.71464">
        <ele>435.9</ele>
        <time>2016-12-28T14:59:06.999Z</time>
      </trkpt>
      <trkpt lat="47.51582" lon="6.71464">
        <ele>436.2</ele>
        <time>2016-12-28T14:59:10.999Z</time>
      </trkpt>
      <trkpt lat="47.51583" lon="6.71465">
        <ele>436.1</ele>
        <time>2016-12-28T14:59:11.999Z</time>
      </trkpt>
      <trkpt lat="47.51587" lon="6.71464">
        <ele>436.2</ele>
        <time>2016-12-28T14:59:13.999Z</time>
      </trkpt>
      <trkpt lat="47.51588" lon="6.71464">
        <ele>436.3</ele>
        <time>2016-12-28T14:59:14.999Z</time>
      </trkpt>
      <trkpt lat="47.51592" lon="6.71464">
        <ele>436.2</ele>
        <time>2016-12-28T14:59:16.999Z</time>
      </trkpt>
      <trkpt lat="47.51595" lon="6.71465">
        <ele>436.3</ele>
        <time>2016-12-28T14:59:17.999Z</time>
      </trkpt>
      <trkpt lat="47.51598" lon="6.71469">
        <ele>438.9</ele>
        <time>2016-12-28T14:59:37.999Z</time>
      </trkpt>
      <trkpt lat="47.51599" lon="6.71469">
        <ele>439.4</ele>
        <time>2016-12-28T14:59:38.999Z</time>
      </trkpt>
      <trkpt lat="47.51602" lon="6.71473">
        <ele>440.1</ele>
        <time>2016-12-28T14:59:50.999Z</time>
      </trkpt>
      <trkpt lat="47.51603" lon="6.71479">
        <ele>440.4</ele>
        <time>2016-12-28T14:59:51.999Z</time>
      </trkpt>
      <trkpt lat="47.51605" lon="6.71475">
        <ele>443.3</ele>
        <time>2016-12-28T15:00:11.999Z</time>
      </trkpt>
      <trkpt lat="47.51607" lon="6.71475">
        <ele>443.7</ele>
        <time>2016-12-28T15:00:12.999Z</time>
      </trkpt>
      <trkpt lat="47.5161" lon="6.71474">
        <ele>445.8</ele>
        <time>2016-12-28T15:00:22.999Z</time>
      </trkpt>
      <trkpt lat="47.51611" lon="6.71472">
        <ele>445.8</ele>
        <time>2016-12-28T15:00:23.999Z</time>
      </trkpt>
      <trkpt lat="47.51614" lon="6.71471">
        <ele>445.8</ele>
        <time>2016-12-28T15:00:31.999Z</time>
      </trkpt>
      <trkpt lat="47.51616" lon="6.7147">
        <ele>445.5</ele>
        <time>2016-12-28T15:00:32.999Z</time>
      </trkpt>
      <trkpt lat="47.51619" lon="6.71468">
        <ele>445</ele>
        <time>2016-12-28T15:00:34.999Z</time>
      </trkpt>
      <trkpt lat="47.51621" lon="6.71467">
        <ele>444.7</ele>
        <time>2016-12-28T15:00:35.999Z</time>
      </trkpt>
      <trkpt lat="47.51625" lon="6.71465">
        <ele>444.4</ele>
        <time>2016-12-28T15:00:37.999Z</time>
      </trkpt>
      <trkpt lat="47.51627" lon="6.71463">
        <ele>444.3</ele>
        <time>2016-12-28T15:00:38.999Z</time>
      </trkpt>
      <trkpt lat="47.5163" lon="6.71459">
        <ele>444.2</ele>
        <time>2016-12-28T15:00:40.999Z</time>
      </trkpt>
      <trkpt lat="47.51632" lon="6.71458">
        <ele>444.1</ele>
        <time>2016-12-28T15:00:41.999Z</time>
      </trkpt>
      <trkpt lat="47.51635" lon="6.71456">
        <ele>443.8</ele>
        <time>2016-12-28T15:00:43.999Z</time>
      </trkpt>
      <trkpt lat="47.51636" lon="6.71455">
        <ele>443.6</ele>
        <time>2016-12-28T15:00:44.999Z</time>
      </trkpt>
      <trkpt lat="47.51639" lon="6.71453">
        <ele>443.3</ele>
        <time>2016-12-28T15:00:46.999Z</time>
      </trkpt>
      <trkpt lat="47.51641" lon="6.71452">
        <ele>443.3</ele>
        <time>2016-12-28T15:00:47.999Z</time>
      </trkpt>
      <trkpt lat="47.51645" lon="6.71449">
        <ele>443.1</ele>
        <time>2016-12-28T15:00:49.999Z</time>
      </trkpt>
      <trkpt lat="47.51646" lon="6.71448">
        <ele>443</ele>
        <time>2016-12-28T15:00:50.999Z</time>
      </trkpt>
      <trkpt lat="47.51649" lon="6.71446">
        <ele>443.1</ele>
        <time>2016-12-28T15:00:51.999Z</time>
      </trkpt>
      <trkpt lat="47.51652" lon="6.71443">
        <ele>443.1</ele>
        <time>2016-12-28T15:00:52.999Z</time>
      </trkpt>
      <trkpt lat="47.51655" lon="6.7144">
        <ele>443</ele>
        <time>2016-12-28T15:00:54.999Z</time>
      </trkpt>
      <trkpt lat="47.51657" lon="6.71437">
        <ele>443.1</ele>
        <time>2016-12-28T15:00:55.999Z</time>
      </trkpt>
      <trkpt lat="47.51659" lon="6.71434">
        <ele>443.2</ele>
        <time>2016-12-28T15:00:57.999Z</time>
      </trkpt>
      <trkpt lat="47.5166" lon="6.71432">
        <ele>443.1</ele>
        <time>2016-12-28T15:00:58.999Z</time>
      </trkpt>
      <trkpt lat="47.51663" lon="6.7143">
        <ele>443</ele>
        <time>2016-12-28T15:01:00.999Z</time>
      </trkpt>
      <trkpt lat="47.51664" lon="6.71429">
        <ele>443.1</ele>
        <time>2016-12-28T15:01:01.999Z</time>
      </trkpt>
      <trkpt lat="47.51668" lon="6.71428">
        <ele>442.8</ele>
        <time>2016-12-28T15:01:04.999Z</time>
      </trkpt>
      <trkpt lat="47.51669" lon="6.71428">
        <ele>442.8</ele>
        <time>2016-12-28T15:01:05.999Z</time>
      </trkpt>
      <trkpt lat="47.51672" lon="6.71424">
        <ele>442.4</ele>
        <time>2016-12-28T15:01:08.999Z</time>
      </trkpt>
      <trkpt lat="47.51673" lon="6.71422">
        <ele>442.2</ele>
        <time>2016-12-28T15:01:09.999Z</time>
      </trkpt>
      <trkpt lat="47.51676" lon="6.71418">
        <ele>442</ele>
        <time>2016-12-28T15:01:11.999Z</time>
      </trkpt>
      <trkpt lat="47.51676" lon="6.71416">
        <ele>441.8</ele>
        <time>2016-12-28T15:01:12.999Z</time>
      </trkpt>
      <trkpt lat="47.51679" lon="6.71413">
        <ele>441.2</ele>
        <time>2016-12-28T15:01:14.999Z</time>
      </trkpt>
      <trkpt lat="47.51684" lon="6.71409">
        <ele>440.7</ele>
        <time>2016-12-28T15:01:16.999Z</time>
      </trkpt>
      <trkpt lat="47.51687" lon="6.71406">
        <ele>439.7</ele>
        <time>2016-12-28T15:01:18.999Z</time>
      </trkpt>
      <trkpt lat="47.51689" lon="6.71405">
        <ele>439.4</ele>
        <time>2016-12-28T15:01:19.999Z</time>
      </trkpt>
      <trkpt lat="47.51693" lon="6.71403">
        <ele>439</ele>
        <time>2016-12-28T15:01:21.999Z</time>
      </trkpt>
      <trkpt lat="47.51694" lon="6.71403">
        <ele>438.9</ele>
        <time>2016-12-28T15:01:22.999Z</time>
      </trkpt>
      <trkpt lat="47.51696" lon="6.714">
        <ele>438.5</ele>
        <time>2016-12-28T15:01:24.999Z</time>
      </trkpt>
      <trkpt lat="47.51697" lon="6.71398">
        <ele>438.3</ele>
        <time>2016-12-28T15:01:25.999Z</time>
      </trkpt>
      <trkpt lat="47.517" lon="6.71394">
        <ele>437.4</ele>
        <time>2016-12-28T15:01:28.999Z</time>
      </trkpt>
      <trkpt lat="47.51702" lon="6.71391">
        <ele>437</ele>
        <time>2016-12-28T15:01:29.999Z</time>
      </trkpt>
      <trkpt lat="47.51705" lon="6.7139">
        <ele>436</ele>
        <time>2016-12-28T15:01:32.999Z</time>
      </trkpt>
      <trkpt lat="47.51707" lon="6.7139">
        <ele>435.6</ele>
        <time>2016-12-28T15:01:33.999Z</time>
      </trkpt>
      <trkpt lat="47.51703" lon="6.71388">
        <ele>432.9</ele>
        <time>2016-12-28T15:01:43.999Z</time>
      </trkpt>
      <trkpt lat="47.51702" lon="6.71387">
        <ele>432.6</ele>
        <time>2016-12-28T15:01:44.999Z</time>
      </trkpt>
      <trkpt lat="47.51701" lon="6.71382">
        <ele>433</ele>
        <time>2016-12-28T15:01:51.999Z</time>
      </trkpt>
      <trkpt lat="47.51701" lon="6.7138">
        <ele>433.3</ele>
        <time>2016-12-28T15:01:52.999Z</time>
      </trkpt>
      <trkpt lat="47.51699" lon="6.71377">
        <ele>434.3</ele>
        <time>2016-12-28T15:01:54.999Z</time>
      </trkpt>
      <trkpt lat="47.51698" lon="6.71373">
        <ele>434.7</ele>
        <time>2016-12-28T15:01:55.999Z</time>
      </trkpt>
      <trkpt lat="47.51696" lon="6.71371">
        <ele>435</ele>
        <time>2016-12-28T15:01:56.999Z</time>
      </trkpt>
      <trkpt lat="47.51694" lon="6.7137">
        <ele>435.4</ele>
        <time>2016-12-28T15:01:57.999Z</time>
      </trkpt>
      <trkpt lat="47.51691" lon="6.71368">
        <ele>435.8</ele>
        <time>2016-12-28T15:01:58.999Z</time>
      </trkpt>
      <trkpt lat="47.51689" lon="6.71365">
        <ele>436.3</ele>
        <time>2016-12-28T15:01:59.999Z</time>
      </trkpt>
      <trkpt lat="47.51685" lon="6.71363">
        <ele>437.4</ele>
        <time>2016-12-28T15:02:01.999Z</time>
      </trkpt>
      <trkpt lat="47.51684" lon="6.71362">
        <ele>438</ele>
        <time>2016-12-28T15:02:02.999Z</time>
      </trkpt>
      <trkpt lat="47.51687" lon="6.71358">
        <ele>440.4</ele>
        <time>2016-12-28T15:02:09.999Z</time>
      </trkpt>
      <trkpt lat="47.51688" lon="6.71357">
        <ele>440.7</ele>
        <time>2016-12-28T15:02:10.999Z</time>
      </trkpt>
      <trkpt lat="47.51691" lon="6.71352">
        <ele>441.6</ele>
        <time>2016-12-28T15:02:12.999Z</time>
      </trkpt>
      <trkpt lat="47.51693" lon="6.71349">
        <ele>442.1</ele>
        <time>2016-12-28T15:02:13.999Z</time>
      </trkpt>
      <trkpt lat="47.51694" lon="6.71344">
        <ele>442.6</ele>
        <time>2016-12-28T15:02:14.999Z</time>
      </trkpt>
      <trkpt lat="47.51695" lon="6.7134">
        <ele>443</ele>
        <time>2016-12-28T15:02:15.999Z</time>
      </trkpt>
      <trkpt lat="47.51696" lon="6.71337">
        <ele>443.4</ele>
        <time>2016-12-28T15:02:16.999Z</time>
      </trkpt>
      <trkpt lat="47.51696" lon="6.71333">
        <ele>443.7</ele>
        <time>2016-12-28T15:02:17.999Z</time>
      </trkpt>
      <trkpt lat="47.51697" lon="6.71327">
        <ele>445</ele>
        <time>2016-12-28T15:02:20.999Z</time>
      </trkpt>
      <trkpt lat="47.51698" lon="6.71325">
        <ele>445.4</ele>
        <time>2016-12-28T15:02:21.999Z</time>
      </trkpt>
      <trkpt lat="47.51699" lon="6.7132">
        <ele>446.6</ele>
        <time>2016-12-28T15:02:24.999Z</time>
      </trkpt>
      <trkpt lat="47.51699" lon="6.71317">
        <ele>447</ele>
        <time>2016-12-28T15:02:25.999Z</time>
      </trkpt>
      <trkpt lat="47.51701" lon="6.71312">
        <ele>447.6</ele>
        <time>2016-12-28T15:02:27.999Z</time>
      </trkpt>
      <trkpt lat="47.51701" lon="6.71309">
        <ele>447.8</ele>
        <time>2016-12-28T15:02:28.999Z</time>
      </trkpt>
      <trkpt lat="47.517" lon="6.71303">
        <ele>448.4</ele>
        <time>2016-12-28T15:02:30.999Z</time>
      </trkpt>
      <trkpt lat="47.517" lon="6.713">
        <ele>448.7</ele>
        <time>2016-12-28T15:02:31.999Z</time>
      </trkpt>
      <trkpt lat="47.517" lon="6.71294">
        <ele>449.3</ele>
        <time>2016-12-28T15:02:33.999Z</time>
      </trkpt>
      <trkpt lat="47.517" lon="6.71291">
        <ele>449.6</ele>
        <time>2016-12-28T15:02:34.999Z</time>
      </trkpt>
      <trkpt lat="47.51698" lon="6.71285">
        <ele>450.1</ele>
        <time>2016-12-28T15:02:36.999Z</time>
      </trkpt>
      <trkpt lat="47.51697" lon="6.71284">
        <ele>450.2</ele>
        <time>2016-12-28T15:02:37.999Z</time>
      </trkpt>
      <trkpt lat="47.51694" lon="6.71278">
        <ele>450.8</ele>
        <time>2016-12-28T15:02:40.999Z</time>
      </trkpt>
      <trkpt lat="47.51693" lon="6.71276">
        <ele>450.8</ele>
        <time>2016-12-28T15:02:41.999Z</time>
      </trkpt>
      <trkpt lat="47.51691" lon="6.71272">
        <ele>451</ele>
        <time>2016-12-28T15:02:42.999Z</time>
      </trkpt>
      <trkpt lat="47.5169" lon="6.7127">
        <ele>451.2</ele>
        <time>2016-12-28T15:02:43.999Z</time>
      </trkpt>
      <trkpt lat="47.51688" lon="6.71264">
        <ele>451.7</ele>
        <time>2016-12-28T15:02:45.999Z</time>
      </trkpt>
      <trkpt lat="47.51687" lon="6.71263">
        <ele>452</ele>
        <time>2016-12-28T15:02:46.999Z</time>
      </trkpt>
      <trkpt lat="47.51685" lon="6.71257">
        <ele>452.8</ele>
        <time>2016-12-28T15:02:49.999Z</time>
      </trkpt>
      <trkpt lat="47.51684" lon="6.71256">
        <ele>453.1</ele>
        <time>2016-12-28T15:02:50.999Z</time>
      </trkpt>
      <trkpt lat="47.51682" lon="6.7125">
        <ele>453.5</ele>
        <time>2016-12-28T15:02:52.999Z</time>
      </trkpt>
      <trkpt lat="47.51682" lon="6.71248">
        <ele>453.7</ele>
        <time>2016-12-28T15:02:53.999Z</time>
      </trkpt>
      <trkpt lat="47.51682" lon="6.71243">
        <ele>454.3</ele>
        <time>2016-12-28T15:02:56.999Z</time>
      </trkpt>
      <trkpt lat="47.51682" lon="6.71242">
        <ele>454.5</ele>
        <time>2016-12-28T15:02:57.999Z</time>
      </trkpt>
      <trkpt lat="47.51681" lon="6.71237">
        <ele>455.1</ele>
        <time>2016-12-28T15:03:00.999Z</time>
      </trkpt>
      <trkpt lat="47.51681" lon="6.71235">
        <ele>455.4</ele>
        <time>2016-12-28T15:03:01.999Z</time>
      </trkpt>
      <trkpt lat="47.5168" lon="6.7123">
        <ele>455.7</ele>
        <time>2016-12-28T15:03:03.999Z</time>
      </trkpt>
      <trkpt lat="47.51679" lon="6.71228">
        <ele>455.9</ele>
        <time>2016-12-28T15:03:04.999Z</time>
      </trkpt>
      <trkpt lat="47.51678" lon="6.71223">
        <ele>456.5</ele>
        <time>2016-12-28T15:03:06.999Z</time>
      </trkpt>
      <trkpt lat="47.51677" lon="6.71221">
        <ele>456.7</ele>
        <time>2016-12-28T15:03:07.999Z</time>
      </trkpt>
      <trkpt lat="47.51675" lon="6.71216">
        <ele>457.4</ele>
        <time>2016-12-28T15:03:11.999Z</time>
      </trkpt>
      <trkpt lat="47.51674" lon="6.71215">
        <ele>457.4</ele>
        <time>2016-12-28T15:03:12.999Z</time>
      </trkpt>
      <trkpt lat="47.5167" lon="6.71212">
        <ele>457.5</ele>
        <time>2016-12-28T15:03:15.999Z</time>
      </trkpt>
      <trkpt lat="47.51668" lon="6.71212">
        <ele>457.6</ele>
        <time>2016-12-28T15:03:16.999Z</time>
      </trkpt>
      <trkpt lat="47.51664" lon="6.71212">
        <ele>457.7</ele>
        <time>2016-12-28T15:03:20.999Z</time>
      </trkpt>
      <trkpt lat="47.51662" lon="6.71212">
        <ele>457.7</ele>
        <time>2016-12-28T15:03:21.999Z</time>
      </trkpt>
      <trkpt lat="47.51659" lon="6.71212">
        <ele>457.8</ele>
        <time>2016-12-28T15:03:23.999Z</time>
      </trkpt>
      <trkpt lat="47.51658" lon="6.71211">
        <ele>457.8</ele>
        <time>2016-12-28T15:03:24.999Z</time>
      </trkpt>
      <trkpt lat="47.51655" lon="6.71208">
        <ele>457.9</ele>
        <time>2016-12-28T15:03:26.999Z</time>
      </trkpt>
      <trkpt lat="47.51654" lon="6.71206">
        <ele>458</ele>
        <time>2016-12-28T15:03:27.999Z</time>
      </trkpt>
      <trkpt lat="47.51652" lon="6.71202">
        <ele>458.2</ele>
        <time>2016-12-28T15:03:29.999Z</time>
      </trkpt>
      <trkpt lat="47.51651" lon="6.71199">
        <ele>458.4</ele>
        <time>2016-12-28T15:03:30.999Z</time>
      </trkpt>
      <trkpt lat="47.5165" lon="6.71194">
        <ele>458.8</ele>
        <time>2016-12-28T15:03:32.999Z</time>
      </trkpt>
      <trkpt lat="47.51649" lon="6.71191">
        <ele>459</ele>
        <time>2016-12-28T15:03:33.999Z</time>
      </trkpt>
      <trkpt lat="47.51647" lon="6.71186">
        <ele>459.4</ele>
        <time>2016-12-28T15:03:35.999Z</time>
      </trkpt>
      <trkpt lat="47.51645" lon="6.71182">
        <ele>459.6</ele>
        <time>2016-12-28T15:03:36.999Z</time>
      </trkpt>
      <trkpt lat="47.51644" lon="6.71179">
        <ele>459.8</ele>
        <time>2016-12-28T15:03:37.999Z</time>
      </trkpt>
      <trkpt lat="47.51643" lon="6.71176">
        <ele>459.9</ele>
        <time>2016-12-28T15:03:38.999Z</time>
      </trkpt>
      <trkpt lat="47.51642" lon="6.71173">
        <ele>460</ele>
        <time>2016-12-28T15:03:39.999Z</time>
      </trkpt>
      <trkpt lat="47.51641" lon="6.7117">
        <ele>460.2</ele>
        <time>2016-12-28T15:03:40.999Z</time>
      </trkpt>
      <trkpt lat="47.51639" lon="6.71165">
        <ele>460.6</ele>
        <time>2016-12-28T15:03:42.999Z</time>
      </trkpt>
      <trkpt lat="47.51638" lon="6.71163">
        <ele>460.7</ele>
        <time>2016-12-28T15:03:43.999Z</time>
      </trkpt>
      <trkpt lat="47.51636" lon="6.71157">
        <ele>461</ele>
        <time>2016-12-28T15:03:46.999Z</time>
      </trkpt>
      <trkpt lat="47.51635" lon="6.71155">
        <ele>461.1</ele>
        <time>2016-12-28T15:03:47.999Z</time>
      </trkpt>
      <trkpt lat="47.51633" lon="6.7115">
        <ele>461.3</ele>
        <time>2016-12-28T15:03:49.999Z</time>
      </trkpt>
      <trkpt lat="47.51632" lon="6.71147">
        <ele>461.5</ele>
        <time>2016-12-28T15:03:50.999Z</time>
      </trkpt>
      <trkpt lat="47.5163" lon="6.71143">
        <ele>461.8</ele>
        <time>2016-12-28T15:03:52.999Z</time>
      </trkpt>
      <trkpt lat="47.51629" lon="6.7114">
        <ele>461.8</ele>
        <time>2016-12-28T15:03:53.999Z</time>
      </trkpt>
      <trkpt lat="47.51627" lon="6.71136">
        <ele>461.9</ele>
        <time>2016-12-28T15:03:55.999Z</time>
      </trkpt>
      <trkpt lat="47.51626" lon="6.71134">
        <ele>462</ele>
        <time>2016-12-28T15:03:56.999Z</time>
      </trkpt>
      <trkpt lat="47.51626" lon="6.71129">
        <ele>462.2</ele>
        <time>2016-12-28T15:03:59.999Z</time>
      </trkpt>
      <trkpt lat="47.51626" lon="6.71127">
        <ele>462.3</ele>
        <time>2016-12-28T15:04:00.999Z</time>
      </trkpt>
      <trkpt lat="47.51625" lon="6.71121">
        <ele>462.4</ele>
        <time>2016-12-28T15:04:02.999Z</time>
      </trkpt>
      <trkpt lat="47.51625" lon="6.7112">
        <ele>462.4</ele>
        <time>2016-12-28T15:04:03.999Z</time>
      </trkpt>
      <trkpt lat="47.51625" lon="6.71116">
        <ele>462.1</ele>
        <time>2016-12-28T15:04:07.999Z</time>
      </trkpt>
      <trkpt lat="47.51624" lon="6.71113">
        <ele>461.9</ele>
        <time>2016-12-28T15:04:08.999Z</time>
      </trkpt>
      <trkpt lat="47.51625" lon="6.71108">
        <ele>463.2</ele>
        <time>2016-12-28T15:04:20.999Z</time>
      </trkpt>
      <trkpt lat="47.51626" lon="6.71106">
        <ele>463.2</ele>
        <time>2016-12-28T15:04:21.999Z</time>
      </trkpt>
      <trkpt lat="47.51626" lon="6.71099">
        <ele>465.3</ele>
        <time>2016-12-28T15:04:33.999Z</time>
      </trkpt>
      <trkpt lat="47.51625" lon="6.71099">
        <ele>465.3</ele>
        <time>2016-12-28T15:04:34.999Z</time>
      </trkpt>
      <trkpt lat="47.51625" lon="6.71106">
        <ele>466.4</ele>
        <time>2016-12-28T15:04:54.999Z</time>
      </trkpt>
      <trkpt lat="47.51623" lon="6.71108">
        <ele>466.2</ele>
        <time>2016-12-28T15:04:55.999Z</time>
      </trkpt>
      <trkpt lat="47.51622" lon="6.71113">
        <ele>466</ele>
        <time>2016-12-28T15:04:57.999Z</time>
      </trkpt>
      <trkpt lat="47.51621" lon="6.71116">
        <ele>465.9</ele>
        <time>2016-12-28T15:04:58.999Z</time>
      </trkpt>
      <trkpt lat="47.5162" lon="6.71118">
        <ele>465.6</ele>
        <time>2016-12-28T15:04:59.999Z</time>
      </trkpt>
      <trkpt lat="47.51619" lon="6.71122">
        <ele>465.6</ele>
        <time>2016-12-28T15:05:00.999Z</time>
      </trkpt>
      <trkpt lat="47.51618" lon="6.71127">
        <ele>465.6</ele>
        <time>2016-12-28T15:05:03.999Z</time>
      </trkpt>
      <trkpt lat="47.51616" lon="6.71129">
        <ele>465.5</ele>
        <time>2016-12-28T15:05:04.999Z</time>
      </trkpt>
      <trkpt lat="47.5161" lon="6.71139">
        <ele>465.4</ele>
        <time>2016-12-28T15:05:05.999Z</time>
      </trkpt>
      <trkpt lat="47.51609" lon="6.71148">
        <ele>465.4</ele>
        <time>2016-12-28T15:05:06.999Z</time>
      </trkpt>
      <trkpt lat="47.51609" lon="6.71154">
        <ele>465.4</ele>
        <time>2016-12-28T15:05:07.999Z</time>
      </trkpt>
      <trkpt lat="47.51608" lon="6.71156">
        <ele>465.4</ele>
        <time>2016-12-28T15:05:08.999Z</time>
      </trkpt>
      <trkpt lat="47.51607" lon="6.71161">
        <ele>465.6</ele>
        <time>2016-12-28T15:05:11.999Z</time>
      </trkpt>
      <trkpt lat="47.51607" lon="6.71163">
        <ele>465.8</ele>
        <time>2016-12-28T15:05:12.999Z</time>
      </trkpt>
      <trkpt lat="47.51605" lon="6.71167">
        <ele>465.6</ele>
        <time>2016-12-28T15:05:17.999Z</time>
      </trkpt>
      <trkpt lat="47.51603" lon="6.71171">
        <ele>465.6</ele>
        <time>2016-12-28T15:05:18.999Z</time>
      </trkpt>
      <trkpt lat="47.51603" lon="6.71177">
        <ele>465.3</ele>
        <time>2016-12-28T15:05:20.999Z</time>
      </trkpt>
      <trkpt lat="47.51602" lon="6.7118">
        <ele>465.2</ele>
        <time>2016-12-28T15:05:21.999Z</time>
      </trkpt>
      <trkpt lat="47.51601" lon="6.71186">
        <ele>465</ele>
        <time>2016-12-28T15:05:23.999Z</time>
      </trkpt>
      <trkpt lat="47.516" lon="6.71189">
        <ele>465</ele>
        <time>2016-12-28T15:05:24.999Z</time>
      </trkpt>
      <trkpt lat="47.51599" lon="6.71192">
        <ele>465</ele>
        <time>2016-12-28T15:05:25.999Z</time>
      </trkpt>
      <trkpt lat="47.51598" lon="6.71196">
        <ele>465</ele>
        <time>2016-12-28T15:05:26.999Z</time>
      </trkpt>
      <trkpt lat="47.51597" lon="6.71201">
        <ele>465</ele>
        <time>2016-12-28T15:05:28.999Z</time>
      </trkpt>
      <trkpt lat="47.51596" lon="6.71203">
        <ele>465.1</ele>
        <time>2016-12-28T15:05:29.999Z</time>
      </trkpt>
      <trkpt lat="47.51593" lon="6.71208">
        <ele>464.6</ele>
        <time>2016-12-28T15:05:32.999Z</time>
      </trkpt>
      <trkpt lat="47.51591" lon="6.7121">
        <ele>464.2</ele>
        <time>2016-12-28T15:05:33.999Z</time>
      </trkpt>
      <trkpt lat="47.51589" lon="6.71215">
        <ele>463.6</ele>
        <time>2016-12-28T15:05:36.999Z</time>
      </trkpt>
      <trkpt lat="47.51588" lon="6.71217">
        <ele>463.5</ele>
        <time>2016-12-28T15:05:37.999Z</time>
      </trkpt>
      <trkpt lat="47.51588" lon="6.71221">
        <ele>463.7</ele>
        <time>2016-12-28T15:05:40.999Z</time>
      </trkpt>
      <trkpt lat="47.51588" lon="6.71224">
        <ele>463.7</ele>
        <time>2016-12-28T15:05:41.999Z</time>
      </trkpt>
      <trkpt lat="47.51588" lon="6.71229">
        <ele>464</ele>
        <time>2016-12-28T15:05:43.999Z</time>
      </trkpt>
      <trkpt lat="47.51588" lon="6.71232">
        <ele>464.2</ele>
        <time>2016-12-28T15:05:44.999Z</time>
      </trkpt>
      <trkpt lat="47.51587" lon="6.71237">
        <ele>464.5</ele>
        <time>2016-12-28T15:05:45.999Z</time>
      </trkpt>
      <trkpt lat="47.51587" lon="6.71241">
        <ele>464.6</ele>
        <time>2016-12-28T15:05:46.999Z</time>
      </trkpt>
      <trkpt lat="47.51586" lon="6.71243">
        <ele>464.6</ele>
        <time>2016-12-28T15:05:48.999Z</time>
      </trkpt>
      <trkpt lat="47.51586" lon="6.7125">
        <ele>464.7</ele>
        <time>2016-12-28T15:05:49.999Z</time>
      </trkpt>
      <trkpt lat="47.51586" lon="6.71256">
        <ele>464.8</ele>
        <time>2016-12-28T15:05:50.999Z</time>
      </trkpt>
      <trkpt lat="47.51584" lon="6.71259">
        <ele>464.9</ele>
        <time>2016-12-28T15:05:51.999Z</time>
      </trkpt>
      <trkpt lat="47.51582" lon="6.71263">
        <ele>465.2</ele>
        <time>2016-12-28T15:05:54.999Z</time>
      </trkpt>
      <trkpt lat="47.51581" lon="6.71264">
        <ele>465.3</ele>
        <time>2016-12-28T15:05:55.999Z</time>
      </trkpt>
      <trkpt lat="47.51579" lon="6.71269">
        <ele>465.3</ele>
        <time>2016-12-28T15:05:59.999Z</time>
      </trkpt>
      <trkpt lat="47.51579" lon="6.71271">
        <ele>465.1</ele>
        <time>2016-12-28T15:06:00.999Z</time>
      </trkpt>
      <trkpt lat="47.51578" lon="6.71276">
        <ele>464.7</ele>
        <time>2016-12-28T15:06:03.999Z</time>
      </trkpt>
      <trkpt lat="47.51577" lon="6.71278">
        <ele>464.4</ele>
        <time>2016-12-28T15:06:04.999Z</time>
      </trkpt>
      <trkpt lat="47.51576" lon="6.71284">
        <ele>463.3</ele>
        <time>2016-12-28T15:06:09.999Z</time>
      </trkpt>
      <trkpt lat="47.51576" lon="6.71286">
        <ele>463.1</ele>
        <time>2016-12-28T15:06:10.999Z</time>
      </trkpt>
      <trkpt lat="47.51572" lon="6.71287">
        <ele>462.8</ele>
        <time>2016-12-28T15:06:13.999Z</time>
      </trkpt>
      <trkpt lat="47.51571" lon="6.71287">
        <ele>462.8</ele>
        <time>2016-12-28T15:06:14.999Z</time>
      </trkpt>
      <trkpt lat="47.51568" lon="6.71286">
        <ele>462.8</ele>
        <time>2016-12-28T15:06:17.999Z</time>
      </trkpt>
      <trkpt lat="47.51566" lon="6.71286">
        <ele>463</ele>
        <time>2016-12-28T15:06:18.999Z</time>
      </trkpt>
      <trkpt lat="47.51563" lon="6.71284">
        <ele>463</ele>
        <time>2016-12-28T15:06:20.999Z</time>
      </trkpt>
      <trkpt lat="47.51562" lon="6.71283">
        <ele>463</ele>
        <time>2016-12-28T15:06:21.999Z</time>
      </trkpt>
      <trkpt lat="47.51558" lon="6.71282">
        <ele>462.4</ele>
        <time>2016-12-28T15:06:26.999Z</time>
      </trkpt>
      <trkpt lat="47.51557" lon="6.71282">
        <ele>462.3</ele>
        <time>2016-12-28T15:06:27.999Z</time>
      </trkpt>
      <trkpt lat="47.51553" lon="6.71282">
        <ele>462.1</ele>
        <time>2016-12-28T15:06:30.999Z</time>
      </trkpt>
      <trkpt lat="47.51551" lon="6.71283">
        <ele>462.2</ele>
        <time>2016-12-28T15:06:31.999Z</time>
      </trkpt>
      <trkpt lat="47.51548" lon="6.71283">
        <ele>462.2</ele>
        <time>2016-12-28T15:06:32.999Z</time>
      </trkpt>
      <trkpt lat="47.51546" lon="6.71283">
        <ele>462.2</ele>
        <time>2016-12-28T15:06:33.999Z</time>
      </trkpt>
      <trkpt lat="47.51543" lon="6.71282">
        <ele>462.6</ele>
        <time>2016-12-28T15:06:40.999Z</time>
      </trkpt>
      <trkpt lat="47.51541" lon="6.71282">
        <ele>462.7</ele>
        <time>2016-12-28T15:06:41.999Z</time>
      </trkpt>
      <trkpt lat="47.51537" lon="6.7128">
        <ele>463.1</ele>
        <time>2016-12-28T15:06:43.999Z</time>
      </trkpt>
      <trkpt lat="47.51536" lon="6.71279">
        <ele>463.2</ele>
        <time>2016-12-28T15:06:44.999Z</time>
      </trkpt>
      <trkpt lat="47.51533" lon="6.71277">
        <ele>464.5</ele>
        <time>2016-12-28T15:06:54.999Z</time>
      </trkpt>
      <trkpt lat="47.51531" lon="6.71276">
        <ele>464.7</ele>
        <time>2016-12-28T15:06:55.999Z</time>
      </trkpt>
      <trkpt lat="47.51528" lon="6.71273">
        <ele>465.9</ele>
        <time>2016-12-28T15:06:58.999Z</time>
      </trkpt>
      <trkpt lat="47.51526" lon="6.71274">
        <ele>466.4</ele>
        <time>2016-12-28T15:06:59.999Z</time>
      </trkpt>
      <trkpt lat="47.51525" lon="6.71272">
        <ele>468.9</ele>
        <time>2016-12-28T15:07:05.999Z</time>
      </trkpt>
      <trkpt lat="47.51522" lon="6.7127">
        <ele>469.2</ele>
        <time>2016-12-28T15:07:06.999Z</time>
      </trkpt>
      <trkpt lat="47.51519" lon="6.71268">
        <ele>469.9</ele>
        <time>2016-12-28T15:07:08.999Z</time>
      </trkpt>
      <trkpt lat="47.51517" lon="6.71267">
        <ele>470</ele>
        <time>2016-12-28T15:07:09.999Z</time>
      </trkpt>
      <trkpt lat="47.51514" lon="6.71267">
        <ele>470.2</ele>
        <time>2016-12-28T15:07:12.999Z</time>
      </trkpt>
      <trkpt lat="47.51512" lon="6.71264">
        <ele>470.5</ele>
        <time>2016-12-28T15:07:13.999Z</time>
      </trkpt>
      <trkpt lat="47.5151" lon="6.71262">
        <ele>470.9</ele>
        <time>2016-12-28T15:07:14.999Z</time>
      </trkpt>
      <trkpt lat="47.51507" lon="6.7126">
        <ele>471.7</ele>
        <time>2016-12-28T15:07:16.999Z</time>
      </trkpt>
      <trkpt lat="47.51504" lon="6.71257">
        <ele>472.8</ele>
        <time>2016-12-28T15:07:24.999Z</time>
      </trkpt>
      <trkpt lat="47.51502" lon="6.71256">
        <ele>472.7</ele>
        <time>2016-12-28T15:07:25.999Z</time>
      </trkpt>
      <trkpt lat="47.51499" lon="6.71253">
        <ele>472.6</ele>
        <time>2016-12-28T15:07:26.999Z</time>
      </trkpt>
      <trkpt lat="47.51498" lon="6.71252">
        <ele>472.3</ele>
        <time>2016-12-28T15:07:27.999Z</time>
      </trkpt>
      <trkpt lat="47.51496" lon="6.7125">
        <ele>472.2</ele>
        <time>2016-12-28T15:07:28.999Z</time>
      </trkpt>
      <trkpt lat="47.51494" lon="6.71247">
        <ele>472</ele>
        <time>2016-12-28T15:07:29.999Z</time>
      </trkpt>
      <trkpt lat="47.51491" lon="6.71245">
        <ele>472.2</ele>
        <time>2016-12-28T15:07:33.999Z</time>
      </trkpt>
      <trkpt lat="47.51489" lon="6.71243">
        <ele>472.5</ele>
        <time>2016-12-28T15:07:34.999Z</time>
      </trkpt>
      <trkpt lat="47.51486" lon="6.71242">
        <ele>472.6</ele>
        <time>2016-12-28T15:07:42.999Z</time>
      </trkpt>
      <trkpt lat="47.51485" lon="6.7124">
        <ele>472.8</ele>
        <time>2016-12-28T15:07:43.999Z</time>
      </trkpt>
      <trkpt lat="47.51483" lon="6.71238">
        <ele>474.1</ele>
        <time>2016-12-28T15:07:47.999Z</time>
      </trkpt>
      <trkpt lat="47.5148" lon="6.71235">
        <ele>474.2</ele>
        <time>2016-12-28T15:07:48.999Z</time>
      </trkpt>
      <trkpt lat="47.51477" lon="6.71234">
        <ele>475.7</ele>
        <time>2016-12-28T15:07:57.999Z</time>
      </trkpt>
      <trkpt lat="47.51476" lon="6.71233">
        <ele>475.9</ele>
        <time>2016-12-28T15:07:58.999Z</time>
      </trkpt>
      <trkpt lat="47.51474" lon="6.7123">
        <ele>476.2</ele>
        <time>2016-12-28T15:08:03.999Z</time>
      </trkpt>
      <trkpt lat="47.51472" lon="6.71227">
        <ele>476.3</ele>
        <time>2016-12-28T15:08:04.999Z</time>
      </trkpt>
      <trkpt lat="47.5147" lon="6.71223">
        <ele>476.7</ele>
        <time>2016-12-28T15:08:09.999Z</time>
      </trkpt>
      <trkpt lat="47.51469" lon="6.7122">
        <ele>477</ele>
        <time>2016-12-28T15:08:10.999Z</time>
      </trkpt>
      <trkpt lat="47.51467" lon="6.71216">
        <ele>478.5</ele>
        <time>2016-12-28T15:08:17.999Z</time>
      </trkpt>
      <trkpt lat="47.51466" lon="6.71212">
        <ele>478.7</ele>
        <time>2016-12-28T15:08:18.999Z</time>
      </trkpt>
      <trkpt lat="47.51464" lon="6.71211">
        <ele>481.6</ele>
        <time>2016-12-28T15:08:27.999Z</time>
      </trkpt>
      <trkpt lat="47.51461" lon="6.71208">
        <ele>481.8</ele>
        <time>2016-12-28T15:08:28.999Z</time>
      </trkpt>
      <trkpt lat="47.51458" lon="6.71205">
        <ele>482.9</ele>
        <time>2016-12-28T15:08:34.999Z</time>
      </trkpt>
      <trkpt lat="47.51456" lon="6.712">
        <ele>483</ele>
        <time>2016-12-28T15:08:35.999Z</time>
      </trkpt>
      <trkpt lat="47.51454" lon="6.71196">
        <ele>483.5</ele>
        <time>2016-12-28T15:08:38.999Z</time>
      </trkpt>
      <trkpt lat="47.51452" lon="6.71192">
        <ele>483.5</ele>
        <time>2016-12-28T15:08:39.999Z</time>
      </trkpt>
      <trkpt lat="47.5145" lon="6.71187">
        <ele>483.5</ele>
        <time>2016-12-28T15:08:46.999Z</time>
      </trkpt>
      <trkpt lat="47.51449" lon="6.71185">
        <ele>483.5</ele>
        <time>2016-12-28T15:08:47.999Z</time>
      </trkpt>
      <trkpt lat="47.51448" lon="6.71183">
        <ele>483.5</ele>
        <time>2016-12-28T15:08:48.999Z</time>
      </trkpt>
      <trkpt lat="47.51447" lon="6.71179">
        <ele>483.4</ele>
        <time>2016-12-28T15:08:49.999Z</time>
      </trkpt>
      <trkpt lat="47.51444" lon="6.71175">
        <ele>485.2</ele>
        <time>2016-12-28T15:08:59.999Z</time>
      </trkpt>
      <trkpt lat="47.51441" lon="6.71173">
        <ele>485.5</ele>
        <time>2016-12-28T15:09:00.999Z</time>
      </trkpt>
      <trkpt lat="47.51438" lon="6.71172">
        <ele>485.7</ele>
        <time>2016-12-28T15:09:01.999Z</time>
      </trkpt>
      <trkpt lat="47.51436" lon="6.71171">
        <ele>485.8</ele>
        <time>2016-12-28T15:09:02.999Z</time>
      </trkpt>
      <trkpt lat="47.51432" lon="6.7117">
        <ele>486.4</ele>
        <time>2016-12-28T15:09:06.999Z</time>
      </trkpt>
      <trkpt lat="47.5143" lon="6.7117">
        <ele>486.5</ele>
        <time>2016-12-28T15:09:07.999Z</time>
      </trkpt>
      <trkpt lat="47.51427" lon="6.71171">
        <ele>486.6</ele>
        <time>2016-12-28T15:09:11.999Z</time>
      </trkpt>
      <trkpt lat="47.51425" lon="6.71172">
        <ele>486.4</ele>
        <time>2016-12-28T15:09:12.999Z</time>
      </trkpt>
      <trkpt lat="47.51423" lon="6.71173">
        <ele>486.6</ele>
        <time>2016-12-28T15:09:15.999Z</time>
      </trkpt>
      <trkpt lat="47.5142" lon="6.71172">
        <ele>486.7</ele>
        <time>2016-12-28T15:09:16.999Z</time>
      </trkpt>
      <trkpt lat="47.51416" lon="6.71172">
        <ele>487.3</ele>
        <time>2016-12-28T15:09:21.999Z</time>
      </trkpt>
      <trkpt lat="47.51415" lon="6.71173">
        <ele>487.3</ele>
        <time>2016-12-28T15:09:22.999Z</time>
      </trkpt>
      <trkpt lat="47.51412" lon="6.71174">
        <ele>487.2</ele>
        <time>2016-12-28T15:09:24.999Z</time>
      </trkpt>
      <trkpt lat="47.5141" lon="6.71175">
        <ele>487</ele>
        <time>2016-12-28T15:09:25.999Z</time>
      </trkpt>
      <trkpt lat="47.51407" lon="6.71176">
        <ele>486.8</ele>
        <time>2016-12-28T15:09:27.999Z</time>
      </trkpt>
      <trkpt lat="47.51405" lon="6.71176">
        <ele>486.5</ele>
        <time>2016-12-28T15:09:28.999Z</time>
      </trkpt>
      <trkpt lat="47.51401" lon="6.71177">
        <ele>485.6</ele>
        <time>2016-12-28T15:09:32.999Z</time>
      </trkpt>
      <trkpt lat="47.514" lon="6.71177">
        <ele>485.3</ele>
        <time>2016-12-28T15:09:33.999Z</time>
      </trkpt>
      <trkpt lat="47.51396" lon="6.71176">
        <ele>484.9</ele>
        <time>2016-12-28T15:09:36.999Z</time>
      </trkpt>
      <trkpt lat="47.51395" lon="6.71175">
        <ele>484.9</ele>
        <time>2016-12-28T15:09:37.999Z</time>
      </trkpt>
      <trkpt lat="47.51392" lon="6.71173">
        <ele>484.8</ele>
        <time>2016-12-28T15:09:40.999Z</time>
      </trkpt>
      <trkpt lat="47.5139" lon="6.71173">
        <ele>484.7</ele>
        <time>2016-12-28T15:09:41.999Z</time>
      </trkpt>
      <trkpt lat="47.51387" lon="6.7117">
        <ele>485.4</ele>
        <time>2016-12-28T15:09:50.999Z</time>
      </trkpt>
      <trkpt lat="47.51386" lon="6.71168">
        <ele>485.6</ele>
        <time>2016-12-28T15:09:51.999Z</time>
      </trkpt>
      <trkpt lat="47.51382" lon="6.71167">
        <ele>487.2</ele>
        <time>2016-12-28T15:10:43.999Z</time>
      </trkpt>
      <trkpt lat="47.51382" lon="6.71165">
        <ele>486.8</ele>
        <time>2016-12-28T15:10:44.999Z</time>
      </trkpt>
      <trkpt lat="47.5138" lon="6.71161">
        <ele>485.6</ele>
        <time>2016-12-28T15:10:47.999Z</time>
      </trkpt>
      <trkpt lat="47.51379" lon="6.71158">
        <ele>485.3</ele>
        <time>2016-12-28T15:10:48.999Z</time>
      </trkpt>
      <trkpt lat="47.51377" lon="6.71153">
        <ele>484.7</ele>
        <time>2016-12-28T15:11:00.999Z</time>
      </trkpt>
      <trkpt lat="47.51377" lon="6.71149">
        <ele>484.7</ele>
        <time>2016-12-28T15:11:01.999Z</time>
      </trkpt>
      <trkpt lat="47.51376" lon="6.71144">
        <ele>484.9</ele>
        <time>2016-12-28T15:11:04.999Z</time>
      </trkpt>
      <trkpt lat="47.51376" lon="6.7114">
        <ele>484.7</ele>
        <time>2016-12-28T15:11:05.999Z</time>
      </trkpt>
      <trkpt lat="47.51376" lon="6.71137">
        <ele>484.5</ele>
        <time>2016-12-28T15:11:06.999Z</time>
      </trkpt>
      <trkpt lat="47.51375" lon="6.71133">
        <ele>484.3</ele>
        <time>2016-12-28T15:11:07.999Z</time>
      </trkpt>
      <trkpt lat="47.51375" lon="6.71128">
        <ele>484.5</ele>
        <time>2016-12-28T15:11:11.999Z</time>
      </trkpt>
      <trkpt lat="47.51374" lon="6.71124">
        <ele>484.7</ele>
        <time>2016-12-28T15:11:12.999Z</time>
      </trkpt>
      <trkpt lat="47.51374" lon="6.71117">
        <ele>484.9</ele>
        <time>2016-12-28T15:11:14.999Z</time>
      </trkpt>
      <trkpt lat="47.51375" lon="6.71113">
        <ele>485</ele>
        <time>2016-12-28T15:11:15.999Z</time>
      </trkpt>
      <trkpt lat="47.51376" lon="6.71109">
        <ele>485.2</ele>
        <time>2016-12-28T15:11:16.999Z</time>
      </trkpt>
      <trkpt lat="47.51376" lon="6.71106">
        <ele>485.3</ele>
        <time>2016-12-28T15:11:17.999Z</time>
      </trkpt>
      <trkpt lat="47.51375" lon="6.71101">
        <ele>485.9</ele>
        <time>2016-12-28T15:11:21.999Z</time>
      </trkpt>
      <trkpt lat="47.51374" lon="6.71099">
        <ele>485.9</ele>
        <time>2016-12-28T15:11:22.999Z</time>
      </trkpt>
      <trkpt lat="47.51373" lon="6.71094">
        <ele>486</ele>
        <time>2016-12-28T15:11:24.999Z</time>
      </trkpt>
      <trkpt lat="47.51373" lon="6.71092">
        <ele>486.3</ele>
        <time>2016-12-28T15:11:25.999Z</time>
      </trkpt>
      <trkpt lat="47.51373" lon="6.71086">
        <ele>486.6</ele>
        <time>2016-12-28T15:11:29.999Z</time>
      </trkpt>
      <trkpt lat="47.51373" lon="6.71085">
        <ele>486.8</ele>
        <time>2016-12-28T15:11:30.999Z</time>
      </trkpt>
      <trkpt lat="47.51372" lon="6.71079">
        <ele>487.1</ele>
        <time>2016-12-28T15:11:34.999Z</time>
      </trkpt>
      <trkpt lat="47.51372" lon="6.71078">
        <ele>487.2</ele>
        <time>2016-12-28T15:11:35.999Z</time>
      </trkpt>
      <trkpt lat="47.51369" lon="6.71073">
        <ele>488.4</ele>
        <time>2016-12-28T15:11:40.999Z</time>
      </trkpt>
      <trkpt lat="47.51369" lon="6.71071">
        <ele>488.4</ele>
        <time>2016-12-28T15:11:41.999Z</time>
      </trkpt>
      <trkpt lat="47.51368" lon="6.71066">
        <ele>488.6</ele>
        <time>2016-12-28T15:11:46.999Z</time>
      </trkpt>
      <trkpt lat="47.51367" lon="6.71064">
        <ele>488.5</ele>
        <time>2016-12-28T15:11:47.999Z</time>
      </trkpt>
      <trkpt lat="47.51366" lon="6.7106">
        <ele>488.2</ele>
        <time>2016-12-28T15:11:52.999Z</time>
      </trkpt>
      <trkpt lat="47.51364" lon="6.71059">
        <ele>488</ele>
        <time>2016-12-28T15:11:53.999Z</time>
      </trkpt>
      <trkpt lat="47.51361" lon="6.71055">
        <ele>487.2</ele>
        <time>2016-12-28T15:11:58.999Z</time>
      </trkpt>
      <trkpt lat="47.5136" lon="6.71054">
        <ele>487.3</ele>
        <time>2016-12-28T15:11:59.999Z</time>
      </trkpt>
      <trkpt lat="47.51357" lon="6.71049">
        <ele>487.8</ele>
        <time>2016-12-28T15:12:03.999Z</time>
      </trkpt>
      <trkpt lat="47.51356" lon="6.71047">
        <ele>487.6</ele>
        <time>2016-12-28T15:12:04.999Z</time>
      </trkpt>
      <trkpt lat="47.51352" lon="6.71046">
        <ele>487.9</ele>
        <time>2016-12-28T15:12:11.999Z</time>
      </trkpt>
      <trkpt lat="47.51351" lon="6.71047">
        <ele>487.9</ele>
        <time>2016-12-28T15:12:12.999Z</time>
      </trkpt>
      <trkpt lat="47.51348" lon="6.71047">
        <ele>487.6</ele>
        <time>2016-12-28T15:12:14.999Z</time>
      </trkpt>
      <trkpt lat="47.51347" lon="6.71047">
        <ele>487.5</ele>
        <time>2016-12-28T15:12:15.999Z</time>
      </trkpt>
      <trkpt lat="47.51342" lon="6.71047">
        <ele>487.9</ele>
        <time>2016-12-28T15:12:18.999Z</time>
      </trkpt>
      <trkpt lat="47.51341" lon="6.71046">
        <ele>488</ele>
        <time>2016-12-28T15:12:19.999Z</time>
      </trkpt>
      <trkpt lat="47.5134" lon="6.71044">
        <ele>488.4</ele>
        <time>2016-12-28T15:12:21.999Z</time>
      </trkpt>
      <trkpt lat="47.51338" lon="6.7104">
        <ele>488.6</ele>
        <time>2016-12-28T15:12:22.999Z</time>
      </trkpt>
      <trkpt lat="47.51335" lon="6.71035">
        <ele>489</ele>
        <time>2016-12-28T15:12:25.999Z</time>
      </trkpt>
      <trkpt lat="47.51335" lon="6.71034">
        <ele>489.2</ele>
        <time>2016-12-28T15:12:26.999Z</time>
      </trkpt>
      <trkpt lat="47.51334" lon="6.71031">
        <ele>489.5</ele>
        <time>2016-12-28T15:12:30.999Z</time>
      </trkpt>
      <trkpt lat="47.51334" lon="6.71028">
        <ele>489.8</ele>
        <time>2016-12-28T15:12:31.999Z</time>
      </trkpt>
      <trkpt lat="47.51332" lon="6.7102">
        <ele>490</ele>
        <time>2016-12-28T15:12:32.999Z</time>
      </trkpt>
      <trkpt lat="47.51333" lon="6.71014">
        <ele>490.3</ele>
        <time>2016-12-28T15:12:36.999Z</time>
      </trkpt>
      <trkpt lat="47.51333" lon="6.71012">
        <ele>490.5</ele>
        <time>2016-12-28T15:12:37.999Z</time>
      </trkpt>
      <trkpt lat="47.51334" lon="6.71007">
        <ele>491</ele>
        <time>2016-12-28T15:12:40.999Z</time>
      </trkpt>
      <trkpt lat="47.51334" lon="6.71003">
        <ele>491.2</ele>
        <time>2016-12-28T15:12:41.999Z</time>
      </trkpt>
      <trkpt lat="47.51332" lon="6.70997">
        <ele>491.8</ele>
        <time>2016-12-28T15:12:45.999Z</time>
      </trkpt>
      <trkpt lat="47.51333" lon="6.70996">
        <ele>491.7</ele>
        <time>2016-12-28T15:12:46.999Z</time>
      </trkpt>
      <trkpt lat="47.51333" lon="6.70993">
        <ele>491.6</ele>
        <time>2016-12-28T15:12:47.999Z</time>
      </trkpt>
      <trkpt lat="47.51334" lon="6.70985">
        <ele>491.5</ele>
        <time>2016-12-28T15:12:48.999Z</time>
      </trkpt>
      <trkpt lat="47.51333" lon="6.7098">
        <ele>490.9</ele>
        <time>2016-12-28T15:12:55.999Z</time>
      </trkpt>
      <trkpt lat="47.51332" lon="6.70977">
        <ele>490.8</ele>
        <time>2016-12-28T15:12:56.999Z</time>
      </trkpt>
      <trkpt lat="47.51331" lon="6.70973">
        <ele>490.8</ele>
        <time>2016-12-28T15:12:57.999Z</time>
      </trkpt>
      <trkpt lat="47.51331" lon="6.70969">
        <ele>490.8</ele>
        <time>2016-12-28T15:12:58.999Z</time>
      </trkpt>
      <trkpt lat="47.51329" lon="6.70963">
        <ele>490.9</ele>
        <time>2016-12-28T15:13:01.999Z</time>
      </trkpt>
      <trkpt lat="47.51328" lon="6.7096">
        <ele>491.2</ele>
        <time>2016-12-28T15:13:02.999Z</time>
      </trkpt>
      <trkpt lat="47.51326" lon="6.70955">
        <ele>491.6</ele>
        <time>2016-12-28T15:13:03.999Z</time>
      </trkpt>
      <trkpt lat="47.51324" lon="6.7095">
        <ele>491.8</ele>
        <time>2016-12-28T15:13:04.999Z</time>
      </trkpt>
      <trkpt lat="47.51323" lon="6.70945">
        <ele>492.7</ele>
        <time>2016-12-28T15:13:08.999Z</time>
      </trkpt>
      <trkpt lat="47.51321" lon="6.70943">
        <ele>492.9</ele>
        <time>2016-12-28T15:13:09.999Z</time>
      </trkpt>
      <trkpt lat="47.51319" lon="6.7094">
        <ele>493.6</ele>
        <time>2016-12-28T15:13:12.999Z</time>
      </trkpt>
      <trkpt lat="47.51312" lon="6.70929">
        <ele>493.9</ele>
        <time>2016-12-28T15:13:13.999Z</time>
      </trkpt>
      <trkpt lat="47.51312" lon="6.70925">
        <ele>494</ele>
        <time>2016-12-28T15:13:14.999Z</time>
      </trkpt>
      <trkpt lat="47.51311" lon="6.70914">
        <ele>494</ele>
        <time>2016-12-28T15:13:15.999Z</time>
      </trkpt>
      <trkpt lat="47.51312" lon="6.70908">
        <ele>494.2</ele>
        <time>2016-12-28T15:13:16.999Z</time>
      </trkpt>
      <trkpt lat="47.51313" lon="6.70905">
        <ele>494.3</ele>
        <time>2016-12-28T15:13:17.999Z</time>
      </trkpt>
      <trkpt lat="47.51314" lon="6.709">
        <ele>494.4</ele>
        <time>2016-12-28T15:13:19.999Z</time>
      </trkpt>
      <trkpt lat="47.51315" lon="6.70897">
        <ele>494.6</ele>
        <time>2016-12-28T15:13:20.999Z</time>
      </trkpt>
      <trkpt lat="47.51317" lon="6.70892">
        <ele>495.1</ele>
        <time>2016-12-28T15:13:25.999Z</time>
      </trkpt>
      <trkpt lat="47.51317" lon="6.70891">
        <ele>495.2</ele>
        <time>2016-12-28T15:13:26.999Z</time>
      </trkpt>
      <trkpt lat="47.51315" lon="6.70887">
        <ele>494.8</ele>
        <time>2016-12-28T15:13:32.999Z</time>
      </trkpt>
      <trkpt lat="47.51313" lon="6.70886">
        <ele>494.7</ele>
        <time>2016-12-28T15:13:33.999Z</time>
      </trkpt>
      <trkpt lat="47.5131" lon="6.70887">
        <ele>494.7</ele>
        <time>2016-12-28T15:13:34.999Z</time>
      </trkpt>
      <trkpt lat="47.51308" lon="6.70888">
        <ele>494.8</ele>
        <time>2016-12-28T15:13:35.999Z</time>
      </trkpt>
      <trkpt lat="47.51305" lon="6.70888">
        <ele>494.8</ele>
        <time>2016-12-28T15:13:36.999Z</time>
      </trkpt>
      <trkpt lat="47.51303" lon="6.7089">
        <ele>494.7</ele>
        <time>2016-12-28T15:13:37.999Z</time>
      </trkpt>
      <trkpt lat="47.51301" lon="6.70893">
        <ele>494.6</ele>
        <time>2016-12-28T15:13:38.999Z</time>
      </trkpt>
      <trkpt lat="47.51299" lon="6.70893">
        <ele>494.5</ele>
        <time>2016-12-28T15:13:39.999Z</time>
      </trkpt>
      <trkpt lat="47.51295" lon="6.70895">
        <ele>494</ele>
        <time>2016-12-28T15:13:41.999Z</time>
      </trkpt>
      <trkpt lat="47.51294" lon="6.70896">
        <ele>493.8</ele>
        <time>2016-12-28T15:13:42.999Z</time>
      </trkpt>
      <trkpt lat="47.51291" lon="6.70897">
        <ele>493.6</ele>
        <time>2016-12-28T15:13:43.999Z</time>
      </trkpt>
      <trkpt lat="47.5129" lon="6.70899">
        <ele>493.4</ele>
        <time>2016-12-28T15:13:44.999Z</time>
      </trkpt>
      <trkpt lat="47.51287" lon="6.70902">
        <ele>493.1</ele>
        <time>2016-12-28T15:13:46.999Z</time>
      </trkpt>
      <trkpt lat="47.51286" lon="6.70903">
        <ele>493</ele>
        <time>2016-12-28T15:13:47.999Z</time>
      </trkpt>
      <trkpt lat="47.51281" lon="6.70904">
        <ele>492.8</ele>
        <time>2016-12-28T15:13:49.999Z</time>
      </trkpt>
      <trkpt lat="47.51279" lon="6.70905">
        <ele>492.8</ele>
        <time>2016-12-28T15:13:50.999Z</time>
      </trkpt>
      <trkpt lat="47.51276" lon="6.70904">
        <ele>492.9</ele>
        <time>2016-12-28T15:13:51.999Z</time>
      </trkpt>
      <trkpt lat="47.51274" lon="6.70904">
        <ele>493</ele>
        <time>2016-12-28T15:13:52.999Z</time>
      </trkpt>
      <trkpt lat="47.51271" lon="6.70902">
        <ele>493</ele>
        <time>2016-12-28T15:13:53.999Z</time>
      </trkpt>
      <trkpt lat="47.51269" lon="6.70901">
        <ele>493.1</ele>
        <time>2016-12-28T15:13:54.999Z</time>
      </trkpt>
      <trkpt lat="47.51268" lon="6.70907">
        <ele>493</ele>
        <time>2016-12-28T15:13:58.999Z</time>
      </trkpt>
      <trkpt lat="47.51268" lon="6.70909">
        <ele>493</ele>
        <time>2016-12-28T15:13:59.999Z</time>
      </trkpt>
      <trkpt lat="47.51266" lon="6.70914">
        <ele>493.1</ele>
        <time>2016-12-28T15:14:00.999Z</time>
      </trkpt>
      <trkpt lat="47.51265" lon="6.70917">
        <ele>493.1</ele>
        <time>2016-12-28T15:14:01.999Z</time>
      </trkpt>
      <trkpt lat="47.51263" lon="6.70922">
        <ele>493.2</ele>
        <time>2016-12-28T15:14:03.999Z</time>
      </trkpt>
      <trkpt lat="47.51263" lon="6.70925">
        <ele>493.3</ele>
        <time>2016-12-28T15:14:04.999Z</time>
      </trkpt>
      <trkpt lat="47.51265" lon="6.7093">
        <ele>493.7</ele>
        <time>2016-12-28T15:14:08.999Z</time>
      </trkpt>
      <trkpt lat="47.51264" lon="6.70932">
        <ele>493.8</ele>
        <time>2016-12-28T15:14:09.999Z</time>
      </trkpt>
      <trkpt lat="47.51265" lon="6.70938">
        <ele>493.8</ele>
        <time>2016-12-28T15:14:11.999Z</time>
      </trkpt>
      <trkpt lat="47.51266" lon="6.7094">
        <ele>493.8</ele>
        <time>2016-12-28T15:14:12.999Z</time>
      </trkpt>
      <trkpt lat="47.51267" lon="6.70943">
        <ele>493.7</ele>
        <time>2016-12-28T15:14:13.999Z</time>
      </trkpt>
      <trkpt lat="47.51269" lon="6.70949">
        <ele>493.6</ele>
        <time>2016-12-28T15:14:14.999Z</time>
      </trkpt>
      <trkpt lat="47.5127" lon="6.70953">
        <ele>493.5</ele>
        <time>2016-12-28T15:14:15.999Z</time>
      </trkpt>
      <trkpt lat="47.51271" lon="6.70958">
        <ele>493.3</ele>
        <time>2016-12-28T15:14:16.999Z</time>
      </trkpt>
      <trkpt lat="47.51272" lon="6.70961">
        <ele>493.1</ele>
        <time>2016-12-28T15:14:17.999Z</time>
      </trkpt>
      <trkpt lat="47.51272" lon="6.70966">
        <ele>492.8</ele>
        <time>2016-12-28T15:14:18.999Z</time>
      </trkpt>
      <trkpt lat="47.51272" lon="6.70972">
        <ele>492.7</ele>
        <time>2016-12-28T15:14:19.999Z</time>
      </trkpt>
      <trkpt lat="47.51271" lon="6.70976">
        <ele>492.5</ele>
        <time>2016-12-28T15:14:20.999Z</time>
      </trkpt>
      <trkpt lat="47.5127" lon="6.7098">
        <ele>492.1</ele>
        <time>2016-12-28T15:14:22.999Z</time>
      </trkpt>
      <trkpt lat="47.51269" lon="6.70983">
        <ele>491.7</ele>
        <time>2016-12-28T15:14:23.999Z</time>
      </trkpt>
      <trkpt lat="47.51268" lon="6.70987">
        <ele>491.1</ele>
        <time>2016-12-28T15:14:25.999Z</time>
      </trkpt>
      <trkpt lat="47.51268" lon="6.7099">
        <ele>490.7</ele>
        <time>2016-12-28T15:14:26.999Z</time>
      </trkpt>
      <trkpt lat="47.51267" lon="6.70997">
        <ele>489.9</ele>
        <time>2016-12-28T15:14:29.999Z</time>
      </trkpt>
      <trkpt lat="47.51267" lon="6.71001">
        <ele>489.7</ele>
        <time>2016-12-28T15:14:30.999Z</time>
      </trkpt>
      <trkpt lat="47.51267" lon="6.71008">
        <ele>489.4</ele>
        <time>2016-12-28T15:14:31.999Z</time>
      </trkpt>
      <trkpt lat="47.51267" lon="6.71012">
        <ele>489.1</ele>
        <time>2016-12-28T15:14:32.999Z</time>
      </trkpt>
      <trkpt lat="47.51266" lon="6.71016">
        <ele>489</ele>
        <time>2016-12-28T15:14:33.999Z</time>
      </trkpt>
      <trkpt lat="47.51264" lon="6.71022">
        <ele>488.7</ele>
        <time>2016-12-28T15:14:34.999Z</time>
      </trkpt>
      <trkpt lat="47.51263" lon="6.71029">
        <ele>488.5</ele>
        <time>2016-12-28T15:14:35.999Z</time>
      </trkpt>
      <trkpt lat="47.51263" lon="6.71035">
        <ele>488.3</ele>
        <time>2016-12-28T15:14:36.999Z</time>
      </trkpt>
      <trkpt lat="47.51264" lon="6.71041">
        <ele>488.1</ele>
        <time>2016-12-28T15:14:37.999Z</time>
      </trkpt>
      <trkpt lat="47.51264" lon="6.71045">
        <ele>487.9</ele>
        <time>2016-12-28T15:14:38.999Z</time>
      </trkpt>
      <trkpt lat="47.51262" lon="6.71049">
        <ele>487.7</ele>
        <time>2016-12-28T15:14:39.999Z</time>
      </trkpt>
      <trkpt lat="47.51261" lon="6.71056">
        <ele>487.5</ele>
        <time>2016-12-28T15:14:40.999Z</time>
      </trkpt>
      <trkpt lat="47.5126" lon="6.71062">
        <ele>487.2</ele>
        <time>2016-12-28T15:14:41.999Z</time>
      </trkpt>
      <trkpt lat="47.51259" lon="6.7107">
        <ele>487</ele>
        <time>2016-12-28T15:14:42.999Z</time>
      </trkpt>
      <trkpt lat="47.51258" lon="6.71079">
        <ele>486.8</ele>
        <time>2016-12-28T15:14:43.999Z</time>
      </trkpt>
      <trkpt lat="47.51258" lon="6.71087">
        <ele>486.9</ele>
        <time>2016-12-28T15:14:44.999Z</time>
      </trkpt>
      <trkpt lat="47.51258" lon="6.71095">
        <ele>486.6</ele>
        <time>2016-12-28T15:14:45.999Z</time>
      </trkpt>
      <trkpt lat="47.51257" lon="6.71102">
        <ele>486.4</ele>
        <time>2016-12-28T15:14:46.999Z</time>
      </trkpt>
      <trkpt lat="47.51256" lon="6.71109">
        <ele>486.2</ele>
        <time>2016-12-28T15:14:47.999Z</time>
      </trkpt>
      <trkpt lat="47.51256" lon="6.71115">
        <ele>486.1</ele>
        <time>2016-12-28T15:14:48.999Z</time>
      </trkpt>
      <trkpt lat="47.51255" lon="6.71124">
        <ele>485.9</ele>
        <time>2016-12-28T15:14:49.999Z</time>
      </trkpt>
      <trkpt lat="47.51254" lon="6.71128">
        <ele>485.6</ele>
        <time>2016-12-28T15:14:50.999Z</time>
      </trkpt>
      <trkpt lat="47.51254" lon="6.71137">
        <ele>485.5</ele>
        <time>2016-12-28T15:14:51.999Z</time>
      </trkpt>
      <trkpt lat="47.51256" lon="6.71141">
        <ele>485.3</ele>
        <time>2016-12-28T15:14:52.999Z</time>
      </trkpt>
      <trkpt lat="47.51256" lon="6.71145">
        <ele>485.2</ele>
        <time>2016-12-28T15:14:53.999Z</time>
      </trkpt>
      <trkpt lat="47.51256" lon="6.71151">
        <ele>484.9</ele>
        <time>2016-12-28T15:14:54.999Z</time>
      </trkpt>
      <trkpt lat="47.51255" lon="6.71156">
        <ele>484.7</ele>
        <time>2016-12-28T15:14:55.999Z</time>
      </trkpt>
      <trkpt lat="47.51254" lon="6.71164">
        <ele>484.1</ele>
        <time>2016-12-28T15:14:56.999Z</time>
      </trkpt>
      <trkpt lat="47.51254" lon="6.71171">
        <ele>483.6</ele>
        <time>2016-12-28T15:14:57.999Z</time>
      </trkpt>
      <trkpt lat="47.51255" lon="6.71178">
        <ele>483.2</ele>
        <time>2016-12-28T15:14:58.999Z</time>
      </trkpt>
      <trkpt lat="47.51253" lon="6.71185">
        <ele>482.7</ele>
        <time>2016-12-28T15:14:59.999Z</time>
      </trkpt>
      <trkpt lat="47.51253" lon="6.7119">
        <ele>482.2</ele>
        <time>2016-12-28T15:15:00.999Z</time>
      </trkpt>
      <trkpt lat="47.51254" lon="6.71197">
        <ele>481.8</ele>
        <time>2016-12-28T15:15:01.999Z</time>
      </trkpt>
      <trkpt lat="47.51254" lon="6.71203">
        <ele>481.3</ele>
        <time>2016-12-28T15:15:02.999Z</time>
      </trkpt>
      <trkpt lat="47.51254" lon="6.7121">
        <ele>480.8</ele>
        <time>2016-12-28T15:15:03.999Z</time>
      </trkpt>
      <trkpt lat="47.51254" lon="6.71216">
        <ele>480.3</ele>
        <time>2016-12-28T15:15:04.999Z</time>
      </trkpt>
      <trkpt lat="47.51253" lon="6.71221">
        <ele>479.9</ele>
        <time>2016-12-28T15:15:05.999Z</time>
      </trkpt>
      <trkpt lat="47.51251" lon="6.71227">
        <ele>479.4</ele>
        <time>2016-12-28T15:15:06.999Z</time>
      </trkpt>
      <trkpt lat="47.5125" lon="6.71235">
        <ele>479</ele>
        <time>2016-12-28T15:15:07.999Z</time>
      </trkpt>
      <trkpt lat="47.51249" lon="6.71241">
        <ele>478.4</ele>
        <time>2016-12-28T15:15:08.999Z</time>
      </trkpt>
      <trkpt lat="47.51247" lon="6.71248">
        <ele>478</ele>
        <time>2016-12-28T15:15:09.999Z</time>
      </trkpt>
      <trkpt lat="47.51246" lon="6.71256">
        <ele>477.6</ele>
        <time>2016-12-28T15:15:10.999Z</time>
      </trkpt>
      <trkpt lat="47.51244" lon="6.71264">
        <ele>477.4</ele>
        <time>2016-12-28T15:15:11.999Z</time>
      </trkpt>
      <trkpt lat="47.51244" lon="6.71273">
        <ele>477.4</ele>
        <time>2016-12-28T15:15:12.999Z</time>
      </trkpt>
      <trkpt lat="47.51246" lon="6.71282">
        <ele>477.4</ele>
        <time>2016-12-28T15:15:13.999Z</time>
      </trkpt>
      <trkpt lat="47.51247" lon="6.71292">
        <ele>477.4</ele>
        <time>2016-12-28T15:15:14.999Z</time>
      </trkpt>
      <trkpt lat="47.51248" lon="6.71308">
        <ele>477.4</ele>
        <time>2016-12-28T15:15:15.999Z</time>
      </trkpt>
      <trkpt lat="47.51246" lon="6.71316">
        <ele>477.4</ele>
        <time>2016-12-28T15:15:16.999Z</time>
      </trkpt>
      <trkpt lat="47.51244" lon="6.71323">
        <ele>477.3</ele>
        <time>2016-12-28T15:15:17.999Z</time>
      </trkpt>
      <trkpt lat="47.51243" lon="6.7133">
        <ele>477.2</ele>
        <time>2016-12-28T15:15:18.999Z</time>
      </trkpt>
      <trkpt lat="47.51242" lon="6.71336">
        <ele>477.1</ele>
        <time>2016-12-28T15:15:19.999Z</time>
      </trkpt>
      <trkpt lat="47.5124" lon="6.71341">
        <ele>477</ele>
        <time>2016-12-28T15:15:20.999Z</time>
      </trkpt>
      <trkpt lat="47.51239" lon="6.71348">
        <ele>477</ele>
        <time>2016-12-28T15:15:21.999Z</time>
      </trkpt>
      <trkpt lat="47.51237" lon="6.71357">
        <ele>476.9</ele>
        <time>2016-12-28T15:15:22.999Z</time>
      </trkpt>
      <trkpt lat="47.51237" lon="6.71368">
        <ele>476.8</ele>
        <time>2016-12-28T15:15:23.999Z</time>
      </trkpt>
      <trkpt lat="47.51236" lon="6.71382">
        <ele>476.7</ele>
        <time>2016-12-28T15:15:24.999Z</time>
      </trkpt>
      <trkpt lat="47.51236" lon="6.71387">
        <ele>476.8</ele>
        <time>2016-12-28T15:15:25.999Z</time>
      </trkpt>
      <trkpt lat="47.51238" lon="6.7139">
        <ele>476.9</ele>
        <time>2016-12-28T15:15:26.999Z</time>
      </trkpt>
      <trkpt lat="47.51239" lon="6.71394">
        <ele>477</ele>
        <time>2016-12-28T15:15:27.999Z</time>
      </trkpt>
      <trkpt lat="47.51239" lon="6.71398">
        <ele>477.1</ele>
        <time>2016-12-28T15:15:28.999Z</time>
      </trkpt>
      <trkpt lat="47.51239" lon="6.71403">
        <ele>477.3</ele>
        <time>2016-12-28T15:15:29.999Z</time>
      </trkpt>
      <trkpt lat="47.51239" lon="6.71407">
        <ele>477.3</ele>
        <time>2016-12-28T15:15:30.999Z</time>
      </trkpt>
      <trkpt lat="47.51239" lon="6.71412">
        <ele>477.3</ele>
        <time>2016-12-28T15:15:31.999Z</time>
      </trkpt>
      <trkpt lat="47.51238" lon="6.71416">
        <ele>477.3</ele>
        <time>2016-12-28T15:15:32.999Z</time>
      </trkpt>
      <trkpt lat="47.51238" lon="6.7142">
        <ele>477.3</ele>
        <time>2016-12-28T15:15:33.999Z</time>
      </trkpt>
      <trkpt lat="47.51238" lon="6.71426">
        <ele>477.2</ele>
        <time>2016-12-28T15:15:34.999Z</time>
      </trkpt>
      <trkpt lat="47.51239" lon="6.7143">
        <ele>477.1</ele>
        <time>2016-12-28T15:15:35.999Z</time>
      </trkpt>
      <trkpt lat="47.51242" lon="6.71434">
        <ele>477.1</ele>
        <time>2016-12-28T15:15:36.999Z</time>
      </trkpt>
      <trkpt lat="47.51242" lon="6.71441">
        <ele>477.1</ele>
        <time>2016-12-28T15:15:37.999Z</time>
      </trkpt>
      <trkpt lat="47.51242" lon="6.71445">
        <ele>477</ele>
        <time>2016-12-28T15:15:38.999Z</time>
      </trkpt>
      <trkpt lat="47.51238" lon="6.71451">
        <ele>477.1</ele>
        <time>2016-12-28T15:15:39.999Z</time>
      </trkpt>
      <trkpt lat="47.51233" lon="6.71455">
        <ele>477.1</ele>
        <time>2016-12-28T15:15:40.999Z</time>
      </trkpt>
      <trkpt lat="47.51232" lon="6.71461">
        <ele>477.2</ele>
        <time>2016-12-28T15:15:43.999Z</time>
      </trkpt>
      <trkpt lat="47.51231" lon="6.71465">
        <ele>477.3</ele>
        <time>2016-12-28T15:15:44.999Z</time>
      </trkpt>
      <trkpt lat="47.51231" lon="6.7147">
        <ele>477.5</ele>
        <time>2016-12-28T15:15:45.999Z</time>
      </trkpt>
      <trkpt lat="47.51232" lon="6.71476">
        <ele>477.6</ele>
        <time>2016-12-28T15:15:46.999Z</time>
      </trkpt>
      <trkpt lat="47.51231" lon="6.71481">
        <ele>477.8</ele>
        <time>2016-12-28T15:15:47.999Z</time>
      </trkpt>
      <trkpt lat="47.51232" lon="6.71487">
        <ele>477.9</ele>
        <time>2016-12-28T15:15:48.999Z</time>
      </trkpt>
      <trkpt lat="47.51233" lon="6.71493">
        <ele>477.8</ele>
        <time>2016-12-28T15:15:49.999Z</time>
      </trkpt>
      <trkpt lat="47.51234" lon="6.71498">
        <ele>477.7</ele>
        <time>2016-12-28T15:15:50.999Z</time>
      </trkpt>
      <trkpt lat="47.51234" lon="6.71502">
        <ele>477.6</ele>
        <time>2016-12-28T15:15:51.999Z</time>
      </trkpt>
      <trkpt lat="47.51234" lon="6.71507">
        <ele>477.5</ele>
        <time>2016-12-28T15:15:52.999Z</time>
      </trkpt>
      <trkpt lat="47.51234" lon="6.71512">
        <ele>477.3</ele>
        <time>2016-12-28T15:15:53.999Z</time>
      </trkpt>
      <trkpt lat="47.51233" lon="6.71515">
        <ele>477.4</ele>
        <time>2016-12-28T15:15:54.999Z</time>
      </trkpt>
      <trkpt lat="47.51233" lon="6.71519">
        <ele>477.5</ele>
        <time>2016-12-28T15:15:55.999Z</time>
      </trkpt>
      <trkpt lat="47.51233" lon="6.71524">
        <ele>477.5</ele>
        <time>2016-12-28T15:15:56.999Z</time>
      </trkpt>
      <trkpt lat="47.51231" lon="6.71529">
        <ele>477.6</ele>
        <time>2016-12-28T15:15:57.999Z</time>
      </trkpt>
      <trkpt lat="47.51228" lon="6.71533">
        <ele>477.6</ele>
        <time>2016-12-28T15:15:58.999Z</time>
      </trkpt>
      <trkpt lat="47.51225" lon="6.71536">
        <ele>477.7</ele>
        <time>2016-12-28T15:15:59.999Z</time>
      </trkpt>
      <trkpt lat="47.51223" lon="6.71542">
        <ele>477.7</ele>
        <time>2016-12-28T15:16:00.999Z</time>
      </trkpt>
      <trkpt lat="47.51221" lon="6.71547">
        <ele>477.7</ele>
        <time>2016-12-28T15:16:01.999Z</time>
      </trkpt>
      <trkpt lat="47.51219" lon="6.71553">
        <ele>477.7</ele>
        <time>2016-12-28T15:16:02.999Z</time>
      </trkpt>
      <trkpt lat="47.51217" lon="6.71559">
        <ele>477.8</ele>
        <time>2016-12-28T15:16:03.999Z</time>
      </trkpt>
      <trkpt lat="47.51216" lon="6.71564">
        <ele>477.8</ele>
        <time>2016-12-28T15:16:04.999Z</time>
      </trkpt>
      <trkpt lat="47.51216" lon="6.71567">
        <ele>477.8</ele>
        <time>2016-12-28T15:16:05.999Z</time>
      </trkpt>
      <trkpt lat="47.51215" lon="6.71571">
        <ele>477.9</ele>
        <time>2016-12-28T15:16:06.999Z</time>
      </trkpt>
      <trkpt lat="47.51214" lon="6.71576">
        <ele>478</ele>
        <time>2016-12-28T15:16:07.999Z</time>
      </trkpt>
      <trkpt lat="47.51213" lon="6.7158">
        <ele>478.1</ele>
        <time>2016-12-28T15:16:08.999Z</time>
      </trkpt>
      <trkpt lat="47.51212" lon="6.71585">
        <ele>478.1</ele>
        <time>2016-12-28T15:16:09.999Z</time>
      </trkpt>
      <trkpt lat="47.51211" lon="6.71592">
        <ele>478.1</ele>
        <time>2016-12-28T15:16:10.999Z</time>
      </trkpt>
      <trkpt lat="47.51212" lon="6.71599">
        <ele>478.2</ele>
        <time>2016-12-28T15:16:11.999Z</time>
      </trkpt>
      <trkpt lat="47.51211" lon="6.71606">
        <ele>478.5</ele>
        <time>2016-12-28T15:16:12.999Z</time>
      </trkpt>
      <trkpt lat="47.51211" lon="6.71612">
        <ele>478.6</ele>
        <time>2016-12-28T15:16:13.999Z</time>
      </trkpt>
      <trkpt lat="47.51211" lon="6.71617">
        <ele>478.6</ele>
        <time>2016-12-28T15:16:14.999Z</time>
      </trkpt>
      <trkpt lat="47.51211" lon="6.71623">
        <ele>478.7</ele>
        <time>2016-12-28T15:16:15.999Z</time>
      </trkpt>
      <trkpt lat="47.51211" lon="6.7163">
        <ele>478.7</ele>
        <time>2016-12-28T15:16:16.999Z</time>
      </trkpt>
      <trkpt lat="47.5121" lon="6.71636">
        <ele>478.9</ele>
        <time>2016-12-28T15:16:17.999Z</time>
      </trkpt>
      <trkpt lat="47.51207" lon="6.71649">
        <ele>479</ele>
        <time>2016-12-28T15:16:18.999Z</time>
      </trkpt>
      <trkpt lat="47.51207" lon="6.71653">
        <ele>479</ele>
        <time>2016-12-28T15:16:19.999Z</time>
      </trkpt>
      <trkpt lat="47.51208" lon="6.71657">
        <ele>479</ele>
        <time>2016-12-28T15:16:20.999Z</time>
      </trkpt>
      <trkpt lat="47.51209" lon="6.71661">
        <ele>479.2</ele>
        <time>2016-12-28T15:16:23.999Z</time>
      </trkpt>
      <trkpt lat="47.51211" lon="6.71668">
        <ele>479.3</ele>
        <time>2016-12-28T15:16:24.999Z</time>
      </trkpt>
      <trkpt lat="47.51212" lon="6.71674">
        <ele>479.5</ele>
        <time>2016-12-28T15:16:25.999Z</time>
      </trkpt>
      <trkpt lat="47.51214" lon="6.71682">
        <ele>479.8</ele>
        <time>2016-12-28T15:16:26.999Z</time>
      </trkpt>
      <trkpt lat="47.51217" lon="6.71696">
        <ele>480.1</ele>
        <time>2016-12-28T15:16:27.999Z</time>
      </trkpt>
      <trkpt lat="47.51218" lon="6.71704">
        <ele>480.4</ele>
        <time>2016-12-28T15:16:28.999Z</time>
      </trkpt>
      <trkpt lat="47.51219" lon="6.71712">
        <ele>480.7</ele>
        <time>2016-12-28T15:16:29.999Z</time>
      </trkpt>
      <trkpt lat="47.51218" lon="6.71718">
        <ele>480.9</ele>
        <time>2016-12-28T15:16:30.999Z</time>
      </trkpt>
      <trkpt lat="47.51217" lon="6.71726">
        <ele>481.1</ele>
        <time>2016-12-28T15:16:31.999Z</time>
      </trkpt>
      <trkpt lat="47.51216" lon="6.7173">
        <ele>481.2</ele>
        <time>2016-12-28T15:16:32.999Z</time>
      </trkpt>
      <trkpt lat="47.51214" lon="6.71736">
        <ele>481.4</ele>
        <time>2016-12-28T15:16:33.999Z</time>
      </trkpt>
      <trkpt lat="47.51215" lon="6.71741">
        <ele>481.6</ele>
        <time>2016-12-28T15:16:34.999Z</time>
      </trkpt>
      <trkpt lat="47.51214" lon="6.71747">
        <ele>481.8</ele>
        <time>2016-12-28T15:16:35.999Z</time>
      </trkpt>
      <trkpt lat="47.51211" lon="6.71752">
        <ele>481.9</ele>
        <time>2016-12-28T15:16:36.999Z</time>
      </trkpt>
      <trkpt lat="47.51209" lon="6.71756">
        <ele>482</ele>
        <time>2016-12-28T15:16:37.999Z</time>
      </trkpt>
      <trkpt lat="47.51209" lon="6.7176">
        <ele>482</ele>
        <time>2016-12-28T15:16:38.999Z</time>
      </trkpt>
      <trkpt lat="47.5121" lon="6.71763">
        <ele>481.9</ele>
        <time>2016-12-28T15:16:39.999Z</time>
      </trkpt>
      <trkpt lat="47.51212" lon="6.71767">
        <ele>482</ele>
        <time>2016-12-28T15:16:40.999Z</time>
      </trkpt>
      <trkpt lat="47.51213" lon="6.7177">
        <ele>482.1</ele>
        <time>2016-12-28T15:16:41.999Z</time>
      </trkpt>
      <trkpt lat="47.51214" lon="6.71774">
        <ele>482.1</ele>
        <time>2016-12-28T15:16:42.999Z</time>
      </trkpt>
      <trkpt lat="47.51213" lon="6.71779">
        <ele>482.1</ele>
        <time>2016-12-28T15:16:43.999Z</time>
      </trkpt>
      <trkpt lat="47.51212" lon="6.71784">
        <ele>482</ele>
        <time>2016-12-28T15:16:44.999Z</time>
      </trkpt>
      <trkpt lat="47.51209" lon="6.7179">
        <ele>482</ele>
        <time>2016-12-28T15:16:45.999Z</time>
      </trkpt>
      <trkpt lat="47.51206" lon="6.71796">
        <ele>482.1</ele>
        <time>2016-12-28T15:16:46.999Z</time>
      </trkpt>
      <trkpt lat="47.51208" lon="6.71803">
        <ele>482.1</ele>
        <time>2016-12-28T15:16:47.999Z</time>
      </trkpt>
      <trkpt lat="47.51214" lon="6.71818">
        <ele>482</ele>
        <time>2016-12-28T15:16:48.999Z</time>
      </trkpt>
      <trkpt lat="47.51216" lon="6.71824">
        <ele>481.9</ele>
        <time>2016-12-28T15:16:49.999Z</time>
      </trkpt>
      <trkpt lat="47.51217" lon="6.71828">
        <ele>481.8</ele>
        <time>2016-12-28T15:16:50.999Z</time>
      </trkpt>
      <trkpt lat="47.51219" lon="6.71832">
        <ele>481.9</ele>
        <time>2016-12-28T15:16:51.999Z</time>
      </trkpt>
      <trkpt lat="47.51221" lon="6.71835">
        <ele>481.9</ele>
        <time>2016-12-28T15:16:52.999Z</time>
      </trkpt>
      <trkpt lat="47.51225" lon="6.71841">
        <ele>482.1</ele>
        <time>2016-12-28T15:16:53.999Z</time>
      </trkpt>
      <trkpt lat="47.51226" lon="6.71846">
        <ele>482.4</ele>
        <time>2016-12-28T15:16:54.999Z</time>
      </trkpt>
      <trkpt lat="47.51227" lon="6.71856">
        <ele>482.6</ele>
        <time>2016-12-28T15:16:55.999Z</time>
      </trkpt>
      <trkpt lat="47.51226" lon="6.71863">
        <ele>482.7</ele>
        <time>2016-12-28T15:16:56.999Z</time>
      </trkpt>
      <trkpt lat="47.51225" lon="6.71871">
        <ele>482.8</ele>
        <time>2016-12-28T15:16:57.999Z</time>
      </trkpt>
      <trkpt lat="47.51225" lon="6.71876">
        <ele>483.1</ele>
        <time>2016-12-28T15:16:58.999Z</time>
      </trkpt>
      <trkpt lat="47.51226" lon="6.71882">
        <ele>483.3</ele>
        <time>2016-12-28T15:16:59.999Z</time>
      </trkpt>
      <trkpt lat="47.51227" lon="6.71885">
        <ele>483.3</ele>
        <time>2016-12-28T15:17:00.999Z</time>
      </trkpt>
      <trkpt lat="47.51229" lon="6.71891">
        <ele>483.3</ele>
        <time>2016-12-28T15:17:01.999Z</time>
      </trkpt>
      <trkpt lat="47.51231" lon="6.71899">
        <ele>483.1</ele>
        <time>2016-12-28T15:17:02.999Z</time>
      </trkpt>
      <trkpt lat="47.51232" lon="6.71905">
        <ele>482.2</ele>
        <time>2016-12-28T15:17:03.999Z</time>
      </trkpt>
      <trkpt lat="47.51231" lon="6.71911">
        <ele>481.1</ele>
        <time>2016-12-28T15:17:04.999Z</time>
      </trkpt>
      <trkpt lat="47.51232" lon="6.71918">
        <ele>480</ele>
        <time>2016-12-28T15:17:05.999Z</time>
      </trkpt>
      <trkpt lat="47.51234" lon="6.71923">
        <ele>479.8</ele>
        <time>2016-12-28T15:17:06.999Z</time>
      </trkpt>
      <trkpt lat="47.51233" lon="6.7193">
        <ele>479.6</ele>
        <time>2016-12-28T15:17:07.999Z</time>
      </trkpt>
      <trkpt lat="47.51233" lon="6.71937">
        <ele>479.5</ele>
        <time>2016-12-28T15:17:08.999Z</time>
      </trkpt>
      <trkpt lat="47.51235" lon="6.71947">
        <ele>479.5</ele>
        <time>2016-12-28T15:17:09.999Z</time>
      </trkpt>
      <trkpt lat="47.51235" lon="6.71958">
        <ele>479.5</ele>
        <time>2016-12-28T15:17:10.999Z</time>
      </trkpt>
      <trkpt lat="47.51236" lon="6.71969">
        <ele>478.9</ele>
        <time>2016-12-28T15:17:11.999Z</time>
      </trkpt>
      <trkpt lat="47.51237" lon="6.71975">
        <ele>478.7</ele>
        <time>2016-12-28T15:17:12.999Z</time>
      </trkpt>
      <trkpt lat="47.51239" lon="6.71982">
        <ele>478.5</ele>
        <time>2016-12-28T15:17:13.999Z</time>
      </trkpt>
      <trkpt lat="47.5124" lon="6.71994">
        <ele>478.3</ele>
        <time>2016-12-28T15:17:14.999Z</time>
      </trkpt>
      <trkpt lat="47.51239" lon="6.72">
        <ele>478.1</ele>
        <time>2016-12-28T15:17:15.999Z</time>
      </trkpt>
      <trkpt lat="47.51239" lon="6.72006">
        <ele>477.8</ele>
        <time>2016-12-28T15:17:16.999Z</time>
      </trkpt>
      <trkpt lat="47.51238" lon="6.72012">
        <ele>475.4</ele>
        <time>2016-12-28T15:17:17.999Z</time>
      </trkpt>
      <trkpt lat="47.51238" lon="6.72018">
        <ele>473.6</ele>
        <time>2016-12-28T15:17:18.999Z</time>
      </trkpt>
      <trkpt lat="47.51235" lon="6.72024">
        <ele>470.5</ele>
        <time>2016-12-28T15:17:19.999Z</time>
      </trkpt>
      <trkpt lat="47.51233" lon="6.72028">
        <ele>470.3</ele>
        <time>2016-12-28T15:17:20.999Z</time>
      </trkpt>
      <trkpt lat="47.51232" lon="6.72032">
        <ele>470.2</ele>
        <time>2016-12-28T15:17:21.999Z</time>
      </trkpt>
      <trkpt lat="47.51232" lon="6.72038">
        <ele>470.1</ele>
        <time>2016-12-28T15:17:22.999Z</time>
      </trkpt>
      <trkpt lat="47.51233" lon="6.72044">
        <ele>470</ele>
        <time>2016-12-28T15:17:23.999Z</time>
      </trkpt>
      <trkpt lat="47.51234" lon="6.7205">
        <ele>469.8</ele>
        <time>2016-12-28T15:17:24.999Z</time>
      </trkpt>
      <trkpt lat="47.51235" lon="6.72061">
        <ele>469.5</ele>
        <time>2016-12-28T15:17:25.999Z</time>
      </trkpt>
      <trkpt lat="47.51235" lon="6.72066">
        <ele>469.2</ele>
        <time>2016-12-28T15:17:26.999Z</time>
      </trkpt>
      <trkpt lat="47.51235" lon="6.72071">
        <ele>469.1</ele>
        <time>2016-12-28T15:17:27.999Z</time>
      </trkpt>
      <trkpt lat="47.51235" lon="6.72081">
        <ele>469</ele>
        <time>2016-12-28T15:17:28.999Z</time>
      </trkpt>
      <trkpt lat="47.51235" lon="6.72089">
        <ele>468.9</ele>
        <time>2016-12-28T15:17:29.999Z</time>
      </trkpt>
      <trkpt lat="47.51236" lon="6.72095">
        <ele>468.9</ele>
        <time>2016-12-28T15:17:30.999Z</time>
      </trkpt>
      <trkpt lat="47.51237" lon="6.72102">
        <ele>468.9</ele>
        <time>2016-12-28T15:17:31.999Z</time>
      </trkpt>
      <trkpt lat="47.51239" lon="6.72108">
        <ele>468.8</ele>
        <time>2016-12-28T15:17:32.999Z</time>
      </trkpt>
      <trkpt lat="47.5124" lon="6.72114">
        <ele>468.7</ele>
        <time>2016-12-28T15:17:33.999Z</time>
      </trkpt>
      <trkpt lat="47.51239" lon="6.72122">
        <ele>468.6</ele>
        <time>2016-12-28T15:17:34.999Z</time>
      </trkpt>
      <trkpt lat="47.51239" lon="6.72129">
        <ele>468.4</ele>
        <time>2016-12-28T15:17:35.999Z</time>
      </trkpt>
      <trkpt lat="47.51239" lon="6.72136">
        <ele>466.6</ele>
        <time>2016-12-28T15:17:36.999Z</time>
      </trkpt>
      <trkpt lat="47.5124" lon="6.72144">
        <ele>464.9</ele>
        <time>2016-12-28T15:17:37.999Z</time>
      </trkpt>
      <trkpt lat="47.5124" lon="6.72152">
        <ele>464.8</ele>
        <time>2016-12-28T15:17:38.999Z</time>
      </trkpt>
      <trkpt lat="47.5124" lon="6.72163">
        <ele>464.8</ele>
        <time>2016-12-28T15:17:39.999Z</time>
      </trkpt>
      <trkpt lat="47.51239" lon="6.72169">
        <ele>464.8</ele>
        <time>2016-12-28T15:17:40.999Z</time>
      </trkpt>
      <trkpt lat="47.5124" lon="6.72175">
        <ele>464.7</ele>
        <time>2016-12-28T15:17:41.999Z</time>
      </trkpt>
      <trkpt lat="47.51241" lon="6.72182">
        <ele>464.6</ele>
        <time>2016-12-28T15:17:42.999Z</time>
      </trkpt>
      <trkpt lat="47.51241" lon="6.7219">
        <ele>464.6</ele>
        <time>2016-12-28T15:17:43.999Z</time>
      </trkpt>
      <trkpt lat="47.51241" lon="6.72198">
        <ele>464.7</ele>
        <time>2016-12-28T15:17:44.999Z</time>
      </trkpt>
      <trkpt lat="47.51242" lon="6.72213">
        <ele>464.8</ele>
        <time>2016-12-28T15:17:45.999Z</time>
      </trkpt>
      <trkpt lat="47.51241" lon="6.72221">
        <ele>464.9</ele>
        <time>2016-12-28T15:17:46.999Z</time>
      </trkpt>
      <trkpt lat="47.51241" lon="6.72227">
        <ele>464.9</ele>
        <time>2016-12-28T15:17:47.999Z</time>
      </trkpt>
      <trkpt lat="47.5124" lon="6.72236">
        <ele>464.9</ele>
        <time>2016-12-28T15:17:48.999Z</time>
      </trkpt>
      <trkpt lat="47.51239" lon="6.72243">
        <ele>464.9</ele>
        <time>2016-12-28T15:17:49.999Z</time>
      </trkpt>
      <trkpt lat="47.51237" lon="6.72249">
        <ele>464.8</ele>
        <time>2016-12-28T15:17:50.999Z</time>
      </trkpt>
      <trkpt lat="47.51236" lon="6.72257">
        <ele>464.2</ele>
        <time>2016-12-28T15:17:51.999Z</time>
      </trkpt>
      <trkpt lat="47.51235" lon="6.72264">
        <ele>464</ele>
        <time>2016-12-28T15:17:52.999Z</time>
      </trkpt>
      <trkpt lat="47.51234" lon="6.7227">
        <ele>464.1</ele>
        <time>2016-12-28T15:17:53.999Z</time>
      </trkpt>
      <trkpt lat="47.51234" lon="6.72282">
        <ele>464</ele>
        <time>2016-12-28T15:17:54.999Z</time>
      </trkpt>
      <trkpt lat="47.51234" lon="6.72289">
        <ele>464.2</ele>
        <time>2016-12-28T15:17:55.999Z</time>
      </trkpt>
      <trkpt lat="47.51233" lon="6.72295">
        <ele>464.2</ele>
        <time>2016-12-28T15:17:56.999Z</time>
      </trkpt>
      <trkpt lat="47.51233" lon="6.723">
        <ele>464.4</ele>
        <time>2016-12-28T15:17:57.999Z</time>
      </trkpt>
      <trkpt lat="47.51233" lon="6.72312">
        <ele>464.6</ele>
        <time>2016-12-28T15:17:58.999Z</time>
      </trkpt>
      <trkpt lat="47.51233" lon="6.7232">
        <ele>464.7</ele>
        <time>2016-12-28T15:17:59.999Z</time>
      </trkpt>
      <trkpt lat="47.51232" lon="6.72327">
        <ele>464.8</ele>
        <time>2016-12-28T15:18:00.999Z</time>
      </trkpt>
      <trkpt lat="47.51231" lon="6.72332">
        <ele>464.8</ele>
        <time>2016-12-28T15:18:01.999Z</time>
      </trkpt>
      <trkpt lat="47.5123" lon="6.72338">
        <ele>464.8</ele>
        <time>2016-12-28T15:18:02.999Z</time>
      </trkpt>
      <trkpt lat="47.51229" lon="6.72349">
        <ele>464.8</ele>
        <time>2016-12-28T15:18:03.999Z</time>
      </trkpt>
      <trkpt lat="47.51228" lon="6.72354">
        <ele>464.7</ele>
        <time>2016-12-28T15:18:04.999Z</time>
      </trkpt>
      <trkpt lat="47.51226" lon="6.72362">
        <ele>464.6</ele>
        <time>2016-12-28T15:18:05.999Z</time>
      </trkpt>
      <trkpt lat="47.51225" lon="6.72367">
        <ele>464.3</ele>
        <time>2016-12-28T15:18:06.999Z</time>
      </trkpt>
      <trkpt lat="47.51222" lon="6.72374">
        <ele>464.1</ele>
        <time>2016-12-28T15:18:07.999Z</time>
      </trkpt>
      <trkpt lat="47.51221" lon="6.7238">
        <ele>463.8</ele>
        <time>2016-12-28T15:18:08.999Z</time>
      </trkpt>
      <trkpt lat="47.51219" lon="6.72384">
        <ele>463.4</ele>
        <time>2016-12-28T15:18:09.999Z</time>
      </trkpt>
      <trkpt lat="47.51216" lon="6.72388">
        <ele>463.2</ele>
        <time>2016-12-28T15:18:10.999Z</time>
      </trkpt>
      <trkpt lat="47.51214" lon="6.72395">
        <ele>463</ele>
        <time>2016-12-28T15:18:11.999Z</time>
      </trkpt>
      <trkpt lat="47.51211" lon="6.72403">
        <ele>462.7</ele>
        <time>2016-12-28T15:18:12.999Z</time>
      </trkpt>
      <trkpt lat="47.51209" lon="6.7241">
        <ele>460.7</ele>
        <time>2016-12-28T15:18:13.999Z</time>
      </trkpt>
      <trkpt lat="47.51208" lon="6.72419">
        <ele>459.1</ele>
        <time>2016-12-28T15:18:14.999Z</time>
      </trkpt>
      <trkpt lat="47.51207" lon="6.72426">
        <ele>459.4</ele>
        <time>2016-12-28T15:18:15.999Z</time>
      </trkpt>
      <trkpt lat="47.51206" lon="6.72435">
        <ele>459.4</ele>
        <time>2016-12-28T15:18:16.999Z</time>
      </trkpt>
      <trkpt lat="47.51205" lon="6.72445">
        <ele>459.5</ele>
        <time>2016-12-28T15:18:17.999Z</time>
      </trkpt>
      <trkpt lat="47.51202" lon="6.72453">
        <ele>459.5</ele>
        <time>2016-12-28T15:18:18.999Z</time>
      </trkpt>
      <trkpt lat="47.512" lon="6.7246">
        <ele>459.9</ele>
        <time>2016-12-28T15:18:19.999Z</time>
      </trkpt>
      <trkpt lat="47.51198" lon="6.72467">
        <ele>459.8</ele>
        <time>2016-12-28T15:18:20.999Z</time>
      </trkpt>
      <trkpt lat="47.51196" lon="6.72474">
        <ele>459.8</ele>
        <time>2016-12-28T15:18:21.999Z</time>
      </trkpt>
      <trkpt lat="47.51194" lon="6.72481">
        <ele>459.6</ele>
        <time>2016-12-28T15:18:22.999Z</time>
      </trkpt>
      <trkpt lat="47.51191" lon="6.72488">
        <ele>459.5</ele>
        <time>2016-12-28T15:18:23.999Z</time>
      </trkpt>
      <trkpt lat="47.51189" lon="6.72493">
        <ele>459.5</ele>
        <time>2016-12-28T15:18:24.999Z</time>
      </trkpt>
      <trkpt lat="47.51186" lon="6.725">
        <ele>459.5</ele>
        <time>2016-12-28T15:18:25.999Z</time>
      </trkpt>
      <trkpt lat="47.51184" lon="6.72505">
        <ele>459.4</ele>
        <time>2016-12-28T15:18:26.999Z</time>
      </trkpt>
      <trkpt lat="47.51182" lon="6.7251">
        <ele>459.3</ele>
        <time>2016-12-28T15:18:27.999Z</time>
      </trkpt>
      <trkpt lat="47.5118" lon="6.72515">
        <ele>459.3</ele>
        <time>2016-12-28T15:18:28.999Z</time>
      </trkpt>
      <trkpt lat="47.51178" lon="6.72522">
        <ele>459.3</ele>
        <time>2016-12-28T15:18:29.999Z</time>
      </trkpt>
      <trkpt lat="47.51176" lon="6.72524">
        <ele>458</ele>
        <time>2016-12-28T15:18:37.999Z</time>
      </trkpt>
      <trkpt lat="47.51174" lon="6.72526">
        <ele>457.8</ele>
        <time>2016-12-28T15:18:38.999Z</time>
      </trkpt>
      <trkpt lat="47.51171" lon="6.72529">
        <ele>457.6</ele>
        <time>2016-12-28T15:18:39.999Z</time>
      </trkpt>
      <trkpt lat="47.51168" lon="6.72533">
        <ele>457.7</ele>
        <time>2016-12-28T15:18:40.999Z</time>
      </trkpt>
      <trkpt lat="47.51164" lon="6.72537">
        <ele>457.9</ele>
        <time>2016-12-28T15:18:41.999Z</time>
      </trkpt>
      <trkpt lat="47.51162" lon="6.7254">
        <ele>458.3</ele>
        <time>2016-12-28T15:18:42.999Z</time>
      </trkpt>
      <trkpt lat="47.51158" lon="6.72544">
        <ele>458.7</ele>
        <time>2016-12-28T15:18:43.999Z</time>
      </trkpt>
      <trkpt lat="47.51155" lon="6.72549">
        <ele>459.1</ele>
        <time>2016-12-28T15:18:44.999Z</time>
      </trkpt>
      <trkpt lat="47.51152" lon="6.72552">
        <ele>459.5</ele>
        <time>2016-12-28T15:18:45.999Z</time>
      </trkpt>
      <trkpt lat="47.51149" lon="6.72555">
        <ele>460</ele>
        <time>2016-12-28T15:18:46.999Z</time>
      </trkpt>
      <trkpt lat="47.51147" lon="6.72558">
        <ele>460.3</ele>
        <time>2016-12-28T15:18:47.999Z</time>
      </trkpt>
      <trkpt lat="47.51144" lon="6.72561">
        <ele>460.6</ele>
        <time>2016-12-28T15:18:48.999Z</time>
      </trkpt>
      <trkpt lat="47.51138" lon="6.7257">
        <ele>460.9</ele>
        <time>2016-12-28T15:18:49.999Z</time>
      </trkpt>
      <trkpt lat="47.51135" lon="6.72574">
        <ele>461.1</ele>
        <time>2016-12-28T15:18:50.999Z</time>
      </trkpt>
      <trkpt lat="47.51133" lon="6.72578">
        <ele>461.4</ele>
        <time>2016-12-28T15:18:51.999Z</time>
      </trkpt>
      <trkpt lat="47.51131" lon="6.72581">
        <ele>461.7</ele>
        <time>2016-12-28T15:18:52.999Z</time>
      </trkpt>
      <trkpt lat="47.51129" lon="6.72585">
        <ele>462</ele>
        <time>2016-12-28T15:18:53.999Z</time>
      </trkpt>
      <trkpt lat="47.51126" lon="6.72589">
        <ele>462.3</ele>
        <time>2016-12-28T15:18:54.999Z</time>
      </trkpt>
      <trkpt lat="47.51123" lon="6.72593">
        <ele>462.5</ele>
        <time>2016-12-28T15:18:55.999Z</time>
      </trkpt>
      <trkpt lat="47.5112" lon="6.72596">
        <ele>462.7</ele>
        <time>2016-12-28T15:18:56.999Z</time>
      </trkpt>
      <trkpt lat="47.51118" lon="6.726">
        <ele>463</ele>
        <time>2016-12-28T15:18:57.999Z</time>
      </trkpt>
      <trkpt lat="47.51115" lon="6.72604">
        <ele>463.1</ele>
        <time>2016-12-28T15:18:58.999Z</time>
      </trkpt>
      <trkpt lat="47.51112" lon="6.72608">
        <ele>463.1</ele>
        <time>2016-12-28T15:18:59.999Z</time>
      </trkpt>
      <trkpt lat="47.5111" lon="6.72611">
        <ele>463.2</ele>
        <time>2016-12-28T15:19:00.999Z</time>
      </trkpt>
      <trkpt lat="47.51107" lon="6.72614">
        <ele>463.2</ele>
        <time>2016-12-28T15:19:01.999Z</time>
      </trkpt>
      <trkpt lat="47.51105" lon="6.72617">
        <ele>463.2</ele>
        <time>2016-12-28T15:19:02.999Z</time>
      </trkpt>
      <trkpt lat="47.51101" lon="6.7262">
        <ele>463.4</ele>
        <time>2016-12-28T15:19:03.999Z</time>
      </trkpt>
      <trkpt lat="47.51097" lon="6.72622">
        <ele>463.5</ele>
        <time>2016-12-28T15:19:04.999Z</time>
      </trkpt>
      <trkpt lat="47.51093" lon="6.72624">
        <ele>463.7</ele>
        <time>2016-12-28T15:19:05.999Z</time>
      </trkpt>
      <trkpt lat="47.51089" lon="6.72626">
        <ele>463.8</ele>
        <time>2016-12-28T15:19:06.999Z</time>
      </trkpt>
      <trkpt lat="47.51085" lon="6.72629">
        <ele>464</ele>
        <time>2016-12-28T15:19:07.999Z</time>
      </trkpt>
      <trkpt lat="47.51078" lon="6.72634">
        <ele>464.2</ele>
        <time>2016-12-28T15:19:08.999Z</time>
      </trkpt>
      <trkpt lat="47.51073" lon="6.72638">
        <ele>464.3</ele>
        <time>2016-12-28T15:19:09.999Z</time>
      </trkpt>
      <trkpt lat="47.51069" lon="6.72642">
        <ele>464.3</ele>
        <time>2016-12-28T15:19:10.999Z</time>
      </trkpt>
      <trkpt lat="47.51065" lon="6.72645">
        <ele>464.4</ele>
        <time>2016-12-28T15:19:11.999Z</time>
      </trkpt>
      <trkpt lat="47.51061" lon="6.72648">
        <ele>464.5</ele>
        <time>2016-12-28T15:19:12.999Z</time>
      </trkpt>
      <trkpt lat="47.51058" lon="6.72651">
        <ele>464.6</ele>
        <time>2016-12-28T15:19:13.999Z</time>
      </trkpt>
      <trkpt lat="47.51053" lon="6.72657">
        <ele>464.6</ele>
        <time>2016-12-28T15:19:14.999Z</time>
      </trkpt>
      <trkpt lat="47.51051" lon="6.7266">
        <ele>464.7</ele>
        <time>2016-12-28T15:19:15.999Z</time>
      </trkpt>
      <trkpt lat="47.51047" lon="6.72662">
        <ele>464.7</ele>
        <time>2016-12-28T15:19:16.999Z</time>
      </trkpt>
      <trkpt lat="47.51045" lon="6.72664">
        <ele>464.7</ele>
        <time>2016-12-28T15:19:17.999Z</time>
      </trkpt>
      <trkpt lat="47.51041" lon="6.72665">
        <ele>464.7</ele>
        <time>2016-12-28T15:19:18.999Z</time>
      </trkpt>
      <trkpt lat="47.51039" lon="6.72669">
        <ele>464.7</ele>
        <time>2016-12-28T15:19:19.999Z</time>
      </trkpt>
      <trkpt lat="47.51037" lon="6.72671">
        <ele>464.6</ele>
        <time>2016-12-28T15:19:20.999Z</time>
      </trkpt>
      <trkpt lat="47.51034" lon="6.72672">
        <ele>464.5</ele>
        <time>2016-12-28T15:19:21.999Z</time>
      </trkpt>
      <trkpt lat="47.51029" lon="6.72673">
        <ele>464.6</ele>
        <time>2016-12-28T15:19:22.999Z</time>
      </trkpt>
      <trkpt lat="47.51021" lon="6.72675">
        <ele>464.6</ele>
        <time>2016-12-28T15:19:23.999Z</time>
      </trkpt>
      <trkpt lat="47.51017" lon="6.72678">
        <ele>464.6</ele>
        <time>2016-12-28T15:19:27.999Z</time>
      </trkpt>
      <trkpt lat="47.51015" lon="6.7268">
        <ele>464.6</ele>
        <time>2016-12-28T15:19:28.999Z</time>
      </trkpt>
      <trkpt lat="47.51012" lon="6.72683">
        <ele>464.4</ele>
        <time>2016-12-28T15:19:29.999Z</time>
      </trkpt>
      <trkpt lat="47.51009" lon="6.72687">
        <ele>464.3</ele>
        <time>2016-12-28T15:19:30.999Z</time>
      </trkpt>
      <trkpt lat="47.51005" lon="6.7269">
        <ele>464.1</ele>
        <time>2016-12-28T15:19:31.999Z</time>
      </trkpt>
      <trkpt lat="47.51001" lon="6.72694">
        <ele>464</ele>
        <time>2016-12-28T15:19:32.999Z</time>
      </trkpt>
      <trkpt lat="47.50997" lon="6.72697">
        <ele>463.9</ele>
        <time>2016-12-28T15:19:33.999Z</time>
      </trkpt>
      <trkpt lat="47.50994" lon="6.727">
        <ele>463.8</ele>
        <time>2016-12-28T15:19:34.999Z</time>
      </trkpt>
      <trkpt lat="47.50992" lon="6.72702">
        <ele>463.8</ele>
        <time>2016-12-28T15:19:35.999Z</time>
      </trkpt>
      <trkpt lat="47.5099" lon="6.72704">
        <ele>463.8</ele>
        <time>2016-12-28T15:19:36.999Z</time>
      </trkpt>
      <trkpt lat="47.50988" lon="6.72707">
        <ele>463.8</ele>
        <time>2016-12-28T15:19:37.999Z</time>
      </trkpt>
      <trkpt lat="47.50986" lon="6.7271">
        <ele>463.9</ele>
        <time>2016-12-28T15:19:38.999Z</time>
      </trkpt>
      <trkpt lat="47.50984" lon="6.72714">
        <ele>464</ele>
        <time>2016-12-28T15:19:39.999Z</time>
      </trkpt>
      <trkpt lat="47.50983" lon="6.7272">
        <ele>465</ele>
        <time>2016-12-28T15:19:42.999Z</time>
      </trkpt>
      <trkpt lat="47.50981" lon="6.72723">
        <ele>465.3</ele>
        <time>2016-12-28T15:19:43.999Z</time>
      </trkpt>
      <trkpt lat="47.50979" lon="6.72725">
        <ele>465.6</ele>
        <time>2016-12-28T15:19:44.999Z</time>
      </trkpt>
      <trkpt lat="47.50977" lon="6.72728">
        <ele>465.9</ele>
        <time>2016-12-28T15:19:45.999Z</time>
      </trkpt>
      <trkpt lat="47.50974" lon="6.72732">
        <ele>466.6</ele>
        <time>2016-12-28T15:19:47.999Z</time>
      </trkpt>
      <trkpt lat="47.50969" lon="6.72738">
        <ele>466.9</ele>
        <time>2016-12-28T15:19:48.999Z</time>
      </trkpt>
      <trkpt lat="47.50966" lon="6.72744">
        <ele>467.2</ele>
        <time>2016-12-28T15:19:49.999Z</time>
      </trkpt>
      <trkpt lat="47.50964" lon="6.72748">
        <ele>467.4</ele>
        <time>2016-12-28T15:19:50.999Z</time>
      </trkpt>
      <trkpt lat="47.50962" lon="6.72753">
        <ele>467.6</ele>
        <time>2016-12-28T15:19:51.999Z</time>
      </trkpt>
      <trkpt lat="47.50959" lon="6.72757">
        <ele>467.7</ele>
        <time>2016-12-28T15:19:52.999Z</time>
      </trkpt>
      <trkpt lat="47.50957" lon="6.72761">
        <ele>467.8</ele>
        <time>2016-12-28T15:19:53.999Z</time>
      </trkpt>
      <trkpt lat="47.50956" lon="6.72762">
        <ele>467.8</ele>
        <time>2016-12-28T15:19:54.999Z</time>
      </trkpt>
      <trkpt lat="47.50953" lon="6.72766">
        <ele>467.8</ele>
        <time>2016-12-28T15:19:58.999Z</time>
      </trkpt>
      <trkpt lat="47.5095" lon="6.7277">
        <ele>467.7</ele>
        <time>2016-12-28T15:19:59.999Z</time>
      </trkpt>
      <trkpt lat="47.50948" lon="6.72774">
        <ele>467.7</ele>
        <time>2016-12-28T15:20:00.999Z</time>
      </trkpt>
      <trkpt lat="47.50946" lon="6.72779">
        <ele>467.6</ele>
        <time>2016-12-28T15:20:01.999Z</time>
      </trkpt>
      <trkpt lat="47.50941" lon="6.7279">
        <ele>467.6</ele>
        <time>2016-12-28T15:20:02.999Z</time>
      </trkpt>
      <trkpt lat="47.50939" lon="6.72798">
        <ele>467.6</ele>
        <time>2016-12-28T15:20:03.999Z</time>
      </trkpt>
      <trkpt lat="47.50938" lon="6.72804">
        <ele>467.6</ele>
        <time>2016-12-28T15:20:04.999Z</time>
      </trkpt>
      <trkpt lat="47.50936" lon="6.72808">
        <ele>467.5</ele>
        <time>2016-12-28T15:20:05.999Z</time>
      </trkpt>
      <trkpt lat="47.50934" lon="6.72814">
        <ele>467.5</ele>
        <time>2016-12-28T15:20:06.999Z</time>
      </trkpt>
      <trkpt lat="47.50932" lon="6.72821">
        <ele>467.7</ele>
        <time>2016-12-28T15:20:07.999Z</time>
      </trkpt>
      <trkpt lat="47.50929" lon="6.72828">
        <ele>467.8</ele>
        <time>2016-12-28T15:20:08.999Z</time>
      </trkpt>
      <trkpt lat="47.50925" lon="6.72837">
        <ele>467.7</ele>
        <time>2016-12-28T15:20:09.999Z</time>
      </trkpt>
      <trkpt lat="47.50924" lon="6.72842">
        <ele>467.7</ele>
        <time>2016-12-28T15:20:10.999Z</time>
      </trkpt>
      <trkpt lat="47.50921" lon="6.72847">
        <ele>467.7</ele>
        <time>2016-12-28T15:20:11.999Z</time>
      </trkpt>
      <trkpt lat="47.50918" lon="6.72852">
        <ele>467.7</ele>
        <time>2016-12-28T15:20:12.999Z</time>
      </trkpt>
      <trkpt lat="47.50915" lon="6.72857">
        <ele>467.8</ele>
        <time>2016-12-28T15:20:13.999Z</time>
      </trkpt>
      <trkpt lat="47.50908" lon="6.72868">
        <ele>468</ele>
        <time>2016-12-28T15:20:14.999Z</time>
      </trkpt>
      <trkpt lat="47.50906" lon="6.72872">
        <ele>468.2</ele>
        <time>2016-12-28T15:20:15.999Z</time>
      </trkpt>
      <trkpt lat="47.50905" lon="6.72877">
        <ele>468.4</ele>
        <time>2016-12-28T15:20:16.999Z</time>
      </trkpt>
      <trkpt lat="47.50904" lon="6.72882">
        <ele>468.5</ele>
        <time>2016-12-28T15:20:17.999Z</time>
      </trkpt>
      <trkpt lat="47.50902" lon="6.72887">
        <ele>468.7</ele>
        <time>2016-12-28T15:20:18.999Z</time>
      </trkpt>
      <trkpt lat="47.50899" lon="6.72891">
        <ele>468.7</ele>
        <time>2016-12-28T15:20:19.999Z</time>
      </trkpt>
      <trkpt lat="47.50896" lon="6.72897">
        <ele>468.7</ele>
        <time>2016-12-28T15:20:20.999Z</time>
      </trkpt>
      <trkpt lat="47.50895" lon="6.72902">
        <ele>468.5</ele>
        <time>2016-12-28T15:20:21.999Z</time>
      </trkpt>
      <trkpt lat="47.50894" lon="6.72908">
        <ele>468.4</ele>
        <time>2016-12-28T15:20:22.999Z</time>
      </trkpt>
      <trkpt lat="47.50893" lon="6.72914">
        <ele>468.3</ele>
        <time>2016-12-28T15:20:23.999Z</time>
      </trkpt>
      <trkpt lat="47.50892" lon="6.72921">
        <ele>468.3</ele>
        <time>2016-12-28T15:20:24.999Z</time>
      </trkpt>
      <trkpt lat="47.5089" lon="6.72931">
        <ele>468.3</ele>
        <time>2016-12-28T15:20:25.999Z</time>
      </trkpt>
      <trkpt lat="47.50888" lon="6.72941">
        <ele>468.2</ele>
        <time>2016-12-28T15:20:26.999Z</time>
      </trkpt>
      <trkpt lat="47.50887" lon="6.72947">
        <ele>465.7</ele>
        <time>2016-12-28T15:20:27.999Z</time>
      </trkpt>
      <trkpt lat="47.50885" lon="6.72956">
        <ele>462.7</ele>
        <time>2016-12-28T15:20:28.999Z</time>
      </trkpt>
      <trkpt lat="47.50885" lon="6.72961">
        <ele>462.3</ele>
        <time>2016-12-28T15:20:29.999Z</time>
      </trkpt>
      <trkpt lat="47.50883" lon="6.72966">
        <ele>461.9</ele>
        <time>2016-12-28T15:20:30.999Z</time>
      </trkpt>
      <trkpt lat="47.50881" lon="6.72971">
        <ele>461.5</ele>
        <time>2016-12-28T15:20:31.999Z</time>
      </trkpt>
      <trkpt lat="47.50879" lon="6.72977">
        <ele>456.9</ele>
        <time>2016-12-28T15:20:32.999Z</time>
      </trkpt>
      <trkpt lat="47.50878" lon="6.72984">
        <ele>453</ele>
        <time>2016-12-28T15:20:33.999Z</time>
      </trkpt>
      <trkpt lat="47.50877" lon="6.7299">
        <ele>450.1</ele>
        <time>2016-12-28T15:20:34.999Z</time>
      </trkpt>
      <trkpt lat="47.50875" lon="6.72999">
        <ele>447.4</ele>
        <time>2016-12-28T15:20:35.999Z</time>
      </trkpt>
      <trkpt lat="47.50871" lon="6.73016">
        <ele>444.6</ele>
        <time>2016-12-28T15:20:36.999Z</time>
      </trkpt>
      <trkpt lat="47.50869" lon="6.73023">
        <ele>441.4</ele>
        <time>2016-12-28T15:20:37.999Z</time>
      </trkpt>
      <trkpt lat="47.50867" lon="6.73031">
        <ele>438.3</ele>
        <time>2016-12-28T15:20:38.999Z</time>
      </trkpt>
      <trkpt lat="47.50865" lon="6.7304">
        <ele>437.8</ele>
        <time>2016-12-28T15:20:39.999Z</time>
      </trkpt>
      <trkpt lat="47.50865" lon="6.73049">
        <ele>436.7</ele>
        <time>2016-12-28T15:20:40.999Z</time>
      </trkpt>
      <trkpt lat="47.50865" lon="6.73058">
        <ele>436.7</ele>
        <time>2016-12-28T15:20:41.999Z</time>
      </trkpt>
      <trkpt lat="47.50863" lon="6.73069">
        <ele>437.4</ele>
        <time>2016-12-28T15:20:42.999Z</time>
      </trkpt>
      <trkpt lat="47.50861" lon="6.73078">
        <ele>438.3</ele>
        <time>2016-12-28T15:20:43.999Z</time>
      </trkpt>
      <trkpt lat="47.50859" lon="6.73085">
        <ele>439.2</ele>
        <time>2016-12-28T15:20:44.999Z</time>
      </trkpt>
      <trkpt lat="47.50857" lon="6.73092">
        <ele>440.8</ele>
        <time>2016-12-28T15:20:45.999Z</time>
      </trkpt>
      <trkpt lat="47.50856" lon="6.73101">
        <ele>442.4</ele>
        <time>2016-12-28T15:20:46.999Z</time>
      </trkpt>
      <trkpt lat="47.50854" lon="6.73109">
        <ele>442.8</ele>
        <time>2016-12-28T15:20:47.999Z</time>
      </trkpt>
      <trkpt lat="47.50852" lon="6.73115">
        <ele>443</ele>
        <time>2016-12-28T15:20:48.999Z</time>
      </trkpt>
      <trkpt lat="47.50851" lon="6.73121">
        <ele>443.3</ele>
        <time>2016-12-28T15:20:49.999Z</time>
      </trkpt>
      <trkpt lat="47.50849" lon="6.73129">
        <ele>441.7</ele>
        <time>2016-12-28T15:20:50.999Z</time>
      </trkpt>
      <trkpt lat="47.50846" lon="6.73138">
        <ele>440.5</ele>
        <time>2016-12-28T15:20:51.999Z</time>
      </trkpt>
      <trkpt lat="47.50839" lon="6.73152">
        <ele>438</ele>
        <time>2016-12-28T15:20:52.999Z</time>
      </trkpt>
      <trkpt lat="47.50835" lon="6.73159">
        <ele>437.7</ele>
        <time>2016-12-28T15:20:53.999Z</time>
      </trkpt>
      <trkpt lat="47.50833" lon="6.73163">
        <ele>437.3</ele>
        <time>2016-12-28T15:20:54.999Z</time>
      </trkpt>
      <trkpt lat="47.5083" lon="6.73169">
        <ele>437.2</ele>
        <time>2016-12-28T15:20:55.999Z</time>
      </trkpt>
      <trkpt lat="47.50826" lon="6.73173">
        <ele>435.1</ele>
        <time>2016-12-28T15:20:56.999Z</time>
      </trkpt>
      <trkpt lat="47.50821" lon="6.73178">
        <ele>434</ele>
        <time>2016-12-28T15:20:57.999Z</time>
      </trkpt>
      <trkpt lat="47.50817" lon="6.73185">
        <ele>433.6</ele>
        <time>2016-12-28T15:20:58.999Z</time>
      </trkpt>
      <trkpt lat="47.5081" lon="6.732">
        <ele>433.3</ele>
        <time>2016-12-28T15:20:59.999Z</time>
      </trkpt>
      <trkpt lat="47.50806" lon="6.73211">
        <ele>433.3</ele>
        <time>2016-12-28T15:21:00.999Z</time>
      </trkpt>
      <trkpt lat="47.50801" lon="6.73221">
        <ele>434.3</ele>
        <time>2016-12-28T15:21:01.999Z</time>
      </trkpt>
      <trkpt lat="47.50795" lon="6.73232">
        <ele>434.6</ele>
        <time>2016-12-28T15:21:02.999Z</time>
      </trkpt>
      <trkpt lat="47.50788" lon="6.73244">
        <ele>435.2</ele>
        <time>2016-12-28T15:21:03.999Z</time>
      </trkpt>
      <trkpt lat="47.5078" lon="6.73252">
        <ele>434.6</ele>
        <time>2016-12-28T15:21:04.999Z</time>
      </trkpt>
      <trkpt lat="47.50774" lon="6.73258">
        <ele>434.3</ele>
        <time>2016-12-28T15:21:05.999Z</time>
      </trkpt>
      <trkpt lat="47.50769" lon="6.73264">
        <ele>433.9</ele>
        <time>2016-12-28T15:21:06.999Z</time>
      </trkpt>
      <trkpt lat="47.50765" lon="6.73271">
        <ele>434.4</ele>
        <time>2016-12-28T15:21:07.999Z</time>
      </trkpt>
      <trkpt lat="47.5076" lon="6.73279">
        <ele>434</ele>
        <time>2016-12-28T15:21:08.999Z</time>
      </trkpt>
      <trkpt lat="47.50756" lon="6.73286">
        <ele>433.4</ele>
        <time>2016-12-28T15:21:09.999Z</time>
      </trkpt>
      <trkpt lat="47.50751" lon="6.73292">
        <ele>431.9</ele>
        <time>2016-12-28T15:21:10.999Z</time>
      </trkpt>
      <trkpt lat="47.50746" lon="6.73298">
        <ele>432.3</ele>
        <time>2016-12-28T15:21:11.999Z</time>
      </trkpt>
      <trkpt lat="47.50742" lon="6.73306">
        <ele>432.3</ele>
        <time>2016-12-28T15:21:12.999Z</time>
      </trkpt>
      <trkpt lat="47.50738" lon="6.73315">
        <ele>433.1</ele>
        <time>2016-12-28T15:21:13.999Z</time>
      </trkpt>
      <trkpt lat="47.50734" lon="6.73324">
        <ele>432.8</ele>
        <time>2016-12-28T15:21:14.999Z</time>
      </trkpt>
      <trkpt lat="47.50729" lon="6.73331">
        <ele>432.5</ele>
        <time>2016-12-28T15:21:15.999Z</time>
      </trkpt>
      <trkpt lat="47.50724" lon="6.73335">
        <ele>432.4</ele>
        <time>2016-12-28T15:21:16.999Z</time>
      </trkpt>
      <trkpt lat="47.50719" lon="6.73341">
        <ele>432</ele>
        <time>2016-12-28T15:21:17.999Z</time>
      </trkpt>
      <trkpt lat="47.50711" lon="6.73351">
        <ele>430.6</ele>
        <time>2016-12-28T15:21:18.999Z</time>
      </trkpt>
      <trkpt lat="47.50705" lon="6.73358">
        <ele>429.8</ele>
        <time>2016-12-28T15:21:19.999Z</time>
      </trkpt>
      <trkpt lat="47.507" lon="6.73366">
        <ele>429</ele>
        <time>2016-12-28T15:21:20.999Z</time>
      </trkpt>
      <trkpt lat="47.50697" lon="6.73374">
        <ele>428.3</ele>
        <time>2016-12-28T15:21:21.999Z</time>
      </trkpt>
      <trkpt lat="47.50696" lon="6.73383">
        <ele>428.1</ele>
        <time>2016-12-28T15:21:22.999Z</time>
      </trkpt>
      <trkpt lat="47.50696" lon="6.73396">
        <ele>428</ele>
        <time>2016-12-28T15:21:23.999Z</time>
      </trkpt>
      <trkpt lat="47.50692" lon="6.73403">
        <ele>427.8</ele>
        <time>2016-12-28T15:21:24.999Z</time>
      </trkpt>
      <trkpt lat="47.50689" lon="6.73411">
        <ele>428.2</ele>
        <time>2016-12-28T15:21:25.999Z</time>
      </trkpt>
      <trkpt lat="47.50685" lon="6.73419">
        <ele>427.7</ele>
        <time>2016-12-28T15:21:26.999Z</time>
      </trkpt>
      <trkpt lat="47.50681" lon="6.7343">
        <ele>427.4</ele>
        <time>2016-12-28T15:21:27.999Z</time>
      </trkpt>
      <trkpt lat="47.50678" lon="6.73439">
        <ele>426.3</ele>
        <time>2016-12-28T15:21:28.999Z</time>
      </trkpt>
      <trkpt lat="47.50675" lon="6.73447">
        <ele>425.5</ele>
        <time>2016-12-28T15:21:29.999Z</time>
      </trkpt>
      <trkpt lat="47.50671" lon="6.73454">
        <ele>425.5</ele>
        <time>2016-12-28T15:21:30.999Z</time>
      </trkpt>
      <trkpt lat="47.50669" lon="6.73462">
        <ele>425.5</ele>
        <time>2016-12-28T15:21:31.999Z</time>
      </trkpt>
      <trkpt lat="47.50666" lon="6.7347">
        <ele>425.4</ele>
        <time>2016-12-28T15:21:32.999Z</time>
      </trkpt>
      <trkpt lat="47.50663" lon="6.73476">
        <ele>425.7</ele>
        <time>2016-12-28T15:21:33.999Z</time>
      </trkpt>
      <trkpt lat="47.50659" lon="6.73479">
        <ele>426.1</ele>
        <time>2016-12-28T15:21:34.999Z</time>
      </trkpt>
      <trkpt lat="47.50657" lon="6.73484">
        <ele>426.1</ele>
        <time>2016-12-28T15:21:35.999Z</time>
      </trkpt>
      <trkpt lat="47.50656" lon="6.7349">
        <ele>426.1</ele>
        <time>2016-12-28T15:21:36.999Z</time>
      </trkpt>
      <trkpt lat="47.50655" lon="6.73496">
        <ele>425.9</ele>
        <time>2016-12-28T15:21:37.999Z</time>
      </trkpt>
      <trkpt lat="47.50654" lon="6.73501">
        <ele>425.7</ele>
        <time>2016-12-28T15:21:38.999Z</time>
      </trkpt>
      <trkpt lat="47.50652" lon="6.73506">
        <ele>425.6</ele>
        <time>2016-12-28T15:21:39.999Z</time>
      </trkpt>
      <trkpt lat="47.5065" lon="6.73515">
        <ele>425.5</ele>
        <time>2016-12-28T15:21:40.999Z</time>
      </trkpt>
      <trkpt lat="47.50645" lon="6.73526">
        <ele>424.1</ele>
        <time>2016-12-28T15:21:41.999Z</time>
      </trkpt>
      <trkpt lat="47.5064" lon="6.73533">
        <ele>421.8</ele>
        <time>2016-12-28T15:21:42.999Z</time>
      </trkpt>
      <trkpt lat="47.50635" lon="6.73542">
        <ele>419.8</ele>
        <time>2016-12-28T15:21:43.999Z</time>
      </trkpt>
      <trkpt lat="47.50631" lon="6.73548">
        <ele>417.3</ele>
        <time>2016-12-28T15:21:44.999Z</time>
      </trkpt>
      <trkpt lat="47.50629" lon="6.73551">
        <ele>417.2</ele>
        <time>2016-12-28T15:21:45.999Z</time>
      </trkpt>
      <trkpt lat="47.50627" lon="6.73555">
        <ele>417.1</ele>
        <time>2016-12-28T15:21:46.999Z</time>
      </trkpt>
      <trkpt lat="47.50627" lon="6.73559">
        <ele>416.6</ele>
        <time>2016-12-28T15:25:20.999Z</time>
      </trkpt>
      <trkpt lat="47.50629" lon="6.73581">
        <ele>416.6</ele>
        <time>2016-12-28T15:25:21.999Z</time>
      </trkpt>
      <trkpt lat="47.50629" lon="6.73581">
        <ele>416.9</ele>
        <time>2016-12-28T15:25:23.999Z</time>
      </trkpt>
      <trkpt lat="47.50633" lon="6.73589">
        <ele>417</ele>
        <time>2016-12-28T15:25:24.999Z</time>
      </trkpt>
      <trkpt lat="47.50636" lon="6.73593">
        <ele>417</ele>
        <time>2016-12-28T15:25:25.999Z</time>
      </trkpt>
      <trkpt lat="47.50639" lon="6.73596">
        <ele>417.1</ele>
        <time>2016-12-28T15:25:26.999Z</time>
      </trkpt>
      <trkpt lat="47.50642" lon="6.73598">
        <ele>417.1</ele>
        <time>2016-12-28T15:25:28.999Z</time>
      </trkpt>
      <trkpt lat="47.50643" lon="6.73601">
        <ele>417</ele>
        <time>2016-12-28T15:25:29.999Z</time>
      </trkpt>
      <trkpt lat="47.50646" lon="6.73605">
        <ele>417</ele>
        <time>2016-12-28T15:25:30.999Z</time>
      </trkpt>
      <trkpt lat="47.50647" lon="6.73609">
        <ele>416.8</ele>
        <time>2016-12-28T15:25:31.999Z</time>
      </trkpt>
      <trkpt lat="47.5065" lon="6.73615">
        <ele>416.7</ele>
        <time>2016-12-28T15:25:32.999Z</time>
      </trkpt>
      <trkpt lat="47.50653" lon="6.73621">
        <ele>416.6</ele>
        <time>2016-12-28T15:25:33.999Z</time>
      </trkpt>
      <trkpt lat="47.50655" lon="6.73625">
        <ele>416.4</ele>
        <time>2016-12-28T15:25:34.999Z</time>
      </trkpt>
      <trkpt lat="47.50657" lon="6.7363">
        <ele>414.8</ele>
        <time>2016-12-28T15:25:35.999Z</time>
      </trkpt>
      <trkpt lat="47.50658" lon="6.73635">
        <ele>414.6</ele>
        <time>2016-12-28T15:25:36.999Z</time>
      </trkpt>
      <trkpt lat="47.50658" lon="6.7364">
        <ele>414.4</ele>
        <time>2016-12-28T15:25:37.999Z</time>
      </trkpt>
      <trkpt lat="47.50657" lon="6.73644">
        <ele>414.2</ele>
        <time>2016-12-28T15:25:38.999Z</time>
      </trkpt>
      <trkpt lat="47.50656" lon="6.7365">
        <ele>414</ele>
        <time>2016-12-28T15:25:39.999Z</time>
      </trkpt>
      <trkpt lat="47.50656" lon="6.73655">
        <ele>413.7</ele>
        <time>2016-12-28T15:25:40.999Z</time>
      </trkpt>
      <trkpt lat="47.50655" lon="6.73662">
        <ele>413.4</ele>
        <time>2016-12-28T15:25:41.999Z</time>
      </trkpt>
      <trkpt lat="47.50656" lon="6.73668">
        <ele>413.3</ele>
        <time>2016-12-28T15:25:42.999Z</time>
      </trkpt>
      <trkpt lat="47.50656" lon="6.73673">
        <ele>413.1</ele>
        <time>2016-12-28T15:25:43.999Z</time>
      </trkpt>
      <trkpt lat="47.50656" lon="6.73679">
        <ele>412.9</ele>
        <time>2016-12-28T15:25:44.999Z</time>
      </trkpt>
      <trkpt lat="47.50656" lon="6.73683">
        <ele>412.6</ele>
        <time>2016-12-28T15:25:45.999Z</time>
      </trkpt>
      <trkpt lat="47.50656" lon="6.73687">
        <ele>412.4</ele>
        <time>2016-12-28T15:25:46.999Z</time>
      </trkpt>
      <trkpt lat="47.50656" lon="6.73694">
        <ele>412</ele>
        <time>2016-12-28T15:25:47.999Z</time>
      </trkpt>
      <trkpt lat="47.50655" lon="6.737">
        <ele>411.7</ele>
        <time>2016-12-28T15:25:48.999Z</time>
      </trkpt>
      <trkpt lat="47.50655" lon="6.73705">
        <ele>411.4</ele>
        <time>2016-12-28T15:25:49.999Z</time>
      </trkpt>
      <trkpt lat="47.50655" lon="6.73712">
        <ele>407.6</ele>
        <time>2016-12-28T15:25:50.999Z</time>
      </trkpt>
      <trkpt lat="47.50654" lon="6.73719">
        <ele>404.5</ele>
        <time>2016-12-28T15:25:51.999Z</time>
      </trkpt>
      <trkpt lat="47.50654" lon="6.73728">
        <ele>402.1</ele>
        <time>2016-12-28T15:25:52.999Z</time>
      </trkpt>
      <trkpt lat="47.50654" lon="6.73736">
        <ele>400.7</ele>
        <time>2016-12-28T15:25:53.999Z</time>
      </trkpt>
      <trkpt lat="47.50654" lon="6.73743">
        <ele>400.1</ele>
        <time>2016-12-28T15:25:54.999Z</time>
      </trkpt>
      <trkpt lat="47.50653" lon="6.73751">
        <ele>399</ele>
        <time>2016-12-28T15:25:55.999Z</time>
      </trkpt>
      <trkpt lat="47.50652" lon="6.73759">
        <ele>397.5</ele>
        <time>2016-12-28T15:25:56.999Z</time>
      </trkpt>
      <trkpt lat="47.50651" lon="6.73764">
        <ele>397.3</ele>
        <time>2016-12-28T15:25:57.999Z</time>
      </trkpt>
      <trkpt lat="47.5065" lon="6.73772">
        <ele>397.2</ele>
        <time>2016-12-28T15:25:58.999Z</time>
      </trkpt>
      <trkpt lat="47.5065" lon="6.73777">
        <ele>397</ele>
        <time>2016-12-28T15:25:59.999Z</time>
      </trkpt>
      <trkpt lat="47.50649" lon="6.73783">
        <ele>396.8</ele>
        <time>2016-12-28T15:26:00.999Z</time>
      </trkpt>
      <trkpt lat="47.50649" lon="6.73789">
        <ele>396.6</ele>
        <time>2016-12-28T15:26:01.999Z</time>
      </trkpt>
      <trkpt lat="47.50648" lon="6.73795">
        <ele>396.5</ele>
        <time>2016-12-28T15:26:02.999Z</time>
      </trkpt>
      <trkpt lat="47.50648" lon="6.738">
        <ele>396.5</ele>
        <time>2016-12-28T15:26:03.999Z</time>
      </trkpt>
      <trkpt lat="47.50647" lon="6.73806">
        <ele>396.4</ele>
        <time>2016-12-28T15:26:04.999Z</time>
      </trkpt>
      <trkpt lat="47.50646" lon="6.73813">
        <ele>396.1</ele>
        <time>2016-12-28T15:26:05.999Z</time>
      </trkpt>
      <trkpt lat="47.50646" lon="6.73819">
        <ele>396</ele>
        <time>2016-12-28T15:26:06.999Z</time>
      </trkpt>
      <trkpt lat="47.50645" lon="6.73829">
        <ele>396</ele>
        <time>2016-12-28T15:26:07.999Z</time>
      </trkpt>
      <trkpt lat="47.50644" lon="6.73838">
        <ele>396.2</ele>
        <time>2016-12-28T15:26:08.999Z</time>
      </trkpt>
      <trkpt lat="47.50643" lon="6.73846">
        <ele>396.7</ele>
        <time>2016-12-28T15:26:09.999Z</time>
      </trkpt>
      <trkpt lat="47.50642" lon="6.73857">
        <ele>396.7</ele>
        <time>2016-12-28T15:26:10.999Z</time>
      </trkpt>
      <trkpt lat="47.5064" lon="6.73865">
        <ele>397.3</ele>
        <time>2016-12-28T15:26:11.999Z</time>
      </trkpt>
      <trkpt lat="47.50638" lon="6.73873">
        <ele>396.7</ele>
        <time>2016-12-28T15:26:12.999Z</time>
      </trkpt>
      <trkpt lat="47.50637" lon="6.7388">
        <ele>396.2</ele>
        <time>2016-12-28T15:26:13.999Z</time>
      </trkpt>
      <trkpt lat="47.50635" lon="6.73885">
        <ele>395</ele>
        <time>2016-12-28T15:26:14.999Z</time>
      </trkpt>
      <trkpt lat="47.50632" lon="6.7389">
        <ele>394</ele>
        <time>2016-12-28T15:26:15.999Z</time>
      </trkpt>
      <trkpt lat="47.50629" lon="6.73895">
        <ele>393.1</ele>
        <time>2016-12-28T15:26:16.999Z</time>
      </trkpt>
      <trkpt lat="47.50627" lon="6.73899">
        <ele>391.7</ele>
        <time>2016-12-28T15:26:17.999Z</time>
      </trkpt>
      <trkpt lat="47.50624" lon="6.73906">
        <ele>391.6</ele>
        <time>2016-12-28T15:26:18.999Z</time>
      </trkpt>
      <trkpt lat="47.5062" lon="6.73912">
        <ele>390.4</ele>
        <time>2016-12-28T15:26:19.999Z</time>
      </trkpt>
      <trkpt lat="47.50616" lon="6.73917">
        <ele>389.8</ele>
        <time>2016-12-28T15:26:20.999Z</time>
      </trkpt>
      <trkpt lat="47.50613" lon="6.73921">
        <ele>389.7</ele>
        <time>2016-12-28T15:26:21.999Z</time>
      </trkpt>
      <trkpt lat="47.50611" lon="6.73924">
        <ele>389.6</ele>
        <time>2016-12-28T15:26:22.999Z</time>
      </trkpt>
      <trkpt lat="47.5061" lon="6.73929">
        <ele>389.5</ele>
        <time>2016-12-28T15:26:23.999Z</time>
      </trkpt>
      <trkpt lat="47.50608" lon="6.73934">
        <ele>389.3</ele>
        <time>2016-12-28T15:26:24.999Z</time>
      </trkpt>
      <trkpt lat="47.50605" lon="6.7394">
        <ele>386.9</ele>
        <time>2016-12-28T15:26:25.999Z</time>
      </trkpt>
      <trkpt lat="47.50602" lon="6.73947">
        <ele>384.5</ele>
        <time>2016-12-28T15:26:26.999Z</time>
      </trkpt>
      <trkpt lat="47.50599" lon="6.73953">
        <ele>384.2</ele>
        <time>2016-12-28T15:26:27.999Z</time>
      </trkpt>
      <trkpt lat="47.50595" lon="6.73958">
        <ele>381.8</ele>
        <time>2016-12-28T15:26:28.999Z</time>
      </trkpt>
      <trkpt lat="47.50591" lon="6.73962">
        <ele>381.7</ele>
        <time>2016-12-28T15:26:29.999Z</time>
      </trkpt>
      <trkpt lat="47.50587" lon="6.73967">
        <ele>381.5</ele>
        <time>2016-12-28T15:26:30.999Z</time>
      </trkpt>
      <trkpt lat="47.50584" lon="6.7397">
        <ele>379.5</ele>
        <time>2016-12-28T15:26:31.999Z</time>
      </trkpt>
      <trkpt lat="47.50582" lon="6.73973">
        <ele>379.4</ele>
        <time>2016-12-28T15:26:32.999Z</time>
      </trkpt>
      <trkpt lat="47.5058" lon="6.73977">
        <ele>379.3</ele>
        <time>2016-12-28T15:26:33.999Z</time>
      </trkpt>
      <trkpt lat="47.50578" lon="6.73984">
        <ele>379</ele>
        <time>2016-12-28T15:26:34.999Z</time>
      </trkpt>
      <trkpt lat="47.50574" lon="6.73989">
        <ele>377</ele>
        <time>2016-12-28T15:26:35.999Z</time>
      </trkpt>
      <trkpt lat="47.50572" lon="6.73996">
        <ele>373.9</ele>
        <time>2016-12-28T15:26:36.999Z</time>
      </trkpt>
      <trkpt lat="47.50569" lon="6.74007">
        <ele>372.1</ele>
        <time>2016-12-28T15:26:37.999Z</time>
      </trkpt>
      <trkpt lat="47.50566" lon="6.74016">
        <ele>370.2</ele>
        <time>2016-12-28T15:26:38.999Z</time>
      </trkpt>
      <trkpt lat="47.50563" lon="6.74026">
        <ele>368.6</ele>
        <time>2016-12-28T15:26:39.999Z</time>
      </trkpt>
      <trkpt lat="47.50561" lon="6.74034">
        <ele>368.5</ele>
        <time>2016-12-28T15:26:40.999Z</time>
      </trkpt>
      <trkpt lat="47.50558" lon="6.74042">
        <ele>368.2</ele>
        <time>2016-12-28T15:26:41.999Z</time>
      </trkpt>
      <trkpt lat="47.50555" lon="6.74049">
        <ele>368.2</ele>
        <time>2016-12-28T15:26:42.999Z</time>
      </trkpt>
      <trkpt lat="47.50553" lon="6.74054">
        <ele>367.8</ele>
        <time>2016-12-28T15:26:43.999Z</time>
      </trkpt>
      <trkpt lat="47.50549" lon="6.7406">
        <ele>368</ele>
        <time>2016-12-28T15:26:44.999Z</time>
      </trkpt>
      <trkpt lat="47.50546" lon="6.74066">
        <ele>368.1</ele>
        <time>2016-12-28T15:26:45.999Z</time>
      </trkpt>
      <trkpt lat="47.50544" lon="6.74072">
        <ele>368.3</ele>
        <time>2016-12-28T15:26:46.999Z</time>
      </trkpt>
      <trkpt lat="47.50541" lon="6.74078">
        <ele>368</ele>
        <time>2016-12-28T15:26:47.999Z</time>
      </trkpt>
      <trkpt lat="47.50538" lon="6.74085">
        <ele>368.1</ele>
        <time>2016-12-28T15:26:48.999Z</time>
      </trkpt>
      <trkpt lat="47.50535" lon="6.74092">
        <ele>368.6</ele>
        <time>2016-12-28T15:26:49.999Z</time>
      </trkpt>
      <trkpt lat="47.50532" lon="6.74098">
        <ele>368.5</ele>
        <time>2016-12-28T15:26:50.999Z</time>
      </trkpt>
      <trkpt lat="47.5053" lon="6.74103">
        <ele>368.4</ele>
        <time>2016-12-28T15:26:51.999Z</time>
      </trkpt>
      <trkpt lat="47.50527" lon="6.74108">
        <ele>368.5</ele>
        <time>2016-12-28T15:26:52.999Z</time>
      </trkpt>
      <trkpt lat="47.50524" lon="6.74112">
        <ele>368.5</ele>
        <time>2016-12-28T15:26:53.999Z</time>
      </trkpt>
      <trkpt lat="47.50523" lon="6.74116">
        <ele>368.5</ele>
        <time>2016-12-28T15:26:54.999Z</time>
      </trkpt>
      <trkpt lat="47.50521" lon="6.74121">
        <ele>368.5</ele>
        <time>2016-12-28T15:26:55.999Z</time>
      </trkpt>
      <trkpt lat="47.50515" lon="6.74134">
        <ele>368.5</ele>
        <time>2016-12-28T15:26:56.999Z</time>
      </trkpt>
      <trkpt lat="47.50512" lon="6.74141">
        <ele>368.7</ele>
        <time>2016-12-28T15:26:57.999Z</time>
      </trkpt>
      <trkpt lat="47.5051" lon="6.74145">
        <ele>368.8</ele>
        <time>2016-12-28T15:26:58.999Z</time>
      </trkpt>
      <trkpt lat="47.50508" lon="6.74152">
        <ele>369.1</ele>
        <time>2016-12-28T15:26:59.999Z</time>
      </trkpt>
      <trkpt lat="47.50508" lon="6.74158">
        <ele>369.4</ele>
        <time>2016-12-28T15:27:00.999Z</time>
      </trkpt>
      <trkpt lat="47.50506" lon="6.74162">
        <ele>369.6</ele>
        <time>2016-12-28T15:27:01.999Z</time>
      </trkpt>
      <trkpt lat="47.50505" lon="6.74169">
        <ele>369.9</ele>
        <time>2016-12-28T15:27:02.999Z</time>
      </trkpt>
      <trkpt lat="47.50504" lon="6.74176">
        <ele>370.1</ele>
        <time>2016-12-28T15:27:03.999Z</time>
      </trkpt>
      <trkpt lat="47.50503" lon="6.74182">
        <ele>370.4</ele>
        <time>2016-12-28T15:27:04.999Z</time>
      </trkpt>
      <trkpt lat="47.50502" lon="6.74187">
        <ele>370.7</ele>
        <time>2016-12-28T15:27:05.999Z</time>
      </trkpt>
      <trkpt lat="47.50499" lon="6.74191">
        <ele>371.1</ele>
        <time>2016-12-28T15:27:06.999Z</time>
      </trkpt>
      <trkpt lat="47.50495" lon="6.74194">
        <ele>371.4</ele>
        <time>2016-12-28T15:27:07.999Z</time>
      </trkpt>
      <trkpt lat="47.50488" lon="6.74202">
        <ele>371.7</ele>
        <time>2016-12-28T15:27:08.999Z</time>
      </trkpt>
      <trkpt lat="47.50486" lon="6.7421">
        <ele>372</ele>
        <time>2016-12-28T15:27:09.999Z</time>
      </trkpt>
      <trkpt lat="47.50485" lon="6.74213">
        <ele>372.3</ele>
        <time>2016-12-28T15:27:10.999Z</time>
      </trkpt>
      <trkpt lat="47.50484" lon="6.74217">
        <ele>372.6</ele>
        <time>2016-12-28T15:27:11.999Z</time>
      </trkpt>
      <trkpt lat="47.50484" lon="6.74221">
        <ele>373</ele>
        <time>2016-12-28T15:27:12.999Z</time>
      </trkpt>
      <trkpt lat="47.50483" lon="6.74223">
        <ele>373.4</ele>
        <time>2016-12-28T15:27:13.999Z</time>
      </trkpt>
      <trkpt lat="47.50482" lon="6.74226">
        <ele>373.8</ele>
        <time>2016-12-28T15:27:14.999Z</time>
      </trkpt>
      <trkpt lat="47.50479" lon="6.74229">
        <ele>374.2</ele>
        <time>2016-12-28T15:27:15.999Z</time>
      </trkpt>
      <trkpt lat="47.50477" lon="6.74236">
        <ele>374.6</ele>
        <time>2016-12-28T15:27:16.999Z</time>
      </trkpt>
      <trkpt lat="47.50475" lon="6.7424">
        <ele>375</ele>
        <time>2016-12-28T15:27:17.999Z</time>
      </trkpt>
      <trkpt lat="47.50472" lon="6.74245">
        <ele>375.3</ele>
        <time>2016-12-28T15:27:18.999Z</time>
      </trkpt>
      <trkpt lat="47.5047" lon="6.7425">
        <ele>375.6</ele>
        <time>2016-12-28T15:27:19.999Z</time>
      </trkpt>
      <trkpt lat="47.50468" lon="6.74255">
        <ele>375.8</ele>
        <time>2016-12-28T15:27:20.999Z</time>
      </trkpt>
      <trkpt lat="47.50466" lon="6.7426">
        <ele>376</ele>
        <time>2016-12-28T15:27:21.999Z</time>
      </trkpt>
      <trkpt lat="47.50464" lon="6.74266">
        <ele>376.1</ele>
        <time>2016-12-28T15:27:22.999Z</time>
      </trkpt>
      <trkpt lat="47.5046" lon="6.74271">
        <ele>376.3</ele>
        <time>2016-12-28T15:27:23.999Z</time>
      </trkpt>
      <trkpt lat="47.50456" lon="6.74278">
        <ele>377.6</ele>
        <time>2016-12-28T15:27:24.999Z</time>
      </trkpt>
      <trkpt lat="47.50454" lon="6.74284">
        <ele>378.9</ele>
        <time>2016-12-28T15:27:25.999Z</time>
      </trkpt>
      <trkpt lat="47.50452" lon="6.74291">
        <ele>380.7</ele>
        <time>2016-12-28T15:27:26.999Z</time>
      </trkpt>
      <trkpt lat="47.50449" lon="6.74298">
        <ele>383.3</ele>
        <time>2016-12-28T15:27:27.999Z</time>
      </trkpt>
      <trkpt lat="47.50447" lon="6.74305">
        <ele>385.8</ele>
        <time>2016-12-28T15:27:28.999Z</time>
      </trkpt>
      <trkpt lat="47.50445" lon="6.74312">
        <ele>387.8</ele>
        <time>2016-12-28T15:27:29.999Z</time>
      </trkpt>
      <trkpt lat="47.50443" lon="6.74319">
        <ele>388.8</ele>
        <time>2016-12-28T15:27:30.999Z</time>
      </trkpt>
      <trkpt lat="47.5044" lon="6.74325">
        <ele>389.9</ele>
        <time>2016-12-28T15:27:31.999Z</time>
      </trkpt>
      <trkpt lat="47.50437" lon="6.74331">
        <ele>391</ele>
        <time>2016-12-28T15:27:32.999Z</time>
      </trkpt>
      <trkpt lat="47.50435" lon="6.74337">
        <ele>391.3</ele>
        <time>2016-12-28T15:27:33.999Z</time>
      </trkpt>
      <trkpt lat="47.50433" lon="6.74343">
        <ele>392.1</ele>
        <time>2016-12-28T15:27:34.999Z</time>
      </trkpt>
      <trkpt lat="47.5043" lon="6.74348">
        <ele>391.8</ele>
        <time>2016-12-28T15:27:35.999Z</time>
      </trkpt>
      <trkpt lat="47.50427" lon="6.74353">
        <ele>391.6</ele>
        <time>2016-12-28T15:27:36.999Z</time>
      </trkpt>
      <trkpt lat="47.50424" lon="6.74359">
        <ele>392.1</ele>
        <time>2016-12-28T15:27:37.999Z</time>
      </trkpt>
      <trkpt lat="47.50422" lon="6.74365">
        <ele>391.4</ele>
        <time>2016-12-28T15:27:38.999Z</time>
      </trkpt>
      <trkpt lat="47.50419" lon="6.74371">
        <ele>391.6</ele>
        <time>2016-12-28T15:27:39.999Z</time>
      </trkpt>
      <trkpt lat="47.50415" lon="6.74376">
        <ele>392.1</ele>
        <time>2016-12-28T15:27:40.999Z</time>
      </trkpt>
      <trkpt lat="47.50413" lon="6.74382">
        <ele>392.1</ele>
        <time>2016-12-28T15:27:41.999Z</time>
      </trkpt>
      <trkpt lat="47.5041" lon="6.74388">
        <ele>392.1</ele>
        <time>2016-12-28T15:27:42.999Z</time>
      </trkpt>
      <trkpt lat="47.50406" lon="6.74394">
        <ele>392.4</ele>
        <time>2016-12-28T15:27:43.999Z</time>
      </trkpt>
      <trkpt lat="47.50403" lon="6.744">
        <ele>392.7</ele>
        <time>2016-12-28T15:27:44.999Z</time>
      </trkpt>
      <trkpt lat="47.504" lon="6.74405">
        <ele>393.1</ele>
        <time>2016-12-28T15:27:45.999Z</time>
      </trkpt>
      <trkpt lat="47.50398" lon="6.74409">
        <ele>393.4</ele>
        <time>2016-12-28T15:27:46.999Z</time>
      </trkpt>
      <trkpt lat="47.50395" lon="6.74415">
        <ele>393.3</ele>
        <time>2016-12-28T15:27:47.999Z</time>
      </trkpt>
      <trkpt lat="47.50393" lon="6.74421">
        <ele>393.5</ele>
        <time>2016-12-28T15:27:48.999Z</time>
      </trkpt>
      <trkpt lat="47.5039" lon="6.74428">
        <ele>394.1</ele>
        <time>2016-12-28T15:27:49.999Z</time>
      </trkpt>
      <trkpt lat="47.50388" lon="6.74434">
        <ele>395.6</ele>
        <time>2016-12-28T15:27:50.999Z</time>
      </trkpt>
      <trkpt lat="47.50386" lon="6.7444">
        <ele>396.5</ele>
        <time>2016-12-28T15:27:51.999Z</time>
      </trkpt>
      <trkpt lat="47.50383" lon="6.74447">
        <ele>397.2</ele>
        <time>2016-12-28T15:27:52.999Z</time>
      </trkpt>
      <trkpt lat="47.5038" lon="6.74454">
        <ele>397.1</ele>
        <time>2016-12-28T15:27:53.999Z</time>
      </trkpt>
      <trkpt lat="47.50377" lon="6.7446">
        <ele>396.7</ele>
        <time>2016-12-28T15:27:54.999Z</time>
      </trkpt>
      <trkpt lat="47.50375" lon="6.74464">
        <ele>396.2</ele>
        <time>2016-12-28T15:27:55.999Z</time>
      </trkpt>
      <trkpt lat="47.50372" lon="6.74468">
        <ele>396.3</ele>
        <time>2016-12-28T15:27:56.999Z</time>
      </trkpt>
      <trkpt lat="47.5037" lon="6.74474">
        <ele>396.7</ele>
        <time>2016-12-28T15:27:57.999Z</time>
      </trkpt>
      <trkpt lat="47.50368" lon="6.74478">
        <ele>396.8</ele>
        <time>2016-12-28T15:27:58.999Z</time>
      </trkpt>
      <trkpt lat="47.50367" lon="6.74484">
        <ele>396.8</ele>
        <time>2016-12-28T15:27:59.999Z</time>
      </trkpt>
      <trkpt lat="47.50366" lon="6.7449">
        <ele>397.3</ele>
        <time>2016-12-28T15:28:00.999Z</time>
      </trkpt>
      <trkpt lat="47.50368" lon="6.74497">
        <ele>397.9</ele>
        <time>2016-12-28T15:28:01.999Z</time>
      </trkpt>
      <trkpt lat="47.5037" lon="6.74504">
        <ele>397.9</ele>
        <time>2016-12-28T15:28:02.999Z</time>
      </trkpt>
      <trkpt lat="47.50372" lon="6.74509">
        <ele>397.9</ele>
        <time>2016-12-28T15:28:03.999Z</time>
      </trkpt>
      <trkpt lat="47.50375" lon="6.74516">
        <ele>397.9</ele>
        <time>2016-12-28T15:28:04.999Z</time>
      </trkpt>
      <trkpt lat="47.50376" lon="6.7452">
        <ele>397.3</ele>
        <time>2016-12-28T15:28:05.999Z</time>
      </trkpt>
      <trkpt lat="47.50378" lon="6.74526">
        <ele>397.2</ele>
        <time>2016-12-28T15:28:06.999Z</time>
      </trkpt>
      <trkpt lat="47.50379" lon="6.74529">
        <ele>397.2</ele>
        <time>2016-12-28T15:28:07.999Z</time>
      </trkpt>
      <trkpt lat="47.50381" lon="6.74536">
        <ele>397.3</ele>
        <time>2016-12-28T15:28:08.999Z</time>
      </trkpt>
      <trkpt lat="47.50382" lon="6.74542">
        <ele>397.4</ele>
        <time>2016-12-28T15:28:09.999Z</time>
      </trkpt>
      <trkpt lat="47.50384" lon="6.74549">
        <ele>397.4</ele>
        <time>2016-12-28T15:28:10.999Z</time>
      </trkpt>
      <trkpt lat="47.50385" lon="6.74554">
        <ele>397.3</ele>
        <time>2016-12-28T15:28:11.999Z</time>
      </trkpt>
      <trkpt lat="47.50386" lon="6.74561">
        <ele>397.3</ele>
        <time>2016-12-28T15:28:12.999Z</time>
      </trkpt>
      <trkpt lat="47.50387" lon="6.74566">
        <ele>397.3</ele>
        <time>2016-12-28T15:28:13.999Z</time>
      </trkpt>
      <trkpt lat="47.50388" lon="6.74572">
        <ele>397.2</ele>
        <time>2016-12-28T15:28:14.999Z</time>
      </trkpt>
      <trkpt lat="47.50389" lon="6.74577">
        <ele>397.2</ele>
        <time>2016-12-28T15:28:15.999Z</time>
      </trkpt>
      <trkpt lat="47.50389" lon="6.74581">
        <ele>397.2</ele>
        <time>2016-12-28T15:28:16.999Z</time>
      </trkpt>
      <trkpt lat="47.50389" lon="6.74587">
        <ele>397.3</ele>
        <time>2016-12-28T15:28:17.999Z</time>
      </trkpt>
      <trkpt lat="47.5039" lon="6.74592">
        <ele>397.8</ele>
        <time>2016-12-28T15:28:18.999Z</time>
      </trkpt>
      <trkpt lat="47.5039" lon="6.74598">
        <ele>398.3</ele>
        <time>2016-12-28T15:28:19.999Z</time>
      </trkpt>
      <trkpt lat="47.50391" lon="6.74606">
        <ele>398.6</ele>
        <time>2016-12-28T15:28:20.999Z</time>
      </trkpt>
      <trkpt lat="47.50393" lon="6.74612">
        <ele>399.1</ele>
        <time>2016-12-28T15:28:21.999Z</time>
      </trkpt>
      <trkpt lat="47.50394" lon="6.74618">
        <ele>399.7</ele>
        <time>2016-12-28T15:28:22.999Z</time>
      </trkpt>
      <trkpt lat="47.50395" lon="6.74624">
        <ele>400.2</ele>
        <time>2016-12-28T15:28:23.999Z</time>
      </trkpt>
      <trkpt lat="47.50396" lon="6.7463">
        <ele>400.5</ele>
        <time>2016-12-28T15:28:24.999Z</time>
      </trkpt>
      <trkpt lat="47.50397" lon="6.74635">
        <ele>400.5</ele>
        <time>2016-12-28T15:28:25.999Z</time>
      </trkpt>
      <trkpt lat="47.50397" lon="6.74642">
        <ele>400.4</ele>
        <time>2016-12-28T15:28:26.999Z</time>
      </trkpt>
      <trkpt lat="47.50398" lon="6.74648">
        <ele>400.6</ele>
        <time>2016-12-28T15:28:27.999Z</time>
      </trkpt>
      <trkpt lat="47.50399" lon="6.74654">
        <ele>400.5</ele>
        <time>2016-12-28T15:28:28.999Z</time>
      </trkpt>
      <trkpt lat="47.504" lon="6.7466">
        <ele>400.4</ele>
        <time>2016-12-28T15:28:29.999Z</time>
      </trkpt>
      <trkpt lat="47.504" lon="6.74668">
        <ele>400.6</ele>
        <time>2016-12-28T15:28:30.999Z</time>
      </trkpt>
      <trkpt lat="47.504" lon="6.74674">
        <ele>400.6</ele>
        <time>2016-12-28T15:28:31.999Z</time>
      </trkpt>
      <trkpt lat="47.50399" lon="6.7468">
        <ele>400.6</ele>
        <time>2016-12-28T15:28:32.999Z</time>
      </trkpt>
      <trkpt lat="47.50398" lon="6.74685">
        <ele>400.5</ele>
        <time>2016-12-28T15:28:33.999Z</time>
      </trkpt>
      <trkpt lat="47.50396" lon="6.74691">
        <ele>399.7</ele>
        <time>2016-12-28T15:28:34.999Z</time>
      </trkpt>
      <trkpt lat="47.50394" lon="6.74697">
        <ele>399.1</ele>
        <time>2016-12-28T15:28:35.999Z</time>
      </trkpt>
      <trkpt lat="47.50392" lon="6.74701">
        <ele>398.7</ele>
        <time>2016-12-28T15:28:36.999Z</time>
      </trkpt>
      <trkpt lat="47.50391" lon="6.74706">
        <ele>398.5</ele>
        <time>2016-12-28T15:28:37.999Z</time>
      </trkpt>
      <trkpt lat="47.50389" lon="6.74712">
        <ele>397.9</ele>
        <time>2016-12-28T15:28:38.999Z</time>
      </trkpt>
      <trkpt lat="47.50387" lon="6.74718">
        <ele>397.6</ele>
        <time>2016-12-28T15:28:39.999Z</time>
      </trkpt>
      <trkpt lat="47.50386" lon="6.74723">
        <ele>397.7</ele>
        <time>2016-12-28T15:28:40.999Z</time>
      </trkpt>
      <trkpt lat="47.50384" lon="6.74728">
        <ele>397.8</ele>
        <time>2016-12-28T15:28:41.999Z</time>
      </trkpt>
      <trkpt lat="47.50382" lon="6.74735">
        <ele>397.6</ele>
        <time>2016-12-28T15:28:42.999Z</time>
      </trkpt>
      <trkpt lat="47.5038" lon="6.74741">
        <ele>397.7</ele>
        <time>2016-12-28T15:28:43.999Z</time>
      </trkpt>
      <trkpt lat="47.50377" lon="6.74747">
        <ele>397.6</ele>
        <time>2016-12-28T15:28:44.999Z</time>
      </trkpt>
      <trkpt lat="47.50376" lon="6.74754">
        <ele>397.3</ele>
        <time>2016-12-28T15:28:45.999Z</time>
      </trkpt>
      <trkpt lat="47.50374" lon="6.74759">
        <ele>397.7</ele>
        <time>2016-12-28T15:28:46.999Z</time>
      </trkpt>
      <trkpt lat="47.50372" lon="6.74765">
        <ele>398.2</ele>
        <time>2016-12-28T15:28:47.999Z</time>
      </trkpt>
      <trkpt lat="47.5037" lon="6.7477">
        <ele>398.6</ele>
        <time>2016-12-28T15:28:48.999Z</time>
      </trkpt>
      <trkpt lat="47.50367" lon="6.74776">
        <ele>398.9</ele>
        <time>2016-12-28T15:28:49.999Z</time>
      </trkpt>
      <trkpt lat="47.50365" lon="6.74783">
        <ele>398.7</ele>
        <time>2016-12-28T15:28:50.999Z</time>
      </trkpt>
      <trkpt lat="47.50363" lon="6.7479">
        <ele>398.4</ele>
        <time>2016-12-28T15:28:51.999Z</time>
      </trkpt>
      <trkpt lat="47.50361" lon="6.74796">
        <ele>398.2</ele>
        <time>2016-12-28T15:28:52.999Z</time>
      </trkpt>
      <trkpt lat="47.50359" lon="6.74802">
        <ele>398.3</ele>
        <time>2016-12-28T15:28:53.999Z</time>
      </trkpt>
      <trkpt lat="47.50358" lon="6.7481">
        <ele>398</ele>
        <time>2016-12-28T15:28:54.999Z</time>
      </trkpt>
      <trkpt lat="47.50356" lon="6.74816">
        <ele>397.6</ele>
        <time>2016-12-28T15:28:55.999Z</time>
      </trkpt>
      <trkpt lat="47.50355" lon="6.74824">
        <ele>397.1</ele>
        <time>2016-12-28T15:28:56.999Z</time>
      </trkpt>
      <trkpt lat="47.50353" lon="6.74831">
        <ele>396.5</ele>
        <time>2016-12-28T15:28:57.999Z</time>
      </trkpt>
      <trkpt lat="47.50351" lon="6.74839">
        <ele>395.7</ele>
        <time>2016-12-28T15:28:58.999Z</time>
      </trkpt>
      <trkpt lat="47.50349" lon="6.74847">
        <ele>395.1</ele>
        <time>2016-12-28T15:28:59.999Z</time>
      </trkpt>
      <trkpt lat="47.50347" lon="6.74853">
        <ele>394.6</ele>
        <time>2016-12-28T15:29:00.999Z</time>
      </trkpt>
      <trkpt lat="47.50345" lon="6.7486">
        <ele>394.1</ele>
        <time>2016-12-28T15:29:01.999Z</time>
      </trkpt>
      <trkpt lat="47.50342" lon="6.74868">
        <ele>393.8</ele>
        <time>2016-12-28T15:29:02.999Z</time>
      </trkpt>
      <trkpt lat="47.50339" lon="6.74876">
        <ele>393.6</ele>
        <time>2016-12-28T15:29:03.999Z</time>
      </trkpt>
      <trkpt lat="47.50338" lon="6.74882">
        <ele>392.9</ele>
        <time>2016-12-28T15:29:04.999Z</time>
      </trkpt>
      <trkpt lat="47.50336" lon="6.74889">
        <ele>392.7</ele>
        <time>2016-12-28T15:29:05.999Z</time>
      </trkpt>
      <trkpt lat="47.50334" lon="6.74898">
        <ele>392.3</ele>
        <time>2016-12-28T15:29:06.999Z</time>
      </trkpt>
      <trkpt lat="47.50333" lon="6.74906">
        <ele>392.2</ele>
        <time>2016-12-28T15:29:07.999Z</time>
      </trkpt>
      <trkpt lat="47.50331" lon="6.74914">
        <ele>391.4</ele>
        <time>2016-12-28T15:29:08.999Z</time>
      </trkpt>
      <trkpt lat="47.50329" lon="6.74923">
        <ele>391.2</ele>
        <time>2016-12-28T15:29:09.999Z</time>
      </trkpt>
      <trkpt lat="47.50327" lon="6.7493">
        <ele>391.3</ele>
        <time>2016-12-28T15:29:10.999Z</time>
      </trkpt>
      <trkpt lat="47.50325" lon="6.74938">
        <ele>391.2</ele>
        <time>2016-12-28T15:29:11.999Z</time>
      </trkpt>
      <trkpt lat="47.50323" lon="6.74947">
        <ele>390.7</ele>
        <time>2016-12-28T15:29:12.999Z</time>
      </trkpt>
      <trkpt lat="47.5032" lon="6.74954">
        <ele>390.5</ele>
        <time>2016-12-28T15:29:13.999Z</time>
      </trkpt>
      <trkpt lat="47.50319" lon="6.74962">
        <ele>389.8</ele>
        <time>2016-12-28T15:29:14.999Z</time>
      </trkpt>
      <trkpt lat="47.50317" lon="6.74971">
        <ele>388.6</ele>
        <time>2016-12-28T15:29:15.999Z</time>
      </trkpt>
      <trkpt lat="47.50315" lon="6.74982">
        <ele>387.7</ele>
        <time>2016-12-28T15:29:16.999Z</time>
      </trkpt>
      <trkpt lat="47.50311" lon="6.74989">
        <ele>386.7</ele>
        <time>2016-12-28T15:29:17.999Z</time>
      </trkpt>
      <trkpt lat="47.50308" lon="6.74998">
        <ele>385.6</ele>
        <time>2016-12-28T15:29:18.999Z</time>
      </trkpt>
      <trkpt lat="47.50305" lon="6.75005">
        <ele>385.5</ele>
        <time>2016-12-28T15:29:19.999Z</time>
      </trkpt>
      <trkpt lat="47.503" lon="6.75009">
        <ele>385.5</ele>
        <time>2016-12-28T15:29:20.999Z</time>
      </trkpt>
      <trkpt lat="47.50296" lon="6.75015">
        <ele>385.1</ele>
        <time>2016-12-28T15:29:21.999Z</time>
      </trkpt>
      <trkpt lat="47.5029" lon="6.75017">
        <ele>385.2</ele>
        <time>2016-12-28T15:29:22.999Z</time>
      </trkpt>
      <trkpt lat="47.50284" lon="6.75019">
        <ele>385.4</ele>
        <time>2016-12-28T15:29:23.999Z</time>
      </trkpt>
      <trkpt lat="47.50278" lon="6.75023">
        <ele>385.4</ele>
        <time>2016-12-28T15:29:24.999Z</time>
      </trkpt>
      <trkpt lat="47.50273" lon="6.75027">
        <ele>384.7</ele>
        <time>2016-12-28T15:29:25.999Z</time>
      </trkpt>
      <trkpt lat="47.50267" lon="6.75028">
        <ele>384.6</ele>
        <time>2016-12-28T15:29:26.999Z</time>
      </trkpt>
      <trkpt lat="47.50262" lon="6.75023">
        <ele>384.9</ele>
        <time>2016-12-28T15:29:27.999Z</time>
      </trkpt>
      <trkpt lat="47.50256" lon="6.75013">
        <ele>384.1</ele>
        <time>2016-12-28T15:29:28.999Z</time>
      </trkpt>
      <trkpt lat="47.50253" lon="6.75003">
        <ele>384</ele>
        <time>2016-12-28T15:29:29.999Z</time>
      </trkpt>
      <trkpt lat="47.50251" lon="6.74994">
        <ele>384.1</ele>
        <time>2016-12-28T15:29:30.999Z</time>
      </trkpt>
      <trkpt lat="47.50249" lon="6.74987">
        <ele>383.6</ele>
        <time>2016-12-28T15:29:31.999Z</time>
      </trkpt>
      <trkpt lat="47.50246" lon="6.74982">
        <ele>382.8</ele>
        <time>2016-12-28T15:29:32.999Z</time>
      </trkpt>
      <trkpt lat="47.50242" lon="6.74977">
        <ele>381.6</ele>
        <time>2016-12-28T15:29:33.999Z</time>
      </trkpt>
      <trkpt lat="47.50236" lon="6.74971">
        <ele>381.6</ele>
        <time>2016-12-28T15:29:34.999Z</time>
      </trkpt>
      <trkpt lat="47.50234" lon="6.74967">
        <ele>381.5</ele>
        <time>2016-12-28T15:29:35.999Z</time>
      </trkpt>
      <trkpt lat="47.50232" lon="6.74964">
        <ele>381.6</ele>
        <time>2016-12-28T15:29:36.999Z</time>
      </trkpt>
      <trkpt lat="47.50229" lon="6.74959">
        <ele>381.5</ele>
        <time>2016-12-28T15:29:37.999Z</time>
      </trkpt>
      <trkpt lat="47.50225" lon="6.74956">
        <ele>381.4</ele>
        <time>2016-12-28T15:29:38.999Z</time>
      </trkpt>
      <trkpt lat="47.50223" lon="6.74958">
        <ele>381.3</ele>
        <time>2016-12-28T15:29:39.999Z</time>
      </trkpt>
      <trkpt lat="47.50218" lon="6.74963">
        <ele>379.6</ele>
        <time>2016-12-28T15:29:40.999Z</time>
      </trkpt>
      <trkpt lat="47.50213" lon="6.74967">
        <ele>378.7</ele>
        <time>2016-12-28T15:29:41.999Z</time>
      </trkpt>
      <trkpt lat="47.50208" lon="6.74972">
        <ele>377.4</ele>
        <time>2016-12-28T15:29:42.999Z</time>
      </trkpt>
      <trkpt lat="47.50204" lon="6.74976">
        <ele>376.4</ele>
        <time>2016-12-28T15:29:43.999Z</time>
      </trkpt>
      <trkpt lat="47.50202" lon="6.74982">
        <ele>375.9</ele>
        <time>2016-12-28T15:29:44.999Z</time>
      </trkpt>
      <trkpt lat="47.50199" lon="6.74988">
        <ele>376</ele>
        <time>2016-12-28T15:29:45.999Z</time>
      </trkpt>
      <trkpt lat="47.50197" lon="6.74996">
        <ele>375.8</ele>
        <time>2016-12-28T15:29:46.999Z</time>
      </trkpt>
      <trkpt lat="47.50197" lon="6.75004">
        <ele>375.6</ele>
        <time>2016-12-28T15:29:47.999Z</time>
      </trkpt>
      <trkpt lat="47.50196" lon="6.75015">
        <ele>375.6</ele>
        <time>2016-12-28T15:29:48.999Z</time>
      </trkpt>
      <trkpt lat="47.50195" lon="6.75023">
        <ele>375.5</ele>
        <time>2016-12-28T15:29:49.999Z</time>
      </trkpt>
      <trkpt lat="47.50195" lon="6.75032">
        <ele>375.2</ele>
        <time>2016-12-28T15:29:50.999Z</time>
      </trkpt>
      <trkpt lat="47.50193" lon="6.75043">
        <ele>374.8</ele>
        <time>2016-12-28T15:29:51.999Z</time>
      </trkpt>
      <trkpt lat="47.50191" lon="6.75053">
        <ele>374.5</ele>
        <time>2016-12-28T15:29:52.999Z</time>
      </trkpt>
      <trkpt lat="47.5019" lon="6.75065">
        <ele>374.3</ele>
        <time>2016-12-28T15:29:53.999Z</time>
      </trkpt>
      <trkpt lat="47.50189" lon="6.75076">
        <ele>374.2</ele>
        <time>2016-12-28T15:29:54.999Z</time>
      </trkpt>
      <trkpt lat="47.50189" lon="6.75087">
        <ele>373.9</ele>
        <time>2016-12-28T15:29:55.999Z</time>
      </trkpt>
      <trkpt lat="47.50189" lon="6.75097">
        <ele>373.3</ele>
        <time>2016-12-28T15:29:56.999Z</time>
      </trkpt>
      <trkpt lat="47.50186" lon="6.75107">
        <ele>373.1</ele>
        <time>2016-12-28T15:29:57.999Z</time>
      </trkpt>
      <trkpt lat="47.50181" lon="6.75117">
        <ele>372.3</ele>
        <time>2016-12-28T15:29:58.999Z</time>
      </trkpt>
      <trkpt lat="47.50177" lon="6.75124">
        <ele>371.5</ele>
        <time>2016-12-28T15:29:59.999Z</time>
      </trkpt>
      <trkpt lat="47.50171" lon="6.75131">
        <ele>372</ele>
        <time>2016-12-28T15:30:00.999Z</time>
      </trkpt>
      <trkpt lat="47.50165" lon="6.75138">
        <ele>373.1</ele>
        <time>2016-12-28T15:30:01.999Z</time>
      </trkpt>
      <trkpt lat="47.50159" lon="6.75147">
        <ele>373.9</ele>
        <time>2016-12-28T15:30:02.999Z</time>
      </trkpt>
      <trkpt lat="47.50153" lon="6.75153">
        <ele>374.3</ele>
        <time>2016-12-28T15:30:03.999Z</time>
      </trkpt>
      <trkpt lat="47.50146" lon="6.75158">
        <ele>373.8</ele>
        <time>2016-12-28T15:30:04.999Z</time>
      </trkpt>
      <trkpt lat="47.50141" lon="6.75161">
        <ele>372.8</ele>
        <time>2016-12-28T15:30:05.999Z</time>
      </trkpt>
      <trkpt lat="47.50134" lon="6.75165">
        <ele>371.8</ele>
        <time>2016-12-28T15:30:06.999Z</time>
      </trkpt>
      <trkpt lat="47.50129" lon="6.75168">
        <ele>370.6</ele>
        <time>2016-12-28T15:30:07.999Z</time>
      </trkpt>
      <trkpt lat="47.50123" lon="6.75173">
        <ele>369.3</ele>
        <time>2016-12-28T15:30:08.999Z</time>
      </trkpt>
      <trkpt lat="47.50116" lon="6.75178">
        <ele>368.8</ele>
        <time>2016-12-28T15:30:09.999Z</time>
      </trkpt>
      <trkpt lat="47.50109" lon="6.75183">
        <ele>368.6</ele>
        <time>2016-12-28T15:30:10.999Z</time>
      </trkpt>
      <trkpt lat="47.50103" lon="6.75186">
        <ele>368.2</ele>
        <time>2016-12-28T15:30:11.999Z</time>
      </trkpt>
      <trkpt lat="47.50096" lon="6.75189">
        <ele>368.5</ele>
        <time>2016-12-28T15:30:12.999Z</time>
      </trkpt>
      <trkpt lat="47.5009" lon="6.75191">
        <ele>368.2</ele>
        <time>2016-12-28T15:30:13.999Z</time>
      </trkpt>
      <trkpt lat="47.50083" lon="6.75194">
        <ele>367.9</ele>
        <time>2016-12-28T15:30:14.999Z</time>
      </trkpt>
      <trkpt lat="47.50076" lon="6.75197">
        <ele>367.1</ele>
        <time>2016-12-28T15:30:15.999Z</time>
      </trkpt>
      <trkpt lat="47.50069" lon="6.75199">
        <ele>366.2</ele>
        <time>2016-12-28T15:30:16.999Z</time>
      </trkpt>
      <trkpt lat="47.50063" lon="6.752">
        <ele>366.2</ele>
        <time>2016-12-28T15:30:17.999Z</time>
      </trkpt>
      <trkpt lat="47.50058" lon="6.75201">
        <ele>365.7</ele>
        <time>2016-12-28T15:30:18.999Z</time>
      </trkpt>
      <trkpt lat="47.50051" lon="6.75201">
        <ele>365.9</ele>
        <time>2016-12-28T15:30:19.999Z</time>
      </trkpt>
      <trkpt lat="47.50045" lon="6.75202">
        <ele>365.9</ele>
        <time>2016-12-28T15:30:20.999Z</time>
      </trkpt>
      <trkpt lat="47.5004" lon="6.75202">
        <ele>365.9</ele>
        <time>2016-12-28T15:30:21.999Z</time>
      </trkpt>
      <trkpt lat="47.50035" lon="6.75203">
        <ele>365.7</ele>
        <time>2016-12-28T15:30:22.999Z</time>
      </trkpt>
      <trkpt lat="47.50028" lon="6.75207">
        <ele>366.6</ele>
        <time>2016-12-28T15:30:23.999Z</time>
      </trkpt>
      <trkpt lat="47.50024" lon="6.75213">
        <ele>367.1</ele>
        <time>2016-12-28T15:30:24.999Z</time>
      </trkpt>
      <trkpt lat="47.50019" lon="6.75219">
        <ele>367.6</ele>
        <time>2016-12-28T15:30:25.999Z</time>
      </trkpt>
      <trkpt lat="47.50016" lon="6.75224">
        <ele>367.2</ele>
        <time>2016-12-28T15:30:26.999Z</time>
      </trkpt>
      <trkpt lat="47.50013" lon="6.75233">
        <ele>367.2</ele>
        <time>2016-12-28T15:30:27.999Z</time>
      </trkpt>
      <trkpt lat="47.50011" lon="6.75239">
        <ele>367.1</ele>
        <time>2016-12-28T15:30:28.999Z</time>
      </trkpt>
      <trkpt lat="47.50009" lon="6.75245">
        <ele>366.5</ele>
        <time>2016-12-28T15:30:29.999Z</time>
      </trkpt>
      <trkpt lat="47.50008" lon="6.75254">
        <ele>365.6</ele>
        <time>2016-12-28T15:30:30.999Z</time>
      </trkpt>
      <trkpt lat="47.50007" lon="6.75262">
        <ele>364.4</ele>
        <time>2016-12-28T15:30:31.999Z</time>
      </trkpt>
      <trkpt lat="47.50007" lon="6.7527">
        <ele>363.4</ele>
        <time>2016-12-28T15:30:32.999Z</time>
      </trkpt>
      <trkpt lat="47.50007" lon="6.75276">
        <ele>362.9</ele>
        <time>2016-12-28T15:30:33.999Z</time>
      </trkpt>
      <trkpt lat="47.50007" lon="6.75284">
        <ele>361.8</ele>
        <time>2016-12-28T15:30:34.999Z</time>
      </trkpt>
      <trkpt lat="47.50007" lon="6.75291">
        <ele>361.8</ele>
        <time>2016-12-28T15:30:35.999Z</time>
      </trkpt>
      <trkpt lat="47.50007" lon="6.75298">
        <ele>361.9</ele>
        <time>2016-12-28T15:30:36.999Z</time>
      </trkpt>
      <trkpt lat="47.50007" lon="6.75304">
        <ele>362</ele>
        <time>2016-12-28T15:30:37.999Z</time>
      </trkpt>
      <trkpt lat="47.50008" lon="6.75312">
        <ele>362.2</ele>
        <time>2016-12-28T15:30:38.999Z</time>
      </trkpt>
      <trkpt lat="47.50008" lon="6.75319">
        <ele>362.1</ele>
        <time>2016-12-28T15:30:39.999Z</time>
      </trkpt>
      <trkpt lat="47.50009" lon="6.75325">
        <ele>362</ele>
        <time>2016-12-28T15:30:40.999Z</time>
      </trkpt>
      <trkpt lat="47.50009" lon="6.75331">
        <ele>362</ele>
        <time>2016-12-28T15:30:41.999Z</time>
      </trkpt>
      <trkpt lat="47.50009" lon="6.75337">
        <ele>361.4</ele>
        <time>2016-12-28T15:30:42.999Z</time>
      </trkpt>
      <trkpt lat="47.50009" lon="6.75343">
        <ele>361.1</ele>
        <time>2016-12-28T15:30:43.999Z</time>
      </trkpt>
      <trkpt lat="47.50009" lon="6.75349">
        <ele>361.1</ele>
        <time>2016-12-28T15:30:44.999Z</time>
      </trkpt>
      <trkpt lat="47.50008" lon="6.75355">
        <ele>361.1</ele>
        <time>2016-12-28T15:30:45.999Z</time>
      </trkpt>
      <trkpt lat="47.50008" lon="6.7536">
        <ele>361.1</ele>
        <time>2016-12-28T15:30:46.999Z</time>
      </trkpt>
      <trkpt lat="47.50006" lon="6.75367">
        <ele>361.1</ele>
        <time>2016-12-28T15:30:47.999Z</time>
      </trkpt>
      <trkpt lat="47.50005" lon="6.75371">
        <ele>361.2</ele>
        <time>2016-12-28T15:30:48.999Z</time>
      </trkpt>
      <trkpt lat="47.50004" lon="6.75376">
        <ele>361.1</ele>
        <time>2016-12-28T15:30:49.999Z</time>
      </trkpt>
      <trkpt lat="47.50002" lon="6.7538">
        <ele>361</ele>
        <time>2016-12-28T15:30:50.999Z</time>
      </trkpt>
      <trkpt lat="47.5" lon="6.75383">
        <ele>360.9</ele>
        <time>2016-12-28T15:30:51.999Z</time>
      </trkpt>
      <trkpt lat="47.49998" lon="6.75387">
        <ele>360.7</ele>
        <time>2016-12-28T15:30:52.999Z</time>
      </trkpt>
      <trkpt lat="47.49995" lon="6.75391">
        <ele>360.5</ele>
        <time>2016-12-28T15:30:53.999Z</time>
      </trkpt>
      <trkpt lat="47.49992" lon="6.75395">
        <ele>360.3</ele>
        <time>2016-12-28T15:30:54.999Z</time>
      </trkpt>
      <trkpt lat="47.49988" lon="6.75399">
        <ele>360.1</ele>
        <time>2016-12-28T15:30:55.999Z</time>
      </trkpt>
      <trkpt lat="47.49987" lon="6.75404">
        <ele>360</ele>
        <time>2016-12-28T15:30:56.999Z</time>
      </trkpt>
      <trkpt lat="47.49986" lon="6.75409">
        <ele>360</ele>
        <time>2016-12-28T15:30:57.999Z</time>
      </trkpt>
      <trkpt lat="47.49984" lon="6.75413">
        <ele>359.9</ele>
        <time>2016-12-28T15:30:58.999Z</time>
      </trkpt>
      <trkpt lat="47.49984" lon="6.75416">
        <ele>360</ele>
        <time>2016-12-28T15:30:59.999Z</time>
      </trkpt>
      <trkpt lat="47.49986" lon="6.75422">
        <ele>360.1</ele>
        <time>2016-12-28T15:31:00.999Z</time>
      </trkpt>
      <trkpt lat="47.49987" lon="6.75426">
        <ele>360.3</ele>
        <time>2016-12-28T15:31:01.999Z</time>
      </trkpt>
      <trkpt lat="47.49989" lon="6.75432">
        <ele>360.8</ele>
        <time>2016-12-28T15:31:05.999Z</time>
      </trkpt>
      <trkpt lat="47.4999" lon="6.75434">
        <ele>361</ele>
        <time>2016-12-28T15:31:06.999Z</time>
      </trkpt>
      <trkpt lat="47.49992" lon="6.75439">
        <ele>361.5</ele>
        <time>2016-12-28T15:31:09.999Z</time>
      </trkpt>
      <trkpt lat="47.49994" lon="6.75442">
        <ele>361.8</ele>
        <time>2016-12-28T15:31:10.999Z</time>
      </trkpt>
      <trkpt lat="47.49997" lon="6.75445">
        <ele>362.4</ele>
        <time>2016-12-28T15:31:12.999Z</time>
      </trkpt>
      <trkpt lat="47.49998" lon="6.75447">
        <ele>362.6</ele>
        <time>2016-12-28T15:31:13.999Z</time>
      </trkpt>
      <trkpt lat="47.5" lon="6.7545">
        <ele>362.7</ele>
        <time>2016-12-28T15:31:15.999Z</time>
      </trkpt>
      <trkpt lat="47.50002" lon="6.75453">
        <ele>362.8</ele>
        <time>2016-12-28T15:31:16.999Z</time>
      </trkpt>
      <trkpt lat="47.50004" lon="6.75455">
        <ele>362.9</ele>
        <time>2016-12-28T15:31:17.999Z</time>
      </trkpt>
      <trkpt lat="47.50005" lon="6.75457">
        <ele>363.1</ele>
        <time>2016-12-28T15:31:18.999Z</time>
      </trkpt>
      <trkpt lat="47.50008" lon="6.75461">
        <ele>363.3</ele>
        <time>2016-12-28T15:31:20.999Z</time>
      </trkpt>
      <trkpt lat="47.50009" lon="6.75465">
        <ele>363.4</ele>
        <time>2016-12-28T15:31:21.999Z</time>
      </trkpt>
      <trkpt lat="47.50011" lon="6.75468">
        <ele>363.5</ele>
        <time>2016-12-28T15:31:23.999Z</time>
      </trkpt>
      <trkpt lat="47.50012" lon="6.75472">
        <ele>363.5</ele>
        <time>2016-12-28T15:31:24.999Z</time>
      </trkpt>
      <trkpt lat="47.50012" lon="6.75476">
        <ele>363.5</ele>
        <time>2016-12-28T15:31:25.999Z</time>
      </trkpt>
      <trkpt lat="47.50013" lon="6.75479">
        <ele>363.5</ele>
        <time>2016-12-28T15:31:26.999Z</time>
      </trkpt>
      <trkpt lat="47.50014" lon="6.75484">
        <ele>363.5</ele>
        <time>2016-12-28T15:31:28.999Z</time>
      </trkpt>
      <trkpt lat="47.50015" lon="6.75487">
        <ele>363.5</ele>
        <time>2016-12-28T15:31:29.999Z</time>
      </trkpt>
      <trkpt lat="47.50016" lon="6.7549">
        <ele>363.6</ele>
        <time>2016-12-28T15:31:30.999Z</time>
      </trkpt>
      <trkpt lat="47.50017" lon="6.75494">
        <ele>363.7</ele>
        <time>2016-12-28T15:31:31.999Z</time>
      </trkpt>
      <trkpt lat="47.50017" lon="6.75498">
        <ele>363.8</ele>
        <time>2016-12-28T15:31:32.999Z</time>
      </trkpt>
      <trkpt lat="47.50017" lon="6.75501">
        <ele>363.9</ele>
        <time>2016-12-28T15:31:33.999Z</time>
      </trkpt>
      <trkpt lat="47.50017" lon="6.75505">
        <ele>364</ele>
        <time>2016-12-28T15:31:34.999Z</time>
      </trkpt>
      <trkpt lat="47.50018" lon="6.75508">
        <ele>364.1</ele>
        <time>2016-12-28T15:31:35.999Z</time>
      </trkpt>
      <trkpt lat="47.50019" lon="6.75512">
        <ele>364.5</ele>
        <time>2016-12-28T15:31:37.999Z</time>
      </trkpt>
      <trkpt lat="47.5002" lon="6.75515">
        <ele>364.6</ele>
        <time>2016-12-28T15:31:38.999Z</time>
      </trkpt>
      <trkpt lat="47.5002" lon="6.75519">
        <ele>364.8</ele>
        <time>2016-12-28T15:31:39.999Z</time>
      </trkpt>
      <trkpt lat="47.50021" lon="6.75522">
        <ele>364.9</ele>
        <time>2016-12-28T15:31:40.999Z</time>
      </trkpt>
      <trkpt lat="47.50021" lon="6.75525">
        <ele>365.1</ele>
        <time>2016-12-28T15:31:41.999Z</time>
      </trkpt>
      <trkpt lat="47.50022" lon="6.75529">
        <ele>365.1</ele>
        <time>2016-12-28T15:31:42.999Z</time>
      </trkpt>
      <trkpt lat="47.50023" lon="6.75532">
        <ele>365.5</ele>
        <time>2016-12-28T15:31:44.999Z</time>
      </trkpt>
      <trkpt lat="47.50023" lon="6.75535">
        <ele>365.7</ele>
        <time>2016-12-28T15:31:45.999Z</time>
      </trkpt>
      <trkpt lat="47.50024" lon="6.75538">
        <ele>365.8</ele>
        <time>2016-12-28T15:31:46.999Z</time>
      </trkpt>
      <trkpt lat="47.50025" lon="6.75542">
        <ele>366.1</ele>
        <time>2016-12-28T15:31:47.999Z</time>
      </trkpt>
      <trkpt lat="47.50026" lon="6.75547">
        <ele>366.5</ele>
        <time>2016-12-28T15:31:49.999Z</time>
      </trkpt>
      <trkpt lat="47.50027" lon="6.75551">
        <ele>366.6</ele>
        <time>2016-12-28T15:31:50.999Z</time>
      </trkpt>
      <trkpt lat="47.50028" lon="6.75557">
        <ele>367</ele>
        <time>2016-12-28T15:31:52.999Z</time>
      </trkpt>
      <trkpt lat="47.50029" lon="6.75561">
        <ele>367.2</ele>
        <time>2016-12-28T15:31:53.999Z</time>
      </trkpt>
      <trkpt lat="47.5003" lon="6.75565">
        <ele>367.5</ele>
        <time>2016-12-28T15:31:55.999Z</time>
      </trkpt>
      <trkpt lat="47.50032" lon="6.75568">
        <ele>367.6</ele>
        <time>2016-12-28T15:31:56.999Z</time>
      </trkpt>
      <trkpt lat="47.50034" lon="6.75571">
        <ele>368.1</ele>
        <time>2016-12-28T15:31:58.999Z</time>
      </trkpt>
      <trkpt lat="47.50035" lon="6.75572">
        <ele>368.3</ele>
        <time>2016-12-28T15:31:59.999Z</time>
      </trkpt>
      <trkpt lat="47.50036" lon="6.75576">
        <ele>368.5</ele>
        <time>2016-12-28T15:32:00.999Z</time>
      </trkpt>
      <trkpt lat="47.50038" lon="6.75578">
        <ele>368.6</ele>
        <time>2016-12-28T15:32:01.999Z</time>
      </trkpt>
      <trkpt lat="47.50039" lon="6.75582">
        <ele>368.7</ele>
        <time>2016-12-28T15:32:02.999Z</time>
      </trkpt>
      <trkpt lat="47.5004" lon="6.75584">
        <ele>368.8</ele>
        <time>2016-12-28T15:32:03.999Z</time>
      </trkpt>
      <trkpt lat="47.50042" lon="6.75588">
        <ele>369</ele>
        <time>2016-12-28T15:32:05.999Z</time>
      </trkpt>
      <trkpt lat="47.50043" lon="6.75591">
        <ele>369.1</ele>
        <time>2016-12-28T15:32:06.999Z</time>
      </trkpt>
      <trkpt lat="47.50045" lon="6.75595">
        <ele>369.5</ele>
        <time>2016-12-28T15:32:08.999Z</time>
      </trkpt>
      <trkpt lat="47.50045" lon="6.75597">
        <ele>369.7</ele>
        <time>2016-12-28T15:32:09.999Z</time>
      </trkpt>
      <trkpt lat="47.50047" lon="6.75602">
        <ele>369.9</ele>
        <time>2016-12-28T15:32:11.999Z</time>
      </trkpt>
      <trkpt lat="47.50048" lon="6.75605">
        <ele>370</ele>
        <time>2016-12-28T15:32:12.999Z</time>
      </trkpt>
      <trkpt lat="47.50049" lon="6.75609">
        <ele>370.1</ele>
        <time>2016-12-28T15:32:14.999Z</time>
      </trkpt>
      <trkpt lat="47.50051" lon="6.75612">
        <ele>370.1</ele>
        <time>2016-12-28T15:32:15.999Z</time>
      </trkpt>
      <trkpt lat="47.50052" lon="6.75616">
        <ele>370</ele>
        <time>2016-12-28T15:32:16.999Z</time>
      </trkpt>
      <trkpt lat="47.50054" lon="6.75619">
        <ele>370.1</ele>
        <time>2016-12-28T15:32:17.999Z</time>
      </trkpt>
      <trkpt lat="47.50056" lon="6.75622">
        <ele>370.1</ele>
        <time>2016-12-28T15:32:19.999Z</time>
      </trkpt>
      <trkpt lat="47.50058" lon="6.75625">
        <ele>370</ele>
        <time>2016-12-28T15:32:20.999Z</time>
      </trkpt>
      <trkpt lat="47.50059" lon="6.75628">
        <ele>370.1</ele>
        <time>2016-12-28T15:32:21.999Z</time>
      </trkpt>
      <trkpt lat="47.50061" lon="6.75631">
        <ele>370.2</ele>
        <time>2016-12-28T15:32:22.999Z</time>
      </trkpt>
      <trkpt lat="47.50063" lon="6.75637">
        <ele>370.5</ele>
        <time>2016-12-28T15:32:24.999Z</time>
      </trkpt>
      <trkpt lat="47.50064" lon="6.75641">
        <ele>370.6</ele>
        <time>2016-12-28T15:32:25.999Z</time>
      </trkpt>
      <trkpt lat="47.50065" lon="6.75644">
        <ele>370.8</ele>
        <time>2016-12-28T15:32:26.999Z</time>
      </trkpt>
      <trkpt lat="47.50066" lon="6.75647">
        <ele>371.1</ele>
        <time>2016-12-28T15:32:27.999Z</time>
      </trkpt>
      <trkpt lat="47.50067" lon="6.75651">
        <ele>371.3</ele>
        <time>2016-12-28T15:32:28.999Z</time>
      </trkpt>
      <trkpt lat="47.50068" lon="6.75654">
        <ele>371.5</ele>
        <time>2016-12-28T15:32:29.999Z</time>
      </trkpt>
      <trkpt lat="47.5007" lon="6.7566">
        <ele>372.2</ele>
        <time>2016-12-28T15:32:32.999Z</time>
      </trkpt>
      <trkpt lat="47.5007" lon="6.75662">
        <ele>372.4</ele>
        <time>2016-12-28T15:32:33.999Z</time>
      </trkpt>
      <trkpt lat="47.50072" lon="6.75667">
        <ele>372.7</ele>
        <time>2016-12-28T15:32:35.999Z</time>
      </trkpt>
      <trkpt lat="47.50073" lon="6.75669">
        <ele>372.9</ele>
        <time>2016-12-28T15:32:36.999Z</time>
      </trkpt>
      <trkpt lat="47.50075" lon="6.75672">
        <ele>373.8</ele>
        <time>2016-12-28T15:32:42.999Z</time>
      </trkpt>
      <trkpt lat="47.50082" lon="6.75679">
        <ele>374.1</ele>
        <time>2016-12-28T15:32:43.999Z</time>
      </trkpt>
      <trkpt lat="47.50085" lon="6.75683">
        <ele>374.5</ele>
        <time>2016-12-28T15:32:45.999Z</time>
      </trkpt>
      <trkpt lat="47.50086" lon="6.75685">
        <ele>374.7</ele>
        <time>2016-12-28T15:32:46.999Z</time>
      </trkpt>
      <trkpt lat="47.50087" lon="6.75688">
        <ele>374.8</ele>
        <time>2016-12-28T15:32:47.999Z</time>
      </trkpt>
      <trkpt lat="47.50088" lon="6.75691">
        <ele>375</ele>
        <time>2016-12-28T15:32:48.999Z</time>
      </trkpt>
      <trkpt lat="47.50091" lon="6.75695">
        <ele>375.3</ele>
        <time>2016-12-28T15:32:50.999Z</time>
      </trkpt>
      <trkpt lat="47.50092" lon="6.75697">
        <ele>375.3</ele>
        <time>2016-12-28T15:32:51.999Z</time>
      </trkpt>
      <trkpt lat="47.50095" lon="6.75701">
        <ele>375.5</ele>
        <time>2016-12-28T15:32:53.999Z</time>
      </trkpt>
      <trkpt lat="47.50097" lon="6.75703">
        <ele>375.4</ele>
        <time>2016-12-28T15:32:54.999Z</time>
      </trkpt>
      <trkpt lat="47.50099" lon="6.75709">
        <ele>375.6</ele>
        <time>2016-12-28T15:32:56.999Z</time>
      </trkpt>
      <trkpt lat="47.501" lon="6.75711">
        <ele>375.6</ele>
        <time>2016-12-28T15:32:57.999Z</time>
      </trkpt>
      <trkpt lat="47.50103" lon="6.75716">
        <ele>375.9</ele>
        <time>2016-12-28T15:32:59.999Z</time>
      </trkpt>
      <trkpt lat="47.50104" lon="6.75717">
        <ele>376.1</ele>
        <time>2016-12-28T15:33:00.999Z</time>
      </trkpt>
      <trkpt lat="47.50106" lon="6.7572">
        <ele>376.5</ele>
        <time>2016-12-28T15:33:02.999Z</time>
      </trkpt>
      <trkpt lat="47.50107" lon="6.75722">
        <ele>376.7</ele>
        <time>2016-12-28T15:33:03.999Z</time>
      </trkpt>
      <trkpt lat="47.5011" lon="6.75725">
        <ele>377</ele>
        <time>2016-12-28T15:33:04.999Z</time>
      </trkpt>
      <trkpt lat="47.50112" lon="6.75726">
        <ele>377.3</ele>
        <time>2016-12-28T15:33:05.999Z</time>
      </trkpt>
      <trkpt lat="47.50114" lon="6.75729">
        <ele>377.9</ele>
        <time>2016-12-28T15:33:07.999Z</time>
      </trkpt>
      <trkpt lat="47.50116" lon="6.7573">
        <ele>378.2</ele>
        <time>2016-12-28T15:33:08.999Z</time>
      </trkpt>
      <trkpt lat="47.50118" lon="6.75733">
        <ele>378.4</ele>
        <time>2016-12-28T15:33:09.999Z</time>
      </trkpt>
      <trkpt lat="47.5012" lon="6.75735">
        <ele>378.7</ele>
        <time>2016-12-28T15:33:10.999Z</time>
      </trkpt>
      <trkpt lat="47.50123" lon="6.75738">
        <ele>379.1</ele>
        <time>2016-12-28T15:33:12.999Z</time>
      </trkpt>
      <trkpt lat="47.50124" lon="6.75739">
        <ele>379.2</ele>
        <time>2016-12-28T15:33:13.999Z</time>
      </trkpt>
      <trkpt lat="47.50126" lon="6.75743">
        <ele>379.6</ele>
        <time>2016-12-28T15:33:15.999Z</time>
      </trkpt>
      <trkpt lat="47.50128" lon="6.75744">
        <ele>379.8</ele>
        <time>2016-12-28T15:33:16.999Z</time>
      </trkpt>
      <trkpt lat="47.5013" lon="6.75747">
        <ele>380.1</ele>
        <time>2016-12-28T15:33:18.999Z</time>
      </trkpt>
      <trkpt lat="47.50132" lon="6.7575">
        <ele>380.3</ele>
        <time>2016-12-28T15:33:19.999Z</time>
      </trkpt>
      <trkpt lat="47.50136" lon="6.75752">
        <ele>380.7</ele>
        <time>2016-12-28T15:33:21.999Z</time>
      </trkpt>
      <trkpt lat="47.50137" lon="6.75754">
        <ele>380.9</ele>
        <time>2016-12-28T15:33:22.999Z</time>
      </trkpt>
      <trkpt lat="47.50139" lon="6.75756">
        <ele>381.1</ele>
        <time>2016-12-28T15:33:23.999Z</time>
      </trkpt>
      <trkpt lat="47.5014" lon="6.75759">
        <ele>381.3</ele>
        <time>2016-12-28T15:33:24.999Z</time>
      </trkpt>
      <trkpt lat="47.50141" lon="6.75762">
        <ele>381.6</ele>
        <time>2016-12-28T15:33:26.999Z</time>
      </trkpt>
      <trkpt lat="47.50143" lon="6.75764">
        <ele>381.8</ele>
        <time>2016-12-28T15:33:27.999Z</time>
      </trkpt>
      <trkpt lat="47.50146" lon="6.75769">
        <ele>382</ele>
        <time>2016-12-28T15:33:30.999Z</time>
      </trkpt>
      <trkpt lat="47.50147" lon="6.75771">
        <ele>382</ele>
        <time>2016-12-28T15:33:31.999Z</time>
      </trkpt>
      <trkpt lat="47.5015" lon="6.75774">
        <ele>382</ele>
        <time>2016-12-28T15:33:33.999Z</time>
      </trkpt>
      <trkpt lat="47.50152" lon="6.75775">
        <ele>382.1</ele>
        <time>2016-12-28T15:33:34.999Z</time>
      </trkpt>
      <trkpt lat="47.50155" lon="6.75778">
        <ele>382.4</ele>
        <time>2016-12-28T15:33:37.999Z</time>
      </trkpt>
      <trkpt lat="47.50156" lon="6.75779">
        <ele>382.5</ele>
        <time>2016-12-28T15:33:38.999Z</time>
      </trkpt>
      <trkpt lat="47.50158" lon="6.75782">
        <ele>382.8</ele>
        <time>2016-12-28T15:33:40.999Z</time>
      </trkpt>
      <trkpt lat="47.50159" lon="6.75784">
        <ele>382.8</ele>
        <time>2016-12-28T15:33:41.999Z</time>
      </trkpt>
      <trkpt lat="47.50161" lon="6.75789">
        <ele>383.2</ele>
        <time>2016-12-28T15:33:43.999Z</time>
      </trkpt>
      <trkpt lat="47.50162" lon="6.75791">
        <ele>383.3</ele>
        <time>2016-12-28T15:33:44.999Z</time>
      </trkpt>
      <trkpt lat="47.50164" lon="6.75796">
        <ele>383.8</ele>
        <time>2016-12-28T15:33:46.999Z</time>
      </trkpt>
      <trkpt lat="47.50165" lon="6.75798">
        <ele>384</ele>
        <time>2016-12-28T15:33:47.999Z</time>
      </trkpt>
      <trkpt lat="47.50167" lon="6.75802">
        <ele>384.4</ele>
        <time>2016-12-28T15:33:49.999Z</time>
      </trkpt>
      <trkpt lat="47.50168" lon="6.75804">
        <ele>384.5</ele>
        <time>2016-12-28T15:33:50.999Z</time>
      </trkpt>
      <trkpt lat="47.5017" lon="6.75808">
        <ele>384.8</ele>
        <time>2016-12-28T15:33:52.999Z</time>
      </trkpt>
      <trkpt lat="47.50172" lon="6.75811">
        <ele>384.9</ele>
        <time>2016-12-28T15:33:53.999Z</time>
      </trkpt>
      <trkpt lat="47.50173" lon="6.75815">
        <ele>385.2</ele>
        <time>2016-12-28T15:33:55.999Z</time>
      </trkpt>
      <trkpt lat="47.50175" lon="6.75817">
        <ele>385.3</ele>
        <time>2016-12-28T15:33:56.999Z</time>
      </trkpt>
      <trkpt lat="47.50177" lon="6.75822">
        <ele>385.5</ele>
        <time>2016-12-28T15:33:58.999Z</time>
      </trkpt>
      <trkpt lat="47.50178" lon="6.75824">
        <ele>385.7</ele>
        <time>2016-12-28T15:33:59.999Z</time>
      </trkpt>
      <trkpt lat="47.50181" lon="6.75827">
        <ele>386.1</ele>
        <time>2016-12-28T15:34:01.999Z</time>
      </trkpt>
      <trkpt lat="47.50182" lon="6.75829">
        <ele>386.2</ele>
        <time>2016-12-28T15:34:02.999Z</time>
      </trkpt>
      <trkpt lat="47.50185" lon="6.75834">
        <ele>386.5</ele>
        <time>2016-12-28T15:34:04.999Z</time>
      </trkpt>
      <trkpt lat="47.50185" lon="6.75836">
        <ele>386.7</ele>
        <time>2016-12-28T15:34:05.999Z</time>
      </trkpt>
      <trkpt lat="47.50187" lon="6.7584">
        <ele>386.9</ele>
        <time>2016-12-28T15:34:07.999Z</time>
      </trkpt>
      <trkpt lat="47.50188" lon="6.75842">
        <ele>387</ele>
        <time>2016-12-28T15:34:08.999Z</time>
      </trkpt>
      <trkpt lat="47.5019" lon="6.75846">
        <ele>387.3</ele>
        <time>2016-12-28T15:34:10.999Z</time>
      </trkpt>
      <trkpt lat="47.50191" lon="6.75848">
        <ele>387.5</ele>
        <time>2016-12-28T15:34:11.999Z</time>
      </trkpt>
      <trkpt lat="47.50194" lon="6.75852">
        <ele>387.7</ele>
        <time>2016-12-28T15:34:13.999Z</time>
      </trkpt>
      <trkpt lat="47.50195" lon="6.75854">
        <ele>387.9</ele>
        <time>2016-12-28T15:34:14.999Z</time>
      </trkpt>
      <trkpt lat="47.50197" lon="6.75858">
        <ele>388.3</ele>
        <time>2016-12-28T15:34:16.999Z</time>
      </trkpt>
      <trkpt lat="47.50198" lon="6.7586">
        <ele>388.4</ele>
        <time>2016-12-28T15:34:17.999Z</time>
      </trkpt>
      <trkpt lat="47.50199" lon="6.75865">
        <ele>388.7</ele>
        <time>2016-12-28T15:34:19.999Z</time>
      </trkpt>
      <trkpt lat="47.502" lon="6.75867">
        <ele>388.9</ele>
        <time>2016-12-28T15:34:20.999Z</time>
      </trkpt>
      <trkpt lat="47.50202" lon="6.75872">
        <ele>389.1</ele>
        <time>2016-12-28T15:34:22.999Z</time>
      </trkpt>
      <trkpt lat="47.50203" lon="6.75874">
        <ele>389.3</ele>
        <time>2016-12-28T15:34:23.999Z</time>
      </trkpt>
      <trkpt lat="47.50205" lon="6.75878">
        <ele>389.7</ele>
        <time>2016-12-28T15:34:25.999Z</time>
      </trkpt>
      <trkpt lat="47.50206" lon="6.7588">
        <ele>389.8</ele>
        <time>2016-12-28T15:34:26.999Z</time>
      </trkpt>
      <trkpt lat="47.50207" lon="6.75884">
        <ele>390.3</ele>
        <time>2016-12-28T15:34:28.999Z</time>
      </trkpt>
      <trkpt lat="47.50207" lon="6.75887">
        <ele>390.5</ele>
        <time>2016-12-28T15:34:29.999Z</time>
      </trkpt>
      <trkpt lat="47.50207" lon="6.7589">
        <ele>391.3</ele>
        <time>2016-12-28T15:34:33.999Z</time>
      </trkpt>
      <trkpt lat="47.5021" lon="6.75901">
        <ele>391.5</ele>
        <time>2016-12-28T15:34:34.999Z</time>
      </trkpt>
      <trkpt lat="47.50211" lon="6.75906">
        <ele>391.8</ele>
        <time>2016-12-28T15:34:36.999Z</time>
      </trkpt>
      <trkpt lat="47.50212" lon="6.75908">
        <ele>392</ele>
        <time>2016-12-28T15:34:37.999Z</time>
      </trkpt>
      <trkpt lat="47.50213" lon="6.75912">
        <ele>392.5</ele>
        <time>2016-12-28T15:34:39.999Z</time>
      </trkpt>
      <trkpt lat="47.50213" lon="6.75914">
        <ele>392.6</ele>
        <time>2016-12-28T15:34:40.999Z</time>
      </trkpt>
      <trkpt lat="47.50214" lon="6.7592">
        <ele>393</ele>
        <time>2016-12-28T15:34:42.999Z</time>
      </trkpt>
      <trkpt lat="47.50215" lon="6.75923">
        <ele>393.2</ele>
        <time>2016-12-28T15:34:43.999Z</time>
      </trkpt>
      <trkpt lat="47.50217" lon="6.75928">
        <ele>393.7</ele>
        <time>2016-12-28T15:34:45.999Z</time>
      </trkpt>
      <trkpt lat="47.50217" lon="6.75929">
        <ele>393.9</ele>
        <time>2016-12-28T15:34:46.999Z</time>
      </trkpt>
      <trkpt lat="47.50218" lon="6.75934">
        <ele>394.5</ele>
        <time>2016-12-28T15:34:48.999Z</time>
      </trkpt>
      <trkpt lat="47.50219" lon="6.75936">
        <ele>394.7</ele>
        <time>2016-12-28T15:34:49.999Z</time>
      </trkpt>
      <trkpt lat="47.5022" lon="6.75941">
        <ele>394.9</ele>
        <time>2016-12-28T15:34:51.999Z</time>
      </trkpt>
      <trkpt lat="47.50221" lon="6.75943">
        <ele>395</ele>
        <time>2016-12-28T15:34:52.999Z</time>
      </trkpt>
      <trkpt lat="47.50223" lon="6.75948">
        <ele>395.5</ele>
        <time>2016-12-28T15:34:55.999Z</time>
      </trkpt>
      <trkpt lat="47.50223" lon="6.7595">
        <ele>395.7</ele>
        <time>2016-12-28T15:34:56.999Z</time>
      </trkpt>
      <trkpt lat="47.50222" lon="6.75955">
        <ele>396.1</ele>
        <time>2016-12-28T15:34:58.999Z</time>
      </trkpt>
      <trkpt lat="47.50222" lon="6.75958">
        <ele>396.3</ele>
        <time>2016-12-28T15:34:59.999Z</time>
      </trkpt>
      <trkpt lat="47.50223" lon="6.75964">
        <ele>396.9</ele>
        <time>2016-12-28T15:35:02.999Z</time>
      </trkpt>
      <trkpt lat="47.50225" lon="6.75965">
        <ele>397.1</ele>
        <time>2016-12-28T15:35:03.999Z</time>
      </trkpt>
      <trkpt lat="47.50227" lon="6.75969">
        <ele>397.5</ele>
        <time>2016-12-28T15:35:05.999Z</time>
      </trkpt>
      <trkpt lat="47.50227" lon="6.75971">
        <ele>397.7</ele>
        <time>2016-12-28T15:35:06.999Z</time>
      </trkpt>
      <trkpt lat="47.50229" lon="6.75976">
        <ele>398.4</ele>
        <time>2016-12-28T15:35:09.999Z</time>
      </trkpt>
      <trkpt lat="47.5023" lon="6.75978">
        <ele>398.6</ele>
        <time>2016-12-28T15:35:10.999Z</time>
      </trkpt>
      <trkpt lat="47.50231" lon="6.75983">
        <ele>399</ele>
        <time>2016-12-28T15:35:13.999Z</time>
      </trkpt>
      <trkpt lat="47.50232" lon="6.75985">
        <ele>399.2</ele>
        <time>2016-12-28T15:35:14.999Z</time>
      </trkpt>
      <trkpt lat="47.50234" lon="6.7599">
        <ele>400</ele>
        <time>2016-12-28T15:35:17.999Z</time>
      </trkpt>
      <trkpt lat="47.50234" lon="6.75991">
        <ele>400.2</ele>
        <time>2016-12-28T15:35:18.999Z</time>
      </trkpt>
      <trkpt lat="47.50233" lon="6.75997">
        <ele>400.8</ele>
        <time>2016-12-28T15:35:23.999Z</time>
      </trkpt>
      <trkpt lat="47.50233" lon="6.75998">
        <ele>400.9</ele>
        <time>2016-12-28T15:35:24.999Z</time>
      </trkpt>
      <trkpt lat="47.5023" lon="6.75998">
        <ele>401</ele>
        <time>2016-12-28T15:35:28.999Z</time>
      </trkpt>
      <trkpt lat="47.50228" lon="6.75999">
        <ele>401.1</ele>
        <time>2016-12-28T15:35:29.999Z</time>
      </trkpt>
      <trkpt lat="47.50224" lon="6.76001">
        <ele>401.1</ele>
        <time>2016-12-28T15:35:34.999Z</time>
      </trkpt>
      <trkpt lat="47.50223" lon="6.76001">
        <ele>401.2</ele>
        <time>2016-12-28T15:35:35.999Z</time>
      </trkpt>
      <trkpt lat="47.50219" lon="6.76002">
        <ele>401.2</ele>
        <time>2016-12-28T15:35:39.999Z</time>
      </trkpt>
      <trkpt lat="47.50218" lon="6.76003">
        <ele>401.1</ele>
        <time>2016-12-28T15:35:40.999Z</time>
      </trkpt>
      <trkpt lat="47.50214" lon="6.76006">
        <ele>400.9</ele>
        <time>2016-12-28T15:35:43.999Z</time>
      </trkpt>
      <trkpt lat="47.50213" lon="6.76007">
        <ele>400.8</ele>
        <time>2016-12-28T15:35:44.999Z</time>
      </trkpt>
      <trkpt lat="47.50209" lon="6.7601">
        <ele>400.7</ele>
        <time>2016-12-28T15:35:48.999Z</time>
      </trkpt>
      <trkpt lat="47.50209" lon="6.7601">
        <ele>400.6</ele>
        <time>2016-12-28T15:35:49.999Z</time>
      </trkpt>
      <trkpt lat="47.50204" lon="6.76009">
        <ele>401.3</ele>
        <time>2016-12-28T15:35:55.999Z</time>
      </trkpt>
      <trkpt lat="47.50203" lon="6.76009">
        <ele>401.5</ele>
        <time>2016-12-28T15:35:56.999Z</time>
      </trkpt>
      <trkpt lat="47.50199" lon="6.76008">
        <ele>402.9</ele>
        <time>2016-12-28T15:36:02.999Z</time>
      </trkpt>
      <trkpt lat="47.50198" lon="6.76009">
        <ele>403.1</ele>
        <time>2016-12-28T15:36:03.999Z</time>
      </trkpt>
      <trkpt lat="47.50195" lon="6.76009">
        <ele>404.2</ele>
        <time>2016-12-28T15:36:07.999Z</time>
      </trkpt>
      <trkpt lat="47.50194" lon="6.76009">
        <ele>404.4</ele>
        <time>2016-12-28T15:36:08.999Z</time>
      </trkpt>
      <trkpt lat="47.50191" lon="6.76011">
        <ele>404.8</ele>
        <time>2016-12-28T15:36:11.999Z</time>
      </trkpt>
      <trkpt lat="47.50189" lon="6.76011">
        <ele>404.9</ele>
        <time>2016-12-28T15:36:12.999Z</time>
      </trkpt>
      <trkpt lat="47.50185" lon="6.76014">
        <ele>405.4</ele>
        <time>2016-12-28T15:36:15.999Z</time>
      </trkpt>
      <trkpt lat="47.50184" lon="6.76014">
        <ele>405.5</ele>
        <time>2016-12-28T15:36:16.999Z</time>
      </trkpt>
      <trkpt lat="47.5018" lon="6.76015">
        <ele>407.2</ele>
        <time>2016-12-28T15:36:21.999Z</time>
      </trkpt>
      <trkpt lat="47.50179" lon="6.76015">
        <ele>407.5</ele>
        <time>2016-12-28T15:36:22.999Z</time>
      </trkpt>
      <trkpt lat="47.50175" lon="6.76018">
        <ele>408.5</ele>
        <time>2016-12-28T15:36:28.999Z</time>
      </trkpt>
      <trkpt lat="47.50175" lon="6.76018">
        <ele>408.6</ele>
        <time>2016-12-28T15:36:29.999Z</time>
      </trkpt>
      <trkpt lat="47.5017" lon="6.76019">
        <ele>408.9</ele>
        <time>2016-12-28T15:36:33.999Z</time>
      </trkpt>
      <trkpt lat="47.50169" lon="6.7602">
        <ele>409</ele>
        <time>2016-12-28T15:36:34.999Z</time>
      </trkpt>
      <trkpt lat="47.50165" lon="6.7602">
        <ele>408.9</ele>
        <time>2016-12-28T15:36:36.999Z</time>
      </trkpt>
      <trkpt lat="47.50163" lon="6.7602">
        <ele>409</ele>
        <time>2016-12-28T15:36:37.999Z</time>
      </trkpt>
      <trkpt lat="47.50159" lon="6.76022">
        <ele>409.5</ele>
        <time>2016-12-28T15:36:43.999Z</time>
      </trkpt>
      <trkpt lat="47.50158" lon="6.76022">
        <ele>409.6</ele>
        <time>2016-12-28T15:36:44.999Z</time>
      </trkpt>
      <trkpt lat="47.50154" lon="6.76021">
        <ele>410.4</ele>
        <time>2016-12-28T15:36:51.999Z</time>
      </trkpt>
      <trkpt lat="47.50153" lon="6.76022">
        <ele>410.6</ele>
        <time>2016-12-28T15:36:52.999Z</time>
      </trkpt>
      <trkpt lat="47.50149" lon="6.76023">
        <ele>410.9</ele>
        <time>2016-12-28T15:36:55.999Z</time>
      </trkpt>
      <trkpt lat="47.50147" lon="6.76024">
        <ele>410.9</ele>
        <time>2016-12-28T15:36:56.999Z</time>
      </trkpt>
      <trkpt lat="47.50144" lon="6.76027">
        <ele>410.9</ele>
        <time>2016-12-28T15:36:58.999Z</time>
      </trkpt>
      <trkpt lat="47.50143" lon="6.76028">
        <ele>410.7</ele>
        <time>2016-12-28T15:36:59.999Z</time>
      </trkpt>
      <trkpt lat="47.50139" lon="6.7603">
        <ele>410.5</ele>
        <time>2016-12-28T15:37:03.999Z</time>
      </trkpt>
      <trkpt lat="47.50138" lon="6.7603">
        <ele>410.6</ele>
        <time>2016-12-28T15:37:04.999Z</time>
      </trkpt>
      <trkpt lat="47.50134" lon="6.7603">
        <ele>410.7</ele>
        <time>2016-12-28T15:37:08.999Z</time>
      </trkpt>
      <trkpt lat="47.50133" lon="6.7603">
        <ele>410.7</ele>
        <time>2016-12-28T15:37:09.999Z</time>
      </trkpt>
      <trkpt lat="47.50129" lon="6.76032">
        <ele>410.8</ele>
        <time>2016-12-28T15:37:13.999Z</time>
      </trkpt>
      <trkpt lat="47.50128" lon="6.76032">
        <ele>410.9</ele>
        <time>2016-12-28T15:37:14.999Z</time>
      </trkpt>
      <trkpt lat="47.50124" lon="6.76033">
        <ele>411.7</ele>
        <time>2016-12-28T15:37:19.999Z</time>
      </trkpt>
      <trkpt lat="47.50123" lon="6.76033">
        <ele>411.9</ele>
        <time>2016-12-28T15:37:20.999Z</time>
      </trkpt>
      <trkpt lat="47.50119" lon="6.76033">
        <ele>412.6</ele>
        <time>2016-12-28T15:37:24.999Z</time>
      </trkpt>
      <trkpt lat="47.50117" lon="6.76034">
        <ele>412.7</ele>
        <time>2016-12-28T15:37:25.999Z</time>
      </trkpt>
      <trkpt lat="47.50113" lon="6.76036">
        <ele>413.3</ele>
        <time>2016-12-28T15:37:29.999Z</time>
      </trkpt>
      <trkpt lat="47.50112" lon="6.76037">
        <ele>413.3</ele>
        <time>2016-12-28T15:37:30.999Z</time>
      </trkpt>
      <trkpt lat="47.50109" lon="6.76039">
        <ele>413.6</ele>
        <time>2016-12-28T15:37:33.999Z</time>
      </trkpt>
      <trkpt lat="47.50108" lon="6.7604">
        <ele>413.7</ele>
        <time>2016-12-28T15:37:34.999Z</time>
      </trkpt>
      <trkpt lat="47.50105" lon="6.76043">
        <ele>413.9</ele>
        <time>2016-12-28T15:37:37.999Z</time>
      </trkpt>
      <trkpt lat="47.50104" lon="6.76045">
        <ele>414.1</ele>
        <time>2016-12-28T15:37:38.999Z</time>
      </trkpt>
      <trkpt lat="47.50103" lon="6.76051">
        <ele>414.5</ele>
        <time>2016-12-28T15:37:42.999Z</time>
      </trkpt>
      <trkpt lat="47.50103" lon="6.76053">
        <ele>414.6</ele>
        <time>2016-12-28T15:37:43.999Z</time>
      </trkpt>
      <trkpt lat="47.50103" lon="6.76058">
        <ele>415.1</ele>
        <time>2016-12-28T15:37:46.999Z</time>
      </trkpt>
      <trkpt lat="47.50104" lon="6.76061">
        <ele>415.3</ele>
        <time>2016-12-28T15:37:47.999Z</time>
      </trkpt>
      <trkpt lat="47.50106" lon="6.76065">
        <ele>415.7</ele>
        <time>2016-12-28T15:37:49.999Z</time>
      </trkpt>
      <trkpt lat="47.50106" lon="6.76068">
        <ele>415.9</ele>
        <time>2016-12-28T15:37:50.999Z</time>
      </trkpt>
      <trkpt lat="47.50107" lon="6.76073">
        <ele>416.5</ele>
        <time>2016-12-28T15:37:52.999Z</time>
      </trkpt>
      <trkpt lat="47.50107" lon="6.76076">
        <ele>416.8</ele>
        <time>2016-12-28T15:37:53.999Z</time>
      </trkpt>
      <trkpt lat="47.5011" lon="6.7608">
        <ele>418</ele>
        <time>2016-12-28T15:37:56.999Z</time>
      </trkpt>
      <trkpt lat="47.50111" lon="6.76081">
        <ele>418.4</ele>
        <time>2016-12-28T15:37:57.999Z</time>
      </trkpt>
      <trkpt lat="47.50112" lon="6.76085">
        <ele>418.6</ele>
        <time>2016-12-28T15:37:58.999Z</time>
      </trkpt>
      <trkpt lat="47.50112" lon="6.7609">
        <ele>418.9</ele>
        <time>2016-12-28T15:37:59.999Z</time>
      </trkpt>
      <trkpt lat="47.50111" lon="6.76096">
        <ele>419.2</ele>
        <time>2016-12-28T15:38:01.999Z</time>
      </trkpt>
      <trkpt lat="47.50111" lon="6.76098">
        <ele>419.4</ele>
        <time>2016-12-28T15:38:02.999Z</time>
      </trkpt>
      <trkpt lat="47.50111" lon="6.76104">
        <ele>420.1</ele>
        <time>2016-12-28T15:38:06.000Z</time>
      </trkpt>
      <trkpt lat="47.50111" lon="6.76105">
        <ele>420.3</ele>
        <time>2016-12-28T15:38:07.000Z</time>
      </trkpt>
      <trkpt lat="47.50113" lon="6.7611">
        <ele>420.8</ele>
        <time>2016-12-28T15:38:10.000Z</time>
      </trkpt>
      <trkpt lat="47.50114" lon="6.76113">
        <ele>420.9</ele>
        <time>2016-12-28T15:38:11.000Z</time>
      </trkpt>
      <trkpt lat="47.50115" lon="6.76118">
        <ele>421.2</ele>
        <time>2016-12-28T15:38:13.000Z</time>
      </trkpt>
      <trkpt lat="47.50116" lon="6.76121">
        <ele>421.4</ele>
        <time>2016-12-28T15:38:14.000Z</time>
      </trkpt>
      <trkpt lat="47.50117" lon="6.76126">
        <ele>421.6</ele>
        <time>2016-12-28T15:38:17.000Z</time>
      </trkpt>
      <trkpt lat="47.50118" lon="6.76127">
        <ele>421.8</ele>
        <time>2016-12-28T15:38:18.000Z</time>
      </trkpt>
      <trkpt lat="47.5012" lon="6.76131">
        <ele>422.3</ele>
        <time>2016-12-28T15:38:20.000Z</time>
      </trkpt>
      <trkpt lat="47.50122" lon="6.76134">
        <ele>422.5</ele>
        <time>2016-12-28T15:38:21.000Z</time>
      </trkpt>
      <trkpt lat="47.50124" lon="6.76137">
        <ele>422.9</ele>
        <time>2016-12-28T15:38:25.000Z</time>
      </trkpt>
      <trkpt lat="47.50126" lon="6.7614">
        <ele>423.1</ele>
        <time>2016-12-28T15:38:26.000Z</time>
      </trkpt>
      <trkpt lat="47.50127" lon="6.76147">
        <ele>423.5</ele>
        <time>2016-12-28T15:38:28.000Z</time>
      </trkpt>
      <trkpt lat="47.50129" lon="6.76155">
        <ele>423.7</ele>
        <time>2016-12-28T15:38:29.000Z</time>
      </trkpt>
      <trkpt lat="47.50129" lon="6.76159">
        <ele>423.8</ele>
        <time>2016-12-28T15:38:30.000Z</time>
      </trkpt>
      <trkpt lat="47.5013" lon="6.76165">
        <ele>423.8</ele>
        <time>2016-12-28T15:38:31.000Z</time>
      </trkpt>
      <trkpt lat="47.5013" lon="6.7617">
        <ele>423.9</ele>
        <time>2016-12-28T15:38:33.000Z</time>
      </trkpt>
      <trkpt lat="47.50131" lon="6.76174">
        <ele>424</ele>
        <time>2016-12-28T15:38:34.000Z</time>
      </trkpt>
      <trkpt lat="47.50132" lon="6.7618">
        <ele>424.1</ele>
        <time>2016-12-28T15:38:36.000Z</time>
      </trkpt>
      <trkpt lat="47.50133" lon="6.76183">
        <ele>424.2</ele>
        <time>2016-12-28T15:38:37.000Z</time>
      </trkpt>
      <trkpt lat="47.50134" lon="6.76187">
        <ele>424.5</ele>
        <time>2016-12-28T15:38:40.000Z</time>
      </trkpt>
      <trkpt lat="47.50135" lon="6.76192">
        <ele>424.6</ele>
        <time>2016-12-28T15:38:41.000Z</time>
      </trkpt>
      <trkpt lat="47.50137" lon="6.76196">
        <ele>424.8</ele>
        <time>2016-12-28T15:38:42.000Z</time>
      </trkpt>
      <trkpt lat="47.50138" lon="6.762">
        <ele>425</ele>
        <time>2016-12-28T15:38:43.000Z</time>
      </trkpt>
      <trkpt lat="47.50137" lon="6.76206">
        <ele>425.4</ele>
        <time>2016-12-28T15:38:45.000Z</time>
      </trkpt>
      <trkpt lat="47.50137" lon="6.7621">
        <ele>425.6</ele>
        <time>2016-12-28T15:38:46.000Z</time>
      </trkpt>
      <trkpt lat="47.50138" lon="6.76215">
        <ele>425.9</ele>
        <time>2016-12-28T15:38:48.000Z</time>
      </trkpt>
      <trkpt lat="47.50139" lon="6.76217">
        <ele>426.1</ele>
        <time>2016-12-28T15:38:49.000Z</time>
      </trkpt>
      <trkpt lat="47.5014" lon="6.7622">
        <ele>426.3</ele>
        <time>2016-12-28T15:38:51.000Z</time>
      </trkpt>
      <trkpt lat="47.5014" lon="6.76224">
        <ele>426.3</ele>
        <time>2016-12-28T15:38:52.000Z</time>
      </trkpt>
      <trkpt lat="47.50141" lon="6.76227">
        <ele>426.2</ele>
        <time>2016-12-28T15:38:53.000Z</time>
      </trkpt>
      <trkpt lat="47.50142" lon="6.76231">
        <ele>426.1</ele>
        <time>2016-12-28T15:38:54.000Z</time>
      </trkpt>
      <trkpt lat="47.50143" lon="6.76236">
        <ele>425.8</ele>
        <time>2016-12-28T15:38:58.000Z</time>
      </trkpt>
      <trkpt lat="47.50145" lon="6.76241">
        <ele>425.6</ele>
        <time>2016-12-28T15:38:59.000Z</time>
      </trkpt>
      <trkpt lat="47.50146" lon="6.76246">
        <ele>425.4</ele>
        <time>2016-12-28T15:39:00.000Z</time>
      </trkpt>
      <trkpt lat="47.50146" lon="6.7625">
        <ele>425.2</ele>
        <time>2016-12-28T15:39:01.000Z</time>
      </trkpt>
      <trkpt lat="47.50146" lon="6.76254">
        <ele>424.9</ele>
        <time>2016-12-28T15:39:02.000Z</time>
      </trkpt>
      <trkpt lat="47.50146" lon="6.76258">
        <ele>424.6</ele>
        <time>2016-12-28T15:39:03.000Z</time>
      </trkpt>
      <trkpt lat="47.50146" lon="6.76263">
        <ele>424.3</ele>
        <time>2016-12-28T15:39:04.000Z</time>
      </trkpt>
      <trkpt lat="47.50146" lon="6.76266">
        <ele>423.9</ele>
        <time>2016-12-28T15:39:05.000Z</time>
      </trkpt>
      <trkpt lat="47.50145" lon="6.76271">
        <ele>422.7</ele>
        <time>2016-12-28T15:39:08.000Z</time>
      </trkpt>
      <trkpt lat="47.50146" lon="6.76275">
        <ele>422.3</ele>
        <time>2016-12-28T15:39:09.000Z</time>
      </trkpt>
      <trkpt lat="47.50148" lon="6.7628">
        <ele>421.3</ele>
        <time>2016-12-28T15:39:12.000Z</time>
      </trkpt>
      <trkpt lat="47.50148" lon="6.76282">
        <ele>420.9</ele>
        <time>2016-12-28T15:39:13.000Z</time>
      </trkpt>
      <trkpt lat="47.50149" lon="6.76285">
        <ele>420.6</ele>
        <time>2016-12-28T15:39:14.000Z</time>
      </trkpt>
      <trkpt lat="47.50149" lon="6.76289">
        <ele>420.2</ele>
        <time>2016-12-28T15:39:15.000Z</time>
      </trkpt>
      <trkpt lat="47.5015" lon="6.76295">
        <ele>419.3</ele>
        <time>2016-12-28T15:39:18.000Z</time>
      </trkpt>
      <trkpt lat="47.50151" lon="6.76295">
        <ele>418.9</ele>
        <time>2016-12-28T15:39:19.000Z</time>
      </trkpt>
      <trkpt lat="47.50152" lon="6.76299">
        <ele>418.5</ele>
        <time>2016-12-28T15:39:21.000Z</time>
      </trkpt>
      <trkpt lat="47.50152" lon="6.76302">
        <ele>418.4</ele>
        <time>2016-12-28T15:39:22.000Z</time>
      </trkpt>
      <trkpt lat="47.50153" lon="6.76309">
        <ele>418.6</ele>
        <time>2016-12-28T15:39:23.000Z</time>
      </trkpt>
      <trkpt lat="47.50154" lon="6.76316">
        <ele>418.9</ele>
        <time>2016-12-28T15:39:24.000Z</time>
      </trkpt>
      <trkpt lat="47.50154" lon="6.7632">
        <ele>419.1</ele>
        <time>2016-12-28T15:39:25.000Z</time>
      </trkpt>
      <trkpt lat="47.50155" lon="6.76325">
        <ele>419.3</ele>
        <time>2016-12-28T15:39:26.000Z</time>
      </trkpt>
      <trkpt lat="47.50157" lon="6.76329">
        <ele>419.4</ele>
        <time>2016-12-28T15:39:27.000Z</time>
      </trkpt>
      <trkpt lat="47.50158" lon="6.76333">
        <ele>419.5</ele>
        <time>2016-12-28T15:39:28.000Z</time>
      </trkpt>
      <trkpt lat="47.50159" lon="6.76337">
        <ele>419.6</ele>
        <time>2016-12-28T15:39:29.000Z</time>
      </trkpt>
      <trkpt lat="47.5016" lon="6.76341">
        <ele>419.8</ele>
        <time>2016-12-28T15:39:30.000Z</time>
      </trkpt>
      <trkpt lat="47.50161" lon="6.76344">
        <ele>419.8</ele>
        <time>2016-12-28T15:39:31.000Z</time>
      </trkpt>
      <trkpt lat="47.50162" lon="6.76348">
        <ele>419.8</ele>
        <time>2016-12-28T15:39:32.000Z</time>
      </trkpt>
      <trkpt lat="47.50162" lon="6.76352">
        <ele>419.7</ele>
        <time>2016-12-28T15:39:33.000Z</time>
      </trkpt>
      <trkpt lat="47.50163" lon="6.76355">
        <ele>419.7</ele>
        <time>2016-12-28T15:39:34.000Z</time>
      </trkpt>
      <trkpt lat="47.50166" lon="6.76361">
        <ele>419.6</ele>
        <time>2016-12-28T15:39:35.000Z</time>
      </trkpt>
      <trkpt lat="47.50167" lon="6.76364">
        <ele>419.6</ele>
        <time>2016-12-28T15:39:36.000Z</time>
      </trkpt>
      <trkpt lat="47.50169" lon="6.76367">
        <ele>419.6</ele>
        <time>2016-12-28T15:39:37.000Z</time>
      </trkpt>
      <trkpt lat="47.50171" lon="6.76371">
        <ele>419.5</ele>
        <time>2016-12-28T15:39:38.000Z</time>
      </trkpt>
      <trkpt lat="47.50172" lon="6.76374">
        <ele>419.5</ele>
        <time>2016-12-28T15:39:39.000Z</time>
      </trkpt>
      <trkpt lat="47.50173" lon="6.76377">
        <ele>419.6</ele>
        <time>2016-12-28T15:39:40.000Z</time>
      </trkpt>
      <trkpt lat="47.50175" lon="6.7638">
        <ele>419.6</ele>
        <time>2016-12-28T15:39:41.000Z</time>
      </trkpt>
      <trkpt lat="47.50176" lon="6.76382">
        <ele>419.5</ele>
        <time>2016-12-28T15:39:42.000Z</time>
      </trkpt>
      <trkpt lat="47.50177" lon="6.76385">
        <ele>419.4</ele>
        <time>2016-12-28T15:39:43.000Z</time>
      </trkpt>
      <trkpt lat="47.50179" lon="6.76391">
        <ele>419</ele>
        <time>2016-12-28T15:39:46.000Z</time>
      </trkpt>
      <trkpt lat="47.50179" lon="6.76393">
        <ele>418.8</ele>
        <time>2016-12-28T15:39:47.000Z</time>
      </trkpt>
      <trkpt lat="47.50182" lon="6.76398">
        <ele>418.2</ele>
        <time>2016-12-28T15:39:50.000Z</time>
      </trkpt>
      <trkpt lat="47.50184" lon="6.76401">
        <ele>418.1</ele>
        <time>2016-12-28T15:39:51.000Z</time>
      </trkpt>
      <trkpt lat="47.50186" lon="6.76406">
        <ele>418</ele>
        <time>2016-12-28T15:39:52.000Z</time>
      </trkpt>
      <trkpt lat="47.50188" lon="6.76409">
        <ele>417.9</ele>
        <time>2016-12-28T15:39:53.000Z</time>
      </trkpt>
      <trkpt lat="47.50189" lon="6.76413">
        <ele>417.8</ele>
        <time>2016-12-28T15:39:54.000Z</time>
      </trkpt>
      <trkpt lat="47.5019" lon="6.76416">
        <ele>417.7</ele>
        <time>2016-12-28T15:39:55.000Z</time>
      </trkpt>
      <trkpt lat="47.50192" lon="6.7642">
        <ele>417.6</ele>
        <time>2016-12-28T15:39:56.000Z</time>
      </trkpt>
      <trkpt lat="47.50193" lon="6.76425">
        <ele>417.4</ele>
        <time>2016-12-28T15:39:57.000Z</time>
      </trkpt>
      <trkpt lat="47.50194" lon="6.76431">
        <ele>417.1</ele>
        <time>2016-12-28T15:39:58.000Z</time>
      </trkpt>
      <trkpt lat="47.50195" lon="6.76435">
        <ele>416.8</ele>
        <time>2016-12-28T15:39:59.000Z</time>
      </trkpt>
      <trkpt lat="47.50196" lon="6.76439">
        <ele>416.6</ele>
        <time>2016-12-28T15:40:00.000Z</time>
      </trkpt>
      <trkpt lat="47.50197" lon="6.76445">
        <ele>416.1</ele>
        <time>2016-12-28T15:40:02.000Z</time>
      </trkpt>
      <trkpt lat="47.50198" lon="6.76449">
        <ele>415.9</ele>
        <time>2016-12-28T15:40:03.000Z</time>
      </trkpt>
      <trkpt lat="47.50199" lon="6.76452">
        <ele>415.8</ele>
        <time>2016-12-28T15:40:04.000Z</time>
      </trkpt>
      <trkpt lat="47.50199" lon="6.76456">
        <ele>415.6</ele>
        <time>2016-12-28T15:40:05.000Z</time>
      </trkpt>
      <trkpt lat="47.502" lon="6.76462">
        <ele>415.3</ele>
        <time>2016-12-28T15:40:06.000Z</time>
      </trkpt>
      <trkpt lat="47.50201" lon="6.76465">
        <ele>414.9</ele>
        <time>2016-12-28T15:40:07.000Z</time>
      </trkpt>
      <trkpt lat="47.50201" lon="6.76469">
        <ele>414.5</ele>
        <time>2016-12-28T15:40:08.000Z</time>
      </trkpt>
      <trkpt lat="47.50202" lon="6.76472">
        <ele>414.3</ele>
        <time>2016-12-28T15:40:09.000Z</time>
      </trkpt>
      <trkpt lat="47.50204" lon="6.76478">
        <ele>414</ele>
        <time>2016-12-28T15:40:11.000Z</time>
      </trkpt>
      <trkpt lat="47.50204" lon="6.76481">
        <ele>413.9</ele>
        <time>2016-12-28T15:40:12.000Z</time>
      </trkpt>
      <trkpt lat="47.50205" lon="6.76487">
        <ele>413.5</ele>
        <time>2016-12-28T15:40:15.000Z</time>
      </trkpt>
      <trkpt lat="47.50206" lon="6.7649">
        <ele>413.4</ele>
        <time>2016-12-28T15:40:16.000Z</time>
      </trkpt>
      <trkpt lat="47.50208" lon="6.76495">
        <ele>413.4</ele>
        <time>2016-12-28T15:40:17.000Z</time>
      </trkpt>
      <trkpt lat="47.50211" lon="6.765">
        <ele>413.3</ele>
        <time>2016-12-28T15:40:19.000Z</time>
      </trkpt>
      <trkpt lat="47.50212" lon="6.76502">
        <ele>413.3</ele>
        <time>2016-12-28T15:40:20.000Z</time>
      </trkpt>
      <trkpt lat="47.50214" lon="6.76507">
        <ele>413.4</ele>
        <time>2016-12-28T15:40:22.000Z</time>
      </trkpt>
      <trkpt lat="47.50214" lon="6.7651">
        <ele>413.5</ele>
        <time>2016-12-28T15:40:23.000Z</time>
      </trkpt>
      <trkpt lat="47.50215" lon="6.76515">
        <ele>413.5</ele>
        <time>2016-12-28T15:40:26.000Z</time>
      </trkpt>
      <trkpt lat="47.50216" lon="6.76517">
        <ele>413.5</ele>
        <time>2016-12-28T15:40:27.000Z</time>
      </trkpt>
      <trkpt lat="47.50218" lon="6.76523">
        <ele>413.5</ele>
        <time>2016-12-28T15:40:30.000Z</time>
      </trkpt>
      <trkpt lat="47.5022" lon="6.76526">
        <ele>413.5</ele>
        <time>2016-12-28T15:40:31.000Z</time>
      </trkpt>
      <trkpt lat="47.50221" lon="6.76532">
        <ele>413.4</ele>
        <time>2016-12-28T15:40:33.000Z</time>
      </trkpt>
      <trkpt lat="47.50222" lon="6.76533">
        <ele>413.4</ele>
        <time>2016-12-28T15:40:34.000Z</time>
      </trkpt>
      <trkpt lat="47.50223" lon="6.76538">
        <ele>413.2</ele>
        <time>2016-12-28T15:40:36.000Z</time>
      </trkpt>
      <trkpt lat="47.50223" lon="6.7654">
        <ele>413.1</ele>
        <time>2016-12-28T15:40:37.000Z</time>
      </trkpt>
      <trkpt lat="47.50222" lon="6.76545">
        <ele>412.6</ele>
        <time>2016-12-28T15:40:40.000Z</time>
      </trkpt>
      <trkpt lat="47.50219" lon="6.7655">
        <ele>412.5</ele>
        <time>2016-12-28T15:40:41.000Z</time>
      </trkpt>
      <trkpt lat="47.50217" lon="6.76554">
        <ele>412.4</ele>
        <time>2016-12-28T15:40:42.000Z</time>
      </trkpt>
      <trkpt lat="47.50216" lon="6.76557">
        <ele>412.2</ele>
        <time>2016-12-28T15:40:43.000Z</time>
      </trkpt>
      <trkpt lat="47.50214" lon="6.76561">
        <ele>411.7</ele>
        <time>2016-12-28T15:40:46.000Z</time>
      </trkpt>
      <trkpt lat="47.50213" lon="6.76562">
        <ele>411.7</ele>
        <time>2016-12-28T15:40:47.000Z</time>
      </trkpt>
      <trkpt lat="47.50211" lon="6.76564">
        <ele>411.6</ele>
        <time>2016-12-28T15:40:48.000Z</time>
      </trkpt>
      <trkpt lat="47.50209" lon="6.76565">
        <ele>411.6</ele>
        <time>2016-12-28T15:40:49.000Z</time>
      </trkpt>
      <trkpt lat="47.50206" lon="6.76567">
        <ele>412.3</ele>
        <time>2016-12-28T15:40:52.000Z</time>
      </trkpt>
      <trkpt lat="47.50204" lon="6.76567">
        <ele>412.6</ele>
        <time>2016-12-28T15:40:53.000Z</time>
      </trkpt>
      <trkpt lat="47.502" lon="6.76569">
        <ele>413.4</ele>
        <time>2016-12-28T15:40:56.000Z</time>
      </trkpt>
      <trkpt lat="47.50199" lon="6.76569">
        <ele>413.7</ele>
        <time>2016-12-28T15:40:57.000Z</time>
      </trkpt>
      <trkpt lat="47.50195" lon="6.76572">
        <ele>414.7</ele>
        <time>2016-12-28T15:41:00.000Z</time>
      </trkpt>
      <trkpt lat="47.50194" lon="6.76572">
        <ele>415.1</ele>
        <time>2016-12-28T15:41:01.000Z</time>
      </trkpt>
      <trkpt lat="47.50191" lon="6.76576">
        <ele>416.3</ele>
        <time>2016-12-28T15:41:04.000Z</time>
      </trkpt>
      <trkpt lat="47.5019" lon="6.76578">
        <ele>416.6</ele>
        <time>2016-12-28T15:41:05.000Z</time>
      </trkpt>
      <trkpt lat="47.50192" lon="6.76583">
        <ele>417.5</ele>
        <time>2016-12-28T15:41:09.000Z</time>
      </trkpt>
      <trkpt lat="47.50193" lon="6.76586">
        <ele>417.7</ele>
        <time>2016-12-28T15:41:10.000Z</time>
      </trkpt>
      <trkpt lat="47.50193" lon="6.76592">
        <ele>418.2</ele>
        <time>2016-12-28T15:41:13.000Z</time>
      </trkpt>
      <trkpt lat="47.50193" lon="6.76595">
        <ele>418.4</ele>
        <time>2016-12-28T15:41:14.000Z</time>
      </trkpt>
      <trkpt lat="47.50193" lon="6.76598">
        <ele>418.5</ele>
        <time>2016-12-28T15:41:15.000Z</time>
      </trkpt>
      <trkpt lat="47.50194" lon="6.76602">
        <ele>418.7</ele>
        <time>2016-12-28T15:41:16.000Z</time>
      </trkpt>
      <trkpt lat="47.50194" lon="6.76605">
        <ele>418.9</ele>
        <time>2016-12-28T15:41:17.000Z</time>
      </trkpt>
      <trkpt lat="47.50194" lon="6.76608">
        <ele>419</ele>
        <time>2016-12-28T15:41:18.000Z</time>
      </trkpt>
      <trkpt lat="47.50195" lon="6.76613">
        <ele>419.1</ele>
        <time>2016-12-28T15:41:19.000Z</time>
      </trkpt>
      <trkpt lat="47.50196" lon="6.76615">
        <ele>419.2</ele>
        <time>2016-12-28T15:41:20.000Z</time>
      </trkpt>
      <trkpt lat="47.50197" lon="6.76621">
        <ele>419.5</ele>
        <time>2016-12-28T15:41:22.000Z</time>
      </trkpt>
      <trkpt lat="47.50198" lon="6.76625">
        <ele>419.7</ele>
        <time>2016-12-28T15:41:23.000Z</time>
      </trkpt>
      <trkpt lat="47.50199" lon="6.76631">
        <ele>420.2</ele>
        <time>2016-12-28T15:41:25.000Z</time>
      </trkpt>
      <trkpt lat="47.502" lon="6.76634">
        <ele>420.4</ele>
        <time>2016-12-28T15:41:26.000Z</time>
      </trkpt>
      <trkpt lat="47.50202" lon="6.7664">
        <ele>420.9</ele>
        <time>2016-12-28T15:41:28.000Z</time>
      </trkpt>
      <trkpt lat="47.50203" lon="6.76643">
        <ele>421.3</ele>
        <time>2016-12-28T15:41:29.000Z</time>
      </trkpt>
      <trkpt lat="47.50204" lon="6.76648">
        <ele>422</ele>
        <time>2016-12-28T15:41:32.000Z</time>
      </trkpt>
      <trkpt lat="47.50205" lon="6.76651">
        <ele>422.2</ele>
        <time>2016-12-28T15:41:33.000Z</time>
      </trkpt>
      <trkpt lat="47.50206" lon="6.76657">
        <ele>422.5</ele>
        <time>2016-12-28T15:41:35.000Z</time>
      </trkpt>
      <trkpt lat="47.50207" lon="6.76661">
        <ele>422.7</ele>
        <time>2016-12-28T15:41:36.000Z</time>
      </trkpt>
      <trkpt lat="47.50208" lon="6.76664">
        <ele>422.9</ele>
        <time>2016-12-28T15:41:37.000Z</time>
      </trkpt>
      <trkpt lat="47.50209" lon="6.76667">
        <ele>423.2</ele>
        <time>2016-12-28T15:41:38.000Z</time>
      </trkpt>
      <trkpt lat="47.5021" lon="6.76671">
        <ele>423.4</ele>
        <time>2016-12-28T15:41:39.000Z</time>
      </trkpt>
      <trkpt lat="47.50211" lon="6.76674">
        <ele>423.6</ele>
        <time>2016-12-28T15:41:40.000Z</time>
      </trkpt>
      <trkpt lat="47.50213" lon="6.7668">
        <ele>424</ele>
        <time>2016-12-28T15:41:42.000Z</time>
      </trkpt>
      <trkpt lat="47.50213" lon="6.76683">
        <ele>424.2</ele>
        <time>2016-12-28T15:41:43.000Z</time>
      </trkpt>
      <trkpt lat="47.50214" lon="6.76687">
        <ele>424.6</ele>
        <time>2016-12-28T15:41:45.000Z</time>
      </trkpt>
      <trkpt lat="47.50215" lon="6.76689">
        <ele>424.7</ele>
        <time>2016-12-28T15:41:46.000Z</time>
      </trkpt>
      <trkpt lat="47.50217" lon="6.76693">
        <ele>424.8</ele>
        <time>2016-12-28T15:41:47.000Z</time>
      </trkpt>
      <trkpt lat="47.50218" lon="6.76696">
        <ele>424.9</ele>
        <time>2016-12-28T15:41:48.000Z</time>
      </trkpt>
      <trkpt lat="47.5022" lon="6.767">
        <ele>425</ele>
        <time>2016-12-28T15:41:49.000Z</time>
      </trkpt>
      <trkpt lat="47.50221" lon="6.76704">
        <ele>425.2</ele>
        <time>2016-12-28T15:41:50.000Z</time>
      </trkpt>
      <trkpt lat="47.50223" lon="6.76709">
        <ele>425.4</ele>
        <time>2016-12-28T15:41:51.000Z</time>
      </trkpt>
      <trkpt lat="47.50224" lon="6.76712">
        <ele>425.5</ele>
        <time>2016-12-28T15:41:52.000Z</time>
      </trkpt>
      <trkpt lat="47.50226" lon="6.76716">
        <ele>425.7</ele>
        <time>2016-12-28T15:41:53.000Z</time>
      </trkpt>
      <trkpt lat="47.50227" lon="6.76719">
        <ele>426</ele>
        <time>2016-12-28T15:41:54.000Z</time>
      </trkpt>
      <trkpt lat="47.50229" lon="6.76722">
        <ele>426.2</ele>
        <time>2016-12-28T15:41:55.000Z</time>
      </trkpt>
      <trkpt lat="47.5023" lon="6.76725">
        <ele>426.4</ele>
        <time>2016-12-28T15:41:56.000Z</time>
      </trkpt>
      <trkpt lat="47.50231" lon="6.76728">
        <ele>426.5</ele>
        <time>2016-12-28T15:41:57.000Z</time>
      </trkpt>
      <trkpt lat="47.50233" lon="6.76731">
        <ele>426.6</ele>
        <time>2016-12-28T15:41:58.000Z</time>
      </trkpt>
      <trkpt lat="47.50234" lon="6.76733">
        <ele>426.8</ele>
        <time>2016-12-28T15:41:59.000Z</time>
      </trkpt>
      <trkpt lat="47.50236" lon="6.76736">
        <ele>427</ele>
        <time>2016-12-28T15:42:00.000Z</time>
      </trkpt>
      <trkpt lat="47.50238" lon="6.76739">
        <ele>427.2</ele>
        <time>2016-12-28T15:42:01.000Z</time>
      </trkpt>
      <trkpt lat="47.5024" lon="6.76742">
        <ele>427.5</ele>
        <time>2016-12-28T15:42:02.000Z</time>
      </trkpt>
      <trkpt lat="47.50243" lon="6.76747">
        <ele>428.1</ele>
        <time>2016-12-28T15:42:04.000Z</time>
      </trkpt>
      <trkpt lat="47.50245" lon="6.76748">
        <ele>428.4</ele>
        <time>2016-12-28T15:42:05.000Z</time>
      </trkpt>
      <trkpt lat="47.50247" lon="6.76748">
        <ele>428.5</ele>
        <time>2016-12-28T15:42:06.000Z</time>
      </trkpt>
      <trkpt lat="47.5025" lon="6.76749">
        <ele>428.7</ele>
        <time>2016-12-28T15:42:07.000Z</time>
      </trkpt>
      <trkpt lat="47.50252" lon="6.76749">
        <ele>429</ele>
        <time>2016-12-28T15:42:08.000Z</time>
      </trkpt>
      <trkpt lat="47.50255" lon="6.76747">
        <ele>429.2</ele>
        <time>2016-12-28T15:42:09.000Z</time>
      </trkpt>
      <trkpt lat="47.5026" lon="6.76745">
        <ele>429.5</ele>
        <time>2016-12-28T15:42:10.000Z</time>
      </trkpt>
      <trkpt lat="47.50262" lon="6.76743">
        <ele>429.8</ele>
        <time>2016-12-28T15:42:11.000Z</time>
      </trkpt>
      <trkpt lat="47.50265" lon="6.76742">
        <ele>430.1</ele>
        <time>2016-12-28T15:42:12.000Z</time>
      </trkpt>
      <trkpt lat="47.50268" lon="6.76741">
        <ele>430.5</ele>
        <time>2016-12-28T15:42:13.000Z</time>
      </trkpt>
      <trkpt lat="47.50271" lon="6.76739">
        <ele>430.8</ele>
        <time>2016-12-28T15:42:14.000Z</time>
      </trkpt>
      <trkpt lat="47.50275" lon="6.76739">
        <ele>431.5</ele>
        <time>2016-12-28T15:42:16.000Z</time>
      </trkpt>
      <trkpt lat="47.50277" lon="6.76738">
        <ele>431.8</ele>
        <time>2016-12-28T15:42:17.000Z</time>
      </trkpt>
      <trkpt lat="47.50281" lon="6.76739">
        <ele>432.4</ele>
        <time>2016-12-28T15:42:19.000Z</time>
      </trkpt>
      <trkpt lat="47.50285" lon="6.76739">
        <ele>432.7</ele>
        <time>2016-12-28T15:42:20.000Z</time>
      </trkpt>
      <trkpt lat="47.50288" lon="6.76739">
        <ele>433</ele>
        <time>2016-12-28T15:42:21.000Z</time>
      </trkpt>
      <trkpt lat="47.50291" lon="6.76738">
        <ele>433.2</ele>
        <time>2016-12-28T15:42:22.000Z</time>
      </trkpt>
      <trkpt lat="47.50295" lon="6.76738">
        <ele>433.5</ele>
        <time>2016-12-28T15:42:24.000Z</time>
      </trkpt>
      <trkpt lat="47.50297" lon="6.76737">
        <ele>433.6</ele>
        <time>2016-12-28T15:42:25.000Z</time>
      </trkpt>
      <trkpt lat="47.50301" lon="6.76737">
        <ele>433.8</ele>
        <time>2016-12-28T15:42:27.000Z</time>
      </trkpt>
      <trkpt lat="47.50303" lon="6.76736">
        <ele>433.9</ele>
        <time>2016-12-28T15:42:28.000Z</time>
      </trkpt>
      <trkpt lat="47.50307" lon="6.76736">
        <ele>434</ele>
        <time>2016-12-28T15:42:30.000Z</time>
      </trkpt>
      <trkpt lat="47.50309" lon="6.76735">
        <ele>434</ele>
        <time>2016-12-28T15:42:31.000Z</time>
      </trkpt>
      <trkpt lat="47.50312" lon="6.76734">
        <ele>434.1</ele>
        <time>2016-12-28T15:42:32.000Z</time>
      </trkpt>
      <trkpt lat="47.50315" lon="6.76732">
        <ele>434.4</ele>
        <time>2016-12-28T15:42:33.000Z</time>
      </trkpt>
      <trkpt lat="47.50318" lon="6.76729">
        <ele>434.6</ele>
        <time>2016-12-28T15:42:34.000Z</time>
      </trkpt>
      <trkpt lat="47.50321" lon="6.76727">
        <ele>434.6</ele>
        <time>2016-12-28T15:42:35.000Z</time>
      </trkpt>
      <trkpt lat="47.50323" lon="6.76726">
        <ele>434.6</ele>
        <time>2016-12-28T15:42:36.000Z</time>
      </trkpt>
      <trkpt lat="47.50325" lon="6.76724">
        <ele>434.7</ele>
        <time>2016-12-28T15:42:37.000Z</time>
      </trkpt>
      <trkpt lat="47.50329" lon="6.76723">
        <ele>434.9</ele>
        <time>2016-12-28T15:42:39.000Z</time>
      </trkpt>
      <trkpt lat="47.50331" lon="6.76722">
        <ele>435.1</ele>
        <time>2016-12-28T15:42:40.000Z</time>
      </trkpt>
      <trkpt lat="47.50334" lon="6.76722">
        <ele>435.2</ele>
        <time>2016-12-28T15:42:41.000Z</time>
      </trkpt>
      <trkpt lat="47.50336" lon="6.76721">
        <ele>435.4</ele>
        <time>2016-12-28T15:42:42.000Z</time>
      </trkpt>
      <trkpt lat="47.50338" lon="6.7672">
        <ele>435.6</ele>
        <time>2016-12-28T15:42:43.000Z</time>
      </trkpt>
      <trkpt lat="47.50341" lon="6.76719">
        <ele>435.9</ele>
        <time>2016-12-28T15:42:44.000Z</time>
      </trkpt>
      <trkpt lat="47.50344" lon="6.76719">
        <ele>436.2</ele>
        <time>2016-12-28T15:42:45.000Z</time>
      </trkpt>
      <trkpt lat="47.50346" lon="6.76719">
        <ele>436.4</ele>
        <time>2016-12-28T15:42:46.000Z</time>
      </trkpt>
      <trkpt lat="47.50348" lon="6.76719">
        <ele>436.6</ele>
        <time>2016-12-28T15:42:47.000Z</time>
      </trkpt>
      <trkpt lat="47.50351" lon="6.76718">
        <ele>436.8</ele>
        <time>2016-12-28T15:42:48.000Z</time>
      </trkpt>
      <trkpt lat="47.50355" lon="6.76717">
        <ele>437.8</ele>
        <time>2016-12-28T15:42:51.000Z</time>
      </trkpt>
      <trkpt lat="47.50357" lon="6.76716">
        <ele>438.1</ele>
        <time>2016-12-28T15:42:52.000Z</time>
      </trkpt>
      <trkpt lat="47.50359" lon="6.76715">
        <ele>438.4</ele>
        <time>2016-12-28T15:42:53.000Z</time>
      </trkpt>
      <trkpt lat="47.50362" lon="6.76713">
        <ele>438.7</ele>
        <time>2016-12-28T15:42:54.000Z</time>
      </trkpt>
      <trkpt lat="47.50364" lon="6.76711">
        <ele>438.9</ele>
        <time>2016-12-28T15:42:55.000Z</time>
      </trkpt>
      <trkpt lat="47.50366" lon="6.76709">
        <ele>439.2</ele>
        <time>2016-12-28T15:42:56.000Z</time>
      </trkpt>
      <trkpt lat="47.50369" lon="6.76707">
        <ele>439.3</ele>
        <time>2016-12-28T15:42:57.000Z</time>
      </trkpt>
      <trkpt lat="47.50372" lon="6.76706">
        <ele>439.5</ele>
        <time>2016-12-28T15:42:58.000Z</time>
      </trkpt>
      <trkpt lat="47.50375" lon="6.76704">
        <ele>439.8</ele>
        <time>2016-12-28T15:43:00.000Z</time>
      </trkpt>
      <trkpt lat="47.50376" lon="6.76704">
        <ele>440</ele>
        <time>2016-12-28T15:43:01.000Z</time>
      </trkpt>
      <trkpt lat="47.5038" lon="6.76702">
        <ele>440.9</ele>
        <time>2016-12-28T15:43:05.000Z</time>
      </trkpt>
      <trkpt lat="47.50382" lon="6.76701">
        <ele>441.1</ele>
        <time>2016-12-28T15:43:06.000Z</time>
      </trkpt>
      <trkpt lat="47.50385" lon="6.767">
        <ele>441.2</ele>
        <time>2016-12-28T15:43:07.000Z</time>
      </trkpt>
      <trkpt lat="47.50386" lon="6.76699">
        <ele>441.4</ele>
        <time>2016-12-28T15:43:08.000Z</time>
      </trkpt>
      <trkpt lat="47.50389" lon="6.76698">
        <ele>441.7</ele>
        <time>2016-12-28T15:43:10.000Z</time>
      </trkpt>
      <trkpt lat="47.50391" lon="6.76697">
        <ele>441.8</ele>
        <time>2016-12-28T15:43:11.000Z</time>
      </trkpt>
      <trkpt lat="47.50394" lon="6.76696">
        <ele>442.1</ele>
        <time>2016-12-28T15:43:13.000Z</time>
      </trkpt>
      <trkpt lat="47.50396" lon="6.76695">
        <ele>442.1</ele>
        <time>2016-12-28T15:43:14.000Z</time>
      </trkpt>
      <trkpt lat="47.504" lon="6.76693">
        <ele>442.4</ele>
        <time>2016-12-28T15:43:17.000Z</time>
      </trkpt>
      <trkpt lat="47.50402" lon="6.76693">
        <ele>442.5</ele>
        <time>2016-12-28T15:43:18.000Z</time>
      </trkpt>
      <trkpt lat="47.50406" lon="6.76692">
        <ele>442.7</ele>
        <time>2016-12-28T15:43:20.000Z</time>
      </trkpt>
      <trkpt lat="47.50407" lon="6.76692">
        <ele>442.8</ele>
        <time>2016-12-28T15:43:21.000Z</time>
      </trkpt>
      <trkpt lat="47.50411" lon="6.76691">
        <ele>443.3</ele>
        <time>2016-12-28T15:43:25.000Z</time>
      </trkpt>
      <trkpt lat="47.50412" lon="6.7669">
        <ele>443.4</ele>
        <time>2016-12-28T15:43:26.000Z</time>
      </trkpt>
      <trkpt lat="47.50411" lon="6.76696">
        <ele>444.6</ele>
        <time>2016-12-28T15:43:38.000Z</time>
      </trkpt>
      <trkpt lat="47.50412" lon="6.76701">
        <ele>444.8</ele>
        <time>2016-12-28T15:43:39.000Z</time>
      </trkpt>
      <trkpt lat="47.50408" lon="6.76698">
        <ele>445.6</ele>
        <time>2016-12-28T15:43:47.000Z</time>
      </trkpt>
      <trkpt lat="47.50408" lon="6.76697">
        <ele>445.6</ele>
        <time>2016-12-28T15:43:48.000Z</time>
      </trkpt>
      <trkpt lat="47.50405" lon="6.76693">
        <ele>445.7</ele>
        <time>2016-12-28T15:43:54.000Z</time>
      </trkpt>
      <trkpt lat="47.50404" lon="6.76692">
        <ele>445.7</ele>
        <time>2016-12-28T15:43:55.000Z</time>
      </trkpt>
      <trkpt lat="47.50406" lon="6.76689">
        <ele>445.8</ele>
        <time>2016-12-28T15:44:32.000Z</time>
      </trkpt>
      <trkpt lat="47.50408" lon="6.76688">
        <ele>445.7</ele>
        <time>2016-12-28T15:44:33.000Z</time>
      </trkpt>
      <trkpt lat="47.50412" lon="6.76686">
        <ele>445.7</ele>
        <time>2016-12-28T15:44:35.000Z</time>
      </trkpt>
      <trkpt lat="47.50415" lon="6.76686">
        <ele>445.9</ele>
        <time>2016-12-28T15:44:36.000Z</time>
      </trkpt>
      <trkpt lat="47.50418" lon="6.76686">
        <ele>446</ele>
        <time>2016-12-28T15:44:37.000Z</time>
      </trkpt>
      <trkpt lat="47.5042" lon="6.76685">
        <ele>446.1</ele>
        <time>2016-12-28T15:44:38.000Z</time>
      </trkpt>
      <trkpt lat="47.50423" lon="6.76684">
        <ele>446.3</ele>
        <time>2016-12-28T15:44:39.000Z</time>
      </trkpt>
      <trkpt lat="47.50426" lon="6.76683">
        <ele>446.4</ele>
        <time>2016-12-28T15:44:40.000Z</time>
      </trkpt>
      <trkpt lat="47.5043" lon="6.76682">
        <ele>446.5</ele>
        <time>2016-12-28T15:44:42.000Z</time>
      </trkpt>
      <trkpt lat="47.50431" lon="6.76681">
        <ele>446.4</ele>
        <time>2016-12-28T15:44:43.000Z</time>
      </trkpt>
      <trkpt lat="47.50436" lon="6.7668">
        <ele>446.4</ele>
        <time>2016-12-28T15:44:46.000Z</time>
      </trkpt>
      <trkpt lat="47.50438" lon="6.76679">
        <ele>446.5</ele>
        <time>2016-12-28T15:44:47.000Z</time>
      </trkpt>
      <trkpt lat="47.50442" lon="6.76677">
        <ele>446.6</ele>
        <time>2016-12-28T15:44:49.000Z</time>
      </trkpt>
      <trkpt lat="47.50444" lon="6.76676">
        <ele>446.6</ele>
        <time>2016-12-28T15:44:50.000Z</time>
      </trkpt>
      <trkpt lat="47.50448" lon="6.76675">
        <ele>446.6</ele>
        <time>2016-12-28T15:44:52.000Z</time>
      </trkpt>
      <trkpt lat="47.50449" lon="6.76674">
        <ele>446.6</ele>
        <time>2016-12-28T15:44:53.000Z</time>
      </trkpt>
      <trkpt lat="47.50453" lon="6.76674">
        <ele>446.7</ele>
        <time>2016-12-28T15:44:56.000Z</time>
      </trkpt>
      <trkpt lat="47.50455" lon="6.76673">
        <ele>446.7</ele>
        <time>2016-12-28T15:44:57.000Z</time>
      </trkpt>
      <trkpt lat="47.50459" lon="6.76671">
        <ele>447</ele>
        <time>2016-12-28T15:45:00.000Z</time>
      </trkpt>
      <trkpt lat="47.5046" lon="6.76671">
        <ele>447.1</ele>
        <time>2016-12-28T15:45:01.000Z</time>
      </trkpt>
      <trkpt lat="47.50464" lon="6.76669">
        <ele>447.3</ele>
        <time>2016-12-28T15:45:04.000Z</time>
      </trkpt>
      <trkpt lat="47.50466" lon="6.76668">
        <ele>447.3</ele>
        <time>2016-12-28T15:45:05.000Z</time>
      </trkpt>
      <trkpt lat="47.50469" lon="6.76667">
        <ele>447.6</ele>
        <time>2016-12-28T15:45:08.000Z</time>
      </trkpt>
      <trkpt lat="47.5047" lon="6.76666">
        <ele>447.6</ele>
        <time>2016-12-28T15:45:09.000Z</time>
      </trkpt>
      <trkpt lat="47.50474" lon="6.76662">
        <ele>447.5</ele>
        <time>2016-12-28T15:45:13.000Z</time>
      </trkpt>
      <trkpt lat="47.50474" lon="6.76662">
        <ele>447.5</ele>
        <time>2016-12-28T15:45:14.000Z</time>
      </trkpt>
      <trkpt lat="47.50477" lon="6.7666">
        <ele>446.5</ele>
        <time>2016-12-28T15:45:21.000Z</time>
      </trkpt>
      <trkpt lat="47.50478" lon="6.76659">
        <ele>446.4</ele>
        <time>2016-12-28T15:45:22.000Z</time>
      </trkpt>
      <trkpt lat="47.50481" lon="6.76657">
        <ele>446.5</ele>
        <time>2016-12-28T15:45:24.000Z</time>
      </trkpt>
      <trkpt lat="47.50483" lon="6.76657">
        <ele>446.6</ele>
        <time>2016-12-28T15:45:25.000Z</time>
      </trkpt>
      <trkpt lat="47.50485" lon="6.76656">
        <ele>446.6</ele>
        <time>2016-12-28T15:45:26.000Z</time>
      </trkpt>
      <trkpt lat="47.50488" lon="6.76655">
        <ele>446.7</ele>
        <time>2016-12-28T15:45:27.000Z</time>
      </trkpt>
      <trkpt lat="47.50491" lon="6.76654">
        <ele>446.8</ele>
        <time>2016-12-28T15:45:29.000Z</time>
      </trkpt>
      <trkpt lat="47.50492" lon="6.76653">
        <ele>446.9</ele>
        <time>2016-12-28T15:45:30.000Z</time>
      </trkpt>
      <trkpt lat="47.50496" lon="6.76652">
        <ele>447</ele>
        <time>2016-12-28T15:45:32.000Z</time>
      </trkpt>
      <trkpt lat="47.50498" lon="6.76652">
        <ele>447.1</ele>
        <time>2016-12-28T15:45:33.000Z</time>
      </trkpt>
      <trkpt lat="47.50502" lon="6.7665">
        <ele>447.4</ele>
        <time>2016-12-28T15:45:35.000Z</time>
      </trkpt>
      <trkpt lat="47.50504" lon="6.7665">
        <ele>447.5</ele>
        <time>2016-12-28T15:45:36.000Z</time>
      </trkpt>
      <trkpt lat="47.50508" lon="6.7665">
        <ele>447.7</ele>
        <time>2016-12-28T15:45:38.000Z</time>
      </trkpt>
      <trkpt lat="47.5051" lon="6.76651">
        <ele>447.6</ele>
        <time>2016-12-28T15:45:39.000Z</time>
      </trkpt>
      <trkpt lat="47.50512" lon="6.76652">
        <ele>447.5</ele>
        <time>2016-12-28T15:45:40.000Z</time>
      </trkpt>
      <trkpt lat="47.50513" lon="6.76657">
        <ele>447.3</ele>
        <time>2016-12-28T15:45:41.000Z</time>
      </trkpt>
      <trkpt lat="47.50514" lon="6.76662">
        <ele>447.2</ele>
        <time>2016-12-28T15:45:42.000Z</time>
      </trkpt>
      <trkpt lat="47.50516" lon="6.76668">
        <ele>446.4</ele>
        <time>2016-12-28T15:45:43.000Z</time>
      </trkpt>
      <trkpt lat="47.50516" lon="6.76674">
        <ele>445.5</ele>
        <time>2016-12-28T15:45:44.000Z</time>
      </trkpt>
      <trkpt lat="47.50518" lon="6.76682">
        <ele>444.9</ele>
        <time>2016-12-28T15:45:45.000Z</time>
      </trkpt>
      <trkpt lat="47.50523" lon="6.76687">
        <ele>444.4</ele>
        <time>2016-12-28T15:45:46.000Z</time>
      </trkpt>
      <trkpt lat="47.50528" lon="6.76691">
        <ele>443.2</ele>
        <time>2016-12-28T15:45:47.000Z</time>
      </trkpt>
      <trkpt lat="47.50531" lon="6.76692">
        <ele>443</ele>
        <time>2016-12-28T15:45:48.000Z</time>
      </trkpt>
      <trkpt lat="47.50535" lon="6.76691">
        <ele>443.6</ele>
        <time>2016-12-28T15:45:49.000Z</time>
      </trkpt>
      <trkpt lat="47.50538" lon="6.7669">
        <ele>443.6</ele>
        <time>2016-12-28T15:45:50.000Z</time>
      </trkpt>
      <trkpt lat="47.50541" lon="6.76689">
        <ele>443.6</ele>
        <time>2016-12-28T15:45:51.000Z</time>
      </trkpt>
      <trkpt lat="47.50544" lon="6.76688">
        <ele>443.7</ele>
        <time>2016-12-28T15:45:52.000Z</time>
      </trkpt>
      <trkpt lat="47.50547" lon="6.76687">
        <ele>443.9</ele>
        <time>2016-12-28T15:45:53.000Z</time>
      </trkpt>
      <trkpt lat="47.5055" lon="6.76687">
        <ele>444</ele>
        <time>2016-12-28T15:45:54.000Z</time>
      </trkpt>
      <trkpt lat="47.50553" lon="6.76686">
        <ele>444.1</ele>
        <time>2016-12-28T15:45:55.000Z</time>
      </trkpt>
      <trkpt lat="47.50557" lon="6.76685">
        <ele>444.8</ele>
        <time>2016-12-28T15:45:56.000Z</time>
      </trkpt>
      <trkpt lat="47.50562" lon="6.76684">
        <ele>445.5</ele>
        <time>2016-12-28T15:45:57.000Z</time>
      </trkpt>
      <trkpt lat="47.50567" lon="6.76683">
        <ele>445</ele>
        <time>2016-12-28T15:45:58.000Z</time>
      </trkpt>
      <trkpt lat="47.50573" lon="6.76682">
        <ele>444.8</ele>
        <time>2016-12-28T15:45:59.000Z</time>
      </trkpt>
      <trkpt lat="47.50577" lon="6.76681">
        <ele>444.2</ele>
        <time>2016-12-28T15:46:00.000Z</time>
      </trkpt>
      <trkpt lat="47.50581" lon="6.76679">
        <ele>443.7</ele>
        <time>2016-12-28T15:46:01.000Z</time>
      </trkpt>
      <trkpt lat="47.50585" lon="6.76677">
        <ele>442.8</ele>
        <time>2016-12-28T15:46:02.000Z</time>
      </trkpt>
      <trkpt lat="47.50589" lon="6.76676">
        <ele>442.5</ele>
        <time>2016-12-28T15:46:03.000Z</time>
      </trkpt>
      <trkpt lat="47.50593" lon="6.76674">
        <ele>442.1</ele>
        <time>2016-12-28T15:46:04.000Z</time>
      </trkpt>
      <trkpt lat="47.50598" lon="6.76672">
        <ele>441.5</ele>
        <time>2016-12-28T15:46:05.000Z</time>
      </trkpt>
      <trkpt lat="47.50603" lon="6.7667">
        <ele>441.1</ele>
        <time>2016-12-28T15:46:06.000Z</time>
      </trkpt>
      <trkpt lat="47.50608" lon="6.76669">
        <ele>440.6</ele>
        <time>2016-12-28T15:46:07.000Z</time>
      </trkpt>
      <trkpt lat="47.50613" lon="6.76667">
        <ele>440.3</ele>
        <time>2016-12-28T15:46:08.000Z</time>
      </trkpt>
      <trkpt lat="47.50617" lon="6.76666">
        <ele>440.6</ele>
        <time>2016-12-28T15:46:09.000Z</time>
      </trkpt>
      <trkpt lat="47.50623" lon="6.76664">
        <ele>440.5</ele>
        <time>2016-12-28T15:46:10.000Z</time>
      </trkpt>
      <trkpt lat="47.50629" lon="6.76662">
        <ele>440.8</ele>
        <time>2016-12-28T15:46:11.000Z</time>
      </trkpt>
      <trkpt lat="47.50635" lon="6.76659">
        <ele>440.5</ele>
        <time>2016-12-28T15:46:12.000Z</time>
      </trkpt>
      <trkpt lat="47.50642" lon="6.76656">
        <ele>439.8</ele>
        <time>2016-12-28T15:46:13.000Z</time>
      </trkpt>
      <trkpt lat="47.50648" lon="6.76652">
        <ele>439</ele>
        <time>2016-12-28T15:46:14.000Z</time>
      </trkpt>
      <trkpt lat="47.50653" lon="6.76648">
        <ele>438.9</ele>
        <time>2016-12-28T15:46:15.000Z</time>
      </trkpt>
      <trkpt lat="47.50658" lon="6.76644">
        <ele>438.8</ele>
        <time>2016-12-28T15:46:16.000Z</time>
      </trkpt>
      <trkpt lat="47.50664" lon="6.7664">
        <ele>439</ele>
        <time>2016-12-28T15:46:17.000Z</time>
      </trkpt>
      <trkpt lat="47.5067" lon="6.76638">
        <ele>438.9</ele>
        <time>2016-12-28T15:46:18.000Z</time>
      </trkpt>
      <trkpt lat="47.50676" lon="6.76637">
        <ele>438.7</ele>
        <time>2016-12-28T15:46:19.000Z</time>
      </trkpt>
      <trkpt lat="47.50682" lon="6.76634">
        <ele>438.6</ele>
        <time>2016-12-28T15:46:20.000Z</time>
      </trkpt>
      <trkpt lat="47.50687" lon="6.76632">
        <ele>438.9</ele>
        <time>2016-12-28T15:46:21.000Z</time>
      </trkpt>
      <trkpt lat="47.50692" lon="6.76631">
        <ele>438.6</ele>
        <time>2016-12-28T15:46:22.000Z</time>
      </trkpt>
      <trkpt lat="47.50697" lon="6.76631">
        <ele>438.4</ele>
        <time>2016-12-28T15:46:23.000Z</time>
      </trkpt>
      <trkpt lat="47.507" lon="6.76631">
        <ele>438.3</ele>
        <time>2016-12-28T15:46:24.000Z</time>
      </trkpt>
      <trkpt lat="47.50704" lon="6.76631">
        <ele>438</ele>
        <time>2016-12-28T15:46:25.000Z</time>
      </trkpt>
      <trkpt lat="47.50708" lon="6.76632">
        <ele>438</ele>
        <time>2016-12-28T15:46:26.000Z</time>
      </trkpt>
      <trkpt lat="47.50712" lon="6.76632">
        <ele>437.2</ele>
        <time>2016-12-28T15:46:27.000Z</time>
      </trkpt>
      <trkpt lat="47.50717" lon="6.76633">
        <ele>437.1</ele>
        <time>2016-12-28T15:46:28.000Z</time>
      </trkpt>
      <trkpt lat="47.50724" lon="6.76635">
        <ele>436.6</ele>
        <time>2016-12-28T15:46:29.000Z</time>
      </trkpt>
      <trkpt lat="47.50728" lon="6.76637">
        <ele>436</ele>
        <time>2016-12-28T15:46:30.000Z</time>
      </trkpt>
      <trkpt lat="47.50732" lon="6.76639">
        <ele>435.4</ele>
        <time>2016-12-28T15:46:31.000Z</time>
      </trkpt>
      <trkpt lat="47.50736" lon="6.76642">
        <ele>435.3</ele>
        <time>2016-12-28T15:46:32.000Z</time>
      </trkpt>
      <trkpt lat="47.5074" lon="6.76646">
        <ele>435.8</ele>
        <time>2016-12-28T15:46:33.000Z</time>
      </trkpt>
      <trkpt lat="47.50744" lon="6.7665">
        <ele>436.4</ele>
        <time>2016-12-28T15:46:34.000Z</time>
      </trkpt>
      <trkpt lat="47.50747" lon="6.76655">
        <ele>436.5</ele>
        <time>2016-12-28T15:46:35.000Z</time>
      </trkpt>
      <trkpt lat="47.5075" lon="6.76661">
        <ele>437.2</ele>
        <time>2016-12-28T15:46:36.000Z</time>
      </trkpt>
      <trkpt lat="47.50755" lon="6.76668">
        <ele>437.7</ele>
        <time>2016-12-28T15:46:37.000Z</time>
      </trkpt>
      <trkpt lat="47.50758" lon="6.76673">
        <ele>437.6</ele>
        <time>2016-12-28T15:46:38.000Z</time>
      </trkpt>
      <trkpt lat="47.50761" lon="6.7668">
        <ele>437.6</ele>
        <time>2016-12-28T15:46:39.000Z</time>
      </trkpt>
      <trkpt lat="47.50764" lon="6.76686">
        <ele>437.8</ele>
        <time>2016-12-28T15:46:40.000Z</time>
      </trkpt>
      <trkpt lat="47.50767" lon="6.76692">
        <ele>437.5</ele>
        <time>2016-12-28T15:46:41.000Z</time>
      </trkpt>
      <trkpt lat="47.5077" lon="6.76698">
        <ele>437.2</ele>
        <time>2016-12-28T15:46:42.000Z</time>
      </trkpt>
      <trkpt lat="47.50773" lon="6.76703">
        <ele>436.8</ele>
        <time>2016-12-28T15:46:43.000Z</time>
      </trkpt>
      <trkpt lat="47.50777" lon="6.7671">
        <ele>436.7</ele>
        <time>2016-12-28T15:46:44.000Z</time>
      </trkpt>
      <trkpt lat="47.5078" lon="6.76715">
        <ele>436.4</ele>
        <time>2016-12-28T15:46:45.000Z</time>
      </trkpt>
      <trkpt lat="47.50782" lon="6.76718">
        <ele>436.4</ele>
        <time>2016-12-28T15:46:46.000Z</time>
      </trkpt>
      <trkpt lat="47.50785" lon="6.76722">
        <ele>436.4</ele>
        <time>2016-12-28T15:46:47.000Z</time>
      </trkpt>
      <trkpt lat="47.50786" lon="6.76727">
        <ele>436.4</ele>
        <time>2016-12-28T15:46:48.000Z</time>
      </trkpt>
      <trkpt lat="47.50786" lon="6.76733">
        <ele>436.4</ele>
        <time>2016-12-28T15:46:49.000Z</time>
      </trkpt>
      <trkpt lat="47.50786" lon="6.7674">
        <ele>436.2</ele>
        <time>2016-12-28T15:46:50.000Z</time>
      </trkpt>
      <trkpt lat="47.50787" lon="6.76746">
        <ele>435.9</ele>
        <time>2016-12-28T15:46:51.000Z</time>
      </trkpt>
      <trkpt lat="47.5079" lon="6.76754">
        <ele>435.9</ele>
        <time>2016-12-28T15:46:52.000Z</time>
      </trkpt>
      <trkpt lat="47.50794" lon="6.7676">
        <ele>436.2</ele>
        <time>2016-12-28T15:46:53.000Z</time>
      </trkpt>
      <trkpt lat="47.50797" lon="6.76766">
        <ele>435.9</ele>
        <time>2016-12-28T15:46:54.000Z</time>
      </trkpt>
      <trkpt lat="47.50799" lon="6.76771">
        <ele>435.8</ele>
        <time>2016-12-28T15:46:55.000Z</time>
      </trkpt>
      <trkpt lat="47.50802" lon="6.76777">
        <ele>435.7</ele>
        <time>2016-12-28T15:46:56.000Z</time>
      </trkpt>
      <trkpt lat="47.50805" lon="6.76783">
        <ele>435.4</ele>
        <time>2016-12-28T15:46:57.000Z</time>
      </trkpt>
      <trkpt lat="47.50807" lon="6.76789">
        <ele>434.5</ele>
        <time>2016-12-28T15:46:58.000Z</time>
      </trkpt>
      <trkpt lat="47.50811" lon="6.76795">
        <ele>433.8</ele>
        <time>2016-12-28T15:46:59.000Z</time>
      </trkpt>
      <trkpt lat="47.50815" lon="6.76803">
        <ele>433.2</ele>
        <time>2016-12-28T15:47:00.000Z</time>
      </trkpt>
      <trkpt lat="47.50818" lon="6.76809">
        <ele>432.8</ele>
        <time>2016-12-28T15:47:01.000Z</time>
      </trkpt>
      <trkpt lat="47.50822" lon="6.76815">
        <ele>431.8</ele>
        <time>2016-12-28T15:47:02.000Z</time>
      </trkpt>
      <trkpt lat="47.50826" lon="6.76823">
        <ele>430.4</ele>
        <time>2016-12-28T15:47:03.000Z</time>
      </trkpt>
      <trkpt lat="47.5083" lon="6.7683">
        <ele>429.4</ele>
        <time>2016-12-28T15:47:04.000Z</time>
      </trkpt>
      <trkpt lat="47.50834" lon="6.76837">
        <ele>428.9</ele>
        <time>2016-12-28T15:47:05.000Z</time>
      </trkpt>
      <trkpt lat="47.50838" lon="6.76846">
        <ele>428.6</ele>
        <time>2016-12-28T15:47:06.000Z</time>
      </trkpt>
      <trkpt lat="47.50842" lon="6.76853">
        <ele>428</ele>
        <time>2016-12-28T15:47:07.000Z</time>
      </trkpt>
      <trkpt lat="47.50848" lon="6.76859">
        <ele>427.2</ele>
        <time>2016-12-28T15:47:08.000Z</time>
      </trkpt>
      <trkpt lat="47.50853" lon="6.76865">
        <ele>426.8</ele>
        <time>2016-12-28T15:47:09.000Z</time>
      </trkpt>
      <trkpt lat="47.50858" lon="6.76871">
        <ele>426.4</ele>
        <time>2016-12-28T15:47:10.000Z</time>
      </trkpt>
      <trkpt lat="47.50863" lon="6.76878">
        <ele>426.3</ele>
        <time>2016-12-28T15:47:11.000Z</time>
      </trkpt>
      <trkpt lat="47.50868" lon="6.76884">
        <ele>426.2</ele>
        <time>2016-12-28T15:47:12.000Z</time>
      </trkpt>
      <trkpt lat="47.50873" lon="6.76891">
        <ele>426</ele>
        <time>2016-12-28T15:47:13.000Z</time>
      </trkpt>
      <trkpt lat="47.50878" lon="6.76897">
        <ele>426.7</ele>
        <time>2016-12-28T15:47:14.000Z</time>
      </trkpt>
      <trkpt lat="47.50882" lon="6.76903">
        <ele>427</ele>
        <time>2016-12-28T15:47:15.000Z</time>
      </trkpt>
      <trkpt lat="47.50887" lon="6.76908">
        <ele>427.7</ele>
        <time>2016-12-28T15:47:16.000Z</time>
      </trkpt>
      <trkpt lat="47.50892" lon="6.76913">
        <ele>428.4</ele>
        <time>2016-12-28T15:47:17.000Z</time>
      </trkpt>
      <trkpt lat="47.50897" lon="6.76918">
        <ele>428.2</ele>
        <time>2016-12-28T15:47:18.000Z</time>
      </trkpt>
      <trkpt lat="47.509" lon="6.7692">
        <ele>428.2</ele>
        <time>2016-12-28T15:47:19.000Z</time>
      </trkpt>
      <trkpt lat="47.50904" lon="6.76924">
        <ele>428.5</ele>
        <time>2016-12-28T15:47:20.000Z</time>
      </trkpt>
      <trkpt lat="47.50908" lon="6.76927">
        <ele>428.9</ele>
        <time>2016-12-28T15:47:21.000Z</time>
      </trkpt>
      <trkpt lat="47.50912" lon="6.76929">
        <ele>429.1</ele>
        <time>2016-12-28T15:47:22.000Z</time>
      </trkpt>
      <trkpt lat="47.50916" lon="6.76931">
        <ele>429.9</ele>
        <time>2016-12-28T15:47:23.000Z</time>
      </trkpt>
      <trkpt lat="47.50919" lon="6.76934">
        <ele>430</ele>
        <time>2016-12-28T15:47:24.000Z</time>
      </trkpt>
      <trkpt lat="47.50922" lon="6.76936">
        <ele>429.9</ele>
        <time>2016-12-28T15:47:25.000Z</time>
      </trkpt>
      <trkpt lat="47.50926" lon="6.76938">
        <ele>429.9</ele>
        <time>2016-12-28T15:47:26.000Z</time>
      </trkpt>
      <trkpt lat="47.5093" lon="6.76939">
        <ele>428.6</ele>
        <time>2016-12-28T15:47:27.000Z</time>
      </trkpt>
      <trkpt lat="47.50936" lon="6.76938">
        <ele>427.9</ele>
        <time>2016-12-28T15:47:28.000Z</time>
      </trkpt>
      <trkpt lat="47.50941" lon="6.76939">
        <ele>427.3</ele>
        <time>2016-12-28T15:47:29.000Z</time>
      </trkpt>
      <trkpt lat="47.50947" lon="6.7694">
        <ele>427.4</ele>
        <time>2016-12-28T15:47:30.000Z</time>
      </trkpt>
      <trkpt lat="47.50952" lon="6.76941">
        <ele>426.7</ele>
        <time>2016-12-28T15:47:31.000Z</time>
      </trkpt>
      <trkpt lat="47.50957" lon="6.76943">
        <ele>426</ele>
        <time>2016-12-28T15:47:32.000Z</time>
      </trkpt>
      <trkpt lat="47.50961" lon="6.76945">
        <ele>425.5</ele>
        <time>2016-12-28T15:47:33.000Z</time>
      </trkpt>
      <trkpt lat="47.50963" lon="6.76948">
        <ele>425.4</ele>
        <time>2016-12-28T15:47:34.000Z</time>
      </trkpt>
      <trkpt lat="47.50965" lon="6.7695">
        <ele>425.4</ele>
        <time>2016-12-28T15:47:35.000Z</time>
      </trkpt>
      <trkpt lat="47.5097" lon="6.76955">
        <ele>424.7</ele>
        <time>2016-12-28T15:47:36.000Z</time>
      </trkpt>
      <trkpt lat="47.50975" lon="6.76956">
        <ele>424.4</ele>
        <time>2016-12-28T15:47:37.000Z</time>
      </trkpt>
      <trkpt lat="47.5098" lon="6.76956">
        <ele>424.6</ele>
        <time>2016-12-28T15:47:38.000Z</time>
      </trkpt>
      <trkpt lat="47.50985" lon="6.76957">
        <ele>424</ele>
        <time>2016-12-28T15:47:39.000Z</time>
      </trkpt>
      <trkpt lat="47.50988" lon="6.76956">
        <ele>423.6</ele>
        <time>2016-12-28T15:47:40.000Z</time>
      </trkpt>
      <trkpt lat="47.50991" lon="6.76952">
        <ele>423.6</ele>
        <time>2016-12-28T15:47:41.000Z</time>
      </trkpt>
      <trkpt lat="47.50995" lon="6.76946">
        <ele>423.4</ele>
        <time>2016-12-28T15:47:42.000Z</time>
      </trkpt>
      <trkpt lat="47.51001" lon="6.76945">
        <ele>423.6</ele>
        <time>2016-12-28T15:47:43.000Z</time>
      </trkpt>
      <trkpt lat="47.51007" lon="6.76945">
        <ele>422.7</ele>
        <time>2016-12-28T15:47:44.000Z</time>
      </trkpt>
      <trkpt lat="47.51012" lon="6.76946">
        <ele>422.9</ele>
        <time>2016-12-28T15:47:45.000Z</time>
      </trkpt>
      <trkpt lat="47.51016" lon="6.76948">
        <ele>423.4</ele>
        <time>2016-12-28T15:47:46.000Z</time>
      </trkpt>
      <trkpt lat="47.5102" lon="6.76949">
        <ele>423.9</ele>
        <time>2016-12-28T15:47:47.000Z</time>
      </trkpt>
      <trkpt lat="47.51024" lon="6.76952">
        <ele>423.6</ele>
        <time>2016-12-28T15:47:48.000Z</time>
      </trkpt>
      <trkpt lat="47.51028" lon="6.76954">
        <ele>422.9</ele>
        <time>2016-12-28T15:47:49.000Z</time>
      </trkpt>
      <trkpt lat="47.51032" lon="6.76956">
        <ele>422.5</ele>
        <time>2016-12-28T15:47:50.000Z</time>
      </trkpt>
      <trkpt lat="47.51037" lon="6.76958">
        <ele>422.1</ele>
        <time>2016-12-28T15:47:51.000Z</time>
      </trkpt>
      <trkpt lat="47.5104" lon="6.76961">
        <ele>422</ele>
        <time>2016-12-28T15:47:52.000Z</time>
      </trkpt>
      <trkpt lat="47.51045" lon="6.76965">
        <ele>422.4</ele>
        <time>2016-12-28T15:47:53.000Z</time>
      </trkpt>
      <trkpt lat="47.5105" lon="6.7697">
        <ele>422.9</ele>
        <time>2016-12-28T15:47:54.000Z</time>
      </trkpt>
      <trkpt lat="47.51055" lon="6.76975">
        <ele>423.1</ele>
        <time>2016-12-28T15:47:55.000Z</time>
      </trkpt>
      <trkpt lat="47.5106" lon="6.7698">
        <ele>423.3</ele>
        <time>2016-12-28T15:47:56.000Z</time>
      </trkpt>
      <trkpt lat="47.51065" lon="6.76984">
        <ele>423.6</ele>
        <time>2016-12-28T15:47:57.000Z</time>
      </trkpt>
      <trkpt lat="47.51069" lon="6.76988">
        <ele>424.4</ele>
        <time>2016-12-28T15:47:58.000Z</time>
      </trkpt>
      <trkpt lat="47.51073" lon="6.76991">
        <ele>424.6</ele>
        <time>2016-12-28T15:47:59.000Z</time>
      </trkpt>
      <trkpt lat="47.51076" lon="6.76994">
        <ele>424.6</ele>
        <time>2016-12-28T15:48:00.000Z</time>
      </trkpt>
      <trkpt lat="47.5108" lon="6.76997">
        <ele>424.5</ele>
        <time>2016-12-28T15:48:01.000Z</time>
      </trkpt>
      <trkpt lat="47.51084" lon="6.77001">
        <ele>424.4</ele>
        <time>2016-12-28T15:48:02.000Z</time>
      </trkpt>
      <trkpt lat="47.51087" lon="6.77006">
        <ele>423.9</ele>
        <time>2016-12-28T15:48:03.000Z</time>
      </trkpt>
      <trkpt lat="47.51091" lon="6.77012">
        <ele>423.9</ele>
        <time>2016-12-28T15:48:04.000Z</time>
      </trkpt>
      <trkpt lat="47.51097" lon="6.77015">
        <ele>423.9</ele>
        <time>2016-12-28T15:48:05.000Z</time>
      </trkpt>
      <trkpt lat="47.51102" lon="6.77017">
        <ele>424.1</ele>
        <time>2016-12-28T15:48:06.000Z</time>
      </trkpt>
      <trkpt lat="47.51106" lon="6.7702">
        <ele>424.1</ele>
        <time>2016-12-28T15:48:07.000Z</time>
      </trkpt>
      <trkpt lat="47.5111" lon="6.77023">
        <ele>423.9</ele>
        <time>2016-12-28T15:48:08.000Z</time>
      </trkpt>
      <trkpt lat="47.51114" lon="6.77027">
        <ele>423.7</ele>
        <time>2016-12-28T15:48:09.000Z</time>
      </trkpt>
      <trkpt lat="47.51118" lon="6.7703">
        <ele>423.1</ele>
        <time>2016-12-28T15:48:10.000Z</time>
      </trkpt>
      <trkpt lat="47.51119" lon="6.77033">
        <ele>422.1</ele>
        <time>2016-12-28T15:48:11.000Z</time>
      </trkpt>
      <trkpt lat="47.51122" lon="6.77036">
        <ele>421.6</ele>
        <time>2016-12-28T15:48:12.000Z</time>
      </trkpt>
      <trkpt lat="47.51126" lon="6.7704">
        <ele>421.1</ele>
        <time>2016-12-28T15:48:13.000Z</time>
      </trkpt>
      <trkpt lat="47.5113" lon="6.77042">
        <ele>420.8</ele>
        <time>2016-12-28T15:48:14.000Z</time>
      </trkpt>
      <trkpt lat="47.51134" lon="6.77045">
        <ele>420.3</ele>
        <time>2016-12-28T15:48:15.000Z</time>
      </trkpt>
      <trkpt lat="47.51138" lon="6.77048">
        <ele>419.1</ele>
        <time>2016-12-28T15:48:16.000Z</time>
      </trkpt>
      <trkpt lat="47.51141" lon="6.77051">
        <ele>418.4</ele>
        <time>2016-12-28T15:48:17.000Z</time>
      </trkpt>
      <trkpt lat="47.51145" lon="6.77054">
        <ele>418.4</ele>
        <time>2016-12-28T15:48:18.000Z</time>
      </trkpt>
      <trkpt lat="47.51149" lon="6.77057">
        <ele>418</ele>
        <time>2016-12-28T15:48:19.000Z</time>
      </trkpt>
      <trkpt lat="47.51152" lon="6.7706">
        <ele>418</ele>
        <time>2016-12-28T15:48:20.000Z</time>
      </trkpt>
      <trkpt lat="47.51155" lon="6.77062">
        <ele>418</ele>
        <time>2016-12-28T15:48:21.000Z</time>
      </trkpt>
      <trkpt lat="47.51157" lon="6.77064">
        <ele>418</ele>
        <time>2016-12-28T15:48:22.000Z</time>
      </trkpt>
      <trkpt lat="47.51159" lon="6.77066">
        <ele>418</ele>
        <time>2016-12-28T15:48:23.000Z</time>
      </trkpt>
      <trkpt lat="47.51162" lon="6.7707">
        <ele>418.1</ele>
        <time>2016-12-28T15:48:25.000Z</time>
      </trkpt>
      <trkpt lat="47.51164" lon="6.77074">
        <ele>418.1</ele>
        <time>2016-12-28T15:48:26.000Z</time>
      </trkpt>
      <trkpt lat="47.51166" lon="6.77078">
        <ele>418.1</ele>
        <time>2016-12-28T15:48:27.000Z</time>
      </trkpt>
      <trkpt lat="47.51169" lon="6.77081">
        <ele>418.1</ele>
        <time>2016-12-28T15:48:28.000Z</time>
      </trkpt>
      <trkpt lat="47.51171" lon="6.77085">
        <ele>418.1</ele>
        <time>2016-12-28T15:48:29.000Z</time>
      </trkpt>
      <trkpt lat="47.51173" lon="6.7709">
        <ele>418.2</ele>
        <time>2016-12-28T15:48:30.000Z</time>
      </trkpt>
      <trkpt lat="47.51176" lon="6.77094">
        <ele>418.3</ele>
        <time>2016-12-28T15:48:31.000Z</time>
      </trkpt>
      <trkpt lat="47.51178" lon="6.77099">
        <ele>418.4</ele>
        <time>2016-12-28T15:48:32.000Z</time>
      </trkpt>
      <trkpt lat="47.5118" lon="6.77103">
        <ele>418.5</ele>
        <time>2016-12-28T15:48:33.000Z</time>
      </trkpt>
      <trkpt lat="47.51183" lon="6.77107">
        <ele>418.7</ele>
        <time>2016-12-28T15:48:34.000Z</time>
      </trkpt>
      <trkpt lat="47.51185" lon="6.77112">
        <ele>418.9</ele>
        <time>2016-12-28T15:48:35.000Z</time>
      </trkpt>
      <trkpt lat="47.51188" lon="6.77117">
        <ele>419.1</ele>
        <time>2016-12-28T15:48:36.000Z</time>
      </trkpt>
      <trkpt lat="47.5119" lon="6.77122">
        <ele>419.4</ele>
        <time>2016-12-28T15:48:37.000Z</time>
      </trkpt>
      <trkpt lat="47.51192" lon="6.77126">
        <ele>419.6</ele>
        <time>2016-12-28T15:48:38.000Z</time>
      </trkpt>
      <trkpt lat="47.51194" lon="6.77129">
        <ele>419.9</ele>
        <time>2016-12-28T15:48:39.000Z</time>
      </trkpt>
      <trkpt lat="47.51196" lon="6.77133">
        <ele>420.1</ele>
        <time>2016-12-28T15:48:40.000Z</time>
      </trkpt>
      <trkpt lat="47.51198" lon="6.77137">
        <ele>420.3</ele>
        <time>2016-12-28T15:48:41.000Z</time>
      </trkpt>
      <trkpt lat="47.512" lon="6.77142">
        <ele>420.4</ele>
        <time>2016-12-28T15:48:42.000Z</time>
      </trkpt>
      <trkpt lat="47.51202" lon="6.77145">
        <ele>420.5</ele>
        <time>2016-12-28T15:48:43.000Z</time>
      </trkpt>
      <trkpt lat="47.51204" lon="6.77149">
        <ele>420.6</ele>
        <time>2016-12-28T15:48:44.000Z</time>
      </trkpt>
      <trkpt lat="47.51205" lon="6.77152">
        <ele>420.7</ele>
        <time>2016-12-28T15:48:45.000Z</time>
      </trkpt>
      <trkpt lat="47.51207" lon="6.77155">
        <ele>420.8</ele>
        <time>2016-12-28T15:48:46.000Z</time>
      </trkpt>
      <trkpt lat="47.51208" lon="6.77158">
        <ele>420.9</ele>
        <time>2016-12-28T15:48:47.000Z</time>
      </trkpt>
      <trkpt lat="47.51209" lon="6.77161">
        <ele>420.9</ele>
        <time>2016-12-28T15:48:48.000Z</time>
      </trkpt>
      <trkpt lat="47.51211" lon="6.77164">
        <ele>421</ele>
        <time>2016-12-28T15:48:49.000Z</time>
      </trkpt>
      <trkpt lat="47.51212" lon="6.77168">
        <ele>421.1</ele>
        <time>2016-12-28T15:48:50.000Z</time>
      </trkpt>
      <trkpt lat="47.51214" lon="6.77172">
        <ele>421.1</ele>
        <time>2016-12-28T15:48:51.000Z</time>
      </trkpt>
      <trkpt lat="47.51216" lon="6.77176">
        <ele>421.2</ele>
        <time>2016-12-28T15:48:52.000Z</time>
      </trkpt>
      <trkpt lat="47.51217" lon="6.7718">
        <ele>421.3</ele>
        <time>2016-12-28T15:48:53.000Z</time>
      </trkpt>
      <trkpt lat="47.51219" lon="6.77184">
        <ele>421.3</ele>
        <time>2016-12-28T15:48:54.000Z</time>
      </trkpt>
      <trkpt lat="47.51221" lon="6.77188">
        <ele>421.4</ele>
        <time>2016-12-28T15:48:55.000Z</time>
      </trkpt>
      <trkpt lat="47.51223" lon="6.77192">
        <ele>421.4</ele>
        <time>2016-12-28T15:48:56.000Z</time>
      </trkpt>
      <trkpt lat="47.51225" lon="6.77196">
        <ele>421.4</ele>
        <time>2016-12-28T15:48:57.000Z</time>
      </trkpt>
      <trkpt lat="47.51227" lon="6.772">
        <ele>421.3</ele>
        <time>2016-12-28T15:48:58.000Z</time>
      </trkpt>
      <trkpt lat="47.51229" lon="6.77204">
        <ele>421.3</ele>
        <time>2016-12-28T15:48:59.000Z</time>
      </trkpt>
      <trkpt lat="47.51231" lon="6.77208">
        <ele>421.3</ele>
        <time>2016-12-28T15:49:00.000Z</time>
      </trkpt>
      <trkpt lat="47.51233" lon="6.77212">
        <ele>421.3</ele>
        <time>2016-12-28T15:49:01.000Z</time>
      </trkpt>
      <trkpt lat="47.51234" lon="6.77215">
        <ele>421.3</ele>
        <time>2016-12-28T15:49:02.000Z</time>
      </trkpt>
      <trkpt lat="47.51236" lon="6.77219">
        <ele>421.3</ele>
        <time>2016-12-28T15:49:03.000Z</time>
      </trkpt>
      <trkpt lat="47.51238" lon="6.77223">
        <ele>421.3</ele>
        <time>2016-12-28T15:49:04.000Z</time>
      </trkpt>
      <trkpt lat="47.51241" lon="6.77226">
        <ele>421.2</ele>
        <time>2016-12-28T15:49:05.000Z</time>
      </trkpt>
      <trkpt lat="47.51243" lon="6.7723">
        <ele>421.1</ele>
        <time>2016-12-28T15:49:06.000Z</time>
      </trkpt>
      <trkpt lat="47.51244" lon="6.77234">
        <ele>421.1</ele>
        <time>2016-12-28T15:49:07.000Z</time>
      </trkpt>
      <trkpt lat="47.51246" lon="6.77238">
        <ele>421.2</ele>
        <time>2016-12-28T15:49:08.000Z</time>
      </trkpt>
      <trkpt lat="47.5125" lon="6.77242">
        <ele>421.2</ele>
        <time>2016-12-28T15:49:09.000Z</time>
      </trkpt>
      <trkpt lat="47.51252" lon="6.77247">
        <ele>421.3</ele>
        <time>2016-12-28T15:49:10.000Z</time>
      </trkpt>
      <trkpt lat="47.51255" lon="6.77251">
        <ele>421.4</ele>
        <time>2016-12-28T15:49:11.000Z</time>
      </trkpt>
      <trkpt lat="47.51257" lon="6.77255">
        <ele>421.5</ele>
        <time>2016-12-28T15:49:12.000Z</time>
      </trkpt>
      <trkpt lat="47.51259" lon="6.77258">
        <ele>423</ele>
        <time>2016-12-28T15:49:13.000Z</time>
      </trkpt>
      <trkpt lat="47.51262" lon="6.77262">
        <ele>423.2</ele>
        <time>2016-12-28T15:49:14.000Z</time>
      </trkpt>
      <trkpt lat="47.51266" lon="6.77265">
        <ele>423.3</ele>
        <time>2016-12-28T15:49:15.000Z</time>
      </trkpt>
      <trkpt lat="47.51268" lon="6.77267">
        <ele>423.5</ele>
        <time>2016-12-28T15:49:16.000Z</time>
      </trkpt>
      <trkpt lat="47.51273" lon="6.7727">
        <ele>424.6</ele>
        <time>2016-12-28T15:49:17.000Z</time>
      </trkpt>
      <trkpt lat="47.51278" lon="6.77273">
        <ele>425.3</ele>
        <time>2016-12-28T15:49:18.000Z</time>
      </trkpt>
      <trkpt lat="47.51281" lon="6.77275">
        <ele>426.4</ele>
        <time>2016-12-28T15:49:19.000Z</time>
      </trkpt>
      <trkpt lat="47.51285" lon="6.77276">
        <ele>427</ele>
        <time>2016-12-28T15:49:20.000Z</time>
      </trkpt>
      <trkpt lat="47.5129" lon="6.77279">
        <ele>427.6</ele>
        <time>2016-12-28T15:49:21.000Z</time>
      </trkpt>
      <trkpt lat="47.51296" lon="6.77281">
        <ele>428.1</ele>
        <time>2016-12-28T15:49:22.000Z</time>
      </trkpt>
      <trkpt lat="47.513" lon="6.77283">
        <ele>428.5</ele>
        <time>2016-12-28T15:49:23.000Z</time>
      </trkpt>
      <trkpt lat="47.51306" lon="6.77285">
        <ele>428.7</ele>
        <time>2016-12-28T15:49:24.000Z</time>
      </trkpt>
      <trkpt lat="47.51312" lon="6.77288">
        <ele>428.1</ele>
        <time>2016-12-28T15:49:25.000Z</time>
      </trkpt>
      <trkpt lat="47.51318" lon="6.77291">
        <ele>428</ele>
        <time>2016-12-28T15:49:26.000Z</time>
      </trkpt>
      <trkpt lat="47.51324" lon="6.77291">
        <ele>428.1</ele>
        <time>2016-12-28T15:49:27.000Z</time>
      </trkpt>
      <trkpt lat="47.5133" lon="6.77291">
        <ele>428.4</ele>
        <time>2016-12-28T15:49:28.000Z</time>
      </trkpt>
      <trkpt lat="47.51335" lon="6.77288">
        <ele>428.5</ele>
        <time>2016-12-28T15:49:29.000Z</time>
      </trkpt>
      <trkpt lat="47.51341" lon="6.77285">
        <ele>428.6</ele>
        <time>2016-12-28T15:49:30.000Z</time>
      </trkpt>
      <trkpt lat="47.51348" lon="6.77278">
        <ele>428.4</ele>
        <time>2016-12-28T15:49:31.000Z</time>
      </trkpt>
      <trkpt lat="47.51356" lon="6.7727">
        <ele>428</ele>
        <time>2016-12-28T15:49:32.000Z</time>
      </trkpt>
      <trkpt lat="47.51365" lon="6.77263">
        <ele>427.4</ele>
        <time>2016-12-28T15:49:33.000Z</time>
      </trkpt>
      <trkpt lat="47.51374" lon="6.77254">
        <ele>426</ele>
        <time>2016-12-28T15:49:34.000Z</time>
      </trkpt>
      <trkpt lat="47.51384" lon="6.77247">
        <ele>424.8</ele>
        <time>2016-12-28T15:49:35.000Z</time>
      </trkpt>
      <trkpt lat="47.51392" lon="6.77242">
        <ele>423.5</ele>
        <time>2016-12-28T15:49:36.000Z</time>
      </trkpt>
      <trkpt lat="47.51401" lon="6.77237">
        <ele>422.6</ele>
        <time>2016-12-28T15:49:37.000Z</time>
      </trkpt>
      <trkpt lat="47.5141" lon="6.77231">
        <ele>422</ele>
        <time>2016-12-28T15:49:38.000Z</time>
      </trkpt>
      <trkpt lat="47.51417" lon="6.77227">
        <ele>422.1</ele>
        <time>2016-12-28T15:49:39.000Z</time>
      </trkpt>
      <trkpt lat="47.51425" lon="6.77223">
        <ele>422.2</ele>
        <time>2016-12-28T15:49:40.000Z</time>
      </trkpt>
      <trkpt lat="47.51432" lon="6.77219">
        <ele>422.4</ele>
        <time>2016-12-28T15:49:41.000Z</time>
      </trkpt>
      <trkpt lat="47.5144" lon="6.77215">
        <ele>422.6</ele>
        <time>2016-12-28T15:49:42.000Z</time>
      </trkpt>
      <trkpt lat="47.51447" lon="6.77212">
        <ele>422.5</ele>
        <time>2016-12-28T15:49:43.000Z</time>
      </trkpt>
      <trkpt lat="47.51454" lon="6.77208">
        <ele>422.4</ele>
        <time>2016-12-28T15:49:44.000Z</time>
      </trkpt>
      <trkpt lat="47.51461" lon="6.77205">
        <ele>421.7</ele>
        <time>2016-12-28T15:49:45.000Z</time>
      </trkpt>
      <trkpt lat="47.51468" lon="6.77201">
        <ele>421.1</ele>
        <time>2016-12-28T15:49:46.000Z</time>
      </trkpt>
      <trkpt lat="47.51474" lon="6.77202">
        <ele>420.7</ele>
        <time>2016-12-28T15:49:47.000Z</time>
      </trkpt>
      <trkpt lat="47.51479" lon="6.77206">
        <ele>420.3</ele>
        <time>2016-12-28T15:49:48.000Z</time>
      </trkpt>
      <trkpt lat="47.51483" lon="6.77211">
        <ele>420.1</ele>
        <time>2016-12-28T15:49:49.000Z</time>
      </trkpt>
      <trkpt lat="47.51483" lon="6.77219">
        <ele>419.8</ele>
        <time>2016-12-28T15:49:50.000Z</time>
      </trkpt>
      <trkpt lat="47.51484" lon="6.77227">
        <ele>419</ele>
        <time>2016-12-28T15:49:51.000Z</time>
      </trkpt>
      <trkpt lat="47.51485" lon="6.77238">
        <ele>418.8</ele>
        <time>2016-12-28T15:49:52.000Z</time>
      </trkpt>
      <trkpt lat="47.51485" lon="6.77247">
        <ele>417.9</ele>
        <time>2016-12-28T15:49:53.000Z</time>
      </trkpt>
      <trkpt lat="47.51485" lon="6.77256">
        <ele>417.8</ele>
        <time>2016-12-28T15:49:54.000Z</time>
      </trkpt>
      <trkpt lat="47.51486" lon="6.77263">
        <ele>417.9</ele>
        <time>2016-12-28T15:49:55.000Z</time>
      </trkpt>
      <trkpt lat="47.51486" lon="6.77271">
        <ele>418.2</ele>
        <time>2016-12-28T15:49:56.000Z</time>
      </trkpt>
      <trkpt lat="47.51487" lon="6.7728">
        <ele>418.5</ele>
        <time>2016-12-28T15:49:57.000Z</time>
      </trkpt>
      <trkpt lat="47.51487" lon="6.77288">
        <ele>418.8</ele>
        <time>2016-12-28T15:49:58.000Z</time>
      </trkpt>
      <trkpt lat="47.51488" lon="6.77295">
        <ele>418.9</ele>
        <time>2016-12-28T15:49:59.000Z</time>
      </trkpt>
      <trkpt lat="47.51488" lon="6.77302">
        <ele>419.2</ele>
        <time>2016-12-28T15:50:00.000Z</time>
      </trkpt>
      <trkpt lat="47.51489" lon="6.77309">
        <ele>419.3</ele>
        <time>2016-12-28T15:50:01.000Z</time>
      </trkpt>
      <trkpt lat="47.51492" lon="6.77315">
        <ele>419.3</ele>
        <time>2016-12-28T15:50:02.000Z</time>
      </trkpt>
      <trkpt lat="47.51495" lon="6.77318">
        <ele>419.4</ele>
        <time>2016-12-28T15:50:03.000Z</time>
      </trkpt>
      <trkpt lat="47.51499" lon="6.77322">
        <ele>419.4</ele>
        <time>2016-12-28T15:50:04.000Z</time>
      </trkpt>
      <trkpt lat="47.51502" lon="6.77326">
        <ele>419.5</ele>
        <time>2016-12-28T15:50:05.000Z</time>
      </trkpt>
      <trkpt lat="47.51504" lon="6.77328">
        <ele>419.5</ele>
        <time>2016-12-28T15:50:06.000Z</time>
      </trkpt>
      <trkpt lat="47.51507" lon="6.7733">
        <ele>419.6</ele>
        <time>2016-12-28T15:50:07.000Z</time>
      </trkpt>
      <trkpt lat="47.51509" lon="6.77332">
        <ele>419.5</ele>
        <time>2016-12-28T15:50:08.000Z</time>
      </trkpt>
      <trkpt lat="47.51512" lon="6.77335">
        <ele>419.5</ele>
        <time>2016-12-28T15:50:09.000Z</time>
      </trkpt>
      <trkpt lat="47.51515" lon="6.77337">
        <ele>419.6</ele>
        <time>2016-12-28T15:50:10.000Z</time>
      </trkpt>
      <trkpt lat="47.51517" lon="6.7734">
        <ele>419.7</ele>
        <time>2016-12-28T15:50:11.000Z</time>
      </trkpt>
      <trkpt lat="47.51519" lon="6.77342">
        <ele>419.8</ele>
        <time>2016-12-28T15:50:12.000Z</time>
      </trkpt>
      <trkpt lat="47.51522" lon="6.77344">
        <ele>419.8</ele>
        <time>2016-12-28T15:50:13.000Z</time>
      </trkpt>
      <trkpt lat="47.51525" lon="6.77348">
        <ele>419.9</ele>
        <time>2016-12-28T15:50:14.000Z</time>
      </trkpt>
      <trkpt lat="47.51527" lon="6.7735">
        <ele>420</ele>
        <time>2016-12-28T15:50:15.000Z</time>
      </trkpt>
      <trkpt lat="47.5153" lon="6.77353">
        <ele>420.2</ele>
        <time>2016-12-28T15:50:16.000Z</time>
      </trkpt>
      <trkpt lat="47.51533" lon="6.77355">
        <ele>420.4</ele>
        <time>2016-12-28T15:50:17.000Z</time>
      </trkpt>
      <trkpt lat="47.51535" lon="6.77359">
        <ele>420.5</ele>
        <time>2016-12-28T15:50:18.000Z</time>
      </trkpt>
      <trkpt lat="47.51537" lon="6.77361">
        <ele>420.7</ele>
        <time>2016-12-28T15:50:19.000Z</time>
      </trkpt>
      <trkpt lat="47.51538" lon="6.77363">
        <ele>420.8</ele>
        <time>2016-12-28T15:50:20.000Z</time>
      </trkpt>
      <trkpt lat="47.51541" lon="6.77366">
        <ele>420.9</ele>
        <time>2016-12-28T15:50:21.000Z</time>
      </trkpt>
      <trkpt lat="47.51542" lon="6.77368">
        <ele>421</ele>
        <time>2016-12-28T15:50:22.000Z</time>
      </trkpt>
      <trkpt lat="47.51545" lon="6.7737">
        <ele>421</ele>
        <time>2016-12-28T15:50:23.000Z</time>
      </trkpt>
      <trkpt lat="47.51547" lon="6.77373">
        <ele>421.2</ele>
        <time>2016-12-28T15:50:24.000Z</time>
      </trkpt>
      <trkpt lat="47.51548" lon="6.77375">
        <ele>421.2</ele>
        <time>2016-12-28T15:50:25.000Z</time>
      </trkpt>
      <trkpt lat="47.51551" lon="6.77377">
        <ele>421.4</ele>
        <time>2016-12-28T15:50:26.000Z</time>
      </trkpt>
      <trkpt lat="47.51552" lon="6.77379">
        <ele>421.5</ele>
        <time>2016-12-28T15:50:27.000Z</time>
      </trkpt>
      <trkpt lat="47.51555" lon="6.77381">
        <ele>421.6</ele>
        <time>2016-12-28T15:50:28.000Z</time>
      </trkpt>
      <trkpt lat="47.51556" lon="6.77383">
        <ele>421.7</ele>
        <time>2016-12-28T15:50:29.000Z</time>
      </trkpt>
      <trkpt lat="47.51558" lon="6.77386">
        <ele>421.8</ele>
        <time>2016-12-28T15:50:30.000Z</time>
      </trkpt>
      <trkpt lat="47.5156" lon="6.7739">
        <ele>421.9</ele>
        <time>2016-12-28T15:50:31.000Z</time>
      </trkpt>
      <trkpt lat="47.51562" lon="6.77393">
        <ele>422</ele>
        <time>2016-12-28T15:50:32.000Z</time>
      </trkpt>
      <trkpt lat="47.51564" lon="6.77396">
        <ele>422.1</ele>
        <time>2016-12-28T15:50:33.000Z</time>
      </trkpt>
      <trkpt lat="47.51566" lon="6.77398">
        <ele>422.2</ele>
        <time>2016-12-28T15:50:34.000Z</time>
      </trkpt>
      <trkpt lat="47.51569" lon="6.77401">
        <ele>422.3</ele>
        <time>2016-12-28T15:50:35.000Z</time>
      </trkpt>
      <trkpt lat="47.51572" lon="6.77404">
        <ele>422.5</ele>
        <time>2016-12-28T15:50:36.000Z</time>
      </trkpt>
      <trkpt lat="47.51574" lon="6.77406">
        <ele>422.6</ele>
        <time>2016-12-28T15:50:37.000Z</time>
      </trkpt>
      <trkpt lat="47.51577" lon="6.77409">
        <ele>422.8</ele>
        <time>2016-12-28T15:50:38.000Z</time>
      </trkpt>
      <trkpt lat="47.51579" lon="6.77411">
        <ele>422.9</ele>
        <time>2016-12-28T15:50:39.000Z</time>
      </trkpt>
      <trkpt lat="47.5158" lon="6.77414">
        <ele>423</ele>
        <time>2016-12-28T15:50:40.000Z</time>
      </trkpt>
      <trkpt lat="47.51582" lon="6.77416">
        <ele>423.2</ele>
        <time>2016-12-28T15:50:41.000Z</time>
      </trkpt>
      <trkpt lat="47.51584" lon="6.77419">
        <ele>423.3</ele>
        <time>2016-12-28T15:50:42.000Z</time>
      </trkpt>
      <trkpt lat="47.51587" lon="6.77422">
        <ele>423.5</ele>
        <time>2016-12-28T15:50:43.000Z</time>
      </trkpt>
      <trkpt lat="47.51589" lon="6.77424">
        <ele>423.6</ele>
        <time>2016-12-28T15:50:44.000Z</time>
      </trkpt>
      <trkpt lat="47.51591" lon="6.77427">
        <ele>423.8</ele>
        <time>2016-12-28T15:50:45.000Z</time>
      </trkpt>
      <trkpt lat="47.51593" lon="6.7743">
        <ele>423.9</ele>
        <time>2016-12-28T15:50:46.000Z</time>
      </trkpt>
      <trkpt lat="47.51596" lon="6.77434">
        <ele>424.1</ele>
        <time>2016-12-28T15:50:48.000Z</time>
      </trkpt>
      <trkpt lat="47.51598" lon="6.77436">
        <ele>424.2</ele>
        <time>2016-12-28T15:50:49.000Z</time>
      </trkpt>
      <trkpt lat="47.516" lon="6.77439">
        <ele>424.2</ele>
        <time>2016-12-28T15:50:50.000Z</time>
      </trkpt>
      <trkpt lat="47.51603" lon="6.77441">
        <ele>424.3</ele>
        <time>2016-12-28T15:50:51.000Z</time>
      </trkpt>
      <trkpt lat="47.51604" lon="6.77444">
        <ele>424.5</ele>
        <time>2016-12-28T15:50:52.000Z</time>
      </trkpt>
      <trkpt lat="47.51606" lon="6.77446">
        <ele>424.6</ele>
        <time>2016-12-28T15:50:53.000Z</time>
      </trkpt>
      <trkpt lat="47.51608" lon="6.77449">
        <ele>424.7</ele>
        <time>2016-12-28T15:50:54.000Z</time>
      </trkpt>
      <trkpt lat="47.51609" lon="6.77451">
        <ele>424.8</ele>
        <time>2016-12-28T15:50:55.000Z</time>
      </trkpt>
      <trkpt lat="47.51611" lon="6.77455">
        <ele>424.9</ele>
        <time>2016-12-28T15:50:56.000Z</time>
      </trkpt>
      <trkpt lat="47.51613" lon="6.77457">
        <ele>425</ele>
        <time>2016-12-28T15:50:57.000Z</time>
      </trkpt>
      <trkpt lat="47.51615" lon="6.77459">
        <ele>425.1</ele>
        <time>2016-12-28T15:50:58.000Z</time>
      </trkpt>
      <trkpt lat="47.51617" lon="6.77462">
        <ele>425.2</ele>
        <time>2016-12-28T15:50:59.000Z</time>
      </trkpt>
      <trkpt lat="47.51618" lon="6.77464">
        <ele>425.2</ele>
        <time>2016-12-28T15:51:00.000Z</time>
      </trkpt>
      <trkpt lat="47.5162" lon="6.77467">
        <ele>425.2</ele>
        <time>2016-12-28T15:51:01.000Z</time>
      </trkpt>
      <trkpt lat="47.51622" lon="6.77469">
        <ele>425.2</ele>
        <time>2016-12-28T15:51:02.000Z</time>
      </trkpt>
      <trkpt lat="47.51624" lon="6.77471">
        <ele>425.2</ele>
        <time>2016-12-28T15:51:03.000Z</time>
      </trkpt>
      <trkpt lat="47.51626" lon="6.77473">
        <ele>425.3</ele>
        <time>2016-12-28T15:51:04.000Z</time>
      </trkpt>
      <trkpt lat="47.51628" lon="6.77475">
        <ele>425.4</ele>
        <time>2016-12-28T15:51:05.000Z</time>
      </trkpt>
      <trkpt lat="47.51629" lon="6.77478">
        <ele>425.4</ele>
        <time>2016-12-28T15:51:06.000Z</time>
      </trkpt>
      <trkpt lat="47.51632" lon="6.77481">
        <ele>425.4</ele>
        <time>2016-12-28T15:51:07.000Z</time>
      </trkpt>
      <trkpt lat="47.51634" lon="6.77484">
        <ele>425.4</ele>
        <time>2016-12-28T15:51:08.000Z</time>
      </trkpt>
      <trkpt lat="47.51637" lon="6.77487">
        <ele>425.4</ele>
        <time>2016-12-28T15:51:09.000Z</time>
      </trkpt>
      <trkpt lat="47.51639" lon="6.77491">
        <ele>425.5</ele>
        <time>2016-12-28T15:51:10.000Z</time>
      </trkpt>
      <trkpt lat="47.51642" lon="6.77494">
        <ele>425.5</ele>
        <time>2016-12-28T15:51:11.000Z</time>
      </trkpt>
      <trkpt lat="47.51645" lon="6.77498">
        <ele>425.6</ele>
        <time>2016-12-28T15:51:12.000Z</time>
      </trkpt>
      <trkpt lat="47.51648" lon="6.77501">
        <ele>425.8</ele>
        <time>2016-12-28T15:51:13.000Z</time>
      </trkpt>
      <trkpt lat="47.51651" lon="6.77504">
        <ele>426</ele>
        <time>2016-12-28T15:51:14.000Z</time>
      </trkpt>
      <trkpt lat="47.51653" lon="6.77507">
        <ele>426.1</ele>
        <time>2016-12-28T15:51:15.000Z</time>
      </trkpt>
      <trkpt lat="47.51656" lon="6.7751">
        <ele>426.2</ele>
        <time>2016-12-28T15:51:16.000Z</time>
      </trkpt>
      <trkpt lat="47.51657" lon="6.77512">
        <ele>426.3</ele>
        <time>2016-12-28T15:51:17.000Z</time>
      </trkpt>
      <trkpt lat="47.5166" lon="6.77516">
        <ele>426.4</ele>
        <time>2016-12-28T15:51:18.000Z</time>
      </trkpt>
      <trkpt lat="47.51662" lon="6.77519">
        <ele>426.4</ele>
        <time>2016-12-28T15:51:19.000Z</time>
      </trkpt>
      <trkpt lat="47.51665" lon="6.77523">
        <ele>426.6</ele>
        <time>2016-12-28T15:51:21.000Z</time>
      </trkpt>
      <trkpt lat="47.51668" lon="6.77526">
        <ele>426.7</ele>
        <time>2016-12-28T15:51:22.000Z</time>
      </trkpt>
      <trkpt lat="47.5167" lon="6.77529">
        <ele>426.8</ele>
        <time>2016-12-28T15:51:23.000Z</time>
      </trkpt>
      <trkpt lat="47.51673" lon="6.77532">
        <ele>426.9</ele>
        <time>2016-12-28T15:51:24.000Z</time>
      </trkpt>
      <trkpt lat="47.51674" lon="6.77534">
        <ele>427</ele>
        <time>2016-12-28T15:51:25.000Z</time>
      </trkpt>
      <trkpt lat="47.51676" lon="6.77538">
        <ele>427.1</ele>
        <time>2016-12-28T15:51:26.000Z</time>
      </trkpt>
      <trkpt lat="47.51679" lon="6.7754">
        <ele>427.1</ele>
        <time>2016-12-28T15:51:27.000Z</time>
      </trkpt>
      <trkpt lat="47.51681" lon="6.77543">
        <ele>427.1</ele>
        <time>2016-12-28T15:51:28.000Z</time>
      </trkpt>
      <trkpt lat="47.51683" lon="6.77546">
        <ele>427.1</ele>
        <time>2016-12-28T15:51:29.000Z</time>
      </trkpt>
      <trkpt lat="47.51685" lon="6.77549">
        <ele>427.2</ele>
        <time>2016-12-28T15:51:30.000Z</time>
      </trkpt>
      <trkpt lat="47.51688" lon="6.77552">
        <ele>427.3</ele>
        <time>2016-12-28T15:51:31.000Z</time>
      </trkpt>
      <trkpt lat="47.5169" lon="6.77556">
        <ele>427.3</ele>
        <time>2016-12-28T15:51:32.000Z</time>
      </trkpt>
      <trkpt lat="47.51692" lon="6.7756">
        <ele>427.4</ele>
        <time>2016-12-28T15:51:33.000Z</time>
      </trkpt>
      <trkpt lat="47.51693" lon="6.77562">
        <ele>427.5</ele>
        <time>2016-12-28T15:51:34.000Z</time>
      </trkpt>
      <trkpt lat="47.51696" lon="6.77565">
        <ele>429.1</ele>
        <time>2016-12-28T15:51:43.000Z</time>
      </trkpt>
      <trkpt lat="47.51706" lon="6.77549">
        <ele>429.4</ele>
        <time>2016-12-28T15:51:44.000Z</time>
      </trkpt>
      <trkpt lat="47.51709" lon="6.77548">
        <ele>429.6</ele>
        <time>2016-12-28T15:51:45.000Z</time>
      </trkpt>
      <trkpt lat="47.51711" lon="6.77545">
        <ele>429.8</ele>
        <time>2016-12-28T15:51:46.000Z</time>
      </trkpt>
      <trkpt lat="47.51712" lon="6.7754">
        <ele>430</ele>
        <time>2016-12-28T15:51:47.000Z</time>
      </trkpt>
      <trkpt lat="47.51714" lon="6.77536">
        <ele>430.1</ele>
        <time>2016-12-28T15:51:48.000Z</time>
      </trkpt>
      <trkpt lat="47.51715" lon="6.77531">
        <ele>431.4</ele>
        <time>2016-12-28T15:51:49.000Z</time>
      </trkpt>
      <trkpt lat="47.51717" lon="6.77525">
        <ele>432.9</ele>
        <time>2016-12-28T15:51:50.000Z</time>
      </trkpt>
      <trkpt lat="47.51718" lon="6.77521">
        <ele>433.3</ele>
        <time>2016-12-28T15:51:51.000Z</time>
      </trkpt>
      <trkpt lat="47.5172" lon="6.77516">
        <ele>433.2</ele>
        <time>2016-12-28T15:51:52.000Z</time>
      </trkpt>
      <trkpt lat="47.51722" lon="6.77509">
        <ele>433.2</ele>
        <time>2016-12-28T15:51:53.000Z</time>
      </trkpt>
      <trkpt lat="47.51722" lon="6.77503">
        <ele>433.3</ele>
        <time>2016-12-28T15:51:54.000Z</time>
      </trkpt>
      <trkpt lat="47.51722" lon="6.77496">
        <ele>432.8</ele>
        <time>2016-12-28T15:51:55.000Z</time>
      </trkpt>
      <trkpt lat="47.51724" lon="6.77491">
        <ele>432.9</ele>
        <time>2016-12-28T15:51:56.000Z</time>
      </trkpt>
      <trkpt lat="47.51727" lon="6.77486">
        <ele>432.5</ele>
        <time>2016-12-28T15:51:57.000Z</time>
      </trkpt>
      <trkpt lat="47.5173" lon="6.77481">
        <ele>432.3</ele>
        <time>2016-12-28T15:51:58.000Z</time>
      </trkpt>
      <trkpt lat="47.51734" lon="6.7748">
        <ele>432.7</ele>
        <time>2016-12-28T15:51:59.000Z</time>
      </trkpt>
      <trkpt lat="47.51737" lon="6.7748">
        <ele>432.8</ele>
        <time>2016-12-28T15:52:00.000Z</time>
      </trkpt>
      <trkpt lat="47.51739" lon="6.7748">
        <ele>432.9</ele>
        <time>2016-12-28T15:52:01.000Z</time>
      </trkpt>
      <trkpt lat="47.51743" lon="6.7748">
        <ele>432.8</ele>
        <time>2016-12-28T15:52:03.000Z</time>
      </trkpt>
      <trkpt lat="47.51747" lon="6.7748">
        <ele>432.8</ele>
        <time>2016-12-28T15:52:04.000Z</time>
      </trkpt>
      <trkpt lat="47.51751" lon="6.7748">
        <ele>432.9</ele>
        <time>2016-12-28T15:52:05.000Z</time>
      </trkpt>
      <trkpt lat="47.51754" lon="6.77481">
        <ele>433</ele>
        <time>2016-12-28T15:52:06.000Z</time>
      </trkpt>
      <trkpt lat="47.51758" lon="6.77481">
        <ele>433</ele>
        <time>2016-12-28T15:52:07.000Z</time>
      </trkpt>
      <trkpt lat="47.51762" lon="6.77482">
        <ele>433.1</ele>
        <time>2016-12-28T15:52:08.000Z</time>
      </trkpt>
      <trkpt lat="47.51765" lon="6.77482">
        <ele>433.2</ele>
        <time>2016-12-28T15:52:09.000Z</time>
      </trkpt>
      <trkpt lat="47.51768" lon="6.77483">
        <ele>433.3</ele>
        <time>2016-12-28T15:52:10.000Z</time>
      </trkpt>
      <trkpt lat="47.51772" lon="6.77486">
        <ele>434.2</ele>
        <time>2016-12-28T15:52:11.000Z</time>
      </trkpt>
      <trkpt lat="47.51775" lon="6.77487">
        <ele>434.3</ele>
        <time>2016-12-28T15:52:12.000Z</time>
      </trkpt>
      <trkpt lat="47.51779" lon="6.77487">
        <ele>435.2</ele>
        <time>2016-12-28T15:52:13.000Z</time>
      </trkpt>
      <trkpt lat="47.51782" lon="6.77486">
        <ele>435.3</ele>
        <time>2016-12-28T15:52:14.000Z</time>
      </trkpt>
      <trkpt lat="47.51785" lon="6.77488">
        <ele>435.3</ele>
        <time>2016-12-28T15:52:15.000Z</time>
      </trkpt>
      <trkpt lat="47.51788" lon="6.77489">
        <ele>435.3</ele>
        <time>2016-12-28T15:52:16.000Z</time>
      </trkpt>
      <trkpt lat="47.5179" lon="6.77493">
        <ele>435.2</ele>
        <time>2016-12-28T15:52:24.000Z</time>
      </trkpt>
      <trkpt lat="47.51801" lon="6.775">
        <ele>435.1</ele>
        <time>2016-12-28T15:52:25.000Z</time>
      </trkpt>
      <trkpt lat="47.51804" lon="6.775">
        <ele>435.1</ele>
        <time>2016-12-28T15:52:26.000Z</time>
      </trkpt>
      <trkpt lat="47.51806" lon="6.775">
        <ele>435.1</ele>
        <time>2016-12-28T15:52:27.000Z</time>
      </trkpt>
      <trkpt lat="47.51809" lon="6.77498">
        <ele>435.1</ele>
        <time>2016-12-28T15:52:33.000Z</time>
      </trkpt>
      <trkpt lat="47.51809" lon="6.77486">
        <ele>435.1</ele>
        <time>2016-12-28T15:52:34.000Z</time>
      </trkpt>
      <trkpt lat="47.5181" lon="6.77492">
        <ele>434.9</ele>
        <time>2016-12-28T15:53:01.000Z</time>
      </trkpt>
      <trkpt lat="47.51795" lon="6.77493">
        <ele>434.9</ele>
        <time>2016-12-28T15:53:02.000Z</time>
      </trkpt>
      <trkpt lat="47.51795" lon="6.77493">
        <ele>435.5</ele>
        <time>2016-12-28T15:53:09.000Z</time>
      </trkpt>
      <trkpt lat="47.51805" lon="6.77499">
        <ele>435.6</ele>
        <time>2016-12-28T15:53:10.000Z</time>
      </trkpt>
      <trkpt lat="47.51807" lon="6.77493">
        <ele>436.4</ele>
        <time>2016-12-28T15:53:11.000Z</time>
      </trkpt>
      <trkpt lat="47.51809" lon="6.77487">
        <ele>436.4</ele>
        <time>2016-12-28T15:53:12.000Z</time>
      </trkpt>
      <trkpt lat="47.51809" lon="6.77478">
        <ele>436.6</ele>
        <time>2016-12-28T15:53:13.000Z</time>
      </trkpt>
      <trkpt lat="47.51809" lon="6.77472">
        <ele>436</ele>
        <time>2016-12-28T15:53:14.000Z</time>
      </trkpt>
      <trkpt lat="47.51807" lon="6.77468">
        <ele>436</ele>
        <time>2016-12-28T15:53:15.000Z</time>
      </trkpt>
      <trkpt lat="47.51808" lon="6.77468">
        <ele>436</ele>
        <time>2016-12-28T15:53:38.000Z</time>
      </trkpt>
      <trkpt lat="47.518" lon="6.7748">
        <ele>436</ele>
        <time>2016-12-28T15:53:39.000Z</time>
      </trkpt>
      <trkpt lat="47.518" lon="6.7748">
        <ele>437.5</ele>
        <time>2016-12-28T15:54:41.000Z</time>
      </trkpt>
      <trkpt lat="47.51809" lon="6.7747">
        <ele>437.4</ele>
        <time>2016-12-28T15:54:42.000Z</time>
      </trkpt>
      <trkpt lat="47.5181" lon="6.77475">
        <ele>435.6</ele>
        <time>2016-12-28T15:55:59.000Z</time>
      </trkpt>
      <trkpt lat="47.5181" lon="6.77477">
        <ele>435.6</ele>
        <time>2016-12-28T15:56:00.000Z</time>
      </trkpt>
      <trkpt lat="47.51808" lon="6.77483">
        <ele>435.7</ele>
        <time>2016-12-28T15:56:04.000Z</time>
      </trkpt>
      <trkpt lat="47.51808" lon="6.77485">
        <ele>435.8</ele>
        <time>2016-12-28T15:56:05.000Z</time>
      </trkpt>
      <trkpt lat="47.51807" lon="6.77489">
        <ele>435.9</ele>
        <time>2016-12-28T15:56:07.000Z</time>
      </trkpt>
      <trkpt lat="47.51806" lon="6.77493">
        <ele>435.9</ele>
        <time>2016-12-28T15:56:08.000Z</time>
      </trkpt>
      <trkpt lat="47.51809" lon="6.77491">
        <ele>439.5</ele>
        <time>2016-12-28T15:57:00.000Z</time>
      </trkpt>
      <trkpt lat="47.51809" lon="6.77489">
        <ele>439.3</ele>
        <time>2016-12-28T15:57:01.000Z</time>
      </trkpt>
      <trkpt lat="47.51808" lon="6.77483">
        <ele>435.9</ele>
        <time>2016-12-28T16:03:37.000Z</time>
      </trkpt>
      <trkpt lat="47.51806" lon="6.77481">
        <ele>435.6</ele>
        <time>2016-12-28T16:03:38.000Z</time>
      </trkpt>
      <trkpt lat="47.51803" lon="6.77477">
        <ele>435.4</ele>
        <time>2016-12-28T16:03:39.000Z</time>
      </trkpt>
      <trkpt lat="47.51802" lon="6.77476">
        <ele>435.2</ele>
        <time>2016-12-28T16:03:40.000Z</time>
      </trkpt>
      <trkpt lat="47.51804" lon="6.77481">
        <ele>437.4</ele>
        <time>2016-12-28T16:04:53.000Z</time>
      </trkpt>
      <trkpt lat="47.51805" lon="6.77482">
        <ele>437.6</ele>
        <time>2016-12-28T16:04:54.000Z</time>
      </trkpt>
      <trkpt lat="47.51805" lon="6.77483">
        <ele>438.5</ele>
        <time>2016-12-28T16:09:09.000Z</time>
      </trkpt>
      <trkpt lat="47.51811" lon="6.77486">
        <ele>438.5</ele>
        <time>2016-12-28T16:09:11.000Z</time>
      </trkpt>
      <trkpt lat="47.51813" lon="6.77488">
        <ele>438.2</ele>
        <time>2016-12-28T16:09:16.000Z</time>
      </trkpt>
      <trkpt lat="47.51816" lon="6.7749">
        <ele>438.3</ele>
        <time>2016-12-28T16:09:21.000Z</time>
      </trkpt>
      <trkpt lat="47.51813" lon="6.77485">
        <ele>438.7</ele>
        <time>2016-12-28T16:09:47.000Z</time>
      </trkpt>
      <trkpt lat="47.51813" lon="6.77484">
        <ele>438.7</ele>
        <time>2016-12-28T16:09:48.000Z</time>
      </trkpt>
      <trkpt lat="47.5181" lon="6.77481">
        <ele>438.7</ele>
        <time>2016-12-28T16:09:50.000Z</time>
      </trkpt>
      <trkpt lat="47.51807" lon="6.77477">
        <ele>438.7</ele>
        <time>2016-12-28T16:09:51.000Z</time>
      </trkpt>
      <trkpt lat="47.51803" lon="6.77475">
        <ele>438.7</ele>
        <time>2016-12-28T16:09:54.000Z</time>
      </trkpt>
      <trkpt lat="47.51803" lon="6.77475">
        <ele>438.8</ele>
        <time>2016-12-28T16:09:55.000Z</time>
      </trkpt>
      <trkpt lat="47.51806" lon="6.77473">
        <ele>435.9</ele>
        <time>2016-12-28T16:10:55.000Z</time>
      </trkpt>
      <trkpt lat="47.51807" lon="6.77473">
        <ele>435.8</ele>
        <time>2016-12-28T16:10:56.000Z</time>
      </trkpt>
      <trkpt lat="47.51804" lon="6.77474">
        <ele>431.5</ele>
        <time>2016-12-28T16:13:06.000Z</time>
      </trkpt>
      <trkpt lat="47.51803" lon="6.77475">
        <ele>431.5</ele>
        <time>2016-12-28T16:13:07.000Z</time>
      </trkpt>
      <trkpt lat="47.51801" lon="6.7748">
        <ele>431.1</ele>
        <time>2016-12-28T16:13:13.000Z</time>
      </trkpt>
      <trkpt lat="47.51801" lon="6.77481">
        <ele>431.1</ele>
        <time>2016-12-28T16:13:14.000Z</time>
      </trkpt>
      <trkpt lat="47.51805" lon="6.77482">
        <ele>434.3</ele>
        <time>2016-12-28T16:15:15.000Z</time>
      </trkpt>
      <trkpt lat="47.51805" lon="6.77482">
        <ele>434.4</ele>
        <time>2016-12-28T16:15:16.000Z</time>
      </trkpt>
      <trkpt lat="47.51808" lon="6.77478">
        <ele>436.7</ele>
        <time>2016-12-28T16:15:49.000Z</time>
      </trkpt>
      <trkpt lat="47.51809" lon="6.77477">
        <ele>436.7</ele>
        <time>2016-12-28T16:15:50.000Z</time>
      </trkpt>
      <trkpt lat="47.51812" lon="6.77476">
        <ele>432.7</ele>
        <time>2016-12-28T16:17:43.000Z</time>
      </trkpt>
      <trkpt lat="47.51814" lon="6.77475">
        <ele>432.4</ele>
        <time>2016-12-28T16:17:44.000Z</time>
      </trkpt>
      <trkpt lat="47.5181" lon="6.77475">
        <ele>431.1</ele>
        <time>2016-12-28T16:18:14.000Z</time>
      </trkpt>
      <trkpt lat="47.51807" lon="6.77476">
        <ele>431.2</ele>
        <time>2016-12-28T16:18:15.000Z</time>
      </trkpt>
      <trkpt lat="47.51804" lon="6.77473">
        <ele>432.2</ele>
        <time>2016-12-28T16:19:08.000Z</time>
      </trkpt>
      <trkpt lat="47.51803" lon="6.77472">
        <ele>432.1</ele>
        <time>2016-12-28T16:19:09.000Z</time>
      </trkpt>
      <trkpt lat="47.51803" lon="6.77467">
        <ele>427.6</ele>
        <time>2016-12-28T16:19:59.000Z</time>
      </trkpt>
      <trkpt lat="47.51803" lon="6.77462">
        <ele>427.2</ele>
        <time>2016-12-28T16:20:00.000Z</time>
      </trkpt>
      <trkpt lat="47.51804" lon="6.77457">
        <ele>426.2</ele>
        <time>2016-12-28T16:20:05.000Z</time>
      </trkpt>
      <trkpt lat="47.51805" lon="6.77451">
        <ele>425.9</ele>
        <time>2016-12-28T16:20:06.000Z</time>
      </trkpt>
      <trkpt lat="47.51806" lon="6.77447">
        <ele>425.2</ele>
        <time>2016-12-28T16:20:08.000Z</time>
      </trkpt>
      <trkpt lat="47.51807" lon="6.77446">
        <ele>424.7</ele>
        <time>2016-12-28T16:20:09.000Z</time>
      </trkpt>
      <trkpt lat="47.5181" lon="6.77441">
        <ele>422.8</ele>
        <time>2016-12-28T16:20:12.000Z</time>
      </trkpt>
      <trkpt lat="47.5181" lon="6.7744">
        <ele>422.1</ele>
        <time>2016-12-28T16:20:13.000Z</time>
      </trkpt>
      <trkpt lat="47.51813" lon="6.77435">
        <ele>418.4</ele>
        <time>2016-12-28T16:20:18.000Z</time>
      </trkpt>
      <trkpt lat="47.51814" lon="6.77435">
        <ele>417.7</ele>
        <time>2016-12-28T16:20:19.000Z</time>
      </trkpt>
      <trkpt lat="47.51815" lon="6.77428">
        <ele>414</ele>
        <time>2016-12-28T16:20:28.000Z</time>
      </trkpt>
      <trkpt lat="47.51815" lon="6.77428">
        <ele>413.6</ele>
        <time>2016-12-28T16:20:29.000Z</time>
      </trkpt>
      <trkpt lat="47.51817" lon="6.77433">
        <ele>410.5</ele>
        <time>2016-12-28T16:20:52.000Z</time>
      </trkpt>
      <trkpt lat="47.51818" lon="6.77433">
        <ele>410.6</ele>
        <time>2016-12-28T16:20:53.000Z</time>
      </trkpt>
      <trkpt lat="47.51819" lon="6.77438">
        <ele>417.1</ele>
        <time>2016-12-28T16:22:55.000Z</time>
      </trkpt>
      <trkpt lat="47.51818" lon="6.77443">
        <ele>417.6</ele>
        <time>2016-12-28T16:22:56.000Z</time>
      </trkpt>
      <trkpt lat="47.51816" lon="6.77445">
        <ele>421.3</ele>
        <time>2016-12-28T16:24:57.999Z</time>
      </trkpt>
      <trkpt lat="47.51815" lon="6.77449">
        <ele>421.3</ele>
        <time>2016-12-28T16:24:58.999Z</time>
      </trkpt>
      <trkpt lat="47.51814" lon="6.77453">
        <ele>421.7</ele>
        <time>2016-12-28T16:25:33.999Z</time>
      </trkpt>
      <trkpt lat="47.51813" lon="6.77454">
        <ele>422</ele>
        <time>2016-12-28T16:25:34.999Z</time>
      </trkpt>
      <trkpt lat="47.51812" lon="6.7746">
        <ele>424.9</ele>
        <time>2016-12-28T16:26:34.999Z</time>
      </trkpt>
      <trkpt lat="47.51812" lon="6.77461">
        <ele>425</ele>
        <time>2016-12-28T16:26:35.999Z</time>
      </trkpt>
      <trkpt lat="47.5181" lon="6.77466">
        <ele>427.9</ele>
        <time>2016-12-28T16:27:04.999Z</time>
      </trkpt>
      <trkpt lat="47.51809" lon="6.77467">
        <ele>428.1</ele>
        <time>2016-12-28T16:27:05.999Z</time>
      </trkpt>
      <trkpt lat="47.51809" lon="6.77474">
        <ele>429.2</ele>
        <time>2016-12-28T16:27:36.999Z</time>
      </trkpt>
      <trkpt lat="47.51809" lon="6.77474">
        <ele>429.4</ele>
        <time>2016-12-28T16:27:37.999Z</time>
      </trkpt>
      <trkpt lat="47.51805" lon="6.77476">
        <ele>433.6</ele>
        <time>2016-12-28T16:28:50.999Z</time>
      </trkpt>
      <trkpt lat="47.51805" lon="6.77477">
        <ele>433.6</ele>
        <time>2016-12-28T16:28:51.999Z</time>
      </trkpt>
      <trkpt lat="47.51803" lon="6.77478">
        <ele>433.9</ele>
        <time>2016-12-28T16:29:21.999Z</time>
      </trkpt>
      <trkpt lat="47.518" lon="6.77479">
        <ele>434.3</ele>
        <time>2016-12-28T16:29:22.999Z</time>
      </trkpt>
      <trkpt lat="47.51802" lon="6.7748">
        <ele>435.6</ele>
        <time>2016-12-28T16:30:04.999Z</time>
      </trkpt>
      <trkpt lat="47.51805" lon="6.77481">
        <ele>435.6</ele>
        <time>2016-12-28T16:30:05.999Z</time>
      </trkpt>
      <trkpt lat="47.51809" lon="6.77483">
        <ele>433.7</ele>
        <time>2016-12-28T16:31:26.999Z</time>
      </trkpt>
      <trkpt lat="47.5181" lon="6.77483">
        <ele>433.7</ele>
        <time>2016-12-28T16:31:27.999Z</time>
      </trkpt>
      <trkpt lat="47.51813" lon="6.77482">
        <ele>435.2</ele>
        <time>2016-12-28T16:32:02.999Z</time>
      </trkpt>
      <trkpt lat="47.51815" lon="6.7748">
        <ele>435.3</ele>
        <time>2016-12-28T16:32:03.999Z</time>
      </trkpt>
      <trkpt lat="47.51818" lon="6.77475">
        <ele>435.9</ele>
        <time>2016-12-28T16:32:06.999Z</time>
      </trkpt>
      <trkpt lat="47.51818" lon="6.77475">
        <ele>436.2</ele>
        <time>2016-12-28T16:32:07.999Z</time>
      </trkpt>
      <trkpt lat="47.51817" lon="6.77471">
        <ele>435.9</ele>
        <time>2016-12-28T16:32:41.999Z</time>
      </trkpt>
      <trkpt lat="47.51816" lon="6.77468">
        <ele>435.8</ele>
        <time>2016-12-28T16:32:42.999Z</time>
      </trkpt>
      <trkpt lat="47.51814" lon="6.77463">
        <ele>435.1</ele>
        <time>2016-12-28T16:32:45.999Z</time>
      </trkpt>
      <trkpt lat="47.51813" lon="6.77461">
        <ele>434.8</ele>
        <time>2016-12-28T16:32:46.999Z</time>
      </trkpt>
      <trkpt lat="47.5181" lon="6.77458">
        <ele>434.1</ele>
        <time>2016-12-28T16:32:49.999Z</time>
      </trkpt>
      <trkpt lat="47.51809" lon="6.77457">
        <ele>433.9</ele>
        <time>2016-12-28T16:32:50.999Z</time>
      </trkpt>
      <trkpt lat="47.51805" lon="6.77458">
        <ele>432.5</ele>
        <time>2016-12-28T16:32:59.999Z</time>
      </trkpt>
      <trkpt lat="47.51805" lon="6.77459">
        <ele>432.5</ele>
        <time>2016-12-28T16:33:00.999Z</time>
      </trkpt>
      <trkpt lat="47.51806" lon="6.77465">
        <ele>435.5</ele>
        <time>2016-12-28T16:35:11.999Z</time>
      </trkpt>
      <trkpt lat="47.51807" lon="6.77466">
        <ele>435.7</ele>
        <time>2016-12-28T16:35:12.999Z</time>
      </trkpt>
      <trkpt lat="47.5181" lon="6.7747">
        <ele>435.7</ele>
        <time>2016-12-28T16:35:32.999Z</time>
      </trkpt>
      <trkpt lat="47.5181" lon="6.77474">
        <ele>435.7</ele>
        <time>2016-12-28T16:35:33.999Z</time>
      </trkpt>
      <trkpt lat="47.51806" lon="6.77477">
        <ele>439.4</ele>
        <time>2016-12-28T16:38:10.999Z</time>
      </trkpt>
      <trkpt lat="47.51806" lon="6.77478">
        <ele>439</ele>
        <time>2016-12-28T16:38:11.999Z</time>
      </trkpt>
      <trkpt lat="47.51804" lon="6.77479">
        <ele>438.6</ele>
        <time>2016-12-28T16:38:15.999Z</time>
      </trkpt>
      <trkpt lat="47.518" lon="6.77479">
        <ele>438.5</ele>
        <time>2016-12-28T16:38:16.999Z</time>
      </trkpt>
      <trkpt lat="47.51798" lon="6.77482">
        <ele>440.5</ele>
        <time>2016-12-28T16:38:46.999Z</time>
      </trkpt>
      <trkpt lat="47.51799" lon="6.77486">
        <ele>440.4</ele>
        <time>2016-12-28T16:38:47.999Z</time>
      </trkpt>
      <trkpt lat="47.51802" lon="6.7749">
        <ele>440.1</ele>
        <time>2016-12-28T16:38:56.999Z</time>
      </trkpt>
      <trkpt lat="47.51802" lon="6.77491">
        <ele>440.3</ele>
        <time>2016-12-28T16:38:57.999Z</time>
      </trkpt>
      <trkpt lat="47.51806" lon="6.77487">
        <ele>441.1</ele>
        <time>2016-12-28T16:39:04.999Z</time>
      </trkpt>
      <trkpt lat="47.51806" lon="6.77487">
        <ele>441.2</ele>
        <time>2016-12-28T16:39:05.999Z</time>
      </trkpt>
      <trkpt lat="47.51809" lon="6.77485">
        <ele>441.7</ele>
        <time>2016-12-28T16:39:15.999Z</time>
      </trkpt>
      <trkpt lat="47.51808" lon="6.77481">
        <ele>441.8</ele>
        <time>2016-12-28T16:39:16.999Z</time>
      </trkpt>
      <trkpt lat="47.51809" lon="6.77474">
        <ele>442</ele>
        <time>2016-12-28T16:39:27.999Z</time>
      </trkpt>
      <trkpt lat="47.5181" lon="6.77474">
        <ele>442.2</ele>
        <time>2016-12-28T16:39:28.999Z</time>
      </trkpt>
      <trkpt lat="47.51812" lon="6.7747">
        <ele>439.8</ele>
        <time>2016-12-28T16:42:01.999Z</time>
      </trkpt>
      <trkpt lat="47.51813" lon="6.77464">
        <ele>439.6</ele>
        <time>2016-12-28T16:42:02.999Z</time>
      </trkpt>
      <trkpt lat="47.51815" lon="6.77458">
        <ele>439</ele>
        <time>2016-12-28T16:42:10.999Z</time>
      </trkpt>
      <trkpt lat="47.51815" lon="6.77457">
        <ele>439</ele>
        <time>2016-12-28T16:42:11.999Z</time>
      </trkpt>
      <trkpt lat="47.51814" lon="6.77464">
        <ele>442.6</ele>
        <time>2016-12-28T16:43:33.999Z</time>
      </trkpt>
      <trkpt lat="47.51814" lon="6.77464">
        <ele>442.6</ele>
        <time>2016-12-28T16:43:34.999Z</time>
      </trkpt>
      <trkpt lat="47.51813" lon="6.7747">
        <ele>445</ele>
        <time>2016-12-28T16:44:36.999Z</time>
      </trkpt>
      <trkpt lat="47.51813" lon="6.77471">
        <ele>445</ele>
        <time>2016-12-28T16:44:37.999Z</time>
      </trkpt>
      <trkpt lat="47.51813" lon="6.77477">
        <ele>444.8</ele>
        <time>2016-12-28T16:44:45.999Z</time>
      </trkpt>
      <trkpt lat="47.51812" lon="6.77478">
        <ele>444.8</ele>
        <time>2016-12-28T16:44:46.999Z</time>
      </trkpt>
      <trkpt lat="47.51811" lon="6.77477">
        <ele>440</ele>
        <time>2016-12-28T16:45:39.999Z</time>
      </trkpt>
      <trkpt lat="47.51807" lon="6.77476">
        <ele>439.8</ele>
        <time>2016-12-28T16:45:40.999Z</time>
      </trkpt>
      <trkpt lat="47.51807" lon="6.7747">
        <ele>435.9</ele>
        <time>2016-12-28T16:47:27.999Z</time>
      </trkpt>
      <trkpt lat="47.51807" lon="6.77469">
        <ele>435.5</ele>
        <time>2016-12-28T16:47:28.999Z</time>
      </trkpt>
      <trkpt lat="47.51805" lon="6.77468">
        <ele>434.5</ele>
        <time>2016-12-28T16:47:42.999Z</time>
      </trkpt>
      <trkpt lat="47.51802" lon="6.77469">
        <ele>434.5</ele>
        <time>2016-12-28T16:47:43.999Z</time>
      </trkpt>
      <trkpt lat="47.51802" lon="6.77472">
        <ele>434.2</ele>
        <time>2016-12-28T16:48:30.999Z</time>
      </trkpt>
      <trkpt lat="47.518" lon="6.77475">
        <ele>434.2</ele>
        <time>2016-12-28T16:48:31.999Z</time>
      </trkpt>
      <trkpt lat="47.51797" lon="6.77471">
        <ele>435.6</ele>
        <time>2016-12-28T16:50:01.999Z</time>
      </trkpt>
      <trkpt lat="47.51794" lon="6.7747">
        <ele>434.9</ele>
        <time>2016-12-28T16:50:02.999Z</time>
      </trkpt>
      <trkpt lat="47.5179" lon="6.77468">
        <ele>433.3</ele>
        <time>2016-12-28T16:50:04.999Z</time>
      </trkpt>
      <trkpt lat="47.51789" lon="6.77468">
        <ele>432.4</ele>
        <time>2016-12-28T16:50:05.999Z</time>
      </trkpt>
      <trkpt lat="47.51793" lon="6.77468">
        <ele>423.4</ele>
        <time>2016-12-28T16:51:08.999Z</time>
      </trkpt>
      <trkpt lat="47.51794" lon="6.77468">
        <ele>423.5</ele>
        <time>2016-12-28T16:51:09.999Z</time>
      </trkpt>
      <trkpt lat="47.51798" lon="6.77466">
        <ele>424.6</ele>
        <time>2016-12-28T16:51:19.999Z</time>
      </trkpt>
      <trkpt lat="47.51802" lon="6.77467">
        <ele>424.8</ele>
        <time>2016-12-28T16:51:20.999Z</time>
      </trkpt>
      <trkpt lat="47.51803" lon="6.77465">
        <ele>433.1</ele>
        <time>2016-12-28T16:52:12.999Z</time>
      </trkpt>
    </trkseg>
  </trk>
</gpx>